<?xml version="1.0" encoding="UTF-8" standalone="no" ?>
<gpx xmlns="http://www.topografix.com/GPX/1/1" xmlns:xsi="http://www.w3.org/2001/XMLSchema-instance" xsi:schemaLocation="http://www.topografix.com/GPX/1/1 http://www.topografix.com/GPX/1/1/gpx.xsd" version="1.1" creator="VisuGPX - https://www.visugpx.com">
  <metadata>
    <name>Boucle en 8 Laragne Lazer Barcilonnette Lardier La Saulce Montier </name>
    <desc><![CDATA[Boucle en 8 avec la montée sur Barcilonnette (altitude 824 m, dénivelé 250 m).]]></desc>
  </metadata>
  <trk>
    <name><![CDATA[Boucle en 8 Laragne Lazer Barcilonnette Lardier La Saulce Montier _1]]></name>
    <trkseg>
      <trkpt lat="44.31604" lon="5.82961">
        <ele>583</ele>
        <time>2019-04-09T10:53:33Z</time>
      </trkpt>
      <trkpt lat="44.31584" lon="5.82935">
        <ele>585</ele>
        <time>2019-04-09T10:54:04Z</time>
      </trkpt>
      <trkpt lat="44.31582" lon="5.82932">
        <ele>585</ele>
        <time>2019-04-09T10:54:05Z</time>
      </trkpt>
      <trkpt lat="44.31579" lon="5.8293">
        <ele>585</ele>
        <time>2019-04-09T10:54:06Z</time>
      </trkpt>
      <trkpt lat="44.31576" lon="5.82927">
        <ele>585</ele>
        <time>2019-04-09T10:54:07Z</time>
      </trkpt>
      <trkpt lat="44.31572" lon="5.82925">
        <ele>585</ele>
        <time>2019-04-09T10:54:08Z</time>
      </trkpt>
      <trkpt lat="44.31568" lon="5.82923">
        <ele>585</ele>
        <time>2019-04-09T10:54:09Z</time>
      </trkpt>
      <trkpt lat="44.31564" lon="5.8292">
        <ele>585</ele>
        <time>2019-04-09T10:54:10Z</time>
      </trkpt>
      <trkpt lat="44.3156" lon="5.82917">
        <ele>585</ele>
        <time>2019-04-09T10:54:11Z</time>
      </trkpt>
      <trkpt lat="44.31556" lon="5.82915">
        <ele>585</ele>
        <time>2019-04-09T10:54:12Z</time>
      </trkpt>
      <trkpt lat="44.31552" lon="5.82913">
        <ele>585</ele>
        <time>2019-04-09T10:54:13Z</time>
      </trkpt>
      <trkpt lat="44.31548" lon="5.8291">
        <ele>585</ele>
        <time>2019-04-09T10:54:14Z</time>
      </trkpt>
      <trkpt lat="44.31545" lon="5.82908">
        <ele>585</ele>
        <time>2019-04-09T10:54:15Z</time>
      </trkpt>
      <trkpt lat="44.31542" lon="5.82905">
        <ele>585</ele>
        <time>2019-04-09T10:54:16Z</time>
      </trkpt>
      <trkpt lat="44.31539" lon="5.82902">
        <ele>585</ele>
        <time>2019-04-09T10:54:17Z</time>
      </trkpt>
      <trkpt lat="44.31536" lon="5.82899">
        <ele>585</ele>
        <time>2019-04-09T10:54:18Z</time>
      </trkpt>
      <trkpt lat="44.31533" lon="5.82896">
        <ele>585</ele>
        <time>2019-04-09T10:54:19Z</time>
      </trkpt>
      <trkpt lat="44.3153" lon="5.82892">
        <ele>584</ele>
        <time>2019-04-09T10:54:20Z</time>
      </trkpt>
      <trkpt lat="44.31527" lon="5.82888">
        <ele>584</ele>
        <time>2019-04-09T10:54:21Z</time>
      </trkpt>
      <trkpt lat="44.31523" lon="5.82885">
        <ele>583</ele>
        <time>2019-04-09T10:54:22Z</time>
      </trkpt>
      <trkpt lat="44.3152" lon="5.82883">
        <ele>582</ele>
        <time>2019-04-09T10:54:23Z</time>
      </trkpt>
      <trkpt lat="44.31517" lon="5.82881">
        <ele>582</ele>
        <time>2019-04-09T10:54:24Z</time>
      </trkpt>
      <trkpt lat="44.31514" lon="5.82877">
        <ele>581</ele>
        <time>2019-04-09T10:54:25Z</time>
      </trkpt>
      <trkpt lat="44.31512" lon="5.82874">
        <ele>581</ele>
        <time>2019-04-09T10:54:26Z</time>
      </trkpt>
      <trkpt lat="44.31508" lon="5.82871">
        <ele>580</ele>
        <time>2019-04-09T10:54:27Z</time>
      </trkpt>
      <trkpt lat="44.31504" lon="5.8287">
        <ele>580</ele>
        <time>2019-04-09T10:54:28Z</time>
      </trkpt>
      <trkpt lat="44.315" lon="5.8287">
        <ele>580</ele>
        <time>2019-04-09T10:54:29Z</time>
      </trkpt>
      <trkpt lat="44.31496" lon="5.82872">
        <ele>580</ele>
        <time>2019-04-09T10:54:30Z</time>
      </trkpt>
      <trkpt lat="44.31492" lon="5.82875">
        <ele>580</ele>
        <time>2019-04-09T10:54:31Z</time>
      </trkpt>
      <trkpt lat="44.31488" lon="5.82878">
        <ele>580</ele>
        <time>2019-04-09T10:54:32Z</time>
      </trkpt>
      <trkpt lat="44.31486" lon="5.82883">
        <ele>580</ele>
        <time>2019-04-09T10:54:33Z</time>
      </trkpt>
      <trkpt lat="44.31484" lon="5.82889">
        <ele>580</ele>
        <time>2019-04-09T10:54:34Z</time>
      </trkpt>
      <trkpt lat="44.31482" lon="5.82894">
        <ele>579</ele>
        <time>2019-04-09T10:54:35Z</time>
      </trkpt>
      <trkpt lat="44.31479" lon="5.82899">
        <ele>579</ele>
        <time>2019-04-09T10:54:36Z</time>
      </trkpt>
      <trkpt lat="44.31477" lon="5.82904">
        <ele>579</ele>
        <time>2019-04-09T10:54:37Z</time>
      </trkpt>
      <trkpt lat="44.31474" lon="5.82909">
        <ele>579</ele>
        <time>2019-04-09T10:54:38Z</time>
      </trkpt>
      <trkpt lat="44.31471" lon="5.82912">
        <ele>578</ele>
        <time>2019-04-09T10:54:39Z</time>
      </trkpt>
      <trkpt lat="44.31468" lon="5.82916">
        <ele>578</ele>
        <time>2019-04-09T10:54:40Z</time>
      </trkpt>
      <trkpt lat="44.31464" lon="5.82921">
        <ele>578</ele>
        <time>2019-04-09T10:54:41Z</time>
      </trkpt>
      <trkpt lat="44.31461" lon="5.82926">
        <ele>578</ele>
        <time>2019-04-09T10:54:42Z</time>
      </trkpt>
      <trkpt lat="44.31458" lon="5.8293">
        <ele>578</ele>
        <time>2019-04-09T10:54:43Z</time>
      </trkpt>
      <trkpt lat="44.31455" lon="5.82935">
        <ele>578</ele>
        <time>2019-04-09T10:54:44Z</time>
      </trkpt>
      <trkpt lat="44.31452" lon="5.8294">
        <ele>578</ele>
        <time>2019-04-09T10:54:45Z</time>
      </trkpt>
      <trkpt lat="44.31449" lon="5.82945">
        <ele>578</ele>
        <time>2019-04-09T10:54:46Z</time>
      </trkpt>
      <trkpt lat="44.31446" lon="5.82949">
        <ele>578</ele>
        <time>2019-04-09T10:54:47Z</time>
      </trkpt>
      <trkpt lat="44.31443" lon="5.82954">
        <ele>578</ele>
        <time>2019-04-09T10:54:48Z</time>
      </trkpt>
      <trkpt lat="44.3144" lon="5.82959">
        <ele>578</ele>
        <time>2019-04-09T10:54:49Z</time>
      </trkpt>
      <trkpt lat="44.31437" lon="5.82964">
        <ele>578</ele>
        <time>2019-04-09T10:54:50Z</time>
      </trkpt>
      <trkpt lat="44.31433" lon="5.82968">
        <ele>578</ele>
        <time>2019-04-09T10:54:51Z</time>
      </trkpt>
      <trkpt lat="44.3143" lon="5.82972">
        <ele>578</ele>
        <time>2019-04-09T10:54:52Z</time>
      </trkpt>
      <trkpt lat="44.31427" lon="5.82976">
        <ele>578</ele>
        <time>2019-04-09T10:54:53Z</time>
      </trkpt>
      <trkpt lat="44.31424" lon="5.82981">
        <ele>578</ele>
        <time>2019-04-09T10:54:54Z</time>
      </trkpt>
      <trkpt lat="44.31421" lon="5.82985">
        <ele>578</ele>
        <time>2019-04-09T10:54:55Z</time>
      </trkpt>
      <trkpt lat="44.31418" lon="5.8299">
        <ele>578</ele>
        <time>2019-04-09T10:54:56Z</time>
      </trkpt>
      <trkpt lat="44.31415" lon="5.82995">
        <ele>577</ele>
        <time>2019-04-09T10:54:57Z</time>
      </trkpt>
      <trkpt lat="44.31411" lon="5.82999">
        <ele>577</ele>
        <time>2019-04-09T10:54:58Z</time>
      </trkpt>
      <trkpt lat="44.31408" lon="5.83004">
        <ele>577</ele>
        <time>2019-04-09T10:54:59Z</time>
      </trkpt>
      <trkpt lat="44.31405" lon="5.83008">
        <ele>577</ele>
        <time>2019-04-09T10:55:00Z</time>
      </trkpt>
      <trkpt lat="44.31402" lon="5.83013">
        <ele>577</ele>
        <time>2019-04-09T10:55:01Z</time>
      </trkpt>
      <trkpt lat="44.31399" lon="5.83017">
        <ele>576</ele>
        <time>2019-04-09T10:55:02Z</time>
      </trkpt>
      <trkpt lat="44.31395" lon="5.83021">
        <ele>576</ele>
        <time>2019-04-09T10:55:03Z</time>
      </trkpt>
      <trkpt lat="44.31393" lon="5.83026">
        <ele>576</ele>
        <time>2019-04-09T10:55:04Z</time>
      </trkpt>
      <trkpt lat="44.3139" lon="5.83031">
        <ele>575</ele>
        <time>2019-04-09T10:55:05Z</time>
      </trkpt>
      <trkpt lat="44.31386" lon="5.83035">
        <ele>575</ele>
        <time>2019-04-09T10:55:06Z</time>
      </trkpt>
      <trkpt lat="44.31383" lon="5.8304">
        <ele>575</ele>
        <time>2019-04-09T10:55:07Z</time>
      </trkpt>
      <trkpt lat="44.3138" lon="5.83044">
        <ele>575</ele>
        <time>2019-04-09T10:55:08Z</time>
      </trkpt>
      <trkpt lat="44.31377" lon="5.83048">
        <ele>575</ele>
        <time>2019-04-09T10:55:09Z</time>
      </trkpt>
      <trkpt lat="44.31374" lon="5.83052">
        <ele>575</ele>
        <time>2019-04-09T10:55:10Z</time>
      </trkpt>
      <trkpt lat="44.31372" lon="5.83056">
        <ele>575</ele>
        <time>2019-04-09T10:55:11Z</time>
      </trkpt>
      <trkpt lat="44.31369" lon="5.83061">
        <ele>574</ele>
        <time>2019-04-09T10:55:12Z</time>
      </trkpt>
      <trkpt lat="44.31367" lon="5.83065">
        <ele>574</ele>
        <time>2019-04-09T10:55:13Z</time>
      </trkpt>
      <trkpt lat="44.31365" lon="5.8307">
        <ele>574</ele>
        <time>2019-04-09T10:55:14Z</time>
      </trkpt>
      <trkpt lat="44.31363" lon="5.83075">
        <ele>574</ele>
        <time>2019-04-09T10:55:15Z</time>
      </trkpt>
      <trkpt lat="44.31361" lon="5.83081">
        <ele>574</ele>
        <time>2019-04-09T10:55:16Z</time>
      </trkpt>
      <trkpt lat="44.31359" lon="5.83086">
        <ele>574</ele>
        <time>2019-04-09T10:55:17Z</time>
      </trkpt>
      <trkpt lat="44.31358" lon="5.83092">
        <ele>574</ele>
        <time>2019-04-09T10:55:18Z</time>
      </trkpt>
      <trkpt lat="44.31355" lon="5.83097">
        <ele>574</ele>
        <time>2019-04-09T10:55:19Z</time>
      </trkpt>
      <trkpt lat="44.31352" lon="5.83102">
        <ele>574</ele>
        <time>2019-04-09T10:55:20Z</time>
      </trkpt>
      <trkpt lat="44.31349" lon="5.83105">
        <ele>574</ele>
        <time>2019-04-09T10:55:21Z</time>
      </trkpt>
      <trkpt lat="44.31346" lon="5.83105">
        <ele>574</ele>
        <time>2019-04-09T10:55:22Z</time>
      </trkpt>
      <trkpt lat="44.31344" lon="5.83104">
        <ele>574</ele>
        <time>2019-04-09T10:55:23Z</time>
      </trkpt>
      <trkpt lat="44.31342" lon="5.83101">
        <ele>574</ele>
        <time>2019-04-09T10:55:24Z</time>
      </trkpt>
      <trkpt lat="44.31341" lon="5.83097">
        <ele>574</ele>
        <time>2019-04-09T10:55:25Z</time>
      </trkpt>
      <trkpt lat="44.31341" lon="5.83092">
        <ele>574</ele>
        <time>2019-04-09T10:55:26Z</time>
      </trkpt>
      <trkpt lat="44.31341" lon="5.83087">
        <ele>574</ele>
        <time>2019-04-09T10:55:27Z</time>
      </trkpt>
      <trkpt lat="44.31341" lon="5.83081">
        <ele>574</ele>
        <time>2019-04-09T10:55:28Z</time>
      </trkpt>
      <trkpt lat="44.31342" lon="5.83076">
        <ele>574</ele>
        <time>2019-04-09T10:55:29Z</time>
      </trkpt>
      <trkpt lat="44.31342" lon="5.83072">
        <ele>574</ele>
        <time>2019-04-09T10:55:30Z</time>
      </trkpt>
      <trkpt lat="44.31343" lon="5.83066">
        <ele>574</ele>
        <time>2019-04-09T10:55:31Z</time>
      </trkpt>
      <trkpt lat="44.31345" lon="5.83061">
        <ele>574</ele>
        <time>2019-04-09T10:55:32Z</time>
      </trkpt>
      <trkpt lat="44.31346" lon="5.83056">
        <ele>574</ele>
        <time>2019-04-09T10:55:33Z</time>
      </trkpt>
      <trkpt lat="44.31347" lon="5.8305">
        <ele>574</ele>
        <time>2019-04-09T10:55:34Z</time>
      </trkpt>
      <trkpt lat="44.31348" lon="5.83044">
        <ele>574</ele>
        <time>2019-04-09T10:55:35Z</time>
      </trkpt>
      <trkpt lat="44.31349" lon="5.83038">
        <ele>574</ele>
        <time>2019-04-09T10:55:36Z</time>
      </trkpt>
      <trkpt lat="44.3135" lon="5.83032">
        <ele>574</ele>
        <time>2019-04-09T10:55:37Z</time>
      </trkpt>
      <trkpt lat="44.31351" lon="5.83025">
        <ele>574</ele>
        <time>2019-04-09T10:55:38Z</time>
      </trkpt>
      <trkpt lat="44.31352" lon="5.83019">
        <ele>574</ele>
        <time>2019-04-09T10:55:39Z</time>
      </trkpt>
      <trkpt lat="44.31353" lon="5.83012">
        <ele>574</ele>
        <time>2019-04-09T10:55:40Z</time>
      </trkpt>
      <trkpt lat="44.31354" lon="5.83005">
        <ele>574</ele>
        <time>2019-04-09T10:55:41Z</time>
      </trkpt>
      <trkpt lat="44.31355" lon="5.82998">
        <ele>574</ele>
        <time>2019-04-09T10:55:42Z</time>
      </trkpt>
      <trkpt lat="44.31356" lon="5.8299">
        <ele>573</ele>
        <time>2019-04-09T10:55:43Z</time>
      </trkpt>
      <trkpt lat="44.31357" lon="5.82982">
        <ele>573</ele>
        <time>2019-04-09T10:55:44Z</time>
      </trkpt>
      <trkpt lat="44.31358" lon="5.82974">
        <ele>573</ele>
        <time>2019-04-09T10:55:45Z</time>
      </trkpt>
      <trkpt lat="44.31359" lon="5.82966">
        <ele>572</ele>
        <time>2019-04-09T10:55:46Z</time>
      </trkpt>
      <trkpt lat="44.3136" lon="5.82958">
        <ele>572</ele>
        <time>2019-04-09T10:55:47Z</time>
      </trkpt>
      <trkpt lat="44.31361" lon="5.82949">
        <ele>572</ele>
        <time>2019-04-09T10:55:48Z</time>
      </trkpt>
      <trkpt lat="44.31363" lon="5.82941">
        <ele>572</ele>
        <time>2019-04-09T10:55:49Z</time>
      </trkpt>
      <trkpt lat="44.31364" lon="5.82933">
        <ele>571</ele>
        <time>2019-04-09T10:55:50Z</time>
      </trkpt>
      <trkpt lat="44.31365" lon="5.82925">
        <ele>571</ele>
        <time>2019-04-09T10:55:51Z</time>
      </trkpt>
      <trkpt lat="44.31366" lon="5.82917">
        <ele>571</ele>
        <time>2019-04-09T10:55:52Z</time>
      </trkpt>
      <trkpt lat="44.31366" lon="5.82908">
        <ele>571</ele>
        <time>2019-04-09T10:55:53Z</time>
      </trkpt>
      <trkpt lat="44.31367" lon="5.829">
        <ele>571</ele>
        <time>2019-04-09T10:55:54Z</time>
      </trkpt>
      <trkpt lat="44.31369" lon="5.82893">
        <ele>571</ele>
        <time>2019-04-09T10:55:55Z</time>
      </trkpt>
      <trkpt lat="44.31369" lon="5.82886">
        <ele>571</ele>
        <time>2019-04-09T10:55:56Z</time>
      </trkpt>
      <trkpt lat="44.31369" lon="5.82878">
        <ele>571</ele>
        <time>2019-04-09T10:55:57Z</time>
      </trkpt>
      <trkpt lat="44.31371" lon="5.8287">
        <ele>570</ele>
        <time>2019-04-09T10:55:58Z</time>
      </trkpt>
      <trkpt lat="44.31372" lon="5.82863">
        <ele>569</ele>
        <time>2019-04-09T10:55:59Z</time>
      </trkpt>
      <trkpt lat="44.31373" lon="5.82855">
        <ele>569</ele>
        <time>2019-04-09T10:56:00Z</time>
      </trkpt>
      <trkpt lat="44.31374" lon="5.82847">
        <ele>568</ele>
        <time>2019-04-09T10:56:01Z</time>
      </trkpt>
      <trkpt lat="44.31375" lon="5.82838">
        <ele>567</ele>
        <time>2019-04-09T10:56:02Z</time>
      </trkpt>
      <trkpt lat="44.31376" lon="5.8283">
        <ele>567</ele>
        <time>2019-04-09T10:56:03Z</time>
      </trkpt>
      <trkpt lat="44.31377" lon="5.82821">
        <ele>567</ele>
        <time>2019-04-09T10:56:04Z</time>
      </trkpt>
      <trkpt lat="44.31378" lon="5.82812">
        <ele>566</ele>
        <time>2019-04-09T10:56:05Z</time>
      </trkpt>
      <trkpt lat="44.31378" lon="5.82803">
        <ele>566</ele>
        <time>2019-04-09T10:56:06Z</time>
      </trkpt>
      <trkpt lat="44.31379" lon="5.82794">
        <ele>566</ele>
        <time>2019-04-09T10:56:07Z</time>
      </trkpt>
      <trkpt lat="44.31379" lon="5.82786">
        <ele>566</ele>
        <time>2019-04-09T10:56:08Z</time>
      </trkpt>
      <trkpt lat="44.31379" lon="5.82777">
        <ele>566</ele>
        <time>2019-04-09T10:56:09Z</time>
      </trkpt>
      <trkpt lat="44.31378" lon="5.82768">
        <ele>566</ele>
        <time>2019-04-09T10:56:10Z</time>
      </trkpt>
      <trkpt lat="44.31378" lon="5.8276">
        <ele>566</ele>
        <time>2019-04-09T10:56:11Z</time>
      </trkpt>
      <trkpt lat="44.31377" lon="5.82751">
        <ele>566</ele>
        <time>2019-04-09T10:56:12Z</time>
      </trkpt>
      <trkpt lat="44.31377" lon="5.82744">
        <ele>566</ele>
        <time>2019-04-09T10:56:13Z</time>
      </trkpt>
      <trkpt lat="44.31377" lon="5.82735">
        <ele>566</ele>
        <time>2019-04-09T10:56:14Z</time>
      </trkpt>
      <trkpt lat="44.31376" lon="5.82727">
        <ele>566</ele>
        <time>2019-04-09T10:56:15Z</time>
      </trkpt>
      <trkpt lat="44.31374" lon="5.82719">
        <ele>566</ele>
        <time>2019-04-09T10:56:16Z</time>
      </trkpt>
      <trkpt lat="44.31374" lon="5.82711">
        <ele>566</ele>
        <time>2019-04-09T10:56:17Z</time>
      </trkpt>
      <trkpt lat="44.31373" lon="5.82703">
        <ele>566</ele>
        <time>2019-04-09T10:56:18Z</time>
      </trkpt>
      <trkpt lat="44.31373" lon="5.82695">
        <ele>566</ele>
        <time>2019-04-09T10:56:19Z</time>
      </trkpt>
      <trkpt lat="44.31374" lon="5.82688">
        <ele>566</ele>
        <time>2019-04-09T10:56:20Z</time>
      </trkpt>
      <trkpt lat="44.31375" lon="5.8268">
        <ele>566</ele>
        <time>2019-04-09T10:56:21Z</time>
      </trkpt>
      <trkpt lat="44.31378" lon="5.82673">
        <ele>566</ele>
        <time>2019-04-09T10:56:22Z</time>
      </trkpt>
      <trkpt lat="44.31381" lon="5.82667">
        <ele>566</ele>
        <time>2019-04-09T10:56:23Z</time>
      </trkpt>
      <trkpt lat="44.31384" lon="5.8266">
        <ele>566</ele>
        <time>2019-04-09T10:56:24Z</time>
      </trkpt>
      <trkpt lat="44.31387" lon="5.82654">
        <ele>566</ele>
        <time>2019-04-09T10:56:25Z</time>
      </trkpt>
      <trkpt lat="44.3139" lon="5.82647">
        <ele>566</ele>
        <time>2019-04-09T10:56:26Z</time>
      </trkpt>
      <trkpt lat="44.31393" lon="5.8264">
        <ele>566</ele>
        <time>2019-04-09T10:56:27Z</time>
      </trkpt>
      <trkpt lat="44.31395" lon="5.82633">
        <ele>566</ele>
        <time>2019-04-09T10:56:28Z</time>
      </trkpt>
      <trkpt lat="44.31398" lon="5.82626">
        <ele>566</ele>
        <time>2019-04-09T10:56:29Z</time>
      </trkpt>
      <trkpt lat="44.314" lon="5.82618">
        <ele>566</ele>
        <time>2019-04-09T10:56:30Z</time>
      </trkpt>
      <trkpt lat="44.31401" lon="5.82611">
        <ele>566</ele>
        <time>2019-04-09T10:56:31Z</time>
      </trkpt>
      <trkpt lat="44.31403" lon="5.82603">
        <ele>566</ele>
        <time>2019-04-09T10:56:32Z</time>
      </trkpt>
      <trkpt lat="44.31405" lon="5.82596">
        <ele>566</ele>
        <time>2019-04-09T10:56:33Z</time>
      </trkpt>
      <trkpt lat="44.31406" lon="5.82589">
        <ele>566</ele>
        <time>2019-04-09T10:56:34Z</time>
      </trkpt>
      <trkpt lat="44.31408" lon="5.82582">
        <ele>566</ele>
        <time>2019-04-09T10:56:35Z</time>
      </trkpt>
      <trkpt lat="44.3141" lon="5.82574">
        <ele>566</ele>
        <time>2019-04-09T10:56:36Z</time>
      </trkpt>
      <trkpt lat="44.31411" lon="5.82567">
        <ele>566</ele>
        <time>2019-04-09T10:56:37Z</time>
      </trkpt>
      <trkpt lat="44.31413" lon="5.82559">
        <ele>566</ele>
        <time>2019-04-09T10:56:38Z</time>
      </trkpt>
      <trkpt lat="44.31415" lon="5.82552">
        <ele>566</ele>
        <time>2019-04-09T10:56:39Z</time>
      </trkpt>
      <trkpt lat="44.31416" lon="5.82544">
        <ele>566</ele>
        <time>2019-04-09T10:56:40Z</time>
      </trkpt>
      <trkpt lat="44.31417" lon="5.82536">
        <ele>566</ele>
        <time>2019-04-09T10:56:41Z</time>
      </trkpt>
      <trkpt lat="44.31419" lon="5.82529">
        <ele>566</ele>
        <time>2019-04-09T10:56:42Z</time>
      </trkpt>
      <trkpt lat="44.31421" lon="5.82522">
        <ele>566</ele>
        <time>2019-04-09T10:56:43Z</time>
      </trkpt>
      <trkpt lat="44.31423" lon="5.82515">
        <ele>566</ele>
        <time>2019-04-09T10:56:44Z</time>
      </trkpt>
      <trkpt lat="44.31424" lon="5.82508">
        <ele>566</ele>
        <time>2019-04-09T10:56:45Z</time>
      </trkpt>
      <trkpt lat="44.31426" lon="5.82501">
        <ele>566</ele>
        <time>2019-04-09T10:56:46Z</time>
      </trkpt>
      <trkpt lat="44.31427" lon="5.82494">
        <ele>566</ele>
        <time>2019-04-09T10:56:47Z</time>
      </trkpt>
      <trkpt lat="44.31429" lon="5.82487">
        <ele>566</ele>
        <time>2019-04-09T10:56:48Z</time>
      </trkpt>
      <trkpt lat="44.31431" lon="5.8248">
        <ele>566</ele>
        <time>2019-04-09T10:56:49Z</time>
      </trkpt>
      <trkpt lat="44.31432" lon="5.82473">
        <ele>566</ele>
        <time>2019-04-09T10:56:50Z</time>
      </trkpt>
      <trkpt lat="44.31433" lon="5.82466">
        <ele>566</ele>
        <time>2019-04-09T10:56:51Z</time>
      </trkpt>
      <trkpt lat="44.31435" lon="5.82458">
        <ele>566</ele>
        <time>2019-04-09T10:56:52Z</time>
      </trkpt>
      <trkpt lat="44.31437" lon="5.82451">
        <ele>566</ele>
        <time>2019-04-09T10:56:53Z</time>
      </trkpt>
      <trkpt lat="44.31438" lon="5.82444">
        <ele>566</ele>
        <time>2019-04-09T10:56:54Z</time>
      </trkpt>
      <trkpt lat="44.31438" lon="5.82437">
        <ele>566</ele>
        <time>2019-04-09T10:56:55Z</time>
      </trkpt>
      <trkpt lat="44.31439" lon="5.8243">
        <ele>566</ele>
        <time>2019-04-09T10:56:56Z</time>
      </trkpt>
      <trkpt lat="44.31439" lon="5.82423">
        <ele>566</ele>
        <time>2019-04-09T10:56:57Z</time>
      </trkpt>
      <trkpt lat="44.3144" lon="5.82417">
        <ele>566</ele>
        <time>2019-04-09T10:56:58Z</time>
      </trkpt>
      <trkpt lat="44.3144" lon="5.8241">
        <ele>567</ele>
        <time>2019-04-09T10:56:59Z</time>
      </trkpt>
      <trkpt lat="44.3144" lon="5.82404">
        <ele>567</ele>
        <time>2019-04-09T10:57:00Z</time>
      </trkpt>
      <trkpt lat="44.3144" lon="5.82397">
        <ele>567</ele>
        <time>2019-04-09T10:57:01Z</time>
      </trkpt>
      <trkpt lat="44.31439" lon="5.8239">
        <ele>567</ele>
        <time>2019-04-09T10:57:02Z</time>
      </trkpt>
      <trkpt lat="44.31439" lon="5.82383">
        <ele>568</ele>
        <time>2019-04-09T10:57:03Z</time>
      </trkpt>
      <trkpt lat="44.31438" lon="5.82377">
        <ele>569</ele>
        <time>2019-04-09T10:57:04Z</time>
      </trkpt>
      <trkpt lat="44.31437" lon="5.82372">
        <ele>570</ele>
        <time>2019-04-09T10:57:05Z</time>
      </trkpt>
      <trkpt lat="44.31437" lon="5.82368">
        <ele>570</ele>
        <time>2019-04-09T10:57:06Z</time>
      </trkpt>
      <trkpt lat="44.31438" lon="5.82364">
        <ele>571</ele>
        <time>2019-04-09T10:57:07Z</time>
      </trkpt>
      <trkpt lat="44.3144" lon="5.82363">
        <ele>571</ele>
        <time>2019-04-09T10:57:08Z</time>
      </trkpt>
      <trkpt lat="44.31443" lon="5.82364">
        <ele>571</ele>
        <time>2019-04-09T10:57:09Z</time>
      </trkpt>
      <trkpt lat="44.31445" lon="5.82367">
        <ele>571</ele>
        <time>2019-04-09T10:57:10Z</time>
      </trkpt>
      <trkpt lat="44.31448" lon="5.82371">
        <ele>571</ele>
        <time>2019-04-09T10:57:11Z</time>
      </trkpt>
      <trkpt lat="44.31453" lon="5.82375">
        <ele>571</ele>
        <time>2019-04-09T10:57:12Z</time>
      </trkpt>
      <trkpt lat="44.31457" lon="5.8238">
        <ele>571</ele>
        <time>2019-04-09T10:57:13Z</time>
      </trkpt>
      <trkpt lat="44.31461" lon="5.82385">
        <ele>571</ele>
        <time>2019-04-09T10:57:14Z</time>
      </trkpt>
      <trkpt lat="44.31466" lon="5.82392">
        <ele>571</ele>
        <time>2019-04-09T10:57:15Z</time>
      </trkpt>
      <trkpt lat="44.3147" lon="5.82398">
        <ele>571</ele>
        <time>2019-04-09T10:57:16Z</time>
      </trkpt>
      <trkpt lat="44.31474" lon="5.82403">
        <ele>571</ele>
        <time>2019-04-09T10:57:17Z</time>
      </trkpt>
      <trkpt lat="44.3148" lon="5.82408">
        <ele>571</ele>
        <time>2019-04-09T10:57:18Z</time>
      </trkpt>
      <trkpt lat="44.31483" lon="5.82415">
        <ele>571</ele>
        <time>2019-04-09T10:57:19Z</time>
      </trkpt>
      <trkpt lat="44.31487" lon="5.82422">
        <ele>571</ele>
        <time>2019-04-09T10:57:20Z</time>
      </trkpt>
      <trkpt lat="44.31491" lon="5.82429">
        <ele>571</ele>
        <time>2019-04-09T10:57:21Z</time>
      </trkpt>
      <trkpt lat="44.31496" lon="5.82435">
        <ele>570</ele>
        <time>2019-04-09T10:57:22Z</time>
      </trkpt>
      <trkpt lat="44.31501" lon="5.82441">
        <ele>570</ele>
        <time>2019-04-09T10:57:23Z</time>
      </trkpt>
      <trkpt lat="44.31507" lon="5.82447">
        <ele>569</ele>
        <time>2019-04-09T10:57:24Z</time>
      </trkpt>
      <trkpt lat="44.31511" lon="5.82453">
        <ele>569</ele>
        <time>2019-04-09T10:57:25Z</time>
      </trkpt>
      <trkpt lat="44.31515" lon="5.8246">
        <ele>569</ele>
        <time>2019-04-09T10:57:26Z</time>
      </trkpt>
      <trkpt lat="44.3152" lon="5.82466">
        <ele>568</ele>
        <time>2019-04-09T10:57:27Z</time>
      </trkpt>
      <trkpt lat="44.31528" lon="5.8247">
        <ele>568</ele>
        <time>2019-04-09T10:57:28Z</time>
      </trkpt>
      <trkpt lat="44.31536" lon="5.82474">
        <ele>568</ele>
        <time>2019-04-09T10:57:29Z</time>
      </trkpt>
      <trkpt lat="44.31547" lon="5.82475">
        <ele>567</ele>
        <time>2019-04-09T10:57:30Z</time>
      </trkpt>
      <trkpt lat="44.31555" lon="5.82479">
        <ele>566</ele>
        <time>2019-04-09T10:57:31Z</time>
      </trkpt>
      <trkpt lat="44.31562" lon="5.82482">
        <ele>565</ele>
        <time>2019-04-09T10:57:32Z</time>
      </trkpt>
      <trkpt lat="44.31567" lon="5.82487">
        <ele>564</ele>
        <time>2019-04-09T10:57:33Z</time>
      </trkpt>
      <trkpt lat="44.31571" lon="5.82493">
        <ele>563</ele>
        <time>2019-04-09T10:57:34Z</time>
      </trkpt>
      <trkpt lat="44.31575" lon="5.82499">
        <ele>563</ele>
        <time>2019-04-09T10:57:35Z</time>
      </trkpt>
      <trkpt lat="44.31579" lon="5.82504">
        <ele>563</ele>
        <time>2019-04-09T10:57:36Z</time>
      </trkpt>
      <trkpt lat="44.31583" lon="5.82509">
        <ele>562</ele>
        <time>2019-04-09T10:57:37Z</time>
      </trkpt>
      <trkpt lat="44.31587" lon="5.82514">
        <ele>562</ele>
        <time>2019-04-09T10:57:38Z</time>
      </trkpt>
      <trkpt lat="44.31593" lon="5.82517">
        <ele>562</ele>
        <time>2019-04-09T10:57:39Z</time>
      </trkpt>
      <trkpt lat="44.31598" lon="5.82521">
        <ele>562</ele>
        <time>2019-04-09T10:57:40Z</time>
      </trkpt>
      <trkpt lat="44.31604" lon="5.82525">
        <ele>562</ele>
        <time>2019-04-09T10:57:41Z</time>
      </trkpt>
      <trkpt lat="44.31608" lon="5.82529">
        <ele>562</ele>
        <time>2019-04-09T10:57:42Z</time>
      </trkpt>
      <trkpt lat="44.31613" lon="5.82534">
        <ele>562</ele>
        <time>2019-04-09T10:57:43Z</time>
      </trkpt>
      <trkpt lat="44.31616" lon="5.82539">
        <ele>562</ele>
        <time>2019-04-09T10:57:44Z</time>
      </trkpt>
      <trkpt lat="44.3162" lon="5.82543">
        <ele>562</ele>
        <time>2019-04-09T10:57:45Z</time>
      </trkpt>
      <trkpt lat="44.31624" lon="5.82547">
        <ele>562</ele>
        <time>2019-04-09T10:57:46Z</time>
      </trkpt>
      <trkpt lat="44.31628" lon="5.8255">
        <ele>562</ele>
        <time>2019-04-09T10:57:47Z</time>
      </trkpt>
      <trkpt lat="44.31633" lon="5.82552">
        <ele>562</ele>
        <time>2019-04-09T10:57:48Z</time>
      </trkpt>
      <trkpt lat="44.31637" lon="5.82556">
        <ele>562</ele>
        <time>2019-04-09T10:57:49Z</time>
      </trkpt>
      <trkpt lat="44.31641" lon="5.82561">
        <ele>562</ele>
        <time>2019-04-09T10:57:50Z</time>
      </trkpt>
      <trkpt lat="44.31646" lon="5.82565">
        <ele>562</ele>
        <time>2019-04-09T10:57:51Z</time>
      </trkpt>
      <trkpt lat="44.31651" lon="5.8257">
        <ele>562</ele>
        <time>2019-04-09T10:57:52Z</time>
      </trkpt>
      <trkpt lat="44.31656" lon="5.82574">
        <ele>562</ele>
        <time>2019-04-09T10:57:53Z</time>
      </trkpt>
      <trkpt lat="44.3166" lon="5.82578">
        <ele>562</ele>
        <time>2019-04-09T10:57:54Z</time>
      </trkpt>
      <trkpt lat="44.31664" lon="5.82583">
        <ele>562</ele>
        <time>2019-04-09T10:57:55Z</time>
      </trkpt>
      <trkpt lat="44.31668" lon="5.82587">
        <ele>562</ele>
        <time>2019-04-09T10:57:56Z</time>
      </trkpt>
      <trkpt lat="44.31672" lon="5.82592">
        <ele>562</ele>
        <time>2019-04-09T10:57:57Z</time>
      </trkpt>
      <trkpt lat="44.31675" lon="5.82597">
        <ele>562</ele>
        <time>2019-04-09T10:57:58Z</time>
      </trkpt>
      <trkpt lat="44.31679" lon="5.82602">
        <ele>562</ele>
        <time>2019-04-09T10:57:59Z</time>
      </trkpt>
      <trkpt lat="44.31683" lon="5.82607">
        <ele>562</ele>
        <time>2019-04-09T10:58:00Z</time>
      </trkpt>
      <trkpt lat="44.31686" lon="5.82611">
        <ele>562</ele>
        <time>2019-04-09T10:58:01Z</time>
      </trkpt>
      <trkpt lat="44.31691" lon="5.82615">
        <ele>562</ele>
        <time>2019-04-09T10:58:02Z</time>
      </trkpt>
      <trkpt lat="44.31694" lon="5.82619">
        <ele>562</ele>
        <time>2019-04-09T10:58:03Z</time>
      </trkpt>
      <trkpt lat="44.31698" lon="5.82623">
        <ele>562</ele>
        <time>2019-04-09T10:58:04Z</time>
      </trkpt>
      <trkpt lat="44.31702" lon="5.82627">
        <ele>562</ele>
        <time>2019-04-09T10:58:05Z</time>
      </trkpt>
      <trkpt lat="44.31706" lon="5.82631">
        <ele>562</ele>
        <time>2019-04-09T10:58:06Z</time>
      </trkpt>
      <trkpt lat="44.3171" lon="5.82635">
        <ele>562</ele>
        <time>2019-04-09T10:58:07Z</time>
      </trkpt>
      <trkpt lat="44.31713" lon="5.8264">
        <ele>562</ele>
        <time>2019-04-09T10:58:08Z</time>
      </trkpt>
      <trkpt lat="44.31717" lon="5.82644">
        <ele>562</ele>
        <time>2019-04-09T10:58:09Z</time>
      </trkpt>
      <trkpt lat="44.31721" lon="5.82648">
        <ele>562</ele>
        <time>2019-04-09T10:58:10Z</time>
      </trkpt>
      <trkpt lat="44.31724" lon="5.82651">
        <ele>562</ele>
        <time>2019-04-09T10:58:11Z</time>
      </trkpt>
      <trkpt lat="44.31727" lon="5.82654">
        <ele>562</ele>
        <time>2019-04-09T10:58:12Z</time>
      </trkpt>
      <trkpt lat="44.3173" lon="5.82657">
        <ele>562</ele>
        <time>2019-04-09T10:58:13Z</time>
      </trkpt>
      <trkpt lat="44.31731" lon="5.82659">
        <ele>562</ele>
        <time>2019-04-09T10:58:14Z</time>
      </trkpt>
      <trkpt lat="44.31733" lon="5.8266">
        <ele>562</ele>
        <time>2019-04-09T10:58:16Z</time>
      </trkpt>
      <trkpt lat="44.31732" lon="5.82662">
        <ele>562</ele>
        <time>2019-04-09T10:58:35Z</time>
      </trkpt>
      <trkpt lat="44.31731" lon="5.82663">
        <ele>562</ele>
        <time>2019-04-09T10:58:41Z</time>
      </trkpt>
      <trkpt lat="44.3173" lon="5.82664">
        <ele>562</ele>
        <time>2019-04-09T10:58:45Z</time>
      </trkpt>
      <trkpt lat="44.31731" lon="5.82665">
        <ele>564</ele>
        <time>2019-04-09T10:58:52Z</time>
      </trkpt>
      <trkpt lat="44.31731" lon="5.82667">
        <ele>565</ele>
        <time>2019-04-09T10:58:58Z</time>
      </trkpt>
      <trkpt lat="44.31733" lon="5.82665">
        <ele>566</ele>
        <time>2019-04-09T10:59:11Z</time>
      </trkpt>
      <trkpt lat="44.31733" lon="5.82664">
        <ele>567</ele>
        <time>2019-04-09T10:59:20Z</time>
      </trkpt>
      <trkpt lat="44.31735" lon="5.82663">
        <ele>567</ele>
        <time>2019-04-09T10:59:24Z</time>
      </trkpt>
      <trkpt lat="44.31736" lon="5.82663">
        <ele>567</ele>
        <time>2019-04-09T10:59:25Z</time>
      </trkpt>
      <trkpt lat="44.31738" lon="5.82663">
        <ele>568</ele>
        <time>2019-04-09T10:59:29Z</time>
      </trkpt>
      <trkpt lat="44.31736" lon="5.82664">
        <ele>568</ele>
        <time>2019-04-09T10:59:34Z</time>
      </trkpt>
      <trkpt lat="44.31735" lon="5.82665">
        <ele>568</ele>
        <time>2019-04-09T10:59:40Z</time>
      </trkpt>
      <trkpt lat="44.31734" lon="5.82665">
        <ele>568</ele>
        <time>2019-04-09T10:59:46Z</time>
      </trkpt>
      <trkpt lat="44.31732" lon="5.82666">
        <ele>568</ele>
        <time>2019-04-09T10:59:48Z</time>
      </trkpt>
      <trkpt lat="44.31731" lon="5.82666">
        <ele>568</ele>
        <time>2019-04-09T10:59:52Z</time>
      </trkpt>
      <trkpt lat="44.3173" lon="5.82667">
        <ele>568</ele>
        <time>2019-04-09T10:59:58Z</time>
      </trkpt>
      <trkpt lat="44.31731" lon="5.82665">
        <ele>568</ele>
        <time>2019-04-09T11:00:06Z</time>
      </trkpt>
      <trkpt lat="44.31732" lon="5.82665">
        <ele>568</ele>
        <time>2019-04-09T11:00:08Z</time>
      </trkpt>
      <trkpt lat="44.31734" lon="5.82666">
        <ele>568</ele>
        <time>2019-04-09T11:00:10Z</time>
      </trkpt>
      <trkpt lat="44.31735" lon="5.82667">
        <ele>568</ele>
        <time>2019-04-09T11:00:12Z</time>
      </trkpt>
      <trkpt lat="44.31738" lon="5.82669">
        <ele>568</ele>
        <time>2019-04-09T11:00:14Z</time>
      </trkpt>
      <trkpt lat="44.31739" lon="5.82671">
        <ele>567</ele>
        <time>2019-04-09T11:00:15Z</time>
      </trkpt>
      <trkpt lat="44.31741" lon="5.82673">
        <ele>567</ele>
        <time>2019-04-09T11:00:16Z</time>
      </trkpt>
      <trkpt lat="44.31744" lon="5.82676">
        <ele>567</ele>
        <time>2019-04-09T11:00:17Z</time>
      </trkpt>
      <trkpt lat="44.31746" lon="5.82678">
        <ele>567</ele>
        <time>2019-04-09T11:00:18Z</time>
      </trkpt>
      <trkpt lat="44.31748" lon="5.82682">
        <ele>567</ele>
        <time>2019-04-09T11:00:19Z</time>
      </trkpt>
      <trkpt lat="44.3175" lon="5.82685">
        <ele>567</ele>
        <time>2019-04-09T11:00:20Z</time>
      </trkpt>
      <trkpt lat="44.31753" lon="5.82688">
        <ele>567</ele>
        <time>2019-04-09T11:00:21Z</time>
      </trkpt>
      <trkpt lat="44.31756" lon="5.82692">
        <ele>567</ele>
        <time>2019-04-09T11:00:22Z</time>
      </trkpt>
      <trkpt lat="44.31759" lon="5.82695">
        <ele>566</ele>
        <time>2019-04-09T11:00:23Z</time>
      </trkpt>
      <trkpt lat="44.31762" lon="5.82697">
        <ele>566</ele>
        <time>2019-04-09T11:00:24Z</time>
      </trkpt>
      <trkpt lat="44.31766" lon="5.82701">
        <ele>566</ele>
        <time>2019-04-09T11:00:25Z</time>
      </trkpt>
      <trkpt lat="44.31769" lon="5.82704">
        <ele>566</ele>
        <time>2019-04-09T11:00:26Z</time>
      </trkpt>
      <trkpt lat="44.31772" lon="5.82707">
        <ele>566</ele>
        <time>2019-04-09T11:00:27Z</time>
      </trkpt>
      <trkpt lat="44.31776" lon="5.82711">
        <ele>566</ele>
        <time>2019-04-09T11:00:28Z</time>
      </trkpt>
      <trkpt lat="44.31779" lon="5.82714">
        <ele>566</ele>
        <time>2019-04-09T11:00:29Z</time>
      </trkpt>
      <trkpt lat="44.31782" lon="5.82718">
        <ele>566</ele>
        <time>2019-04-09T11:00:30Z</time>
      </trkpt>
      <trkpt lat="44.31786" lon="5.82722">
        <ele>566</ele>
        <time>2019-04-09T11:00:31Z</time>
      </trkpt>
      <trkpt lat="44.31789" lon="5.82726">
        <ele>566</ele>
        <time>2019-04-09T11:00:32Z</time>
      </trkpt>
      <trkpt lat="44.31792" lon="5.82729">
        <ele>566</ele>
        <time>2019-04-09T11:00:33Z</time>
      </trkpt>
      <trkpt lat="44.31796" lon="5.82733">
        <ele>566</ele>
        <time>2019-04-09T11:00:34Z</time>
      </trkpt>
      <trkpt lat="44.31799" lon="5.82737">
        <ele>566</ele>
        <time>2019-04-09T11:00:35Z</time>
      </trkpt>
      <trkpt lat="44.31803" lon="5.82741">
        <ele>566</ele>
        <time>2019-04-09T11:00:36Z</time>
      </trkpt>
      <trkpt lat="44.31807" lon="5.82745">
        <ele>566</ele>
        <time>2019-04-09T11:00:37Z</time>
      </trkpt>
      <trkpt lat="44.3181" lon="5.82748">
        <ele>566</ele>
        <time>2019-04-09T11:00:38Z</time>
      </trkpt>
      <trkpt lat="44.31815" lon="5.82751">
        <ele>566</ele>
        <time>2019-04-09T11:00:39Z</time>
      </trkpt>
      <trkpt lat="44.31819" lon="5.82755">
        <ele>566</ele>
        <time>2019-04-09T11:00:40Z</time>
      </trkpt>
      <trkpt lat="44.31824" lon="5.82757">
        <ele>566</ele>
        <time>2019-04-09T11:00:41Z</time>
      </trkpt>
      <trkpt lat="44.31829" lon="5.8276">
        <ele>566</ele>
        <time>2019-04-09T11:00:42Z</time>
      </trkpt>
      <trkpt lat="44.31833" lon="5.82762">
        <ele>566</ele>
        <time>2019-04-09T11:00:43Z</time>
      </trkpt>
      <trkpt lat="44.31838" lon="5.82765">
        <ele>566</ele>
        <time>2019-04-09T11:00:44Z</time>
      </trkpt>
      <trkpt lat="44.31843" lon="5.82767">
        <ele>566</ele>
        <time>2019-04-09T11:00:45Z</time>
      </trkpt>
      <trkpt lat="44.31847" lon="5.82769">
        <ele>566</ele>
        <time>2019-04-09T11:00:46Z</time>
      </trkpt>
      <trkpt lat="44.31852" lon="5.82771">
        <ele>566</ele>
        <time>2019-04-09T11:00:47Z</time>
      </trkpt>
      <trkpt lat="44.31857" lon="5.82772">
        <ele>566</ele>
        <time>2019-04-09T11:00:48Z</time>
      </trkpt>
      <trkpt lat="44.31861" lon="5.82773">
        <ele>566</ele>
        <time>2019-04-09T11:00:49Z</time>
      </trkpt>
      <trkpt lat="44.31866" lon="5.82774">
        <ele>566</ele>
        <time>2019-04-09T11:00:50Z</time>
      </trkpt>
      <trkpt lat="44.31871" lon="5.82775">
        <ele>566</ele>
        <time>2019-04-09T11:00:51Z</time>
      </trkpt>
      <trkpt lat="44.31876" lon="5.82776">
        <ele>566</ele>
        <time>2019-04-09T11:00:52Z</time>
      </trkpt>
      <trkpt lat="44.3188" lon="5.82776">
        <ele>566</ele>
        <time>2019-04-09T11:00:53Z</time>
      </trkpt>
      <trkpt lat="44.31884" lon="5.82777">
        <ele>566</ele>
        <time>2019-04-09T11:00:54Z</time>
      </trkpt>
      <trkpt lat="44.31889" lon="5.82778">
        <ele>566</ele>
        <time>2019-04-09T11:00:55Z</time>
      </trkpt>
      <trkpt lat="44.31893" lon="5.82778">
        <ele>566</ele>
        <time>2019-04-09T11:00:56Z</time>
      </trkpt>
      <trkpt lat="44.31897" lon="5.82779">
        <ele>566</ele>
        <time>2019-04-09T11:00:57Z</time>
      </trkpt>
      <trkpt lat="44.31902" lon="5.82779">
        <ele>566</ele>
        <time>2019-04-09T11:00:58Z</time>
      </trkpt>
      <trkpt lat="44.31906" lon="5.82779">
        <ele>566</ele>
        <time>2019-04-09T11:00:59Z</time>
      </trkpt>
      <trkpt lat="44.3191" lon="5.82779">
        <ele>566</ele>
        <time>2019-04-09T11:01:00Z</time>
      </trkpt>
      <trkpt lat="44.31914" lon="5.8278">
        <ele>566</ele>
        <time>2019-04-09T11:01:01Z</time>
      </trkpt>
      <trkpt lat="44.31918" lon="5.8278">
        <ele>566</ele>
        <time>2019-04-09T11:01:02Z</time>
      </trkpt>
      <trkpt lat="44.31922" lon="5.8278">
        <ele>566</ele>
        <time>2019-04-09T11:01:03Z</time>
      </trkpt>
      <trkpt lat="44.31926" lon="5.82781">
        <ele>566</ele>
        <time>2019-04-09T11:01:04Z</time>
      </trkpt>
      <trkpt lat="44.31929" lon="5.82782">
        <ele>566</ele>
        <time>2019-04-09T11:01:05Z</time>
      </trkpt>
      <trkpt lat="44.31932" lon="5.82783">
        <ele>566</ele>
        <time>2019-04-09T11:01:06Z</time>
      </trkpt>
      <trkpt lat="44.31937" lon="5.82783">
        <ele>566</ele>
        <time>2019-04-09T11:01:07Z</time>
      </trkpt>
      <trkpt lat="44.31941" lon="5.82784">
        <ele>566</ele>
        <time>2019-04-09T11:01:08Z</time>
      </trkpt>
      <trkpt lat="44.31945" lon="5.82785">
        <ele>566</ele>
        <time>2019-04-09T11:01:09Z</time>
      </trkpt>
      <trkpt lat="44.31949" lon="5.82786">
        <ele>566</ele>
        <time>2019-04-09T11:01:10Z</time>
      </trkpt>
      <trkpt lat="44.31953" lon="5.82787">
        <ele>566</ele>
        <time>2019-04-09T11:01:11Z</time>
      </trkpt>
      <trkpt lat="44.31956" lon="5.82788">
        <ele>566</ele>
        <time>2019-04-09T11:01:12Z</time>
      </trkpt>
      <trkpt lat="44.3196" lon="5.8279">
        <ele>566</ele>
        <time>2019-04-09T11:01:13Z</time>
      </trkpt>
      <trkpt lat="44.31963" lon="5.82791">
        <ele>566</ele>
        <time>2019-04-09T11:01:14Z</time>
      </trkpt>
      <trkpt lat="44.31967" lon="5.82792">
        <ele>566</ele>
        <time>2019-04-09T11:01:15Z</time>
      </trkpt>
      <trkpt lat="44.31971" lon="5.82793">
        <ele>566</ele>
        <time>2019-04-09T11:01:16Z</time>
      </trkpt>
      <trkpt lat="44.31974" lon="5.82794">
        <ele>566</ele>
        <time>2019-04-09T11:01:17Z</time>
      </trkpt>
      <trkpt lat="44.31978" lon="5.82796">
        <ele>566</ele>
        <time>2019-04-09T11:01:18Z</time>
      </trkpt>
      <trkpt lat="44.31982" lon="5.82797">
        <ele>566</ele>
        <time>2019-04-09T11:01:19Z</time>
      </trkpt>
      <trkpt lat="44.31986" lon="5.82798">
        <ele>566</ele>
        <time>2019-04-09T11:01:20Z</time>
      </trkpt>
      <trkpt lat="44.3199" lon="5.82799">
        <ele>566</ele>
        <time>2019-04-09T11:01:21Z</time>
      </trkpt>
      <trkpt lat="44.31993" lon="5.82801">
        <ele>566</ele>
        <time>2019-04-09T11:01:22Z</time>
      </trkpt>
      <trkpt lat="44.31997" lon="5.82802">
        <ele>566</ele>
        <time>2019-04-09T11:01:23Z</time>
      </trkpt>
      <trkpt lat="44.32" lon="5.82804">
        <ele>566</ele>
        <time>2019-04-09T11:01:24Z</time>
      </trkpt>
      <trkpt lat="44.32003" lon="5.82805">
        <ele>566</ele>
        <time>2019-04-09T11:01:25Z</time>
      </trkpt>
      <trkpt lat="44.32006" lon="5.82807">
        <ele>566</ele>
        <time>2019-04-09T11:01:26Z</time>
      </trkpt>
      <trkpt lat="44.3201" lon="5.82808">
        <ele>566</ele>
        <time>2019-04-09T11:01:27Z</time>
      </trkpt>
      <trkpt lat="44.32013" lon="5.8281">
        <ele>566</ele>
        <time>2019-04-09T11:01:28Z</time>
      </trkpt>
      <trkpt lat="44.32017" lon="5.82811">
        <ele>566</ele>
        <time>2019-04-09T11:01:29Z</time>
      </trkpt>
      <trkpt lat="44.32021" lon="5.82813">
        <ele>566</ele>
        <time>2019-04-09T11:01:30Z</time>
      </trkpt>
      <trkpt lat="44.32024" lon="5.82815">
        <ele>566</ele>
        <time>2019-04-09T11:01:31Z</time>
      </trkpt>
      <trkpt lat="44.32027" lon="5.82817">
        <ele>566</ele>
        <time>2019-04-09T11:01:32Z</time>
      </trkpt>
      <trkpt lat="44.3203" lon="5.82819">
        <ele>566</ele>
        <time>2019-04-09T11:01:33Z</time>
      </trkpt>
      <trkpt lat="44.32033" lon="5.82821">
        <ele>566</ele>
        <time>2019-04-09T11:01:34Z</time>
      </trkpt>
      <trkpt lat="44.32036" lon="5.82823">
        <ele>566</ele>
        <time>2019-04-09T11:01:35Z</time>
      </trkpt>
      <trkpt lat="44.32039" lon="5.82826">
        <ele>566</ele>
        <time>2019-04-09T11:01:36Z</time>
      </trkpt>
      <trkpt lat="44.32042" lon="5.82827">
        <ele>566</ele>
        <time>2019-04-09T11:01:37Z</time>
      </trkpt>
      <trkpt lat="44.32046" lon="5.82829">
        <ele>566</ele>
        <time>2019-04-09T11:01:38Z</time>
      </trkpt>
      <trkpt lat="44.32049" lon="5.82831">
        <ele>567</ele>
        <time>2019-04-09T11:01:39Z</time>
      </trkpt>
      <trkpt lat="44.32052" lon="5.82833">
        <ele>567</ele>
        <time>2019-04-09T11:01:40Z</time>
      </trkpt>
      <trkpt lat="44.32055" lon="5.82836">
        <ele>567</ele>
        <time>2019-04-09T11:01:41Z</time>
      </trkpt>
      <trkpt lat="44.32058" lon="5.82838">
        <ele>567</ele>
        <time>2019-04-09T11:01:42Z</time>
      </trkpt>
      <trkpt lat="44.32061" lon="5.8284">
        <ele>568</ele>
        <time>2019-04-09T11:01:43Z</time>
      </trkpt>
      <trkpt lat="44.32064" lon="5.82842">
        <ele>568</ele>
        <time>2019-04-09T11:01:44Z</time>
      </trkpt>
      <trkpt lat="44.32067" lon="5.82844">
        <ele>568</ele>
        <time>2019-04-09T11:01:45Z</time>
      </trkpt>
      <trkpt lat="44.32071" lon="5.82846">
        <ele>569</ele>
        <time>2019-04-09T11:01:46Z</time>
      </trkpt>
      <trkpt lat="44.32074" lon="5.82848">
        <ele>569</ele>
        <time>2019-04-09T11:01:47Z</time>
      </trkpt>
      <trkpt lat="44.32078" lon="5.8285">
        <ele>569</ele>
        <time>2019-04-09T11:01:48Z</time>
      </trkpt>
      <trkpt lat="44.32082" lon="5.82851">
        <ele>569</ele>
        <time>2019-04-09T11:01:49Z</time>
      </trkpt>
      <trkpt lat="44.32086" lon="5.82852">
        <ele>570</ele>
        <time>2019-04-09T11:01:50Z</time>
      </trkpt>
      <trkpt lat="44.3209" lon="5.82854">
        <ele>570</ele>
        <time>2019-04-09T11:01:51Z</time>
      </trkpt>
      <trkpt lat="44.32094" lon="5.82855">
        <ele>570</ele>
        <time>2019-04-09T11:01:52Z</time>
      </trkpt>
      <trkpt lat="44.32098" lon="5.82856">
        <ele>570</ele>
        <time>2019-04-09T11:01:53Z</time>
      </trkpt>
      <trkpt lat="44.32101" lon="5.82858">
        <ele>570</ele>
        <time>2019-04-09T11:01:54Z</time>
      </trkpt>
      <trkpt lat="44.32103" lon="5.8286">
        <ele>570</ele>
        <time>2019-04-09T11:01:55Z</time>
      </trkpt>
      <trkpt lat="44.32107" lon="5.82861">
        <ele>570</ele>
        <time>2019-04-09T11:01:56Z</time>
      </trkpt>
      <trkpt lat="44.32111" lon="5.82862">
        <ele>571</ele>
        <time>2019-04-09T11:01:57Z</time>
      </trkpt>
      <trkpt lat="44.32116" lon="5.82862">
        <ele>571</ele>
        <time>2019-04-09T11:01:58Z</time>
      </trkpt>
      <trkpt lat="44.32119" lon="5.82864">
        <ele>572</ele>
        <time>2019-04-09T11:01:59Z</time>
      </trkpt>
      <trkpt lat="44.32123" lon="5.82866">
        <ele>572</ele>
        <time>2019-04-09T11:02:00Z</time>
      </trkpt>
      <trkpt lat="44.32128" lon="5.82866">
        <ele>572</ele>
        <time>2019-04-09T11:02:01Z</time>
      </trkpt>
      <trkpt lat="44.32133" lon="5.82867">
        <ele>572</ele>
        <time>2019-04-09T11:02:02Z</time>
      </trkpt>
      <trkpt lat="44.32138" lon="5.82868">
        <ele>573</ele>
        <time>2019-04-09T11:02:03Z</time>
      </trkpt>
      <trkpt lat="44.32143" lon="5.82869">
        <ele>573</ele>
        <time>2019-04-09T11:02:04Z</time>
      </trkpt>
      <trkpt lat="44.32148" lon="5.8287">
        <ele>573</ele>
        <time>2019-04-09T11:02:05Z</time>
      </trkpt>
      <trkpt lat="44.32152" lon="5.82872">
        <ele>573</ele>
        <time>2019-04-09T11:02:06Z</time>
      </trkpt>
      <trkpt lat="44.32155" lon="5.82874">
        <ele>573</ele>
        <time>2019-04-09T11:02:07Z</time>
      </trkpt>
      <trkpt lat="44.32159" lon="5.82877">
        <ele>573</ele>
        <time>2019-04-09T11:02:08Z</time>
      </trkpt>
      <trkpt lat="44.32162" lon="5.82879">
        <ele>573</ele>
        <time>2019-04-09T11:02:09Z</time>
      </trkpt>
      <trkpt lat="44.32166" lon="5.82882">
        <ele>573</ele>
        <time>2019-04-09T11:02:10Z</time>
      </trkpt>
      <trkpt lat="44.3217" lon="5.82884">
        <ele>573</ele>
        <time>2019-04-09T11:02:11Z</time>
      </trkpt>
      <trkpt lat="44.32174" lon="5.82886">
        <ele>573</ele>
        <time>2019-04-09T11:02:12Z</time>
      </trkpt>
      <trkpt lat="44.32179" lon="5.82888">
        <ele>573</ele>
        <time>2019-04-09T11:02:13Z</time>
      </trkpt>
      <trkpt lat="44.32183" lon="5.8289">
        <ele>573</ele>
        <time>2019-04-09T11:02:14Z</time>
      </trkpt>
      <trkpt lat="44.32187" lon="5.82892">
        <ele>573</ele>
        <time>2019-04-09T11:02:15Z</time>
      </trkpt>
      <trkpt lat="44.32191" lon="5.82895">
        <ele>573</ele>
        <time>2019-04-09T11:02:16Z</time>
      </trkpt>
      <trkpt lat="44.32196" lon="5.82897">
        <ele>573</ele>
        <time>2019-04-09T11:02:17Z</time>
      </trkpt>
      <trkpt lat="44.32201" lon="5.82899">
        <ele>573</ele>
        <time>2019-04-09T11:02:18Z</time>
      </trkpt>
      <trkpt lat="44.32206" lon="5.82901">
        <ele>573</ele>
        <time>2019-04-09T11:02:19Z</time>
      </trkpt>
      <trkpt lat="44.32211" lon="5.82902">
        <ele>573</ele>
        <time>2019-04-09T11:02:20Z</time>
      </trkpt>
      <trkpt lat="44.32217" lon="5.82904">
        <ele>573</ele>
        <time>2019-04-09T11:02:21Z</time>
      </trkpt>
      <trkpt lat="44.32221" lon="5.82906">
        <ele>573</ele>
        <time>2019-04-09T11:02:22Z</time>
      </trkpt>
      <trkpt lat="44.32226" lon="5.82909">
        <ele>573</ele>
        <time>2019-04-09T11:02:23Z</time>
      </trkpt>
      <trkpt lat="44.3223" lon="5.82911">
        <ele>573</ele>
        <time>2019-04-09T11:02:24Z</time>
      </trkpt>
      <trkpt lat="44.32235" lon="5.82914">
        <ele>573</ele>
        <time>2019-04-09T11:02:25Z</time>
      </trkpt>
      <trkpt lat="44.32239" lon="5.82917">
        <ele>573</ele>
        <time>2019-04-09T11:02:26Z</time>
      </trkpt>
      <trkpt lat="44.32243" lon="5.8292">
        <ele>573</ele>
        <time>2019-04-09T11:02:27Z</time>
      </trkpt>
      <trkpt lat="44.32246" lon="5.82923">
        <ele>573</ele>
        <time>2019-04-09T11:02:28Z</time>
      </trkpt>
      <trkpt lat="44.32251" lon="5.82925">
        <ele>573</ele>
        <time>2019-04-09T11:02:29Z</time>
      </trkpt>
      <trkpt lat="44.32255" lon="5.82927">
        <ele>573</ele>
        <time>2019-04-09T11:02:30Z</time>
      </trkpt>
      <trkpt lat="44.3226" lon="5.82929">
        <ele>573</ele>
        <time>2019-04-09T11:02:31Z</time>
      </trkpt>
      <trkpt lat="44.32266" lon="5.8293">
        <ele>573</ele>
        <time>2019-04-09T11:02:32Z</time>
      </trkpt>
      <trkpt lat="44.32271" lon="5.82932">
        <ele>573</ele>
        <time>2019-04-09T11:02:33Z</time>
      </trkpt>
      <trkpt lat="44.32275" lon="5.82933">
        <ele>573</ele>
        <time>2019-04-09T11:02:34Z</time>
      </trkpt>
      <trkpt lat="44.32279" lon="5.82936">
        <ele>573</ele>
        <time>2019-04-09T11:02:35Z</time>
      </trkpt>
      <trkpt lat="44.32283" lon="5.82938">
        <ele>573</ele>
        <time>2019-04-09T11:02:36Z</time>
      </trkpt>
      <trkpt lat="44.32286" lon="5.82941">
        <ele>573</ele>
        <time>2019-04-09T11:02:37Z</time>
      </trkpt>
      <trkpt lat="44.3229" lon="5.82943">
        <ele>574</ele>
        <time>2019-04-09T11:02:38Z</time>
      </trkpt>
      <trkpt lat="44.32294" lon="5.82946">
        <ele>574</ele>
        <time>2019-04-09T11:02:39Z</time>
      </trkpt>
      <trkpt lat="44.32298" lon="5.82948">
        <ele>574</ele>
        <time>2019-04-09T11:02:40Z</time>
      </trkpt>
      <trkpt lat="44.32302" lon="5.8295">
        <ele>574</ele>
        <time>2019-04-09T11:02:41Z</time>
      </trkpt>
      <trkpt lat="44.32307" lon="5.82952">
        <ele>574</ele>
        <time>2019-04-09T11:02:42Z</time>
      </trkpt>
      <trkpt lat="44.32311" lon="5.82954">
        <ele>574</ele>
        <time>2019-04-09T11:02:43Z</time>
      </trkpt>
      <trkpt lat="44.32315" lon="5.82956">
        <ele>574</ele>
        <time>2019-04-09T11:02:44Z</time>
      </trkpt>
      <trkpt lat="44.32319" lon="5.82959">
        <ele>574</ele>
        <time>2019-04-09T11:02:45Z</time>
      </trkpt>
      <trkpt lat="44.32323" lon="5.82961">
        <ele>574</ele>
        <time>2019-04-09T11:02:46Z</time>
      </trkpt>
      <trkpt lat="44.32327" lon="5.82963">
        <ele>574</ele>
        <time>2019-04-09T11:02:47Z</time>
      </trkpt>
      <trkpt lat="44.32331" lon="5.82966">
        <ele>574</ele>
        <time>2019-04-09T11:02:48Z</time>
      </trkpt>
      <trkpt lat="44.32335" lon="5.82969">
        <ele>574</ele>
        <time>2019-04-09T11:02:49Z</time>
      </trkpt>
      <trkpt lat="44.32338" lon="5.82971">
        <ele>574</ele>
        <time>2019-04-09T11:02:50Z</time>
      </trkpt>
      <trkpt lat="44.32342" lon="5.82974">
        <ele>574</ele>
        <time>2019-04-09T11:02:51Z</time>
      </trkpt>
      <trkpt lat="44.32346" lon="5.82978">
        <ele>574</ele>
        <time>2019-04-09T11:02:52Z</time>
      </trkpt>
      <trkpt lat="44.32349" lon="5.82981">
        <ele>574</ele>
        <time>2019-04-09T11:02:53Z</time>
      </trkpt>
      <trkpt lat="44.32353" lon="5.82985">
        <ele>575</ele>
        <time>2019-04-09T11:02:54Z</time>
      </trkpt>
      <trkpt lat="44.32356" lon="5.82989">
        <ele>575</ele>
        <time>2019-04-09T11:02:55Z</time>
      </trkpt>
      <trkpt lat="44.32359" lon="5.82994">
        <ele>575</ele>
        <time>2019-04-09T11:02:56Z</time>
      </trkpt>
      <trkpt lat="44.32362" lon="5.82998">
        <ele>575</ele>
        <time>2019-04-09T11:02:57Z</time>
      </trkpt>
      <trkpt lat="44.32365" lon="5.83003">
        <ele>575</ele>
        <time>2019-04-09T11:02:58Z</time>
      </trkpt>
      <trkpt lat="44.32368" lon="5.83008">
        <ele>575</ele>
        <time>2019-04-09T11:02:59Z</time>
      </trkpt>
      <trkpt lat="44.3237" lon="5.83014">
        <ele>575</ele>
        <time>2019-04-09T11:03:00Z</time>
      </trkpt>
      <trkpt lat="44.32372" lon="5.8302">
        <ele>575</ele>
        <time>2019-04-09T11:03:01Z</time>
      </trkpt>
      <trkpt lat="44.32373" lon="5.83027">
        <ele>575</ele>
        <time>2019-04-09T11:03:02Z</time>
      </trkpt>
      <trkpt lat="44.32375" lon="5.83033">
        <ele>575</ele>
        <time>2019-04-09T11:03:03Z</time>
      </trkpt>
      <trkpt lat="44.32376" lon="5.8304">
        <ele>575</ele>
        <time>2019-04-09T11:03:04Z</time>
      </trkpt>
      <trkpt lat="44.32378" lon="5.83047">
        <ele>575</ele>
        <time>2019-04-09T11:03:05Z</time>
      </trkpt>
      <trkpt lat="44.3238" lon="5.83053">
        <ele>575</ele>
        <time>2019-04-09T11:03:06Z</time>
      </trkpt>
      <trkpt lat="44.32382" lon="5.8306">
        <ele>575</ele>
        <time>2019-04-09T11:03:07Z</time>
      </trkpt>
      <trkpt lat="44.32384" lon="5.83068">
        <ele>575</ele>
        <time>2019-04-09T11:03:08Z</time>
      </trkpt>
      <trkpt lat="44.32387" lon="5.83075">
        <ele>575</ele>
        <time>2019-04-09T11:03:09Z</time>
      </trkpt>
      <trkpt lat="44.3239" lon="5.83082">
        <ele>575</ele>
        <time>2019-04-09T11:03:10Z</time>
      </trkpt>
      <trkpt lat="44.32394" lon="5.83088">
        <ele>575</ele>
        <time>2019-04-09T11:03:11Z</time>
      </trkpt>
      <trkpt lat="44.32397" lon="5.83095">
        <ele>575</ele>
        <time>2019-04-09T11:03:12Z</time>
      </trkpt>
      <trkpt lat="44.32401" lon="5.83102">
        <ele>575</ele>
        <time>2019-04-09T11:03:13Z</time>
      </trkpt>
      <trkpt lat="44.32405" lon="5.83108">
        <ele>575</ele>
        <time>2019-04-09T11:03:14Z</time>
      </trkpt>
      <trkpt lat="44.3241" lon="5.83114">
        <ele>575</ele>
        <time>2019-04-09T11:03:15Z</time>
      </trkpt>
      <trkpt lat="44.32415" lon="5.8312">
        <ele>575</ele>
        <time>2019-04-09T11:03:16Z</time>
      </trkpt>
      <trkpt lat="44.3242" lon="5.83125">
        <ele>575</ele>
        <time>2019-04-09T11:03:17Z</time>
      </trkpt>
      <trkpt lat="44.32425" lon="5.8313">
        <ele>575</ele>
        <time>2019-04-09T11:03:18Z</time>
      </trkpt>
      <trkpt lat="44.32429" lon="5.83134">
        <ele>575</ele>
        <time>2019-04-09T11:03:19Z</time>
      </trkpt>
      <trkpt lat="44.32434" lon="5.83139">
        <ele>575</ele>
        <time>2019-04-09T11:03:20Z</time>
      </trkpt>
      <trkpt lat="44.32439" lon="5.83143">
        <ele>575</ele>
        <time>2019-04-09T11:03:21Z</time>
      </trkpt>
      <trkpt lat="44.32443" lon="5.83147">
        <ele>575</ele>
        <time>2019-04-09T11:03:22Z</time>
      </trkpt>
      <trkpt lat="44.32448" lon="5.83151">
        <ele>575</ele>
        <time>2019-04-09T11:03:23Z</time>
      </trkpt>
      <trkpt lat="44.32452" lon="5.83155">
        <ele>575</ele>
        <time>2019-04-09T11:03:24Z</time>
      </trkpt>
      <trkpt lat="44.32457" lon="5.83159">
        <ele>575</ele>
        <time>2019-04-09T11:03:25Z</time>
      </trkpt>
      <trkpt lat="44.32461" lon="5.83163">
        <ele>575</ele>
        <time>2019-04-09T11:03:26Z</time>
      </trkpt>
      <trkpt lat="44.32466" lon="5.83168">
        <ele>575</ele>
        <time>2019-04-09T11:03:27Z</time>
      </trkpt>
      <trkpt lat="44.32471" lon="5.83171">
        <ele>575</ele>
        <time>2019-04-09T11:03:28Z</time>
      </trkpt>
      <trkpt lat="44.32476" lon="5.83175">
        <ele>575</ele>
        <time>2019-04-09T11:03:29Z</time>
      </trkpt>
      <trkpt lat="44.32481" lon="5.83179">
        <ele>575</ele>
        <time>2019-04-09T11:03:30Z</time>
      </trkpt>
      <trkpt lat="44.32487" lon="5.83182">
        <ele>575</ele>
        <time>2019-04-09T11:03:31Z</time>
      </trkpt>
      <trkpt lat="44.32493" lon="5.83185">
        <ele>575</ele>
        <time>2019-04-09T11:03:32Z</time>
      </trkpt>
      <trkpt lat="44.32499" lon="5.83189">
        <ele>575</ele>
        <time>2019-04-09T11:03:33Z</time>
      </trkpt>
      <trkpt lat="44.32505" lon="5.83191">
        <ele>575</ele>
        <time>2019-04-09T11:03:34Z</time>
      </trkpt>
      <trkpt lat="44.32511" lon="5.83194">
        <ele>575</ele>
        <time>2019-04-09T11:03:35Z</time>
      </trkpt>
      <trkpt lat="44.32516" lon="5.83197">
        <ele>575</ele>
        <time>2019-04-09T11:03:36Z</time>
      </trkpt>
      <trkpt lat="44.32522" lon="5.83199">
        <ele>575</ele>
        <time>2019-04-09T11:03:37Z</time>
      </trkpt>
      <trkpt lat="44.32528" lon="5.83202">
        <ele>575</ele>
        <time>2019-04-09T11:03:38Z</time>
      </trkpt>
      <trkpt lat="44.32534" lon="5.83204">
        <ele>575</ele>
        <time>2019-04-09T11:03:39Z</time>
      </trkpt>
      <trkpt lat="44.32539" lon="5.83207">
        <ele>575</ele>
        <time>2019-04-09T11:03:40Z</time>
      </trkpt>
      <trkpt lat="44.32545" lon="5.83209">
        <ele>575</ele>
        <time>2019-04-09T11:03:41Z</time>
      </trkpt>
      <trkpt lat="44.32551" lon="5.83212">
        <ele>575</ele>
        <time>2019-04-09T11:03:42Z</time>
      </trkpt>
      <trkpt lat="44.32556" lon="5.83215">
        <ele>575</ele>
        <time>2019-04-09T11:03:43Z</time>
      </trkpt>
      <trkpt lat="44.32562" lon="5.83217">
        <ele>575</ele>
        <time>2019-04-09T11:03:44Z</time>
      </trkpt>
      <trkpt lat="44.32568" lon="5.83219">
        <ele>575</ele>
        <time>2019-04-09T11:03:45Z</time>
      </trkpt>
      <trkpt lat="44.32573" lon="5.83222">
        <ele>575</ele>
        <time>2019-04-09T11:03:46Z</time>
      </trkpt>
      <trkpt lat="44.32579" lon="5.83225">
        <ele>575</ele>
        <time>2019-04-09T11:03:47Z</time>
      </trkpt>
      <trkpt lat="44.32584" lon="5.83227">
        <ele>575</ele>
        <time>2019-04-09T11:03:48Z</time>
      </trkpt>
      <trkpt lat="44.3259" lon="5.8323">
        <ele>575</ele>
        <time>2019-04-09T11:03:49Z</time>
      </trkpt>
      <trkpt lat="44.32595" lon="5.83233">
        <ele>575</ele>
        <time>2019-04-09T11:03:50Z</time>
      </trkpt>
      <trkpt lat="44.32601" lon="5.83236">
        <ele>575</ele>
        <time>2019-04-09T11:03:51Z</time>
      </trkpt>
      <trkpt lat="44.32606" lon="5.8324">
        <ele>575</ele>
        <time>2019-04-09T11:03:52Z</time>
      </trkpt>
      <trkpt lat="44.32611" lon="5.83243">
        <ele>575</ele>
        <time>2019-04-09T11:03:53Z</time>
      </trkpt>
      <trkpt lat="44.32616" lon="5.83247">
        <ele>575</ele>
        <time>2019-04-09T11:03:54Z</time>
      </trkpt>
      <trkpt lat="44.32621" lon="5.83251">
        <ele>575</ele>
        <time>2019-04-09T11:03:55Z</time>
      </trkpt>
      <trkpt lat="44.32626" lon="5.83254">
        <ele>575</ele>
        <time>2019-04-09T11:03:56Z</time>
      </trkpt>
      <trkpt lat="44.32632" lon="5.83257">
        <ele>575</ele>
        <time>2019-04-09T11:03:57Z</time>
      </trkpt>
      <trkpt lat="44.32637" lon="5.8326">
        <ele>575</ele>
        <time>2019-04-09T11:03:58Z</time>
      </trkpt>
      <trkpt lat="44.32641" lon="5.83264">
        <ele>575</ele>
        <time>2019-04-09T11:03:59Z</time>
      </trkpt>
      <trkpt lat="44.32646" lon="5.83268">
        <ele>575</ele>
        <time>2019-04-09T11:04:00Z</time>
      </trkpt>
      <trkpt lat="44.32651" lon="5.83271">
        <ele>575</ele>
        <time>2019-04-09T11:04:01Z</time>
      </trkpt>
      <trkpt lat="44.32656" lon="5.83275">
        <ele>575</ele>
        <time>2019-04-09T11:04:02Z</time>
      </trkpt>
      <trkpt lat="44.32661" lon="5.83278">
        <ele>575</ele>
        <time>2019-04-09T11:04:03Z</time>
      </trkpt>
      <trkpt lat="44.32665" lon="5.83282">
        <ele>575</ele>
        <time>2019-04-09T11:04:04Z</time>
      </trkpt>
      <trkpt lat="44.3267" lon="5.83285">
        <ele>575</ele>
        <time>2019-04-09T11:04:05Z</time>
      </trkpt>
      <trkpt lat="44.32674" lon="5.83289">
        <ele>575</ele>
        <time>2019-04-09T11:04:06Z</time>
      </trkpt>
      <trkpt lat="44.32679" lon="5.83292">
        <ele>575</ele>
        <time>2019-04-09T11:04:07Z</time>
      </trkpt>
      <trkpt lat="44.32684" lon="5.83296">
        <ele>575</ele>
        <time>2019-04-09T11:04:08Z</time>
      </trkpt>
      <trkpt lat="44.32688" lon="5.83299">
        <ele>575</ele>
        <time>2019-04-09T11:04:09Z</time>
      </trkpt>
      <trkpt lat="44.32693" lon="5.83302">
        <ele>575</ele>
        <time>2019-04-09T11:04:10Z</time>
      </trkpt>
      <trkpt lat="44.32698" lon="5.83306">
        <ele>575</ele>
        <time>2019-04-09T11:04:11Z</time>
      </trkpt>
      <trkpt lat="44.32703" lon="5.8331">
        <ele>575</ele>
        <time>2019-04-09T11:04:12Z</time>
      </trkpt>
      <trkpt lat="44.32709" lon="5.83313">
        <ele>575</ele>
        <time>2019-04-09T11:04:13Z</time>
      </trkpt>
      <trkpt lat="44.32714" lon="5.83316">
        <ele>575</ele>
        <time>2019-04-09T11:04:14Z</time>
      </trkpt>
      <trkpt lat="44.3272" lon="5.83319">
        <ele>575</ele>
        <time>2019-04-09T11:04:15Z</time>
      </trkpt>
      <trkpt lat="44.32725" lon="5.83323">
        <ele>575</ele>
        <time>2019-04-09T11:04:16Z</time>
      </trkpt>
      <trkpt lat="44.3273" lon="5.83326">
        <ele>575</ele>
        <time>2019-04-09T11:04:17Z</time>
      </trkpt>
      <trkpt lat="44.32735" lon="5.8333">
        <ele>575</ele>
        <time>2019-04-09T11:04:18Z</time>
      </trkpt>
      <trkpt lat="44.3274" lon="5.83334">
        <ele>575</ele>
        <time>2019-04-09T11:04:19Z</time>
      </trkpt>
      <trkpt lat="44.32745" lon="5.83337">
        <ele>575</ele>
        <time>2019-04-09T11:04:20Z</time>
      </trkpt>
      <trkpt lat="44.32749" lon="5.83341">
        <ele>575</ele>
        <time>2019-04-09T11:04:21Z</time>
      </trkpt>
      <trkpt lat="44.32755" lon="5.83344">
        <ele>575</ele>
        <time>2019-04-09T11:04:22Z</time>
      </trkpt>
      <trkpt lat="44.32759" lon="5.83347">
        <ele>575</ele>
        <time>2019-04-09T11:04:23Z</time>
      </trkpt>
      <trkpt lat="44.32764" lon="5.83351">
        <ele>575</ele>
        <time>2019-04-09T11:04:24Z</time>
      </trkpt>
      <trkpt lat="44.32769" lon="5.83354">
        <ele>575</ele>
        <time>2019-04-09T11:04:25Z</time>
      </trkpt>
      <trkpt lat="44.32773" lon="5.83358">
        <ele>575</ele>
        <time>2019-04-09T11:04:26Z</time>
      </trkpt>
      <trkpt lat="44.32778" lon="5.83361">
        <ele>575</ele>
        <time>2019-04-09T11:04:27Z</time>
      </trkpt>
      <trkpt lat="44.32782" lon="5.83365">
        <ele>575</ele>
        <time>2019-04-09T11:04:28Z</time>
      </trkpt>
      <trkpt lat="44.32787" lon="5.83369">
        <ele>575</ele>
        <time>2019-04-09T11:04:29Z</time>
      </trkpt>
      <trkpt lat="44.32791" lon="5.83372">
        <ele>575</ele>
        <time>2019-04-09T11:04:30Z</time>
      </trkpt>
      <trkpt lat="44.32795" lon="5.83376">
        <ele>575</ele>
        <time>2019-04-09T11:04:31Z</time>
      </trkpt>
      <trkpt lat="44.328" lon="5.83379">
        <ele>575</ele>
        <time>2019-04-09T11:04:32Z</time>
      </trkpt>
      <trkpt lat="44.32805" lon="5.83381">
        <ele>575</ele>
        <time>2019-04-09T11:04:33Z</time>
      </trkpt>
      <trkpt lat="44.3281" lon="5.83384">
        <ele>575</ele>
        <time>2019-04-09T11:04:34Z</time>
      </trkpt>
      <trkpt lat="44.32815" lon="5.83386">
        <ele>575</ele>
        <time>2019-04-09T11:04:35Z</time>
      </trkpt>
      <trkpt lat="44.32819" lon="5.83388">
        <ele>575</ele>
        <time>2019-04-09T11:04:36Z</time>
      </trkpt>
      <trkpt lat="44.32824" lon="5.83389">
        <ele>575</ele>
        <time>2019-04-09T11:04:37Z</time>
      </trkpt>
      <trkpt lat="44.32829" lon="5.8339">
        <ele>575</ele>
        <time>2019-04-09T11:04:38Z</time>
      </trkpt>
      <trkpt lat="44.32834" lon="5.83391">
        <ele>575</ele>
        <time>2019-04-09T11:04:39Z</time>
      </trkpt>
      <trkpt lat="44.32839" lon="5.83392">
        <ele>575</ele>
        <time>2019-04-09T11:04:40Z</time>
      </trkpt>
      <trkpt lat="44.32844" lon="5.83393">
        <ele>575</ele>
        <time>2019-04-09T11:04:41Z</time>
      </trkpt>
      <trkpt lat="44.32849" lon="5.83394">
        <ele>576</ele>
        <time>2019-04-09T11:04:42Z</time>
      </trkpt>
      <trkpt lat="44.32854" lon="5.83394">
        <ele>576</ele>
        <time>2019-04-09T11:04:43Z</time>
      </trkpt>
      <trkpt lat="44.32859" lon="5.83394">
        <ele>576</ele>
        <time>2019-04-09T11:04:44Z</time>
      </trkpt>
      <trkpt lat="44.32864" lon="5.83395">
        <ele>576</ele>
        <time>2019-04-09T11:04:45Z</time>
      </trkpt>
      <trkpt lat="44.32869" lon="5.83395">
        <ele>576</ele>
        <time>2019-04-09T11:04:46Z</time>
      </trkpt>
      <trkpt lat="44.32874" lon="5.83395">
        <ele>576</ele>
        <time>2019-04-09T11:04:47Z</time>
      </trkpt>
      <trkpt lat="44.32878" lon="5.83396">
        <ele>576</ele>
        <time>2019-04-09T11:04:48Z</time>
      </trkpt>
      <trkpt lat="44.32883" lon="5.83396">
        <ele>576</ele>
        <time>2019-04-09T11:04:49Z</time>
      </trkpt>
      <trkpt lat="44.32888" lon="5.83396">
        <ele>576</ele>
        <time>2019-04-09T11:04:50Z</time>
      </trkpt>
      <trkpt lat="44.32893" lon="5.83396">
        <ele>577</ele>
        <time>2019-04-09T11:04:51Z</time>
      </trkpt>
      <trkpt lat="44.32897" lon="5.83397">
        <ele>577</ele>
        <time>2019-04-09T11:04:52Z</time>
      </trkpt>
      <trkpt lat="44.32902" lon="5.83397">
        <ele>577</ele>
        <time>2019-04-09T11:04:53Z</time>
      </trkpt>
      <trkpt lat="44.32906" lon="5.83397">
        <ele>577</ele>
        <time>2019-04-09T11:04:54Z</time>
      </trkpt>
      <trkpt lat="44.32911" lon="5.83397">
        <ele>577</ele>
        <time>2019-04-09T11:04:55Z</time>
      </trkpt>
      <trkpt lat="44.32915" lon="5.83398">
        <ele>578</ele>
        <time>2019-04-09T11:04:56Z</time>
      </trkpt>
      <trkpt lat="44.32919" lon="5.83398">
        <ele>578</ele>
        <time>2019-04-09T11:04:57Z</time>
      </trkpt>
      <trkpt lat="44.32924" lon="5.83398">
        <ele>578</ele>
        <time>2019-04-09T11:04:58Z</time>
      </trkpt>
      <trkpt lat="44.32928" lon="5.83398">
        <ele>578</ele>
        <time>2019-04-09T11:04:59Z</time>
      </trkpt>
      <trkpt lat="44.32933" lon="5.83399">
        <ele>578</ele>
        <time>2019-04-09T11:05:00Z</time>
      </trkpt>
      <trkpt lat="44.32938" lon="5.83399">
        <ele>579</ele>
        <time>2019-04-09T11:05:01Z</time>
      </trkpt>
      <trkpt lat="44.32942" lon="5.83399">
        <ele>579</ele>
        <time>2019-04-09T11:05:02Z</time>
      </trkpt>
      <trkpt lat="44.32946" lon="5.834">
        <ele>579</ele>
        <time>2019-04-09T11:05:03Z</time>
      </trkpt>
      <trkpt lat="44.32951" lon="5.834">
        <ele>579</ele>
        <time>2019-04-09T11:05:04Z</time>
      </trkpt>
      <trkpt lat="44.32956" lon="5.834">
        <ele>579</ele>
        <time>2019-04-09T11:05:05Z</time>
      </trkpt>
      <trkpt lat="44.3296" lon="5.83401">
        <ele>580</ele>
        <time>2019-04-09T11:05:06Z</time>
      </trkpt>
      <trkpt lat="44.32965" lon="5.83401">
        <ele>580</ele>
        <time>2019-04-09T11:05:07Z</time>
      </trkpt>
      <trkpt lat="44.32969" lon="5.83401">
        <ele>580</ele>
        <time>2019-04-09T11:05:08Z</time>
      </trkpt>
      <trkpt lat="44.32974" lon="5.83401">
        <ele>580</ele>
        <time>2019-04-09T11:05:09Z</time>
      </trkpt>
      <trkpt lat="44.32979" lon="5.83401">
        <ele>580</ele>
        <time>2019-04-09T11:05:10Z</time>
      </trkpt>
      <trkpt lat="44.32983" lon="5.83401">
        <ele>581</ele>
        <time>2019-04-09T11:05:11Z</time>
      </trkpt>
      <trkpt lat="44.32988" lon="5.83402">
        <ele>581</ele>
        <time>2019-04-09T11:05:12Z</time>
      </trkpt>
      <trkpt lat="44.32993" lon="5.83402">
        <ele>581</ele>
        <time>2019-04-09T11:05:13Z</time>
      </trkpt>
      <trkpt lat="44.32998" lon="5.83402">
        <ele>581</ele>
        <time>2019-04-09T11:05:14Z</time>
      </trkpt>
      <trkpt lat="44.33002" lon="5.83402">
        <ele>581</ele>
        <time>2019-04-09T11:05:15Z</time>
      </trkpt>
      <trkpt lat="44.33007" lon="5.83403">
        <ele>581</ele>
        <time>2019-04-09T11:05:16Z</time>
      </trkpt>
      <trkpt lat="44.33012" lon="5.83403">
        <ele>581</ele>
        <time>2019-04-09T11:05:17Z</time>
      </trkpt>
      <trkpt lat="44.33017" lon="5.83403">
        <ele>581</ele>
        <time>2019-04-09T11:05:18Z</time>
      </trkpt>
      <trkpt lat="44.33023" lon="5.83403">
        <ele>581</ele>
        <time>2019-04-09T11:05:19Z</time>
      </trkpt>
      <trkpt lat="44.33028" lon="5.83404">
        <ele>581</ele>
        <time>2019-04-09T11:05:20Z</time>
      </trkpt>
      <trkpt lat="44.33034" lon="5.83404">
        <ele>581</ele>
        <time>2019-04-09T11:05:21Z</time>
      </trkpt>
      <trkpt lat="44.33039" lon="5.83404">
        <ele>581</ele>
        <time>2019-04-09T11:05:22Z</time>
      </trkpt>
      <trkpt lat="44.33045" lon="5.83404">
        <ele>581</ele>
        <time>2019-04-09T11:05:23Z</time>
      </trkpt>
      <trkpt lat="44.33051" lon="5.83405">
        <ele>581</ele>
        <time>2019-04-09T11:05:24Z</time>
      </trkpt>
      <trkpt lat="44.33057" lon="5.83405">
        <ele>581</ele>
        <time>2019-04-09T11:05:25Z</time>
      </trkpt>
      <trkpt lat="44.33063" lon="5.83405">
        <ele>581</ele>
        <time>2019-04-09T11:05:26Z</time>
      </trkpt>
      <trkpt lat="44.33069" lon="5.83405">
        <ele>581</ele>
        <time>2019-04-09T11:05:27Z</time>
      </trkpt>
      <trkpt lat="44.33075" lon="5.83405">
        <ele>581</ele>
        <time>2019-04-09T11:05:28Z</time>
      </trkpt>
      <trkpt lat="44.33081" lon="5.83405">
        <ele>581</ele>
        <time>2019-04-09T11:05:29Z</time>
      </trkpt>
      <trkpt lat="44.33087" lon="5.83404">
        <ele>581</ele>
        <time>2019-04-09T11:05:30Z</time>
      </trkpt>
      <trkpt lat="44.33093" lon="5.83404">
        <ele>581</ele>
        <time>2019-04-09T11:05:31Z</time>
      </trkpt>
      <trkpt lat="44.33099" lon="5.83404">
        <ele>581</ele>
        <time>2019-04-09T11:05:32Z</time>
      </trkpt>
      <trkpt lat="44.33105" lon="5.83403">
        <ele>581</ele>
        <time>2019-04-09T11:05:33Z</time>
      </trkpt>
      <trkpt lat="44.33111" lon="5.83402">
        <ele>581</ele>
        <time>2019-04-09T11:05:34Z</time>
      </trkpt>
      <trkpt lat="44.33117" lon="5.83402">
        <ele>581</ele>
        <time>2019-04-09T11:05:35Z</time>
      </trkpt>
      <trkpt lat="44.33123" lon="5.83401">
        <ele>581</ele>
        <time>2019-04-09T11:05:36Z</time>
      </trkpt>
      <trkpt lat="44.33129" lon="5.834">
        <ele>581</ele>
        <time>2019-04-09T11:05:37Z</time>
      </trkpt>
      <trkpt lat="44.33135" lon="5.834">
        <ele>581</ele>
        <time>2019-04-09T11:05:38Z</time>
      </trkpt>
      <trkpt lat="44.33141" lon="5.83399">
        <ele>581</ele>
        <time>2019-04-09T11:05:39Z</time>
      </trkpt>
      <trkpt lat="44.33147" lon="5.83398">
        <ele>581</ele>
        <time>2019-04-09T11:05:40Z</time>
      </trkpt>
      <trkpt lat="44.33153" lon="5.83397">
        <ele>581</ele>
        <time>2019-04-09T11:05:41Z</time>
      </trkpt>
      <trkpt lat="44.33158" lon="5.83396">
        <ele>581</ele>
        <time>2019-04-09T11:05:42Z</time>
      </trkpt>
      <trkpt lat="44.33164" lon="5.83395">
        <ele>581</ele>
        <time>2019-04-09T11:05:43Z</time>
      </trkpt>
      <trkpt lat="44.33169" lon="5.83394">
        <ele>581</ele>
        <time>2019-04-09T11:05:44Z</time>
      </trkpt>
      <trkpt lat="44.33174" lon="5.83394">
        <ele>581</ele>
        <time>2019-04-09T11:05:45Z</time>
      </trkpt>
      <trkpt lat="44.33179" lon="5.83393">
        <ele>581</ele>
        <time>2019-04-09T11:05:46Z</time>
      </trkpt>
      <trkpt lat="44.33185" lon="5.83392">
        <ele>581</ele>
        <time>2019-04-09T11:05:47Z</time>
      </trkpt>
      <trkpt lat="44.3319" lon="5.83392">
        <ele>581</ele>
        <time>2019-04-09T11:05:48Z</time>
      </trkpt>
      <trkpt lat="44.33195" lon="5.83391">
        <ele>581</ele>
        <time>2019-04-09T11:05:49Z</time>
      </trkpt>
      <trkpt lat="44.33201" lon="5.8339">
        <ele>581</ele>
        <time>2019-04-09T11:05:50Z</time>
      </trkpt>
      <trkpt lat="44.33206" lon="5.83389">
        <ele>581</ele>
        <time>2019-04-09T11:05:51Z</time>
      </trkpt>
      <trkpt lat="44.33211" lon="5.83388">
        <ele>581</ele>
        <time>2019-04-09T11:05:52Z</time>
      </trkpt>
      <trkpt lat="44.33217" lon="5.83388">
        <ele>581</ele>
        <time>2019-04-09T11:05:53Z</time>
      </trkpt>
      <trkpt lat="44.33222" lon="5.83387">
        <ele>581</ele>
        <time>2019-04-09T11:05:54Z</time>
      </trkpt>
      <trkpt lat="44.33227" lon="5.83386">
        <ele>581</ele>
        <time>2019-04-09T11:05:55Z</time>
      </trkpt>
      <trkpt lat="44.33232" lon="5.83385">
        <ele>581</ele>
        <time>2019-04-09T11:05:56Z</time>
      </trkpt>
      <trkpt lat="44.33238" lon="5.83385">
        <ele>581</ele>
        <time>2019-04-09T11:05:57Z</time>
      </trkpt>
      <trkpt lat="44.33243" lon="5.83384">
        <ele>581</ele>
        <time>2019-04-09T11:05:58Z</time>
      </trkpt>
      <trkpt lat="44.33248" lon="5.83383">
        <ele>581</ele>
        <time>2019-04-09T11:05:59Z</time>
      </trkpt>
      <trkpt lat="44.33253" lon="5.83382">
        <ele>581</ele>
        <time>2019-04-09T11:06:00Z</time>
      </trkpt>
      <trkpt lat="44.33258" lon="5.83382">
        <ele>581</ele>
        <time>2019-04-09T11:06:01Z</time>
      </trkpt>
      <trkpt lat="44.33263" lon="5.83381">
        <ele>581</ele>
        <time>2019-04-09T11:06:02Z</time>
      </trkpt>
      <trkpt lat="44.33268" lon="5.8338">
        <ele>581</ele>
        <time>2019-04-09T11:06:03Z</time>
      </trkpt>
      <trkpt lat="44.33274" lon="5.8338">
        <ele>581</ele>
        <time>2019-04-09T11:06:04Z</time>
      </trkpt>
      <trkpt lat="44.33279" lon="5.83379">
        <ele>581</ele>
        <time>2019-04-09T11:06:05Z</time>
      </trkpt>
      <trkpt lat="44.33284" lon="5.83378">
        <ele>581</ele>
        <time>2019-04-09T11:06:06Z</time>
      </trkpt>
      <trkpt lat="44.33289" lon="5.83377">
        <ele>581</ele>
        <time>2019-04-09T11:06:07Z</time>
      </trkpt>
      <trkpt lat="44.33294" lon="5.83376">
        <ele>582</ele>
        <time>2019-04-09T11:06:08Z</time>
      </trkpt>
      <trkpt lat="44.33299" lon="5.83375">
        <ele>582</ele>
        <time>2019-04-09T11:06:09Z</time>
      </trkpt>
      <trkpt lat="44.33304" lon="5.83375">
        <ele>582</ele>
        <time>2019-04-09T11:06:10Z</time>
      </trkpt>
      <trkpt lat="44.33309" lon="5.83374">
        <ele>582</ele>
        <time>2019-04-09T11:06:11Z</time>
      </trkpt>
      <trkpt lat="44.33314" lon="5.83374">
        <ele>582</ele>
        <time>2019-04-09T11:06:12Z</time>
      </trkpt>
      <trkpt lat="44.33319" lon="5.83373">
        <ele>582</ele>
        <time>2019-04-09T11:06:13Z</time>
      </trkpt>
      <trkpt lat="44.33324" lon="5.83372">
        <ele>582</ele>
        <time>2019-04-09T11:06:14Z</time>
      </trkpt>
      <trkpt lat="44.33329" lon="5.83371">
        <ele>582</ele>
        <time>2019-04-09T11:06:15Z</time>
      </trkpt>
      <trkpt lat="44.33334" lon="5.83371">
        <ele>582</ele>
        <time>2019-04-09T11:06:16Z</time>
      </trkpt>
      <trkpt lat="44.33339" lon="5.8337">
        <ele>582</ele>
        <time>2019-04-09T11:06:17Z</time>
      </trkpt>
      <trkpt lat="44.33344" lon="5.83369">
        <ele>582</ele>
        <time>2019-04-09T11:06:18Z</time>
      </trkpt>
      <trkpt lat="44.33349" lon="5.83369">
        <ele>582</ele>
        <time>2019-04-09T11:06:19Z</time>
      </trkpt>
      <trkpt lat="44.33354" lon="5.83368">
        <ele>582</ele>
        <time>2019-04-09T11:06:20Z</time>
      </trkpt>
      <trkpt lat="44.33359" lon="5.83367">
        <ele>582</ele>
        <time>2019-04-09T11:06:21Z</time>
      </trkpt>
      <trkpt lat="44.33364" lon="5.83366">
        <ele>582</ele>
        <time>2019-04-09T11:06:22Z</time>
      </trkpt>
      <trkpt lat="44.33369" lon="5.83366">
        <ele>582</ele>
        <time>2019-04-09T11:06:23Z</time>
      </trkpt>
      <trkpt lat="44.33374" lon="5.83365">
        <ele>582</ele>
        <time>2019-04-09T11:06:24Z</time>
      </trkpt>
      <trkpt lat="44.33379" lon="5.83364">
        <ele>582</ele>
        <time>2019-04-09T11:06:25Z</time>
      </trkpt>
      <trkpt lat="44.33383" lon="5.83363">
        <ele>582</ele>
        <time>2019-04-09T11:06:26Z</time>
      </trkpt>
      <trkpt lat="44.33388" lon="5.83362">
        <ele>583</ele>
        <time>2019-04-09T11:06:27Z</time>
      </trkpt>
      <trkpt lat="44.33393" lon="5.83362">
        <ele>583</ele>
        <time>2019-04-09T11:06:28Z</time>
      </trkpt>
      <trkpt lat="44.33398" lon="5.83361">
        <ele>583</ele>
        <time>2019-04-09T11:06:29Z</time>
      </trkpt>
      <trkpt lat="44.33407" lon="5.8336">
        <ele>583</ele>
        <time>2019-04-09T11:06:31Z</time>
      </trkpt>
      <trkpt lat="44.33412" lon="5.83359">
        <ele>583</ele>
        <time>2019-04-09T11:06:32Z</time>
      </trkpt>
      <trkpt lat="44.33417" lon="5.83359">
        <ele>583</ele>
        <time>2019-04-09T11:06:33Z</time>
      </trkpt>
      <trkpt lat="44.33422" lon="5.83358">
        <ele>583</ele>
        <time>2019-04-09T11:06:34Z</time>
      </trkpt>
      <trkpt lat="44.33427" lon="5.83357">
        <ele>584</ele>
        <time>2019-04-09T11:06:35Z</time>
      </trkpt>
      <trkpt lat="44.33432" lon="5.83357">
        <ele>584</ele>
        <time>2019-04-09T11:06:36Z</time>
      </trkpt>
      <trkpt lat="44.33437" lon="5.83356">
        <ele>584</ele>
        <time>2019-04-09T11:06:37Z</time>
      </trkpt>
      <trkpt lat="44.33441" lon="5.83355">
        <ele>584</ele>
        <time>2019-04-09T11:06:38Z</time>
      </trkpt>
      <trkpt lat="44.33446" lon="5.83355">
        <ele>584</ele>
        <time>2019-04-09T11:06:39Z</time>
      </trkpt>
      <trkpt lat="44.33451" lon="5.83354">
        <ele>584</ele>
        <time>2019-04-09T11:06:40Z</time>
      </trkpt>
      <trkpt lat="44.33456" lon="5.83354">
        <ele>584</ele>
        <time>2019-04-09T11:06:41Z</time>
      </trkpt>
      <trkpt lat="44.33461" lon="5.83354">
        <ele>584</ele>
        <time>2019-04-09T11:06:42Z</time>
      </trkpt>
      <trkpt lat="44.33466" lon="5.83353">
        <ele>585</ele>
        <time>2019-04-09T11:06:43Z</time>
      </trkpt>
      <trkpt lat="44.3347" lon="5.83354">
        <ele>585</ele>
        <time>2019-04-09T11:06:44Z</time>
      </trkpt>
      <trkpt lat="44.33475" lon="5.83354">
        <ele>585</ele>
        <time>2019-04-09T11:06:45Z</time>
      </trkpt>
      <trkpt lat="44.3348" lon="5.83354">
        <ele>585</ele>
        <time>2019-04-09T11:06:46Z</time>
      </trkpt>
      <trkpt lat="44.33485" lon="5.83354">
        <ele>585</ele>
        <time>2019-04-09T11:06:47Z</time>
      </trkpt>
      <trkpt lat="44.3349" lon="5.83354">
        <ele>585</ele>
        <time>2019-04-09T11:06:48Z</time>
      </trkpt>
      <trkpt lat="44.33495" lon="5.83355">
        <ele>585</ele>
        <time>2019-04-09T11:06:49Z</time>
      </trkpt>
      <trkpt lat="44.335" lon="5.83355">
        <ele>585</ele>
        <time>2019-04-09T11:06:50Z</time>
      </trkpt>
      <trkpt lat="44.33504" lon="5.83355">
        <ele>585</ele>
        <time>2019-04-09T11:06:51Z</time>
      </trkpt>
      <trkpt lat="44.33509" lon="5.83356">
        <ele>586</ele>
        <time>2019-04-09T11:06:52Z</time>
      </trkpt>
      <trkpt lat="44.33514" lon="5.83356">
        <ele>586</ele>
        <time>2019-04-09T11:06:53Z</time>
      </trkpt>
      <trkpt lat="44.33519" lon="5.83357">
        <ele>586</ele>
        <time>2019-04-09T11:06:54Z</time>
      </trkpt>
      <trkpt lat="44.33523" lon="5.83357">
        <ele>586</ele>
        <time>2019-04-09T11:06:55Z</time>
      </trkpt>
      <trkpt lat="44.33527" lon="5.83357">
        <ele>586</ele>
        <time>2019-04-09T11:06:56Z</time>
      </trkpt>
      <trkpt lat="44.33531" lon="5.83358">
        <ele>586</ele>
        <time>2019-04-09T11:06:57Z</time>
      </trkpt>
      <trkpt lat="44.33535" lon="5.83359">
        <ele>587</ele>
        <time>2019-04-09T11:06:58Z</time>
      </trkpt>
      <trkpt lat="44.3354" lon="5.83359">
        <ele>587</ele>
        <time>2019-04-09T11:06:59Z</time>
      </trkpt>
      <trkpt lat="44.33544" lon="5.8336">
        <ele>587</ele>
        <time>2019-04-09T11:07:00Z</time>
      </trkpt>
      <trkpt lat="44.33548" lon="5.8336">
        <ele>587</ele>
        <time>2019-04-09T11:07:01Z</time>
      </trkpt>
      <trkpt lat="44.33552" lon="5.83361">
        <ele>587</ele>
        <time>2019-04-09T11:07:02Z</time>
      </trkpt>
      <trkpt lat="44.33556" lon="5.83362">
        <ele>587</ele>
        <time>2019-04-09T11:07:03Z</time>
      </trkpt>
      <trkpt lat="44.3356" lon="5.83362">
        <ele>587</ele>
        <time>2019-04-09T11:07:04Z</time>
      </trkpt>
      <trkpt lat="44.33564" lon="5.83363">
        <ele>587</ele>
        <time>2019-04-09T11:07:05Z</time>
      </trkpt>
      <trkpt lat="44.33569" lon="5.83363">
        <ele>588</ele>
        <time>2019-04-09T11:07:06Z</time>
      </trkpt>
      <trkpt lat="44.33572" lon="5.83364">
        <ele>588</ele>
        <time>2019-04-09T11:07:07Z</time>
      </trkpt>
      <trkpt lat="44.33577" lon="5.83365">
        <ele>588</ele>
        <time>2019-04-09T11:07:08Z</time>
      </trkpt>
      <trkpt lat="44.33581" lon="5.83365">
        <ele>588</ele>
        <time>2019-04-09T11:07:09Z</time>
      </trkpt>
      <trkpt lat="44.33587" lon="5.83364">
        <ele>589</ele>
        <time>2019-04-09T11:07:10Z</time>
      </trkpt>
      <trkpt lat="44.33591" lon="5.83365">
        <ele>589</ele>
        <time>2019-04-09T11:07:11Z</time>
      </trkpt>
      <trkpt lat="44.33595" lon="5.83365">
        <ele>589</ele>
        <time>2019-04-09T11:07:12Z</time>
      </trkpt>
      <trkpt lat="44.336" lon="5.83365">
        <ele>590</ele>
        <time>2019-04-09T11:07:13Z</time>
      </trkpt>
      <trkpt lat="44.33604" lon="5.83366">
        <ele>590</ele>
        <time>2019-04-09T11:07:14Z</time>
      </trkpt>
      <trkpt lat="44.33608" lon="5.83366">
        <ele>590</ele>
        <time>2019-04-09T11:07:15Z</time>
      </trkpt>
      <trkpt lat="44.33612" lon="5.83367">
        <ele>590</ele>
        <time>2019-04-09T11:07:16Z</time>
      </trkpt>
      <trkpt lat="44.33616" lon="5.83368">
        <ele>591</ele>
        <time>2019-04-09T11:07:17Z</time>
      </trkpt>
      <trkpt lat="44.33621" lon="5.83368">
        <ele>591</ele>
        <time>2019-04-09T11:07:18Z</time>
      </trkpt>
      <trkpt lat="44.33625" lon="5.83369">
        <ele>591</ele>
        <time>2019-04-09T11:07:19Z</time>
      </trkpt>
      <trkpt lat="44.33629" lon="5.83369">
        <ele>591</ele>
        <time>2019-04-09T11:07:20Z</time>
      </trkpt>
      <trkpt lat="44.33633" lon="5.8337">
        <ele>591</ele>
        <time>2019-04-09T11:07:21Z</time>
      </trkpt>
      <trkpt lat="44.33637" lon="5.8337">
        <ele>591</ele>
        <time>2019-04-09T11:07:22Z</time>
      </trkpt>
      <trkpt lat="44.33642" lon="5.83371">
        <ele>592</ele>
        <time>2019-04-09T11:07:23Z</time>
      </trkpt>
      <trkpt lat="44.33646" lon="5.83371">
        <ele>592</ele>
        <time>2019-04-09T11:07:24Z</time>
      </trkpt>
      <trkpt lat="44.33651" lon="5.83371">
        <ele>592</ele>
        <time>2019-04-09T11:07:25Z</time>
      </trkpt>
      <trkpt lat="44.33656" lon="5.83372">
        <ele>592</ele>
        <time>2019-04-09T11:07:26Z</time>
      </trkpt>
      <trkpt lat="44.3366" lon="5.83372">
        <ele>592</ele>
        <time>2019-04-09T11:07:27Z</time>
      </trkpt>
      <trkpt lat="44.33665" lon="5.83372">
        <ele>593</ele>
        <time>2019-04-09T11:07:28Z</time>
      </trkpt>
      <trkpt lat="44.33669" lon="5.83373">
        <ele>593</ele>
        <time>2019-04-09T11:07:29Z</time>
      </trkpt>
      <trkpt lat="44.33674" lon="5.83373">
        <ele>593</ele>
        <time>2019-04-09T11:07:30Z</time>
      </trkpt>
      <trkpt lat="44.33678" lon="5.83374">
        <ele>593</ele>
        <time>2019-04-09T11:07:31Z</time>
      </trkpt>
      <trkpt lat="44.33683" lon="5.83374">
        <ele>594</ele>
        <time>2019-04-09T11:07:32Z</time>
      </trkpt>
      <trkpt lat="44.33688" lon="5.83375">
        <ele>594</ele>
        <time>2019-04-09T11:07:33Z</time>
      </trkpt>
      <trkpt lat="44.33692" lon="5.83375">
        <ele>594</ele>
        <time>2019-04-09T11:07:34Z</time>
      </trkpt>
      <trkpt lat="44.33697" lon="5.83376">
        <ele>594</ele>
        <time>2019-04-09T11:07:35Z</time>
      </trkpt>
      <trkpt lat="44.33702" lon="5.83376">
        <ele>594</ele>
        <time>2019-04-09T11:07:36Z</time>
      </trkpt>
      <trkpt lat="44.33706" lon="5.83376">
        <ele>594</ele>
        <time>2019-04-09T11:07:37Z</time>
      </trkpt>
      <trkpt lat="44.33711" lon="5.83377">
        <ele>594</ele>
        <time>2019-04-09T11:07:38Z</time>
      </trkpt>
      <trkpt lat="44.33715" lon="5.83377">
        <ele>594</ele>
        <time>2019-04-09T11:07:39Z</time>
      </trkpt>
      <trkpt lat="44.3372" lon="5.83377">
        <ele>595</ele>
        <time>2019-04-09T11:07:40Z</time>
      </trkpt>
      <trkpt lat="44.33725" lon="5.83378">
        <ele>595</ele>
        <time>2019-04-09T11:07:41Z</time>
      </trkpt>
      <trkpt lat="44.33729" lon="5.83378">
        <ele>595</ele>
        <time>2019-04-09T11:07:42Z</time>
      </trkpt>
      <trkpt lat="44.33734" lon="5.83379">
        <ele>595</ele>
        <time>2019-04-09T11:07:43Z</time>
      </trkpt>
      <trkpt lat="44.33739" lon="5.83379">
        <ele>595</ele>
        <time>2019-04-09T11:07:44Z</time>
      </trkpt>
      <trkpt lat="44.33743" lon="5.8338">
        <ele>595</ele>
        <time>2019-04-09T11:07:45Z</time>
      </trkpt>
      <trkpt lat="44.33748" lon="5.8338">
        <ele>595</ele>
        <time>2019-04-09T11:07:46Z</time>
      </trkpt>
      <trkpt lat="44.33753" lon="5.83381">
        <ele>595</ele>
        <time>2019-04-09T11:07:47Z</time>
      </trkpt>
      <trkpt lat="44.33757" lon="5.83381">
        <ele>595</ele>
        <time>2019-04-09T11:07:48Z</time>
      </trkpt>
      <trkpt lat="44.33762" lon="5.83382">
        <ele>595</ele>
        <time>2019-04-09T11:07:49Z</time>
      </trkpt>
      <trkpt lat="44.33767" lon="5.83382">
        <ele>596</ele>
        <time>2019-04-09T11:07:50Z</time>
      </trkpt>
      <trkpt lat="44.33772" lon="5.83383">
        <ele>596</ele>
        <time>2019-04-09T11:07:51Z</time>
      </trkpt>
      <trkpt lat="44.33776" lon="5.83384">
        <ele>596</ele>
        <time>2019-04-09T11:07:52Z</time>
      </trkpt>
      <trkpt lat="44.33781" lon="5.83384">
        <ele>596</ele>
        <time>2019-04-09T11:07:53Z</time>
      </trkpt>
      <trkpt lat="44.33785" lon="5.83385">
        <ele>596</ele>
        <time>2019-04-09T11:07:54Z</time>
      </trkpt>
      <trkpt lat="44.3379" lon="5.83386">
        <ele>596</ele>
        <time>2019-04-09T11:07:55Z</time>
      </trkpt>
      <trkpt lat="44.33795" lon="5.83387">
        <ele>596</ele>
        <time>2019-04-09T11:07:56Z</time>
      </trkpt>
      <trkpt lat="44.33799" lon="5.83388">
        <ele>596</ele>
        <time>2019-04-09T11:07:57Z</time>
      </trkpt>
      <trkpt lat="44.33804" lon="5.83388">
        <ele>596</ele>
        <time>2019-04-09T11:07:58Z</time>
      </trkpt>
      <trkpt lat="44.33809" lon="5.8339">
        <ele>596</ele>
        <time>2019-04-09T11:07:59Z</time>
      </trkpt>
      <trkpt lat="44.33813" lon="5.8339">
        <ele>596</ele>
        <time>2019-04-09T11:08:00Z</time>
      </trkpt>
      <trkpt lat="44.33818" lon="5.83391">
        <ele>597</ele>
        <time>2019-04-09T11:08:01Z</time>
      </trkpt>
      <trkpt lat="44.33823" lon="5.83392">
        <ele>597</ele>
        <time>2019-04-09T11:08:02Z</time>
      </trkpt>
      <trkpt lat="44.33827" lon="5.83393">
        <ele>597</ele>
        <time>2019-04-09T11:08:03Z</time>
      </trkpt>
      <trkpt lat="44.33832" lon="5.83394">
        <ele>597</ele>
        <time>2019-04-09T11:08:04Z</time>
      </trkpt>
      <trkpt lat="44.33837" lon="5.83395">
        <ele>597</ele>
        <time>2019-04-09T11:08:05Z</time>
      </trkpt>
      <trkpt lat="44.33841" lon="5.83396">
        <ele>597</ele>
        <time>2019-04-09T11:08:06Z</time>
      </trkpt>
      <trkpt lat="44.33846" lon="5.83397">
        <ele>597</ele>
        <time>2019-04-09T11:08:07Z</time>
      </trkpt>
      <trkpt lat="44.33851" lon="5.83398">
        <ele>597</ele>
        <time>2019-04-09T11:08:08Z</time>
      </trkpt>
      <trkpt lat="44.33856" lon="5.83399">
        <ele>597</ele>
        <time>2019-04-09T11:08:09Z</time>
      </trkpt>
      <trkpt lat="44.3386" lon="5.834">
        <ele>598</ele>
        <time>2019-04-09T11:08:10Z</time>
      </trkpt>
      <trkpt lat="44.33865" lon="5.83401">
        <ele>598</ele>
        <time>2019-04-09T11:08:11Z</time>
      </trkpt>
      <trkpt lat="44.3387" lon="5.83402">
        <ele>598</ele>
        <time>2019-04-09T11:08:12Z</time>
      </trkpt>
      <trkpt lat="44.33875" lon="5.83403">
        <ele>598</ele>
        <time>2019-04-09T11:08:13Z</time>
      </trkpt>
      <trkpt lat="44.33879" lon="5.83404">
        <ele>598</ele>
        <time>2019-04-09T11:08:14Z</time>
      </trkpt>
      <trkpt lat="44.33884" lon="5.83405">
        <ele>598</ele>
        <time>2019-04-09T11:08:15Z</time>
      </trkpt>
      <trkpt lat="44.33889" lon="5.83407">
        <ele>598</ele>
        <time>2019-04-09T11:08:16Z</time>
      </trkpt>
      <trkpt lat="44.33893" lon="5.83408">
        <ele>598</ele>
        <time>2019-04-09T11:08:17Z</time>
      </trkpt>
      <trkpt lat="44.33898" lon="5.83408">
        <ele>598</ele>
        <time>2019-04-09T11:08:18Z</time>
      </trkpt>
      <trkpt lat="44.33902" lon="5.8341">
        <ele>598</ele>
        <time>2019-04-09T11:08:19Z</time>
      </trkpt>
      <trkpt lat="44.33907" lon="5.8341">
        <ele>598</ele>
        <time>2019-04-09T11:08:20Z</time>
      </trkpt>
      <trkpt lat="44.33912" lon="5.83412">
        <ele>599</ele>
        <time>2019-04-09T11:08:21Z</time>
      </trkpt>
      <trkpt lat="44.33916" lon="5.83413">
        <ele>599</ele>
        <time>2019-04-09T11:08:22Z</time>
      </trkpt>
      <trkpt lat="44.33921" lon="5.83414">
        <ele>599</ele>
        <time>2019-04-09T11:08:23Z</time>
      </trkpt>
      <trkpt lat="44.33925" lon="5.83415">
        <ele>599</ele>
        <time>2019-04-09T11:08:24Z</time>
      </trkpt>
      <trkpt lat="44.3393" lon="5.83416">
        <ele>599</ele>
        <time>2019-04-09T11:08:25Z</time>
      </trkpt>
      <trkpt lat="44.33934" lon="5.83417">
        <ele>599</ele>
        <time>2019-04-09T11:08:26Z</time>
      </trkpt>
      <trkpt lat="44.33939" lon="5.83419">
        <ele>599</ele>
        <time>2019-04-09T11:08:27Z</time>
      </trkpt>
      <trkpt lat="44.33944" lon="5.83421">
        <ele>599</ele>
        <time>2019-04-09T11:08:28Z</time>
      </trkpt>
      <trkpt lat="44.33948" lon="5.83422">
        <ele>600</ele>
        <time>2019-04-09T11:08:29Z</time>
      </trkpt>
      <trkpt lat="44.33953" lon="5.83424">
        <ele>600</ele>
        <time>2019-04-09T11:08:30Z</time>
      </trkpt>
      <trkpt lat="44.33957" lon="5.83427">
        <ele>600</ele>
        <time>2019-04-09T11:08:31Z</time>
      </trkpt>
      <trkpt lat="44.33961" lon="5.83429">
        <ele>600</ele>
        <time>2019-04-09T11:08:32Z</time>
      </trkpt>
      <trkpt lat="44.33966" lon="5.83432">
        <ele>600</ele>
        <time>2019-04-09T11:08:33Z</time>
      </trkpt>
      <trkpt lat="44.33969" lon="5.83435">
        <ele>600</ele>
        <time>2019-04-09T11:08:34Z</time>
      </trkpt>
      <trkpt lat="44.33973" lon="5.83438">
        <ele>600</ele>
        <time>2019-04-09T11:08:35Z</time>
      </trkpt>
      <trkpt lat="44.33977" lon="5.83442">
        <ele>600</ele>
        <time>2019-04-09T11:08:36Z</time>
      </trkpt>
      <trkpt lat="44.33981" lon="5.83445">
        <ele>601</ele>
        <time>2019-04-09T11:08:37Z</time>
      </trkpt>
      <trkpt lat="44.33985" lon="5.83449">
        <ele>601</ele>
        <time>2019-04-09T11:08:38Z</time>
      </trkpt>
      <trkpt lat="44.33989" lon="5.83453">
        <ele>601</ele>
        <time>2019-04-09T11:08:39Z</time>
      </trkpt>
      <trkpt lat="44.33993" lon="5.83456">
        <ele>601</ele>
        <time>2019-04-09T11:08:40Z</time>
      </trkpt>
      <trkpt lat="44.33997" lon="5.8346">
        <ele>601</ele>
        <time>2019-04-09T11:08:41Z</time>
      </trkpt>
      <trkpt lat="44.34" lon="5.83464">
        <ele>602</ele>
        <time>2019-04-09T11:08:42Z</time>
      </trkpt>
      <trkpt lat="44.34004" lon="5.83468">
        <ele>602</ele>
        <time>2019-04-09T11:08:43Z</time>
      </trkpt>
      <trkpt lat="44.34008" lon="5.83471">
        <ele>602</ele>
        <time>2019-04-09T11:08:44Z</time>
      </trkpt>
      <trkpt lat="44.34012" lon="5.83475">
        <ele>602</ele>
        <time>2019-04-09T11:08:45Z</time>
      </trkpt>
      <trkpt lat="44.34016" lon="5.83479">
        <ele>602</ele>
        <time>2019-04-09T11:08:46Z</time>
      </trkpt>
      <trkpt lat="44.3402" lon="5.83483">
        <ele>602</ele>
        <time>2019-04-09T11:08:47Z</time>
      </trkpt>
      <trkpt lat="44.34024" lon="5.83487">
        <ele>603</ele>
        <time>2019-04-09T11:08:48Z</time>
      </trkpt>
      <trkpt lat="44.34028" lon="5.83491">
        <ele>603</ele>
        <time>2019-04-09T11:08:49Z</time>
      </trkpt>
      <trkpt lat="44.34032" lon="5.83494">
        <ele>603</ele>
        <time>2019-04-09T11:08:50Z</time>
      </trkpt>
      <trkpt lat="44.34035" lon="5.83498">
        <ele>603</ele>
        <time>2019-04-09T11:08:51Z</time>
      </trkpt>
      <trkpt lat="44.34039" lon="5.83502">
        <ele>603</ele>
        <time>2019-04-09T11:08:52Z</time>
      </trkpt>
      <trkpt lat="44.34043" lon="5.83506">
        <ele>603</ele>
        <time>2019-04-09T11:08:53Z</time>
      </trkpt>
      <trkpt lat="44.34047" lon="5.8351">
        <ele>603</ele>
        <time>2019-04-09T11:08:54Z</time>
      </trkpt>
      <trkpt lat="44.3405" lon="5.83514">
        <ele>603</ele>
        <time>2019-04-09T11:08:55Z</time>
      </trkpt>
      <trkpt lat="44.34054" lon="5.83517">
        <ele>603</ele>
        <time>2019-04-09T11:08:56Z</time>
      </trkpt>
      <trkpt lat="44.34058" lon="5.83521">
        <ele>604</ele>
        <time>2019-04-09T11:08:57Z</time>
      </trkpt>
      <trkpt lat="44.34062" lon="5.83525">
        <ele>604</ele>
        <time>2019-04-09T11:08:58Z</time>
      </trkpt>
      <trkpt lat="44.34066" lon="5.83529">
        <ele>604</ele>
        <time>2019-04-09T11:08:59Z</time>
      </trkpt>
      <trkpt lat="44.3407" lon="5.83533">
        <ele>604</ele>
        <time>2019-04-09T11:09:00Z</time>
      </trkpt>
      <trkpt lat="44.34074" lon="5.83537">
        <ele>604</ele>
        <time>2019-04-09T11:09:01Z</time>
      </trkpt>
      <trkpt lat="44.34077" lon="5.83541">
        <ele>604</ele>
        <time>2019-04-09T11:09:02Z</time>
      </trkpt>
      <trkpt lat="44.34081" lon="5.83544">
        <ele>604</ele>
        <time>2019-04-09T11:09:03Z</time>
      </trkpt>
      <trkpt lat="44.34085" lon="5.83548">
        <ele>605</ele>
        <time>2019-04-09T11:09:04Z</time>
      </trkpt>
      <trkpt lat="44.34089" lon="5.83552">
        <ele>605</ele>
        <time>2019-04-09T11:09:05Z</time>
      </trkpt>
      <trkpt lat="44.34092" lon="5.83556">
        <ele>605</ele>
        <time>2019-04-09T11:09:06Z</time>
      </trkpt>
      <trkpt lat="44.34097" lon="5.8356">
        <ele>605</ele>
        <time>2019-04-09T11:09:07Z</time>
      </trkpt>
      <trkpt lat="44.341" lon="5.83564">
        <ele>605</ele>
        <time>2019-04-09T11:09:08Z</time>
      </trkpt>
      <trkpt lat="44.34103" lon="5.83568">
        <ele>605</ele>
        <time>2019-04-09T11:09:09Z</time>
      </trkpt>
      <trkpt lat="44.34107" lon="5.83572">
        <ele>605</ele>
        <time>2019-04-09T11:09:10Z</time>
      </trkpt>
      <trkpt lat="44.34111" lon="5.83576">
        <ele>605</ele>
        <time>2019-04-09T11:09:11Z</time>
      </trkpt>
      <trkpt lat="44.34115" lon="5.8358">
        <ele>605</ele>
        <time>2019-04-09T11:09:12Z</time>
      </trkpt>
      <trkpt lat="44.34119" lon="5.83584">
        <ele>605</ele>
        <time>2019-04-09T11:09:13Z</time>
      </trkpt>
      <trkpt lat="44.34124" lon="5.83589">
        <ele>605</ele>
        <time>2019-04-09T11:09:14Z</time>
      </trkpt>
      <trkpt lat="44.34128" lon="5.83593">
        <ele>605</ele>
        <time>2019-04-09T11:09:15Z</time>
      </trkpt>
      <trkpt lat="44.34132" lon="5.83598">
        <ele>605</ele>
        <time>2019-04-09T11:09:16Z</time>
      </trkpt>
      <trkpt lat="44.34137" lon="5.83602">
        <ele>605</ele>
        <time>2019-04-09T11:09:17Z</time>
      </trkpt>
      <trkpt lat="44.34142" lon="5.83607">
        <ele>605</ele>
        <time>2019-04-09T11:09:18Z</time>
      </trkpt>
      <trkpt lat="44.34146" lon="5.83612">
        <ele>605</ele>
        <time>2019-04-09T11:09:19Z</time>
      </trkpt>
      <trkpt lat="44.34152" lon="5.83617">
        <ele>605</ele>
        <time>2019-04-09T11:09:20Z</time>
      </trkpt>
      <trkpt lat="44.34157" lon="5.83622">
        <ele>605</ele>
        <time>2019-04-09T11:09:21Z</time>
      </trkpt>
      <trkpt lat="44.34162" lon="5.83628">
        <ele>605</ele>
        <time>2019-04-09T11:09:22Z</time>
      </trkpt>
      <trkpt lat="44.34167" lon="5.83633">
        <ele>605</ele>
        <time>2019-04-09T11:09:23Z</time>
      </trkpt>
      <trkpt lat="44.34173" lon="5.83638">
        <ele>605</ele>
        <time>2019-04-09T11:09:24Z</time>
      </trkpt>
      <trkpt lat="44.34178" lon="5.83644">
        <ele>605</ele>
        <time>2019-04-09T11:09:25Z</time>
      </trkpt>
      <trkpt lat="44.34184" lon="5.8365">
        <ele>605</ele>
        <time>2019-04-09T11:09:26Z</time>
      </trkpt>
      <trkpt lat="44.34189" lon="5.83655">
        <ele>605</ele>
        <time>2019-04-09T11:09:27Z</time>
      </trkpt>
      <trkpt lat="44.34194" lon="5.83661">
        <ele>605</ele>
        <time>2019-04-09T11:09:28Z</time>
      </trkpt>
      <trkpt lat="44.342" lon="5.83667">
        <ele>605</ele>
        <time>2019-04-09T11:09:29Z</time>
      </trkpt>
      <trkpt lat="44.34204" lon="5.83673">
        <ele>605</ele>
        <time>2019-04-09T11:09:30Z</time>
      </trkpt>
      <trkpt lat="44.34209" lon="5.83678">
        <ele>605</ele>
        <time>2019-04-09T11:09:31Z</time>
      </trkpt>
      <trkpt lat="44.34214" lon="5.83684">
        <ele>605</ele>
        <time>2019-04-09T11:09:32Z</time>
      </trkpt>
      <trkpt lat="44.34219" lon="5.8369">
        <ele>605</ele>
        <time>2019-04-09T11:09:33Z</time>
      </trkpt>
      <trkpt lat="44.34223" lon="5.83695">
        <ele>605</ele>
        <time>2019-04-09T11:09:34Z</time>
      </trkpt>
      <trkpt lat="44.34227" lon="5.83701">
        <ele>605</ele>
        <time>2019-04-09T11:09:35Z</time>
      </trkpt>
      <trkpt lat="44.34232" lon="5.83706">
        <ele>605</ele>
        <time>2019-04-09T11:09:36Z</time>
      </trkpt>
      <trkpt lat="44.34236" lon="5.83711">
        <ele>605</ele>
        <time>2019-04-09T11:09:37Z</time>
      </trkpt>
      <trkpt lat="44.3424" lon="5.83717">
        <ele>605</ele>
        <time>2019-04-09T11:09:38Z</time>
      </trkpt>
      <trkpt lat="44.34244" lon="5.83722">
        <ele>605</ele>
        <time>2019-04-09T11:09:39Z</time>
      </trkpt>
      <trkpt lat="44.34248" lon="5.83728">
        <ele>605</ele>
        <time>2019-04-09T11:09:40Z</time>
      </trkpt>
      <trkpt lat="44.34253" lon="5.83733">
        <ele>605</ele>
        <time>2019-04-09T11:09:41Z</time>
      </trkpt>
      <trkpt lat="44.34257" lon="5.83739">
        <ele>605</ele>
        <time>2019-04-09T11:09:42Z</time>
      </trkpt>
      <trkpt lat="44.34261" lon="5.83744">
        <ele>605</ele>
        <time>2019-04-09T11:09:43Z</time>
      </trkpt>
      <trkpt lat="44.34265" lon="5.83749">
        <ele>605</ele>
        <time>2019-04-09T11:09:44Z</time>
      </trkpt>
      <trkpt lat="44.3427" lon="5.83755">
        <ele>605</ele>
        <time>2019-04-09T11:09:45Z</time>
      </trkpt>
      <trkpt lat="44.34274" lon="5.8376">
        <ele>605</ele>
        <time>2019-04-09T11:09:46Z</time>
      </trkpt>
      <trkpt lat="44.34278" lon="5.83765">
        <ele>605</ele>
        <time>2019-04-09T11:09:47Z</time>
      </trkpt>
      <trkpt lat="44.34282" lon="5.83771">
        <ele>605</ele>
        <time>2019-04-09T11:09:48Z</time>
      </trkpt>
      <trkpt lat="44.34287" lon="5.83776">
        <ele>605</ele>
        <time>2019-04-09T11:09:49Z</time>
      </trkpt>
      <trkpt lat="44.34291" lon="5.83781">
        <ele>605</ele>
        <time>2019-04-09T11:09:50Z</time>
      </trkpt>
      <trkpt lat="44.34296" lon="5.83786">
        <ele>606</ele>
        <time>2019-04-09T11:09:51Z</time>
      </trkpt>
      <trkpt lat="44.343" lon="5.83791">
        <ele>606</ele>
        <time>2019-04-09T11:09:52Z</time>
      </trkpt>
      <trkpt lat="44.34304" lon="5.83797">
        <ele>606</ele>
        <time>2019-04-09T11:09:53Z</time>
      </trkpt>
      <trkpt lat="44.34308" lon="5.83802">
        <ele>606</ele>
        <time>2019-04-09T11:09:54Z</time>
      </trkpt>
      <trkpt lat="44.34312" lon="5.83808">
        <ele>607</ele>
        <time>2019-04-09T11:09:55Z</time>
      </trkpt>
      <trkpt lat="44.34317" lon="5.83813">
        <ele>607</ele>
        <time>2019-04-09T11:09:56Z</time>
      </trkpt>
      <trkpt lat="44.34321" lon="5.83818">
        <ele>607</ele>
        <time>2019-04-09T11:09:57Z</time>
      </trkpt>
      <trkpt lat="44.34325" lon="5.83824">
        <ele>607</ele>
        <time>2019-04-09T11:09:58Z</time>
      </trkpt>
      <trkpt lat="44.34328" lon="5.83829">
        <ele>607</ele>
        <time>2019-04-09T11:09:59Z</time>
      </trkpt>
      <trkpt lat="44.34332" lon="5.83835">
        <ele>607</ele>
        <time>2019-04-09T11:10:00Z</time>
      </trkpt>
      <trkpt lat="44.34336" lon="5.8384">
        <ele>607</ele>
        <time>2019-04-09T11:10:01Z</time>
      </trkpt>
      <trkpt lat="44.3434" lon="5.83845">
        <ele>607</ele>
        <time>2019-04-09T11:10:02Z</time>
      </trkpt>
      <trkpt lat="44.34344" lon="5.8385">
        <ele>607</ele>
        <time>2019-04-09T11:10:03Z</time>
      </trkpt>
      <trkpt lat="44.34348" lon="5.83856">
        <ele>607</ele>
        <time>2019-04-09T11:10:04Z</time>
      </trkpt>
      <trkpt lat="44.34352" lon="5.83861">
        <ele>607</ele>
        <time>2019-04-09T11:10:05Z</time>
      </trkpt>
      <trkpt lat="44.34356" lon="5.83866">
        <ele>607</ele>
        <time>2019-04-09T11:10:06Z</time>
      </trkpt>
      <trkpt lat="44.3436" lon="5.83871">
        <ele>608</ele>
        <time>2019-04-09T11:10:07Z</time>
      </trkpt>
      <trkpt lat="44.34364" lon="5.83876">
        <ele>608</ele>
        <time>2019-04-09T11:10:08Z</time>
      </trkpt>
      <trkpt lat="44.34368" lon="5.83882">
        <ele>608</ele>
        <time>2019-04-09T11:10:09Z</time>
      </trkpt>
      <trkpt lat="44.34372" lon="5.83886">
        <ele>608</ele>
        <time>2019-04-09T11:10:10Z</time>
      </trkpt>
      <trkpt lat="44.34377" lon="5.83891">
        <ele>608</ele>
        <time>2019-04-09T11:10:11Z</time>
      </trkpt>
      <trkpt lat="44.34381" lon="5.83896">
        <ele>609</ele>
        <time>2019-04-09T11:10:12Z</time>
      </trkpt>
      <trkpt lat="44.34385" lon="5.83901">
        <ele>609</ele>
        <time>2019-04-09T11:10:13Z</time>
      </trkpt>
      <trkpt lat="44.34389" lon="5.83907">
        <ele>609</ele>
        <time>2019-04-09T11:10:14Z</time>
      </trkpt>
      <trkpt lat="44.34393" lon="5.83912">
        <ele>609</ele>
        <time>2019-04-09T11:10:15Z</time>
      </trkpt>
      <trkpt lat="44.34397" lon="5.83917">
        <ele>610</ele>
        <time>2019-04-09T11:10:16Z</time>
      </trkpt>
      <trkpt lat="44.34401" lon="5.83922">
        <ele>610</ele>
        <time>2019-04-09T11:10:17Z</time>
      </trkpt>
      <trkpt lat="44.34405" lon="5.83928">
        <ele>610</ele>
        <time>2019-04-09T11:10:18Z</time>
      </trkpt>
      <trkpt lat="44.34409" lon="5.83933">
        <ele>610</ele>
        <time>2019-04-09T11:10:19Z</time>
      </trkpt>
      <trkpt lat="44.34413" lon="5.83938">
        <ele>610</ele>
        <time>2019-04-09T11:10:20Z</time>
      </trkpt>
      <trkpt lat="44.34417" lon="5.83944">
        <ele>610</ele>
        <time>2019-04-09T11:10:21Z</time>
      </trkpt>
      <trkpt lat="44.34421" lon="5.83949">
        <ele>610</ele>
        <time>2019-04-09T11:10:22Z</time>
      </trkpt>
      <trkpt lat="44.34425" lon="5.83954">
        <ele>610</ele>
        <time>2019-04-09T11:10:23Z</time>
      </trkpt>
      <trkpt lat="44.3443" lon="5.83959">
        <ele>610</ele>
        <time>2019-04-09T11:10:24Z</time>
      </trkpt>
      <trkpt lat="44.34434" lon="5.83964">
        <ele>610</ele>
        <time>2019-04-09T11:10:25Z</time>
      </trkpt>
      <trkpt lat="44.34438" lon="5.8397">
        <ele>610</ele>
        <time>2019-04-09T11:10:26Z</time>
      </trkpt>
      <trkpt lat="44.34442" lon="5.83975">
        <ele>610</ele>
        <time>2019-04-09T11:10:27Z</time>
      </trkpt>
      <trkpt lat="44.34447" lon="5.8398">
        <ele>610</ele>
        <time>2019-04-09T11:10:28Z</time>
      </trkpt>
      <trkpt lat="44.34451" lon="5.83986">
        <ele>610</ele>
        <time>2019-04-09T11:10:29Z</time>
      </trkpt>
      <trkpt lat="44.34455" lon="5.83991">
        <ele>610</ele>
        <time>2019-04-09T11:10:30Z</time>
      </trkpt>
      <trkpt lat="44.34459" lon="5.83997">
        <ele>610</ele>
        <time>2019-04-09T11:10:31Z</time>
      </trkpt>
      <trkpt lat="44.34463" lon="5.84002">
        <ele>610</ele>
        <time>2019-04-09T11:10:32Z</time>
      </trkpt>
      <trkpt lat="44.34468" lon="5.84008">
        <ele>610</ele>
        <time>2019-04-09T11:10:33Z</time>
      </trkpt>
      <trkpt lat="44.34472" lon="5.84013">
        <ele>610</ele>
        <time>2019-04-09T11:10:34Z</time>
      </trkpt>
      <trkpt lat="44.34476" lon="5.84019">
        <ele>610</ele>
        <time>2019-04-09T11:10:35Z</time>
      </trkpt>
      <trkpt lat="44.3448" lon="5.84024">
        <ele>610</ele>
        <time>2019-04-09T11:10:36Z</time>
      </trkpt>
      <trkpt lat="44.34484" lon="5.84029">
        <ele>610</ele>
        <time>2019-04-09T11:10:37Z</time>
      </trkpt>
      <trkpt lat="44.34489" lon="5.84035">
        <ele>610</ele>
        <time>2019-04-09T11:10:38Z</time>
      </trkpt>
      <trkpt lat="44.34493" lon="5.84041">
        <ele>610</ele>
        <time>2019-04-09T11:10:39Z</time>
      </trkpt>
      <trkpt lat="44.34496" lon="5.84047">
        <ele>610</ele>
        <time>2019-04-09T11:10:40Z</time>
      </trkpt>
      <trkpt lat="44.34501" lon="5.84052">
        <ele>610</ele>
        <time>2019-04-09T11:10:41Z</time>
      </trkpt>
      <trkpt lat="44.34505" lon="5.84058">
        <ele>610</ele>
        <time>2019-04-09T11:10:42Z</time>
      </trkpt>
      <trkpt lat="44.3451" lon="5.84063">
        <ele>610</ele>
        <time>2019-04-09T11:10:43Z</time>
      </trkpt>
      <trkpt lat="44.34515" lon="5.84069">
        <ele>610</ele>
        <time>2019-04-09T11:10:44Z</time>
      </trkpt>
      <trkpt lat="44.34519" lon="5.84075">
        <ele>610</ele>
        <time>2019-04-09T11:10:45Z</time>
      </trkpt>
      <trkpt lat="44.34523" lon="5.84081">
        <ele>610</ele>
        <time>2019-04-09T11:10:46Z</time>
      </trkpt>
      <trkpt lat="44.34527" lon="5.84087">
        <ele>610</ele>
        <time>2019-04-09T11:10:47Z</time>
      </trkpt>
      <trkpt lat="44.34531" lon="5.84092">
        <ele>610</ele>
        <time>2019-04-09T11:10:48Z</time>
      </trkpt>
      <trkpt lat="44.34536" lon="5.84097">
        <ele>610</ele>
        <time>2019-04-09T11:10:49Z</time>
      </trkpt>
      <trkpt lat="44.34541" lon="5.84102">
        <ele>610</ele>
        <time>2019-04-09T11:10:50Z</time>
      </trkpt>
      <trkpt lat="44.34546" lon="5.84108">
        <ele>610</ele>
        <time>2019-04-09T11:10:51Z</time>
      </trkpt>
      <trkpt lat="44.34551" lon="5.84113">
        <ele>610</ele>
        <time>2019-04-09T11:10:52Z</time>
      </trkpt>
      <trkpt lat="44.34555" lon="5.84119">
        <ele>610</ele>
        <time>2019-04-09T11:10:53Z</time>
      </trkpt>
      <trkpt lat="44.3456" lon="5.84125">
        <ele>610</ele>
        <time>2019-04-09T11:10:54Z</time>
      </trkpt>
      <trkpt lat="44.34564" lon="5.84131">
        <ele>610</ele>
        <time>2019-04-09T11:10:55Z</time>
      </trkpt>
      <trkpt lat="44.34569" lon="5.84137">
        <ele>611</ele>
        <time>2019-04-09T11:10:56Z</time>
      </trkpt>
      <trkpt lat="44.34573" lon="5.84143">
        <ele>611</ele>
        <time>2019-04-09T11:10:57Z</time>
      </trkpt>
      <trkpt lat="44.34578" lon="5.8415">
        <ele>611</ele>
        <time>2019-04-09T11:10:58Z</time>
      </trkpt>
      <trkpt lat="44.34582" lon="5.84156">
        <ele>611</ele>
        <time>2019-04-09T11:10:59Z</time>
      </trkpt>
      <trkpt lat="44.34586" lon="5.84163">
        <ele>611</ele>
        <time>2019-04-09T11:11:00Z</time>
      </trkpt>
      <trkpt lat="44.3459" lon="5.84168">
        <ele>611</ele>
        <time>2019-04-09T11:11:01Z</time>
      </trkpt>
      <trkpt lat="44.34594" lon="5.84175">
        <ele>611</ele>
        <time>2019-04-09T11:11:02Z</time>
      </trkpt>
      <trkpt lat="44.34597" lon="5.84182">
        <ele>611</ele>
        <time>2019-04-09T11:11:03Z</time>
      </trkpt>
      <trkpt lat="44.346" lon="5.84189">
        <ele>611</ele>
        <time>2019-04-09T11:11:04Z</time>
      </trkpt>
      <trkpt lat="44.34603" lon="5.84195">
        <ele>611</ele>
        <time>2019-04-09T11:11:05Z</time>
      </trkpt>
      <trkpt lat="44.34605" lon="5.84202">
        <ele>611</ele>
        <time>2019-04-09T11:11:06Z</time>
      </trkpt>
      <trkpt lat="44.34608" lon="5.84209">
        <ele>611</ele>
        <time>2019-04-09T11:11:07Z</time>
      </trkpt>
      <trkpt lat="44.3461" lon="5.84217">
        <ele>611</ele>
        <time>2019-04-09T11:11:08Z</time>
      </trkpt>
      <trkpt lat="44.34613" lon="5.84224">
        <ele>611</ele>
        <time>2019-04-09T11:11:09Z</time>
      </trkpt>
      <trkpt lat="44.34615" lon="5.84231">
        <ele>611</ele>
        <time>2019-04-09T11:11:10Z</time>
      </trkpt>
      <trkpt lat="44.34616" lon="5.84239">
        <ele>611</ele>
        <time>2019-04-09T11:11:11Z</time>
      </trkpt>
      <trkpt lat="44.34618" lon="5.84246">
        <ele>611</ele>
        <time>2019-04-09T11:11:12Z</time>
      </trkpt>
      <trkpt lat="44.3462" lon="5.84254">
        <ele>611</ele>
        <time>2019-04-09T11:11:13Z</time>
      </trkpt>
      <trkpt lat="44.34621" lon="5.84261">
        <ele>611</ele>
        <time>2019-04-09T11:11:14Z</time>
      </trkpt>
      <trkpt lat="44.34623" lon="5.84269">
        <ele>611</ele>
        <time>2019-04-09T11:11:15Z</time>
      </trkpt>
      <trkpt lat="44.34624" lon="5.84276">
        <ele>611</ele>
        <time>2019-04-09T11:11:16Z</time>
      </trkpt>
      <trkpt lat="44.34626" lon="5.84284">
        <ele>611</ele>
        <time>2019-04-09T11:11:17Z</time>
      </trkpt>
      <trkpt lat="44.34628" lon="5.84291">
        <ele>611</ele>
        <time>2019-04-09T11:11:18Z</time>
      </trkpt>
      <trkpt lat="44.34629" lon="5.84299">
        <ele>611</ele>
        <time>2019-04-09T11:11:19Z</time>
      </trkpt>
      <trkpt lat="44.3463" lon="5.84306">
        <ele>611</ele>
        <time>2019-04-09T11:11:20Z</time>
      </trkpt>
      <trkpt lat="44.34631" lon="5.84314">
        <ele>611</ele>
        <time>2019-04-09T11:11:21Z</time>
      </trkpt>
      <trkpt lat="44.34633" lon="5.84321">
        <ele>611</ele>
        <time>2019-04-09T11:11:22Z</time>
      </trkpt>
      <trkpt lat="44.34634" lon="5.84329">
        <ele>611</ele>
        <time>2019-04-09T11:11:23Z</time>
      </trkpt>
      <trkpt lat="44.34637" lon="5.84336">
        <ele>611</ele>
        <time>2019-04-09T11:11:24Z</time>
      </trkpt>
      <trkpt lat="44.34639" lon="5.84342">
        <ele>611</ele>
        <time>2019-04-09T11:11:25Z</time>
      </trkpt>
      <trkpt lat="44.34641" lon="5.84349">
        <ele>612</ele>
        <time>2019-04-09T11:11:26Z</time>
      </trkpt>
      <trkpt lat="44.34643" lon="5.84356">
        <ele>612</ele>
        <time>2019-04-09T11:11:27Z</time>
      </trkpt>
      <trkpt lat="44.34645" lon="5.84363">
        <ele>612</ele>
        <time>2019-04-09T11:11:28Z</time>
      </trkpt>
      <trkpt lat="44.34647" lon="5.8437">
        <ele>612</ele>
        <time>2019-04-09T11:11:29Z</time>
      </trkpt>
      <trkpt lat="44.3465" lon="5.84376">
        <ele>613</ele>
        <time>2019-04-09T11:11:30Z</time>
      </trkpt>
      <trkpt lat="44.34653" lon="5.84382">
        <ele>613</ele>
        <time>2019-04-09T11:11:31Z</time>
      </trkpt>
      <trkpt lat="44.34656" lon="5.84388">
        <ele>613</ele>
        <time>2019-04-09T11:11:32Z</time>
      </trkpt>
      <trkpt lat="44.3466" lon="5.84395">
        <ele>613</ele>
        <time>2019-04-09T11:11:33Z</time>
      </trkpt>
      <trkpt lat="44.34663" lon="5.84401">
        <ele>613</ele>
        <time>2019-04-09T11:11:34Z</time>
      </trkpt>
      <trkpt lat="44.34666" lon="5.84407">
        <ele>614</ele>
        <time>2019-04-09T11:11:35Z</time>
      </trkpt>
      <trkpt lat="44.34669" lon="5.84412">
        <ele>614</ele>
        <time>2019-04-09T11:11:36Z</time>
      </trkpt>
      <trkpt lat="44.34673" lon="5.84418">
        <ele>614</ele>
        <time>2019-04-09T11:11:37Z</time>
      </trkpt>
      <trkpt lat="44.34676" lon="5.84424">
        <ele>614</ele>
        <time>2019-04-09T11:11:38Z</time>
      </trkpt>
      <trkpt lat="44.3468" lon="5.84429">
        <ele>615</ele>
        <time>2019-04-09T11:11:39Z</time>
      </trkpt>
      <trkpt lat="44.34684" lon="5.84435">
        <ele>615</ele>
        <time>2019-04-09T11:11:40Z</time>
      </trkpt>
      <trkpt lat="44.34688" lon="5.84439">
        <ele>615</ele>
        <time>2019-04-09T11:11:41Z</time>
      </trkpt>
      <trkpt lat="44.34692" lon="5.84444">
        <ele>616</ele>
        <time>2019-04-09T11:11:42Z</time>
      </trkpt>
      <trkpt lat="44.34695" lon="5.84449">
        <ele>616</ele>
        <time>2019-04-09T11:11:43Z</time>
      </trkpt>
      <trkpt lat="44.347" lon="5.84454">
        <ele>616</ele>
        <time>2019-04-09T11:11:44Z</time>
      </trkpt>
      <trkpt lat="44.34704" lon="5.84459">
        <ele>616</ele>
        <time>2019-04-09T11:11:45Z</time>
      </trkpt>
      <trkpt lat="44.34708" lon="5.84464">
        <ele>617</ele>
        <time>2019-04-09T11:11:46Z</time>
      </trkpt>
      <trkpt lat="44.34712" lon="5.84468">
        <ele>617</ele>
        <time>2019-04-09T11:11:47Z</time>
      </trkpt>
      <trkpt lat="44.34716" lon="5.84473">
        <ele>617</ele>
        <time>2019-04-09T11:11:48Z</time>
      </trkpt>
      <trkpt lat="44.3472" lon="5.84478">
        <ele>617</ele>
        <time>2019-04-09T11:11:49Z</time>
      </trkpt>
      <trkpt lat="44.34725" lon="5.84483">
        <ele>617</ele>
        <time>2019-04-09T11:11:50Z</time>
      </trkpt>
      <trkpt lat="44.34729" lon="5.84488">
        <ele>617</ele>
        <time>2019-04-09T11:11:51Z</time>
      </trkpt>
      <trkpt lat="44.34734" lon="5.84493">
        <ele>617</ele>
        <time>2019-04-09T11:11:52Z</time>
      </trkpt>
      <trkpt lat="44.34738" lon="5.84499">
        <ele>617</ele>
        <time>2019-04-09T11:11:53Z</time>
      </trkpt>
      <trkpt lat="44.34742" lon="5.84504">
        <ele>618</ele>
        <time>2019-04-09T11:11:54Z</time>
      </trkpt>
      <trkpt lat="44.34747" lon="5.84509">
        <ele>618</ele>
        <time>2019-04-09T11:11:55Z</time>
      </trkpt>
      <trkpt lat="44.34751" lon="5.84514">
        <ele>618</ele>
        <time>2019-04-09T11:11:56Z</time>
      </trkpt>
      <trkpt lat="44.34755" lon="5.84519">
        <ele>618</ele>
        <time>2019-04-09T11:11:57Z</time>
      </trkpt>
      <trkpt lat="44.3476" lon="5.84524">
        <ele>618</ele>
        <time>2019-04-09T11:11:58Z</time>
      </trkpt>
      <trkpt lat="44.34764" lon="5.84529">
        <ele>618</ele>
        <time>2019-04-09T11:11:59Z</time>
      </trkpt>
      <trkpt lat="44.34769" lon="5.84534">
        <ele>618</ele>
        <time>2019-04-09T11:12:00Z</time>
      </trkpt>
      <trkpt lat="44.34774" lon="5.84539">
        <ele>619</ele>
        <time>2019-04-09T11:12:01Z</time>
      </trkpt>
      <trkpt lat="44.34778" lon="5.84545">
        <ele>619</ele>
        <time>2019-04-09T11:12:02Z</time>
      </trkpt>
      <trkpt lat="44.34782" lon="5.8455">
        <ele>619</ele>
        <time>2019-04-09T11:12:03Z</time>
      </trkpt>
      <trkpt lat="44.34787" lon="5.84555">
        <ele>619</ele>
        <time>2019-04-09T11:12:04Z</time>
      </trkpt>
      <trkpt lat="44.34791" lon="5.8456">
        <ele>619</ele>
        <time>2019-04-09T11:12:05Z</time>
      </trkpt>
      <trkpt lat="44.34795" lon="5.84565">
        <ele>619</ele>
        <time>2019-04-09T11:12:06Z</time>
      </trkpt>
      <trkpt lat="44.348" lon="5.84571">
        <ele>619</ele>
        <time>2019-04-09T11:12:07Z</time>
      </trkpt>
      <trkpt lat="44.34804" lon="5.84576">
        <ele>620</ele>
        <time>2019-04-09T11:12:08Z</time>
      </trkpt>
      <trkpt lat="44.34808" lon="5.84581">
        <ele>620</ele>
        <time>2019-04-09T11:12:09Z</time>
      </trkpt>
      <trkpt lat="44.34813" lon="5.84586">
        <ele>620</ele>
        <time>2019-04-09T11:12:10Z</time>
      </trkpt>
      <trkpt lat="44.34817" lon="5.84592">
        <ele>620</ele>
        <time>2019-04-09T11:12:11Z</time>
      </trkpt>
      <trkpt lat="44.34822" lon="5.84597">
        <ele>620</ele>
        <time>2019-04-09T11:12:12Z</time>
      </trkpt>
      <trkpt lat="44.34826" lon="5.84603">
        <ele>620</ele>
        <time>2019-04-09T11:12:13Z</time>
      </trkpt>
      <trkpt lat="44.3483" lon="5.84609">
        <ele>620</ele>
        <time>2019-04-09T11:12:14Z</time>
      </trkpt>
      <trkpt lat="44.34834" lon="5.84614">
        <ele>620</ele>
        <time>2019-04-09T11:12:15Z</time>
      </trkpt>
      <trkpt lat="44.34838" lon="5.8462">
        <ele>620</ele>
        <time>2019-04-09T11:12:16Z</time>
      </trkpt>
      <trkpt lat="44.34843" lon="5.84626">
        <ele>620</ele>
        <time>2019-04-09T11:12:17Z</time>
      </trkpt>
      <trkpt lat="44.34847" lon="5.84632">
        <ele>620</ele>
        <time>2019-04-09T11:12:18Z</time>
      </trkpt>
      <trkpt lat="44.34851" lon="5.84639">
        <ele>621</ele>
        <time>2019-04-09T11:12:19Z</time>
      </trkpt>
      <trkpt lat="44.34854" lon="5.84645">
        <ele>621</ele>
        <time>2019-04-09T11:12:20Z</time>
      </trkpt>
      <trkpt lat="44.34858" lon="5.84651">
        <ele>621</ele>
        <time>2019-04-09T11:12:21Z</time>
      </trkpt>
      <trkpt lat="44.34862" lon="5.84658">
        <ele>621</ele>
        <time>2019-04-09T11:12:22Z</time>
      </trkpt>
      <trkpt lat="44.34866" lon="5.84665">
        <ele>621</ele>
        <time>2019-04-09T11:12:23Z</time>
      </trkpt>
      <trkpt lat="44.34869" lon="5.84671">
        <ele>621</ele>
        <time>2019-04-09T11:12:24Z</time>
      </trkpt>
      <trkpt lat="44.34873" lon="5.84678">
        <ele>621</ele>
        <time>2019-04-09T11:12:25Z</time>
      </trkpt>
      <trkpt lat="44.34876" lon="5.84684">
        <ele>621</ele>
        <time>2019-04-09T11:12:26Z</time>
      </trkpt>
      <trkpt lat="44.3488" lon="5.84691">
        <ele>621</ele>
        <time>2019-04-09T11:12:27Z</time>
      </trkpt>
      <trkpt lat="44.34884" lon="5.84696">
        <ele>621</ele>
        <time>2019-04-09T11:12:28Z</time>
      </trkpt>
      <trkpt lat="44.34888" lon="5.84703">
        <ele>621</ele>
        <time>2019-04-09T11:12:29Z</time>
      </trkpt>
      <trkpt lat="44.34892" lon="5.84709">
        <ele>621</ele>
        <time>2019-04-09T11:12:30Z</time>
      </trkpt>
      <trkpt lat="44.34896" lon="5.84716">
        <ele>621</ele>
        <time>2019-04-09T11:12:31Z</time>
      </trkpt>
      <trkpt lat="44.349" lon="5.84722">
        <ele>622</ele>
        <time>2019-04-09T11:12:32Z</time>
      </trkpt>
      <trkpt lat="44.34904" lon="5.84727">
        <ele>622</ele>
        <time>2019-04-09T11:12:33Z</time>
      </trkpt>
      <trkpt lat="44.34909" lon="5.84732">
        <ele>622</ele>
        <time>2019-04-09T11:12:34Z</time>
      </trkpt>
      <trkpt lat="44.34913" lon="5.84737">
        <ele>622</ele>
        <time>2019-04-09T11:12:35Z</time>
      </trkpt>
      <trkpt lat="44.34918" lon="5.84742">
        <ele>622</ele>
        <time>2019-04-09T11:12:36Z</time>
      </trkpt>
      <trkpt lat="44.34922" lon="5.84747">
        <ele>622</ele>
        <time>2019-04-09T11:12:37Z</time>
      </trkpt>
      <trkpt lat="44.34927" lon="5.84752">
        <ele>623</ele>
        <time>2019-04-09T11:12:38Z</time>
      </trkpt>
      <trkpt lat="44.34932" lon="5.84756">
        <ele>623</ele>
        <time>2019-04-09T11:12:39Z</time>
      </trkpt>
      <trkpt lat="44.34938" lon="5.84761">
        <ele>623</ele>
        <time>2019-04-09T11:12:40Z</time>
      </trkpt>
      <trkpt lat="44.34944" lon="5.84764">
        <ele>623</ele>
        <time>2019-04-09T11:12:41Z</time>
      </trkpt>
      <trkpt lat="44.34949" lon="5.84768">
        <ele>623</ele>
        <time>2019-04-09T11:12:42Z</time>
      </trkpt>
      <trkpt lat="44.34955" lon="5.84773">
        <ele>623</ele>
        <time>2019-04-09T11:12:43Z</time>
      </trkpt>
      <trkpt lat="44.3496" lon="5.84777">
        <ele>623</ele>
        <time>2019-04-09T11:12:44Z</time>
      </trkpt>
      <trkpt lat="44.34965" lon="5.84781">
        <ele>624</ele>
        <time>2019-04-09T11:12:45Z</time>
      </trkpt>
      <trkpt lat="44.3497" lon="5.84785">
        <ele>624</ele>
        <time>2019-04-09T11:12:46Z</time>
      </trkpt>
      <trkpt lat="44.34975" lon="5.8479">
        <ele>624</ele>
        <time>2019-04-09T11:12:47Z</time>
      </trkpt>
      <trkpt lat="44.34981" lon="5.84794">
        <ele>624</ele>
        <time>2019-04-09T11:12:48Z</time>
      </trkpt>
      <trkpt lat="44.34986" lon="5.84798">
        <ele>625</ele>
        <time>2019-04-09T11:12:49Z</time>
      </trkpt>
      <trkpt lat="44.34991" lon="5.84802">
        <ele>625</ele>
        <time>2019-04-09T11:12:50Z</time>
      </trkpt>
      <trkpt lat="44.34996" lon="5.84807">
        <ele>625</ele>
        <time>2019-04-09T11:12:51Z</time>
      </trkpt>
      <trkpt lat="44.35001" lon="5.84811">
        <ele>625</ele>
        <time>2019-04-09T11:12:52Z</time>
      </trkpt>
      <trkpt lat="44.35006" lon="5.84816">
        <ele>625</ele>
        <time>2019-04-09T11:12:53Z</time>
      </trkpt>
      <trkpt lat="44.35011" lon="5.84821">
        <ele>625</ele>
        <time>2019-04-09T11:12:54Z</time>
      </trkpt>
      <trkpt lat="44.35016" lon="5.84826">
        <ele>625</ele>
        <time>2019-04-09T11:12:55Z</time>
      </trkpt>
      <trkpt lat="44.3502" lon="5.8483">
        <ele>626</ele>
        <time>2019-04-09T11:12:56Z</time>
      </trkpt>
      <trkpt lat="44.35025" lon="5.84835">
        <ele>626</ele>
        <time>2019-04-09T11:12:57Z</time>
      </trkpt>
      <trkpt lat="44.3503" lon="5.8484">
        <ele>626</ele>
        <time>2019-04-09T11:12:58Z</time>
      </trkpt>
      <trkpt lat="44.35034" lon="5.84845">
        <ele>626</ele>
        <time>2019-04-09T11:12:59Z</time>
      </trkpt>
      <trkpt lat="44.35038" lon="5.8485">
        <ele>626</ele>
        <time>2019-04-09T11:13:00Z</time>
      </trkpt>
      <trkpt lat="44.35043" lon="5.84856">
        <ele>626</ele>
        <time>2019-04-09T11:13:01Z</time>
      </trkpt>
      <trkpt lat="44.35047" lon="5.84861">
        <ele>626</ele>
        <time>2019-04-09T11:13:02Z</time>
      </trkpt>
      <trkpt lat="44.35051" lon="5.84867">
        <ele>626</ele>
        <time>2019-04-09T11:13:03Z</time>
      </trkpt>
      <trkpt lat="44.35055" lon="5.84872">
        <ele>626</ele>
        <time>2019-04-09T11:13:04Z</time>
      </trkpt>
      <trkpt lat="44.35059" lon="5.84878">
        <ele>626</ele>
        <time>2019-04-09T11:13:05Z</time>
      </trkpt>
      <trkpt lat="44.35063" lon="5.84883">
        <ele>626</ele>
        <time>2019-04-09T11:13:06Z</time>
      </trkpt>
      <trkpt lat="44.35067" lon="5.84889">
        <ele>626</ele>
        <time>2019-04-09T11:13:07Z</time>
      </trkpt>
      <trkpt lat="44.3507" lon="5.84895">
        <ele>626</ele>
        <time>2019-04-09T11:13:08Z</time>
      </trkpt>
      <trkpt lat="44.35074" lon="5.84901">
        <ele>626</ele>
        <time>2019-04-09T11:13:09Z</time>
      </trkpt>
      <trkpt lat="44.35078" lon="5.84907">
        <ele>626</ele>
        <time>2019-04-09T11:13:10Z</time>
      </trkpt>
      <trkpt lat="44.35081" lon="5.84913">
        <ele>627</ele>
        <time>2019-04-09T11:13:11Z</time>
      </trkpt>
      <trkpt lat="44.35085" lon="5.8492">
        <ele>627</ele>
        <time>2019-04-09T11:13:12Z</time>
      </trkpt>
      <trkpt lat="44.35088" lon="5.84926">
        <ele>627</ele>
        <time>2019-04-09T11:13:13Z</time>
      </trkpt>
      <trkpt lat="44.35091" lon="5.84933">
        <ele>627</ele>
        <time>2019-04-09T11:13:14Z</time>
      </trkpt>
      <trkpt lat="44.35095" lon="5.84939">
        <ele>627</ele>
        <time>2019-04-09T11:13:15Z</time>
      </trkpt>
      <trkpt lat="44.35098" lon="5.84946">
        <ele>627</ele>
        <time>2019-04-09T11:13:16Z</time>
      </trkpt>
      <trkpt lat="44.351" lon="5.84952">
        <ele>627</ele>
        <time>2019-04-09T11:13:17Z</time>
      </trkpt>
      <trkpt lat="44.35104" lon="5.84959">
        <ele>627</ele>
        <time>2019-04-09T11:13:18Z</time>
      </trkpt>
      <trkpt lat="44.35107" lon="5.84966">
        <ele>627</ele>
        <time>2019-04-09T11:13:19Z</time>
      </trkpt>
      <trkpt lat="44.35109" lon="5.84972">
        <ele>627</ele>
        <time>2019-04-09T11:13:20Z</time>
      </trkpt>
      <trkpt lat="44.35112" lon="5.84979">
        <ele>627</ele>
        <time>2019-04-09T11:13:21Z</time>
      </trkpt>
      <trkpt lat="44.35114" lon="5.84985">
        <ele>628</ele>
        <time>2019-04-09T11:13:22Z</time>
      </trkpt>
      <trkpt lat="44.35117" lon="5.84992">
        <ele>628</ele>
        <time>2019-04-09T11:13:23Z</time>
      </trkpt>
      <trkpt lat="44.3512" lon="5.84999">
        <ele>628</ele>
        <time>2019-04-09T11:13:24Z</time>
      </trkpt>
      <trkpt lat="44.35122" lon="5.85006">
        <ele>628</ele>
        <time>2019-04-09T11:13:25Z</time>
      </trkpt>
      <trkpt lat="44.35125" lon="5.85012">
        <ele>628</ele>
        <time>2019-04-09T11:13:26Z</time>
      </trkpt>
      <trkpt lat="44.35127" lon="5.85019">
        <ele>628</ele>
        <time>2019-04-09T11:13:27Z</time>
      </trkpt>
      <trkpt lat="44.35131" lon="5.85025">
        <ele>628</ele>
        <time>2019-04-09T11:13:28Z</time>
      </trkpt>
      <trkpt lat="44.35134" lon="5.85032">
        <ele>628</ele>
        <time>2019-04-09T11:13:29Z</time>
      </trkpt>
      <trkpt lat="44.35137" lon="5.85038">
        <ele>628</ele>
        <time>2019-04-09T11:13:30Z</time>
      </trkpt>
      <trkpt lat="44.35141" lon="5.85044">
        <ele>628</ele>
        <time>2019-04-09T11:13:31Z</time>
      </trkpt>
      <trkpt lat="44.35144" lon="5.85051">
        <ele>628</ele>
        <time>2019-04-09T11:13:32Z</time>
      </trkpt>
      <trkpt lat="44.35148" lon="5.85056">
        <ele>628</ele>
        <time>2019-04-09T11:13:33Z</time>
      </trkpt>
      <trkpt lat="44.35152" lon="5.85062">
        <ele>629</ele>
        <time>2019-04-09T11:13:34Z</time>
      </trkpt>
      <trkpt lat="44.35156" lon="5.85068">
        <ele>629</ele>
        <time>2019-04-09T11:13:35Z</time>
      </trkpt>
      <trkpt lat="44.3516" lon="5.85073">
        <ele>629</ele>
        <time>2019-04-09T11:13:36Z</time>
      </trkpt>
      <trkpt lat="44.35164" lon="5.85078">
        <ele>629</ele>
        <time>2019-04-09T11:13:37Z</time>
      </trkpt>
      <trkpt lat="44.35168" lon="5.85083">
        <ele>629</ele>
        <time>2019-04-09T11:13:38Z</time>
      </trkpt>
      <trkpt lat="44.35173" lon="5.85088">
        <ele>629</ele>
        <time>2019-04-09T11:13:39Z</time>
      </trkpt>
      <trkpt lat="44.35177" lon="5.85093">
        <ele>630</ele>
        <time>2019-04-09T11:13:40Z</time>
      </trkpt>
      <trkpt lat="44.35182" lon="5.85098">
        <ele>630</ele>
        <time>2019-04-09T11:13:41Z</time>
      </trkpt>
      <trkpt lat="44.35186" lon="5.85104">
        <ele>630</ele>
        <time>2019-04-09T11:13:42Z</time>
      </trkpt>
      <trkpt lat="44.3519" lon="5.85109">
        <ele>630</ele>
        <time>2019-04-09T11:13:43Z</time>
      </trkpt>
      <trkpt lat="44.35195" lon="5.85114">
        <ele>630</ele>
        <time>2019-04-09T11:13:44Z</time>
      </trkpt>
      <trkpt lat="44.352" lon="5.8512">
        <ele>630</ele>
        <time>2019-04-09T11:13:45Z</time>
      </trkpt>
      <trkpt lat="44.35204" lon="5.85125">
        <ele>630</ele>
        <time>2019-04-09T11:13:46Z</time>
      </trkpt>
      <trkpt lat="44.35209" lon="5.85131">
        <ele>630</ele>
        <time>2019-04-09T11:13:47Z</time>
      </trkpt>
      <trkpt lat="44.35213" lon="5.85137">
        <ele>630</ele>
        <time>2019-04-09T11:13:48Z</time>
      </trkpt>
      <trkpt lat="44.35217" lon="5.85143">
        <ele>630</ele>
        <time>2019-04-09T11:13:49Z</time>
      </trkpt>
      <trkpt lat="44.35221" lon="5.85149">
        <ele>630</ele>
        <time>2019-04-09T11:13:50Z</time>
      </trkpt>
      <trkpt lat="44.35224" lon="5.85155">
        <ele>630</ele>
        <time>2019-04-09T11:13:51Z</time>
      </trkpt>
      <trkpt lat="44.35227" lon="5.85162">
        <ele>630</ele>
        <time>2019-04-09T11:13:52Z</time>
      </trkpt>
      <trkpt lat="44.3523" lon="5.85169">
        <ele>630</ele>
        <time>2019-04-09T11:13:53Z</time>
      </trkpt>
      <trkpt lat="44.35232" lon="5.85175">
        <ele>630</ele>
        <time>2019-04-09T11:13:54Z</time>
      </trkpt>
      <trkpt lat="44.35234" lon="5.85183">
        <ele>630</ele>
        <time>2019-04-09T11:13:55Z</time>
      </trkpt>
      <trkpt lat="44.35237" lon="5.85189">
        <ele>630</ele>
        <time>2019-04-09T11:13:56Z</time>
      </trkpt>
      <trkpt lat="44.35239" lon="5.85196">
        <ele>630</ele>
        <time>2019-04-09T11:13:57Z</time>
      </trkpt>
      <trkpt lat="44.35241" lon="5.85204">
        <ele>630</ele>
        <time>2019-04-09T11:13:58Z</time>
      </trkpt>
      <trkpt lat="44.35243" lon="5.8521">
        <ele>631</ele>
        <time>2019-04-09T11:13:59Z</time>
      </trkpt>
      <trkpt lat="44.35245" lon="5.85217">
        <ele>631</ele>
        <time>2019-04-09T11:14:00Z</time>
      </trkpt>
      <trkpt lat="44.35247" lon="5.85224">
        <ele>631</ele>
        <time>2019-04-09T11:14:01Z</time>
      </trkpt>
      <trkpt lat="44.3525" lon="5.85231">
        <ele>631</ele>
        <time>2019-04-09T11:14:02Z</time>
      </trkpt>
      <trkpt lat="44.35252" lon="5.85238">
        <ele>632</ele>
        <time>2019-04-09T11:14:03Z</time>
      </trkpt>
      <trkpt lat="44.35254" lon="5.85244">
        <ele>632</ele>
        <time>2019-04-09T11:14:04Z</time>
      </trkpt>
      <trkpt lat="44.35256" lon="5.85251">
        <ele>632</ele>
        <time>2019-04-09T11:14:05Z</time>
      </trkpt>
      <trkpt lat="44.35258" lon="5.85258">
        <ele>632</ele>
        <time>2019-04-09T11:14:06Z</time>
      </trkpt>
      <trkpt lat="44.3526" lon="5.85265">
        <ele>633</ele>
        <time>2019-04-09T11:14:07Z</time>
      </trkpt>
      <trkpt lat="44.35262" lon="5.85271">
        <ele>633</ele>
        <time>2019-04-09T11:14:08Z</time>
      </trkpt>
      <trkpt lat="44.35264" lon="5.85278">
        <ele>633</ele>
        <time>2019-04-09T11:14:09Z</time>
      </trkpt>
      <trkpt lat="44.35266" lon="5.85285">
        <ele>633</ele>
        <time>2019-04-09T11:14:10Z</time>
      </trkpt>
      <trkpt lat="44.35268" lon="5.85291">
        <ele>633</ele>
        <time>2019-04-09T11:14:11Z</time>
      </trkpt>
      <trkpt lat="44.35271" lon="5.85298">
        <ele>633</ele>
        <time>2019-04-09T11:14:12Z</time>
      </trkpt>
      <trkpt lat="44.35273" lon="5.85305">
        <ele>634</ele>
        <time>2019-04-09T11:14:13Z</time>
      </trkpt>
      <trkpt lat="44.35275" lon="5.85311">
        <ele>634</ele>
        <time>2019-04-09T11:14:14Z</time>
      </trkpt>
      <trkpt lat="44.35277" lon="5.85318">
        <ele>634</ele>
        <time>2019-04-09T11:14:15Z</time>
      </trkpt>
      <trkpt lat="44.35279" lon="5.85325">
        <ele>634</ele>
        <time>2019-04-09T11:14:16Z</time>
      </trkpt>
      <trkpt lat="44.35281" lon="5.85332">
        <ele>634</ele>
        <time>2019-04-09T11:14:17Z</time>
      </trkpt>
      <trkpt lat="44.35283" lon="5.85339">
        <ele>634</ele>
        <time>2019-04-09T11:14:18Z</time>
      </trkpt>
      <trkpt lat="44.35285" lon="5.85346">
        <ele>634</ele>
        <time>2019-04-09T11:14:19Z</time>
      </trkpt>
      <trkpt lat="44.35287" lon="5.85353">
        <ele>635</ele>
        <time>2019-04-09T11:14:20Z</time>
      </trkpt>
      <trkpt lat="44.35289" lon="5.8536">
        <ele>635</ele>
        <time>2019-04-09T11:14:21Z</time>
      </trkpt>
      <trkpt lat="44.35291" lon="5.85368">
        <ele>635</ele>
        <time>2019-04-09T11:14:22Z</time>
      </trkpt>
      <trkpt lat="44.35293" lon="5.85375">
        <ele>635</ele>
        <time>2019-04-09T11:14:23Z</time>
      </trkpt>
      <trkpt lat="44.35295" lon="5.85382">
        <ele>635</ele>
        <time>2019-04-09T11:14:24Z</time>
      </trkpt>
      <trkpt lat="44.35297" lon="5.85389">
        <ele>635</ele>
        <time>2019-04-09T11:14:25Z</time>
      </trkpt>
      <trkpt lat="44.353" lon="5.85396">
        <ele>635</ele>
        <time>2019-04-09T11:14:26Z</time>
      </trkpt>
      <trkpt lat="44.35302" lon="5.85403">
        <ele>635</ele>
        <time>2019-04-09T11:14:27Z</time>
      </trkpt>
      <trkpt lat="44.35303" lon="5.8541">
        <ele>635</ele>
        <time>2019-04-09T11:14:28Z</time>
      </trkpt>
      <trkpt lat="44.35306" lon="5.85417">
        <ele>635</ele>
        <time>2019-04-09T11:14:29Z</time>
      </trkpt>
      <trkpt lat="44.3531" lon="5.85423">
        <ele>636</ele>
        <time>2019-04-09T11:14:30Z</time>
      </trkpt>
      <trkpt lat="44.35313" lon="5.85429">
        <ele>636</ele>
        <time>2019-04-09T11:14:31Z</time>
      </trkpt>
      <trkpt lat="44.35316" lon="5.85435">
        <ele>636</ele>
        <time>2019-04-09T11:14:32Z</time>
      </trkpt>
      <trkpt lat="44.3532" lon="5.85442">
        <ele>636</ele>
        <time>2019-04-09T11:14:33Z</time>
      </trkpt>
      <trkpt lat="44.35323" lon="5.85448">
        <ele>637</ele>
        <time>2019-04-09T11:14:34Z</time>
      </trkpt>
      <trkpt lat="44.35327" lon="5.85454">
        <ele>637</ele>
        <time>2019-04-09T11:14:35Z</time>
      </trkpt>
      <trkpt lat="44.35331" lon="5.85459">
        <ele>637</ele>
        <time>2019-04-09T11:14:36Z</time>
      </trkpt>
      <trkpt lat="44.35335" lon="5.85464">
        <ele>637</ele>
        <time>2019-04-09T11:14:37Z</time>
      </trkpt>
      <trkpt lat="44.35339" lon="5.85469">
        <ele>637</ele>
        <time>2019-04-09T11:14:38Z</time>
      </trkpt>
      <trkpt lat="44.35344" lon="5.85474">
        <ele>637</ele>
        <time>2019-04-09T11:14:39Z</time>
      </trkpt>
      <trkpt lat="44.35348" lon="5.85479">
        <ele>637</ele>
        <time>2019-04-09T11:14:40Z</time>
      </trkpt>
      <trkpt lat="44.35352" lon="5.85484">
        <ele>637</ele>
        <time>2019-04-09T11:14:41Z</time>
      </trkpt>
      <trkpt lat="44.35357" lon="5.85489">
        <ele>638</ele>
        <time>2019-04-09T11:14:42Z</time>
      </trkpt>
      <trkpt lat="44.35362" lon="5.85493">
        <ele>638</ele>
        <time>2019-04-09T11:14:43Z</time>
      </trkpt>
      <trkpt lat="44.35366" lon="5.85498">
        <ele>638</ele>
        <time>2019-04-09T11:14:44Z</time>
      </trkpt>
      <trkpt lat="44.3537" lon="5.85503">
        <ele>638</ele>
        <time>2019-04-09T11:14:45Z</time>
      </trkpt>
      <trkpt lat="44.35374" lon="5.85507">
        <ele>638</ele>
        <time>2019-04-09T11:14:46Z</time>
      </trkpt>
      <trkpt lat="44.35379" lon="5.85512">
        <ele>639</ele>
        <time>2019-04-09T11:14:47Z</time>
      </trkpt>
      <trkpt lat="44.35383" lon="5.85517">
        <ele>639</ele>
        <time>2019-04-09T11:14:48Z</time>
      </trkpt>
      <trkpt lat="44.35387" lon="5.85521">
        <ele>639</ele>
        <time>2019-04-09T11:14:49Z</time>
      </trkpt>
      <trkpt lat="44.35391" lon="5.85526">
        <ele>639</ele>
        <time>2019-04-09T11:14:50Z</time>
      </trkpt>
      <trkpt lat="44.35395" lon="5.8553">
        <ele>640</ele>
        <time>2019-04-09T11:14:51Z</time>
      </trkpt>
      <trkpt lat="44.354" lon="5.85534">
        <ele>640</ele>
        <time>2019-04-09T11:14:52Z</time>
      </trkpt>
      <trkpt lat="44.35404" lon="5.85539">
        <ele>640</ele>
        <time>2019-04-09T11:14:53Z</time>
      </trkpt>
      <trkpt lat="44.35408" lon="5.85543">
        <ele>640</ele>
        <time>2019-04-09T11:14:54Z</time>
      </trkpt>
      <trkpt lat="44.35412" lon="5.85548">
        <ele>640</ele>
        <time>2019-04-09T11:14:55Z</time>
      </trkpt>
      <trkpt lat="44.35416" lon="5.85553">
        <ele>641</ele>
        <time>2019-04-09T11:14:56Z</time>
      </trkpt>
      <trkpt lat="44.35421" lon="5.85558">
        <ele>641</ele>
        <time>2019-04-09T11:14:57Z</time>
      </trkpt>
      <trkpt lat="44.35426" lon="5.85563">
        <ele>641</ele>
        <time>2019-04-09T11:14:58Z</time>
      </trkpt>
      <trkpt lat="44.3543" lon="5.85568">
        <ele>642</ele>
        <time>2019-04-09T11:14:59Z</time>
      </trkpt>
      <trkpt lat="44.35434" lon="5.85572">
        <ele>642</ele>
        <time>2019-04-09T11:15:00Z</time>
      </trkpt>
      <trkpt lat="44.35439" lon="5.85577">
        <ele>642</ele>
        <time>2019-04-09T11:15:01Z</time>
      </trkpt>
      <trkpt lat="44.35443" lon="5.85581">
        <ele>643</ele>
        <time>2019-04-09T11:15:02Z</time>
      </trkpt>
      <trkpt lat="44.35447" lon="5.85585">
        <ele>643</ele>
        <time>2019-04-09T11:15:03Z</time>
      </trkpt>
      <trkpt lat="44.35451" lon="5.8559">
        <ele>643</ele>
        <time>2019-04-09T11:15:04Z</time>
      </trkpt>
      <trkpt lat="44.35455" lon="5.85594">
        <ele>643</ele>
        <time>2019-04-09T11:15:05Z</time>
      </trkpt>
      <trkpt lat="44.35459" lon="5.85599">
        <ele>644</ele>
        <time>2019-04-09T11:15:06Z</time>
      </trkpt>
      <trkpt lat="44.35463" lon="5.85603">
        <ele>644</ele>
        <time>2019-04-09T11:15:07Z</time>
      </trkpt>
      <trkpt lat="44.35467" lon="5.85607">
        <ele>644</ele>
        <time>2019-04-09T11:15:08Z</time>
      </trkpt>
      <trkpt lat="44.35471" lon="5.85612">
        <ele>644</ele>
        <time>2019-04-09T11:15:09Z</time>
      </trkpt>
      <trkpt lat="44.35475" lon="5.85616">
        <ele>644</ele>
        <time>2019-04-09T11:15:10Z</time>
      </trkpt>
      <trkpt lat="44.35479" lon="5.8562">
        <ele>645</ele>
        <time>2019-04-09T11:15:11Z</time>
      </trkpt>
      <trkpt lat="44.35482" lon="5.85624">
        <ele>645</ele>
        <time>2019-04-09T11:15:12Z</time>
      </trkpt>
      <trkpt lat="44.35486" lon="5.85628">
        <ele>645</ele>
        <time>2019-04-09T11:15:13Z</time>
      </trkpt>
      <trkpt lat="44.3549" lon="5.85633">
        <ele>645</ele>
        <time>2019-04-09T11:15:14Z</time>
      </trkpt>
      <trkpt lat="44.35494" lon="5.85637">
        <ele>645</ele>
        <time>2019-04-09T11:15:15Z</time>
      </trkpt>
      <trkpt lat="44.35498" lon="5.85641">
        <ele>645</ele>
        <time>2019-04-09T11:15:16Z</time>
      </trkpt>
      <trkpt lat="44.35502" lon="5.85645">
        <ele>646</ele>
        <time>2019-04-09T11:15:17Z</time>
      </trkpt>
      <trkpt lat="44.35506" lon="5.8565">
        <ele>646</ele>
        <time>2019-04-09T11:15:18Z</time>
      </trkpt>
      <trkpt lat="44.3551" lon="5.85654">
        <ele>646</ele>
        <time>2019-04-09T11:15:19Z</time>
      </trkpt>
      <trkpt lat="44.35514" lon="5.85659">
        <ele>646</ele>
        <time>2019-04-09T11:15:20Z</time>
      </trkpt>
      <trkpt lat="44.35518" lon="5.85664">
        <ele>646</ele>
        <time>2019-04-09T11:15:21Z</time>
      </trkpt>
      <trkpt lat="44.35522" lon="5.85668">
        <ele>646</ele>
        <time>2019-04-09T11:15:22Z</time>
      </trkpt>
      <trkpt lat="44.35526" lon="5.85672">
        <ele>646</ele>
        <time>2019-04-09T11:15:23Z</time>
      </trkpt>
      <trkpt lat="44.3553" lon="5.85676">
        <ele>646</ele>
        <time>2019-04-09T11:15:24Z</time>
      </trkpt>
      <trkpt lat="44.35534" lon="5.85681">
        <ele>647</ele>
        <time>2019-04-09T11:15:25Z</time>
      </trkpt>
      <trkpt lat="44.35538" lon="5.85685">
        <ele>647</ele>
        <time>2019-04-09T11:15:26Z</time>
      </trkpt>
      <trkpt lat="44.35542" lon="5.85689">
        <ele>647</ele>
        <time>2019-04-09T11:15:27Z</time>
      </trkpt>
      <trkpt lat="44.35546" lon="5.85693">
        <ele>647</ele>
        <time>2019-04-09T11:15:28Z</time>
      </trkpt>
      <trkpt lat="44.3555" lon="5.85698">
        <ele>647</ele>
        <time>2019-04-09T11:15:29Z</time>
      </trkpt>
      <trkpt lat="44.35553" lon="5.85702">
        <ele>647</ele>
        <time>2019-04-09T11:15:30Z</time>
      </trkpt>
      <trkpt lat="44.35557" lon="5.85706">
        <ele>647</ele>
        <time>2019-04-09T11:15:31Z</time>
      </trkpt>
      <trkpt lat="44.35561" lon="5.8571">
        <ele>648</ele>
        <time>2019-04-09T11:15:32Z</time>
      </trkpt>
      <trkpt lat="44.35565" lon="5.85715">
        <ele>648</ele>
        <time>2019-04-09T11:15:33Z</time>
      </trkpt>
      <trkpt lat="44.35569" lon="5.85719">
        <ele>648</ele>
        <time>2019-04-09T11:15:34Z</time>
      </trkpt>
      <trkpt lat="44.35572" lon="5.85723">
        <ele>648</ele>
        <time>2019-04-09T11:15:35Z</time>
      </trkpt>
      <trkpt lat="44.35576" lon="5.85727">
        <ele>648</ele>
        <time>2019-04-09T11:15:36Z</time>
      </trkpt>
      <trkpt lat="44.3558" lon="5.85731">
        <ele>648</ele>
        <time>2019-04-09T11:15:37Z</time>
      </trkpt>
      <trkpt lat="44.35584" lon="5.85735">
        <ele>649</ele>
        <time>2019-04-09T11:15:38Z</time>
      </trkpt>
      <trkpt lat="44.35587" lon="5.85739">
        <ele>649</ele>
        <time>2019-04-09T11:15:39Z</time>
      </trkpt>
      <trkpt lat="44.35591" lon="5.85744">
        <ele>649</ele>
        <time>2019-04-09T11:15:40Z</time>
      </trkpt>
      <trkpt lat="44.35595" lon="5.85747">
        <ele>649</ele>
        <time>2019-04-09T11:15:41Z</time>
      </trkpt>
      <trkpt lat="44.35598" lon="5.85752">
        <ele>649</ele>
        <time>2019-04-09T11:15:42Z</time>
      </trkpt>
      <trkpt lat="44.35602" lon="5.85756">
        <ele>649</ele>
        <time>2019-04-09T11:15:43Z</time>
      </trkpt>
      <trkpt lat="44.35605" lon="5.8576">
        <ele>650</ele>
        <time>2019-04-09T11:15:44Z</time>
      </trkpt>
      <trkpt lat="44.35609" lon="5.85765">
        <ele>650</ele>
        <time>2019-04-09T11:15:45Z</time>
      </trkpt>
      <trkpt lat="44.35612" lon="5.85769">
        <ele>650</ele>
        <time>2019-04-09T11:15:46Z</time>
      </trkpt>
      <trkpt lat="44.35616" lon="5.85774">
        <ele>650</ele>
        <time>2019-04-09T11:15:47Z</time>
      </trkpt>
      <trkpt lat="44.35619" lon="5.85778">
        <ele>650</ele>
        <time>2019-04-09T11:15:48Z</time>
      </trkpt>
      <trkpt lat="44.35622" lon="5.85783">
        <ele>650</ele>
        <time>2019-04-09T11:15:49Z</time>
      </trkpt>
      <trkpt lat="44.35626" lon="5.85788">
        <ele>650</ele>
        <time>2019-04-09T11:15:50Z</time>
      </trkpt>
      <trkpt lat="44.35629" lon="5.85792">
        <ele>650</ele>
        <time>2019-04-09T11:15:51Z</time>
      </trkpt>
      <trkpt lat="44.35632" lon="5.85798">
        <ele>651</ele>
        <time>2019-04-09T11:15:52Z</time>
      </trkpt>
      <trkpt lat="44.35635" lon="5.85803">
        <ele>651</ele>
        <time>2019-04-09T11:15:53Z</time>
      </trkpt>
      <trkpt lat="44.35639" lon="5.85808">
        <ele>651</ele>
        <time>2019-04-09T11:15:54Z</time>
      </trkpt>
      <trkpt lat="44.35643" lon="5.85813">
        <ele>651</ele>
        <time>2019-04-09T11:15:55Z</time>
      </trkpt>
      <trkpt lat="44.35646" lon="5.85818">
        <ele>651</ele>
        <time>2019-04-09T11:15:56Z</time>
      </trkpt>
      <trkpt lat="44.35649" lon="5.85824">
        <ele>651</ele>
        <time>2019-04-09T11:15:57Z</time>
      </trkpt>
      <trkpt lat="44.35652" lon="5.85829">
        <ele>651</ele>
        <time>2019-04-09T11:15:58Z</time>
      </trkpt>
      <trkpt lat="44.35655" lon="5.85835">
        <ele>651</ele>
        <time>2019-04-09T11:15:59Z</time>
      </trkpt>
      <trkpt lat="44.35658" lon="5.8584">
        <ele>651</ele>
        <time>2019-04-09T11:16:00Z</time>
      </trkpt>
      <trkpt lat="44.35662" lon="5.85845">
        <ele>651</ele>
        <time>2019-04-09T11:16:01Z</time>
      </trkpt>
      <trkpt lat="44.35665" lon="5.8585">
        <ele>651</ele>
        <time>2019-04-09T11:16:02Z</time>
      </trkpt>
      <trkpt lat="44.35668" lon="5.85856">
        <ele>652</ele>
        <time>2019-04-09T11:16:03Z</time>
      </trkpt>
      <trkpt lat="44.35671" lon="5.85861">
        <ele>652</ele>
        <time>2019-04-09T11:16:04Z</time>
      </trkpt>
      <trkpt lat="44.35674" lon="5.85866">
        <ele>652</ele>
        <time>2019-04-09T11:16:05Z</time>
      </trkpt>
      <trkpt lat="44.35677" lon="5.85871">
        <ele>652</ele>
        <time>2019-04-09T11:16:06Z</time>
      </trkpt>
      <trkpt lat="44.3568" lon="5.85876">
        <ele>652</ele>
        <time>2019-04-09T11:16:07Z</time>
      </trkpt>
      <trkpt lat="44.35684" lon="5.85881">
        <ele>652</ele>
        <time>2019-04-09T11:16:08Z</time>
      </trkpt>
      <trkpt lat="44.35687" lon="5.85886">
        <ele>652</ele>
        <time>2019-04-09T11:16:09Z</time>
      </trkpt>
      <trkpt lat="44.3569" lon="5.85891">
        <ele>652</ele>
        <time>2019-04-09T11:16:10Z</time>
      </trkpt>
      <trkpt lat="44.35693" lon="5.85896">
        <ele>653</ele>
        <time>2019-04-09T11:16:11Z</time>
      </trkpt>
      <trkpt lat="44.35696" lon="5.85901">
        <ele>653</ele>
        <time>2019-04-09T11:16:12Z</time>
      </trkpt>
      <trkpt lat="44.357" lon="5.85907">
        <ele>653</ele>
        <time>2019-04-09T11:16:13Z</time>
      </trkpt>
      <trkpt lat="44.35703" lon="5.85912">
        <ele>653</ele>
        <time>2019-04-09T11:16:14Z</time>
      </trkpt>
      <trkpt lat="44.35706" lon="5.85917">
        <ele>653</ele>
        <time>2019-04-09T11:16:15Z</time>
      </trkpt>
      <trkpt lat="44.3571" lon="5.85923">
        <ele>653</ele>
        <time>2019-04-09T11:16:16Z</time>
      </trkpt>
      <trkpt lat="44.35713" lon="5.85928">
        <ele>654</ele>
        <time>2019-04-09T11:16:17Z</time>
      </trkpt>
      <trkpt lat="44.35716" lon="5.85933">
        <ele>654</ele>
        <time>2019-04-09T11:16:18Z</time>
      </trkpt>
      <trkpt lat="44.3572" lon="5.85939">
        <ele>654</ele>
        <time>2019-04-09T11:16:19Z</time>
      </trkpt>
      <trkpt lat="44.35723" lon="5.85944">
        <ele>654</ele>
        <time>2019-04-09T11:16:20Z</time>
      </trkpt>
      <trkpt lat="44.35726" lon="5.85949">
        <ele>654</ele>
        <time>2019-04-09T11:16:21Z</time>
      </trkpt>
      <trkpt lat="44.35729" lon="5.85955">
        <ele>655</ele>
        <time>2019-04-09T11:16:22Z</time>
      </trkpt>
      <trkpt lat="44.35733" lon="5.8596">
        <ele>655</ele>
        <time>2019-04-09T11:16:23Z</time>
      </trkpt>
      <trkpt lat="44.35736" lon="5.85965">
        <ele>655</ele>
        <time>2019-04-09T11:16:24Z</time>
      </trkpt>
      <trkpt lat="44.3574" lon="5.85971">
        <ele>655</ele>
        <time>2019-04-09T11:16:25Z</time>
      </trkpt>
      <trkpt lat="44.35743" lon="5.85977">
        <ele>655</ele>
        <time>2019-04-09T11:16:26Z</time>
      </trkpt>
      <trkpt lat="44.35746" lon="5.85982">
        <ele>655</ele>
        <time>2019-04-09T11:16:27Z</time>
      </trkpt>
      <trkpt lat="44.35749" lon="5.85988">
        <ele>656</ele>
        <time>2019-04-09T11:16:28Z</time>
      </trkpt>
      <trkpt lat="44.35752" lon="5.85993">
        <ele>656</ele>
        <time>2019-04-09T11:16:29Z</time>
      </trkpt>
      <trkpt lat="44.35755" lon="5.85998">
        <ele>656</ele>
        <time>2019-04-09T11:16:30Z</time>
      </trkpt>
      <trkpt lat="44.35758" lon="5.86004">
        <ele>656</ele>
        <time>2019-04-09T11:16:31Z</time>
      </trkpt>
      <trkpt lat="44.35762" lon="5.86009">
        <ele>656</ele>
        <time>2019-04-09T11:16:32Z</time>
      </trkpt>
      <trkpt lat="44.35765" lon="5.86015">
        <ele>656</ele>
        <time>2019-04-09T11:16:33Z</time>
      </trkpt>
      <trkpt lat="44.35769" lon="5.86021">
        <ele>656</ele>
        <time>2019-04-09T11:16:34Z</time>
      </trkpt>
      <trkpt lat="44.35772" lon="5.86027">
        <ele>656</ele>
        <time>2019-04-09T11:16:35Z</time>
      </trkpt>
      <trkpt lat="44.35776" lon="5.86033">
        <ele>656</ele>
        <time>2019-04-09T11:16:36Z</time>
      </trkpt>
      <trkpt lat="44.35779" lon="5.86039">
        <ele>656</ele>
        <time>2019-04-09T11:16:37Z</time>
      </trkpt>
      <trkpt lat="44.35781" lon="5.86046">
        <ele>656</ele>
        <time>2019-04-09T11:16:38Z</time>
      </trkpt>
      <trkpt lat="44.35783" lon="5.86052">
        <ele>656</ele>
        <time>2019-04-09T11:16:39Z</time>
      </trkpt>
      <trkpt lat="44.35786" lon="5.86059">
        <ele>656</ele>
        <time>2019-04-09T11:16:40Z</time>
      </trkpt>
      <trkpt lat="44.35787" lon="5.86066">
        <ele>656</ele>
        <time>2019-04-09T11:16:41Z</time>
      </trkpt>
      <trkpt lat="44.35789" lon="5.86073">
        <ele>656</ele>
        <time>2019-04-09T11:16:42Z</time>
      </trkpt>
      <trkpt lat="44.35791" lon="5.86081">
        <ele>656</ele>
        <time>2019-04-09T11:16:43Z</time>
      </trkpt>
      <trkpt lat="44.35792" lon="5.86088">
        <ele>656</ele>
        <time>2019-04-09T11:16:44Z</time>
      </trkpt>
      <trkpt lat="44.35794" lon="5.86096">
        <ele>656</ele>
        <time>2019-04-09T11:16:45Z</time>
      </trkpt>
      <trkpt lat="44.35795" lon="5.86103">
        <ele>656</ele>
        <time>2019-04-09T11:16:46Z</time>
      </trkpt>
      <trkpt lat="44.35796" lon="5.8611">
        <ele>656</ele>
        <time>2019-04-09T11:16:47Z</time>
      </trkpt>
      <trkpt lat="44.35798" lon="5.86118">
        <ele>656</ele>
        <time>2019-04-09T11:16:48Z</time>
      </trkpt>
      <trkpt lat="44.358" lon="5.86125">
        <ele>656</ele>
        <time>2019-04-09T11:16:49Z</time>
      </trkpt>
      <trkpt lat="44.35801" lon="5.86133">
        <ele>656</ele>
        <time>2019-04-09T11:16:50Z</time>
      </trkpt>
      <trkpt lat="44.35803" lon="5.86141">
        <ele>656</ele>
        <time>2019-04-09T11:16:51Z</time>
      </trkpt>
      <trkpt lat="44.35804" lon="5.86149">
        <ele>656</ele>
        <time>2019-04-09T11:16:52Z</time>
      </trkpt>
      <trkpt lat="44.35806" lon="5.86157">
        <ele>656</ele>
        <time>2019-04-09T11:16:53Z</time>
      </trkpt>
      <trkpt lat="44.35807" lon="5.86164">
        <ele>657</ele>
        <time>2019-04-09T11:16:54Z</time>
      </trkpt>
      <trkpt lat="44.35809" lon="5.86172">
        <ele>657</ele>
        <time>2019-04-09T11:16:55Z</time>
      </trkpt>
      <trkpt lat="44.3581" lon="5.8618">
        <ele>657</ele>
        <time>2019-04-09T11:16:56Z</time>
      </trkpt>
      <trkpt lat="44.35812" lon="5.86187">
        <ele>657</ele>
        <time>2019-04-09T11:16:57Z</time>
      </trkpt>
      <trkpt lat="44.35814" lon="5.86195">
        <ele>657</ele>
        <time>2019-04-09T11:16:58Z</time>
      </trkpt>
      <trkpt lat="44.35815" lon="5.86202">
        <ele>658</ele>
        <time>2019-04-09T11:16:59Z</time>
      </trkpt>
      <trkpt lat="44.35817" lon="5.86209">
        <ele>658</ele>
        <time>2019-04-09T11:17:00Z</time>
      </trkpt>
      <trkpt lat="44.35819" lon="5.86217">
        <ele>658</ele>
        <time>2019-04-09T11:17:01Z</time>
      </trkpt>
      <trkpt lat="44.35822" lon="5.86224">
        <ele>658</ele>
        <time>2019-04-09T11:17:02Z</time>
      </trkpt>
      <trkpt lat="44.35824" lon="5.86231">
        <ele>658</ele>
        <time>2019-04-09T11:17:03Z</time>
      </trkpt>
      <trkpt lat="44.35826" lon="5.86238">
        <ele>658</ele>
        <time>2019-04-09T11:17:04Z</time>
      </trkpt>
      <trkpt lat="44.35829" lon="5.86245">
        <ele>658</ele>
        <time>2019-04-09T11:17:05Z</time>
      </trkpt>
      <trkpt lat="44.35831" lon="5.86252">
        <ele>659</ele>
        <time>2019-04-09T11:17:06Z</time>
      </trkpt>
      <trkpt lat="44.35834" lon="5.86259">
        <ele>659</ele>
        <time>2019-04-09T11:17:07Z</time>
      </trkpt>
      <trkpt lat="44.35837" lon="5.86266">
        <ele>659</ele>
        <time>2019-04-09T11:17:08Z</time>
      </trkpt>
      <trkpt lat="44.3584" lon="5.86272">
        <ele>659</ele>
        <time>2019-04-09T11:17:09Z</time>
      </trkpt>
      <trkpt lat="44.35844" lon="5.86278">
        <ele>659</ele>
        <time>2019-04-09T11:17:10Z</time>
      </trkpt>
      <trkpt lat="44.35847" lon="5.86285">
        <ele>659</ele>
        <time>2019-04-09T11:17:11Z</time>
      </trkpt>
      <trkpt lat="44.3585" lon="5.86291">
        <ele>659</ele>
        <time>2019-04-09T11:17:12Z</time>
      </trkpt>
      <trkpt lat="44.35853" lon="5.86298">
        <ele>659</ele>
        <time>2019-04-09T11:17:13Z</time>
      </trkpt>
      <trkpt lat="44.35856" lon="5.86304">
        <ele>659</ele>
        <time>2019-04-09T11:17:14Z</time>
      </trkpt>
      <trkpt lat="44.3586" lon="5.86311">
        <ele>659</ele>
        <time>2019-04-09T11:17:15Z</time>
      </trkpt>
      <trkpt lat="44.35862" lon="5.86318">
        <ele>659</ele>
        <time>2019-04-09T11:17:16Z</time>
      </trkpt>
      <trkpt lat="44.35865" lon="5.86325">
        <ele>659</ele>
        <time>2019-04-09T11:17:17Z</time>
      </trkpt>
      <trkpt lat="44.35867" lon="5.86332">
        <ele>660</ele>
        <time>2019-04-09T11:17:18Z</time>
      </trkpt>
      <trkpt lat="44.3587" lon="5.86339">
        <ele>660</ele>
        <time>2019-04-09T11:17:19Z</time>
      </trkpt>
      <trkpt lat="44.35872" lon="5.86345">
        <ele>660</ele>
        <time>2019-04-09T11:17:20Z</time>
      </trkpt>
      <trkpt lat="44.35874" lon="5.86353">
        <ele>660</ele>
        <time>2019-04-09T11:17:21Z</time>
      </trkpt>
      <trkpt lat="44.35876" lon="5.8636">
        <ele>660</ele>
        <time>2019-04-09T11:17:22Z</time>
      </trkpt>
      <trkpt lat="44.35878" lon="5.86368">
        <ele>660</ele>
        <time>2019-04-09T11:17:23Z</time>
      </trkpt>
      <trkpt lat="44.3588" lon="5.86375">
        <ele>660</ele>
        <time>2019-04-09T11:17:24Z</time>
      </trkpt>
      <trkpt lat="44.35881" lon="5.86383">
        <ele>660</ele>
        <time>2019-04-09T11:17:25Z</time>
      </trkpt>
      <trkpt lat="44.35883" lon="5.86391">
        <ele>660</ele>
        <time>2019-04-09T11:17:26Z</time>
      </trkpt>
      <trkpt lat="44.35884" lon="5.86399">
        <ele>660</ele>
        <time>2019-04-09T11:17:27Z</time>
      </trkpt>
      <trkpt lat="44.35885" lon="5.86407">
        <ele>660</ele>
        <time>2019-04-09T11:17:28Z</time>
      </trkpt>
      <trkpt lat="44.35887" lon="5.86414">
        <ele>660</ele>
        <time>2019-04-09T11:17:29Z</time>
      </trkpt>
      <trkpt lat="44.35889" lon="5.86423">
        <ele>660</ele>
        <time>2019-04-09T11:17:30Z</time>
      </trkpt>
      <trkpt lat="44.35891" lon="5.86432">
        <ele>660</ele>
        <time>2019-04-09T11:17:31Z</time>
      </trkpt>
      <trkpt lat="44.35892" lon="5.8644">
        <ele>660</ele>
        <time>2019-04-09T11:17:32Z</time>
      </trkpt>
      <trkpt lat="44.35894" lon="5.86448">
        <ele>660</ele>
        <time>2019-04-09T11:17:33Z</time>
      </trkpt>
      <trkpt lat="44.35896" lon="5.86457">
        <ele>660</ele>
        <time>2019-04-09T11:17:34Z</time>
      </trkpt>
      <trkpt lat="44.35898" lon="5.86466">
        <ele>660</ele>
        <time>2019-04-09T11:17:35Z</time>
      </trkpt>
      <trkpt lat="44.359" lon="5.86474">
        <ele>660</ele>
        <time>2019-04-09T11:17:36Z</time>
      </trkpt>
      <trkpt lat="44.35902" lon="5.86483">
        <ele>660</ele>
        <time>2019-04-09T11:17:37Z</time>
      </trkpt>
      <trkpt lat="44.35904" lon="5.86491">
        <ele>660</ele>
        <time>2019-04-09T11:17:38Z</time>
      </trkpt>
      <trkpt lat="44.35905" lon="5.865">
        <ele>660</ele>
        <time>2019-04-09T11:17:39Z</time>
      </trkpt>
      <trkpt lat="44.35907" lon="5.86509">
        <ele>660</ele>
        <time>2019-04-09T11:17:40Z</time>
      </trkpt>
      <trkpt lat="44.3591" lon="5.86518">
        <ele>660</ele>
        <time>2019-04-09T11:17:41Z</time>
      </trkpt>
      <trkpt lat="44.35912" lon="5.86528">
        <ele>660</ele>
        <time>2019-04-09T11:17:42Z</time>
      </trkpt>
      <trkpt lat="44.35914" lon="5.86537">
        <ele>660</ele>
        <time>2019-04-09T11:17:43Z</time>
      </trkpt>
      <trkpt lat="44.35916" lon="5.86547">
        <ele>660</ele>
        <time>2019-04-09T11:17:44Z</time>
      </trkpt>
      <trkpt lat="44.35918" lon="5.86557">
        <ele>660</ele>
        <time>2019-04-09T11:17:45Z</time>
      </trkpt>
      <trkpt lat="44.3592" lon="5.86567">
        <ele>660</ele>
        <time>2019-04-09T11:17:46Z</time>
      </trkpt>
      <trkpt lat="44.35922" lon="5.86577">
        <ele>660</ele>
        <time>2019-04-09T11:17:47Z</time>
      </trkpt>
      <trkpt lat="44.35924" lon="5.86587">
        <ele>660</ele>
        <time>2019-04-09T11:17:48Z</time>
      </trkpt>
      <trkpt lat="44.35926" lon="5.86597">
        <ele>660</ele>
        <time>2019-04-09T11:17:49Z</time>
      </trkpt>
      <trkpt lat="44.35927" lon="5.86607">
        <ele>660</ele>
        <time>2019-04-09T11:17:50Z</time>
      </trkpt>
      <trkpt lat="44.3593" lon="5.86618">
        <ele>660</ele>
        <time>2019-04-09T11:17:51Z</time>
      </trkpt>
      <trkpt lat="44.35932" lon="5.86628">
        <ele>660</ele>
        <time>2019-04-09T11:17:52Z</time>
      </trkpt>
      <trkpt lat="44.35934" lon="5.86639">
        <ele>660</ele>
        <time>2019-04-09T11:17:53Z</time>
      </trkpt>
      <trkpt lat="44.35936" lon="5.86649">
        <ele>660</ele>
        <time>2019-04-09T11:17:54Z</time>
      </trkpt>
      <trkpt lat="44.35939" lon="5.8666">
        <ele>660</ele>
        <time>2019-04-09T11:17:55Z</time>
      </trkpt>
      <trkpt lat="44.35942" lon="5.8667">
        <ele>660</ele>
        <time>2019-04-09T11:17:56Z</time>
      </trkpt>
      <trkpt lat="44.35945" lon="5.86681">
        <ele>660</ele>
        <time>2019-04-09T11:17:57Z</time>
      </trkpt>
      <trkpt lat="44.35948" lon="5.86692">
        <ele>660</ele>
        <time>2019-04-09T11:17:58Z</time>
      </trkpt>
      <trkpt lat="44.35952" lon="5.86702">
        <ele>660</ele>
        <time>2019-04-09T11:17:59Z</time>
      </trkpt>
      <trkpt lat="44.35956" lon="5.86712">
        <ele>660</ele>
        <time>2019-04-09T11:18:00Z</time>
      </trkpt>
      <trkpt lat="44.3596" lon="5.86722">
        <ele>660</ele>
        <time>2019-04-09T11:18:01Z</time>
      </trkpt>
      <trkpt lat="44.35965" lon="5.86732">
        <ele>660</ele>
        <time>2019-04-09T11:18:02Z</time>
      </trkpt>
      <trkpt lat="44.3597" lon="5.86742">
        <ele>660</ele>
        <time>2019-04-09T11:18:03Z</time>
      </trkpt>
      <trkpt lat="44.35975" lon="5.86753">
        <ele>660</ele>
        <time>2019-04-09T11:18:04Z</time>
      </trkpt>
      <trkpt lat="44.35979" lon="5.86763">
        <ele>660</ele>
        <time>2019-04-09T11:18:05Z</time>
      </trkpt>
      <trkpt lat="44.35984" lon="5.86773">
        <ele>660</ele>
        <time>2019-04-09T11:18:06Z</time>
      </trkpt>
      <trkpt lat="44.35989" lon="5.86784">
        <ele>660</ele>
        <time>2019-04-09T11:18:07Z</time>
      </trkpt>
      <trkpt lat="44.35994" lon="5.86794">
        <ele>660</ele>
        <time>2019-04-09T11:18:08Z</time>
      </trkpt>
      <trkpt lat="44.35999" lon="5.86805">
        <ele>660</ele>
        <time>2019-04-09T11:18:09Z</time>
      </trkpt>
      <trkpt lat="44.36004" lon="5.86816">
        <ele>660</ele>
        <time>2019-04-09T11:18:10Z</time>
      </trkpt>
      <trkpt lat="44.3601" lon="5.86827">
        <ele>660</ele>
        <time>2019-04-09T11:18:11Z</time>
      </trkpt>
      <trkpt lat="44.36015" lon="5.86837">
        <ele>659</ele>
        <time>2019-04-09T11:18:12Z</time>
      </trkpt>
      <trkpt lat="44.3602" lon="5.86848">
        <ele>659</ele>
        <time>2019-04-09T11:18:13Z</time>
      </trkpt>
      <trkpt lat="44.36026" lon="5.8686">
        <ele>659</ele>
        <time>2019-04-09T11:18:14Z</time>
      </trkpt>
      <trkpt lat="44.36031" lon="5.86871">
        <ele>659</ele>
        <time>2019-04-09T11:18:15Z</time>
      </trkpt>
      <trkpt lat="44.36037" lon="5.86883">
        <ele>658</ele>
        <time>2019-04-09T11:18:15Z</time>
      </trkpt>
      <trkpt lat="44.36042" lon="5.86895">
        <ele>658</ele>
        <time>2019-04-09T11:18:16Z</time>
      </trkpt>
      <trkpt lat="44.36048" lon="5.86907">
        <ele>658</ele>
        <time>2019-04-09T11:18:17Z</time>
      </trkpt>
      <trkpt lat="44.36054" lon="5.86919">
        <ele>657</ele>
        <time>2019-04-09T11:18:18Z</time>
      </trkpt>
      <trkpt lat="44.3606" lon="5.86931">
        <ele>657</ele>
        <time>2019-04-09T11:18:19Z</time>
      </trkpt>
      <trkpt lat="44.36065" lon="5.86943">
        <ele>657</ele>
        <time>2019-04-09T11:18:20Z</time>
      </trkpt>
      <trkpt lat="44.36071" lon="5.86955">
        <ele>656</ele>
        <time>2019-04-09T11:18:21Z</time>
      </trkpt>
      <trkpt lat="44.36077" lon="5.86967">
        <ele>656</ele>
        <time>2019-04-09T11:18:22Z</time>
      </trkpt>
      <trkpt lat="44.36082" lon="5.8698">
        <ele>655</ele>
        <time>2019-04-09T11:18:23Z</time>
      </trkpt>
      <trkpt lat="44.36088" lon="5.86993">
        <ele>655</ele>
        <time>2019-04-09T11:18:24Z</time>
      </trkpt>
      <trkpt lat="44.36094" lon="5.87007">
        <ele>654</ele>
        <time>2019-04-09T11:18:25Z</time>
      </trkpt>
      <trkpt lat="44.36099" lon="5.87021">
        <ele>653</ele>
        <time>2019-04-09T11:18:26Z</time>
      </trkpt>
      <trkpt lat="44.36103" lon="5.87037">
        <ele>652</ele>
        <time>2019-04-09T11:18:27Z</time>
      </trkpt>
      <trkpt lat="44.36107" lon="5.87052">
        <ele>652</ele>
        <time>2019-04-09T11:18:28Z</time>
      </trkpt>
      <trkpt lat="44.36111" lon="5.87069">
        <ele>651</ele>
        <time>2019-04-09T11:18:29Z</time>
      </trkpt>
      <trkpt lat="44.36114" lon="5.87086">
        <ele>650</ele>
        <time>2019-04-09T11:18:30Z</time>
      </trkpt>
      <trkpt lat="44.36116" lon="5.87104">
        <ele>649</ele>
        <time>2019-04-09T11:18:31Z</time>
      </trkpt>
      <trkpt lat="44.36119" lon="5.87122">
        <ele>648</ele>
        <time>2019-04-09T11:18:32Z</time>
      </trkpt>
      <trkpt lat="44.36122" lon="5.8714">
        <ele>647</ele>
        <time>2019-04-09T11:18:34Z</time>
      </trkpt>
      <trkpt lat="44.36125" lon="5.87157">
        <ele>646</ele>
        <time>2019-04-09T11:18:34Z</time>
      </trkpt>
      <trkpt lat="44.36127" lon="5.87176">
        <ele>645</ele>
        <time>2019-04-09T11:18:35Z</time>
      </trkpt>
      <trkpt lat="44.36131" lon="5.87194">
        <ele>645</ele>
        <time>2019-04-09T11:18:36Z</time>
      </trkpt>
      <trkpt lat="44.36134" lon="5.87212">
        <ele>644</ele>
        <time>2019-04-09T11:18:37Z</time>
      </trkpt>
      <trkpt lat="44.36137" lon="5.8723">
        <ele>643</ele>
        <time>2019-04-09T11:18:38Z</time>
      </trkpt>
      <trkpt lat="44.3614" lon="5.87248">
        <ele>642</ele>
        <time>2019-04-09T11:18:39Z</time>
      </trkpt>
      <trkpt lat="44.36145" lon="5.87264">
        <ele>641</ele>
        <time>2019-04-09T11:18:40Z</time>
      </trkpt>
      <trkpt lat="44.36152" lon="5.8728">
        <ele>640</ele>
        <time>2019-04-09T11:18:41Z</time>
      </trkpt>
      <trkpt lat="44.3616" lon="5.87294">
        <ele>639</ele>
        <time>2019-04-09T11:18:42Z</time>
      </trkpt>
      <trkpt lat="44.36168" lon="5.87308">
        <ele>638</ele>
        <time>2019-04-09T11:18:43Z</time>
      </trkpt>
      <trkpt lat="44.36177" lon="5.87322">
        <ele>637</ele>
        <time>2019-04-09T11:18:44Z</time>
      </trkpt>
      <trkpt lat="44.36185" lon="5.87335">
        <ele>636</ele>
        <time>2019-04-09T11:18:45Z</time>
      </trkpt>
      <trkpt lat="44.36193" lon="5.87349">
        <ele>635</ele>
        <time>2019-04-09T11:18:46Z</time>
      </trkpt>
      <trkpt lat="44.362" lon="5.87363">
        <ele>634</ele>
        <time>2019-04-09T11:18:47Z</time>
      </trkpt>
      <trkpt lat="44.36204" lon="5.87379">
        <ele>633</ele>
        <time>2019-04-09T11:18:48Z</time>
      </trkpt>
      <trkpt lat="44.36206" lon="5.87395">
        <ele>632</ele>
        <time>2019-04-09T11:18:49Z</time>
      </trkpt>
      <trkpt lat="44.36205" lon="5.87411">
        <ele>632</ele>
        <time>2019-04-09T11:18:50Z</time>
      </trkpt>
      <trkpt lat="44.36201" lon="5.87426">
        <ele>631</ele>
        <time>2019-04-09T11:18:51Z</time>
      </trkpt>
      <trkpt lat="44.36198" lon="5.8744">
        <ele>630</ele>
        <time>2019-04-09T11:18:52Z</time>
      </trkpt>
      <trkpt lat="44.36194" lon="5.87454">
        <ele>630</ele>
        <time>2019-04-09T11:18:53Z</time>
      </trkpt>
      <trkpt lat="44.36192" lon="5.87469">
        <ele>629</ele>
        <time>2019-04-09T11:18:54Z</time>
      </trkpt>
      <trkpt lat="44.36191" lon="5.87484">
        <ele>629</ele>
        <time>2019-04-09T11:18:55Z</time>
      </trkpt>
      <trkpt lat="44.36191" lon="5.875">
        <ele>628</ele>
        <time>2019-04-09T11:18:56Z</time>
      </trkpt>
      <trkpt lat="44.36192" lon="5.87515">
        <ele>628</ele>
        <time>2019-04-09T11:18:57Z</time>
      </trkpt>
      <trkpt lat="44.36193" lon="5.87531">
        <ele>627</ele>
        <time>2019-04-09T11:18:58Z</time>
      </trkpt>
      <trkpt lat="44.36194" lon="5.87546">
        <ele>627</ele>
        <time>2019-04-09T11:18:59Z</time>
      </trkpt>
      <trkpt lat="44.36196" lon="5.87562">
        <ele>626</ele>
        <time>2019-04-09T11:19:00Z</time>
      </trkpt>
      <trkpt lat="44.36198" lon="5.87577">
        <ele>625</ele>
        <time>2019-04-09T11:19:01Z</time>
      </trkpt>
      <trkpt lat="44.36201" lon="5.87592">
        <ele>625</ele>
        <time>2019-04-09T11:19:02Z</time>
      </trkpt>
      <trkpt lat="44.36205" lon="5.87606">
        <ele>624</ele>
        <time>2019-04-09T11:19:03Z</time>
      </trkpt>
      <trkpt lat="44.36209" lon="5.87621">
        <ele>624</ele>
        <time>2019-04-09T11:19:04Z</time>
      </trkpt>
      <trkpt lat="44.36213" lon="5.87636">
        <ele>623</ele>
        <time>2019-04-09T11:19:05Z</time>
      </trkpt>
      <trkpt lat="44.36215" lon="5.87652">
        <ele>623</ele>
        <time>2019-04-09T11:19:06Z</time>
      </trkpt>
      <trkpt lat="44.36216" lon="5.87668">
        <ele>622</ele>
        <time>2019-04-09T11:19:07Z</time>
      </trkpt>
      <trkpt lat="44.36217" lon="5.87683">
        <ele>622</ele>
        <time>2019-04-09T11:19:08Z</time>
      </trkpt>
      <trkpt lat="44.36217" lon="5.877">
        <ele>621</ele>
        <time>2019-04-09T11:19:09Z</time>
      </trkpt>
      <trkpt lat="44.36217" lon="5.87716">
        <ele>620</ele>
        <time>2019-04-09T11:19:10Z</time>
      </trkpt>
      <trkpt lat="44.36217" lon="5.87732">
        <ele>620</ele>
        <time>2019-04-09T11:19:11Z</time>
      </trkpt>
      <trkpt lat="44.36218" lon="5.87747">
        <ele>619</ele>
        <time>2019-04-09T11:19:12Z</time>
      </trkpt>
      <trkpt lat="44.3622" lon="5.87763">
        <ele>618</ele>
        <time>2019-04-09T11:19:13Z</time>
      </trkpt>
      <trkpt lat="44.36222" lon="5.87779">
        <ele>618</ele>
        <time>2019-04-09T11:19:14Z</time>
      </trkpt>
      <trkpt lat="44.36226" lon="5.87794">
        <ele>617</ele>
        <time>2019-04-09T11:19:15Z</time>
      </trkpt>
      <trkpt lat="44.36229" lon="5.8781">
        <ele>617</ele>
        <time>2019-04-09T11:19:16Z</time>
      </trkpt>
      <trkpt lat="44.36234" lon="5.87825">
        <ele>617</ele>
        <time>2019-04-09T11:19:17Z</time>
      </trkpt>
      <trkpt lat="44.36238" lon="5.87839">
        <ele>616</ele>
        <time>2019-04-09T11:19:18Z</time>
      </trkpt>
      <trkpt lat="44.36243" lon="5.87853">
        <ele>616</ele>
        <time>2019-04-09T11:19:19Z</time>
      </trkpt>
      <trkpt lat="44.36245" lon="5.87868">
        <ele>616</ele>
        <time>2019-04-09T11:19:20Z</time>
      </trkpt>
      <trkpt lat="44.36248" lon="5.87882">
        <ele>616</ele>
        <time>2019-04-09T11:19:21Z</time>
      </trkpt>
      <trkpt lat="44.36248" lon="5.87896">
        <ele>616</ele>
        <time>2019-04-09T11:19:22Z</time>
      </trkpt>
      <trkpt lat="44.36247" lon="5.8791">
        <ele>616</ele>
        <time>2019-04-09T11:19:24Z</time>
      </trkpt>
      <trkpt lat="44.36246" lon="5.87923">
        <ele>616</ele>
        <time>2019-04-09T11:19:25Z</time>
      </trkpt>
      <trkpt lat="44.36245" lon="5.87937">
        <ele>616</ele>
        <time>2019-04-09T11:19:26Z</time>
      </trkpt>
      <trkpt lat="44.36244" lon="5.87951">
        <ele>616</ele>
        <time>2019-04-09T11:19:26Z</time>
      </trkpt>
      <trkpt lat="44.36244" lon="5.87966">
        <ele>616</ele>
        <time>2019-04-09T11:19:27Z</time>
      </trkpt>
      <trkpt lat="44.36246" lon="5.87981">
        <ele>616</ele>
        <time>2019-04-09T11:19:28Z</time>
      </trkpt>
      <trkpt lat="44.36249" lon="5.87995">
        <ele>615</ele>
        <time>2019-04-09T11:19:29Z</time>
      </trkpt>
      <trkpt lat="44.36254" lon="5.88008">
        <ele>615</ele>
        <time>2019-04-09T11:19:30Z</time>
      </trkpt>
      <trkpt lat="44.36258" lon="5.88022">
        <ele>615</ele>
        <time>2019-04-09T11:19:31Z</time>
      </trkpt>
      <trkpt lat="44.36263" lon="5.88036">
        <ele>614</ele>
        <time>2019-04-09T11:19:32Z</time>
      </trkpt>
      <trkpt lat="44.36268" lon="5.88051">
        <ele>614</ele>
        <time>2019-04-09T11:19:34Z</time>
      </trkpt>
      <trkpt lat="44.36272" lon="5.88065">
        <ele>613</ele>
        <time>2019-04-09T11:19:34Z</time>
      </trkpt>
      <trkpt lat="44.36277" lon="5.88079">
        <ele>613</ele>
        <time>2019-04-09T11:19:35Z</time>
      </trkpt>
      <trkpt lat="44.36281" lon="5.88093">
        <ele>612</ele>
        <time>2019-04-09T11:19:36Z</time>
      </trkpt>
      <trkpt lat="44.36284" lon="5.88106">
        <ele>612</ele>
        <time>2019-04-09T11:19:37Z</time>
      </trkpt>
      <trkpt lat="44.36287" lon="5.8812">
        <ele>612</ele>
        <time>2019-04-09T11:19:38Z</time>
      </trkpt>
      <trkpt lat="44.3629" lon="5.88133">
        <ele>611</ele>
        <time>2019-04-09T11:19:40Z</time>
      </trkpt>
      <trkpt lat="44.36293" lon="5.88146">
        <ele>611</ele>
        <time>2019-04-09T11:19:41Z</time>
      </trkpt>
      <trkpt lat="44.36296" lon="5.88159">
        <ele>611</ele>
        <time>2019-04-09T11:19:42Z</time>
      </trkpt>
      <trkpt lat="44.363" lon="5.88171">
        <ele>611</ele>
        <time>2019-04-09T11:19:43Z</time>
      </trkpt>
      <trkpt lat="44.36303" lon="5.88184">
        <ele>610</ele>
        <time>2019-04-09T11:19:44Z</time>
      </trkpt>
      <trkpt lat="44.36307" lon="5.88196">
        <ele>610</ele>
        <time>2019-04-09T11:19:45Z</time>
      </trkpt>
      <trkpt lat="44.3631" lon="5.8821">
        <ele>610</ele>
        <time>2019-04-09T11:19:46Z</time>
      </trkpt>
      <trkpt lat="44.36313" lon="5.88223">
        <ele>610</ele>
        <time>2019-04-09T11:19:47Z</time>
      </trkpt>
      <trkpt lat="44.36316" lon="5.88237">
        <ele>610</ele>
        <time>2019-04-09T11:19:48Z</time>
      </trkpt>
      <trkpt lat="44.36318" lon="5.8825">
        <ele>610</ele>
        <time>2019-04-09T11:19:48Z</time>
      </trkpt>
      <trkpt lat="44.3632" lon="5.88264">
        <ele>610</ele>
        <time>2019-04-09T11:19:49Z</time>
      </trkpt>
      <trkpt lat="44.36323" lon="5.88277">
        <ele>610</ele>
        <time>2019-04-09T11:19:51Z</time>
      </trkpt>
      <trkpt lat="44.36325" lon="5.88291">
        <ele>610</ele>
        <time>2019-04-09T11:19:51Z</time>
      </trkpt>
      <trkpt lat="44.36328" lon="5.88305">
        <ele>610</ele>
        <time>2019-04-09T11:19:52Z</time>
      </trkpt>
      <trkpt lat="44.36332" lon="5.88319">
        <ele>609</ele>
        <time>2019-04-09T11:19:53Z</time>
      </trkpt>
      <trkpt lat="44.36337" lon="5.88332">
        <ele>608</ele>
        <time>2019-04-09T11:19:54Z</time>
      </trkpt>
      <trkpt lat="44.36342" lon="5.88346">
        <ele>608</ele>
        <time>2019-04-09T11:19:55Z</time>
      </trkpt>
      <trkpt lat="44.36348" lon="5.8836">
        <ele>607</ele>
        <time>2019-04-09T11:19:56Z</time>
      </trkpt>
      <trkpt lat="44.36354" lon="5.88373">
        <ele>607</ele>
        <time>2019-04-09T11:19:57Z</time>
      </trkpt>
      <trkpt lat="44.36358" lon="5.88386">
        <ele>607</ele>
        <time>2019-04-09T11:19:58Z</time>
      </trkpt>
      <trkpt lat="44.36362" lon="5.88398">
        <ele>607</ele>
        <time>2019-04-09T11:20:00Z</time>
      </trkpt>
      <trkpt lat="44.36366" lon="5.88411">
        <ele>607</ele>
        <time>2019-04-09T11:20:01Z</time>
      </trkpt>
      <trkpt lat="44.36369" lon="5.88422">
        <ele>607</ele>
        <time>2019-04-09T11:20:02Z</time>
      </trkpt>
      <trkpt lat="44.36372" lon="5.88434">
        <ele>607</ele>
        <time>2019-04-09T11:20:03Z</time>
      </trkpt>
      <trkpt lat="44.36374" lon="5.88447">
        <ele>607</ele>
        <time>2019-04-09T11:20:04Z</time>
      </trkpt>
      <trkpt lat="44.36375" lon="5.8846">
        <ele>607</ele>
        <time>2019-04-09T11:20:05Z</time>
      </trkpt>
      <trkpt lat="44.36374" lon="5.88472">
        <ele>607</ele>
        <time>2019-04-09T11:20:06Z</time>
      </trkpt>
      <trkpt lat="44.36374" lon="5.88483">
        <ele>607</ele>
        <time>2019-04-09T11:20:07Z</time>
      </trkpt>
      <trkpt lat="44.36374" lon="5.88494">
        <ele>607</ele>
        <time>2019-04-09T11:20:08Z</time>
      </trkpt>
      <trkpt lat="44.36374" lon="5.88505">
        <ele>607</ele>
        <time>2019-04-09T11:20:09Z</time>
      </trkpt>
      <trkpt lat="44.36373" lon="5.88516">
        <ele>607</ele>
        <time>2019-04-09T11:20:10Z</time>
      </trkpt>
      <trkpt lat="44.36372" lon="5.88527">
        <ele>607</ele>
        <time>2019-04-09T11:20:11Z</time>
      </trkpt>
      <trkpt lat="44.36372" lon="5.88538">
        <ele>607</ele>
        <time>2019-04-09T11:20:12Z</time>
      </trkpt>
      <trkpt lat="44.36372" lon="5.88549">
        <ele>607</ele>
        <time>2019-04-09T11:20:13Z</time>
      </trkpt>
      <trkpt lat="44.36372" lon="5.88561">
        <ele>607</ele>
        <time>2019-04-09T11:20:14Z</time>
      </trkpt>
      <trkpt lat="44.36371" lon="5.88572">
        <ele>607</ele>
        <time>2019-04-09T11:20:15Z</time>
      </trkpt>
      <trkpt lat="44.36371" lon="5.88584">
        <ele>607</ele>
        <time>2019-04-09T11:20:16Z</time>
      </trkpt>
      <trkpt lat="44.36371" lon="5.88596">
        <ele>607</ele>
        <time>2019-04-09T11:20:17Z</time>
      </trkpt>
      <trkpt lat="44.3637" lon="5.88607">
        <ele>607</ele>
        <time>2019-04-09T11:20:18Z</time>
      </trkpt>
      <trkpt lat="44.3637" lon="5.88619">
        <ele>607</ele>
        <time>2019-04-09T11:20:19Z</time>
      </trkpt>
      <trkpt lat="44.36369" lon="5.88631">
        <ele>607</ele>
        <time>2019-04-09T11:20:20Z</time>
      </trkpt>
      <trkpt lat="44.36367" lon="5.88642">
        <ele>607</ele>
        <time>2019-04-09T11:20:21Z</time>
      </trkpt>
      <trkpt lat="44.36365" lon="5.88654">
        <ele>607</ele>
        <time>2019-04-09T11:20:22Z</time>
      </trkpt>
      <trkpt lat="44.36361" lon="5.88665">
        <ele>607</ele>
        <time>2019-04-09T11:20:23Z</time>
      </trkpt>
      <trkpt lat="44.36358" lon="5.88675">
        <ele>607</ele>
        <time>2019-04-09T11:20:24Z</time>
      </trkpt>
      <trkpt lat="44.36354" lon="5.88686">
        <ele>607</ele>
        <time>2019-04-09T11:20:25Z</time>
      </trkpt>
      <trkpt lat="44.3635" lon="5.88695">
        <ele>607</ele>
        <time>2019-04-09T11:20:26Z</time>
      </trkpt>
      <trkpt lat="44.36346" lon="5.88704">
        <ele>607</ele>
        <time>2019-04-09T11:20:27Z</time>
      </trkpt>
      <trkpt lat="44.36343" lon="5.88714">
        <ele>607</ele>
        <time>2019-04-09T11:20:28Z</time>
      </trkpt>
      <trkpt lat="44.3634" lon="5.88724">
        <ele>607</ele>
        <time>2019-04-09T11:20:29Z</time>
      </trkpt>
      <trkpt lat="44.36338" lon="5.88734">
        <ele>607</ele>
        <time>2019-04-09T11:20:30Z</time>
      </trkpt>
      <trkpt lat="44.36337" lon="5.88746">
        <ele>607</ele>
        <time>2019-04-09T11:20:31Z</time>
      </trkpt>
      <trkpt lat="44.36336" lon="5.88757">
        <ele>607</ele>
        <time>2019-04-09T11:20:32Z</time>
      </trkpt>
      <trkpt lat="44.36337" lon="5.88767">
        <ele>607</ele>
        <time>2019-04-09T11:20:33Z</time>
      </trkpt>
      <trkpt lat="44.36339" lon="5.88778">
        <ele>607</ele>
        <time>2019-04-09T11:20:34Z</time>
      </trkpt>
      <trkpt lat="44.36341" lon="5.88789">
        <ele>607</ele>
        <time>2019-04-09T11:20:35Z</time>
      </trkpt>
      <trkpt lat="44.36345" lon="5.88799">
        <ele>607</ele>
        <time>2019-04-09T11:20:36Z</time>
      </trkpt>
      <trkpt lat="44.36348" lon="5.8881">
        <ele>607</ele>
        <time>2019-04-09T11:20:37Z</time>
      </trkpt>
      <trkpt lat="44.36353" lon="5.88822">
        <ele>607</ele>
        <time>2019-04-09T11:20:38Z</time>
      </trkpt>
      <trkpt lat="44.36357" lon="5.88833">
        <ele>607</ele>
        <time>2019-04-09T11:20:39Z</time>
      </trkpt>
      <trkpt lat="44.36361" lon="5.88844">
        <ele>607</ele>
        <time>2019-04-09T11:20:40Z</time>
      </trkpt>
      <trkpt lat="44.36366" lon="5.88856">
        <ele>607</ele>
        <time>2019-04-09T11:20:41Z</time>
      </trkpt>
      <trkpt lat="44.3637" lon="5.88868">
        <ele>607</ele>
        <time>2019-04-09T11:20:42Z</time>
      </trkpt>
      <trkpt lat="44.36375" lon="5.88879">
        <ele>607</ele>
        <time>2019-04-09T11:20:43Z</time>
      </trkpt>
      <trkpt lat="44.3638" lon="5.88891">
        <ele>607</ele>
        <time>2019-04-09T11:20:44Z</time>
      </trkpt>
      <trkpt lat="44.36385" lon="5.88902">
        <ele>607</ele>
        <time>2019-04-09T11:20:45Z</time>
      </trkpt>
      <trkpt lat="44.3639" lon="5.88914">
        <ele>607</ele>
        <time>2019-04-09T11:20:46Z</time>
      </trkpt>
      <trkpt lat="44.36395" lon="5.88926">
        <ele>607</ele>
        <time>2019-04-09T11:20:47Z</time>
      </trkpt>
      <trkpt lat="44.36399" lon="5.88939">
        <ele>606</ele>
        <time>2019-04-09T11:20:48Z</time>
      </trkpt>
      <trkpt lat="44.36404" lon="5.88951">
        <ele>606</ele>
        <time>2019-04-09T11:20:49Z</time>
      </trkpt>
      <trkpt lat="44.36409" lon="5.88963">
        <ele>606</ele>
        <time>2019-04-09T11:20:50Z</time>
      </trkpt>
      <trkpt lat="44.36412" lon="5.88974">
        <ele>606</ele>
        <time>2019-04-09T11:20:51Z</time>
      </trkpt>
      <trkpt lat="44.36416" lon="5.88986">
        <ele>606</ele>
        <time>2019-04-09T11:20:52Z</time>
      </trkpt>
      <trkpt lat="44.3642" lon="5.88996">
        <ele>606</ele>
        <time>2019-04-09T11:20:53Z</time>
      </trkpt>
      <trkpt lat="44.36423" lon="5.89006">
        <ele>606</ele>
        <time>2019-04-09T11:20:54Z</time>
      </trkpt>
      <trkpt lat="44.36427" lon="5.89016">
        <ele>606</ele>
        <time>2019-04-09T11:20:55Z</time>
      </trkpt>
      <trkpt lat="44.36431" lon="5.89025">
        <ele>606</ele>
        <time>2019-04-09T11:20:56Z</time>
      </trkpt>
      <trkpt lat="44.36435" lon="5.89035">
        <ele>606</ele>
        <time>2019-04-09T11:20:57Z</time>
      </trkpt>
      <trkpt lat="44.36438" lon="5.89045">
        <ele>605</ele>
        <time>2019-04-09T11:20:58Z</time>
      </trkpt>
      <trkpt lat="44.36442" lon="5.89055">
        <ele>605</ele>
        <time>2019-04-09T11:20:59Z</time>
      </trkpt>
      <trkpt lat="44.36446" lon="5.89065">
        <ele>605</ele>
        <time>2019-04-09T11:21:00Z</time>
      </trkpt>
      <trkpt lat="44.3645" lon="5.89075">
        <ele>605</ele>
        <time>2019-04-09T11:21:01Z</time>
      </trkpt>
      <trkpt lat="44.36454" lon="5.89086">
        <ele>604</ele>
        <time>2019-04-09T11:21:02Z</time>
      </trkpt>
      <trkpt lat="44.36458" lon="5.89097">
        <ele>604</ele>
        <time>2019-04-09T11:21:03Z</time>
      </trkpt>
      <trkpt lat="44.36463" lon="5.89109">
        <ele>604</ele>
        <time>2019-04-09T11:21:04Z</time>
      </trkpt>
      <trkpt lat="44.36467" lon="5.8912">
        <ele>604</ele>
        <time>2019-04-09T11:21:05Z</time>
      </trkpt>
      <trkpt lat="44.36472" lon="5.89132">
        <ele>603</ele>
        <time>2019-04-09T11:21:06Z</time>
      </trkpt>
      <trkpt lat="44.36477" lon="5.89143">
        <ele>603</ele>
        <time>2019-04-09T11:21:07Z</time>
      </trkpt>
      <trkpt lat="44.36481" lon="5.89154">
        <ele>603</ele>
        <time>2019-04-09T11:21:08Z</time>
      </trkpt>
      <trkpt lat="44.36485" lon="5.89165">
        <ele>603</ele>
        <time>2019-04-09T11:21:09Z</time>
      </trkpt>
      <trkpt lat="44.3649" lon="5.89176">
        <ele>602</ele>
        <time>2019-04-09T11:21:10Z</time>
      </trkpt>
      <trkpt lat="44.36494" lon="5.89187">
        <ele>602</ele>
        <time>2019-04-09T11:21:11Z</time>
      </trkpt>
      <trkpt lat="44.36498" lon="5.89198">
        <ele>602</ele>
        <time>2019-04-09T11:21:12Z</time>
      </trkpt>
      <trkpt lat="44.36502" lon="5.89209">
        <ele>601</ele>
        <time>2019-04-09T11:21:13Z</time>
      </trkpt>
      <trkpt lat="44.36507" lon="5.89221">
        <ele>601</ele>
        <time>2019-04-09T11:21:14Z</time>
      </trkpt>
      <trkpt lat="44.36511" lon="5.89232">
        <ele>600</ele>
        <time>2019-04-09T11:21:15Z</time>
      </trkpt>
      <trkpt lat="44.36516" lon="5.89244">
        <ele>600</ele>
        <time>2019-04-09T11:21:16Z</time>
      </trkpt>
      <trkpt lat="44.3652" lon="5.89256">
        <ele>600</ele>
        <time>2019-04-09T11:21:17Z</time>
      </trkpt>
      <trkpt lat="44.36525" lon="5.89268">
        <ele>599</ele>
        <time>2019-04-09T11:21:18Z</time>
      </trkpt>
      <trkpt lat="44.36529" lon="5.89281">
        <ele>599</ele>
        <time>2019-04-09T11:21:18Z</time>
      </trkpt>
      <trkpt lat="44.36534" lon="5.89294">
        <ele>598</ele>
        <time>2019-04-09T11:21:19Z</time>
      </trkpt>
      <trkpt lat="44.36538" lon="5.89307">
        <ele>597</ele>
        <time>2019-04-09T11:21:20Z</time>
      </trkpt>
      <trkpt lat="44.36541" lon="5.89321">
        <ele>596</ele>
        <time>2019-04-09T11:21:21Z</time>
      </trkpt>
      <trkpt lat="44.36544" lon="5.89335">
        <ele>596</ele>
        <time>2019-04-09T11:21:22Z</time>
      </trkpt>
      <trkpt lat="44.36546" lon="5.8935">
        <ele>595</ele>
        <time>2019-04-09T11:21:23Z</time>
      </trkpt>
      <trkpt lat="44.36547" lon="5.89365">
        <ele>594</ele>
        <time>2019-04-09T11:21:24Z</time>
      </trkpt>
      <trkpt lat="44.36549" lon="5.89378">
        <ele>594</ele>
        <time>2019-04-09T11:21:26Z</time>
      </trkpt>
      <trkpt lat="44.3655" lon="5.89392">
        <ele>593</ele>
        <time>2019-04-09T11:21:27Z</time>
      </trkpt>
      <trkpt lat="44.36552" lon="5.89405">
        <ele>593</ele>
        <time>2019-04-09T11:21:28Z</time>
      </trkpt>
      <trkpt lat="44.36555" lon="5.89418">
        <ele>593</ele>
        <time>2019-04-09T11:21:29Z</time>
      </trkpt>
      <trkpt lat="44.36559" lon="5.8943">
        <ele>593</ele>
        <time>2019-04-09T11:21:30Z</time>
      </trkpt>
      <trkpt lat="44.36564" lon="5.89441">
        <ele>593</ele>
        <time>2019-04-09T11:21:31Z</time>
      </trkpt>
      <trkpt lat="44.36569" lon="5.89452">
        <ele>593</ele>
        <time>2019-04-09T11:21:32Z</time>
      </trkpt>
      <trkpt lat="44.36574" lon="5.89462">
        <ele>593</ele>
        <time>2019-04-09T11:21:33Z</time>
      </trkpt>
      <trkpt lat="44.3658" lon="5.89472">
        <ele>593</ele>
        <time>2019-04-09T11:21:34Z</time>
      </trkpt>
      <trkpt lat="44.36586" lon="5.89482">
        <ele>593</ele>
        <time>2019-04-09T11:21:35Z</time>
      </trkpt>
      <trkpt lat="44.36592" lon="5.89491">
        <ele>593</ele>
        <time>2019-04-09T11:21:36Z</time>
      </trkpt>
      <trkpt lat="44.36598" lon="5.895">
        <ele>593</ele>
        <time>2019-04-09T11:21:37Z</time>
      </trkpt>
      <trkpt lat="44.36604" lon="5.89509">
        <ele>593</ele>
        <time>2019-04-09T11:21:38Z</time>
      </trkpt>
      <trkpt lat="44.3661" lon="5.89518">
        <ele>593</ele>
        <time>2019-04-09T11:21:39Z</time>
      </trkpt>
      <trkpt lat="44.36616" lon="5.89528">
        <ele>593</ele>
        <time>2019-04-09T11:21:40Z</time>
      </trkpt>
      <trkpt lat="44.36623" lon="5.89537">
        <ele>593</ele>
        <time>2019-04-09T11:21:41Z</time>
      </trkpt>
      <trkpt lat="44.36629" lon="5.89547">
        <ele>593</ele>
        <time>2019-04-09T11:21:42Z</time>
      </trkpt>
      <trkpt lat="44.36636" lon="5.89557">
        <ele>593</ele>
        <time>2019-04-09T11:21:43Z</time>
      </trkpt>
      <trkpt lat="44.36642" lon="5.89567">
        <ele>593</ele>
        <time>2019-04-09T11:21:44Z</time>
      </trkpt>
      <trkpt lat="44.36649" lon="5.89577">
        <ele>593</ele>
        <time>2019-04-09T11:21:45Z</time>
      </trkpt>
      <trkpt lat="44.36655" lon="5.89587">
        <ele>593</ele>
        <time>2019-04-09T11:21:46Z</time>
      </trkpt>
      <trkpt lat="44.36661" lon="5.89596">
        <ele>593</ele>
        <time>2019-04-09T11:21:47Z</time>
      </trkpt>
      <trkpt lat="44.36667" lon="5.89606">
        <ele>593</ele>
        <time>2019-04-09T11:21:48Z</time>
      </trkpt>
      <trkpt lat="44.36673" lon="5.89614">
        <ele>593</ele>
        <time>2019-04-09T11:21:49Z</time>
      </trkpt>
      <trkpt lat="44.36678" lon="5.89623">
        <ele>593</ele>
        <time>2019-04-09T11:21:50Z</time>
      </trkpt>
      <trkpt lat="44.36684" lon="5.89632">
        <ele>593</ele>
        <time>2019-04-09T11:21:51Z</time>
      </trkpt>
      <trkpt lat="44.36689" lon="5.8964">
        <ele>593</ele>
        <time>2019-04-09T11:21:52Z</time>
      </trkpt>
      <trkpt lat="44.36694" lon="5.89648">
        <ele>593</ele>
        <time>2019-04-09T11:21:53Z</time>
      </trkpt>
      <trkpt lat="44.367" lon="5.89657">
        <ele>593</ele>
        <time>2019-04-09T11:21:54Z</time>
      </trkpt>
      <trkpt lat="44.36705" lon="5.89665">
        <ele>593</ele>
        <time>2019-04-09T11:21:55Z</time>
      </trkpt>
      <trkpt lat="44.3671" lon="5.89673">
        <ele>593</ele>
        <time>2019-04-09T11:21:56Z</time>
      </trkpt>
      <trkpt lat="44.36715" lon="5.8968">
        <ele>593</ele>
        <time>2019-04-09T11:21:57Z</time>
      </trkpt>
      <trkpt lat="44.3672" lon="5.89688">
        <ele>593</ele>
        <time>2019-04-09T11:21:58Z</time>
      </trkpt>
      <trkpt lat="44.36726" lon="5.89696">
        <ele>593</ele>
        <time>2019-04-09T11:21:59Z</time>
      </trkpt>
      <trkpt lat="44.36731" lon="5.89704">
        <ele>593</ele>
        <time>2019-04-09T11:22:00Z</time>
      </trkpt>
      <trkpt lat="44.36736" lon="5.89712">
        <ele>593</ele>
        <time>2019-04-09T11:22:01Z</time>
      </trkpt>
      <trkpt lat="44.3674" lon="5.89719">
        <ele>593</ele>
        <time>2019-04-09T11:22:02Z</time>
      </trkpt>
      <trkpt lat="44.36745" lon="5.89727">
        <ele>593</ele>
        <time>2019-04-09T11:22:03Z</time>
      </trkpt>
      <trkpt lat="44.3675" lon="5.89735">
        <ele>593</ele>
        <time>2019-04-09T11:22:04Z</time>
      </trkpt>
      <trkpt lat="44.36754" lon="5.89743">
        <ele>593</ele>
        <time>2019-04-09T11:22:05Z</time>
      </trkpt>
      <trkpt lat="44.36759" lon="5.8975">
        <ele>593</ele>
        <time>2019-04-09T11:22:06Z</time>
      </trkpt>
      <trkpt lat="44.36763" lon="5.89757">
        <ele>593</ele>
        <time>2019-04-09T11:22:07Z</time>
      </trkpt>
      <trkpt lat="44.36768" lon="5.89765">
        <ele>593</ele>
        <time>2019-04-09T11:22:08Z</time>
      </trkpt>
      <trkpt lat="44.36772" lon="5.89773">
        <ele>593</ele>
        <time>2019-04-09T11:22:09Z</time>
      </trkpt>
      <trkpt lat="44.36776" lon="5.89781">
        <ele>593</ele>
        <time>2019-04-09T11:22:10Z</time>
      </trkpt>
      <trkpt lat="44.3678" lon="5.89789">
        <ele>593</ele>
        <time>2019-04-09T11:22:11Z</time>
      </trkpt>
      <trkpt lat="44.36784" lon="5.89798">
        <ele>593</ele>
        <time>2019-04-09T11:22:12Z</time>
      </trkpt>
      <trkpt lat="44.36787" lon="5.89807">
        <ele>593</ele>
        <time>2019-04-09T11:22:13Z</time>
      </trkpt>
      <trkpt lat="44.36791" lon="5.89816">
        <ele>593</ele>
        <time>2019-04-09T11:22:14Z</time>
      </trkpt>
      <trkpt lat="44.36795" lon="5.89826">
        <ele>593</ele>
        <time>2019-04-09T11:22:15Z</time>
      </trkpt>
      <trkpt lat="44.36798" lon="5.89836">
        <ele>593</ele>
        <time>2019-04-09T11:22:16Z</time>
      </trkpt>
      <trkpt lat="44.36803" lon="5.89845">
        <ele>593</ele>
        <time>2019-04-09T11:22:17Z</time>
      </trkpt>
      <trkpt lat="44.36808" lon="5.89855">
        <ele>593</ele>
        <time>2019-04-09T11:22:18Z</time>
      </trkpt>
      <trkpt lat="44.36814" lon="5.89864">
        <ele>593</ele>
        <time>2019-04-09T11:22:19Z</time>
      </trkpt>
      <trkpt lat="44.3682" lon="5.89874">
        <ele>593</ele>
        <time>2019-04-09T11:22:20Z</time>
      </trkpt>
      <trkpt lat="44.36827" lon="5.89883">
        <ele>593</ele>
        <time>2019-04-09T11:22:21Z</time>
      </trkpt>
      <trkpt lat="44.36834" lon="5.89892">
        <ele>593</ele>
        <time>2019-04-09T11:22:22Z</time>
      </trkpt>
      <trkpt lat="44.36842" lon="5.899">
        <ele>593</ele>
        <time>2019-04-09T11:22:23Z</time>
      </trkpt>
      <trkpt lat="44.36849" lon="5.89908">
        <ele>593</ele>
        <time>2019-04-09T11:22:24Z</time>
      </trkpt>
      <trkpt lat="44.36856" lon="5.89916">
        <ele>593</ele>
        <time>2019-04-09T11:22:25Z</time>
      </trkpt>
      <trkpt lat="44.36863" lon="5.89922">
        <ele>593</ele>
        <time>2019-04-09T11:22:26Z</time>
      </trkpt>
      <trkpt lat="44.36871" lon="5.89928">
        <ele>593</ele>
        <time>2019-04-09T11:22:27Z</time>
      </trkpt>
      <trkpt lat="44.36877" lon="5.89933">
        <ele>593</ele>
        <time>2019-04-09T11:22:28Z</time>
      </trkpt>
      <trkpt lat="44.36884" lon="5.89938">
        <ele>593</ele>
        <time>2019-04-09T11:22:29Z</time>
      </trkpt>
      <trkpt lat="44.36891" lon="5.89942">
        <ele>593</ele>
        <time>2019-04-09T11:22:29Z</time>
      </trkpt>
      <trkpt lat="44.36898" lon="5.89946">
        <ele>593</ele>
        <time>2019-04-09T11:22:31Z</time>
      </trkpt>
      <trkpt lat="44.36904" lon="5.8995">
        <ele>593</ele>
        <time>2019-04-09T11:22:32Z</time>
      </trkpt>
      <trkpt lat="44.3691" lon="5.89954">
        <ele>593</ele>
        <time>2019-04-09T11:22:33Z</time>
      </trkpt>
      <trkpt lat="44.36916" lon="5.89958">
        <ele>593</ele>
        <time>2019-04-09T11:22:34Z</time>
      </trkpt>
      <trkpt lat="44.36923" lon="5.89961">
        <ele>593</ele>
        <time>2019-04-09T11:22:35Z</time>
      </trkpt>
      <trkpt lat="44.36929" lon="5.89965">
        <ele>593</ele>
        <time>2019-04-09T11:22:36Z</time>
      </trkpt>
      <trkpt lat="44.36936" lon="5.89969">
        <ele>593</ele>
        <time>2019-04-09T11:22:37Z</time>
      </trkpt>
      <trkpt lat="44.36942" lon="5.89973">
        <ele>593</ele>
        <time>2019-04-09T11:22:38Z</time>
      </trkpt>
      <trkpt lat="44.36948" lon="5.89976">
        <ele>593</ele>
        <time>2019-04-09T11:22:39Z</time>
      </trkpt>
      <trkpt lat="44.36954" lon="5.8998">
        <ele>593</ele>
        <time>2019-04-09T11:22:40Z</time>
      </trkpt>
      <trkpt lat="44.3696" lon="5.89983">
        <ele>593</ele>
        <time>2019-04-09T11:22:41Z</time>
      </trkpt>
      <trkpt lat="44.36966" lon="5.89986">
        <ele>593</ele>
        <time>2019-04-09T11:22:42Z</time>
      </trkpt>
      <trkpt lat="44.36972" lon="5.8999">
        <ele>594</ele>
        <time>2019-04-09T11:22:43Z</time>
      </trkpt>
      <trkpt lat="44.36978" lon="5.89993">
        <ele>594</ele>
        <time>2019-04-09T11:22:44Z</time>
      </trkpt>
      <trkpt lat="44.36984" lon="5.89995">
        <ele>594</ele>
        <time>2019-04-09T11:22:45Z</time>
      </trkpt>
      <trkpt lat="44.3699" lon="5.89998">
        <ele>594</ele>
        <time>2019-04-09T11:22:46Z</time>
      </trkpt>
      <trkpt lat="44.36996" lon="5.90001">
        <ele>594</ele>
        <time>2019-04-09T11:22:47Z</time>
      </trkpt>
      <trkpt lat="44.37002" lon="5.90003">
        <ele>594</ele>
        <time>2019-04-09T11:22:48Z</time>
      </trkpt>
      <trkpt lat="44.37009" lon="5.90006">
        <ele>594</ele>
        <time>2019-04-09T11:22:49Z</time>
      </trkpt>
      <trkpt lat="44.37015" lon="5.90008">
        <ele>594</ele>
        <time>2019-04-09T11:22:50Z</time>
      </trkpt>
      <trkpt lat="44.37022" lon="5.90011">
        <ele>594</ele>
        <time>2019-04-09T11:22:51Z</time>
      </trkpt>
      <trkpt lat="44.37029" lon="5.90012">
        <ele>595</ele>
        <time>2019-04-09T11:22:52Z</time>
      </trkpt>
      <trkpt lat="44.37035" lon="5.90013">
        <ele>595</ele>
        <time>2019-04-09T11:22:53Z</time>
      </trkpt>
      <trkpt lat="44.37042" lon="5.90015">
        <ele>595</ele>
        <time>2019-04-09T11:22:54Z</time>
      </trkpt>
      <trkpt lat="44.37049" lon="5.90015">
        <ele>595</ele>
        <time>2019-04-09T11:22:55Z</time>
      </trkpt>
      <trkpt lat="44.37056" lon="5.90015">
        <ele>595</ele>
        <time>2019-04-09T11:22:56Z</time>
      </trkpt>
      <trkpt lat="44.37063" lon="5.90014">
        <ele>595</ele>
        <time>2019-04-09T11:22:57Z</time>
      </trkpt>
      <trkpt lat="44.3707" lon="5.90011">
        <ele>595</ele>
        <time>2019-04-09T11:22:57Z</time>
      </trkpt>
      <trkpt lat="44.37078" lon="5.90007">
        <ele>595</ele>
        <time>2019-04-09T11:22:59Z</time>
      </trkpt>
      <trkpt lat="44.37085" lon="5.90002">
        <ele>595</ele>
        <time>2019-04-09T11:23:00Z</time>
      </trkpt>
      <trkpt lat="44.37093" lon="5.89996">
        <ele>595</ele>
        <time>2019-04-09T11:23:01Z</time>
      </trkpt>
      <trkpt lat="44.371" lon="5.89989">
        <ele>595</ele>
        <time>2019-04-09T11:23:02Z</time>
      </trkpt>
      <trkpt lat="44.37107" lon="5.89981">
        <ele>595</ele>
        <time>2019-04-09T11:23:03Z</time>
      </trkpt>
      <trkpt lat="44.37114" lon="5.89972">
        <ele>595</ele>
        <time>2019-04-09T11:23:04Z</time>
      </trkpt>
      <trkpt lat="44.37122" lon="5.89965">
        <ele>595</ele>
        <time>2019-04-09T11:23:05Z</time>
      </trkpt>
      <trkpt lat="44.3713" lon="5.89958">
        <ele>595</ele>
        <time>2019-04-09T11:23:05Z</time>
      </trkpt>
      <trkpt lat="44.3714" lon="5.89954">
        <ele>595</ele>
        <time>2019-04-09T11:23:07Z</time>
      </trkpt>
      <trkpt lat="44.37149" lon="5.89952">
        <ele>595</ele>
        <time>2019-04-09T11:23:08Z</time>
      </trkpt>
      <trkpt lat="44.37159" lon="5.89952">
        <ele>595</ele>
        <time>2019-04-09T11:23:09Z</time>
      </trkpt>
      <trkpt lat="44.37167" lon="5.89955">
        <ele>595</ele>
        <time>2019-04-09T11:23:09Z</time>
      </trkpt>
      <trkpt lat="44.37175" lon="5.8996">
        <ele>595</ele>
        <time>2019-04-09T11:23:11Z</time>
      </trkpt>
      <trkpt lat="44.37183" lon="5.89967">
        <ele>595</ele>
        <time>2019-04-09T11:23:12Z</time>
      </trkpt>
      <trkpt lat="44.37189" lon="5.89975">
        <ele>595</ele>
        <time>2019-04-09T11:23:13Z</time>
      </trkpt>
      <trkpt lat="44.37196" lon="5.89983">
        <ele>595</ele>
        <time>2019-04-09T11:23:14Z</time>
      </trkpt>
      <trkpt lat="44.37202" lon="5.89991">
        <ele>595</ele>
        <time>2019-04-09T11:23:15Z</time>
      </trkpt>
      <trkpt lat="44.37209" lon="5.89999">
        <ele>595</ele>
        <time>2019-04-09T11:23:16Z</time>
      </trkpt>
      <trkpt lat="44.37215" lon="5.90007">
        <ele>595</ele>
        <time>2019-04-09T11:23:17Z</time>
      </trkpt>
      <trkpt lat="44.37221" lon="5.90015">
        <ele>595</ele>
        <time>2019-04-09T11:23:18Z</time>
      </trkpt>
      <trkpt lat="44.37226" lon="5.90023">
        <ele>595</ele>
        <time>2019-04-09T11:23:19Z</time>
      </trkpt>
      <trkpt lat="44.37233" lon="5.90031">
        <ele>595</ele>
        <time>2019-04-09T11:23:20Z</time>
      </trkpt>
      <trkpt lat="44.37238" lon="5.90038">
        <ele>595</ele>
        <time>2019-04-09T11:23:21Z</time>
      </trkpt>
      <trkpt lat="44.37243" lon="5.90046">
        <ele>595</ele>
        <time>2019-04-09T11:23:21Z</time>
      </trkpt>
      <trkpt lat="44.37248" lon="5.90053">
        <ele>595</ele>
        <time>2019-04-09T11:23:23Z</time>
      </trkpt>
      <trkpt lat="44.37253" lon="5.9006">
        <ele>595</ele>
        <time>2019-04-09T11:23:24Z</time>
      </trkpt>
      <trkpt lat="44.37258" lon="5.90067">
        <ele>595</ele>
        <time>2019-04-09T11:23:25Z</time>
      </trkpt>
      <trkpt lat="44.37262" lon="5.90074">
        <ele>595</ele>
        <time>2019-04-09T11:23:25Z</time>
      </trkpt>
      <trkpt lat="44.37267" lon="5.9008">
        <ele>595</ele>
        <time>2019-04-09T11:23:27Z</time>
      </trkpt>
      <trkpt lat="44.37272" lon="5.90087">
        <ele>595</ele>
        <time>2019-04-09T11:23:28Z</time>
      </trkpt>
      <trkpt lat="44.37276" lon="5.90093">
        <ele>595</ele>
        <time>2019-04-09T11:23:29Z</time>
      </trkpt>
      <trkpt lat="44.37281" lon="5.90099">
        <ele>595</ele>
        <time>2019-04-09T11:23:29Z</time>
      </trkpt>
      <trkpt lat="44.37286" lon="5.90106">
        <ele>595</ele>
        <time>2019-04-09T11:23:31Z</time>
      </trkpt>
      <trkpt lat="44.3729" lon="5.90112">
        <ele>595</ele>
        <time>2019-04-09T11:23:32Z</time>
      </trkpt>
      <trkpt lat="44.37294" lon="5.90118">
        <ele>595</ele>
        <time>2019-04-09T11:23:33Z</time>
      </trkpt>
      <trkpt lat="44.37299" lon="5.90124">
        <ele>595</ele>
        <time>2019-04-09T11:23:34Z</time>
      </trkpt>
      <trkpt lat="44.37304" lon="5.9013">
        <ele>595</ele>
        <time>2019-04-09T11:23:35Z</time>
      </trkpt>
      <trkpt lat="44.37308" lon="5.90136">
        <ele>596</ele>
        <time>2019-04-09T11:23:36Z</time>
      </trkpt>
      <trkpt lat="44.37312" lon="5.90142">
        <ele>596</ele>
        <time>2019-04-09T11:23:37Z</time>
      </trkpt>
      <trkpt lat="44.37317" lon="5.90148">
        <ele>596</ele>
        <time>2019-04-09T11:23:38Z</time>
      </trkpt>
      <trkpt lat="44.37321" lon="5.90154">
        <ele>596</ele>
        <time>2019-04-09T11:23:39Z</time>
      </trkpt>
      <trkpt lat="44.37326" lon="5.90159">
        <ele>596</ele>
        <time>2019-04-09T11:23:40Z</time>
      </trkpt>
      <trkpt lat="44.37331" lon="5.90165">
        <ele>597</ele>
        <time>2019-04-09T11:23:41Z</time>
      </trkpt>
      <trkpt lat="44.37335" lon="5.90171">
        <ele>597</ele>
        <time>2019-04-09T11:23:42Z</time>
      </trkpt>
      <trkpt lat="44.3734" lon="5.90177">
        <ele>597</ele>
        <time>2019-04-09T11:23:43Z</time>
      </trkpt>
      <trkpt lat="44.37344" lon="5.90182">
        <ele>598</ele>
        <time>2019-04-09T11:23:44Z</time>
      </trkpt>
      <trkpt lat="44.37348" lon="5.90188">
        <ele>598</ele>
        <time>2019-04-09T11:23:45Z</time>
      </trkpt>
      <trkpt lat="44.37353" lon="5.90194">
        <ele>598</ele>
        <time>2019-04-09T11:23:46Z</time>
      </trkpt>
      <trkpt lat="44.37357" lon="5.902">
        <ele>598</ele>
        <time>2019-04-09T11:23:47Z</time>
      </trkpt>
      <trkpt lat="44.37362" lon="5.90205">
        <ele>599</ele>
        <time>2019-04-09T11:23:48Z</time>
      </trkpt>
      <trkpt lat="44.37366" lon="5.90211">
        <ele>599</ele>
        <time>2019-04-09T11:23:49Z</time>
      </trkpt>
      <trkpt lat="44.37371" lon="5.90216">
        <ele>599</ele>
        <time>2019-04-09T11:23:50Z</time>
      </trkpt>
      <trkpt lat="44.37375" lon="5.90222">
        <ele>599</ele>
        <time>2019-04-09T11:23:51Z</time>
      </trkpt>
      <trkpt lat="44.37379" lon="5.90227">
        <ele>600</ele>
        <time>2019-04-09T11:23:51Z</time>
      </trkpt>
      <trkpt lat="44.37384" lon="5.90233">
        <ele>600</ele>
        <time>2019-04-09T11:23:53Z</time>
      </trkpt>
      <trkpt lat="44.37388" lon="5.90239">
        <ele>600</ele>
        <time>2019-04-09T11:23:54Z</time>
      </trkpt>
      <trkpt lat="44.37392" lon="5.90245">
        <ele>600</ele>
        <time>2019-04-09T11:23:55Z</time>
      </trkpt>
      <trkpt lat="44.37397" lon="5.9025">
        <ele>601</ele>
        <time>2019-04-09T11:23:56Z</time>
      </trkpt>
      <trkpt lat="44.37401" lon="5.90256">
        <ele>601</ele>
        <time>2019-04-09T11:23:57Z</time>
      </trkpt>
      <trkpt lat="44.37406" lon="5.90262">
        <ele>601</ele>
        <time>2019-04-09T11:23:58Z</time>
      </trkpt>
      <trkpt lat="44.3741" lon="5.90267">
        <ele>601</ele>
        <time>2019-04-09T11:23:59Z</time>
      </trkpt>
      <trkpt lat="44.37415" lon="5.90273">
        <ele>601</ele>
        <time>2019-04-09T11:24:00Z</time>
      </trkpt>
      <trkpt lat="44.37419" lon="5.90278">
        <ele>601</ele>
        <time>2019-04-09T11:24:01Z</time>
      </trkpt>
      <trkpt lat="44.37423" lon="5.90284">
        <ele>601</ele>
        <time>2019-04-09T11:24:02Z</time>
      </trkpt>
      <trkpt lat="44.37428" lon="5.90289">
        <ele>602</ele>
        <time>2019-04-09T11:24:03Z</time>
      </trkpt>
      <trkpt lat="44.37432" lon="5.90294">
        <ele>602</ele>
        <time>2019-04-09T11:24:04Z</time>
      </trkpt>
      <trkpt lat="44.37437" lon="5.903">
        <ele>602</ele>
        <time>2019-04-09T11:24:05Z</time>
      </trkpt>
      <trkpt lat="44.37441" lon="5.90305">
        <ele>602</ele>
        <time>2019-04-09T11:24:05Z</time>
      </trkpt>
      <trkpt lat="44.37446" lon="5.90311">
        <ele>602</ele>
        <time>2019-04-09T11:24:07Z</time>
      </trkpt>
      <trkpt lat="44.3745" lon="5.90317">
        <ele>602</ele>
        <time>2019-04-09T11:24:08Z</time>
      </trkpt>
      <trkpt lat="44.37455" lon="5.90322">
        <ele>603</ele>
        <time>2019-04-09T11:24:09Z</time>
      </trkpt>
      <trkpt lat="44.37459" lon="5.90328">
        <ele>603</ele>
        <time>2019-04-09T11:24:10Z</time>
      </trkpt>
      <trkpt lat="44.37463" lon="5.90334">
        <ele>603</ele>
        <time>2019-04-09T11:24:11Z</time>
      </trkpt>
      <trkpt lat="44.37468" lon="5.90339">
        <ele>603</ele>
        <time>2019-04-09T11:24:12Z</time>
      </trkpt>
      <trkpt lat="44.37472" lon="5.90345">
        <ele>604</ele>
        <time>2019-04-09T11:24:13Z</time>
      </trkpt>
      <trkpt lat="44.37476" lon="5.9035">
        <ele>604</ele>
        <time>2019-04-09T11:24:13Z</time>
      </trkpt>
      <trkpt lat="44.37481" lon="5.90355">
        <ele>604</ele>
        <time>2019-04-09T11:24:15Z</time>
      </trkpt>
      <trkpt lat="44.37485" lon="5.90361">
        <ele>604</ele>
        <time>2019-04-09T11:24:16Z</time>
      </trkpt>
      <trkpt lat="44.37489" lon="5.90366">
        <ele>604</ele>
        <time>2019-04-09T11:24:17Z</time>
      </trkpt>
      <trkpt lat="44.37493" lon="5.90372">
        <ele>605</ele>
        <time>2019-04-09T11:24:18Z</time>
      </trkpt>
      <trkpt lat="44.37498" lon="5.90377">
        <ele>605</ele>
        <time>2019-04-09T11:24:19Z</time>
      </trkpt>
      <trkpt lat="44.37502" lon="5.90383">
        <ele>605</ele>
        <time>2019-04-09T11:24:20Z</time>
      </trkpt>
      <trkpt lat="44.37506" lon="5.90388">
        <ele>605</ele>
        <time>2019-04-09T11:24:21Z</time>
      </trkpt>
      <trkpt lat="44.37511" lon="5.90394">
        <ele>605</ele>
        <time>2019-04-09T11:24:21Z</time>
      </trkpt>
      <trkpt lat="44.37515" lon="5.904">
        <ele>605</ele>
        <time>2019-04-09T11:24:23Z</time>
      </trkpt>
      <trkpt lat="44.37519" lon="5.90405">
        <ele>605</ele>
        <time>2019-04-09T11:24:24Z</time>
      </trkpt>
      <trkpt lat="44.37523" lon="5.9041">
        <ele>605</ele>
        <time>2019-04-09T11:24:25Z</time>
      </trkpt>
      <trkpt lat="44.37528" lon="5.90415">
        <ele>605</ele>
        <time>2019-04-09T11:24:26Z</time>
      </trkpt>
      <trkpt lat="44.37532" lon="5.9042">
        <ele>605</ele>
        <time>2019-04-09T11:24:27Z</time>
      </trkpt>
      <trkpt lat="44.37536" lon="5.90426">
        <ele>605</ele>
        <time>2019-04-09T11:24:28Z</time>
      </trkpt>
      <trkpt lat="44.3754" lon="5.90431">
        <ele>606</ele>
        <time>2019-04-09T11:24:29Z</time>
      </trkpt>
      <trkpt lat="44.37545" lon="5.90436">
        <ele>606</ele>
        <time>2019-04-09T11:24:30Z</time>
      </trkpt>
      <trkpt lat="44.37549" lon="5.90441">
        <ele>606</ele>
        <time>2019-04-09T11:24:31Z</time>
      </trkpt>
      <trkpt lat="44.37554" lon="5.90446">
        <ele>606</ele>
        <time>2019-04-09T11:24:32Z</time>
      </trkpt>
      <trkpt lat="44.37559" lon="5.9045">
        <ele>606</ele>
        <time>2019-04-09T11:24:33Z</time>
      </trkpt>
      <trkpt lat="44.37563" lon="5.90455">
        <ele>606</ele>
        <time>2019-04-09T11:24:34Z</time>
      </trkpt>
      <trkpt lat="44.37568" lon="5.90459">
        <ele>606</ele>
        <time>2019-04-09T11:24:35Z</time>
      </trkpt>
      <trkpt lat="44.37573" lon="5.90463">
        <ele>606</ele>
        <time>2019-04-09T11:24:36Z</time>
      </trkpt>
      <trkpt lat="44.37579" lon="5.90467">
        <ele>606</ele>
        <time>2019-04-09T11:24:37Z</time>
      </trkpt>
      <trkpt lat="44.37584" lon="5.90471">
        <ele>606</ele>
        <time>2019-04-09T11:24:38Z</time>
      </trkpt>
      <trkpt lat="44.3759" lon="5.90474">
        <ele>606</ele>
        <time>2019-04-09T11:24:39Z</time>
      </trkpt>
      <trkpt lat="44.37595" lon="5.90478">
        <ele>606</ele>
        <time>2019-04-09T11:24:40Z</time>
      </trkpt>
      <trkpt lat="44.37601" lon="5.90481">
        <ele>606</ele>
        <time>2019-04-09T11:24:41Z</time>
      </trkpt>
      <trkpt lat="44.37606" lon="5.90485">
        <ele>606</ele>
        <time>2019-04-09T11:24:41Z</time>
      </trkpt>
      <trkpt lat="44.37612" lon="5.90488">
        <ele>606</ele>
        <time>2019-04-09T11:24:43Z</time>
      </trkpt>
      <trkpt lat="44.37617" lon="5.90492">
        <ele>606</ele>
        <time>2019-04-09T11:24:44Z</time>
      </trkpt>
      <trkpt lat="44.37623" lon="5.90496">
        <ele>606</ele>
        <time>2019-04-09T11:24:45Z</time>
      </trkpt>
      <trkpt lat="44.37629" lon="5.905">
        <ele>606</ele>
        <time>2019-04-09T11:24:45Z</time>
      </trkpt>
      <trkpt lat="44.37634" lon="5.90503">
        <ele>606</ele>
        <time>2019-04-09T11:24:47Z</time>
      </trkpt>
      <trkpt lat="44.3764" lon="5.90507">
        <ele>606</ele>
        <time>2019-04-09T11:24:48Z</time>
      </trkpt>
      <trkpt lat="44.37645" lon="5.9051">
        <ele>606</ele>
        <time>2019-04-09T11:24:49Z</time>
      </trkpt>
      <trkpt lat="44.37651" lon="5.90514">
        <ele>606</ele>
        <time>2019-04-09T11:24:49Z</time>
      </trkpt>
      <trkpt lat="44.37657" lon="5.90518">
        <ele>606</ele>
        <time>2019-04-09T11:24:51Z</time>
      </trkpt>
      <trkpt lat="44.37663" lon="5.90522">
        <ele>606</ele>
        <time>2019-04-09T11:24:52Z</time>
      </trkpt>
      <trkpt lat="44.37668" lon="5.90525">
        <ele>606</ele>
        <time>2019-04-09T11:24:53Z</time>
      </trkpt>
      <trkpt lat="44.37674" lon="5.90529">
        <ele>606</ele>
        <time>2019-04-09T11:24:53Z</time>
      </trkpt>
      <trkpt lat="44.37679" lon="5.90534">
        <ele>606</ele>
        <time>2019-04-09T11:24:55Z</time>
      </trkpt>
      <trkpt lat="44.37685" lon="5.90539">
        <ele>606</ele>
        <time>2019-04-09T11:24:56Z</time>
      </trkpt>
      <trkpt lat="44.3769" lon="5.90544">
        <ele>606</ele>
        <time>2019-04-09T11:24:57Z</time>
      </trkpt>
      <trkpt lat="44.37696" lon="5.90549">
        <ele>606</ele>
        <time>2019-04-09T11:24:57Z</time>
      </trkpt>
      <trkpt lat="44.37701" lon="5.90554">
        <ele>606</ele>
        <time>2019-04-09T11:24:59Z</time>
      </trkpt>
      <trkpt lat="44.37706" lon="5.9056">
        <ele>606</ele>
        <time>2019-04-09T11:25:00Z</time>
      </trkpt>
      <trkpt lat="44.37711" lon="5.90565">
        <ele>606</ele>
        <time>2019-04-09T11:25:00Z</time>
      </trkpt>
      <trkpt lat="44.37716" lon="5.90572">
        <ele>606</ele>
        <time>2019-04-09T11:25:01Z</time>
      </trkpt>
      <trkpt lat="44.3772" lon="5.90578">
        <ele>606</ele>
        <time>2019-04-09T11:25:03Z</time>
      </trkpt>
      <trkpt lat="44.37725" lon="5.90585">
        <ele>606</ele>
        <time>2019-04-09T11:25:03Z</time>
      </trkpt>
      <trkpt lat="44.37729" lon="5.90591">
        <ele>606</ele>
        <time>2019-04-09T11:25:05Z</time>
      </trkpt>
      <trkpt lat="44.37734" lon="5.90598">
        <ele>606</ele>
        <time>2019-04-09T11:25:05Z</time>
      </trkpt>
      <trkpt lat="44.37738" lon="5.90605">
        <ele>606</ele>
        <time>2019-04-09T11:25:07Z</time>
      </trkpt>
      <trkpt lat="44.37743" lon="5.90612">
        <ele>606</ele>
        <time>2019-04-09T11:25:08Z</time>
      </trkpt>
      <trkpt lat="44.37747" lon="5.90619">
        <ele>606</ele>
        <time>2019-04-09T11:25:09Z</time>
      </trkpt>
      <trkpt lat="44.37752" lon="5.90625">
        <ele>606</ele>
        <time>2019-04-09T11:25:10Z</time>
      </trkpt>
      <trkpt lat="44.37757" lon="5.90632">
        <ele>606</ele>
        <time>2019-04-09T11:25:11Z</time>
      </trkpt>
      <trkpt lat="44.37762" lon="5.90638">
        <ele>606</ele>
        <time>2019-04-09T11:25:12Z</time>
      </trkpt>
      <trkpt lat="44.37768" lon="5.90644">
        <ele>606</ele>
        <time>2019-04-09T11:25:12Z</time>
      </trkpt>
      <trkpt lat="44.37774" lon="5.9065">
        <ele>606</ele>
        <time>2019-04-09T11:25:13Z</time>
      </trkpt>
      <trkpt lat="44.3778" lon="5.90657">
        <ele>606</ele>
        <time>2019-04-09T11:25:15Z</time>
      </trkpt>
      <trkpt lat="44.37786" lon="5.90662">
        <ele>606</ele>
        <time>2019-04-09T11:25:16Z</time>
      </trkpt>
      <trkpt lat="44.37792" lon="5.90668">
        <ele>606</ele>
        <time>2019-04-09T11:25:16Z</time>
      </trkpt>
      <trkpt lat="44.37798" lon="5.90674">
        <ele>606</ele>
        <time>2019-04-09T11:25:17Z</time>
      </trkpt>
      <trkpt lat="44.37805" lon="5.9068">
        <ele>606</ele>
        <time>2019-04-09T11:25:19Z</time>
      </trkpt>
      <trkpt lat="44.37811" lon="5.90686">
        <ele>606</ele>
        <time>2019-04-09T11:25:20Z</time>
      </trkpt>
      <trkpt lat="44.37817" lon="5.90692">
        <ele>606</ele>
        <time>2019-04-09T11:25:21Z</time>
      </trkpt>
      <trkpt lat="44.37824" lon="5.90698">
        <ele>606</ele>
        <time>2019-04-09T11:25:21Z</time>
      </trkpt>
      <trkpt lat="44.3783" lon="5.90704">
        <ele>606</ele>
        <time>2019-04-09T11:25:23Z</time>
      </trkpt>
      <trkpt lat="44.37836" lon="5.9071">
        <ele>606</ele>
        <time>2019-04-09T11:25:24Z</time>
      </trkpt>
      <trkpt lat="44.37843" lon="5.90716">
        <ele>606</ele>
        <time>2019-04-09T11:25:24Z</time>
      </trkpt>
      <trkpt lat="44.37849" lon="5.90722">
        <ele>606</ele>
        <time>2019-04-09T11:25:26Z</time>
      </trkpt>
      <trkpt lat="44.37855" lon="5.90728">
        <ele>606</ele>
        <time>2019-04-09T11:25:27Z</time>
      </trkpt>
      <trkpt lat="44.37862" lon="5.90733">
        <ele>606</ele>
        <time>2019-04-09T11:25:28Z</time>
      </trkpt>
      <trkpt lat="44.37868" lon="5.90739">
        <ele>606</ele>
        <time>2019-04-09T11:25:28Z</time>
      </trkpt>
      <trkpt lat="44.37875" lon="5.90745">
        <ele>606</ele>
        <time>2019-04-09T11:25:29Z</time>
      </trkpt>
      <trkpt lat="44.37881" lon="5.90751">
        <ele>606</ele>
        <time>2019-04-09T11:25:31Z</time>
      </trkpt>
      <trkpt lat="44.37887" lon="5.90757">
        <ele>606</ele>
        <time>2019-04-09T11:25:32Z</time>
      </trkpt>
      <trkpt lat="44.37894" lon="5.90763">
        <ele>606</ele>
        <time>2019-04-09T11:25:33Z</time>
      </trkpt>
      <trkpt lat="44.379" lon="5.90769">
        <ele>606</ele>
        <time>2019-04-09T11:25:34Z</time>
      </trkpt>
      <trkpt lat="44.37907" lon="5.90775">
        <ele>606</ele>
        <time>2019-04-09T11:25:34Z</time>
      </trkpt>
      <trkpt lat="44.37913" lon="5.90781">
        <ele>606</ele>
        <time>2019-04-09T11:25:36Z</time>
      </trkpt>
      <trkpt lat="44.37919" lon="5.90788">
        <ele>606</ele>
        <time>2019-04-09T11:25:36Z</time>
      </trkpt>
      <trkpt lat="44.37924" lon="5.90796">
        <ele>606</ele>
        <time>2019-04-09T11:25:37Z</time>
      </trkpt>
      <trkpt lat="44.3793" lon="5.90803">
        <ele>606</ele>
        <time>2019-04-09T11:25:39Z</time>
      </trkpt>
      <trkpt lat="44.37935" lon="5.90812">
        <ele>606</ele>
        <time>2019-04-09T11:25:40Z</time>
      </trkpt>
      <trkpt lat="44.3794" lon="5.9082">
        <ele>606</ele>
        <time>2019-04-09T11:25:40Z</time>
      </trkpt>
      <trkpt lat="44.37945" lon="5.90829">
        <ele>606</ele>
        <time>2019-04-09T11:25:42Z</time>
      </trkpt>
      <trkpt lat="44.37949" lon="5.90838">
        <ele>606</ele>
        <time>2019-04-09T11:25:43Z</time>
      </trkpt>
      <trkpt lat="44.37953" lon="5.90848">
        <ele>606</ele>
        <time>2019-04-09T11:25:44Z</time>
      </trkpt>
      <trkpt lat="44.37957" lon="5.90858">
        <ele>606</ele>
        <time>2019-04-09T11:25:44Z</time>
      </trkpt>
      <trkpt lat="44.37961" lon="5.90868">
        <ele>606</ele>
        <time>2019-04-09T11:25:45Z</time>
      </trkpt>
      <trkpt lat="44.37965" lon="5.90877">
        <ele>606</ele>
        <time>2019-04-09T11:25:47Z</time>
      </trkpt>
      <trkpt lat="44.37969" lon="5.90887">
        <ele>606</ele>
        <time>2019-04-09T11:25:47Z</time>
      </trkpt>
      <trkpt lat="44.37973" lon="5.90897">
        <ele>606</ele>
        <time>2019-04-09T11:25:48Z</time>
      </trkpt>
      <trkpt lat="44.37977" lon="5.90906">
        <ele>606</ele>
        <time>2019-04-09T11:25:49Z</time>
      </trkpt>
      <trkpt lat="44.37981" lon="5.90915">
        <ele>606</ele>
        <time>2019-04-09T11:25:51Z</time>
      </trkpt>
      <trkpt lat="44.37985" lon="5.90924">
        <ele>606</ele>
        <time>2019-04-09T11:25:52Z</time>
      </trkpt>
      <trkpt lat="44.37989" lon="5.90933">
        <ele>606</ele>
        <time>2019-04-09T11:25:52Z</time>
      </trkpt>
      <trkpt lat="44.37994" lon="5.90942">
        <ele>606</ele>
        <time>2019-04-09T11:25:53Z</time>
      </trkpt>
      <trkpt lat="44.37997" lon="5.9095">
        <ele>606</ele>
        <time>2019-04-09T11:25:55Z</time>
      </trkpt>
      <trkpt lat="44.38001" lon="5.90958">
        <ele>606</ele>
        <time>2019-04-09T11:25:56Z</time>
      </trkpt>
      <trkpt lat="44.38005" lon="5.90967">
        <ele>606</ele>
        <time>2019-04-09T11:25:56Z</time>
      </trkpt>
      <trkpt lat="44.38008" lon="5.90975">
        <ele>606</ele>
        <time>2019-04-09T11:25:58Z</time>
      </trkpt>
      <trkpt lat="44.38012" lon="5.90983">
        <ele>606</ele>
        <time>2019-04-09T11:25:59Z</time>
      </trkpt>
      <trkpt lat="44.38015" lon="5.90991">
        <ele>606</ele>
        <time>2019-04-09T11:26:00Z</time>
      </trkpt>
      <trkpt lat="44.38019" lon="5.90999">
        <ele>606</ele>
        <time>2019-04-09T11:26:00Z</time>
      </trkpt>
      <trkpt lat="44.38022" lon="5.91007">
        <ele>606</ele>
        <time>2019-04-09T11:26:01Z</time>
      </trkpt>
      <trkpt lat="44.38025" lon="5.91015">
        <ele>606</ele>
        <time>2019-04-09T11:26:03Z</time>
      </trkpt>
      <trkpt lat="44.38028" lon="5.91023">
        <ele>606</ele>
        <time>2019-04-09T11:26:04Z</time>
      </trkpt>
      <trkpt lat="44.38032" lon="5.91031">
        <ele>606</ele>
        <time>2019-04-09T11:26:04Z</time>
      </trkpt>
      <trkpt lat="44.38035" lon="5.91038">
        <ele>606</ele>
        <time>2019-04-09T11:26:05Z</time>
      </trkpt>
      <trkpt lat="44.38038" lon="5.91046">
        <ele>606</ele>
        <time>2019-04-09T11:26:07Z</time>
      </trkpt>
      <trkpt lat="44.38041" lon="5.91054">
        <ele>606</ele>
        <time>2019-04-09T11:26:08Z</time>
      </trkpt>
      <trkpt lat="44.38044" lon="5.91061">
        <ele>606</ele>
        <time>2019-04-09T11:26:09Z</time>
      </trkpt>
      <trkpt lat="44.38047" lon="5.91069">
        <ele>606</ele>
        <time>2019-04-09T11:26:09Z</time>
      </trkpt>
      <trkpt lat="44.3805" lon="5.91076">
        <ele>606</ele>
        <time>2019-04-09T11:26:10Z</time>
      </trkpt>
      <trkpt lat="44.38053" lon="5.91084">
        <ele>606</ele>
        <time>2019-04-09T11:26:11Z</time>
      </trkpt>
      <trkpt lat="44.38056" lon="5.91091">
        <ele>606</ele>
        <time>2019-04-09T11:26:12Z</time>
      </trkpt>
      <trkpt lat="44.38059" lon="5.91099">
        <ele>606</ele>
        <time>2019-04-09T11:26:14Z</time>
      </trkpt>
      <trkpt lat="44.38063" lon="5.91107">
        <ele>606</ele>
        <time>2019-04-09T11:26:15Z</time>
      </trkpt>
      <trkpt lat="44.38066" lon="5.91115">
        <ele>606</ele>
        <time>2019-04-09T11:26:15Z</time>
      </trkpt>
      <trkpt lat="44.38069" lon="5.91123">
        <ele>606</ele>
        <time>2019-04-09T11:26:16Z</time>
      </trkpt>
      <trkpt lat="44.38072" lon="5.91132">
        <ele>606</ele>
        <time>2019-04-09T11:26:17Z</time>
      </trkpt>
      <trkpt lat="44.38076" lon="5.91141">
        <ele>606</ele>
        <time>2019-04-09T11:26:19Z</time>
      </trkpt>
      <trkpt lat="44.38079" lon="5.91149">
        <ele>606</ele>
        <time>2019-04-09T11:26:19Z</time>
      </trkpt>
      <trkpt lat="44.38083" lon="5.91158">
        <ele>606</ele>
        <time>2019-04-09T11:26:20Z</time>
      </trkpt>
      <trkpt lat="44.38086" lon="5.91167">
        <ele>606</ele>
        <time>2019-04-09T11:26:21Z</time>
      </trkpt>
      <trkpt lat="44.3809" lon="5.91176">
        <ele>606</ele>
        <time>2019-04-09T11:26:22Z</time>
      </trkpt>
      <trkpt lat="44.38094" lon="5.91185">
        <ele>606</ele>
        <time>2019-04-09T11:26:24Z</time>
      </trkpt>
      <trkpt lat="44.38097" lon="5.91194">
        <ele>606</ele>
        <time>2019-04-09T11:26:24Z</time>
      </trkpt>
      <trkpt lat="44.38101" lon="5.91203">
        <ele>606</ele>
        <time>2019-04-09T11:26:25Z</time>
      </trkpt>
      <trkpt lat="44.38104" lon="5.91212">
        <ele>606</ele>
        <time>2019-04-09T11:26:26Z</time>
      </trkpt>
      <trkpt lat="44.38108" lon="5.91222">
        <ele>606</ele>
        <time>2019-04-09T11:26:28Z</time>
      </trkpt>
      <trkpt lat="44.38112" lon="5.91231">
        <ele>606</ele>
        <time>2019-04-09T11:26:29Z</time>
      </trkpt>
      <trkpt lat="44.38115" lon="5.9124">
        <ele>606</ele>
        <time>2019-04-09T11:26:29Z</time>
      </trkpt>
      <trkpt lat="44.38119" lon="5.91249">
        <ele>606</ele>
        <time>2019-04-09T11:26:30Z</time>
      </trkpt>
      <trkpt lat="44.38123" lon="5.91258">
        <ele>606</ele>
        <time>2019-04-09T11:26:31Z</time>
      </trkpt>
      <trkpt lat="44.38126" lon="5.91267">
        <ele>606</ele>
        <time>2019-04-09T11:26:32Z</time>
      </trkpt>
      <trkpt lat="44.38129" lon="5.91276">
        <ele>606</ele>
        <time>2019-04-09T11:26:34Z</time>
      </trkpt>
      <trkpt lat="44.38133" lon="5.91285">
        <ele>606</ele>
        <time>2019-04-09T11:26:34Z</time>
      </trkpt>
      <trkpt lat="44.38137" lon="5.91295">
        <ele>606</ele>
        <time>2019-04-09T11:26:35Z</time>
      </trkpt>
      <trkpt lat="44.3814" lon="5.91304">
        <ele>606</ele>
        <time>2019-04-09T11:26:36Z</time>
      </trkpt>
      <trkpt lat="44.38144" lon="5.91313">
        <ele>606</ele>
        <time>2019-04-09T11:26:37Z</time>
      </trkpt>
      <trkpt lat="44.38148" lon="5.91322">
        <ele>606</ele>
        <time>2019-04-09T11:26:39Z</time>
      </trkpt>
      <trkpt lat="44.38151" lon="5.91331">
        <ele>606</ele>
        <time>2019-04-09T11:26:40Z</time>
      </trkpt>
      <trkpt lat="44.38155" lon="5.91341">
        <ele>606</ele>
        <time>2019-04-09T11:26:40Z</time>
      </trkpt>
      <trkpt lat="44.38159" lon="5.9135">
        <ele>606</ele>
        <time>2019-04-09T11:26:41Z</time>
      </trkpt>
      <trkpt lat="44.38163" lon="5.91359">
        <ele>606</ele>
        <time>2019-04-09T11:26:42Z</time>
      </trkpt>
      <trkpt lat="44.38167" lon="5.91368">
        <ele>606</ele>
        <time>2019-04-09T11:26:43Z</time>
      </trkpt>
      <trkpt lat="44.38171" lon="5.91377">
        <ele>606</ele>
        <time>2019-04-09T11:26:45Z</time>
      </trkpt>
      <trkpt lat="44.38175" lon="5.91386">
        <ele>606</ele>
        <time>2019-04-09T11:26:45Z</time>
      </trkpt>
      <trkpt lat="44.3818" lon="5.91395">
        <ele>606</ele>
        <time>2019-04-09T11:26:46Z</time>
      </trkpt>
      <trkpt lat="44.38184" lon="5.91403">
        <ele>606</ele>
        <time>2019-04-09T11:26:47Z</time>
      </trkpt>
      <trkpt lat="44.38189" lon="5.91412">
        <ele>606</ele>
        <time>2019-04-09T11:26:48Z</time>
      </trkpt>
      <trkpt lat="44.38194" lon="5.91421">
        <ele>606</ele>
        <time>2019-04-09T11:26:50Z</time>
      </trkpt>
      <trkpt lat="44.38198" lon="5.91429">
        <ele>606</ele>
        <time>2019-04-09T11:26:50Z</time>
      </trkpt>
      <trkpt lat="44.38203" lon="5.91438">
        <ele>606</ele>
        <time>2019-04-09T11:26:51Z</time>
      </trkpt>
      <trkpt lat="44.38208" lon="5.91447">
        <ele>606</ele>
        <time>2019-04-09T11:26:52Z</time>
      </trkpt>
      <trkpt lat="44.38213" lon="5.91456">
        <ele>606</ele>
        <time>2019-04-09T11:26:53Z</time>
      </trkpt>
      <trkpt lat="44.38218" lon="5.91465">
        <ele>606</ele>
        <time>2019-04-09T11:26:55Z</time>
      </trkpt>
      <trkpt lat="44.38222" lon="5.91474">
        <ele>606</ele>
        <time>2019-04-09T11:26:55Z</time>
      </trkpt>
      <trkpt lat="44.38227" lon="5.91483">
        <ele>606</ele>
        <time>2019-04-09T11:26:56Z</time>
      </trkpt>
      <trkpt lat="44.38232" lon="5.91492">
        <ele>606</ele>
        <time>2019-04-09T11:26:57Z</time>
      </trkpt>
      <trkpt lat="44.38237" lon="5.91501">
        <ele>606</ele>
        <time>2019-04-09T11:26:58Z</time>
      </trkpt>
      <trkpt lat="44.38242" lon="5.9151">
        <ele>606</ele>
        <time>2019-04-09T11:27:00Z</time>
      </trkpt>
      <trkpt lat="44.38246" lon="5.91519">
        <ele>606</ele>
        <time>2019-04-09T11:27:00Z</time>
      </trkpt>
      <trkpt lat="44.38251" lon="5.91528">
        <ele>606</ele>
        <time>2019-04-09T11:27:01Z</time>
      </trkpt>
      <trkpt lat="44.38255" lon="5.91536">
        <ele>606</ele>
        <time>2019-04-09T11:27:02Z</time>
      </trkpt>
      <trkpt lat="44.3826" lon="5.91545">
        <ele>606</ele>
        <time>2019-04-09T11:27:03Z</time>
      </trkpt>
      <trkpt lat="44.38265" lon="5.91554">
        <ele>606</ele>
        <time>2019-04-09T11:27:05Z</time>
      </trkpt>
      <trkpt lat="44.38269" lon="5.91562">
        <ele>606</ele>
        <time>2019-04-09T11:27:05Z</time>
      </trkpt>
      <trkpt lat="44.38274" lon="5.91571">
        <ele>606</ele>
        <time>2019-04-09T11:27:06Z</time>
      </trkpt>
      <trkpt lat="44.38279" lon="5.91579">
        <ele>606</ele>
        <time>2019-04-09T11:27:07Z</time>
      </trkpt>
      <trkpt lat="44.38283" lon="5.91588">
        <ele>606</ele>
        <time>2019-04-09T11:27:08Z</time>
      </trkpt>
      <trkpt lat="44.38287" lon="5.91597">
        <ele>606</ele>
        <time>2019-04-09T11:27:09Z</time>
      </trkpt>
      <trkpt lat="44.38292" lon="5.91606">
        <ele>606</ele>
        <time>2019-04-09T11:27:10Z</time>
      </trkpt>
      <trkpt lat="44.38297" lon="5.91614">
        <ele>606</ele>
        <time>2019-04-09T11:27:11Z</time>
      </trkpt>
      <trkpt lat="44.38301" lon="5.91623">
        <ele>606</ele>
        <time>2019-04-09T11:27:12Z</time>
      </trkpt>
      <trkpt lat="44.38306" lon="5.91631">
        <ele>606</ele>
        <time>2019-04-09T11:27:13Z</time>
      </trkpt>
      <trkpt lat="44.38311" lon="5.9164">
        <ele>606</ele>
        <time>2019-04-09T11:27:15Z</time>
      </trkpt>
      <trkpt lat="44.38316" lon="5.91648">
        <ele>606</ele>
        <time>2019-04-09T11:27:15Z</time>
      </trkpt>
      <trkpt lat="44.3832" lon="5.91657">
        <ele>606</ele>
        <time>2019-04-09T11:27:16Z</time>
      </trkpt>
      <trkpt lat="44.38325" lon="5.91666">
        <ele>606</ele>
        <time>2019-04-09T11:27:17Z</time>
      </trkpt>
      <trkpt lat="44.38329" lon="5.91675">
        <ele>606</ele>
        <time>2019-04-09T11:27:18Z</time>
      </trkpt>
      <trkpt lat="44.38334" lon="5.91683">
        <ele>606</ele>
        <time>2019-04-09T11:27:20Z</time>
      </trkpt>
      <trkpt lat="44.38339" lon="5.91692">
        <ele>606</ele>
        <time>2019-04-09T11:27:20Z</time>
      </trkpt>
      <trkpt lat="44.38344" lon="5.91701">
        <ele>606</ele>
        <time>2019-04-09T11:27:21Z</time>
      </trkpt>
      <trkpt lat="44.38348" lon="5.9171">
        <ele>606</ele>
        <time>2019-04-09T11:27:22Z</time>
      </trkpt>
      <trkpt lat="44.38353" lon="5.91719">
        <ele>606</ele>
        <time>2019-04-09T11:27:23Z</time>
      </trkpt>
      <trkpt lat="44.38358" lon="5.91727">
        <ele>606</ele>
        <time>2019-04-09T11:27:25Z</time>
      </trkpt>
      <trkpt lat="44.38362" lon="5.91736">
        <ele>606</ele>
        <time>2019-04-09T11:27:25Z</time>
      </trkpt>
      <trkpt lat="44.38367" lon="5.91745">
        <ele>606</ele>
        <time>2019-04-09T11:27:26Z</time>
      </trkpt>
      <trkpt lat="44.38372" lon="5.91753">
        <ele>606</ele>
        <time>2019-04-09T11:27:27Z</time>
      </trkpt>
      <trkpt lat="44.38376" lon="5.91762">
        <ele>606</ele>
        <time>2019-04-09T11:27:28Z</time>
      </trkpt>
      <trkpt lat="44.3838" lon="5.9177">
        <ele>606</ele>
        <time>2019-04-09T11:27:30Z</time>
      </trkpt>
      <trkpt lat="44.38385" lon="5.91779">
        <ele>605</ele>
        <time>2019-04-09T11:27:30Z</time>
      </trkpt>
      <trkpt lat="44.38389" lon="5.91787">
        <ele>605</ele>
        <time>2019-04-09T11:27:31Z</time>
      </trkpt>
      <trkpt lat="44.38393" lon="5.91795">
        <ele>605</ele>
        <time>2019-04-09T11:27:32Z</time>
      </trkpt>
      <trkpt lat="44.38398" lon="5.91804">
        <ele>605</ele>
        <time>2019-04-09T11:27:34Z</time>
      </trkpt>
      <trkpt lat="44.38403" lon="5.91812">
        <ele>605</ele>
        <time>2019-04-09T11:27:35Z</time>
      </trkpt>
      <trkpt lat="44.38408" lon="5.9182">
        <ele>605</ele>
        <time>2019-04-09T11:27:35Z</time>
      </trkpt>
      <trkpt lat="44.38412" lon="5.91829">
        <ele>605</ele>
        <time>2019-04-09T11:27:36Z</time>
      </trkpt>
      <trkpt lat="44.38417" lon="5.91837">
        <ele>605</ele>
        <time>2019-04-09T11:27:37Z</time>
      </trkpt>
      <trkpt lat="44.38422" lon="5.91846">
        <ele>605</ele>
        <time>2019-04-09T11:27:38Z</time>
      </trkpt>
      <trkpt lat="44.38426" lon="5.91855">
        <ele>605</ele>
        <time>2019-04-09T11:27:40Z</time>
      </trkpt>
      <trkpt lat="44.38431" lon="5.91863">
        <ele>605</ele>
        <time>2019-04-09T11:27:40Z</time>
      </trkpt>
      <trkpt lat="44.38435" lon="5.91872">
        <ele>605</ele>
        <time>2019-04-09T11:27:41Z</time>
      </trkpt>
      <trkpt lat="44.3844" lon="5.91881">
        <ele>605</ele>
        <time>2019-04-09T11:27:42Z</time>
      </trkpt>
      <trkpt lat="44.38445" lon="5.91889">
        <ele>605</ele>
        <time>2019-04-09T11:27:43Z</time>
      </trkpt>
      <trkpt lat="44.3845" lon="5.91898">
        <ele>604</ele>
        <time>2019-04-09T11:27:45Z</time>
      </trkpt>
      <trkpt lat="44.38454" lon="5.91907">
        <ele>604</ele>
        <time>2019-04-09T11:27:45Z</time>
      </trkpt>
      <trkpt lat="44.38459" lon="5.91916">
        <ele>604</ele>
        <time>2019-04-09T11:27:46Z</time>
      </trkpt>
      <trkpt lat="44.38464" lon="5.91925">
        <ele>604</ele>
        <time>2019-04-09T11:27:47Z</time>
      </trkpt>
      <trkpt lat="44.38469" lon="5.91934">
        <ele>604</ele>
        <time>2019-04-09T11:27:48Z</time>
      </trkpt>
      <trkpt lat="44.38474" lon="5.91944">
        <ele>604</ele>
        <time>2019-04-09T11:27:50Z</time>
      </trkpt>
      <trkpt lat="44.38479" lon="5.91953">
        <ele>604</ele>
        <time>2019-04-09T11:27:51Z</time>
      </trkpt>
      <trkpt lat="44.38484" lon="5.91962">
        <ele>604</ele>
        <time>2019-04-09T11:27:51Z</time>
      </trkpt>
      <trkpt lat="44.38489" lon="5.91971">
        <ele>604</ele>
        <time>2019-04-09T11:27:52Z</time>
      </trkpt>
      <trkpt lat="44.38494" lon="5.9198">
        <ele>603</ele>
        <time>2019-04-09T11:27:53Z</time>
      </trkpt>
      <trkpt lat="44.38499" lon="5.91989">
        <ele>603</ele>
        <time>2019-04-09T11:27:55Z</time>
      </trkpt>
      <trkpt lat="44.38504" lon="5.91999">
        <ele>603</ele>
        <time>2019-04-09T11:27:55Z</time>
      </trkpt>
      <trkpt lat="44.38509" lon="5.92008">
        <ele>602</ele>
        <time>2019-04-09T11:27:56Z</time>
      </trkpt>
      <trkpt lat="44.38514" lon="5.92018">
        <ele>602</ele>
        <time>2019-04-09T11:27:57Z</time>
      </trkpt>
      <trkpt lat="44.3852" lon="5.92028">
        <ele>602</ele>
        <time>2019-04-09T11:27:58Z</time>
      </trkpt>
      <trkpt lat="44.38525" lon="5.92038">
        <ele>601</ele>
        <time>2019-04-09T11:28:00Z</time>
      </trkpt>
      <trkpt lat="44.3853" lon="5.92049">
        <ele>601</ele>
        <time>2019-04-09T11:28:00Z</time>
      </trkpt>
      <trkpt lat="44.38535" lon="5.92059">
        <ele>601</ele>
        <time>2019-04-09T11:28:01Z</time>
      </trkpt>
      <trkpt lat="44.38541" lon="5.92069">
        <ele>601</ele>
        <time>2019-04-09T11:28:03Z</time>
      </trkpt>
      <trkpt lat="44.38546" lon="5.92079">
        <ele>601</ele>
        <time>2019-04-09T11:28:03Z</time>
      </trkpt>
      <trkpt lat="44.38551" lon="5.92089">
        <ele>601</ele>
        <time>2019-04-09T11:28:05Z</time>
      </trkpt>
      <trkpt lat="44.38556" lon="5.92099">
        <ele>601</ele>
        <time>2019-04-09T11:28:06Z</time>
      </trkpt>
      <trkpt lat="44.38561" lon="5.92109">
        <ele>600</ele>
        <time>2019-04-09T11:28:06Z</time>
      </trkpt>
      <trkpt lat="44.38565" lon="5.92119">
        <ele>600</ele>
        <time>2019-04-09T11:28:07Z</time>
      </trkpt>
      <trkpt lat="44.38568" lon="5.9213">
        <ele>600</ele>
        <time>2019-04-09T11:28:08Z</time>
      </trkpt>
      <trkpt lat="44.38572" lon="5.9214">
        <ele>600</ele>
        <time>2019-04-09T11:28:10Z</time>
      </trkpt>
      <trkpt lat="44.38575" lon="5.92151">
        <ele>600</ele>
        <time>2019-04-09T11:28:10Z</time>
      </trkpt>
      <trkpt lat="44.38578" lon="5.92162">
        <ele>600</ele>
        <time>2019-04-09T11:28:11Z</time>
      </trkpt>
      <trkpt lat="44.38581" lon="5.92173">
        <ele>600</ele>
        <time>2019-04-09T11:28:12Z</time>
      </trkpt>
      <trkpt lat="44.38585" lon="5.92183">
        <ele>600</ele>
        <time>2019-04-09T11:28:13Z</time>
      </trkpt>
      <trkpt lat="44.38588" lon="5.92194">
        <ele>600</ele>
        <time>2019-04-09T11:28:15Z</time>
      </trkpt>
      <trkpt lat="44.38591" lon="5.92204">
        <ele>600</ele>
        <time>2019-04-09T11:28:15Z</time>
      </trkpt>
      <trkpt lat="44.38594" lon="5.92214">
        <ele>600</ele>
        <time>2019-04-09T11:28:16Z</time>
      </trkpt>
      <trkpt lat="44.38597" lon="5.92224">
        <ele>600</ele>
        <time>2019-04-09T11:28:17Z</time>
      </trkpt>
      <trkpt lat="44.38601" lon="5.92234">
        <ele>600</ele>
        <time>2019-04-09T11:28:18Z</time>
      </trkpt>
      <trkpt lat="44.38604" lon="5.92243">
        <ele>600</ele>
        <time>2019-04-09T11:28:20Z</time>
      </trkpt>
      <trkpt lat="44.38607" lon="5.92252">
        <ele>600</ele>
        <time>2019-04-09T11:28:20Z</time>
      </trkpt>
      <trkpt lat="44.3861" lon="5.92261">
        <ele>600</ele>
        <time>2019-04-09T11:28:21Z</time>
      </trkpt>
      <trkpt lat="44.38613" lon="5.9227">
        <ele>600</ele>
        <time>2019-04-09T11:28:22Z</time>
      </trkpt>
      <trkpt lat="44.38616" lon="5.92279">
        <ele>600</ele>
        <time>2019-04-09T11:28:23Z</time>
      </trkpt>
      <trkpt lat="44.38619" lon="5.92287">
        <ele>600</ele>
        <time>2019-04-09T11:28:25Z</time>
      </trkpt>
      <trkpt lat="44.38622" lon="5.92295">
        <ele>600</ele>
        <time>2019-04-09T11:28:25Z</time>
      </trkpt>
      <trkpt lat="44.38625" lon="5.92303">
        <ele>600</ele>
        <time>2019-04-09T11:28:27Z</time>
      </trkpt>
      <trkpt lat="44.38629" lon="5.92311">
        <ele>600</ele>
        <time>2019-04-09T11:28:27Z</time>
      </trkpt>
      <trkpt lat="44.38632" lon="5.92319">
        <ele>600</ele>
        <time>2019-04-09T11:28:28Z</time>
      </trkpt>
      <trkpt lat="44.38635" lon="5.92327">
        <ele>600</ele>
        <time>2019-04-09T11:28:30Z</time>
      </trkpt>
      <trkpt lat="44.38638" lon="5.92335">
        <ele>600</ele>
        <time>2019-04-09T11:28:31Z</time>
      </trkpt>
      <trkpt lat="44.38641" lon="5.92344">
        <ele>600</ele>
        <time>2019-04-09T11:28:31Z</time>
      </trkpt>
      <trkpt lat="44.38644" lon="5.92352">
        <ele>600</ele>
        <time>2019-04-09T11:28:32Z</time>
      </trkpt>
      <trkpt lat="44.38647" lon="5.92361">
        <ele>600</ele>
        <time>2019-04-09T11:28:34Z</time>
      </trkpt>
      <trkpt lat="44.38649" lon="5.9237">
        <ele>600</ele>
        <time>2019-04-09T11:28:35Z</time>
      </trkpt>
      <trkpt lat="44.38652" lon="5.92378">
        <ele>600</ele>
        <time>2019-04-09T11:28:36Z</time>
      </trkpt>
      <trkpt lat="44.38653" lon="5.92387">
        <ele>600</ele>
        <time>2019-04-09T11:28:36Z</time>
      </trkpt>
      <trkpt lat="44.38655" lon="5.92397">
        <ele>600</ele>
        <time>2019-04-09T11:28:37Z</time>
      </trkpt>
      <trkpt lat="44.38657" lon="5.92406">
        <ele>600</ele>
        <time>2019-04-09T11:28:38Z</time>
      </trkpt>
      <trkpt lat="44.38657" lon="5.92416">
        <ele>600</ele>
        <time>2019-04-09T11:28:40Z</time>
      </trkpt>
      <trkpt lat="44.38658" lon="5.92426">
        <ele>600</ele>
        <time>2019-04-09T11:28:40Z</time>
      </trkpt>
      <trkpt lat="44.38659" lon="5.92436">
        <ele>600</ele>
        <time>2019-04-09T11:28:41Z</time>
      </trkpt>
      <trkpt lat="44.3866" lon="5.92447">
        <ele>600</ele>
        <time>2019-04-09T11:28:42Z</time>
      </trkpt>
      <trkpt lat="44.3866" lon="5.92457">
        <ele>600</ele>
        <time>2019-04-09T11:28:43Z</time>
      </trkpt>
      <trkpt lat="44.3866" lon="5.92468">
        <ele>600</ele>
        <time>2019-04-09T11:28:44Z</time>
      </trkpt>
      <trkpt lat="44.3866" lon="5.92478">
        <ele>600</ele>
        <time>2019-04-09T11:28:46Z</time>
      </trkpt>
      <trkpt lat="44.38661" lon="5.92489">
        <ele>600</ele>
        <time>2019-04-09T11:28:46Z</time>
      </trkpt>
      <trkpt lat="44.38661" lon="5.92499">
        <ele>600</ele>
        <time>2019-04-09T11:28:47Z</time>
      </trkpt>
      <trkpt lat="44.38661" lon="5.9251">
        <ele>600</ele>
        <time>2019-04-09T11:28:48Z</time>
      </trkpt>
      <trkpt lat="44.38662" lon="5.9252">
        <ele>600</ele>
        <time>2019-04-09T11:28:49Z</time>
      </trkpt>
      <trkpt lat="44.38663" lon="5.9253">
        <ele>600</ele>
        <time>2019-04-09T11:28:51Z</time>
      </trkpt>
      <trkpt lat="44.38664" lon="5.92541">
        <ele>600</ele>
        <time>2019-04-09T11:28:51Z</time>
      </trkpt>
      <trkpt lat="44.38665" lon="5.92552">
        <ele>600</ele>
        <time>2019-04-09T11:28:52Z</time>
      </trkpt>
      <trkpt lat="44.38666" lon="5.92563">
        <ele>600</ele>
        <time>2019-04-09T11:28:53Z</time>
      </trkpt>
      <trkpt lat="44.38668" lon="5.92574">
        <ele>600</ele>
        <time>2019-04-09T11:28:54Z</time>
      </trkpt>
      <trkpt lat="44.38671" lon="5.92586">
        <ele>600</ele>
        <time>2019-04-09T11:28:56Z</time>
      </trkpt>
      <trkpt lat="44.38673" lon="5.92597">
        <ele>600</ele>
        <time>2019-04-09T11:28:56Z</time>
      </trkpt>
      <trkpt lat="44.38676" lon="5.92609">
        <ele>600</ele>
        <time>2019-04-09T11:28:57Z</time>
      </trkpt>
      <trkpt lat="44.38679" lon="5.92621">
        <ele>600</ele>
        <time>2019-04-09T11:28:58Z</time>
      </trkpt>
      <trkpt lat="44.38682" lon="5.92633">
        <ele>600</ele>
        <time>2019-04-09T11:28:59Z</time>
      </trkpt>
      <trkpt lat="44.38685" lon="5.92645">
        <ele>599</ele>
        <time>2019-04-09T11:29:01Z</time>
      </trkpt>
      <trkpt lat="44.38688" lon="5.92658">
        <ele>599</ele>
        <time>2019-04-09T11:29:01Z</time>
      </trkpt>
      <trkpt lat="44.38691" lon="5.9267">
        <ele>598</ele>
        <time>2019-04-09T11:29:02Z</time>
      </trkpt>
      <trkpt lat="44.38693" lon="5.92683">
        <ele>598</ele>
        <time>2019-04-09T11:29:03Z</time>
      </trkpt>
      <trkpt lat="44.38696" lon="5.92697">
        <ele>598</ele>
        <time>2019-04-09T11:29:04Z</time>
      </trkpt>
      <trkpt lat="44.38697" lon="5.9271">
        <ele>597</ele>
        <time>2019-04-09T11:29:06Z</time>
      </trkpt>
      <trkpt lat="44.38697" lon="5.92724">
        <ele>597</ele>
        <time>2019-04-09T11:29:07Z</time>
      </trkpt>
      <trkpt lat="44.38696" lon="5.92737">
        <ele>597</ele>
        <time>2019-04-09T11:29:07Z</time>
      </trkpt>
      <trkpt lat="44.38695" lon="5.92751">
        <ele>596</ele>
        <time>2019-04-09T11:29:08Z</time>
      </trkpt>
      <trkpt lat="44.38693" lon="5.92764">
        <ele>596</ele>
        <time>2019-04-09T11:29:09Z</time>
      </trkpt>
      <trkpt lat="44.3869" lon="5.92777">
        <ele>595</ele>
        <time>2019-04-09T11:29:11Z</time>
      </trkpt>
      <trkpt lat="44.38688" lon="5.9279">
        <ele>595</ele>
        <time>2019-04-09T11:29:11Z</time>
      </trkpt>
      <trkpt lat="44.38685" lon="5.92802">
        <ele>595</ele>
        <time>2019-04-09T11:29:12Z</time>
      </trkpt>
      <trkpt lat="44.38683" lon="5.92814">
        <ele>594</ele>
        <time>2019-04-09T11:29:13Z</time>
      </trkpt>
      <trkpt lat="44.38683" lon="5.92827">
        <ele>594</ele>
        <time>2019-04-09T11:29:15Z</time>
      </trkpt>
      <trkpt lat="44.38682" lon="5.92839">
        <ele>594</ele>
        <time>2019-04-09T11:29:16Z</time>
      </trkpt>
      <trkpt lat="44.38683" lon="5.92851">
        <ele>594</ele>
        <time>2019-04-09T11:29:16Z</time>
      </trkpt>
      <trkpt lat="44.38683" lon="5.92863">
        <ele>594</ele>
        <time>2019-04-09T11:29:17Z</time>
      </trkpt>
      <trkpt lat="44.38683" lon="5.92874">
        <ele>594</ele>
        <time>2019-04-09T11:29:18Z</time>
      </trkpt>
      <trkpt lat="44.38683" lon="5.92886">
        <ele>594</ele>
        <time>2019-04-09T11:29:19Z</time>
      </trkpt>
      <trkpt lat="44.38681" lon="5.92898">
        <ele>593</ele>
        <time>2019-04-09T11:29:21Z</time>
      </trkpt>
      <trkpt lat="44.3868" lon="5.9291">
        <ele>593</ele>
        <time>2019-04-09T11:29:21Z</time>
      </trkpt>
      <trkpt lat="44.38678" lon="5.92922">
        <ele>593</ele>
        <time>2019-04-09T11:29:22Z</time>
      </trkpt>
      <trkpt lat="44.38676" lon="5.92933">
        <ele>593</ele>
        <time>2019-04-09T11:29:23Z</time>
      </trkpt>
      <trkpt lat="44.38673" lon="5.92944">
        <ele>593</ele>
        <time>2019-04-09T11:29:24Z</time>
      </trkpt>
      <trkpt lat="44.3867" lon="5.92955">
        <ele>592</ele>
        <time>2019-04-09T11:29:26Z</time>
      </trkpt>
      <trkpt lat="44.38668" lon="5.92967">
        <ele>592</ele>
        <time>2019-04-09T11:29:26Z</time>
      </trkpt>
      <trkpt lat="44.38666" lon="5.92978">
        <ele>592</ele>
        <time>2019-04-09T11:29:27Z</time>
      </trkpt>
      <trkpt lat="44.38664" lon="5.92989">
        <ele>591</ele>
        <time>2019-04-09T11:29:28Z</time>
      </trkpt>
      <trkpt lat="44.38664" lon="5.93001">
        <ele>591</ele>
        <time>2019-04-09T11:29:29Z</time>
      </trkpt>
      <trkpt lat="44.38664" lon="5.93013">
        <ele>591</ele>
        <time>2019-04-09T11:29:31Z</time>
      </trkpt>
      <trkpt lat="44.38665" lon="5.93025">
        <ele>591</ele>
        <time>2019-04-09T11:29:31Z</time>
      </trkpt>
      <trkpt lat="44.38666" lon="5.93037">
        <ele>591</ele>
        <time>2019-04-09T11:29:32Z</time>
      </trkpt>
      <trkpt lat="44.38668" lon="5.93048">
        <ele>590</ele>
        <time>2019-04-09T11:29:34Z</time>
      </trkpt>
      <trkpt lat="44.3867" lon="5.93059">
        <ele>590</ele>
        <time>2019-04-09T11:29:34Z</time>
      </trkpt>
      <trkpt lat="44.38672" lon="5.93071">
        <ele>590</ele>
        <time>2019-04-09T11:29:36Z</time>
      </trkpt>
      <trkpt lat="44.38674" lon="5.93082">
        <ele>590</ele>
        <time>2019-04-09T11:29:36Z</time>
      </trkpt>
      <trkpt lat="44.38676" lon="5.93093">
        <ele>590</ele>
        <time>2019-04-09T11:29:37Z</time>
      </trkpt>
      <trkpt lat="44.38678" lon="5.93105">
        <ele>590</ele>
        <time>2019-04-09T11:29:38Z</time>
      </trkpt>
      <trkpt lat="44.3868" lon="5.93116">
        <ele>590</ele>
        <time>2019-04-09T11:29:39Z</time>
      </trkpt>
      <trkpt lat="44.38682" lon="5.93127">
        <ele>589</ele>
        <time>2019-04-09T11:29:41Z</time>
      </trkpt>
      <trkpt lat="44.38685" lon="5.93139">
        <ele>589</ele>
        <time>2019-04-09T11:29:41Z</time>
      </trkpt>
      <trkpt lat="44.38687" lon="5.93151">
        <ele>589</ele>
        <time>2019-04-09T11:29:42Z</time>
      </trkpt>
      <trkpt lat="44.38689" lon="5.93162">
        <ele>589</ele>
        <time>2019-04-09T11:29:43Z</time>
      </trkpt>
      <trkpt lat="44.38692" lon="5.93174">
        <ele>589</ele>
        <time>2019-04-09T11:29:44Z</time>
      </trkpt>
      <trkpt lat="44.38694" lon="5.93185">
        <ele>589</ele>
        <time>2019-04-09T11:29:46Z</time>
      </trkpt>
      <trkpt lat="44.38697" lon="5.93197">
        <ele>589</ele>
        <time>2019-04-09T11:29:46Z</time>
      </trkpt>
      <trkpt lat="44.387" lon="5.93208">
        <ele>589</ele>
        <time>2019-04-09T11:29:47Z</time>
      </trkpt>
      <trkpt lat="44.38704" lon="5.93219">
        <ele>588</ele>
        <time>2019-04-09T11:29:48Z</time>
      </trkpt>
      <trkpt lat="44.38707" lon="5.93231">
        <ele>588</ele>
        <time>2019-04-09T11:29:49Z</time>
      </trkpt>
      <trkpt lat="44.3871" lon="5.93243">
        <ele>588</ele>
        <time>2019-04-09T11:29:51Z</time>
      </trkpt>
      <trkpt lat="44.38713" lon="5.93255">
        <ele>588</ele>
        <time>2019-04-09T11:29:51Z</time>
      </trkpt>
      <trkpt lat="44.38715" lon="5.93267">
        <ele>588</ele>
        <time>2019-04-09T11:29:52Z</time>
      </trkpt>
      <trkpt lat="44.38718" lon="5.93279">
        <ele>587</ele>
        <time>2019-04-09T11:29:53Z</time>
      </trkpt>
      <trkpt lat="44.3872" lon="5.93291">
        <ele>587</ele>
        <time>2019-04-09T11:29:54Z</time>
      </trkpt>
      <trkpt lat="44.38722" lon="5.93303">
        <ele>587</ele>
        <time>2019-04-09T11:29:56Z</time>
      </trkpt>
      <trkpt lat="44.38723" lon="5.93315">
        <ele>587</ele>
        <time>2019-04-09T11:29:56Z</time>
      </trkpt>
      <trkpt lat="44.38723" lon="5.93327">
        <ele>586</ele>
        <time>2019-04-09T11:29:57Z</time>
      </trkpt>
      <trkpt lat="44.38723" lon="5.93339">
        <ele>586</ele>
        <time>2019-04-09T11:29:58Z</time>
      </trkpt>
      <trkpt lat="44.38723" lon="5.93351">
        <ele>586</ele>
        <time>2019-04-09T11:29:59Z</time>
      </trkpt>
      <trkpt lat="44.38723" lon="5.93363">
        <ele>586</ele>
        <time>2019-04-09T11:30:01Z</time>
      </trkpt>
      <trkpt lat="44.38722" lon="5.93374">
        <ele>585</ele>
        <time>2019-04-09T11:30:01Z</time>
      </trkpt>
      <trkpt lat="44.38721" lon="5.93385">
        <ele>585</ele>
        <time>2019-04-09T11:30:02Z</time>
      </trkpt>
      <trkpt lat="44.3872" lon="5.93396">
        <ele>585</ele>
        <time>2019-04-09T11:30:03Z</time>
      </trkpt>
      <trkpt lat="44.3872" lon="5.93407">
        <ele>584</ele>
        <time>2019-04-09T11:30:04Z</time>
      </trkpt>
      <trkpt lat="44.3872" lon="5.93419">
        <ele>584</ele>
        <time>2019-04-09T11:30:06Z</time>
      </trkpt>
      <trkpt lat="44.38719" lon="5.93431">
        <ele>584</ele>
        <time>2019-04-09T11:30:06Z</time>
      </trkpt>
      <trkpt lat="44.38719" lon="5.93443">
        <ele>583</ele>
        <time>2019-04-09T11:30:07Z</time>
      </trkpt>
      <trkpt lat="44.38718" lon="5.93455">
        <ele>583</ele>
        <time>2019-04-09T11:30:08Z</time>
      </trkpt>
      <trkpt lat="44.38717" lon="5.93467">
        <ele>582</ele>
        <time>2019-04-09T11:30:09Z</time>
      </trkpt>
      <trkpt lat="44.38716" lon="5.93479">
        <ele>582</ele>
        <time>2019-04-09T11:30:11Z</time>
      </trkpt>
      <trkpt lat="44.38715" lon="5.93491">
        <ele>581</ele>
        <time>2019-04-09T11:30:11Z</time>
      </trkpt>
      <trkpt lat="44.38715" lon="5.93502">
        <ele>581</ele>
        <time>2019-04-09T11:30:12Z</time>
      </trkpt>
      <trkpt lat="44.38714" lon="5.93513">
        <ele>581</ele>
        <time>2019-04-09T11:30:13Z</time>
      </trkpt>
      <trkpt lat="44.38713" lon="5.93523">
        <ele>580</ele>
        <time>2019-04-09T11:30:14Z</time>
      </trkpt>
      <trkpt lat="44.38712" lon="5.93533">
        <ele>580</ele>
        <time>2019-04-09T11:30:16Z</time>
      </trkpt>
      <trkpt lat="44.38712" lon="5.93542">
        <ele>580</ele>
        <time>2019-04-09T11:30:16Z</time>
      </trkpt>
      <trkpt lat="44.38711" lon="5.93551">
        <ele>579</ele>
        <time>2019-04-09T11:30:17Z</time>
      </trkpt>
      <trkpt lat="44.38711" lon="5.93559">
        <ele>579</ele>
        <time>2019-04-09T11:30:18Z</time>
      </trkpt>
      <trkpt lat="44.3871" lon="5.93566">
        <ele>579</ele>
        <time>2019-04-09T11:30:19Z</time>
      </trkpt>
      <trkpt lat="44.38709" lon="5.93573">
        <ele>578</ele>
        <time>2019-04-09T11:30:21Z</time>
      </trkpt>
      <trkpt lat="44.38709" lon="5.9358">
        <ele>578</ele>
        <time>2019-04-09T11:30:21Z</time>
      </trkpt>
      <trkpt lat="44.38709" lon="5.93586">
        <ele>578</ele>
        <time>2019-04-09T11:30:22Z</time>
      </trkpt>
      <trkpt lat="44.3871" lon="5.93593">
        <ele>578</ele>
        <time>2019-04-09T11:30:23Z</time>
      </trkpt>
      <trkpt lat="44.38712" lon="5.936">
        <ele>577</ele>
        <time>2019-04-09T11:30:24Z</time>
      </trkpt>
      <trkpt lat="44.38715" lon="5.93605">
        <ele>577</ele>
        <time>2019-04-09T11:30:26Z</time>
      </trkpt>
      <trkpt lat="44.3872" lon="5.93609">
        <ele>577</ele>
        <time>2019-04-09T11:30:26Z</time>
      </trkpt>
      <trkpt lat="44.38724" lon="5.93613">
        <ele>577</ele>
        <time>2019-04-09T11:30:27Z</time>
      </trkpt>
      <trkpt lat="44.38729" lon="5.93617">
        <ele>577</ele>
        <time>2019-04-09T11:30:28Z</time>
      </trkpt>
      <trkpt lat="44.38734" lon="5.93621">
        <ele>576</ele>
        <time>2019-04-09T11:30:29Z</time>
      </trkpt>
      <trkpt lat="44.38739" lon="5.93625">
        <ele>576</ele>
        <time>2019-04-09T11:30:31Z</time>
      </trkpt>
      <trkpt lat="44.38745" lon="5.93629">
        <ele>576</ele>
        <time>2019-04-09T11:30:31Z</time>
      </trkpt>
      <trkpt lat="44.3875" lon="5.93634">
        <ele>576</ele>
        <time>2019-04-09T11:30:32Z</time>
      </trkpt>
      <trkpt lat="44.38756" lon="5.93639">
        <ele>576</ele>
        <time>2019-04-09T11:30:34Z</time>
      </trkpt>
      <trkpt lat="44.38762" lon="5.93644">
        <ele>576</ele>
        <time>2019-04-09T11:30:34Z</time>
      </trkpt>
      <trkpt lat="44.38768" lon="5.93649">
        <ele>575</ele>
        <time>2019-04-09T11:30:36Z</time>
      </trkpt>
      <trkpt lat="44.38773" lon="5.93654">
        <ele>575</ele>
        <time>2019-04-09T11:30:36Z</time>
      </trkpt>
      <trkpt lat="44.38779" lon="5.93658">
        <ele>575</ele>
        <time>2019-04-09T11:30:37Z</time>
      </trkpt>
      <trkpt lat="44.38785" lon="5.93663">
        <ele>575</ele>
        <time>2019-04-09T11:30:38Z</time>
      </trkpt>
      <trkpt lat="44.38792" lon="5.93668">
        <ele>575</ele>
        <time>2019-04-09T11:30:39Z</time>
      </trkpt>
      <trkpt lat="44.38798" lon="5.93673">
        <ele>574</ele>
        <time>2019-04-09T11:30:41Z</time>
      </trkpt>
      <trkpt lat="44.38804" lon="5.93679">
        <ele>574</ele>
        <time>2019-04-09T11:30:41Z</time>
      </trkpt>
      <trkpt lat="44.3881" lon="5.93684">
        <ele>574</ele>
        <time>2019-04-09T11:30:42Z</time>
      </trkpt>
      <trkpt lat="44.38816" lon="5.9369">
        <ele>574</ele>
        <time>2019-04-09T11:30:43Z</time>
      </trkpt>
      <trkpt lat="44.38823" lon="5.93695">
        <ele>574</ele>
        <time>2019-04-09T11:30:44Z</time>
      </trkpt>
      <trkpt lat="44.38829" lon="5.937">
        <ele>574</ele>
        <time>2019-04-09T11:30:45Z</time>
      </trkpt>
      <trkpt lat="44.38835" lon="5.93706">
        <ele>574</ele>
        <time>2019-04-09T11:30:46Z</time>
      </trkpt>
      <trkpt lat="44.38841" lon="5.9371">
        <ele>574</ele>
        <time>2019-04-09T11:30:47Z</time>
      </trkpt>
      <trkpt lat="44.38847" lon="5.93715">
        <ele>574</ele>
        <time>2019-04-09T11:30:48Z</time>
      </trkpt>
      <trkpt lat="44.38853" lon="5.9372">
        <ele>574</ele>
        <time>2019-04-09T11:30:49Z</time>
      </trkpt>
      <trkpt lat="44.38859" lon="5.93725">
        <ele>574</ele>
        <time>2019-04-09T11:30:51Z</time>
      </trkpt>
      <trkpt lat="44.38865" lon="5.93729">
        <ele>574</ele>
        <time>2019-04-09T11:30:51Z</time>
      </trkpt>
      <trkpt lat="44.38871" lon="5.93734">
        <ele>574</ele>
        <time>2019-04-09T11:30:52Z</time>
      </trkpt>
      <trkpt lat="44.38877" lon="5.93739">
        <ele>574</ele>
        <time>2019-04-09T11:30:53Z</time>
      </trkpt>
      <trkpt lat="44.38882" lon="5.93744">
        <ele>574</ele>
        <time>2019-04-09T11:30:54Z</time>
      </trkpt>
      <trkpt lat="44.38888" lon="5.93749">
        <ele>574</ele>
        <time>2019-04-09T11:30:56Z</time>
      </trkpt>
      <trkpt lat="44.38894" lon="5.93753">
        <ele>574</ele>
        <time>2019-04-09T11:30:56Z</time>
      </trkpt>
      <trkpt lat="44.38899" lon="5.93758">
        <ele>574</ele>
        <time>2019-04-09T11:30:57Z</time>
      </trkpt>
      <trkpt lat="44.38905" lon="5.93763">
        <ele>574</ele>
        <time>2019-04-09T11:30:58Z</time>
      </trkpt>
      <trkpt lat="44.38911" lon="5.93767">
        <ele>574</ele>
        <time>2019-04-09T11:30:59Z</time>
      </trkpt>
      <trkpt lat="44.38916" lon="5.93772">
        <ele>574</ele>
        <time>2019-04-09T11:31:01Z</time>
      </trkpt>
      <trkpt lat="44.38922" lon="5.93777">
        <ele>574</ele>
        <time>2019-04-09T11:31:01Z</time>
      </trkpt>
      <trkpt lat="44.38927" lon="5.93781">
        <ele>574</ele>
        <time>2019-04-09T11:31:02Z</time>
      </trkpt>
      <trkpt lat="44.38933" lon="5.93786">
        <ele>574</ele>
        <time>2019-04-09T11:31:03Z</time>
      </trkpt>
      <trkpt lat="44.38939" lon="5.93791">
        <ele>574</ele>
        <time>2019-04-09T11:31:04Z</time>
      </trkpt>
      <trkpt lat="44.38944" lon="5.93796">
        <ele>574</ele>
        <time>2019-04-09T11:31:05Z</time>
      </trkpt>
      <trkpt lat="44.3895" lon="5.93801">
        <ele>574</ele>
        <time>2019-04-09T11:31:06Z</time>
      </trkpt>
      <trkpt lat="44.38955" lon="5.93805">
        <ele>574</ele>
        <time>2019-04-09T11:31:07Z</time>
      </trkpt>
      <trkpt lat="44.38961" lon="5.9381">
        <ele>574</ele>
        <time>2019-04-09T11:31:08Z</time>
      </trkpt>
      <trkpt lat="44.38966" lon="5.93814">
        <ele>574</ele>
        <time>2019-04-09T11:31:09Z</time>
      </trkpt>
      <trkpt lat="44.38972" lon="5.93818">
        <ele>574</ele>
        <time>2019-04-09T11:31:11Z</time>
      </trkpt>
      <trkpt lat="44.38977" lon="5.93822">
        <ele>574</ele>
        <time>2019-04-09T11:31:11Z</time>
      </trkpt>
      <trkpt lat="44.38983" lon="5.93827">
        <ele>574</ele>
        <time>2019-04-09T11:31:12Z</time>
      </trkpt>
      <trkpt lat="44.38988" lon="5.93831">
        <ele>574</ele>
        <time>2019-04-09T11:31:13Z</time>
      </trkpt>
      <trkpt lat="44.38994" lon="5.93836">
        <ele>574</ele>
        <time>2019-04-09T11:31:14Z</time>
      </trkpt>
      <trkpt lat="44.39" lon="5.93841">
        <ele>574</ele>
        <time>2019-04-09T11:31:16Z</time>
      </trkpt>
      <trkpt lat="44.39005" lon="5.93846">
        <ele>574</ele>
        <time>2019-04-09T11:31:16Z</time>
      </trkpt>
      <trkpt lat="44.39011" lon="5.93851">
        <ele>574</ele>
        <time>2019-04-09T11:31:17Z</time>
      </trkpt>
      <trkpt lat="44.39017" lon="5.93855">
        <ele>574</ele>
        <time>2019-04-09T11:31:18Z</time>
      </trkpt>
      <trkpt lat="44.39022" lon="5.9386">
        <ele>574</ele>
        <time>2019-04-09T11:31:19Z</time>
      </trkpt>
      <trkpt lat="44.39028" lon="5.93864">
        <ele>574</ele>
        <time>2019-04-09T11:31:21Z</time>
      </trkpt>
      <trkpt lat="44.39034" lon="5.93869">
        <ele>574</ele>
        <time>2019-04-09T11:31:21Z</time>
      </trkpt>
      <trkpt lat="44.39039" lon="5.93874">
        <ele>574</ele>
        <time>2019-04-09T11:31:22Z</time>
      </trkpt>
      <trkpt lat="44.39045" lon="5.93879">
        <ele>574</ele>
        <time>2019-04-09T11:31:23Z</time>
      </trkpt>
      <trkpt lat="44.39051" lon="5.93884">
        <ele>574</ele>
        <time>2019-04-09T11:31:24Z</time>
      </trkpt>
      <trkpt lat="44.39056" lon="5.93888">
        <ele>574</ele>
        <time>2019-04-09T11:31:25Z</time>
      </trkpt>
      <trkpt lat="44.39062" lon="5.93893">
        <ele>574</ele>
        <time>2019-04-09T11:31:26Z</time>
      </trkpt>
      <trkpt lat="44.39068" lon="5.93898">
        <ele>574</ele>
        <time>2019-04-09T11:31:27Z</time>
      </trkpt>
      <trkpt lat="44.39074" lon="5.93903">
        <ele>574</ele>
        <time>2019-04-09T11:31:28Z</time>
      </trkpt>
      <trkpt lat="44.39079" lon="5.93908">
        <ele>574</ele>
        <time>2019-04-09T11:31:29Z</time>
      </trkpt>
      <trkpt lat="44.39085" lon="5.93913">
        <ele>574</ele>
        <time>2019-04-09T11:31:30Z</time>
      </trkpt>
      <trkpt lat="44.39091" lon="5.93918">
        <ele>574</ele>
        <time>2019-04-09T11:31:31Z</time>
      </trkpt>
      <trkpt lat="44.39097" lon="5.93923">
        <ele>574</ele>
        <time>2019-04-09T11:31:32Z</time>
      </trkpt>
      <trkpt lat="44.39103" lon="5.93928">
        <ele>574</ele>
        <time>2019-04-09T11:31:34Z</time>
      </trkpt>
      <trkpt lat="44.39109" lon="5.93933">
        <ele>574</ele>
        <time>2019-04-09T11:31:34Z</time>
      </trkpt>
      <trkpt lat="44.39114" lon="5.93938">
        <ele>574</ele>
        <time>2019-04-09T11:31:36Z</time>
      </trkpt>
      <trkpt lat="44.3912" lon="5.93943">
        <ele>574</ele>
        <time>2019-04-09T11:31:36Z</time>
      </trkpt>
      <trkpt lat="44.39127" lon="5.93948">
        <ele>574</ele>
        <time>2019-04-09T11:31:37Z</time>
      </trkpt>
      <trkpt lat="44.39133" lon="5.93953">
        <ele>574</ele>
        <time>2019-04-09T11:31:38Z</time>
      </trkpt>
      <trkpt lat="44.39139" lon="5.93958">
        <ele>574</ele>
        <time>2019-04-09T11:31:39Z</time>
      </trkpt>
      <trkpt lat="44.39145" lon="5.93964">
        <ele>574</ele>
        <time>2019-04-09T11:31:40Z</time>
      </trkpt>
      <trkpt lat="44.39151" lon="5.93969">
        <ele>574</ele>
        <time>2019-04-09T11:31:41Z</time>
      </trkpt>
      <trkpt lat="44.39157" lon="5.93974">
        <ele>574</ele>
        <time>2019-04-09T11:31:42Z</time>
      </trkpt>
      <trkpt lat="44.39163" lon="5.9398">
        <ele>574</ele>
        <time>2019-04-09T11:31:43Z</time>
      </trkpt>
      <trkpt lat="44.39169" lon="5.93985">
        <ele>574</ele>
        <time>2019-04-09T11:31:44Z</time>
      </trkpt>
      <trkpt lat="44.39176" lon="5.9399">
        <ele>574</ele>
        <time>2019-04-09T11:31:45Z</time>
      </trkpt>
      <trkpt lat="44.39182" lon="5.93996">
        <ele>574</ele>
        <time>2019-04-09T11:31:46Z</time>
      </trkpt>
      <trkpt lat="44.39188" lon="5.94001">
        <ele>574</ele>
        <time>2019-04-09T11:31:47Z</time>
      </trkpt>
      <trkpt lat="44.39194" lon="5.94006">
        <ele>574</ele>
        <time>2019-04-09T11:31:48Z</time>
      </trkpt>
      <trkpt lat="44.39201" lon="5.94012">
        <ele>574</ele>
        <time>2019-04-09T11:31:49Z</time>
      </trkpt>
      <trkpt lat="44.39206" lon="5.94017">
        <ele>574</ele>
        <time>2019-04-09T11:31:51Z</time>
      </trkpt>
      <trkpt lat="44.39212" lon="5.94022">
        <ele>574</ele>
        <time>2019-04-09T11:31:51Z</time>
      </trkpt>
      <trkpt lat="44.39219" lon="5.94027">
        <ele>574</ele>
        <time>2019-04-09T11:31:52Z</time>
      </trkpt>
      <trkpt lat="44.39225" lon="5.94032">
        <ele>574</ele>
        <time>2019-04-09T11:31:53Z</time>
      </trkpt>
      <trkpt lat="44.3923" lon="5.94037">
        <ele>574</ele>
        <time>2019-04-09T11:31:54Z</time>
      </trkpt>
      <trkpt lat="44.39236" lon="5.94042">
        <ele>574</ele>
        <time>2019-04-09T11:31:55Z</time>
      </trkpt>
      <trkpt lat="44.39242" lon="5.94047">
        <ele>574</ele>
        <time>2019-04-09T11:31:56Z</time>
      </trkpt>
      <trkpt lat="44.39248" lon="5.94052">
        <ele>574</ele>
        <time>2019-04-09T11:31:57Z</time>
      </trkpt>
      <trkpt lat="44.39254" lon="5.94057">
        <ele>574</ele>
        <time>2019-04-09T11:31:58Z</time>
      </trkpt>
      <trkpt lat="44.3926" lon="5.94062">
        <ele>574</ele>
        <time>2019-04-09T11:31:59Z</time>
      </trkpt>
      <trkpt lat="44.39266" lon="5.94066">
        <ele>574</ele>
        <time>2019-04-09T11:32:00Z</time>
      </trkpt>
      <trkpt lat="44.39272" lon="5.94071">
        <ele>574</ele>
        <time>2019-04-09T11:32:01Z</time>
      </trkpt>
      <trkpt lat="44.39277" lon="5.94076">
        <ele>574</ele>
        <time>2019-04-09T11:32:02Z</time>
      </trkpt>
      <trkpt lat="44.39283" lon="5.94081">
        <ele>574</ele>
        <time>2019-04-09T11:32:03Z</time>
      </trkpt>
      <trkpt lat="44.39289" lon="5.94086">
        <ele>574</ele>
        <time>2019-04-09T11:32:04Z</time>
      </trkpt>
      <trkpt lat="44.39294" lon="5.94091">
        <ele>574</ele>
        <time>2019-04-09T11:32:05Z</time>
      </trkpt>
      <trkpt lat="44.393" lon="5.94095">
        <ele>574</ele>
        <time>2019-04-09T11:32:06Z</time>
      </trkpt>
      <trkpt lat="44.39306" lon="5.941">
        <ele>574</ele>
        <time>2019-04-09T11:32:07Z</time>
      </trkpt>
      <trkpt lat="44.39312" lon="5.94104">
        <ele>574</ele>
        <time>2019-04-09T11:32:08Z</time>
      </trkpt>
      <trkpt lat="44.39317" lon="5.94109">
        <ele>574</ele>
        <time>2019-04-09T11:32:09Z</time>
      </trkpt>
      <trkpt lat="44.39323" lon="5.94114">
        <ele>574</ele>
        <time>2019-04-09T11:32:10Z</time>
      </trkpt>
      <trkpt lat="44.39328" lon="5.94118">
        <ele>574</ele>
        <time>2019-04-09T11:32:11Z</time>
      </trkpt>
      <trkpt lat="44.39334" lon="5.94123">
        <ele>574</ele>
        <time>2019-04-09T11:32:12Z</time>
      </trkpt>
      <trkpt lat="44.3934" lon="5.94128">
        <ele>574</ele>
        <time>2019-04-09T11:32:13Z</time>
      </trkpt>
      <trkpt lat="44.39346" lon="5.94132">
        <ele>574</ele>
        <time>2019-04-09T11:32:14Z</time>
      </trkpt>
      <trkpt lat="44.39351" lon="5.94136">
        <ele>574</ele>
        <time>2019-04-09T11:32:15Z</time>
      </trkpt>
      <trkpt lat="44.39356" lon="5.94141">
        <ele>574</ele>
        <time>2019-04-09T11:32:16Z</time>
      </trkpt>
      <trkpt lat="44.39361" lon="5.94145">
        <ele>574</ele>
        <time>2019-04-09T11:32:17Z</time>
      </trkpt>
      <trkpt lat="44.39367" lon="5.94149">
        <ele>574</ele>
        <time>2019-04-09T11:32:18Z</time>
      </trkpt>
      <trkpt lat="44.39372" lon="5.94153">
        <ele>574</ele>
        <time>2019-04-09T11:32:19Z</time>
      </trkpt>
      <trkpt lat="44.39378" lon="5.94157">
        <ele>574</ele>
        <time>2019-04-09T11:32:20Z</time>
      </trkpt>
      <trkpt lat="44.39383" lon="5.94161">
        <ele>574</ele>
        <time>2019-04-09T11:32:21Z</time>
      </trkpt>
      <trkpt lat="44.39389" lon="5.94166">
        <ele>574</ele>
        <time>2019-04-09T11:32:22Z</time>
      </trkpt>
      <trkpt lat="44.39394" lon="5.94171">
        <ele>574</ele>
        <time>2019-04-09T11:32:23Z</time>
      </trkpt>
      <trkpt lat="44.39399" lon="5.94176">
        <ele>574</ele>
        <time>2019-04-09T11:32:24Z</time>
      </trkpt>
      <trkpt lat="44.39405" lon="5.94181">
        <ele>574</ele>
        <time>2019-04-09T11:32:25Z</time>
      </trkpt>
      <trkpt lat="44.3941" lon="5.94186">
        <ele>574</ele>
        <time>2019-04-09T11:32:26Z</time>
      </trkpt>
      <trkpt lat="44.39416" lon="5.94191">
        <ele>574</ele>
        <time>2019-04-09T11:32:27Z</time>
      </trkpt>
      <trkpt lat="44.39422" lon="5.94197">
        <ele>574</ele>
        <time>2019-04-09T11:32:28Z</time>
      </trkpt>
      <trkpt lat="44.39428" lon="5.94202">
        <ele>574</ele>
        <time>2019-04-09T11:32:29Z</time>
      </trkpt>
      <trkpt lat="44.39434" lon="5.94207">
        <ele>574</ele>
        <time>2019-04-09T11:32:30Z</time>
      </trkpt>
      <trkpt lat="44.39441" lon="5.94213">
        <ele>574</ele>
        <time>2019-04-09T11:32:31Z</time>
      </trkpt>
      <trkpt lat="44.39447" lon="5.94218">
        <ele>574</ele>
        <time>2019-04-09T11:32:32Z</time>
      </trkpt>
      <trkpt lat="44.39453" lon="5.94223">
        <ele>574</ele>
        <time>2019-04-09T11:32:34Z</time>
      </trkpt>
      <trkpt lat="44.39459" lon="5.94229">
        <ele>574</ele>
        <time>2019-04-09T11:32:34Z</time>
      </trkpt>
      <trkpt lat="44.39465" lon="5.94234">
        <ele>574</ele>
        <time>2019-04-09T11:32:36Z</time>
      </trkpt>
      <trkpt lat="44.39471" lon="5.94239">
        <ele>574</ele>
        <time>2019-04-09T11:32:36Z</time>
      </trkpt>
      <trkpt lat="44.39478" lon="5.94244">
        <ele>574</ele>
        <time>2019-04-09T11:32:37Z</time>
      </trkpt>
      <trkpt lat="44.39484" lon="5.94249">
        <ele>574</ele>
        <time>2019-04-09T11:32:38Z</time>
      </trkpt>
      <trkpt lat="44.3949" lon="5.94255">
        <ele>574</ele>
        <time>2019-04-09T11:32:39Z</time>
      </trkpt>
      <trkpt lat="44.39496" lon="5.9426">
        <ele>574</ele>
        <time>2019-04-09T11:32:40Z</time>
      </trkpt>
      <trkpt lat="44.39503" lon="5.94265">
        <ele>574</ele>
        <time>2019-04-09T11:32:41Z</time>
      </trkpt>
      <trkpt lat="44.39509" lon="5.9427">
        <ele>574</ele>
        <time>2019-04-09T11:32:42Z</time>
      </trkpt>
      <trkpt lat="44.39515" lon="5.94275">
        <ele>574</ele>
        <time>2019-04-09T11:32:43Z</time>
      </trkpt>
      <trkpt lat="44.39521" lon="5.94281">
        <ele>574</ele>
        <time>2019-04-09T11:32:44Z</time>
      </trkpt>
      <trkpt lat="44.39527" lon="5.94286">
        <ele>574</ele>
        <time>2019-04-09T11:32:45Z</time>
      </trkpt>
      <trkpt lat="44.39534" lon="5.94291">
        <ele>574</ele>
        <time>2019-04-09T11:32:46Z</time>
      </trkpt>
      <trkpt lat="44.3954" lon="5.94296">
        <ele>574</ele>
        <time>2019-04-09T11:32:47Z</time>
      </trkpt>
      <trkpt lat="44.39546" lon="5.94301">
        <ele>574</ele>
        <time>2019-04-09T11:32:48Z</time>
      </trkpt>
      <trkpt lat="44.39553" lon="5.94306">
        <ele>574</ele>
        <time>2019-04-09T11:32:49Z</time>
      </trkpt>
      <trkpt lat="44.39559" lon="5.94311">
        <ele>574</ele>
        <time>2019-04-09T11:32:50Z</time>
      </trkpt>
      <trkpt lat="44.39565" lon="5.94317">
        <ele>574</ele>
        <time>2019-04-09T11:32:51Z</time>
      </trkpt>
      <trkpt lat="44.39571" lon="5.94322">
        <ele>574</ele>
        <time>2019-04-09T11:32:52Z</time>
      </trkpt>
      <trkpt lat="44.39577" lon="5.94327">
        <ele>574</ele>
        <time>2019-04-09T11:32:53Z</time>
      </trkpt>
      <trkpt lat="44.39583" lon="5.94333">
        <ele>574</ele>
        <time>2019-04-09T11:32:54Z</time>
      </trkpt>
      <trkpt lat="44.39589" lon="5.94339">
        <ele>574</ele>
        <time>2019-04-09T11:32:55Z</time>
      </trkpt>
      <trkpt lat="44.39595" lon="5.94344">
        <ele>574</ele>
        <time>2019-04-09T11:32:56Z</time>
      </trkpt>
      <trkpt lat="44.39602" lon="5.94348">
        <ele>574</ele>
        <time>2019-04-09T11:32:57Z</time>
      </trkpt>
      <trkpt lat="44.39608" lon="5.94353">
        <ele>574</ele>
        <time>2019-04-09T11:32:58Z</time>
      </trkpt>
      <trkpt lat="44.39614" lon="5.94358">
        <ele>574</ele>
        <time>2019-04-09T11:32:59Z</time>
      </trkpt>
      <trkpt lat="44.39621" lon="5.94363">
        <ele>574</ele>
        <time>2019-04-09T11:33:00Z</time>
      </trkpt>
      <trkpt lat="44.39627" lon="5.94367">
        <ele>574</ele>
        <time>2019-04-09T11:33:01Z</time>
      </trkpt>
      <trkpt lat="44.39633" lon="5.94371">
        <ele>574</ele>
        <time>2019-04-09T11:33:02Z</time>
      </trkpt>
      <trkpt lat="44.39639" lon="5.94375">
        <ele>574</ele>
        <time>2019-04-09T11:33:03Z</time>
      </trkpt>
      <trkpt lat="44.39646" lon="5.94379">
        <ele>574</ele>
        <time>2019-04-09T11:33:04Z</time>
      </trkpt>
      <trkpt lat="44.39652" lon="5.94383">
        <ele>574</ele>
        <time>2019-04-09T11:33:05Z</time>
      </trkpt>
      <trkpt lat="44.39658" lon="5.94388">
        <ele>574</ele>
        <time>2019-04-09T11:33:06Z</time>
      </trkpt>
      <trkpt lat="44.39664" lon="5.94391">
        <ele>574</ele>
        <time>2019-04-09T11:33:07Z</time>
      </trkpt>
      <trkpt lat="44.3967" lon="5.94395">
        <ele>574</ele>
        <time>2019-04-09T11:33:08Z</time>
      </trkpt>
      <trkpt lat="44.39676" lon="5.94399">
        <ele>574</ele>
        <time>2019-04-09T11:33:09Z</time>
      </trkpt>
      <trkpt lat="44.39682" lon="5.94402">
        <ele>574</ele>
        <time>2019-04-09T11:33:10Z</time>
      </trkpt>
      <trkpt lat="44.39688" lon="5.94405">
        <ele>574</ele>
        <time>2019-04-09T11:33:11Z</time>
      </trkpt>
      <trkpt lat="44.39693" lon="5.94409">
        <ele>574</ele>
        <time>2019-04-09T11:33:12Z</time>
      </trkpt>
      <trkpt lat="44.39699" lon="5.94412">
        <ele>574</ele>
        <time>2019-04-09T11:33:13Z</time>
      </trkpt>
      <trkpt lat="44.39704" lon="5.94414">
        <ele>574</ele>
        <time>2019-04-09T11:33:14Z</time>
      </trkpt>
      <trkpt lat="44.39709" lon="5.94417">
        <ele>574</ele>
        <time>2019-04-09T11:33:15Z</time>
      </trkpt>
      <trkpt lat="44.39714" lon="5.9442">
        <ele>574</ele>
        <time>2019-04-09T11:33:16Z</time>
      </trkpt>
      <trkpt lat="44.39719" lon="5.94423">
        <ele>574</ele>
        <time>2019-04-09T11:33:17Z</time>
      </trkpt>
      <trkpt lat="44.39724" lon="5.94426">
        <ele>574</ele>
        <time>2019-04-09T11:33:18Z</time>
      </trkpt>
      <trkpt lat="44.39729" lon="5.94429">
        <ele>574</ele>
        <time>2019-04-09T11:33:19Z</time>
      </trkpt>
      <trkpt lat="44.39734" lon="5.94431">
        <ele>574</ele>
        <time>2019-04-09T11:33:20Z</time>
      </trkpt>
      <trkpt lat="44.39738" lon="5.94434">
        <ele>574</ele>
        <time>2019-04-09T11:33:21Z</time>
      </trkpt>
      <trkpt lat="44.39743" lon="5.94437">
        <ele>575</ele>
        <time>2019-04-09T11:33:22Z</time>
      </trkpt>
      <trkpt lat="44.39748" lon="5.9444">
        <ele>575</ele>
        <time>2019-04-09T11:33:23Z</time>
      </trkpt>
      <trkpt lat="44.39753" lon="5.94443">
        <ele>575</ele>
        <time>2019-04-09T11:33:24Z</time>
      </trkpt>
      <trkpt lat="44.39757" lon="5.94446">
        <ele>576</ele>
        <time>2019-04-09T11:33:25Z</time>
      </trkpt>
      <trkpt lat="44.39761" lon="5.94448">
        <ele>576</ele>
        <time>2019-04-09T11:33:26Z</time>
      </trkpt>
      <trkpt lat="44.39766" lon="5.94451">
        <ele>576</ele>
        <time>2019-04-09T11:33:27Z</time>
      </trkpt>
      <trkpt lat="44.39771" lon="5.94454">
        <ele>576</ele>
        <time>2019-04-09T11:33:28Z</time>
      </trkpt>
      <trkpt lat="44.39775" lon="5.94458">
        <ele>576</ele>
        <time>2019-04-09T11:33:29Z</time>
      </trkpt>
      <trkpt lat="44.3978" lon="5.94461">
        <ele>577</ele>
        <time>2019-04-09T11:33:30Z</time>
      </trkpt>
      <trkpt lat="44.39784" lon="5.94465">
        <ele>577</ele>
        <time>2019-04-09T11:33:31Z</time>
      </trkpt>
      <trkpt lat="44.39789" lon="5.94468">
        <ele>578</ele>
        <time>2019-04-09T11:33:32Z</time>
      </trkpt>
      <trkpt lat="44.39793" lon="5.94473">
        <ele>578</ele>
        <time>2019-04-09T11:33:34Z</time>
      </trkpt>
      <trkpt lat="44.39797" lon="5.94476">
        <ele>579</ele>
        <time>2019-04-09T11:33:34Z</time>
      </trkpt>
      <trkpt lat="44.39801" lon="5.94479">
        <ele>579</ele>
        <time>2019-04-09T11:33:35Z</time>
      </trkpt>
      <trkpt lat="44.39806" lon="5.94483">
        <ele>579</ele>
        <time>2019-04-09T11:33:36Z</time>
      </trkpt>
      <trkpt lat="44.3981" lon="5.94486">
        <ele>580</ele>
        <time>2019-04-09T11:33:37Z</time>
      </trkpt>
      <trkpt lat="44.39814" lon="5.9449">
        <ele>580</ele>
        <time>2019-04-09T11:33:38Z</time>
      </trkpt>
      <trkpt lat="44.39818" lon="5.94494">
        <ele>580</ele>
        <time>2019-04-09T11:33:39Z</time>
      </trkpt>
      <trkpt lat="44.39822" lon="5.94497">
        <ele>580</ele>
        <time>2019-04-09T11:33:40Z</time>
      </trkpt>
      <trkpt lat="44.39826" lon="5.94501">
        <ele>580</ele>
        <time>2019-04-09T11:33:41Z</time>
      </trkpt>
      <trkpt lat="44.3983" lon="5.94504">
        <ele>580</ele>
        <time>2019-04-09T11:33:42Z</time>
      </trkpt>
      <trkpt lat="44.39833" lon="5.94507">
        <ele>580</ele>
        <time>2019-04-09T11:33:43Z</time>
      </trkpt>
      <trkpt lat="44.39837" lon="5.9451">
        <ele>581</ele>
        <time>2019-04-09T11:33:44Z</time>
      </trkpt>
      <trkpt lat="44.39841" lon="5.94514">
        <ele>581</ele>
        <time>2019-04-09T11:33:45Z</time>
      </trkpt>
      <trkpt lat="44.39845" lon="5.94517">
        <ele>581</ele>
        <time>2019-04-09T11:33:46Z</time>
      </trkpt>
      <trkpt lat="44.39848" lon="5.94521">
        <ele>581</ele>
        <time>2019-04-09T11:33:47Z</time>
      </trkpt>
      <trkpt lat="44.39852" lon="5.94525">
        <ele>581</ele>
        <time>2019-04-09T11:33:48Z</time>
      </trkpt>
      <trkpt lat="44.39856" lon="5.9453">
        <ele>582</ele>
        <time>2019-04-09T11:33:49Z</time>
      </trkpt>
      <trkpt lat="44.3986" lon="5.94534">
        <ele>582</ele>
        <time>2019-04-09T11:33:50Z</time>
      </trkpt>
      <trkpt lat="44.39863" lon="5.94539">
        <ele>583</ele>
        <time>2019-04-09T11:33:51Z</time>
      </trkpt>
      <trkpt lat="44.39867" lon="5.94543">
        <ele>584</ele>
        <time>2019-04-09T11:33:52Z</time>
      </trkpt>
      <trkpt lat="44.39871" lon="5.94547">
        <ele>584</ele>
        <time>2019-04-09T11:33:53Z</time>
      </trkpt>
      <trkpt lat="44.39875" lon="5.94551">
        <ele>584</ele>
        <time>2019-04-09T11:33:54Z</time>
      </trkpt>
      <trkpt lat="44.39879" lon="5.94554">
        <ele>585</ele>
        <time>2019-04-09T11:33:55Z</time>
      </trkpt>
      <trkpt lat="44.39883" lon="5.94557">
        <ele>585</ele>
        <time>2019-04-09T11:33:56Z</time>
      </trkpt>
      <trkpt lat="44.39887" lon="5.94561">
        <ele>585</ele>
        <time>2019-04-09T11:33:57Z</time>
      </trkpt>
      <trkpt lat="44.39891" lon="5.94564">
        <ele>585</ele>
        <time>2019-04-09T11:33:58Z</time>
      </trkpt>
      <trkpt lat="44.39895" lon="5.94567">
        <ele>585</ele>
        <time>2019-04-09T11:33:59Z</time>
      </trkpt>
      <trkpt lat="44.39899" lon="5.9457">
        <ele>585</ele>
        <time>2019-04-09T11:34:00Z</time>
      </trkpt>
      <trkpt lat="44.39903" lon="5.94573">
        <ele>585</ele>
        <time>2019-04-09T11:34:01Z</time>
      </trkpt>
      <trkpt lat="44.39907" lon="5.94576">
        <ele>585</ele>
        <time>2019-04-09T11:34:02Z</time>
      </trkpt>
      <trkpt lat="44.39912" lon="5.94578">
        <ele>585</ele>
        <time>2019-04-09T11:34:03Z</time>
      </trkpt>
      <trkpt lat="44.39916" lon="5.94581">
        <ele>586</ele>
        <time>2019-04-09T11:34:04Z</time>
      </trkpt>
      <trkpt lat="44.3992" lon="5.94583">
        <ele>586</ele>
        <time>2019-04-09T11:34:05Z</time>
      </trkpt>
      <trkpt lat="44.39924" lon="5.94585">
        <ele>586</ele>
        <time>2019-04-09T11:34:06Z</time>
      </trkpt>
      <trkpt lat="44.39928" lon="5.94588">
        <ele>586</ele>
        <time>2019-04-09T11:34:07Z</time>
      </trkpt>
      <trkpt lat="44.39932" lon="5.9459">
        <ele>587</ele>
        <time>2019-04-09T11:34:08Z</time>
      </trkpt>
      <trkpt lat="44.39936" lon="5.94592">
        <ele>587</ele>
        <time>2019-04-09T11:34:09Z</time>
      </trkpt>
      <trkpt lat="44.3994" lon="5.94594">
        <ele>587</ele>
        <time>2019-04-09T11:34:10Z</time>
      </trkpt>
      <trkpt lat="44.39943" lon="5.94596">
        <ele>587</ele>
        <time>2019-04-09T11:34:11Z</time>
      </trkpt>
      <trkpt lat="44.39948" lon="5.94598">
        <ele>588</ele>
        <time>2019-04-09T11:34:12Z</time>
      </trkpt>
      <trkpt lat="44.39951" lon="5.946">
        <ele>588</ele>
        <time>2019-04-09T11:34:13Z</time>
      </trkpt>
      <trkpt lat="44.39955" lon="5.94601">
        <ele>588</ele>
        <time>2019-04-09T11:34:14Z</time>
      </trkpt>
      <trkpt lat="44.39959" lon="5.94603">
        <ele>588</ele>
        <time>2019-04-09T11:34:15Z</time>
      </trkpt>
      <trkpt lat="44.39963" lon="5.94605">
        <ele>588</ele>
        <time>2019-04-09T11:34:16Z</time>
      </trkpt>
      <trkpt lat="44.39967" lon="5.94607">
        <ele>589</ele>
        <time>2019-04-09T11:34:17Z</time>
      </trkpt>
      <trkpt lat="44.39971" lon="5.94608">
        <ele>589</ele>
        <time>2019-04-09T11:34:18Z</time>
      </trkpt>
      <trkpt lat="44.39975" lon="5.9461">
        <ele>589</ele>
        <time>2019-04-09T11:34:19Z</time>
      </trkpt>
      <trkpt lat="44.39979" lon="5.94612">
        <ele>589</ele>
        <time>2019-04-09T11:34:20Z</time>
      </trkpt>
      <trkpt lat="44.39983" lon="5.94614">
        <ele>589</ele>
        <time>2019-04-09T11:34:21Z</time>
      </trkpt>
      <trkpt lat="44.39987" lon="5.94616">
        <ele>589</ele>
        <time>2019-04-09T11:34:22Z</time>
      </trkpt>
      <trkpt lat="44.39992" lon="5.94618">
        <ele>590</ele>
        <time>2019-04-09T11:34:23Z</time>
      </trkpt>
      <trkpt lat="44.39996" lon="5.9462">
        <ele>590</ele>
        <time>2019-04-09T11:34:24Z</time>
      </trkpt>
      <trkpt lat="44.40001" lon="5.94621">
        <ele>590</ele>
        <time>2019-04-09T11:34:25Z</time>
      </trkpt>
      <trkpt lat="44.40005" lon="5.94623">
        <ele>590</ele>
        <time>2019-04-09T11:34:26Z</time>
      </trkpt>
      <trkpt lat="44.4001" lon="5.94626">
        <ele>590</ele>
        <time>2019-04-09T11:34:27Z</time>
      </trkpt>
      <trkpt lat="44.40015" lon="5.94628">
        <ele>590</ele>
        <time>2019-04-09T11:34:28Z</time>
      </trkpt>
      <trkpt lat="44.4002" lon="5.9463">
        <ele>590</ele>
        <time>2019-04-09T11:34:29Z</time>
      </trkpt>
      <trkpt lat="44.40025" lon="5.94632">
        <ele>590</ele>
        <time>2019-04-09T11:34:30Z</time>
      </trkpt>
      <trkpt lat="44.4003" lon="5.94634">
        <ele>590</ele>
        <time>2019-04-09T11:34:31Z</time>
      </trkpt>
      <trkpt lat="44.40036" lon="5.94636">
        <ele>590</ele>
        <time>2019-04-09T11:34:32Z</time>
      </trkpt>
      <trkpt lat="44.40041" lon="5.94638">
        <ele>590</ele>
        <time>2019-04-09T11:34:34Z</time>
      </trkpt>
      <trkpt lat="44.40046" lon="5.9464">
        <ele>591</ele>
        <time>2019-04-09T11:34:34Z</time>
      </trkpt>
      <trkpt lat="44.40052" lon="5.94643">
        <ele>591</ele>
        <time>2019-04-09T11:34:35Z</time>
      </trkpt>
      <trkpt lat="44.40057" lon="5.94645">
        <ele>591</ele>
        <time>2019-04-09T11:34:36Z</time>
      </trkpt>
      <trkpt lat="44.40063" lon="5.94648">
        <ele>591</ele>
        <time>2019-04-09T11:34:37Z</time>
      </trkpt>
      <trkpt lat="44.40068" lon="5.9465">
        <ele>591</ele>
        <time>2019-04-09T11:34:38Z</time>
      </trkpt>
      <trkpt lat="44.40074" lon="5.94653">
        <ele>591</ele>
        <time>2019-04-09T11:34:39Z</time>
      </trkpt>
      <trkpt lat="44.40079" lon="5.94656">
        <ele>591</ele>
        <time>2019-04-09T11:34:40Z</time>
      </trkpt>
      <trkpt lat="44.40085" lon="5.9466">
        <ele>591</ele>
        <time>2019-04-09T11:34:41Z</time>
      </trkpt>
      <trkpt lat="44.40091" lon="5.94663">
        <ele>591</ele>
        <time>2019-04-09T11:34:42Z</time>
      </trkpt>
      <trkpt lat="44.40096" lon="5.94666">
        <ele>591</ele>
        <time>2019-04-09T11:34:43Z</time>
      </trkpt>
      <trkpt lat="44.40101" lon="5.9467">
        <ele>591</ele>
        <time>2019-04-09T11:34:44Z</time>
      </trkpt>
      <trkpt lat="44.40106" lon="5.94673">
        <ele>591</ele>
        <time>2019-04-09T11:34:45Z</time>
      </trkpt>
      <trkpt lat="44.40112" lon="5.94677">
        <ele>591</ele>
        <time>2019-04-09T11:34:46Z</time>
      </trkpt>
      <trkpt lat="44.40117" lon="5.94681">
        <ele>591</ele>
        <time>2019-04-09T11:34:47Z</time>
      </trkpt>
      <trkpt lat="44.40122" lon="5.94684">
        <ele>591</ele>
        <time>2019-04-09T11:34:48Z</time>
      </trkpt>
      <trkpt lat="44.40128" lon="5.94688">
        <ele>591</ele>
        <time>2019-04-09T11:34:49Z</time>
      </trkpt>
      <trkpt lat="44.40133" lon="5.94692">
        <ele>591</ele>
        <time>2019-04-09T11:34:50Z</time>
      </trkpt>
      <trkpt lat="44.40138" lon="5.94696">
        <ele>592</ele>
        <time>2019-04-09T11:34:51Z</time>
      </trkpt>
      <trkpt lat="44.40143" lon="5.94699">
        <ele>592</ele>
        <time>2019-04-09T11:34:52Z</time>
      </trkpt>
      <trkpt lat="44.40148" lon="5.94703">
        <ele>592</ele>
        <time>2019-04-09T11:34:53Z</time>
      </trkpt>
      <trkpt lat="44.40154" lon="5.94707">
        <ele>592</ele>
        <time>2019-04-09T11:34:54Z</time>
      </trkpt>
      <trkpt lat="44.40159" lon="5.94711">
        <ele>592</ele>
        <time>2019-04-09T11:34:55Z</time>
      </trkpt>
      <trkpt lat="44.40164" lon="5.94715">
        <ele>592</ele>
        <time>2019-04-09T11:34:56Z</time>
      </trkpt>
      <trkpt lat="44.40169" lon="5.94719">
        <ele>592</ele>
        <time>2019-04-09T11:34:57Z</time>
      </trkpt>
      <trkpt lat="44.40174" lon="5.94723">
        <ele>592</ele>
        <time>2019-04-09T11:34:58Z</time>
      </trkpt>
      <trkpt lat="44.40179" lon="5.94728">
        <ele>592</ele>
        <time>2019-04-09T11:34:59Z</time>
      </trkpt>
      <trkpt lat="44.40184" lon="5.94732">
        <ele>592</ele>
        <time>2019-04-09T11:35:00Z</time>
      </trkpt>
      <trkpt lat="44.40189" lon="5.94737">
        <ele>592</ele>
        <time>2019-04-09T11:35:01Z</time>
      </trkpt>
      <trkpt lat="44.40194" lon="5.94742">
        <ele>592</ele>
        <time>2019-04-09T11:35:02Z</time>
      </trkpt>
      <trkpt lat="44.40198" lon="5.94747">
        <ele>592</ele>
        <time>2019-04-09T11:35:03Z</time>
      </trkpt>
      <trkpt lat="44.40203" lon="5.94752">
        <ele>592</ele>
        <time>2019-04-09T11:35:04Z</time>
      </trkpt>
      <trkpt lat="44.40208" lon="5.94757">
        <ele>592</ele>
        <time>2019-04-09T11:35:05Z</time>
      </trkpt>
      <trkpt lat="44.40212" lon="5.94762">
        <ele>592</ele>
        <time>2019-04-09T11:35:06Z</time>
      </trkpt>
      <trkpt lat="44.40217" lon="5.94768">
        <ele>592</ele>
        <time>2019-04-09T11:35:07Z</time>
      </trkpt>
      <trkpt lat="44.40221" lon="5.94773">
        <ele>592</ele>
        <time>2019-04-09T11:35:08Z</time>
      </trkpt>
      <trkpt lat="44.40226" lon="5.94778">
        <ele>592</ele>
        <time>2019-04-09T11:35:09Z</time>
      </trkpt>
      <trkpt lat="44.4023" lon="5.94783">
        <ele>592</ele>
        <time>2019-04-09T11:35:10Z</time>
      </trkpt>
      <trkpt lat="44.40234" lon="5.94789">
        <ele>592</ele>
        <time>2019-04-09T11:35:11Z</time>
      </trkpt>
      <trkpt lat="44.40238" lon="5.94795">
        <ele>592</ele>
        <time>2019-04-09T11:35:12Z</time>
      </trkpt>
      <trkpt lat="44.40242" lon="5.948">
        <ele>592</ele>
        <time>2019-04-09T11:35:13Z</time>
      </trkpt>
      <trkpt lat="44.40245" lon="5.94806">
        <ele>592</ele>
        <time>2019-04-09T11:35:14Z</time>
      </trkpt>
      <trkpt lat="44.4025" lon="5.94811">
        <ele>592</ele>
        <time>2019-04-09T11:35:15Z</time>
      </trkpt>
      <trkpt lat="44.40253" lon="5.94817">
        <ele>592</ele>
        <time>2019-04-09T11:35:16Z</time>
      </trkpt>
      <trkpt lat="44.40257" lon="5.94823">
        <ele>592</ele>
        <time>2019-04-09T11:35:17Z</time>
      </trkpt>
      <trkpt lat="44.40261" lon="5.9483">
        <ele>592</ele>
        <time>2019-04-09T11:35:18Z</time>
      </trkpt>
      <trkpt lat="44.40264" lon="5.94836">
        <ele>592</ele>
        <time>2019-04-09T11:35:19Z</time>
      </trkpt>
      <trkpt lat="44.40267" lon="5.94842">
        <ele>592</ele>
        <time>2019-04-09T11:35:20Z</time>
      </trkpt>
      <trkpt lat="44.4027" lon="5.94848">
        <ele>592</ele>
        <time>2019-04-09T11:35:21Z</time>
      </trkpt>
      <trkpt lat="44.40273" lon="5.94854">
        <ele>592</ele>
        <time>2019-04-09T11:35:22Z</time>
      </trkpt>
      <trkpt lat="44.40276" lon="5.9486">
        <ele>592</ele>
        <time>2019-04-09T11:35:23Z</time>
      </trkpt>
      <trkpt lat="44.40279" lon="5.94866">
        <ele>593</ele>
        <time>2019-04-09T11:35:24Z</time>
      </trkpt>
      <trkpt lat="44.40282" lon="5.94872">
        <ele>593</ele>
        <time>2019-04-09T11:35:25Z</time>
      </trkpt>
      <trkpt lat="44.40284" lon="5.94878">
        <ele>593</ele>
        <time>2019-04-09T11:35:26Z</time>
      </trkpt>
      <trkpt lat="44.40287" lon="5.94884">
        <ele>593</ele>
        <time>2019-04-09T11:35:27Z</time>
      </trkpt>
      <trkpt lat="44.4029" lon="5.94891">
        <ele>593</ele>
        <time>2019-04-09T11:35:28Z</time>
      </trkpt>
      <trkpt lat="44.40293" lon="5.94897">
        <ele>593</ele>
        <time>2019-04-09T11:35:29Z</time>
      </trkpt>
      <trkpt lat="44.40296" lon="5.94903">
        <ele>593</ele>
        <time>2019-04-09T11:35:30Z</time>
      </trkpt>
      <trkpt lat="44.40299" lon="5.94909">
        <ele>593</ele>
        <time>2019-04-09T11:35:31Z</time>
      </trkpt>
      <trkpt lat="44.40301" lon="5.94916">
        <ele>593</ele>
        <time>2019-04-09T11:35:32Z</time>
      </trkpt>
      <trkpt lat="44.40304" lon="5.94922">
        <ele>593</ele>
        <time>2019-04-09T11:35:34Z</time>
      </trkpt>
      <trkpt lat="44.40307" lon="5.94929">
        <ele>593</ele>
        <time>2019-04-09T11:35:34Z</time>
      </trkpt>
      <trkpt lat="44.4031" lon="5.94936">
        <ele>593</ele>
        <time>2019-04-09T11:35:35Z</time>
      </trkpt>
      <trkpt lat="44.40313" lon="5.94943">
        <ele>593</ele>
        <time>2019-04-09T11:35:36Z</time>
      </trkpt>
      <trkpt lat="44.40316" lon="5.94949">
        <ele>593</ele>
        <time>2019-04-09T11:35:37Z</time>
      </trkpt>
      <trkpt lat="44.40319" lon="5.94956">
        <ele>593</ele>
        <time>2019-04-09T11:35:38Z</time>
      </trkpt>
      <trkpt lat="44.40321" lon="5.94962">
        <ele>593</ele>
        <time>2019-04-09T11:35:39Z</time>
      </trkpt>
      <trkpt lat="44.40324" lon="5.94968">
        <ele>593</ele>
        <time>2019-04-09T11:35:40Z</time>
      </trkpt>
      <trkpt lat="44.40327" lon="5.94974">
        <ele>593</ele>
        <time>2019-04-09T11:35:41Z</time>
      </trkpt>
      <trkpt lat="44.40331" lon="5.9498">
        <ele>593</ele>
        <time>2019-04-09T11:35:42Z</time>
      </trkpt>
      <trkpt lat="44.40334" lon="5.94986">
        <ele>593</ele>
        <time>2019-04-09T11:35:43Z</time>
      </trkpt>
      <trkpt lat="44.40338" lon="5.94991">
        <ele>593</ele>
        <time>2019-04-09T11:35:44Z</time>
      </trkpt>
      <trkpt lat="44.40342" lon="5.94995">
        <ele>593</ele>
        <time>2019-04-09T11:35:45Z</time>
      </trkpt>
      <trkpt lat="44.40347" lon="5.94998">
        <ele>593</ele>
        <time>2019-04-09T11:35:46Z</time>
      </trkpt>
      <trkpt lat="44.40353" lon="5.95">
        <ele>593</ele>
        <time>2019-04-09T11:35:47Z</time>
      </trkpt>
      <trkpt lat="44.40358" lon="5.95002">
        <ele>593</ele>
        <time>2019-04-09T11:35:48Z</time>
      </trkpt>
      <trkpt lat="44.40363" lon="5.95006">
        <ele>593</ele>
        <time>2019-04-09T11:35:49Z</time>
      </trkpt>
      <trkpt lat="44.40368" lon="5.9501">
        <ele>593</ele>
        <time>2019-04-09T11:35:50Z</time>
      </trkpt>
      <trkpt lat="44.40374" lon="5.95014">
        <ele>593</ele>
        <time>2019-04-09T11:35:51Z</time>
      </trkpt>
      <trkpt lat="44.40379" lon="5.95019">
        <ele>593</ele>
        <time>2019-04-09T11:35:52Z</time>
      </trkpt>
      <trkpt lat="44.40384" lon="5.95024">
        <ele>593</ele>
        <time>2019-04-09T11:35:53Z</time>
      </trkpt>
      <trkpt lat="44.40388" lon="5.9503">
        <ele>593</ele>
        <time>2019-04-09T11:35:54Z</time>
      </trkpt>
      <trkpt lat="44.40393" lon="5.95035">
        <ele>593</ele>
        <time>2019-04-09T11:35:55Z</time>
      </trkpt>
      <trkpt lat="44.40398" lon="5.95039">
        <ele>593</ele>
        <time>2019-04-09T11:35:56Z</time>
      </trkpt>
      <trkpt lat="44.40403" lon="5.95042">
        <ele>593</ele>
        <time>2019-04-09T11:35:57Z</time>
      </trkpt>
      <trkpt lat="44.40408" lon="5.95046">
        <ele>593</ele>
        <time>2019-04-09T11:35:58Z</time>
      </trkpt>
      <trkpt lat="44.40412" lon="5.95049">
        <ele>593</ele>
        <time>2019-04-09T11:35:59Z</time>
      </trkpt>
      <trkpt lat="44.40417" lon="5.95052">
        <ele>593</ele>
        <time>2019-04-09T11:36:00Z</time>
      </trkpt>
      <trkpt lat="44.40421" lon="5.95055">
        <ele>593</ele>
        <time>2019-04-09T11:36:01Z</time>
      </trkpt>
      <trkpt lat="44.40426" lon="5.95058">
        <ele>593</ele>
        <time>2019-04-09T11:36:02Z</time>
      </trkpt>
      <trkpt lat="44.4043" lon="5.9506">
        <ele>593</ele>
        <time>2019-04-09T11:36:03Z</time>
      </trkpt>
      <trkpt lat="44.40435" lon="5.95063">
        <ele>593</ele>
        <time>2019-04-09T11:36:04Z</time>
      </trkpt>
      <trkpt lat="44.40439" lon="5.95066">
        <ele>593</ele>
        <time>2019-04-09T11:36:05Z</time>
      </trkpt>
      <trkpt lat="44.40443" lon="5.95068">
        <ele>593</ele>
        <time>2019-04-09T11:36:06Z</time>
      </trkpt>
      <trkpt lat="44.40447" lon="5.9507">
        <ele>593</ele>
        <time>2019-04-09T11:36:07Z</time>
      </trkpt>
      <trkpt lat="44.40451" lon="5.95073">
        <ele>593</ele>
        <time>2019-04-09T11:36:08Z</time>
      </trkpt>
      <trkpt lat="44.40455" lon="5.95075">
        <ele>593</ele>
        <time>2019-04-09T11:36:09Z</time>
      </trkpt>
      <trkpt lat="44.40459" lon="5.95077">
        <ele>594</ele>
        <time>2019-04-09T11:36:10Z</time>
      </trkpt>
      <trkpt lat="44.40463" lon="5.95079">
        <ele>594</ele>
        <time>2019-04-09T11:36:11Z</time>
      </trkpt>
      <trkpt lat="44.40467" lon="5.95082">
        <ele>594</ele>
        <time>2019-04-09T11:36:12Z</time>
      </trkpt>
      <trkpt lat="44.40471" lon="5.95084">
        <ele>594</ele>
        <time>2019-04-09T11:36:13Z</time>
      </trkpt>
      <trkpt lat="44.40474" lon="5.95085">
        <ele>595</ele>
        <time>2019-04-09T11:36:14Z</time>
      </trkpt>
      <trkpt lat="44.40478" lon="5.95087">
        <ele>595</ele>
        <time>2019-04-09T11:36:15Z</time>
      </trkpt>
      <trkpt lat="44.40481" lon="5.95088">
        <ele>595</ele>
        <time>2019-04-09T11:36:16Z</time>
      </trkpt>
      <trkpt lat="44.40485" lon="5.9509">
        <ele>595</ele>
        <time>2019-04-09T11:36:17Z</time>
      </trkpt>
      <trkpt lat="44.40489" lon="5.9509">
        <ele>596</ele>
        <time>2019-04-09T11:36:18Z</time>
      </trkpt>
      <trkpt lat="44.40493" lon="5.95091">
        <ele>596</ele>
        <time>2019-04-09T11:36:19Z</time>
      </trkpt>
      <trkpt lat="44.40496" lon="5.9509">
        <ele>596</ele>
        <time>2019-04-09T11:36:20Z</time>
      </trkpt>
      <trkpt lat="44.405" lon="5.9509">
        <ele>596</ele>
        <time>2019-04-09T11:36:21Z</time>
      </trkpt>
      <trkpt lat="44.40504" lon="5.95089">
        <ele>597</ele>
        <time>2019-04-09T11:36:22Z</time>
      </trkpt>
      <trkpt lat="44.40508" lon="5.95088">
        <ele>597</ele>
        <time>2019-04-09T11:36:23Z</time>
      </trkpt>
      <trkpt lat="44.40512" lon="5.95087">
        <ele>597</ele>
        <time>2019-04-09T11:36:24Z</time>
      </trkpt>
      <trkpt lat="44.40516" lon="5.95087">
        <ele>597</ele>
        <time>2019-04-09T11:36:25Z</time>
      </trkpt>
      <trkpt lat="44.4052" lon="5.95086">
        <ele>598</ele>
        <time>2019-04-09T11:36:26Z</time>
      </trkpt>
      <trkpt lat="44.40523" lon="5.95085">
        <ele>598</ele>
        <time>2019-04-09T11:36:27Z</time>
      </trkpt>
      <trkpt lat="44.40527" lon="5.95084">
        <ele>598</ele>
        <time>2019-04-09T11:36:28Z</time>
      </trkpt>
      <trkpt lat="44.4053" lon="5.95083">
        <ele>598</ele>
        <time>2019-04-09T11:36:29Z</time>
      </trkpt>
      <trkpt lat="44.40534" lon="5.95082">
        <ele>598</ele>
        <time>2019-04-09T11:36:30Z</time>
      </trkpt>
      <trkpt lat="44.40538" lon="5.95081">
        <ele>598</ele>
        <time>2019-04-09T11:36:31Z</time>
      </trkpt>
      <trkpt lat="44.40541" lon="5.9508">
        <ele>598</ele>
        <time>2019-04-09T11:36:32Z</time>
      </trkpt>
      <trkpt lat="44.40545" lon="5.9508">
        <ele>598</ele>
        <time>2019-04-09T11:36:34Z</time>
      </trkpt>
      <trkpt lat="44.40549" lon="5.95079">
        <ele>599</ele>
        <time>2019-04-09T11:36:34Z</time>
      </trkpt>
      <trkpt lat="44.40553" lon="5.95078">
        <ele>599</ele>
        <time>2019-04-09T11:36:35Z</time>
      </trkpt>
      <trkpt lat="44.40556" lon="5.95078">
        <ele>599</ele>
        <time>2019-04-09T11:36:36Z</time>
      </trkpt>
      <trkpt lat="44.4056" lon="5.95077">
        <ele>599</ele>
        <time>2019-04-09T11:36:37Z</time>
      </trkpt>
      <trkpt lat="44.40563" lon="5.95077">
        <ele>600</ele>
        <time>2019-04-09T11:36:38Z</time>
      </trkpt>
      <trkpt lat="44.40567" lon="5.95077">
        <ele>600</ele>
        <time>2019-04-09T11:36:39Z</time>
      </trkpt>
      <trkpt lat="44.4057" lon="5.95076">
        <ele>600</ele>
        <time>2019-04-09T11:36:40Z</time>
      </trkpt>
      <trkpt lat="44.40573" lon="5.95076">
        <ele>601</ele>
        <time>2019-04-09T11:36:41Z</time>
      </trkpt>
      <trkpt lat="44.40577" lon="5.95075">
        <ele>601</ele>
        <time>2019-04-09T11:36:42Z</time>
      </trkpt>
      <trkpt lat="44.4058" lon="5.95075">
        <ele>601</ele>
        <time>2019-04-09T11:36:43Z</time>
      </trkpt>
      <trkpt lat="44.40583" lon="5.95074">
        <ele>601</ele>
        <time>2019-04-09T11:36:44Z</time>
      </trkpt>
      <trkpt lat="44.40587" lon="5.95074">
        <ele>602</ele>
        <time>2019-04-09T11:36:45Z</time>
      </trkpt>
      <trkpt lat="44.4059" lon="5.95074">
        <ele>602</ele>
        <time>2019-04-09T11:36:46Z</time>
      </trkpt>
      <trkpt lat="44.40594" lon="5.95073">
        <ele>602</ele>
        <time>2019-04-09T11:36:47Z</time>
      </trkpt>
      <trkpt lat="44.40597" lon="5.95073">
        <ele>602</ele>
        <time>2019-04-09T11:36:48Z</time>
      </trkpt>
      <trkpt lat="44.40601" lon="5.95072">
        <ele>603</ele>
        <time>2019-04-09T11:36:49Z</time>
      </trkpt>
      <trkpt lat="44.40604" lon="5.95072">
        <ele>603</ele>
        <time>2019-04-09T11:36:50Z</time>
      </trkpt>
      <trkpt lat="44.40607" lon="5.95071">
        <ele>603</ele>
        <time>2019-04-09T11:36:51Z</time>
      </trkpt>
      <trkpt lat="44.4061" lon="5.9507">
        <ele>603</ele>
        <time>2019-04-09T11:36:52Z</time>
      </trkpt>
      <trkpt lat="44.40614" lon="5.95069">
        <ele>604</ele>
        <time>2019-04-09T11:36:53Z</time>
      </trkpt>
      <trkpt lat="44.40617" lon="5.95068">
        <ele>604</ele>
        <time>2019-04-09T11:36:54Z</time>
      </trkpt>
      <trkpt lat="44.4062" lon="5.95068">
        <ele>604</ele>
        <time>2019-04-09T11:36:55Z</time>
      </trkpt>
      <trkpt lat="44.40623" lon="5.95067">
        <ele>604</ele>
        <time>2019-04-09T11:36:56Z</time>
      </trkpt>
      <trkpt lat="44.40627" lon="5.95066">
        <ele>604</ele>
        <time>2019-04-09T11:36:57Z</time>
      </trkpt>
      <trkpt lat="44.4063" lon="5.95065">
        <ele>604</ele>
        <time>2019-04-09T11:36:58Z</time>
      </trkpt>
      <trkpt lat="44.40633" lon="5.95063">
        <ele>604</ele>
        <time>2019-04-09T11:36:59Z</time>
      </trkpt>
      <trkpt lat="44.40637" lon="5.95062">
        <ele>605</ele>
        <time>2019-04-09T11:37:00Z</time>
      </trkpt>
      <trkpt lat="44.4064" lon="5.9506">
        <ele>605</ele>
        <time>2019-04-09T11:37:01Z</time>
      </trkpt>
      <trkpt lat="44.40643" lon="5.95059">
        <ele>605</ele>
        <time>2019-04-09T11:37:02Z</time>
      </trkpt>
      <trkpt lat="44.40646" lon="5.95058">
        <ele>605</ele>
        <time>2019-04-09T11:37:03Z</time>
      </trkpt>
      <trkpt lat="44.4065" lon="5.95056">
        <ele>605</ele>
        <time>2019-04-09T11:37:04Z</time>
      </trkpt>
      <trkpt lat="44.40653" lon="5.95055">
        <ele>606</ele>
        <time>2019-04-09T11:37:05Z</time>
      </trkpt>
      <trkpt lat="44.40656" lon="5.95053">
        <ele>606</ele>
        <time>2019-04-09T11:37:06Z</time>
      </trkpt>
      <trkpt lat="44.4066" lon="5.95052">
        <ele>606</ele>
        <time>2019-04-09T11:37:07Z</time>
      </trkpt>
      <trkpt lat="44.40663" lon="5.9505">
        <ele>606</ele>
        <time>2019-04-09T11:37:08Z</time>
      </trkpt>
      <trkpt lat="44.40667" lon="5.95049">
        <ele>606</ele>
        <time>2019-04-09T11:37:09Z</time>
      </trkpt>
      <trkpt lat="44.40671" lon="5.95048">
        <ele>606</ele>
        <time>2019-04-09T11:37:10Z</time>
      </trkpt>
      <trkpt lat="44.40675" lon="5.95047">
        <ele>606</ele>
        <time>2019-04-09T11:37:11Z</time>
      </trkpt>
      <trkpt lat="44.40679" lon="5.95046">
        <ele>606</ele>
        <time>2019-04-09T11:37:12Z</time>
      </trkpt>
      <trkpt lat="44.40684" lon="5.95045">
        <ele>606</ele>
        <time>2019-04-09T11:37:13Z</time>
      </trkpt>
      <trkpt lat="44.40688" lon="5.95044">
        <ele>606</ele>
        <time>2019-04-09T11:37:14Z</time>
      </trkpt>
      <trkpt lat="44.40693" lon="5.95043">
        <ele>606</ele>
        <time>2019-04-09T11:37:15Z</time>
      </trkpt>
      <trkpt lat="44.40697" lon="5.95043">
        <ele>607</ele>
        <time>2019-04-09T11:37:16Z</time>
      </trkpt>
      <trkpt lat="44.40702" lon="5.95042">
        <ele>607</ele>
        <time>2019-04-09T11:37:17Z</time>
      </trkpt>
      <trkpt lat="44.40706" lon="5.95042">
        <ele>607</ele>
        <time>2019-04-09T11:37:18Z</time>
      </trkpt>
      <trkpt lat="44.4071" lon="5.95042">
        <ele>607</ele>
        <time>2019-04-09T11:37:19Z</time>
      </trkpt>
      <trkpt lat="44.40715" lon="5.95041">
        <ele>607</ele>
        <time>2019-04-09T11:37:20Z</time>
      </trkpt>
      <trkpt lat="44.4072" lon="5.95041">
        <ele>607</ele>
        <time>2019-04-09T11:37:21Z</time>
      </trkpt>
      <trkpt lat="44.40724" lon="5.95041">
        <ele>607</ele>
        <time>2019-04-09T11:37:22Z</time>
      </trkpt>
      <trkpt lat="44.40729" lon="5.9504">
        <ele>607</ele>
        <time>2019-04-09T11:37:23Z</time>
      </trkpt>
      <trkpt lat="44.40734" lon="5.9504">
        <ele>607</ele>
        <time>2019-04-09T11:37:24Z</time>
      </trkpt>
      <trkpt lat="44.40739" lon="5.9504">
        <ele>607</ele>
        <time>2019-04-09T11:37:25Z</time>
      </trkpt>
      <trkpt lat="44.40744" lon="5.9504">
        <ele>607</ele>
        <time>2019-04-09T11:37:26Z</time>
      </trkpt>
      <trkpt lat="44.40749" lon="5.9504">
        <ele>607</ele>
        <time>2019-04-09T11:37:27Z</time>
      </trkpt>
      <trkpt lat="44.40754" lon="5.95039">
        <ele>607</ele>
        <time>2019-04-09T11:37:29Z</time>
      </trkpt>
      <trkpt lat="44.4076" lon="5.95039">
        <ele>607</ele>
        <time>2019-04-09T11:37:29Z</time>
      </trkpt>
      <trkpt lat="44.40765" lon="5.95039">
        <ele>607</ele>
        <time>2019-04-09T11:37:30Z</time>
      </trkpt>
      <trkpt lat="44.4077" lon="5.95039">
        <ele>607</ele>
        <time>2019-04-09T11:37:31Z</time>
      </trkpt>
      <trkpt lat="44.40775" lon="5.95038">
        <ele>607</ele>
        <time>2019-04-09T11:37:32Z</time>
      </trkpt>
      <trkpt lat="44.40781" lon="5.95038">
        <ele>607</ele>
        <time>2019-04-09T11:37:34Z</time>
      </trkpt>
      <trkpt lat="44.40786" lon="5.95038">
        <ele>607</ele>
        <time>2019-04-09T11:37:34Z</time>
      </trkpt>
      <trkpt lat="44.40792" lon="5.95038">
        <ele>607</ele>
        <time>2019-04-09T11:37:35Z</time>
      </trkpt>
      <trkpt lat="44.40798" lon="5.95039">
        <ele>607</ele>
        <time>2019-04-09T11:37:36Z</time>
      </trkpt>
      <trkpt lat="44.40804" lon="5.9504">
        <ele>607</ele>
        <time>2019-04-09T11:37:37Z</time>
      </trkpt>
      <trkpt lat="44.4081" lon="5.95041">
        <ele>607</ele>
        <time>2019-04-09T11:37:38Z</time>
      </trkpt>
      <trkpt lat="44.40816" lon="5.95042">
        <ele>607</ele>
        <time>2019-04-09T11:37:39Z</time>
      </trkpt>
      <trkpt lat="44.40823" lon="5.95043">
        <ele>607</ele>
        <time>2019-04-09T11:37:40Z</time>
      </trkpt>
      <trkpt lat="44.4083" lon="5.95044">
        <ele>607</ele>
        <time>2019-04-09T11:37:41Z</time>
      </trkpt>
      <trkpt lat="44.40836" lon="5.95044">
        <ele>607</ele>
        <time>2019-04-09T11:37:42Z</time>
      </trkpt>
      <trkpt lat="44.40843" lon="5.95045">
        <ele>607</ele>
        <time>2019-04-09T11:37:43Z</time>
      </trkpt>
      <trkpt lat="44.4085" lon="5.95046">
        <ele>607</ele>
        <time>2019-04-09T11:37:44Z</time>
      </trkpt>
      <trkpt lat="44.40856" lon="5.95046">
        <ele>607</ele>
        <time>2019-04-09T11:37:45Z</time>
      </trkpt>
      <trkpt lat="44.40863" lon="5.95045">
        <ele>607</ele>
        <time>2019-04-09T11:37:46Z</time>
      </trkpt>
      <trkpt lat="44.40869" lon="5.95044">
        <ele>607</ele>
        <time>2019-04-09T11:37:47Z</time>
      </trkpt>
      <trkpt lat="44.40875" lon="5.95041">
        <ele>607</ele>
        <time>2019-04-09T11:37:48Z</time>
      </trkpt>
      <trkpt lat="44.40881" lon="5.95038">
        <ele>607</ele>
        <time>2019-04-09T11:37:49Z</time>
      </trkpt>
      <trkpt lat="44.40886" lon="5.95034">
        <ele>607</ele>
        <time>2019-04-09T11:37:50Z</time>
      </trkpt>
      <trkpt lat="44.40891" lon="5.9503">
        <ele>607</ele>
        <time>2019-04-09T11:37:51Z</time>
      </trkpt>
      <trkpt lat="44.40896" lon="5.95027">
        <ele>607</ele>
        <time>2019-04-09T11:37:52Z</time>
      </trkpt>
      <trkpt lat="44.409" lon="5.95025">
        <ele>607</ele>
        <time>2019-04-09T11:37:53Z</time>
      </trkpt>
      <trkpt lat="44.40905" lon="5.95023">
        <ele>607</ele>
        <time>2019-04-09T11:37:54Z</time>
      </trkpt>
      <trkpt lat="44.40909" lon="5.95021">
        <ele>607</ele>
        <time>2019-04-09T11:37:55Z</time>
      </trkpt>
      <trkpt lat="44.40913" lon="5.95019">
        <ele>607</ele>
        <time>2019-04-09T11:37:56Z</time>
      </trkpt>
      <trkpt lat="44.40917" lon="5.95019">
        <ele>607</ele>
        <time>2019-04-09T11:37:57Z</time>
      </trkpt>
      <trkpt lat="44.40921" lon="5.95019">
        <ele>607</ele>
        <time>2019-04-09T11:37:58Z</time>
      </trkpt>
      <trkpt lat="44.40926" lon="5.95019">
        <ele>607</ele>
        <time>2019-04-09T11:37:59Z</time>
      </trkpt>
      <trkpt lat="44.4093" lon="5.9502">
        <ele>607</ele>
        <time>2019-04-09T11:38:00Z</time>
      </trkpt>
      <trkpt lat="44.40934" lon="5.95022">
        <ele>607</ele>
        <time>2019-04-09T11:38:01Z</time>
      </trkpt>
      <trkpt lat="44.40939" lon="5.95024">
        <ele>607</ele>
        <time>2019-04-09T11:38:02Z</time>
      </trkpt>
      <trkpt lat="44.40943" lon="5.95026">
        <ele>607</ele>
        <time>2019-04-09T11:38:03Z</time>
      </trkpt>
      <trkpt lat="44.40947" lon="5.95028">
        <ele>607</ele>
        <time>2019-04-09T11:38:04Z</time>
      </trkpt>
      <trkpt lat="44.40951" lon="5.95031">
        <ele>607</ele>
        <time>2019-04-09T11:38:05Z</time>
      </trkpt>
      <trkpt lat="44.40955" lon="5.95034">
        <ele>607</ele>
        <time>2019-04-09T11:38:06Z</time>
      </trkpt>
      <trkpt lat="44.40958" lon="5.95037">
        <ele>607</ele>
        <time>2019-04-09T11:38:07Z</time>
      </trkpt>
      <trkpt lat="44.40962" lon="5.9504">
        <ele>607</ele>
        <time>2019-04-09T11:38:08Z</time>
      </trkpt>
      <trkpt lat="44.40966" lon="5.95042">
        <ele>607</ele>
        <time>2019-04-09T11:38:09Z</time>
      </trkpt>
      <trkpt lat="44.40969" lon="5.95045">
        <ele>607</ele>
        <time>2019-04-09T11:38:10Z</time>
      </trkpt>
      <trkpt lat="44.40973" lon="5.95047">
        <ele>608</ele>
        <time>2019-04-09T11:38:11Z</time>
      </trkpt>
      <trkpt lat="44.40977" lon="5.9505">
        <ele>608</ele>
        <time>2019-04-09T11:38:12Z</time>
      </trkpt>
      <trkpt lat="44.40981" lon="5.95052">
        <ele>608</ele>
        <time>2019-04-09T11:38:13Z</time>
      </trkpt>
      <trkpt lat="44.40985" lon="5.95053">
        <ele>608</ele>
        <time>2019-04-09T11:38:14Z</time>
      </trkpt>
      <trkpt lat="44.40989" lon="5.95056">
        <ele>608</ele>
        <time>2019-04-09T11:38:15Z</time>
      </trkpt>
      <trkpt lat="44.40992" lon="5.95057">
        <ele>608</ele>
        <time>2019-04-09T11:38:16Z</time>
      </trkpt>
      <trkpt lat="44.40996" lon="5.95059">
        <ele>608</ele>
        <time>2019-04-09T11:38:17Z</time>
      </trkpt>
      <trkpt lat="44.41" lon="5.95062">
        <ele>608</ele>
        <time>2019-04-09T11:38:18Z</time>
      </trkpt>
      <trkpt lat="44.41004" lon="5.95063">
        <ele>608</ele>
        <time>2019-04-09T11:38:19Z</time>
      </trkpt>
      <trkpt lat="44.41008" lon="5.95065">
        <ele>609</ele>
        <time>2019-04-09T11:38:20Z</time>
      </trkpt>
      <trkpt lat="44.41013" lon="5.95066">
        <ele>609</ele>
        <time>2019-04-09T11:38:21Z</time>
      </trkpt>
      <trkpt lat="44.41016" lon="5.95068">
        <ele>609</ele>
        <time>2019-04-09T11:38:22Z</time>
      </trkpt>
      <trkpt lat="44.4102" lon="5.95069">
        <ele>610</ele>
        <time>2019-04-09T11:38:23Z</time>
      </trkpt>
      <trkpt lat="44.41024" lon="5.9507">
        <ele>610</ele>
        <time>2019-04-09T11:38:24Z</time>
      </trkpt>
      <trkpt lat="44.41028" lon="5.95072">
        <ele>610</ele>
        <time>2019-04-09T11:38:25Z</time>
      </trkpt>
      <trkpt lat="44.41031" lon="5.95073">
        <ele>611</ele>
        <time>2019-04-09T11:38:26Z</time>
      </trkpt>
      <trkpt lat="44.41035" lon="5.95074">
        <ele>611</ele>
        <time>2019-04-09T11:38:27Z</time>
      </trkpt>
      <trkpt lat="44.41038" lon="5.95075">
        <ele>611</ele>
        <time>2019-04-09T11:38:28Z</time>
      </trkpt>
      <trkpt lat="44.41042" lon="5.95077">
        <ele>611</ele>
        <time>2019-04-09T11:38:29Z</time>
      </trkpt>
      <trkpt lat="44.41045" lon="5.95078">
        <ele>612</ele>
        <time>2019-04-09T11:38:30Z</time>
      </trkpt>
      <trkpt lat="44.41048" lon="5.95079">
        <ele>612</ele>
        <time>2019-04-09T11:38:31Z</time>
      </trkpt>
      <trkpt lat="44.41051" lon="5.9508">
        <ele>612</ele>
        <time>2019-04-09T11:38:32Z</time>
      </trkpt>
      <trkpt lat="44.41053" lon="5.95081">
        <ele>612</ele>
        <time>2019-04-09T11:38:34Z</time>
      </trkpt>
      <trkpt lat="44.41056" lon="5.95082">
        <ele>612</ele>
        <time>2019-04-09T11:38:34Z</time>
      </trkpt>
      <trkpt lat="44.41059" lon="5.95084">
        <ele>612</ele>
        <time>2019-04-09T11:38:35Z</time>
      </trkpt>
      <trkpt lat="44.41062" lon="5.95084">
        <ele>613</ele>
        <time>2019-04-09T11:38:36Z</time>
      </trkpt>
      <trkpt lat="44.41064" lon="5.95085">
        <ele>613</ele>
        <time>2019-04-09T11:38:37Z</time>
      </trkpt>
      <trkpt lat="44.41068" lon="5.95086">
        <ele>613</ele>
        <time>2019-04-09T11:38:38Z</time>
      </trkpt>
      <trkpt lat="44.41071" lon="5.95087">
        <ele>614</ele>
        <time>2019-04-09T11:38:39Z</time>
      </trkpt>
      <trkpt lat="44.41074" lon="5.95089">
        <ele>614</ele>
        <time>2019-04-09T11:38:40Z</time>
      </trkpt>
      <trkpt lat="44.41077" lon="5.95089">
        <ele>614</ele>
        <time>2019-04-09T11:38:41Z</time>
      </trkpt>
      <trkpt lat="44.41079" lon="5.9509">
        <ele>615</ele>
        <time>2019-04-09T11:38:42Z</time>
      </trkpt>
      <trkpt lat="44.41082" lon="5.95091">
        <ele>615</ele>
        <time>2019-04-09T11:38:43Z</time>
      </trkpt>
      <trkpt lat="44.41085" lon="5.95092">
        <ele>615</ele>
        <time>2019-04-09T11:38:44Z</time>
      </trkpt>
      <trkpt lat="44.41087" lon="5.95093">
        <ele>615</ele>
        <time>2019-04-09T11:38:45Z</time>
      </trkpt>
      <trkpt lat="44.4109" lon="5.95093">
        <ele>616</ele>
        <time>2019-04-09T11:38:46Z</time>
      </trkpt>
      <trkpt lat="44.41093" lon="5.95093">
        <ele>616</ele>
        <time>2019-04-09T11:38:47Z</time>
      </trkpt>
      <trkpt lat="44.41095" lon="5.95093">
        <ele>616</ele>
        <time>2019-04-09T11:38:48Z</time>
      </trkpt>
      <trkpt lat="44.41098" lon="5.95093">
        <ele>616</ele>
        <time>2019-04-09T11:38:49Z</time>
      </trkpt>
      <trkpt lat="44.41101" lon="5.95092">
        <ele>616</ele>
        <time>2019-04-09T11:38:50Z</time>
      </trkpt>
      <trkpt lat="44.41104" lon="5.95092">
        <ele>616</ele>
        <time>2019-04-09T11:38:51Z</time>
      </trkpt>
      <trkpt lat="44.41107" lon="5.95092">
        <ele>617</ele>
        <time>2019-04-09T11:38:52Z</time>
      </trkpt>
      <trkpt lat="44.4111" lon="5.95091">
        <ele>617</ele>
        <time>2019-04-09T11:38:53Z</time>
      </trkpt>
      <trkpt lat="44.41113" lon="5.9509">
        <ele>618</ele>
        <time>2019-04-09T11:38:54Z</time>
      </trkpt>
      <trkpt lat="44.41116" lon="5.9509">
        <ele>618</ele>
        <time>2019-04-09T11:38:55Z</time>
      </trkpt>
      <trkpt lat="44.41118" lon="5.95089">
        <ele>618</ele>
        <time>2019-04-09T11:38:56Z</time>
      </trkpt>
      <trkpt lat="44.41121" lon="5.95088">
        <ele>619</ele>
        <time>2019-04-09T11:38:57Z</time>
      </trkpt>
      <trkpt lat="44.41124" lon="5.95087">
        <ele>619</ele>
        <time>2019-04-09T11:38:58Z</time>
      </trkpt>
      <trkpt lat="44.41126" lon="5.95086">
        <ele>620</ele>
        <time>2019-04-09T11:38:59Z</time>
      </trkpt>
      <trkpt lat="44.41129" lon="5.95085">
        <ele>620</ele>
        <time>2019-04-09T11:39:00Z</time>
      </trkpt>
      <trkpt lat="44.41131" lon="5.95084">
        <ele>621</ele>
        <time>2019-04-09T11:39:01Z</time>
      </trkpt>
      <trkpt lat="44.41134" lon="5.95083">
        <ele>621</ele>
        <time>2019-04-09T11:39:02Z</time>
      </trkpt>
      <trkpt lat="44.41136" lon="5.95083">
        <ele>621</ele>
        <time>2019-04-09T11:39:03Z</time>
      </trkpt>
      <trkpt lat="44.41138" lon="5.95082">
        <ele>622</ele>
        <time>2019-04-09T11:39:04Z</time>
      </trkpt>
      <trkpt lat="44.41141" lon="5.95082">
        <ele>622</ele>
        <time>2019-04-09T11:39:05Z</time>
      </trkpt>
      <trkpt lat="44.41143" lon="5.95081">
        <ele>623</ele>
        <time>2019-04-09T11:39:06Z</time>
      </trkpt>
      <trkpt lat="44.41146" lon="5.9508">
        <ele>623</ele>
        <time>2019-04-09T11:39:07Z</time>
      </trkpt>
      <trkpt lat="44.41148" lon="5.9508">
        <ele>624</ele>
        <time>2019-04-09T11:39:08Z</time>
      </trkpt>
      <trkpt lat="44.4115" lon="5.95079">
        <ele>624</ele>
        <time>2019-04-09T11:39:09Z</time>
      </trkpt>
      <trkpt lat="44.41153" lon="5.95078">
        <ele>625</ele>
        <time>2019-04-09T11:39:10Z</time>
      </trkpt>
      <trkpt lat="44.41155" lon="5.95078">
        <ele>625</ele>
        <time>2019-04-09T11:39:11Z</time>
      </trkpt>
      <trkpt lat="44.41157" lon="5.95077">
        <ele>625</ele>
        <time>2019-04-09T11:39:12Z</time>
      </trkpt>
      <trkpt lat="44.41159" lon="5.95077">
        <ele>626</ele>
        <time>2019-04-09T11:39:13Z</time>
      </trkpt>
      <trkpt lat="44.41161" lon="5.95076">
        <ele>626</ele>
        <time>2019-04-09T11:39:14Z</time>
      </trkpt>
      <trkpt lat="44.41164" lon="5.95075">
        <ele>626</ele>
        <time>2019-04-09T11:39:15Z</time>
      </trkpt>
      <trkpt lat="44.41166" lon="5.95074">
        <ele>626</ele>
        <time>2019-04-09T11:39:16Z</time>
      </trkpt>
      <trkpt lat="44.41168" lon="5.95074">
        <ele>627</ele>
        <time>2019-04-09T11:39:17Z</time>
      </trkpt>
      <trkpt lat="44.41171" lon="5.95074">
        <ele>627</ele>
        <time>2019-04-09T11:39:18Z</time>
      </trkpt>
      <trkpt lat="44.41173" lon="5.95074">
        <ele>627</ele>
        <time>2019-04-09T11:39:19Z</time>
      </trkpt>
      <trkpt lat="44.41175" lon="5.95073">
        <ele>627</ele>
        <time>2019-04-09T11:39:20Z</time>
      </trkpt>
      <trkpt lat="44.41178" lon="5.95073">
        <ele>627</ele>
        <time>2019-04-09T11:39:21Z</time>
      </trkpt>
      <trkpt lat="44.4118" lon="5.95073">
        <ele>627</ele>
        <time>2019-04-09T11:39:22Z</time>
      </trkpt>
      <trkpt lat="44.41183" lon="5.95072">
        <ele>627</ele>
        <time>2019-04-09T11:39:23Z</time>
      </trkpt>
      <trkpt lat="44.41185" lon="5.95072">
        <ele>627</ele>
        <time>2019-04-09T11:39:24Z</time>
      </trkpt>
      <trkpt lat="44.41188" lon="5.95072">
        <ele>627</ele>
        <time>2019-04-09T11:39:25Z</time>
      </trkpt>
      <trkpt lat="44.4119" lon="5.95072">
        <ele>627</ele>
        <time>2019-04-09T11:39:26Z</time>
      </trkpt>
      <trkpt lat="44.41192" lon="5.95072">
        <ele>628</ele>
        <time>2019-04-09T11:39:27Z</time>
      </trkpt>
      <trkpt lat="44.41195" lon="5.95072">
        <ele>628</ele>
        <time>2019-04-09T11:39:28Z</time>
      </trkpt>
      <trkpt lat="44.41198" lon="5.95072">
        <ele>628</ele>
        <time>2019-04-09T11:39:29Z</time>
      </trkpt>
      <trkpt lat="44.41201" lon="5.95072">
        <ele>628</ele>
        <time>2019-04-09T11:39:30Z</time>
      </trkpt>
      <trkpt lat="44.41204" lon="5.95072">
        <ele>628</ele>
        <time>2019-04-09T11:39:31Z</time>
      </trkpt>
      <trkpt lat="44.41207" lon="5.95072">
        <ele>628</ele>
        <time>2019-04-09T11:39:32Z</time>
      </trkpt>
      <trkpt lat="44.41209" lon="5.95072">
        <ele>628</ele>
        <time>2019-04-09T11:39:34Z</time>
      </trkpt>
      <trkpt lat="44.41213" lon="5.95072">
        <ele>628</ele>
        <time>2019-04-09T11:39:34Z</time>
      </trkpt>
      <trkpt lat="44.41217" lon="5.95071">
        <ele>628</ele>
        <time>2019-04-09T11:39:35Z</time>
      </trkpt>
      <trkpt lat="44.4122" lon="5.95071">
        <ele>628</ele>
        <time>2019-04-09T11:39:36Z</time>
      </trkpt>
      <trkpt lat="44.41224" lon="5.9507">
        <ele>628</ele>
        <time>2019-04-09T11:39:37Z</time>
      </trkpt>
      <trkpt lat="44.41228" lon="5.95069">
        <ele>628</ele>
        <time>2019-04-09T11:39:38Z</time>
      </trkpt>
      <trkpt lat="44.41232" lon="5.95068">
        <ele>628</ele>
        <time>2019-04-09T11:39:39Z</time>
      </trkpt>
      <trkpt lat="44.41236" lon="5.95068">
        <ele>628</ele>
        <time>2019-04-09T11:39:40Z</time>
      </trkpt>
      <trkpt lat="44.4124" lon="5.95066">
        <ele>628</ele>
        <time>2019-04-09T11:39:41Z</time>
      </trkpt>
      <trkpt lat="44.41245" lon="5.95065">
        <ele>628</ele>
        <time>2019-04-09T11:39:42Z</time>
      </trkpt>
      <trkpt lat="44.41249" lon="5.95064">
        <ele>628</ele>
        <time>2019-04-09T11:39:43Z</time>
      </trkpt>
      <trkpt lat="44.41254" lon="5.95062">
        <ele>628</ele>
        <time>2019-04-09T11:39:44Z</time>
      </trkpt>
      <trkpt lat="44.41259" lon="5.95061">
        <ele>629</ele>
        <time>2019-04-09T11:39:45Z</time>
      </trkpt>
      <trkpt lat="44.41264" lon="5.95059">
        <ele>629</ele>
        <time>2019-04-09T11:39:46Z</time>
      </trkpt>
      <trkpt lat="44.41269" lon="5.95057">
        <ele>629</ele>
        <time>2019-04-09T11:39:47Z</time>
      </trkpt>
      <trkpt lat="44.41274" lon="5.95055">
        <ele>629</ele>
        <time>2019-04-09T11:39:48Z</time>
      </trkpt>
      <trkpt lat="44.4128" lon="5.95053">
        <ele>629</ele>
        <time>2019-04-09T11:39:49Z</time>
      </trkpt>
      <trkpt lat="44.41285" lon="5.9505">
        <ele>629</ele>
        <time>2019-04-09T11:39:50Z</time>
      </trkpt>
      <trkpt lat="44.41291" lon="5.95049">
        <ele>629</ele>
        <time>2019-04-09T11:39:51Z</time>
      </trkpt>
      <trkpt lat="44.41296" lon="5.95047">
        <ele>629</ele>
        <time>2019-04-09T11:39:52Z</time>
      </trkpt>
      <trkpt lat="44.41302" lon="5.95044">
        <ele>629</ele>
        <time>2019-04-09T11:39:53Z</time>
      </trkpt>
      <trkpt lat="44.41308" lon="5.95042">
        <ele>629</ele>
        <time>2019-04-09T11:39:54Z</time>
      </trkpt>
      <trkpt lat="44.41313" lon="5.9504">
        <ele>629</ele>
        <time>2019-04-09T11:39:55Z</time>
      </trkpt>
      <trkpt lat="44.41319" lon="5.95037">
        <ele>629</ele>
        <time>2019-04-09T11:39:56Z</time>
      </trkpt>
      <trkpt lat="44.41324" lon="5.95034">
        <ele>629</ele>
        <time>2019-04-09T11:39:57Z</time>
      </trkpt>
      <trkpt lat="44.4133" lon="5.95031">
        <ele>629</ele>
        <time>2019-04-09T11:39:58Z</time>
      </trkpt>
      <trkpt lat="44.41336" lon="5.95028">
        <ele>629</ele>
        <time>2019-04-09T11:39:59Z</time>
      </trkpt>
      <trkpt lat="44.41342" lon="5.95026">
        <ele>629</ele>
        <time>2019-04-09T11:40:00Z</time>
      </trkpt>
      <trkpt lat="44.41347" lon="5.95023">
        <ele>629</ele>
        <time>2019-04-09T11:40:01Z</time>
      </trkpt>
      <trkpt lat="44.41353" lon="5.95021">
        <ele>629</ele>
        <time>2019-04-09T11:40:02Z</time>
      </trkpt>
      <trkpt lat="44.41359" lon="5.95019">
        <ele>629</ele>
        <time>2019-04-09T11:40:03Z</time>
      </trkpt>
      <trkpt lat="44.41364" lon="5.95017">
        <ele>629</ele>
        <time>2019-04-09T11:40:04Z</time>
      </trkpt>
      <trkpt lat="44.4137" lon="5.95017">
        <ele>629</ele>
        <time>2019-04-09T11:40:05Z</time>
      </trkpt>
      <trkpt lat="44.41375" lon="5.95017">
        <ele>629</ele>
        <time>2019-04-09T11:40:06Z</time>
      </trkpt>
      <trkpt lat="44.41381" lon="5.95016">
        <ele>629</ele>
        <time>2019-04-09T11:40:07Z</time>
      </trkpt>
      <trkpt lat="44.41386" lon="5.95016">
        <ele>629</ele>
        <time>2019-04-09T11:40:08Z</time>
      </trkpt>
      <trkpt lat="44.41391" lon="5.95016">
        <ele>629</ele>
        <time>2019-04-09T11:40:09Z</time>
      </trkpt>
      <trkpt lat="44.41396" lon="5.95016">
        <ele>629</ele>
        <time>2019-04-09T11:40:10Z</time>
      </trkpt>
      <trkpt lat="44.414" lon="5.95017">
        <ele>629</ele>
        <time>2019-04-09T11:40:11Z</time>
      </trkpt>
      <trkpt lat="44.41404" lon="5.95017">
        <ele>629</ele>
        <time>2019-04-09T11:40:12Z</time>
      </trkpt>
      <trkpt lat="44.41409" lon="5.95018">
        <ele>629</ele>
        <time>2019-04-09T11:40:13Z</time>
      </trkpt>
      <trkpt lat="44.41414" lon="5.95019">
        <ele>629</ele>
        <time>2019-04-09T11:40:14Z</time>
      </trkpt>
      <trkpt lat="44.4142" lon="5.9502">
        <ele>629</ele>
        <time>2019-04-09T11:40:15Z</time>
      </trkpt>
      <trkpt lat="44.41425" lon="5.95021">
        <ele>629</ele>
        <time>2019-04-09T11:40:16Z</time>
      </trkpt>
      <trkpt lat="44.4143" lon="5.95021">
        <ele>629</ele>
        <time>2019-04-09T11:40:17Z</time>
      </trkpt>
      <trkpt lat="44.41434" lon="5.95022">
        <ele>629</ele>
        <time>2019-04-09T11:40:18Z</time>
      </trkpt>
      <trkpt lat="44.41439" lon="5.95022">
        <ele>629</ele>
        <time>2019-04-09T11:40:19Z</time>
      </trkpt>
      <trkpt lat="44.41444" lon="5.95023">
        <ele>629</ele>
        <time>2019-04-09T11:40:20Z</time>
      </trkpt>
      <trkpt lat="44.41449" lon="5.95023">
        <ele>629</ele>
        <time>2019-04-09T11:40:21Z</time>
      </trkpt>
      <trkpt lat="44.41455" lon="5.95023">
        <ele>629</ele>
        <time>2019-04-09T11:40:22Z</time>
      </trkpt>
      <trkpt lat="44.4146" lon="5.95022">
        <ele>629</ele>
        <time>2019-04-09T11:40:23Z</time>
      </trkpt>
      <trkpt lat="44.41465" lon="5.95018">
        <ele>629</ele>
        <time>2019-04-09T11:40:24Z</time>
      </trkpt>
      <trkpt lat="44.41469" lon="5.95013">
        <ele>629</ele>
        <time>2019-04-09T11:40:25Z</time>
      </trkpt>
      <trkpt lat="44.41472" lon="5.95006">
        <ele>629</ele>
        <time>2019-04-09T11:40:26Z</time>
      </trkpt>
      <trkpt lat="44.41474" lon="5.95">
        <ele>629</ele>
        <time>2019-04-09T11:40:27Z</time>
      </trkpt>
      <trkpt lat="44.41475" lon="5.94993">
        <ele>629</ele>
        <time>2019-04-09T11:40:28Z</time>
      </trkpt>
      <trkpt lat="44.41476" lon="5.94986">
        <ele>629</ele>
        <time>2019-04-09T11:40:29Z</time>
      </trkpt>
      <trkpt lat="44.41478" lon="5.9498">
        <ele>629</ele>
        <time>2019-04-09T11:40:30Z</time>
      </trkpt>
      <trkpt lat="44.41479" lon="5.94974">
        <ele>629</ele>
        <time>2019-04-09T11:40:31Z</time>
      </trkpt>
      <trkpt lat="44.4148" lon="5.94968">
        <ele>629</ele>
        <time>2019-04-09T11:40:32Z</time>
      </trkpt>
      <trkpt lat="44.41481" lon="5.94961">
        <ele>629</ele>
        <time>2019-04-09T11:40:34Z</time>
      </trkpt>
      <trkpt lat="44.41483" lon="5.94955">
        <ele>629</ele>
        <time>2019-04-09T11:40:34Z</time>
      </trkpt>
      <trkpt lat="44.41484" lon="5.94949">
        <ele>629</ele>
        <time>2019-04-09T11:40:35Z</time>
      </trkpt>
      <trkpt lat="44.41486" lon="5.94943">
        <ele>629</ele>
        <time>2019-04-09T11:40:36Z</time>
      </trkpt>
      <trkpt lat="44.41487" lon="5.94938">
        <ele>629</ele>
        <time>2019-04-09T11:40:37Z</time>
      </trkpt>
      <trkpt lat="44.41488" lon="5.94932">
        <ele>629</ele>
        <time>2019-04-09T11:40:38Z</time>
      </trkpt>
      <trkpt lat="44.41489" lon="5.94926">
        <ele>629</ele>
        <time>2019-04-09T11:40:39Z</time>
      </trkpt>
      <trkpt lat="44.4149" lon="5.9492">
        <ele>629</ele>
        <time>2019-04-09T11:40:40Z</time>
      </trkpt>
      <trkpt lat="44.4149" lon="5.94914">
        <ele>629</ele>
        <time>2019-04-09T11:40:41Z</time>
      </trkpt>
      <trkpt lat="44.4149" lon="5.94909">
        <ele>629</ele>
        <time>2019-04-09T11:40:42Z</time>
      </trkpt>
      <trkpt lat="44.4149" lon="5.94903">
        <ele>629</ele>
        <time>2019-04-09T11:40:43Z</time>
      </trkpt>
      <trkpt lat="44.4149" lon="5.94897">
        <ele>629</ele>
        <time>2019-04-09T11:40:44Z</time>
      </trkpt>
      <trkpt lat="44.41489" lon="5.94891">
        <ele>629</ele>
        <time>2019-04-09T11:40:45Z</time>
      </trkpt>
      <trkpt lat="44.41488" lon="5.94885">
        <ele>629</ele>
        <time>2019-04-09T11:40:46Z</time>
      </trkpt>
      <trkpt lat="44.41486" lon="5.94879">
        <ele>629</ele>
        <time>2019-04-09T11:40:47Z</time>
      </trkpt>
      <trkpt lat="44.41484" lon="5.94874">
        <ele>629</ele>
        <time>2019-04-09T11:40:48Z</time>
      </trkpt>
      <trkpt lat="44.41482" lon="5.94869">
        <ele>630</ele>
        <time>2019-04-09T11:40:49Z</time>
      </trkpt>
      <trkpt lat="44.41479" lon="5.94864">
        <ele>630</ele>
        <time>2019-04-09T11:40:50Z</time>
      </trkpt>
      <trkpt lat="44.41477" lon="5.9486">
        <ele>630</ele>
        <time>2019-04-09T11:40:51Z</time>
      </trkpt>
      <trkpt lat="44.41474" lon="5.94856">
        <ele>631</ele>
        <time>2019-04-09T11:40:52Z</time>
      </trkpt>
      <trkpt lat="44.41471" lon="5.94852">
        <ele>631</ele>
        <time>2019-04-09T11:40:53Z</time>
      </trkpt>
      <trkpt lat="44.41468" lon="5.94848">
        <ele>631</ele>
        <time>2019-04-09T11:40:54Z</time>
      </trkpt>
      <trkpt lat="44.41465" lon="5.94844">
        <ele>631</ele>
        <time>2019-04-09T11:40:55Z</time>
      </trkpt>
      <trkpt lat="44.41463" lon="5.94839">
        <ele>632</ele>
        <time>2019-04-09T11:40:56Z</time>
      </trkpt>
      <trkpt lat="44.41461" lon="5.94834">
        <ele>632</ele>
        <time>2019-04-09T11:40:57Z</time>
      </trkpt>
      <trkpt lat="44.41459" lon="5.94828">
        <ele>632</ele>
        <time>2019-04-09T11:40:58Z</time>
      </trkpt>
      <trkpt lat="44.41459" lon="5.94823">
        <ele>633</ele>
        <time>2019-04-09T11:40:59Z</time>
      </trkpt>
      <trkpt lat="44.41461" lon="5.94818">
        <ele>633</ele>
        <time>2019-04-09T11:41:00Z</time>
      </trkpt>
      <trkpt lat="44.41463" lon="5.94813">
        <ele>633</ele>
        <time>2019-04-09T11:41:01Z</time>
      </trkpt>
      <trkpt lat="44.41465" lon="5.9481">
        <ele>633</ele>
        <time>2019-04-09T11:41:02Z</time>
      </trkpt>
      <trkpt lat="44.41468" lon="5.94807">
        <ele>634</ele>
        <time>2019-04-09T11:41:03Z</time>
      </trkpt>
      <trkpt lat="44.41471" lon="5.94805">
        <ele>634</ele>
        <time>2019-04-09T11:41:04Z</time>
      </trkpt>
      <trkpt lat="44.41474" lon="5.94804">
        <ele>634</ele>
        <time>2019-04-09T11:41:05Z</time>
      </trkpt>
      <trkpt lat="44.41477" lon="5.94804">
        <ele>634</ele>
        <time>2019-04-09T11:41:06Z</time>
      </trkpt>
      <trkpt lat="44.41481" lon="5.94803">
        <ele>634</ele>
        <time>2019-04-09T11:41:07Z</time>
      </trkpt>
      <trkpt lat="44.41484" lon="5.94804">
        <ele>635</ele>
        <time>2019-04-09T11:41:08Z</time>
      </trkpt>
      <trkpt lat="44.41488" lon="5.94804">
        <ele>635</ele>
        <time>2019-04-09T11:41:09Z</time>
      </trkpt>
      <trkpt lat="44.41491" lon="5.94804">
        <ele>635</ele>
        <time>2019-04-09T11:41:10Z</time>
      </trkpt>
      <trkpt lat="44.41495" lon="5.94805">
        <ele>635</ele>
        <time>2019-04-09T11:41:11Z</time>
      </trkpt>
      <trkpt lat="44.41499" lon="5.94806">
        <ele>636</ele>
        <time>2019-04-09T11:41:12Z</time>
      </trkpt>
      <trkpt lat="44.41502" lon="5.94807">
        <ele>636</ele>
        <time>2019-04-09T11:41:13Z</time>
      </trkpt>
      <trkpt lat="44.41505" lon="5.94808">
        <ele>636</ele>
        <time>2019-04-09T11:41:14Z</time>
      </trkpt>
      <trkpt lat="44.41509" lon="5.94808">
        <ele>636</ele>
        <time>2019-04-09T11:41:15Z</time>
      </trkpt>
      <trkpt lat="44.41512" lon="5.94809">
        <ele>637</ele>
        <time>2019-04-09T11:41:16Z</time>
      </trkpt>
      <trkpt lat="44.41515" lon="5.94808">
        <ele>637</ele>
        <time>2019-04-09T11:41:17Z</time>
      </trkpt>
      <trkpt lat="44.41518" lon="5.94808">
        <ele>637</ele>
        <time>2019-04-09T11:41:18Z</time>
      </trkpt>
      <trkpt lat="44.41521" lon="5.94807">
        <ele>637</ele>
        <time>2019-04-09T11:41:19Z</time>
      </trkpt>
      <trkpt lat="44.41525" lon="5.94806">
        <ele>638</ele>
        <time>2019-04-09T11:41:20Z</time>
      </trkpt>
      <trkpt lat="44.41527" lon="5.94805">
        <ele>638</ele>
        <time>2019-04-09T11:41:21Z</time>
      </trkpt>
      <trkpt lat="44.4153" lon="5.94804">
        <ele>638</ele>
        <time>2019-04-09T11:41:22Z</time>
      </trkpt>
      <trkpt lat="44.41533" lon="5.94802">
        <ele>638</ele>
        <time>2019-04-09T11:41:23Z</time>
      </trkpt>
      <trkpt lat="44.41536" lon="5.948">
        <ele>638</ele>
        <time>2019-04-09T11:41:24Z</time>
      </trkpt>
      <trkpt lat="44.41539" lon="5.94799">
        <ele>639</ele>
        <time>2019-04-09T11:41:25Z</time>
      </trkpt>
      <trkpt lat="44.41542" lon="5.94797">
        <ele>639</ele>
        <time>2019-04-09T11:41:26Z</time>
      </trkpt>
      <trkpt lat="44.41544" lon="5.94795">
        <ele>639</ele>
        <time>2019-04-09T11:41:27Z</time>
      </trkpt>
      <trkpt lat="44.41547" lon="5.94793">
        <ele>639</ele>
        <time>2019-04-09T11:41:28Z</time>
      </trkpt>
      <trkpt lat="44.4155" lon="5.94791">
        <ele>639</ele>
        <time>2019-04-09T11:41:29Z</time>
      </trkpt>
      <trkpt lat="44.41552" lon="5.94789">
        <ele>639</ele>
        <time>2019-04-09T11:41:30Z</time>
      </trkpt>
      <trkpt lat="44.41555" lon="5.94787">
        <ele>639</ele>
        <time>2019-04-09T11:41:31Z</time>
      </trkpt>
      <trkpt lat="44.41558" lon="5.94785">
        <ele>639</ele>
        <time>2019-04-09T11:41:32Z</time>
      </trkpt>
      <trkpt lat="44.4156" lon="5.94783">
        <ele>639</ele>
        <time>2019-04-09T11:41:34Z</time>
      </trkpt>
      <trkpt lat="44.41563" lon="5.9478">
        <ele>640</ele>
        <time>2019-04-09T11:41:34Z</time>
      </trkpt>
      <trkpt lat="44.41566" lon="5.94778">
        <ele>640</ele>
        <time>2019-04-09T11:41:35Z</time>
      </trkpt>
      <trkpt lat="44.41568" lon="5.94776">
        <ele>640</ele>
        <time>2019-04-09T11:41:36Z</time>
      </trkpt>
      <trkpt lat="44.41571" lon="5.94774">
        <ele>640</ele>
        <time>2019-04-09T11:41:37Z</time>
      </trkpt>
      <trkpt lat="44.41574" lon="5.94772">
        <ele>641</ele>
        <time>2019-04-09T11:41:38Z</time>
      </trkpt>
      <trkpt lat="44.41576" lon="5.94771">
        <ele>641</ele>
        <time>2019-04-09T11:41:39Z</time>
      </trkpt>
      <trkpt lat="44.41579" lon="5.94768">
        <ele>641</ele>
        <time>2019-04-09T11:41:40Z</time>
      </trkpt>
      <trkpt lat="44.41581" lon="5.94767">
        <ele>641</ele>
        <time>2019-04-09T11:41:41Z</time>
      </trkpt>
      <trkpt lat="44.41584" lon="5.94765">
        <ele>641</ele>
        <time>2019-04-09T11:41:42Z</time>
      </trkpt>
      <trkpt lat="44.41587" lon="5.94763">
        <ele>642</ele>
        <time>2019-04-09T11:41:43Z</time>
      </trkpt>
      <trkpt lat="44.41589" lon="5.94761">
        <ele>642</ele>
        <time>2019-04-09T11:41:44Z</time>
      </trkpt>
      <trkpt lat="44.41592" lon="5.94759">
        <ele>642</ele>
        <time>2019-04-09T11:41:45Z</time>
      </trkpt>
      <trkpt lat="44.41595" lon="5.94757">
        <ele>642</ele>
        <time>2019-04-09T11:41:46Z</time>
      </trkpt>
      <trkpt lat="44.41598" lon="5.94756">
        <ele>643</ele>
        <time>2019-04-09T11:41:47Z</time>
      </trkpt>
      <trkpt lat="44.416" lon="5.94755">
        <ele>643</ele>
        <time>2019-04-09T11:41:48Z</time>
      </trkpt>
      <trkpt lat="44.41603" lon="5.94754">
        <ele>643</ele>
        <time>2019-04-09T11:41:49Z</time>
      </trkpt>
      <trkpt lat="44.41606" lon="5.94754">
        <ele>644</ele>
        <time>2019-04-09T11:41:50Z</time>
      </trkpt>
      <trkpt lat="44.41608" lon="5.94752">
        <ele>644</ele>
        <time>2019-04-09T11:41:51Z</time>
      </trkpt>
      <trkpt lat="44.41611" lon="5.94751">
        <ele>645</ele>
        <time>2019-04-09T11:41:52Z</time>
      </trkpt>
      <trkpt lat="44.41614" lon="5.94749">
        <ele>645</ele>
        <time>2019-04-09T11:41:53Z</time>
      </trkpt>
      <trkpt lat="44.41617" lon="5.94747">
        <ele>645</ele>
        <time>2019-04-09T11:41:54Z</time>
      </trkpt>
      <trkpt lat="44.4162" lon="5.94746">
        <ele>646</ele>
        <time>2019-04-09T11:41:55Z</time>
      </trkpt>
      <trkpt lat="44.41622" lon="5.94744">
        <ele>646</ele>
        <time>2019-04-09T11:41:56Z</time>
      </trkpt>
      <trkpt lat="44.41625" lon="5.94743">
        <ele>646</ele>
        <time>2019-04-09T11:41:57Z</time>
      </trkpt>
      <trkpt lat="44.41628" lon="5.94741">
        <ele>646</ele>
        <time>2019-04-09T11:41:58Z</time>
      </trkpt>
      <trkpt lat="44.4163" lon="5.94738">
        <ele>646</ele>
        <time>2019-04-09T11:41:59Z</time>
      </trkpt>
      <trkpt lat="44.41632" lon="5.94736">
        <ele>646</ele>
        <time>2019-04-09T11:42:00Z</time>
      </trkpt>
      <trkpt lat="44.41635" lon="5.94733">
        <ele>647</ele>
        <time>2019-04-09T11:42:01Z</time>
      </trkpt>
      <trkpt lat="44.41637" lon="5.94731">
        <ele>647</ele>
        <time>2019-04-09T11:42:02Z</time>
      </trkpt>
      <trkpt lat="44.41639" lon="5.94729">
        <ele>647</ele>
        <time>2019-04-09T11:42:03Z</time>
      </trkpt>
      <trkpt lat="44.41642" lon="5.94726">
        <ele>647</ele>
        <time>2019-04-09T11:42:04Z</time>
      </trkpt>
      <trkpt lat="44.41644" lon="5.94723">
        <ele>648</ele>
        <time>2019-04-09T11:42:05Z</time>
      </trkpt>
      <trkpt lat="44.41646" lon="5.9472">
        <ele>648</ele>
        <time>2019-04-09T11:42:06Z</time>
      </trkpt>
      <trkpt lat="44.41648" lon="5.94718">
        <ele>648</ele>
        <time>2019-04-09T11:42:07Z</time>
      </trkpt>
      <trkpt lat="44.41651" lon="5.94715">
        <ele>648</ele>
        <time>2019-04-09T11:42:08Z</time>
      </trkpt>
      <trkpt lat="44.41653" lon="5.94713">
        <ele>649</ele>
        <time>2019-04-09T11:42:09Z</time>
      </trkpt>
      <trkpt lat="44.41656" lon="5.9471">
        <ele>649</ele>
        <time>2019-04-09T11:42:10Z</time>
      </trkpt>
      <trkpt lat="44.41658" lon="5.94707">
        <ele>649</ele>
        <time>2019-04-09T11:42:11Z</time>
      </trkpt>
      <trkpt lat="44.41661" lon="5.94705">
        <ele>649</ele>
        <time>2019-04-09T11:42:12Z</time>
      </trkpt>
      <trkpt lat="44.41663" lon="5.94703">
        <ele>650</ele>
        <time>2019-04-09T11:42:13Z</time>
      </trkpt>
      <trkpt lat="44.41666" lon="5.94701">
        <ele>650</ele>
        <time>2019-04-09T11:42:14Z</time>
      </trkpt>
      <trkpt lat="44.41668" lon="5.94699">
        <ele>650</ele>
        <time>2019-04-09T11:42:15Z</time>
      </trkpt>
      <trkpt lat="44.4167" lon="5.94697">
        <ele>650</ele>
        <time>2019-04-09T11:42:16Z</time>
      </trkpt>
      <trkpt lat="44.41673" lon="5.94695">
        <ele>650</ele>
        <time>2019-04-09T11:42:17Z</time>
      </trkpt>
      <trkpt lat="44.41675" lon="5.94694">
        <ele>650</ele>
        <time>2019-04-09T11:42:18Z</time>
      </trkpt>
      <trkpt lat="44.41677" lon="5.94692">
        <ele>651</ele>
        <time>2019-04-09T11:42:19Z</time>
      </trkpt>
      <trkpt lat="44.4168" lon="5.94691">
        <ele>651</ele>
        <time>2019-04-09T11:42:20Z</time>
      </trkpt>
      <trkpt lat="44.41682" lon="5.94689">
        <ele>651</ele>
        <time>2019-04-09T11:42:21Z</time>
      </trkpt>
      <trkpt lat="44.41685" lon="5.94687">
        <ele>651</ele>
        <time>2019-04-09T11:42:22Z</time>
      </trkpt>
      <trkpt lat="44.41688" lon="5.94686">
        <ele>651</ele>
        <time>2019-04-09T11:42:23Z</time>
      </trkpt>
      <trkpt lat="44.4169" lon="5.94684">
        <ele>651</ele>
        <time>2019-04-09T11:42:24Z</time>
      </trkpt>
      <trkpt lat="44.41693" lon="5.94682">
        <ele>651</ele>
        <time>2019-04-09T11:42:25Z</time>
      </trkpt>
      <trkpt lat="44.41695" lon="5.9468">
        <ele>651</ele>
        <time>2019-04-09T11:42:26Z</time>
      </trkpt>
      <trkpt lat="44.41698" lon="5.94677">
        <ele>651</ele>
        <time>2019-04-09T11:42:27Z</time>
      </trkpt>
      <trkpt lat="44.417" lon="5.94675">
        <ele>651</ele>
        <time>2019-04-09T11:42:28Z</time>
      </trkpt>
      <trkpt lat="44.41703" lon="5.94672">
        <ele>651</ele>
        <time>2019-04-09T11:42:29Z</time>
      </trkpt>
      <trkpt lat="44.41705" lon="5.94669">
        <ele>651</ele>
        <time>2019-04-09T11:42:30Z</time>
      </trkpt>
      <trkpt lat="44.41707" lon="5.94666">
        <ele>651</ele>
        <time>2019-04-09T11:42:31Z</time>
      </trkpt>
      <trkpt lat="44.41709" lon="5.94663">
        <ele>651</ele>
        <time>2019-04-09T11:42:32Z</time>
      </trkpt>
      <trkpt lat="44.41711" lon="5.94659">
        <ele>651</ele>
        <time>2019-04-09T11:42:34Z</time>
      </trkpt>
      <trkpt lat="44.41712" lon="5.94655">
        <ele>651</ele>
        <time>2019-04-09T11:42:34Z</time>
      </trkpt>
      <trkpt lat="44.41713" lon="5.94651">
        <ele>651</ele>
        <time>2019-04-09T11:42:35Z</time>
      </trkpt>
      <trkpt lat="44.41713" lon="5.94647">
        <ele>651</ele>
        <time>2019-04-09T11:42:36Z</time>
      </trkpt>
      <trkpt lat="44.41714" lon="5.94643">
        <ele>652</ele>
        <time>2019-04-09T11:42:37Z</time>
      </trkpt>
      <trkpt lat="44.41715" lon="5.94639">
        <ele>652</ele>
        <time>2019-04-09T11:42:38Z</time>
      </trkpt>
      <trkpt lat="44.41715" lon="5.94635">
        <ele>653</ele>
        <time>2019-04-09T11:42:39Z</time>
      </trkpt>
      <trkpt lat="44.41716" lon="5.94632">
        <ele>653</ele>
        <time>2019-04-09T11:42:40Z</time>
      </trkpt>
      <trkpt lat="44.41716" lon="5.94628">
        <ele>653</ele>
        <time>2019-04-09T11:42:41Z</time>
      </trkpt>
      <trkpt lat="44.41716" lon="5.94624">
        <ele>654</ele>
        <time>2019-04-09T11:42:42Z</time>
      </trkpt>
      <trkpt lat="44.41716" lon="5.94621">
        <ele>654</ele>
        <time>2019-04-09T11:42:43Z</time>
      </trkpt>
      <trkpt lat="44.41716" lon="5.94617">
        <ele>654</ele>
        <time>2019-04-09T11:42:44Z</time>
      </trkpt>
      <trkpt lat="44.41716" lon="5.94613">
        <ele>655</ele>
        <time>2019-04-09T11:42:45Z</time>
      </trkpt>
      <trkpt lat="44.41715" lon="5.94608">
        <ele>655</ele>
        <time>2019-04-09T11:42:46Z</time>
      </trkpt>
      <trkpt lat="44.41714" lon="5.94604">
        <ele>656</ele>
        <time>2019-04-09T11:42:47Z</time>
      </trkpt>
      <trkpt lat="44.41714" lon="5.946">
        <ele>656</ele>
        <time>2019-04-09T11:42:48Z</time>
      </trkpt>
      <trkpt lat="44.41714" lon="5.94596">
        <ele>656</ele>
        <time>2019-04-09T11:42:49Z</time>
      </trkpt>
      <trkpt lat="44.41713" lon="5.94593">
        <ele>657</ele>
        <time>2019-04-09T11:42:50Z</time>
      </trkpt>
      <trkpt lat="44.41713" lon="5.94589">
        <ele>657</ele>
        <time>2019-04-09T11:42:51Z</time>
      </trkpt>
      <trkpt lat="44.41713" lon="5.94585">
        <ele>658</ele>
        <time>2019-04-09T11:42:52Z</time>
      </trkpt>
      <trkpt lat="44.41712" lon="5.94582">
        <ele>658</ele>
        <time>2019-04-09T11:42:53Z</time>
      </trkpt>
      <trkpt lat="44.41711" lon="5.94578">
        <ele>659</ele>
        <time>2019-04-09T11:42:54Z</time>
      </trkpt>
      <trkpt lat="44.41711" lon="5.94575">
        <ele>660</ele>
        <time>2019-04-09T11:42:55Z</time>
      </trkpt>
      <trkpt lat="44.4171" lon="5.94571">
        <ele>660</ele>
        <time>2019-04-09T11:42:56Z</time>
      </trkpt>
      <trkpt lat="44.4171" lon="5.94567">
        <ele>660</ele>
        <time>2019-04-09T11:42:57Z</time>
      </trkpt>
      <trkpt lat="44.41709" lon="5.94563">
        <ele>661</ele>
        <time>2019-04-09T11:42:58Z</time>
      </trkpt>
      <trkpt lat="44.4171" lon="5.94559">
        <ele>661</ele>
        <time>2019-04-09T11:42:59Z</time>
      </trkpt>
      <trkpt lat="44.4171" lon="5.94556">
        <ele>661</ele>
        <time>2019-04-09T11:43:00Z</time>
      </trkpt>
      <trkpt lat="44.4171" lon="5.94552">
        <ele>662</ele>
        <time>2019-04-09T11:43:01Z</time>
      </trkpt>
      <trkpt lat="44.41712" lon="5.94549">
        <ele>662</ele>
        <time>2019-04-09T11:43:02Z</time>
      </trkpt>
      <trkpt lat="44.41714" lon="5.94545">
        <ele>662</ele>
        <time>2019-04-09T11:43:03Z</time>
      </trkpt>
      <trkpt lat="44.41716" lon="5.94542">
        <ele>662</ele>
        <time>2019-04-09T11:43:04Z</time>
      </trkpt>
      <trkpt lat="44.41717" lon="5.9454">
        <ele>662</ele>
        <time>2019-04-09T11:43:05Z</time>
      </trkpt>
      <trkpt lat="44.41718" lon="5.94537">
        <ele>662</ele>
        <time>2019-04-09T11:43:06Z</time>
      </trkpt>
      <trkpt lat="44.41719" lon="5.94535">
        <ele>662</ele>
        <time>2019-04-09T11:43:07Z</time>
      </trkpt>
      <trkpt lat="44.41721" lon="5.94533">
        <ele>662</ele>
        <time>2019-04-09T11:43:08Z</time>
      </trkpt>
      <trkpt lat="44.41723" lon="5.9453">
        <ele>662</ele>
        <time>2019-04-09T11:43:09Z</time>
      </trkpt>
      <trkpt lat="44.41726" lon="5.94528">
        <ele>662</ele>
        <time>2019-04-09T11:43:10Z</time>
      </trkpt>
      <trkpt lat="44.41727" lon="5.94525">
        <ele>662</ele>
        <time>2019-04-09T11:43:11Z</time>
      </trkpt>
      <trkpt lat="44.4173" lon="5.94523">
        <ele>662</ele>
        <time>2019-04-09T11:43:12Z</time>
      </trkpt>
      <trkpt lat="44.41732" lon="5.94522">
        <ele>662</ele>
        <time>2019-04-09T11:43:13Z</time>
      </trkpt>
      <trkpt lat="44.41734" lon="5.94521">
        <ele>662</ele>
        <time>2019-04-09T11:43:14Z</time>
      </trkpt>
      <trkpt lat="44.41737" lon="5.9452">
        <ele>662</ele>
        <time>2019-04-09T11:43:15Z</time>
      </trkpt>
      <trkpt lat="44.4174" lon="5.94519">
        <ele>662</ele>
        <time>2019-04-09T11:43:16Z</time>
      </trkpt>
      <trkpt lat="44.41742" lon="5.94518">
        <ele>662</ele>
        <time>2019-04-09T11:43:17Z</time>
      </trkpt>
      <trkpt lat="44.41745" lon="5.94517">
        <ele>662</ele>
        <time>2019-04-09T11:43:18Z</time>
      </trkpt>
      <trkpt lat="44.41748" lon="5.94516">
        <ele>662</ele>
        <time>2019-04-09T11:43:19Z</time>
      </trkpt>
      <trkpt lat="44.41751" lon="5.94515">
        <ele>662</ele>
        <time>2019-04-09T11:43:20Z</time>
      </trkpt>
      <trkpt lat="44.41753" lon="5.94515">
        <ele>662</ele>
        <time>2019-04-09T11:43:21Z</time>
      </trkpt>
      <trkpt lat="44.41756" lon="5.94514">
        <ele>662</ele>
        <time>2019-04-09T11:43:22Z</time>
      </trkpt>
      <trkpt lat="44.41758" lon="5.94513">
        <ele>662</ele>
        <time>2019-04-09T11:43:23Z</time>
      </trkpt>
      <trkpt lat="44.41761" lon="5.94513">
        <ele>662</ele>
        <time>2019-04-09T11:43:24Z</time>
      </trkpt>
      <trkpt lat="44.41764" lon="5.94513">
        <ele>662</ele>
        <time>2019-04-09T11:43:25Z</time>
      </trkpt>
      <trkpt lat="44.41767" lon="5.94511">
        <ele>662</ele>
        <time>2019-04-09T11:43:26Z</time>
      </trkpt>
      <trkpt lat="44.4177" lon="5.94512">
        <ele>662</ele>
        <time>2019-04-09T11:43:27Z</time>
      </trkpt>
      <trkpt lat="44.41773" lon="5.94512">
        <ele>662</ele>
        <time>2019-04-09T11:43:28Z</time>
      </trkpt>
      <trkpt lat="44.41775" lon="5.94512">
        <ele>662</ele>
        <time>2019-04-09T11:43:29Z</time>
      </trkpt>
      <trkpt lat="44.41778" lon="5.94512">
        <ele>662</ele>
        <time>2019-04-09T11:43:30Z</time>
      </trkpt>
      <trkpt lat="44.41781" lon="5.94512">
        <ele>662</ele>
        <time>2019-04-09T11:43:31Z</time>
      </trkpt>
      <trkpt lat="44.41784" lon="5.94512">
        <ele>662</ele>
        <time>2019-04-09T11:43:32Z</time>
      </trkpt>
      <trkpt lat="44.41787" lon="5.94513">
        <ele>663</ele>
        <time>2019-04-09T11:43:34Z</time>
      </trkpt>
      <trkpt lat="44.41789" lon="5.94514">
        <ele>663</ele>
        <time>2019-04-09T11:43:34Z</time>
      </trkpt>
      <trkpt lat="44.41792" lon="5.94514">
        <ele>663</ele>
        <time>2019-04-09T11:43:35Z</time>
      </trkpt>
      <trkpt lat="44.41794" lon="5.94514">
        <ele>664</ele>
        <time>2019-04-09T11:43:36Z</time>
      </trkpt>
      <trkpt lat="44.41797" lon="5.94514">
        <ele>664</ele>
        <time>2019-04-09T11:43:37Z</time>
      </trkpt>
      <trkpt lat="44.418" lon="5.94514">
        <ele>665</ele>
        <time>2019-04-09T11:43:38Z</time>
      </trkpt>
      <trkpt lat="44.41803" lon="5.94514">
        <ele>665</ele>
        <time>2019-04-09T11:43:39Z</time>
      </trkpt>
      <trkpt lat="44.41805" lon="5.94514">
        <ele>665</ele>
        <time>2019-04-09T11:43:40Z</time>
      </trkpt>
      <trkpt lat="44.41808" lon="5.94514">
        <ele>666</ele>
        <time>2019-04-09T11:43:41Z</time>
      </trkpt>
      <trkpt lat="44.4181" lon="5.94514">
        <ele>666</ele>
        <time>2019-04-09T11:43:42Z</time>
      </trkpt>
      <trkpt lat="44.41812" lon="5.94514">
        <ele>666</ele>
        <time>2019-04-09T11:43:43Z</time>
      </trkpt>
      <trkpt lat="44.41814" lon="5.94514">
        <ele>666</ele>
        <time>2019-04-09T11:43:44Z</time>
      </trkpt>
      <trkpt lat="44.41816" lon="5.94514">
        <ele>667</ele>
        <time>2019-04-09T11:43:45Z</time>
      </trkpt>
      <trkpt lat="44.41819" lon="5.94513">
        <ele>667</ele>
        <time>2019-04-09T11:43:46Z</time>
      </trkpt>
      <trkpt lat="44.41821" lon="5.94513">
        <ele>667</ele>
        <time>2019-04-09T11:43:47Z</time>
      </trkpt>
      <trkpt lat="44.41823" lon="5.94512">
        <ele>667</ele>
        <time>2019-04-09T11:43:48Z</time>
      </trkpt>
      <trkpt lat="44.41825" lon="5.94512">
        <ele>667</ele>
        <time>2019-04-09T11:43:49Z</time>
      </trkpt>
      <trkpt lat="44.41828" lon="5.94512">
        <ele>667</ele>
        <time>2019-04-09T11:43:50Z</time>
      </trkpt>
      <trkpt lat="44.4183" lon="5.94511">
        <ele>668</ele>
        <time>2019-04-09T11:43:51Z</time>
      </trkpt>
      <trkpt lat="44.41832" lon="5.9451">
        <ele>668</ele>
        <time>2019-04-09T11:43:52Z</time>
      </trkpt>
      <trkpt lat="44.41834" lon="5.94509">
        <ele>668</ele>
        <time>2019-04-09T11:43:53Z</time>
      </trkpt>
      <trkpt lat="44.41836" lon="5.94507">
        <ele>669</ele>
        <time>2019-04-09T11:43:54Z</time>
      </trkpt>
      <trkpt lat="44.41838" lon="5.94506">
        <ele>669</ele>
        <time>2019-04-09T11:43:55Z</time>
      </trkpt>
      <trkpt lat="44.4184" lon="5.94504">
        <ele>669</ele>
        <time>2019-04-09T11:43:56Z</time>
      </trkpt>
      <trkpt lat="44.41842" lon="5.94502">
        <ele>670</ele>
        <time>2019-04-09T11:43:57Z</time>
      </trkpt>
      <trkpt lat="44.41843" lon="5.945">
        <ele>670</ele>
        <time>2019-04-09T11:43:58Z</time>
      </trkpt>
      <trkpt lat="44.41846" lon="5.94497">
        <ele>670</ele>
        <time>2019-04-09T11:43:59Z</time>
      </trkpt>
      <trkpt lat="44.41848" lon="5.94494">
        <ele>670</ele>
        <time>2019-04-09T11:44:00Z</time>
      </trkpt>
      <trkpt lat="44.4185" lon="5.94491">
        <ele>670</ele>
        <time>2019-04-09T11:44:01Z</time>
      </trkpt>
      <trkpt lat="44.41851" lon="5.94488">
        <ele>670</ele>
        <time>2019-04-09T11:44:02Z</time>
      </trkpt>
      <trkpt lat="44.41853" lon="5.94485">
        <ele>670</ele>
        <time>2019-04-09T11:44:03Z</time>
      </trkpt>
      <trkpt lat="44.41854" lon="5.94483">
        <ele>670</ele>
        <time>2019-04-09T11:44:04Z</time>
      </trkpt>
      <trkpt lat="44.41855" lon="5.9448">
        <ele>670</ele>
        <time>2019-04-09T11:44:05Z</time>
      </trkpt>
      <trkpt lat="44.41857" lon="5.94478">
        <ele>670</ele>
        <time>2019-04-09T11:44:06Z</time>
      </trkpt>
      <trkpt lat="44.41859" lon="5.94475">
        <ele>670</ele>
        <time>2019-04-09T11:44:07Z</time>
      </trkpt>
      <trkpt lat="44.41861" lon="5.94473">
        <ele>670</ele>
        <time>2019-04-09T11:44:08Z</time>
      </trkpt>
      <trkpt lat="44.41863" lon="5.9447">
        <ele>670</ele>
        <time>2019-04-09T11:44:09Z</time>
      </trkpt>
      <trkpt lat="44.41865" lon="5.94467">
        <ele>671</ele>
        <time>2019-04-09T11:44:10Z</time>
      </trkpt>
      <trkpt lat="44.41868" lon="5.94464">
        <ele>671</ele>
        <time>2019-04-09T11:44:11Z</time>
      </trkpt>
      <trkpt lat="44.41871" lon="5.94462">
        <ele>671</ele>
        <time>2019-04-09T11:44:12Z</time>
      </trkpt>
      <trkpt lat="44.41874" lon="5.94461">
        <ele>671</ele>
        <time>2019-04-09T11:44:13Z</time>
      </trkpt>
      <trkpt lat="44.41877" lon="5.94461">
        <ele>672</ele>
        <time>2019-04-09T11:44:14Z</time>
      </trkpt>
      <trkpt lat="44.4188" lon="5.94461">
        <ele>672</ele>
        <time>2019-04-09T11:44:15Z</time>
      </trkpt>
      <trkpt lat="44.41883" lon="5.94463">
        <ele>672</ele>
        <time>2019-04-09T11:44:16Z</time>
      </trkpt>
      <trkpt lat="44.41886" lon="5.94465">
        <ele>672</ele>
        <time>2019-04-09T11:44:17Z</time>
      </trkpt>
      <trkpt lat="44.41888" lon="5.94467">
        <ele>673</ele>
        <time>2019-04-09T11:44:18Z</time>
      </trkpt>
      <trkpt lat="44.4189" lon="5.94469">
        <ele>673</ele>
        <time>2019-04-09T11:44:19Z</time>
      </trkpt>
      <trkpt lat="44.41893" lon="5.94471">
        <ele>674</ele>
        <time>2019-04-09T11:44:20Z</time>
      </trkpt>
      <trkpt lat="44.41896" lon="5.94473">
        <ele>674</ele>
        <time>2019-04-09T11:44:21Z</time>
      </trkpt>
      <trkpt lat="44.41898" lon="5.94475">
        <ele>674</ele>
        <time>2019-04-09T11:44:22Z</time>
      </trkpt>
      <trkpt lat="44.41901" lon="5.94475">
        <ele>674</ele>
        <time>2019-04-09T11:44:23Z</time>
      </trkpt>
      <trkpt lat="44.41904" lon="5.94475">
        <ele>675</ele>
        <time>2019-04-09T11:44:24Z</time>
      </trkpt>
      <trkpt lat="44.41906" lon="5.94474">
        <ele>675</ele>
        <time>2019-04-09T11:44:25Z</time>
      </trkpt>
      <trkpt lat="44.41909" lon="5.94472">
        <ele>675</ele>
        <time>2019-04-09T11:44:26Z</time>
      </trkpt>
      <trkpt lat="44.41911" lon="5.94471">
        <ele>676</ele>
        <time>2019-04-09T11:44:27Z</time>
      </trkpt>
      <trkpt lat="44.41914" lon="5.94468">
        <ele>676</ele>
        <time>2019-04-09T11:44:28Z</time>
      </trkpt>
      <trkpt lat="44.41916" lon="5.94466">
        <ele>676</ele>
        <time>2019-04-09T11:44:29Z</time>
      </trkpt>
      <trkpt lat="44.41918" lon="5.94463">
        <ele>677</ele>
        <time>2019-04-09T11:44:30Z</time>
      </trkpt>
      <trkpt lat="44.41919" lon="5.9446">
        <ele>677</ele>
        <time>2019-04-09T11:44:31Z</time>
      </trkpt>
      <trkpt lat="44.41921" lon="5.94457">
        <ele>677</ele>
        <time>2019-04-09T11:44:32Z</time>
      </trkpt>
      <trkpt lat="44.41923" lon="5.94454">
        <ele>677</ele>
        <time>2019-04-09T11:44:34Z</time>
      </trkpt>
      <trkpt lat="44.41924" lon="5.94451">
        <ele>678</ele>
        <time>2019-04-09T11:44:34Z</time>
      </trkpt>
      <trkpt lat="44.41925" lon="5.94448">
        <ele>678</ele>
        <time>2019-04-09T11:44:35Z</time>
      </trkpt>
      <trkpt lat="44.41927" lon="5.94445">
        <ele>678</ele>
        <time>2019-04-09T11:44:36Z</time>
      </trkpt>
      <trkpt lat="44.41928" lon="5.94442">
        <ele>678</ele>
        <time>2019-04-09T11:44:37Z</time>
      </trkpt>
      <trkpt lat="44.41929" lon="5.94439">
        <ele>678</ele>
        <time>2019-04-09T11:44:38Z</time>
      </trkpt>
      <trkpt lat="44.4193" lon="5.94435">
        <ele>678</ele>
        <time>2019-04-09T11:44:39Z</time>
      </trkpt>
      <trkpt lat="44.41931" lon="5.94432">
        <ele>678</ele>
        <time>2019-04-09T11:44:40Z</time>
      </trkpt>
      <trkpt lat="44.41932" lon="5.94429">
        <ele>679</ele>
        <time>2019-04-09T11:44:41Z</time>
      </trkpt>
      <trkpt lat="44.41933" lon="5.94425">
        <ele>679</ele>
        <time>2019-04-09T11:44:42Z</time>
      </trkpt>
      <trkpt lat="44.41933" lon="5.94422">
        <ele>679</ele>
        <time>2019-04-09T11:44:43Z</time>
      </trkpt>
      <trkpt lat="44.41934" lon="5.94419">
        <ele>679</ele>
        <time>2019-04-09T11:44:44Z</time>
      </trkpt>
      <trkpt lat="44.41934" lon="5.94415">
        <ele>679</ele>
        <time>2019-04-09T11:44:45Z</time>
      </trkpt>
      <trkpt lat="44.41935" lon="5.94411">
        <ele>679</ele>
        <time>2019-04-09T11:44:46Z</time>
      </trkpt>
      <trkpt lat="44.41936" lon="5.94408">
        <ele>680</ele>
        <time>2019-04-09T11:44:47Z</time>
      </trkpt>
      <trkpt lat="44.41937" lon="5.94404">
        <ele>680</ele>
        <time>2019-04-09T11:44:48Z</time>
      </trkpt>
      <trkpt lat="44.41938" lon="5.944">
        <ele>680</ele>
        <time>2019-04-09T11:44:49Z</time>
      </trkpt>
      <trkpt lat="44.41938" lon="5.94396">
        <ele>680</ele>
        <time>2019-04-09T11:44:50Z</time>
      </trkpt>
      <trkpt lat="44.41939" lon="5.94393">
        <ele>681</ele>
        <time>2019-04-09T11:44:51Z</time>
      </trkpt>
      <trkpt lat="44.41938" lon="5.94389">
        <ele>681</ele>
        <time>2019-04-09T11:44:52Z</time>
      </trkpt>
      <trkpt lat="44.41939" lon="5.94385">
        <ele>681</ele>
        <time>2019-04-09T11:44:53Z</time>
      </trkpt>
      <trkpt lat="44.4194" lon="5.94381">
        <ele>682</ele>
        <time>2019-04-09T11:44:54Z</time>
      </trkpt>
      <trkpt lat="44.4194" lon="5.94377">
        <ele>682</ele>
        <time>2019-04-09T11:44:55Z</time>
      </trkpt>
      <trkpt lat="44.41941" lon="5.94373">
        <ele>682</ele>
        <time>2019-04-09T11:44:56Z</time>
      </trkpt>
      <trkpt lat="44.41942" lon="5.94369">
        <ele>682</ele>
        <time>2019-04-09T11:44:57Z</time>
      </trkpt>
      <trkpt lat="44.41943" lon="5.94366">
        <ele>682</ele>
        <time>2019-04-09T11:44:58Z</time>
      </trkpt>
      <trkpt lat="44.41943" lon="5.94362">
        <ele>683</ele>
        <time>2019-04-09T11:44:59Z</time>
      </trkpt>
      <trkpt lat="44.41943" lon="5.94358">
        <ele>683</ele>
        <time>2019-04-09T11:45:00Z</time>
      </trkpt>
      <trkpt lat="44.41943" lon="5.94354">
        <ele>683</ele>
        <time>2019-04-09T11:45:01Z</time>
      </trkpt>
      <trkpt lat="44.41943" lon="5.9435">
        <ele>683</ele>
        <time>2019-04-09T11:45:02Z</time>
      </trkpt>
      <trkpt lat="44.41944" lon="5.94347">
        <ele>684</ele>
        <time>2019-04-09T11:45:03Z</time>
      </trkpt>
      <trkpt lat="44.41944" lon="5.94343">
        <ele>684</ele>
        <time>2019-04-09T11:45:04Z</time>
      </trkpt>
      <trkpt lat="44.41945" lon="5.94339">
        <ele>684</ele>
        <time>2019-04-09T11:45:05Z</time>
      </trkpt>
      <trkpt lat="44.41945" lon="5.94335">
        <ele>684</ele>
        <time>2019-04-09T11:45:06Z</time>
      </trkpt>
      <trkpt lat="44.41945" lon="5.9433">
        <ele>684</ele>
        <time>2019-04-09T11:45:07Z</time>
      </trkpt>
      <trkpt lat="44.41945" lon="5.94326">
        <ele>684</ele>
        <time>2019-04-09T11:45:08Z</time>
      </trkpt>
      <trkpt lat="44.41946" lon="5.94322">
        <ele>684</ele>
        <time>2019-04-09T11:45:09Z</time>
      </trkpt>
      <trkpt lat="44.41946" lon="5.94318">
        <ele>685</ele>
        <time>2019-04-09T11:45:10Z</time>
      </trkpt>
      <trkpt lat="44.41948" lon="5.94314">
        <ele>685</ele>
        <time>2019-04-09T11:45:11Z</time>
      </trkpt>
      <trkpt lat="44.41949" lon="5.9431">
        <ele>685</ele>
        <time>2019-04-09T11:45:12Z</time>
      </trkpt>
      <trkpt lat="44.41952" lon="5.94307">
        <ele>685</ele>
        <time>2019-04-09T11:45:13Z</time>
      </trkpt>
      <trkpt lat="44.41954" lon="5.94304">
        <ele>685</ele>
        <time>2019-04-09T11:45:14Z</time>
      </trkpt>
      <trkpt lat="44.41957" lon="5.94302">
        <ele>685</ele>
        <time>2019-04-09T11:45:15Z</time>
      </trkpt>
      <trkpt lat="44.41961" lon="5.94302">
        <ele>685</ele>
        <time>2019-04-09T11:45:16Z</time>
      </trkpt>
      <trkpt lat="44.41964" lon="5.94301">
        <ele>685</ele>
        <time>2019-04-09T11:45:17Z</time>
      </trkpt>
      <trkpt lat="44.41967" lon="5.94302">
        <ele>685</ele>
        <time>2019-04-09T11:45:18Z</time>
      </trkpt>
      <trkpt lat="44.41971" lon="5.94303">
        <ele>685</ele>
        <time>2019-04-09T11:45:19Z</time>
      </trkpt>
      <trkpt lat="44.41975" lon="5.94303">
        <ele>685</ele>
        <time>2019-04-09T11:45:20Z</time>
      </trkpt>
      <trkpt lat="44.41978" lon="5.94303">
        <ele>685</ele>
        <time>2019-04-09T11:45:21Z</time>
      </trkpt>
      <trkpt lat="44.41981" lon="5.94304">
        <ele>685</ele>
        <time>2019-04-09T11:45:22Z</time>
      </trkpt>
      <trkpt lat="44.41984" lon="5.94304">
        <ele>685</ele>
        <time>2019-04-09T11:45:23Z</time>
      </trkpt>
      <trkpt lat="44.41987" lon="5.94304">
        <ele>685</ele>
        <time>2019-04-09T11:45:24Z</time>
      </trkpt>
      <trkpt lat="44.4199" lon="5.94304">
        <ele>685</ele>
        <time>2019-04-09T11:45:25Z</time>
      </trkpt>
      <trkpt lat="44.41993" lon="5.94304">
        <ele>685</ele>
        <time>2019-04-09T11:45:26Z</time>
      </trkpt>
      <trkpt lat="44.41996" lon="5.94303">
        <ele>686</ele>
        <time>2019-04-09T11:45:27Z</time>
      </trkpt>
      <trkpt lat="44.41999" lon="5.94301">
        <ele>686</ele>
        <time>2019-04-09T11:45:28Z</time>
      </trkpt>
      <trkpt lat="44.42" lon="5.94299">
        <ele>687</ele>
        <time>2019-04-09T11:45:29Z</time>
      </trkpt>
      <trkpt lat="44.42002" lon="5.94297">
        <ele>687</ele>
        <time>2019-04-09T11:45:30Z</time>
      </trkpt>
      <trkpt lat="44.42004" lon="5.94294">
        <ele>688</ele>
        <time>2019-04-09T11:45:31Z</time>
      </trkpt>
      <trkpt lat="44.42006" lon="5.94291">
        <ele>688</ele>
        <time>2019-04-09T11:45:32Z</time>
      </trkpt>
      <trkpt lat="44.42007" lon="5.94288">
        <ele>688</ele>
        <time>2019-04-09T11:45:34Z</time>
      </trkpt>
      <trkpt lat="44.42008" lon="5.94285">
        <ele>688</ele>
        <time>2019-04-09T11:45:34Z</time>
      </trkpt>
      <trkpt lat="44.42009" lon="5.94283">
        <ele>689</ele>
        <time>2019-04-09T11:45:35Z</time>
      </trkpt>
      <trkpt lat="44.4201" lon="5.9428">
        <ele>689</ele>
        <time>2019-04-09T11:45:36Z</time>
      </trkpt>
      <trkpt lat="44.42011" lon="5.94277">
        <ele>689</ele>
        <time>2019-04-09T11:45:37Z</time>
      </trkpt>
      <trkpt lat="44.42012" lon="5.94275">
        <ele>689</ele>
        <time>2019-04-09T11:45:38Z</time>
      </trkpt>
      <trkpt lat="44.42013" lon="5.94272">
        <ele>690</ele>
        <time>2019-04-09T11:45:39Z</time>
      </trkpt>
      <trkpt lat="44.42015" lon="5.94269">
        <ele>690</ele>
        <time>2019-04-09T11:45:40Z</time>
      </trkpt>
      <trkpt lat="44.42017" lon="5.94266">
        <ele>690</ele>
        <time>2019-04-09T11:45:41Z</time>
      </trkpt>
      <trkpt lat="44.42019" lon="5.94264">
        <ele>690</ele>
        <time>2019-04-09T11:45:42Z</time>
      </trkpt>
      <trkpt lat="44.4202" lon="5.94261">
        <ele>690</ele>
        <time>2019-04-09T11:45:43Z</time>
      </trkpt>
      <trkpt lat="44.42022" lon="5.94258">
        <ele>690</ele>
        <time>2019-04-09T11:45:44Z</time>
      </trkpt>
      <trkpt lat="44.42024" lon="5.94256">
        <ele>690</ele>
        <time>2019-04-09T11:45:45Z</time>
      </trkpt>
      <trkpt lat="44.42026" lon="5.94254">
        <ele>690</ele>
        <time>2019-04-09T11:45:46Z</time>
      </trkpt>
      <trkpt lat="44.42028" lon="5.94252">
        <ele>690</ele>
        <time>2019-04-09T11:45:47Z</time>
      </trkpt>
      <trkpt lat="44.4203" lon="5.9425">
        <ele>690</ele>
        <time>2019-04-09T11:45:48Z</time>
      </trkpt>
      <trkpt lat="44.42032" lon="5.94249">
        <ele>690</ele>
        <time>2019-04-09T11:45:49Z</time>
      </trkpt>
      <trkpt lat="44.42034" lon="5.94247">
        <ele>690</ele>
        <time>2019-04-09T11:45:50Z</time>
      </trkpt>
      <trkpt lat="44.42036" lon="5.94246">
        <ele>690</ele>
        <time>2019-04-09T11:45:51Z</time>
      </trkpt>
      <trkpt lat="44.42039" lon="5.94245">
        <ele>690</ele>
        <time>2019-04-09T11:45:52Z</time>
      </trkpt>
      <trkpt lat="44.42042" lon="5.94243">
        <ele>690</ele>
        <time>2019-04-09T11:45:53Z</time>
      </trkpt>
      <trkpt lat="44.42044" lon="5.94242">
        <ele>690</ele>
        <time>2019-04-09T11:45:54Z</time>
      </trkpt>
      <trkpt lat="44.42048" lon="5.9424">
        <ele>690</ele>
        <time>2019-04-09T11:45:55Z</time>
      </trkpt>
      <trkpt lat="44.4205" lon="5.94239">
        <ele>690</ele>
        <time>2019-04-09T11:45:56Z</time>
      </trkpt>
      <trkpt lat="44.42053" lon="5.94237">
        <ele>690</ele>
        <time>2019-04-09T11:45:57Z</time>
      </trkpt>
      <trkpt lat="44.42056" lon="5.94236">
        <ele>690</ele>
        <time>2019-04-09T11:45:58Z</time>
      </trkpt>
      <trkpt lat="44.42059" lon="5.94234">
        <ele>690</ele>
        <time>2019-04-09T11:45:59Z</time>
      </trkpt>
      <trkpt lat="44.42062" lon="5.94232">
        <ele>690</ele>
        <time>2019-04-09T11:46:00Z</time>
      </trkpt>
      <trkpt lat="44.42065" lon="5.94229">
        <ele>691</ele>
        <time>2019-04-09T11:46:01Z</time>
      </trkpt>
      <trkpt lat="44.42068" lon="5.94227">
        <ele>691</ele>
        <time>2019-04-09T11:46:02Z</time>
      </trkpt>
      <trkpt lat="44.4207" lon="5.94224">
        <ele>691</ele>
        <time>2019-04-09T11:46:03Z</time>
      </trkpt>
      <trkpt lat="44.42072" lon="5.94221">
        <ele>691</ele>
        <time>2019-04-09T11:46:04Z</time>
      </trkpt>
      <trkpt lat="44.42074" lon="5.94218">
        <ele>692</ele>
        <time>2019-04-09T11:46:05Z</time>
      </trkpt>
      <trkpt lat="44.42075" lon="5.94215">
        <ele>692</ele>
        <time>2019-04-09T11:46:06Z</time>
      </trkpt>
      <trkpt lat="44.42077" lon="5.94212">
        <ele>692</ele>
        <time>2019-04-09T11:46:07Z</time>
      </trkpt>
      <trkpt lat="44.42078" lon="5.94209">
        <ele>693</ele>
        <time>2019-04-09T11:46:08Z</time>
      </trkpt>
      <trkpt lat="44.42079" lon="5.94205">
        <ele>693</ele>
        <time>2019-04-09T11:46:09Z</time>
      </trkpt>
      <trkpt lat="44.4208" lon="5.94201">
        <ele>693</ele>
        <time>2019-04-09T11:46:10Z</time>
      </trkpt>
      <trkpt lat="44.42081" lon="5.94197">
        <ele>693</ele>
        <time>2019-04-09T11:46:11Z</time>
      </trkpt>
      <trkpt lat="44.42082" lon="5.94193">
        <ele>693</ele>
        <time>2019-04-09T11:46:12Z</time>
      </trkpt>
      <trkpt lat="44.42082" lon="5.9419">
        <ele>694</ele>
        <time>2019-04-09T11:46:13Z</time>
      </trkpt>
      <trkpt lat="44.42083" lon="5.94186">
        <ele>694</ele>
        <time>2019-04-09T11:46:14Z</time>
      </trkpt>
      <trkpt lat="44.42084" lon="5.94182">
        <ele>694</ele>
        <time>2019-04-09T11:46:15Z</time>
      </trkpt>
      <trkpt lat="44.42084" lon="5.94178">
        <ele>695</ele>
        <time>2019-04-09T11:46:16Z</time>
      </trkpt>
      <trkpt lat="44.42084" lon="5.94173">
        <ele>695</ele>
        <time>2019-04-09T11:46:17Z</time>
      </trkpt>
      <trkpt lat="44.42084" lon="5.94169">
        <ele>696</ele>
        <time>2019-04-09T11:46:18Z</time>
      </trkpt>
      <trkpt lat="44.42085" lon="5.94164">
        <ele>696</ele>
        <time>2019-04-09T11:46:19Z</time>
      </trkpt>
      <trkpt lat="44.42086" lon="5.9416">
        <ele>697</ele>
        <time>2019-04-09T11:46:20Z</time>
      </trkpt>
      <trkpt lat="44.42088" lon="5.94156">
        <ele>697</ele>
        <time>2019-04-09T11:46:21Z</time>
      </trkpt>
      <trkpt lat="44.4209" lon="5.94151">
        <ele>697</ele>
        <time>2019-04-09T11:46:22Z</time>
      </trkpt>
      <trkpt lat="44.42091" lon="5.94146">
        <ele>697</ele>
        <time>2019-04-09T11:46:23Z</time>
      </trkpt>
      <trkpt lat="44.42093" lon="5.94142">
        <ele>697</ele>
        <time>2019-04-09T11:46:24Z</time>
      </trkpt>
      <trkpt lat="44.42094" lon="5.94137">
        <ele>697</ele>
        <time>2019-04-09T11:46:25Z</time>
      </trkpt>
      <trkpt lat="44.42095" lon="5.94132">
        <ele>697</ele>
        <time>2019-04-09T11:46:26Z</time>
      </trkpt>
      <trkpt lat="44.42096" lon="5.94128">
        <ele>698</ele>
        <time>2019-04-09T11:46:27Z</time>
      </trkpt>
      <trkpt lat="44.42096" lon="5.94123">
        <ele>698</ele>
        <time>2019-04-09T11:46:28Z</time>
      </trkpt>
      <trkpt lat="44.42097" lon="5.94119">
        <ele>698</ele>
        <time>2019-04-09T11:46:29Z</time>
      </trkpt>
      <trkpt lat="44.42097" lon="5.94114">
        <ele>699</ele>
        <time>2019-04-09T11:46:30Z</time>
      </trkpt>
      <trkpt lat="44.42098" lon="5.94109">
        <ele>699</ele>
        <time>2019-04-09T11:46:31Z</time>
      </trkpt>
      <trkpt lat="44.42098" lon="5.94104">
        <ele>700</ele>
        <time>2019-04-09T11:46:32Z</time>
      </trkpt>
      <trkpt lat="44.42098" lon="5.94099">
        <ele>700</ele>
        <time>2019-04-09T11:46:34Z</time>
      </trkpt>
      <trkpt lat="44.42098" lon="5.94094">
        <ele>701</ele>
        <time>2019-04-09T11:46:34Z</time>
      </trkpt>
      <trkpt lat="44.42098" lon="5.94089">
        <ele>701</ele>
        <time>2019-04-09T11:46:35Z</time>
      </trkpt>
      <trkpt lat="44.42098" lon="5.94084">
        <ele>702</ele>
        <time>2019-04-09T11:46:36Z</time>
      </trkpt>
      <trkpt lat="44.42099" lon="5.94078">
        <ele>703</ele>
        <time>2019-04-09T11:46:37Z</time>
      </trkpt>
      <trkpt lat="44.42099" lon="5.94073">
        <ele>703</ele>
        <time>2019-04-09T11:46:38Z</time>
      </trkpt>
      <trkpt lat="44.421" lon="5.94068">
        <ele>704</ele>
        <time>2019-04-09T11:46:39Z</time>
      </trkpt>
      <trkpt lat="44.42101" lon="5.94063">
        <ele>704</ele>
        <time>2019-04-09T11:46:40Z</time>
      </trkpt>
      <trkpt lat="44.42102" lon="5.94057">
        <ele>705</ele>
        <time>2019-04-09T11:46:41Z</time>
      </trkpt>
      <trkpt lat="44.42103" lon="5.94051">
        <ele>705</ele>
        <time>2019-04-09T11:46:42Z</time>
      </trkpt>
      <trkpt lat="44.42104" lon="5.94046">
        <ele>705</ele>
        <time>2019-04-09T11:46:43Z</time>
      </trkpt>
      <trkpt lat="44.42105" lon="5.9404">
        <ele>706</ele>
        <time>2019-04-09T11:46:44Z</time>
      </trkpt>
      <trkpt lat="44.42106" lon="5.94035">
        <ele>707</ele>
        <time>2019-04-09T11:46:45Z</time>
      </trkpt>
      <trkpt lat="44.42106" lon="5.94029">
        <ele>707</ele>
        <time>2019-04-09T11:46:46Z</time>
      </trkpt>
      <trkpt lat="44.42107" lon="5.94024">
        <ele>708</ele>
        <time>2019-04-09T11:46:47Z</time>
      </trkpt>
      <trkpt lat="44.42108" lon="5.94019">
        <ele>708</ele>
        <time>2019-04-09T11:46:48Z</time>
      </trkpt>
      <trkpt lat="44.42109" lon="5.94014">
        <ele>709</ele>
        <time>2019-04-09T11:46:49Z</time>
      </trkpt>
      <trkpt lat="44.42109" lon="5.94009">
        <ele>709</ele>
        <time>2019-04-09T11:46:50Z</time>
      </trkpt>
      <trkpt lat="44.4211" lon="5.94004">
        <ele>710</ele>
        <time>2019-04-09T11:46:51Z</time>
      </trkpt>
      <trkpt lat="44.42111" lon="5.93999">
        <ele>710</ele>
        <time>2019-04-09T11:46:52Z</time>
      </trkpt>
      <trkpt lat="44.42112" lon="5.93994">
        <ele>710</ele>
        <time>2019-04-09T11:46:53Z</time>
      </trkpt>
      <trkpt lat="44.42112" lon="5.93989">
        <ele>710</ele>
        <time>2019-04-09T11:46:54Z</time>
      </trkpt>
      <trkpt lat="44.42114" lon="5.93984">
        <ele>710</ele>
        <time>2019-04-09T11:46:55Z</time>
      </trkpt>
      <trkpt lat="44.42115" lon="5.93978">
        <ele>710</ele>
        <time>2019-04-09T11:46:56Z</time>
      </trkpt>
      <trkpt lat="44.42117" lon="5.93973">
        <ele>710</ele>
        <time>2019-04-09T11:46:57Z</time>
      </trkpt>
      <trkpt lat="44.42118" lon="5.93968">
        <ele>710</ele>
        <time>2019-04-09T11:46:58Z</time>
      </trkpt>
      <trkpt lat="44.42119" lon="5.93962">
        <ele>710</ele>
        <time>2019-04-09T11:46:59Z</time>
      </trkpt>
      <trkpt lat="44.4212" lon="5.93957">
        <ele>710</ele>
        <time>2019-04-09T11:47:00Z</time>
      </trkpt>
      <trkpt lat="44.42121" lon="5.93952">
        <ele>710</ele>
        <time>2019-04-09T11:47:01Z</time>
      </trkpt>
      <trkpt lat="44.42123" lon="5.93947">
        <ele>710</ele>
        <time>2019-04-09T11:47:02Z</time>
      </trkpt>
      <trkpt lat="44.42124" lon="5.93941">
        <ele>710</ele>
        <time>2019-04-09T11:47:03Z</time>
      </trkpt>
      <trkpt lat="44.42126" lon="5.93936">
        <ele>710</ele>
        <time>2019-04-09T11:47:04Z</time>
      </trkpt>
      <trkpt lat="44.42127" lon="5.93932">
        <ele>710</ele>
        <time>2019-04-09T11:47:05Z</time>
      </trkpt>
      <trkpt lat="44.42129" lon="5.93927">
        <ele>710</ele>
        <time>2019-04-09T11:47:06Z</time>
      </trkpt>
      <trkpt lat="44.4213" lon="5.93922">
        <ele>710</ele>
        <time>2019-04-09T11:47:07Z</time>
      </trkpt>
      <trkpt lat="44.42132" lon="5.93917">
        <ele>710</ele>
        <time>2019-04-09T11:47:08Z</time>
      </trkpt>
      <trkpt lat="44.42133" lon="5.93913">
        <ele>710</ele>
        <time>2019-04-09T11:47:09Z</time>
      </trkpt>
      <trkpt lat="44.42135" lon="5.93908">
        <ele>710</ele>
        <time>2019-04-09T11:47:10Z</time>
      </trkpt>
      <trkpt lat="44.42137" lon="5.93903">
        <ele>710</ele>
        <time>2019-04-09T11:47:11Z</time>
      </trkpt>
      <trkpt lat="44.42139" lon="5.93898">
        <ele>710</ele>
        <time>2019-04-09T11:47:12Z</time>
      </trkpt>
      <trkpt lat="44.4214" lon="5.93893">
        <ele>710</ele>
        <time>2019-04-09T11:47:13Z</time>
      </trkpt>
      <trkpt lat="44.42142" lon="5.93889">
        <ele>710</ele>
        <time>2019-04-09T11:47:14Z</time>
      </trkpt>
      <trkpt lat="44.42143" lon="5.93884">
        <ele>710</ele>
        <time>2019-04-09T11:47:15Z</time>
      </trkpt>
      <trkpt lat="44.42144" lon="5.93879">
        <ele>710</ele>
        <time>2019-04-09T11:47:16Z</time>
      </trkpt>
      <trkpt lat="44.42145" lon="5.93874">
        <ele>710</ele>
        <time>2019-04-09T11:47:17Z</time>
      </trkpt>
      <trkpt lat="44.42147" lon="5.93869">
        <ele>711</ele>
        <time>2019-04-09T11:47:18Z</time>
      </trkpt>
      <trkpt lat="44.42148" lon="5.93864">
        <ele>712</ele>
        <time>2019-04-09T11:47:19Z</time>
      </trkpt>
      <trkpt lat="44.42149" lon="5.93859">
        <ele>712</ele>
        <time>2019-04-09T11:47:20Z</time>
      </trkpt>
      <trkpt lat="44.42149" lon="5.93855">
        <ele>713</ele>
        <time>2019-04-09T11:47:21Z</time>
      </trkpt>
      <trkpt lat="44.4215" lon="5.9385">
        <ele>714</ele>
        <time>2019-04-09T11:47:22Z</time>
      </trkpt>
      <trkpt lat="44.42152" lon="5.93845">
        <ele>714</ele>
        <time>2019-04-09T11:47:23Z</time>
      </trkpt>
      <trkpt lat="44.42153" lon="5.9384">
        <ele>715</ele>
        <time>2019-04-09T11:47:24Z</time>
      </trkpt>
      <trkpt lat="44.42154" lon="5.93835">
        <ele>715</ele>
        <time>2019-04-09T11:47:25Z</time>
      </trkpt>
      <trkpt lat="44.42155" lon="5.93831">
        <ele>715</ele>
        <time>2019-04-09T11:47:26Z</time>
      </trkpt>
      <trkpt lat="44.42157" lon="5.93826">
        <ele>715</ele>
        <time>2019-04-09T11:47:27Z</time>
      </trkpt>
      <trkpt lat="44.42159" lon="5.93821">
        <ele>715</ele>
        <time>2019-04-09T11:47:28Z</time>
      </trkpt>
      <trkpt lat="44.4216" lon="5.93817">
        <ele>715</ele>
        <time>2019-04-09T11:47:29Z</time>
      </trkpt>
      <trkpt lat="44.42162" lon="5.93812">
        <ele>715</ele>
        <time>2019-04-09T11:47:30Z</time>
      </trkpt>
      <trkpt lat="44.42163" lon="5.93808">
        <ele>715</ele>
        <time>2019-04-09T11:47:31Z</time>
      </trkpt>
      <trkpt lat="44.42165" lon="5.93803">
        <ele>715</ele>
        <time>2019-04-09T11:47:32Z</time>
      </trkpt>
      <trkpt lat="44.42167" lon="5.93798">
        <ele>715</ele>
        <time>2019-04-09T11:47:33Z</time>
      </trkpt>
      <trkpt lat="44.42168" lon="5.93793">
        <ele>715</ele>
        <time>2019-04-09T11:47:34Z</time>
      </trkpt>
      <trkpt lat="44.42169" lon="5.93788">
        <ele>715</ele>
        <time>2019-04-09T11:47:35Z</time>
      </trkpt>
      <trkpt lat="44.42171" lon="5.93783">
        <ele>715</ele>
        <time>2019-04-09T11:47:36Z</time>
      </trkpt>
      <trkpt lat="44.42173" lon="5.93779">
        <ele>715</ele>
        <time>2019-04-09T11:47:37Z</time>
      </trkpt>
      <trkpt lat="44.42174" lon="5.93774">
        <ele>715</ele>
        <time>2019-04-09T11:47:38Z</time>
      </trkpt>
      <trkpt lat="44.42176" lon="5.93769">
        <ele>715</ele>
        <time>2019-04-09T11:47:39Z</time>
      </trkpt>
      <trkpt lat="44.42178" lon="5.93765">
        <ele>715</ele>
        <time>2019-04-09T11:47:40Z</time>
      </trkpt>
      <trkpt lat="44.42179" lon="5.9376">
        <ele>715</ele>
        <time>2019-04-09T11:47:41Z</time>
      </trkpt>
      <trkpt lat="44.42181" lon="5.93756">
        <ele>715</ele>
        <time>2019-04-09T11:47:42Z</time>
      </trkpt>
      <trkpt lat="44.42182" lon="5.93752">
        <ele>715</ele>
        <time>2019-04-09T11:47:43Z</time>
      </trkpt>
      <trkpt lat="44.42184" lon="5.93747">
        <ele>715</ele>
        <time>2019-04-09T11:47:44Z</time>
      </trkpt>
      <trkpt lat="44.42185" lon="5.93743">
        <ele>715</ele>
        <time>2019-04-09T11:47:45Z</time>
      </trkpt>
      <trkpt lat="44.42186" lon="5.93738">
        <ele>715</ele>
        <time>2019-04-09T11:47:46Z</time>
      </trkpt>
      <trkpt lat="44.42188" lon="5.93733">
        <ele>715</ele>
        <time>2019-04-09T11:47:47Z</time>
      </trkpt>
      <trkpt lat="44.4219" lon="5.93728">
        <ele>715</ele>
        <time>2019-04-09T11:47:48Z</time>
      </trkpt>
      <trkpt lat="44.42192" lon="5.93724">
        <ele>715</ele>
        <time>2019-04-09T11:47:49Z</time>
      </trkpt>
      <trkpt lat="44.42193" lon="5.93719">
        <ele>715</ele>
        <time>2019-04-09T11:47:50Z</time>
      </trkpt>
      <trkpt lat="44.42194" lon="5.93714">
        <ele>715</ele>
        <time>2019-04-09T11:47:51Z</time>
      </trkpt>
      <trkpt lat="44.42195" lon="5.9371">
        <ele>715</ele>
        <time>2019-04-09T11:47:52Z</time>
      </trkpt>
      <trkpt lat="44.42196" lon="5.93705">
        <ele>715</ele>
        <time>2019-04-09T11:47:53Z</time>
      </trkpt>
      <trkpt lat="44.42197" lon="5.93701">
        <ele>715</ele>
        <time>2019-04-09T11:47:54Z</time>
      </trkpt>
      <trkpt lat="44.42198" lon="5.93696">
        <ele>715</ele>
        <time>2019-04-09T11:47:55Z</time>
      </trkpt>
      <trkpt lat="44.42199" lon="5.93691">
        <ele>715</ele>
        <time>2019-04-09T11:47:56Z</time>
      </trkpt>
      <trkpt lat="44.422" lon="5.93686">
        <ele>715</ele>
        <time>2019-04-09T11:47:57Z</time>
      </trkpt>
      <trkpt lat="44.42201" lon="5.93681">
        <ele>715</ele>
        <time>2019-04-09T11:47:58Z</time>
      </trkpt>
      <trkpt lat="44.42202" lon="5.93676">
        <ele>715</ele>
        <time>2019-04-09T11:47:59Z</time>
      </trkpt>
      <trkpt lat="44.42203" lon="5.93671">
        <ele>715</ele>
        <time>2019-04-09T11:48:00Z</time>
      </trkpt>
      <trkpt lat="44.42204" lon="5.93665">
        <ele>715</ele>
        <time>2019-04-09T11:48:01Z</time>
      </trkpt>
      <trkpt lat="44.42205" lon="5.9366">
        <ele>715</ele>
        <time>2019-04-09T11:48:02Z</time>
      </trkpt>
      <trkpt lat="44.42206" lon="5.93654">
        <ele>715</ele>
        <time>2019-04-09T11:48:03Z</time>
      </trkpt>
      <trkpt lat="44.42207" lon="5.93649">
        <ele>715</ele>
        <time>2019-04-09T11:48:04Z</time>
      </trkpt>
      <trkpt lat="44.42208" lon="5.93643">
        <ele>715</ele>
        <time>2019-04-09T11:48:05Z</time>
      </trkpt>
      <trkpt lat="44.42211" lon="5.93637">
        <ele>715</ele>
        <time>2019-04-09T11:48:06Z</time>
      </trkpt>
      <trkpt lat="44.42213" lon="5.93632">
        <ele>715</ele>
        <time>2019-04-09T11:48:07Z</time>
      </trkpt>
      <trkpt lat="44.42215" lon="5.93626">
        <ele>715</ele>
        <time>2019-04-09T11:48:08Z</time>
      </trkpt>
      <trkpt lat="44.42217" lon="5.93621">
        <ele>715</ele>
        <time>2019-04-09T11:48:09Z</time>
      </trkpt>
      <trkpt lat="44.42219" lon="5.93616">
        <ele>715</ele>
        <time>2019-04-09T11:48:10Z</time>
      </trkpt>
      <trkpt lat="44.4222" lon="5.9361">
        <ele>715</ele>
        <time>2019-04-09T11:48:11Z</time>
      </trkpt>
      <trkpt lat="44.42221" lon="5.93605">
        <ele>715</ele>
        <time>2019-04-09T11:48:12Z</time>
      </trkpt>
      <trkpt lat="44.42221" lon="5.93599">
        <ele>715</ele>
        <time>2019-04-09T11:48:13Z</time>
      </trkpt>
      <trkpt lat="44.42221" lon="5.93594">
        <ele>715</ele>
        <time>2019-04-09T11:48:14Z</time>
      </trkpt>
      <trkpt lat="44.42221" lon="5.93588">
        <ele>715</ele>
        <time>2019-04-09T11:48:15Z</time>
      </trkpt>
      <trkpt lat="44.42221" lon="5.93582">
        <ele>715</ele>
        <time>2019-04-09T11:48:16Z</time>
      </trkpt>
      <trkpt lat="44.4222" lon="5.93575">
        <ele>716</ele>
        <time>2019-04-09T11:48:17Z</time>
      </trkpt>
      <trkpt lat="44.4222" lon="5.93569">
        <ele>716</ele>
        <time>2019-04-09T11:48:18Z</time>
      </trkpt>
      <trkpt lat="44.42219" lon="5.93563">
        <ele>716</ele>
        <time>2019-04-09T11:48:19Z</time>
      </trkpt>
      <trkpt lat="44.42218" lon="5.93556">
        <ele>716</ele>
        <time>2019-04-09T11:48:20Z</time>
      </trkpt>
      <trkpt lat="44.42218" lon="5.9355">
        <ele>716</ele>
        <time>2019-04-09T11:48:21Z</time>
      </trkpt>
      <trkpt lat="44.42217" lon="5.93543">
        <ele>716</ele>
        <time>2019-04-09T11:48:22Z</time>
      </trkpt>
      <trkpt lat="44.42217" lon="5.93536">
        <ele>716</ele>
        <time>2019-04-09T11:48:23Z</time>
      </trkpt>
      <trkpt lat="44.42217" lon="5.93529">
        <ele>716</ele>
        <time>2019-04-09T11:48:24Z</time>
      </trkpt>
      <trkpt lat="44.42217" lon="5.93522">
        <ele>716</ele>
        <time>2019-04-09T11:48:25Z</time>
      </trkpt>
      <trkpt lat="44.42216" lon="5.93515">
        <ele>716</ele>
        <time>2019-04-09T11:48:26Z</time>
      </trkpt>
      <trkpt lat="44.42216" lon="5.93508">
        <ele>716</ele>
        <time>2019-04-09T11:48:27Z</time>
      </trkpt>
      <trkpt lat="44.42217" lon="5.93501">
        <ele>716</ele>
        <time>2019-04-09T11:48:28Z</time>
      </trkpt>
      <trkpt lat="44.42219" lon="5.93494">
        <ele>716</ele>
        <time>2019-04-09T11:48:29Z</time>
      </trkpt>
      <trkpt lat="44.42222" lon="5.93489">
        <ele>716</ele>
        <time>2019-04-09T11:48:30Z</time>
      </trkpt>
      <trkpt lat="44.42226" lon="5.93485">
        <ele>716</ele>
        <time>2019-04-09T11:48:31Z</time>
      </trkpt>
      <trkpt lat="44.42231" lon="5.93485">
        <ele>716</ele>
        <time>2019-04-09T11:48:32Z</time>
      </trkpt>
      <trkpt lat="44.42236" lon="5.93486">
        <ele>716</ele>
        <time>2019-04-09T11:48:34Z</time>
      </trkpt>
      <trkpt lat="44.42241" lon="5.93488">
        <ele>716</ele>
        <time>2019-04-09T11:48:34Z</time>
      </trkpt>
      <trkpt lat="44.42246" lon="5.9349">
        <ele>716</ele>
        <time>2019-04-09T11:48:35Z</time>
      </trkpt>
      <trkpt lat="44.4225" lon="5.93492">
        <ele>716</ele>
        <time>2019-04-09T11:48:36Z</time>
      </trkpt>
      <trkpt lat="44.42255" lon="5.93494">
        <ele>716</ele>
        <time>2019-04-09T11:48:37Z</time>
      </trkpt>
      <trkpt lat="44.42259" lon="5.93495">
        <ele>716</ele>
        <time>2019-04-09T11:48:38Z</time>
      </trkpt>
      <trkpt lat="44.42264" lon="5.93495">
        <ele>716</ele>
        <time>2019-04-09T11:48:39Z</time>
      </trkpt>
      <trkpt lat="44.42268" lon="5.93494">
        <ele>717</ele>
        <time>2019-04-09T11:48:40Z</time>
      </trkpt>
      <trkpt lat="44.42272" lon="5.93493">
        <ele>717</ele>
        <time>2019-04-09T11:48:41Z</time>
      </trkpt>
      <trkpt lat="44.42276" lon="5.93491">
        <ele>717</ele>
        <time>2019-04-09T11:48:42Z</time>
      </trkpt>
      <trkpt lat="44.4228" lon="5.93488">
        <ele>717</ele>
        <time>2019-04-09T11:48:43Z</time>
      </trkpt>
      <trkpt lat="44.42283" lon="5.93485">
        <ele>717</ele>
        <time>2019-04-09T11:48:44Z</time>
      </trkpt>
      <trkpt lat="44.42286" lon="5.9348">
        <ele>718</ele>
        <time>2019-04-09T11:48:45Z</time>
      </trkpt>
      <trkpt lat="44.42289" lon="5.93475">
        <ele>718</ele>
        <time>2019-04-09T11:48:46Z</time>
      </trkpt>
      <trkpt lat="44.4229" lon="5.9347">
        <ele>718</ele>
        <time>2019-04-09T11:48:47Z</time>
      </trkpt>
      <trkpt lat="44.42292" lon="5.93464">
        <ele>718</ele>
        <time>2019-04-09T11:48:48Z</time>
      </trkpt>
      <trkpt lat="44.42293" lon="5.93458">
        <ele>719</ele>
        <time>2019-04-09T11:48:49Z</time>
      </trkpt>
      <trkpt lat="44.42295" lon="5.93452">
        <ele>719</ele>
        <time>2019-04-09T11:48:50Z</time>
      </trkpt>
      <trkpt lat="44.42297" lon="5.93446">
        <ele>719</ele>
        <time>2019-04-09T11:48:51Z</time>
      </trkpt>
      <trkpt lat="44.42299" lon="5.9344">
        <ele>719</ele>
        <time>2019-04-09T11:48:52Z</time>
      </trkpt>
      <trkpt lat="44.42302" lon="5.93435">
        <ele>719</ele>
        <time>2019-04-09T11:48:53Z</time>
      </trkpt>
      <trkpt lat="44.42306" lon="5.93432">
        <ele>719</ele>
        <time>2019-04-09T11:48:54Z</time>
      </trkpt>
      <trkpt lat="44.4231" lon="5.93429">
        <ele>719</ele>
        <time>2019-04-09T11:48:55Z</time>
      </trkpt>
      <trkpt lat="44.42315" lon="5.93427">
        <ele>719</ele>
        <time>2019-04-09T11:48:56Z</time>
      </trkpt>
      <trkpt lat="44.42319" lon="5.93425">
        <ele>719</ele>
        <time>2019-04-09T11:48:57Z</time>
      </trkpt>
      <trkpt lat="44.42324" lon="5.93424">
        <ele>719</ele>
        <time>2019-04-09T11:48:58Z</time>
      </trkpt>
      <trkpt lat="44.42329" lon="5.93425">
        <ele>719</ele>
        <time>2019-04-09T11:48:59Z</time>
      </trkpt>
      <trkpt lat="44.42334" lon="5.93427">
        <ele>719</ele>
        <time>2019-04-09T11:49:00Z</time>
      </trkpt>
      <trkpt lat="44.42338" lon="5.93429">
        <ele>719</ele>
        <time>2019-04-09T11:49:01Z</time>
      </trkpt>
      <trkpt lat="44.42342" lon="5.93433">
        <ele>719</ele>
        <time>2019-04-09T11:49:02Z</time>
      </trkpt>
      <trkpt lat="44.42346" lon="5.93437">
        <ele>719</ele>
        <time>2019-04-09T11:49:03Z</time>
      </trkpt>
      <trkpt lat="44.42349" lon="5.93441">
        <ele>719</ele>
        <time>2019-04-09T11:49:04Z</time>
      </trkpt>
      <trkpt lat="44.42352" lon="5.93445">
        <ele>719</ele>
        <time>2019-04-09T11:49:05Z</time>
      </trkpt>
      <trkpt lat="44.42354" lon="5.93451">
        <ele>719</ele>
        <time>2019-04-09T11:49:06Z</time>
      </trkpt>
      <trkpt lat="44.42356" lon="5.93456">
        <ele>719</ele>
        <time>2019-04-09T11:49:07Z</time>
      </trkpt>
      <trkpt lat="44.42357" lon="5.93461">
        <ele>719</ele>
        <time>2019-04-09T11:49:08Z</time>
      </trkpt>
      <trkpt lat="44.42358" lon="5.93467">
        <ele>719</ele>
        <time>2019-04-09T11:49:09Z</time>
      </trkpt>
      <trkpt lat="44.4236" lon="5.93471">
        <ele>719</ele>
        <time>2019-04-09T11:49:10Z</time>
      </trkpt>
      <trkpt lat="44.42361" lon="5.93476">
        <ele>719</ele>
        <time>2019-04-09T11:49:11Z</time>
      </trkpt>
      <trkpt lat="44.42363" lon="5.93481">
        <ele>719</ele>
        <time>2019-04-09T11:49:12Z</time>
      </trkpt>
      <trkpt lat="44.42366" lon="5.93485">
        <ele>720</ele>
        <time>2019-04-09T11:49:13Z</time>
      </trkpt>
      <trkpt lat="44.42369" lon="5.93488">
        <ele>720</ele>
        <time>2019-04-09T11:49:14Z</time>
      </trkpt>
      <trkpt lat="44.42372" lon="5.93491">
        <ele>720</ele>
        <time>2019-04-09T11:49:15Z</time>
      </trkpt>
      <trkpt lat="44.42375" lon="5.93493">
        <ele>720</ele>
        <time>2019-04-09T11:49:16Z</time>
      </trkpt>
      <trkpt lat="44.42378" lon="5.93494">
        <ele>720</ele>
        <time>2019-04-09T11:49:17Z</time>
      </trkpt>
      <trkpt lat="44.42381" lon="5.93495">
        <ele>721</ele>
        <time>2019-04-09T11:49:18Z</time>
      </trkpt>
      <trkpt lat="44.42385" lon="5.93495">
        <ele>721</ele>
        <time>2019-04-09T11:49:19Z</time>
      </trkpt>
      <trkpt lat="44.42388" lon="5.93495">
        <ele>721</ele>
        <time>2019-04-09T11:49:20Z</time>
      </trkpt>
      <trkpt lat="44.42392" lon="5.93494">
        <ele>721</ele>
        <time>2019-04-09T11:49:21Z</time>
      </trkpt>
      <trkpt lat="44.42396" lon="5.93493">
        <ele>721</ele>
        <time>2019-04-09T11:49:22Z</time>
      </trkpt>
      <trkpt lat="44.42399" lon="5.93492">
        <ele>721</ele>
        <time>2019-04-09T11:49:23Z</time>
      </trkpt>
      <trkpt lat="44.42403" lon="5.9349">
        <ele>721</ele>
        <time>2019-04-09T11:49:24Z</time>
      </trkpt>
      <trkpt lat="44.42406" lon="5.93489">
        <ele>721</ele>
        <time>2019-04-09T11:49:25Z</time>
      </trkpt>
      <trkpt lat="44.4241" lon="5.93487">
        <ele>722</ele>
        <time>2019-04-09T11:49:26Z</time>
      </trkpt>
      <trkpt lat="44.42413" lon="5.93485">
        <ele>722</ele>
        <time>2019-04-09T11:49:27Z</time>
      </trkpt>
      <trkpt lat="44.42415" lon="5.93484">
        <ele>722</ele>
        <time>2019-04-09T11:49:28Z</time>
      </trkpt>
      <trkpt lat="44.42418" lon="5.93482">
        <ele>722</ele>
        <time>2019-04-09T11:49:29Z</time>
      </trkpt>
      <trkpt lat="44.42421" lon="5.93481">
        <ele>723</ele>
        <time>2019-04-09T11:49:30Z</time>
      </trkpt>
      <trkpt lat="44.42423" lon="5.9348">
        <ele>723</ele>
        <time>2019-04-09T11:49:31Z</time>
      </trkpt>
      <trkpt lat="44.42426" lon="5.93478">
        <ele>723</ele>
        <time>2019-04-09T11:49:32Z</time>
      </trkpt>
      <trkpt lat="44.42429" lon="5.93476">
        <ele>723</ele>
        <time>2019-04-09T11:49:33Z</time>
      </trkpt>
      <trkpt lat="44.42432" lon="5.93474">
        <ele>723</ele>
        <time>2019-04-09T11:49:34Z</time>
      </trkpt>
      <trkpt lat="44.42434" lon="5.93472">
        <ele>723</ele>
        <time>2019-04-09T11:49:35Z</time>
      </trkpt>
      <trkpt lat="44.42436" lon="5.93471">
        <ele>723</ele>
        <time>2019-04-09T11:49:36Z</time>
      </trkpt>
      <trkpt lat="44.4244" lon="5.93469">
        <ele>723</ele>
        <time>2019-04-09T11:49:37Z</time>
      </trkpt>
      <trkpt lat="44.42442" lon="5.93467">
        <ele>723</ele>
        <time>2019-04-09T11:49:38Z</time>
      </trkpt>
      <trkpt lat="44.42445" lon="5.93465">
        <ele>723</ele>
        <time>2019-04-09T11:49:39Z</time>
      </trkpt>
      <trkpt lat="44.42447" lon="5.93463">
        <ele>723</ele>
        <time>2019-04-09T11:49:40Z</time>
      </trkpt>
      <trkpt lat="44.4245" lon="5.93462">
        <ele>723</ele>
        <time>2019-04-09T11:49:41Z</time>
      </trkpt>
      <trkpt lat="44.42452" lon="5.9346">
        <ele>723</ele>
        <time>2019-04-09T11:49:42Z</time>
      </trkpt>
      <trkpt lat="44.42454" lon="5.93459">
        <ele>723</ele>
        <time>2019-04-09T11:49:43Z</time>
      </trkpt>
      <trkpt lat="44.42456" lon="5.93458">
        <ele>723</ele>
        <time>2019-04-09T11:49:44Z</time>
      </trkpt>
      <trkpt lat="44.42458" lon="5.93457">
        <ele>723</ele>
        <time>2019-04-09T11:49:45Z</time>
      </trkpt>
      <trkpt lat="44.42459" lon="5.93456">
        <ele>724</ele>
        <time>2019-04-09T11:49:46Z</time>
      </trkpt>
      <trkpt lat="44.42462" lon="5.93454">
        <ele>724</ele>
        <time>2019-04-09T11:49:47Z</time>
      </trkpt>
      <trkpt lat="44.42464" lon="5.93453">
        <ele>724</ele>
        <time>2019-04-09T11:49:48Z</time>
      </trkpt>
      <trkpt lat="44.42466" lon="5.93452">
        <ele>725</ele>
        <time>2019-04-09T11:49:49Z</time>
      </trkpt>
      <trkpt lat="44.42468" lon="5.93451">
        <ele>725</ele>
        <time>2019-04-09T11:49:50Z</time>
      </trkpt>
      <trkpt lat="44.42471" lon="5.9345">
        <ele>725</ele>
        <time>2019-04-09T11:49:51Z</time>
      </trkpt>
      <trkpt lat="44.42472" lon="5.9345">
        <ele>725</ele>
        <time>2019-04-09T11:49:52Z</time>
      </trkpt>
      <trkpt lat="44.42474" lon="5.93449">
        <ele>726</ele>
        <time>2019-04-09T11:49:53Z</time>
      </trkpt>
      <trkpt lat="44.42476" lon="5.93449">
        <ele>726</ele>
        <time>2019-04-09T11:49:54Z</time>
      </trkpt>
      <trkpt lat="44.42478" lon="5.93448">
        <ele>726</ele>
        <time>2019-04-09T11:49:55Z</time>
      </trkpt>
      <trkpt lat="44.4248" lon="5.93448">
        <ele>726</ele>
        <time>2019-04-09T11:49:56Z</time>
      </trkpt>
      <trkpt lat="44.42482" lon="5.93447">
        <ele>727</ele>
        <time>2019-04-09T11:49:57Z</time>
      </trkpt>
      <trkpt lat="44.42484" lon="5.93446">
        <ele>727</ele>
        <time>2019-04-09T11:49:58Z</time>
      </trkpt>
      <trkpt lat="44.42486" lon="5.93445">
        <ele>727</ele>
        <time>2019-04-09T11:49:59Z</time>
      </trkpt>
      <trkpt lat="44.42488" lon="5.93444">
        <ele>727</ele>
        <time>2019-04-09T11:50:00Z</time>
      </trkpt>
      <trkpt lat="44.4249" lon="5.93443">
        <ele>727</ele>
        <time>2019-04-09T11:50:01Z</time>
      </trkpt>
      <trkpt lat="44.42492" lon="5.93441">
        <ele>727</ele>
        <time>2019-04-09T11:50:02Z</time>
      </trkpt>
      <trkpt lat="44.42494" lon="5.9344">
        <ele>728</ele>
        <time>2019-04-09T11:50:03Z</time>
      </trkpt>
      <trkpt lat="44.42495" lon="5.93438">
        <ele>728</ele>
        <time>2019-04-09T11:50:04Z</time>
      </trkpt>
      <trkpt lat="44.42497" lon="5.93437">
        <ele>729</ele>
        <time>2019-04-09T11:50:05Z</time>
      </trkpt>
      <trkpt lat="44.42498" lon="5.93435">
        <ele>729</ele>
        <time>2019-04-09T11:50:06Z</time>
      </trkpt>
      <trkpt lat="44.42499" lon="5.93433">
        <ele>729</ele>
        <time>2019-04-09T11:50:07Z</time>
      </trkpt>
      <trkpt lat="44.425" lon="5.9343">
        <ele>730</ele>
        <time>2019-04-09T11:50:08Z</time>
      </trkpt>
      <trkpt lat="44.42501" lon="5.93427">
        <ele>731</ele>
        <time>2019-04-09T11:50:09Z</time>
      </trkpt>
      <trkpt lat="44.42503" lon="5.93425">
        <ele>731</ele>
        <time>2019-04-09T11:50:10Z</time>
      </trkpt>
      <trkpt lat="44.42504" lon="5.93422">
        <ele>732</ele>
        <time>2019-04-09T11:50:11Z</time>
      </trkpt>
      <trkpt lat="44.42506" lon="5.9342">
        <ele>732</ele>
        <time>2019-04-09T11:50:12Z</time>
      </trkpt>
      <trkpt lat="44.42507" lon="5.93417">
        <ele>733</ele>
        <time>2019-04-09T11:50:13Z</time>
      </trkpt>
      <trkpt lat="44.42508" lon="5.93414">
        <ele>733</ele>
        <time>2019-04-09T11:50:14Z</time>
      </trkpt>
      <trkpt lat="44.42509" lon="5.93412">
        <ele>733</ele>
        <time>2019-04-09T11:50:15Z</time>
      </trkpt>
      <trkpt lat="44.42509" lon="5.93409">
        <ele>733</ele>
        <time>2019-04-09T11:50:16Z</time>
      </trkpt>
      <trkpt lat="44.4251" lon="5.93406">
        <ele>733</ele>
        <time>2019-04-09T11:50:17Z</time>
      </trkpt>
      <trkpt lat="44.4251" lon="5.93404">
        <ele>733</ele>
        <time>2019-04-09T11:50:18Z</time>
      </trkpt>
      <trkpt lat="44.4251" lon="5.93401">
        <ele>734</ele>
        <time>2019-04-09T11:50:19Z</time>
      </trkpt>
      <trkpt lat="44.42511" lon="5.93398">
        <ele>734</ele>
        <time>2019-04-09T11:50:20Z</time>
      </trkpt>
      <trkpt lat="44.42511" lon="5.93395">
        <ele>735</ele>
        <time>2019-04-09T11:50:21Z</time>
      </trkpt>
      <trkpt lat="44.42511" lon="5.93392">
        <ele>735</ele>
        <time>2019-04-09T11:50:22Z</time>
      </trkpt>
      <trkpt lat="44.42512" lon="5.9339">
        <ele>735</ele>
        <time>2019-04-09T11:50:23Z</time>
      </trkpt>
      <trkpt lat="44.42513" lon="5.93387">
        <ele>735</ele>
        <time>2019-04-09T11:50:24Z</time>
      </trkpt>
      <trkpt lat="44.42513" lon="5.93384">
        <ele>736</ele>
        <time>2019-04-09T11:50:25Z</time>
      </trkpt>
      <trkpt lat="44.42514" lon="5.93381">
        <ele>736</ele>
        <time>2019-04-09T11:50:26Z</time>
      </trkpt>
      <trkpt lat="44.42514" lon="5.93378">
        <ele>736</ele>
        <time>2019-04-09T11:50:27Z</time>
      </trkpt>
      <trkpt lat="44.42514" lon="5.93375">
        <ele>736</ele>
        <time>2019-04-09T11:50:28Z</time>
      </trkpt>
      <trkpt lat="44.42514" lon="5.93372">
        <ele>736</ele>
        <time>2019-04-09T11:50:29Z</time>
      </trkpt>
      <trkpt lat="44.42514" lon="5.9337">
        <ele>737</ele>
        <time>2019-04-09T11:50:30Z</time>
      </trkpt>
      <trkpt lat="44.42514" lon="5.93367">
        <ele>737</ele>
        <time>2019-04-09T11:50:31Z</time>
      </trkpt>
      <trkpt lat="44.42514" lon="5.93364">
        <ele>737</ele>
        <time>2019-04-09T11:50:32Z</time>
      </trkpt>
      <trkpt lat="44.42513" lon="5.93361">
        <ele>737</ele>
        <time>2019-04-09T11:50:33Z</time>
      </trkpt>
      <trkpt lat="44.42512" lon="5.93357">
        <ele>738</ele>
        <time>2019-04-09T11:50:34Z</time>
      </trkpt>
      <trkpt lat="44.42512" lon="5.93355">
        <ele>738</ele>
        <time>2019-04-09T11:50:35Z</time>
      </trkpt>
      <trkpt lat="44.42512" lon="5.93352">
        <ele>739</ele>
        <time>2019-04-09T11:50:36Z</time>
      </trkpt>
      <trkpt lat="44.42512" lon="5.93349">
        <ele>739</ele>
        <time>2019-04-09T11:50:37Z</time>
      </trkpt>
      <trkpt lat="44.42511" lon="5.93346">
        <ele>739</ele>
        <time>2019-04-09T11:50:38Z</time>
      </trkpt>
      <trkpt lat="44.42511" lon="5.93343">
        <ele>739</ele>
        <time>2019-04-09T11:50:39Z</time>
      </trkpt>
      <trkpt lat="44.42511" lon="5.9334">
        <ele>739</ele>
        <time>2019-04-09T11:50:40Z</time>
      </trkpt>
      <trkpt lat="44.42511" lon="5.93338">
        <ele>739</ele>
        <time>2019-04-09T11:50:41Z</time>
      </trkpt>
      <trkpt lat="44.42511" lon="5.93335">
        <ele>740</ele>
        <time>2019-04-09T11:50:42Z</time>
      </trkpt>
      <trkpt lat="44.42511" lon="5.93332">
        <ele>740</ele>
        <time>2019-04-09T11:50:43Z</time>
      </trkpt>
      <trkpt lat="44.42511" lon="5.93329">
        <ele>740</ele>
        <time>2019-04-09T11:50:44Z</time>
      </trkpt>
      <trkpt lat="44.42511" lon="5.93326">
        <ele>740</ele>
        <time>2019-04-09T11:50:45Z</time>
      </trkpt>
      <trkpt lat="44.4251" lon="5.93323">
        <ele>740</ele>
        <time>2019-04-09T11:50:46Z</time>
      </trkpt>
      <trkpt lat="44.42511" lon="5.9332">
        <ele>740</ele>
        <time>2019-04-09T11:50:47Z</time>
      </trkpt>
      <trkpt lat="44.42511" lon="5.93317">
        <ele>740</ele>
        <time>2019-04-09T11:50:48Z</time>
      </trkpt>
      <trkpt lat="44.42512" lon="5.93314">
        <ele>740</ele>
        <time>2019-04-09T11:50:49Z</time>
      </trkpt>
      <trkpt lat="44.42512" lon="5.93312">
        <ele>740</ele>
        <time>2019-04-09T11:50:50Z</time>
      </trkpt>
      <trkpt lat="44.42512" lon="5.93309">
        <ele>740</ele>
        <time>2019-04-09T11:50:51Z</time>
      </trkpt>
      <trkpt lat="44.42512" lon="5.93306">
        <ele>740</ele>
        <time>2019-04-09T11:50:52Z</time>
      </trkpt>
      <trkpt lat="44.42512" lon="5.93303">
        <ele>740</ele>
        <time>2019-04-09T11:50:53Z</time>
      </trkpt>
      <trkpt lat="44.42513" lon="5.93301">
        <ele>740</ele>
        <time>2019-04-09T11:50:54Z</time>
      </trkpt>
      <trkpt lat="44.42513" lon="5.93298">
        <ele>740</ele>
        <time>2019-04-09T11:50:55Z</time>
      </trkpt>
      <trkpt lat="44.42514" lon="5.93295">
        <ele>740</ele>
        <time>2019-04-09T11:50:56Z</time>
      </trkpt>
      <trkpt lat="44.42515" lon="5.93293">
        <ele>740</ele>
        <time>2019-04-09T11:50:57Z</time>
      </trkpt>
      <trkpt lat="44.42515" lon="5.9329">
        <ele>741</ele>
        <time>2019-04-09T11:50:58Z</time>
      </trkpt>
      <trkpt lat="44.42516" lon="5.93287">
        <ele>741</ele>
        <time>2019-04-09T11:50:59Z</time>
      </trkpt>
      <trkpt lat="44.42517" lon="5.93285">
        <ele>741</ele>
        <time>2019-04-09T11:51:00Z</time>
      </trkpt>
      <trkpt lat="44.42517" lon="5.93282">
        <ele>741</ele>
        <time>2019-04-09T11:51:01Z</time>
      </trkpt>
      <trkpt lat="44.42517" lon="5.93279">
        <ele>741</ele>
        <time>2019-04-09T11:51:02Z</time>
      </trkpt>
      <trkpt lat="44.42518" lon="5.93276">
        <ele>742</ele>
        <time>2019-04-09T11:51:03Z</time>
      </trkpt>
      <trkpt lat="44.42519" lon="5.93273">
        <ele>743</ele>
        <time>2019-04-09T11:51:04Z</time>
      </trkpt>
      <trkpt lat="44.42519" lon="5.93271">
        <ele>743</ele>
        <time>2019-04-09T11:51:05Z</time>
      </trkpt>
      <trkpt lat="44.4252" lon="5.93268">
        <ele>744</ele>
        <time>2019-04-09T11:51:06Z</time>
      </trkpt>
      <trkpt lat="44.42521" lon="5.93265">
        <ele>744</ele>
        <time>2019-04-09T11:51:07Z</time>
      </trkpt>
      <trkpt lat="44.42521" lon="5.93263">
        <ele>744</ele>
        <time>2019-04-09T11:51:08Z</time>
      </trkpt>
      <trkpt lat="44.42522" lon="5.9326">
        <ele>745</ele>
        <time>2019-04-09T11:51:09Z</time>
      </trkpt>
      <trkpt lat="44.42522" lon="5.93257">
        <ele>745</ele>
        <time>2019-04-09T11:51:10Z</time>
      </trkpt>
      <trkpt lat="44.42522" lon="5.93255">
        <ele>745</ele>
        <time>2019-04-09T11:51:11Z</time>
      </trkpt>
      <trkpt lat="44.42523" lon="5.93251">
        <ele>745</ele>
        <time>2019-04-09T11:51:12Z</time>
      </trkpt>
      <trkpt lat="44.42524" lon="5.93249">
        <ele>745</ele>
        <time>2019-04-09T11:51:13Z</time>
      </trkpt>
      <trkpt lat="44.42525" lon="5.93246">
        <ele>745</ele>
        <time>2019-04-09T11:51:14Z</time>
      </trkpt>
      <trkpt lat="44.42525" lon="5.93243">
        <ele>745</ele>
        <time>2019-04-09T11:51:15Z</time>
      </trkpt>
      <trkpt lat="44.42525" lon="5.93241">
        <ele>745</ele>
        <time>2019-04-09T11:51:16Z</time>
      </trkpt>
      <trkpt lat="44.42525" lon="5.93238">
        <ele>745</ele>
        <time>2019-04-09T11:51:17Z</time>
      </trkpt>
      <trkpt lat="44.42525" lon="5.93235">
        <ele>745</ele>
        <time>2019-04-09T11:51:18Z</time>
      </trkpt>
      <trkpt lat="44.42525" lon="5.93232">
        <ele>745</ele>
        <time>2019-04-09T11:51:19Z</time>
      </trkpt>
      <trkpt lat="44.42525" lon="5.9323">
        <ele>745</ele>
        <time>2019-04-09T11:51:20Z</time>
      </trkpt>
      <trkpt lat="44.42526" lon="5.93227">
        <ele>745</ele>
        <time>2019-04-09T11:51:21Z</time>
      </trkpt>
      <trkpt lat="44.42526" lon="5.93224">
        <ele>745</ele>
        <time>2019-04-09T11:51:22Z</time>
      </trkpt>
      <trkpt lat="44.42527" lon="5.93222">
        <ele>745</ele>
        <time>2019-04-09T11:51:23Z</time>
      </trkpt>
      <trkpt lat="44.42527" lon="5.93218">
        <ele>745</ele>
        <time>2019-04-09T11:51:24Z</time>
      </trkpt>
      <trkpt lat="44.42527" lon="5.93216">
        <ele>745</ele>
        <time>2019-04-09T11:51:25Z</time>
      </trkpt>
      <trkpt lat="44.42527" lon="5.93213">
        <ele>745</ele>
        <time>2019-04-09T11:51:26Z</time>
      </trkpt>
      <trkpt lat="44.42526" lon="5.93209">
        <ele>745</ele>
        <time>2019-04-09T11:51:27Z</time>
      </trkpt>
      <trkpt lat="44.42526" lon="5.93207">
        <ele>745</ele>
        <time>2019-04-09T11:51:28Z</time>
      </trkpt>
      <trkpt lat="44.42526" lon="5.93203">
        <ele>745</ele>
        <time>2019-04-09T11:51:29Z</time>
      </trkpt>
      <trkpt lat="44.42527" lon="5.932">
        <ele>745</ele>
        <time>2019-04-09T11:51:30Z</time>
      </trkpt>
      <trkpt lat="44.42526" lon="5.93198">
        <ele>745</ele>
        <time>2019-04-09T11:51:31Z</time>
      </trkpt>
      <trkpt lat="44.42527" lon="5.93195">
        <ele>746</ele>
        <time>2019-04-09T11:51:32Z</time>
      </trkpt>
      <trkpt lat="44.42527" lon="5.93192">
        <ele>746</ele>
        <time>2019-04-09T11:51:33Z</time>
      </trkpt>
      <trkpt lat="44.42527" lon="5.93189">
        <ele>746</ele>
        <time>2019-04-09T11:51:34Z</time>
      </trkpt>
      <trkpt lat="44.42527" lon="5.93186">
        <ele>747</ele>
        <time>2019-04-09T11:51:35Z</time>
      </trkpt>
      <trkpt lat="44.42526" lon="5.93183">
        <ele>747</ele>
        <time>2019-04-09T11:51:36Z</time>
      </trkpt>
      <trkpt lat="44.42526" lon="5.9318">
        <ele>747</ele>
        <time>2019-04-09T11:51:37Z</time>
      </trkpt>
      <trkpt lat="44.42527" lon="5.93177">
        <ele>747</ele>
        <time>2019-04-09T11:51:38Z</time>
      </trkpt>
      <trkpt lat="44.42527" lon="5.93174">
        <ele>748</ele>
        <time>2019-04-09T11:51:39Z</time>
      </trkpt>
      <trkpt lat="44.42527" lon="5.9317">
        <ele>748</ele>
        <time>2019-04-09T11:51:40Z</time>
      </trkpt>
      <trkpt lat="44.42527" lon="5.93167">
        <ele>748</ele>
        <time>2019-04-09T11:51:41Z</time>
      </trkpt>
      <trkpt lat="44.42528" lon="5.93164">
        <ele>749</ele>
        <time>2019-04-09T11:51:42Z</time>
      </trkpt>
      <trkpt lat="44.42529" lon="5.93161">
        <ele>749</ele>
        <time>2019-04-09T11:51:43Z</time>
      </trkpt>
      <trkpt lat="44.42529" lon="5.93158">
        <ele>750</ele>
        <time>2019-04-09T11:51:44Z</time>
      </trkpt>
      <trkpt lat="44.4253" lon="5.93155">
        <ele>750</ele>
        <time>2019-04-09T11:51:45Z</time>
      </trkpt>
      <trkpt lat="44.42531" lon="5.93153">
        <ele>750</ele>
        <time>2019-04-09T11:51:46Z</time>
      </trkpt>
      <trkpt lat="44.42532" lon="5.9315">
        <ele>750</ele>
        <time>2019-04-09T11:51:47Z</time>
      </trkpt>
      <trkpt lat="44.42532" lon="5.93147">
        <ele>750</ele>
        <time>2019-04-09T11:51:48Z</time>
      </trkpt>
      <trkpt lat="44.42532" lon="5.93145">
        <ele>750</ele>
        <time>2019-04-09T11:51:49Z</time>
      </trkpt>
      <trkpt lat="44.42533" lon="5.93142">
        <ele>750</ele>
        <time>2019-04-09T11:51:50Z</time>
      </trkpt>
      <trkpt lat="44.42534" lon="5.93139">
        <ele>751</ele>
        <time>2019-04-09T11:51:51Z</time>
      </trkpt>
      <trkpt lat="44.42535" lon="5.93137">
        <ele>751</ele>
        <time>2019-04-09T11:51:52Z</time>
      </trkpt>
      <trkpt lat="44.42535" lon="5.93134">
        <ele>751</ele>
        <time>2019-04-09T11:51:53Z</time>
      </trkpt>
      <trkpt lat="44.42537" lon="5.93131">
        <ele>751</ele>
        <time>2019-04-09T11:51:54Z</time>
      </trkpt>
      <trkpt lat="44.42538" lon="5.93128">
        <ele>751</ele>
        <time>2019-04-09T11:51:55Z</time>
      </trkpt>
      <trkpt lat="44.4254" lon="5.93125">
        <ele>751</ele>
        <time>2019-04-09T11:51:56Z</time>
      </trkpt>
      <trkpt lat="44.42541" lon="5.93123">
        <ele>751</ele>
        <time>2019-04-09T11:51:57Z</time>
      </trkpt>
      <trkpt lat="44.42542" lon="5.9312">
        <ele>752</ele>
        <time>2019-04-09T11:51:58Z</time>
      </trkpt>
      <trkpt lat="44.42543" lon="5.93117">
        <ele>752</ele>
        <time>2019-04-09T11:51:59Z</time>
      </trkpt>
      <trkpt lat="44.42544" lon="5.93114">
        <ele>752</ele>
        <time>2019-04-09T11:52:00Z</time>
      </trkpt>
      <trkpt lat="44.42545" lon="5.93111">
        <ele>753</ele>
        <time>2019-04-09T11:52:01Z</time>
      </trkpt>
      <trkpt lat="44.42546" lon="5.93108">
        <ele>753</ele>
        <time>2019-04-09T11:52:02Z</time>
      </trkpt>
      <trkpt lat="44.42546" lon="5.93105">
        <ele>753</ele>
        <time>2019-04-09T11:52:03Z</time>
      </trkpt>
      <trkpt lat="44.42547" lon="5.93102">
        <ele>753</ele>
        <time>2019-04-09T11:52:04Z</time>
      </trkpt>
      <trkpt lat="44.42548" lon="5.93099">
        <ele>753</ele>
        <time>2019-04-09T11:52:05Z</time>
      </trkpt>
      <trkpt lat="44.42549" lon="5.93096">
        <ele>753</ele>
        <time>2019-04-09T11:52:06Z</time>
      </trkpt>
      <trkpt lat="44.4255" lon="5.93093">
        <ele>753</ele>
        <time>2019-04-09T11:52:07Z</time>
      </trkpt>
      <trkpt lat="44.42551" lon="5.9309">
        <ele>754</ele>
        <time>2019-04-09T11:52:08Z</time>
      </trkpt>
      <trkpt lat="44.42551" lon="5.93087">
        <ele>754</ele>
        <time>2019-04-09T11:52:09Z</time>
      </trkpt>
      <trkpt lat="44.42553" lon="5.93085">
        <ele>754</ele>
        <time>2019-04-09T11:52:10Z</time>
      </trkpt>
      <trkpt lat="44.42554" lon="5.93082">
        <ele>754</ele>
        <time>2019-04-09T11:52:11Z</time>
      </trkpt>
      <trkpt lat="44.42554" lon="5.93079">
        <ele>755</ele>
        <time>2019-04-09T11:52:12Z</time>
      </trkpt>
      <trkpt lat="44.42555" lon="5.93077">
        <ele>755</ele>
        <time>2019-04-09T11:52:13Z</time>
      </trkpt>
      <trkpt lat="44.42556" lon="5.93074">
        <ele>755</ele>
        <time>2019-04-09T11:52:14Z</time>
      </trkpt>
      <trkpt lat="44.42558" lon="5.93071">
        <ele>755</ele>
        <time>2019-04-09T11:52:15Z</time>
      </trkpt>
      <trkpt lat="44.42559" lon="5.93068">
        <ele>755</ele>
        <time>2019-04-09T11:52:16Z</time>
      </trkpt>
      <trkpt lat="44.4256" lon="5.93065">
        <ele>755</ele>
        <time>2019-04-09T11:52:17Z</time>
      </trkpt>
      <trkpt lat="44.42561" lon="5.93062">
        <ele>756</ele>
        <time>2019-04-09T11:52:18Z</time>
      </trkpt>
      <trkpt lat="44.42562" lon="5.93059">
        <ele>756</ele>
        <time>2019-04-09T11:52:19Z</time>
      </trkpt>
      <trkpt lat="44.42564" lon="5.93056">
        <ele>756</ele>
        <time>2019-04-09T11:52:20Z</time>
      </trkpt>
      <trkpt lat="44.42565" lon="5.93053">
        <ele>756</ele>
        <time>2019-04-09T11:52:21Z</time>
      </trkpt>
      <trkpt lat="44.42566" lon="5.9305">
        <ele>757</ele>
        <time>2019-04-09T11:52:22Z</time>
      </trkpt>
      <trkpt lat="44.42567" lon="5.93048">
        <ele>757</ele>
        <time>2019-04-09T11:52:23Z</time>
      </trkpt>
      <trkpt lat="44.42568" lon="5.93045">
        <ele>757</ele>
        <time>2019-04-09T11:52:24Z</time>
      </trkpt>
      <trkpt lat="44.42569" lon="5.93043">
        <ele>757</ele>
        <time>2019-04-09T11:52:25Z</time>
      </trkpt>
      <trkpt lat="44.4257" lon="5.9304">
        <ele>757</ele>
        <time>2019-04-09T11:52:26Z</time>
      </trkpt>
      <trkpt lat="44.42571" lon="5.93037">
        <ele>757</ele>
        <time>2019-04-09T11:52:27Z</time>
      </trkpt>
      <trkpt lat="44.42572" lon="5.93035">
        <ele>757</ele>
        <time>2019-04-09T11:52:28Z</time>
      </trkpt>
      <trkpt lat="44.42573" lon="5.93032">
        <ele>757</ele>
        <time>2019-04-09T11:52:29Z</time>
      </trkpt>
      <trkpt lat="44.42574" lon="5.93029">
        <ele>757</ele>
        <time>2019-04-09T11:52:30Z</time>
      </trkpt>
      <trkpt lat="44.42575" lon="5.93027">
        <ele>757</ele>
        <time>2019-04-09T11:52:31Z</time>
      </trkpt>
      <trkpt lat="44.42575" lon="5.93024">
        <ele>757</ele>
        <time>2019-04-09T11:52:32Z</time>
      </trkpt>
      <trkpt lat="44.42577" lon="5.93021">
        <ele>757</ele>
        <time>2019-04-09T11:52:33Z</time>
      </trkpt>
      <trkpt lat="44.42578" lon="5.93018">
        <ele>757</ele>
        <time>2019-04-09T11:52:34Z</time>
      </trkpt>
      <trkpt lat="44.42579" lon="5.93015">
        <ele>757</ele>
        <time>2019-04-09T11:52:35Z</time>
      </trkpt>
      <trkpt lat="44.4258" lon="5.93012">
        <ele>758</ele>
        <time>2019-04-09T11:52:36Z</time>
      </trkpt>
      <trkpt lat="44.42581" lon="5.93008">
        <ele>758</ele>
        <time>2019-04-09T11:52:37Z</time>
      </trkpt>
      <trkpt lat="44.42582" lon="5.93005">
        <ele>758</ele>
        <time>2019-04-09T11:52:38Z</time>
      </trkpt>
      <trkpt lat="44.42583" lon="5.93002">
        <ele>759</ele>
        <time>2019-04-09T11:52:39Z</time>
      </trkpt>
      <trkpt lat="44.42585" lon="5.92999">
        <ele>759</ele>
        <time>2019-04-09T11:52:40Z</time>
      </trkpt>
      <trkpt lat="44.42585" lon="5.92996">
        <ele>759</ele>
        <time>2019-04-09T11:52:41Z</time>
      </trkpt>
      <trkpt lat="44.42586" lon="5.92992">
        <ele>759</ele>
        <time>2019-04-09T11:52:42Z</time>
      </trkpt>
      <trkpt lat="44.42587" lon="5.92989">
        <ele>760</ele>
        <time>2019-04-09T11:52:43Z</time>
      </trkpt>
      <trkpt lat="44.42587" lon="5.92985">
        <ele>760</ele>
        <time>2019-04-09T11:52:44Z</time>
      </trkpt>
      <trkpt lat="44.42588" lon="5.92982">
        <ele>760</ele>
        <time>2019-04-09T11:52:45Z</time>
      </trkpt>
      <trkpt lat="44.42589" lon="5.92979">
        <ele>760</ele>
        <time>2019-04-09T11:52:46Z</time>
      </trkpt>
      <trkpt lat="44.42589" lon="5.92975">
        <ele>760</ele>
        <time>2019-04-09T11:52:47Z</time>
      </trkpt>
      <trkpt lat="44.4259" lon="5.92972">
        <ele>760</ele>
        <time>2019-04-09T11:52:48Z</time>
      </trkpt>
      <trkpt lat="44.4259" lon="5.92968">
        <ele>760</ele>
        <time>2019-04-09T11:52:49Z</time>
      </trkpt>
      <trkpt lat="44.42591" lon="5.92965">
        <ele>760</ele>
        <time>2019-04-09T11:52:50Z</time>
      </trkpt>
      <trkpt lat="44.42591" lon="5.92962">
        <ele>761</ele>
        <time>2019-04-09T11:52:51Z</time>
      </trkpt>
      <trkpt lat="44.42592" lon="5.92958">
        <ele>761</ele>
        <time>2019-04-09T11:52:52Z</time>
      </trkpt>
      <trkpt lat="44.42593" lon="5.92955">
        <ele>761</ele>
        <time>2019-04-09T11:52:53Z</time>
      </trkpt>
      <trkpt lat="44.42593" lon="5.92952">
        <ele>761</ele>
        <time>2019-04-09T11:52:54Z</time>
      </trkpt>
      <trkpt lat="44.42593" lon="5.92949">
        <ele>761</ele>
        <time>2019-04-09T11:52:55Z</time>
      </trkpt>
      <trkpt lat="44.42593" lon="5.92945">
        <ele>761</ele>
        <time>2019-04-09T11:52:56Z</time>
      </trkpt>
      <trkpt lat="44.42594" lon="5.92942">
        <ele>761</ele>
        <time>2019-04-09T11:52:57Z</time>
      </trkpt>
      <trkpt lat="44.42593" lon="5.92939">
        <ele>761</ele>
        <time>2019-04-09T11:52:58Z</time>
      </trkpt>
      <trkpt lat="44.42593" lon="5.92935">
        <ele>761</ele>
        <time>2019-04-09T11:52:59Z</time>
      </trkpt>
      <trkpt lat="44.42594" lon="5.92932">
        <ele>762</ele>
        <time>2019-04-09T11:53:00Z</time>
      </trkpt>
      <trkpt lat="44.42595" lon="5.92929">
        <ele>762</ele>
        <time>2019-04-09T11:53:01Z</time>
      </trkpt>
      <trkpt lat="44.42596" lon="5.92925">
        <ele>762</ele>
        <time>2019-04-09T11:53:02Z</time>
      </trkpt>
      <trkpt lat="44.42596" lon="5.92922">
        <ele>762</ele>
        <time>2019-04-09T11:53:03Z</time>
      </trkpt>
      <trkpt lat="44.42597" lon="5.92918">
        <ele>762</ele>
        <time>2019-04-09T11:53:04Z</time>
      </trkpt>
      <trkpt lat="44.42598" lon="5.92914">
        <ele>763</ele>
        <time>2019-04-09T11:53:05Z</time>
      </trkpt>
      <trkpt lat="44.42598" lon="5.92911">
        <ele>763</ele>
        <time>2019-04-09T11:53:06Z</time>
      </trkpt>
      <trkpt lat="44.42599" lon="5.92908">
        <ele>763</ele>
        <time>2019-04-09T11:53:07Z</time>
      </trkpt>
      <trkpt lat="44.426" lon="5.92904">
        <ele>763</ele>
        <time>2019-04-09T11:53:08Z</time>
      </trkpt>
      <trkpt lat="44.426" lon="5.92901">
        <ele>763</ele>
        <time>2019-04-09T11:53:09Z</time>
      </trkpt>
      <trkpt lat="44.42601" lon="5.92897">
        <ele>763</ele>
        <time>2019-04-09T11:53:10Z</time>
      </trkpt>
      <trkpt lat="44.42602" lon="5.92894">
        <ele>763</ele>
        <time>2019-04-09T11:53:11Z</time>
      </trkpt>
      <trkpt lat="44.42603" lon="5.9289">
        <ele>764</ele>
        <time>2019-04-09T11:53:12Z</time>
      </trkpt>
      <trkpt lat="44.42603" lon="5.92886">
        <ele>764</ele>
        <time>2019-04-09T11:53:13Z</time>
      </trkpt>
      <trkpt lat="44.42604" lon="5.92883">
        <ele>764</ele>
        <time>2019-04-09T11:53:14Z</time>
      </trkpt>
      <trkpt lat="44.42605" lon="5.92879">
        <ele>764</ele>
        <time>2019-04-09T11:53:15Z</time>
      </trkpt>
      <trkpt lat="44.42605" lon="5.92876">
        <ele>764</ele>
        <time>2019-04-09T11:53:16Z</time>
      </trkpt>
      <trkpt lat="44.42606" lon="5.92872">
        <ele>764</ele>
        <time>2019-04-09T11:53:17Z</time>
      </trkpt>
      <trkpt lat="44.42607" lon="5.92869">
        <ele>765</ele>
        <time>2019-04-09T11:53:18Z</time>
      </trkpt>
      <trkpt lat="44.42608" lon="5.92866">
        <ele>765</ele>
        <time>2019-04-09T11:53:19Z</time>
      </trkpt>
      <trkpt lat="44.42608" lon="5.92862">
        <ele>765</ele>
        <time>2019-04-09T11:53:20Z</time>
      </trkpt>
      <trkpt lat="44.42609" lon="5.92859">
        <ele>765</ele>
        <time>2019-04-09T11:53:21Z</time>
      </trkpt>
      <trkpt lat="44.42609" lon="5.92855">
        <ele>765</ele>
        <time>2019-04-09T11:53:22Z</time>
      </trkpt>
      <trkpt lat="44.4261" lon="5.92852">
        <ele>765</ele>
        <time>2019-04-09T11:53:23Z</time>
      </trkpt>
      <trkpt lat="44.42611" lon="5.92848">
        <ele>765</ele>
        <time>2019-04-09T11:53:24Z</time>
      </trkpt>
      <trkpt lat="44.42611" lon="5.92845">
        <ele>766</ele>
        <time>2019-04-09T11:53:25Z</time>
      </trkpt>
      <trkpt lat="44.42612" lon="5.92841">
        <ele>766</ele>
        <time>2019-04-09T11:53:26Z</time>
      </trkpt>
      <trkpt lat="44.42612" lon="5.92837">
        <ele>766</ele>
        <time>2019-04-09T11:53:27Z</time>
      </trkpt>
      <trkpt lat="44.42613" lon="5.92834">
        <ele>766</ele>
        <time>2019-04-09T11:53:28Z</time>
      </trkpt>
      <trkpt lat="44.42614" lon="5.9283">
        <ele>766</ele>
        <time>2019-04-09T11:53:29Z</time>
      </trkpt>
      <trkpt lat="44.42614" lon="5.92826">
        <ele>766</ele>
        <time>2019-04-09T11:53:30Z</time>
      </trkpt>
      <trkpt lat="44.42615" lon="5.92823">
        <ele>766</ele>
        <time>2019-04-09T11:53:31Z</time>
      </trkpt>
      <trkpt lat="44.42615" lon="5.92819">
        <ele>766</ele>
        <time>2019-04-09T11:53:32Z</time>
      </trkpt>
      <trkpt lat="44.42616" lon="5.92816">
        <ele>767</ele>
        <time>2019-04-09T11:53:33Z</time>
      </trkpt>
      <trkpt lat="44.42617" lon="5.92812">
        <ele>767</ele>
        <time>2019-04-09T11:53:34Z</time>
      </trkpt>
      <trkpt lat="44.42617" lon="5.92809">
        <ele>767</ele>
        <time>2019-04-09T11:53:35Z</time>
      </trkpt>
      <trkpt lat="44.42618" lon="5.92805">
        <ele>767</ele>
        <time>2019-04-09T11:53:36Z</time>
      </trkpt>
      <trkpt lat="44.42618" lon="5.92802">
        <ele>767</ele>
        <time>2019-04-09T11:53:37Z</time>
      </trkpt>
      <trkpt lat="44.42618" lon="5.92798">
        <ele>767</ele>
        <time>2019-04-09T11:53:38Z</time>
      </trkpt>
      <trkpt lat="44.42619" lon="5.92795">
        <ele>767</ele>
        <time>2019-04-09T11:53:39Z</time>
      </trkpt>
      <trkpt lat="44.4262" lon="5.92792">
        <ele>768</ele>
        <time>2019-04-09T11:53:40Z</time>
      </trkpt>
      <trkpt lat="44.4262" lon="5.92788">
        <ele>768</ele>
        <time>2019-04-09T11:53:41Z</time>
      </trkpt>
      <trkpt lat="44.42621" lon="5.92785">
        <ele>768</ele>
        <time>2019-04-09T11:53:42Z</time>
      </trkpt>
      <trkpt lat="44.42621" lon="5.92781">
        <ele>768</ele>
        <time>2019-04-09T11:53:43Z</time>
      </trkpt>
      <trkpt lat="44.42622" lon="5.92777">
        <ele>768</ele>
        <time>2019-04-09T11:53:44Z</time>
      </trkpt>
      <trkpt lat="44.42622" lon="5.92774">
        <ele>768</ele>
        <time>2019-04-09T11:53:45Z</time>
      </trkpt>
      <trkpt lat="44.42623" lon="5.9277">
        <ele>768</ele>
        <time>2019-04-09T11:53:46Z</time>
      </trkpt>
      <trkpt lat="44.42624" lon="5.92767">
        <ele>769</ele>
        <time>2019-04-09T11:53:47Z</time>
      </trkpt>
      <trkpt lat="44.42625" lon="5.92763">
        <ele>769</ele>
        <time>2019-04-09T11:53:48Z</time>
      </trkpt>
      <trkpt lat="44.42625" lon="5.9276">
        <ele>769</ele>
        <time>2019-04-09T11:53:49Z</time>
      </trkpt>
      <trkpt lat="44.42626" lon="5.92756">
        <ele>769</ele>
        <time>2019-04-09T11:53:50Z</time>
      </trkpt>
      <trkpt lat="44.42627" lon="5.92753">
        <ele>769</ele>
        <time>2019-04-09T11:53:51Z</time>
      </trkpt>
      <trkpt lat="44.42627" lon="5.92749">
        <ele>769</ele>
        <time>2019-04-09T11:53:52Z</time>
      </trkpt>
      <trkpt lat="44.42629" lon="5.92745">
        <ele>769</ele>
        <time>2019-04-09T11:53:53Z</time>
      </trkpt>
      <trkpt lat="44.4263" lon="5.92741">
        <ele>769</ele>
        <time>2019-04-09T11:53:54Z</time>
      </trkpt>
      <trkpt lat="44.4263" lon="5.92737">
        <ele>769</ele>
        <time>2019-04-09T11:53:55Z</time>
      </trkpt>
      <trkpt lat="44.42631" lon="5.92732">
        <ele>769</ele>
        <time>2019-04-09T11:53:56Z</time>
      </trkpt>
      <trkpt lat="44.42631" lon="5.92728">
        <ele>769</ele>
        <time>2019-04-09T11:53:57Z</time>
      </trkpt>
      <trkpt lat="44.42631" lon="5.92723">
        <ele>770</ele>
        <time>2019-04-09T11:53:58Z</time>
      </trkpt>
      <trkpt lat="44.42632" lon="5.92719">
        <ele>770</ele>
        <time>2019-04-09T11:53:59Z</time>
      </trkpt>
      <trkpt lat="44.42633" lon="5.92714">
        <ele>770</ele>
        <time>2019-04-09T11:54:00Z</time>
      </trkpt>
      <trkpt lat="44.42634" lon="5.9271">
        <ele>770</ele>
        <time>2019-04-09T11:54:01Z</time>
      </trkpt>
      <trkpt lat="44.42635" lon="5.92706">
        <ele>771</ele>
        <time>2019-04-09T11:54:02Z</time>
      </trkpt>
      <trkpt lat="44.42636" lon="5.92701">
        <ele>771</ele>
        <time>2019-04-09T11:54:03Z</time>
      </trkpt>
      <trkpt lat="44.42636" lon="5.92697">
        <ele>771</ele>
        <time>2019-04-09T11:54:04Z</time>
      </trkpt>
      <trkpt lat="44.42637" lon="5.92693">
        <ele>771</ele>
        <time>2019-04-09T11:54:05Z</time>
      </trkpt>
      <trkpt lat="44.42638" lon="5.92689">
        <ele>771</ele>
        <time>2019-04-09T11:54:06Z</time>
      </trkpt>
      <trkpt lat="44.4264" lon="5.92685">
        <ele>772</ele>
        <time>2019-04-09T11:54:07Z</time>
      </trkpt>
      <trkpt lat="44.42641" lon="5.9268">
        <ele>772</ele>
        <time>2019-04-09T11:54:08Z</time>
      </trkpt>
      <trkpt lat="44.42641" lon="5.92676">
        <ele>772</ele>
        <time>2019-04-09T11:54:09Z</time>
      </trkpt>
      <trkpt lat="44.42643" lon="5.92672">
        <ele>772</ele>
        <time>2019-04-09T11:54:10Z</time>
      </trkpt>
      <trkpt lat="44.42645" lon="5.92668">
        <ele>773</ele>
        <time>2019-04-09T11:54:11Z</time>
      </trkpt>
      <trkpt lat="44.42646" lon="5.92663">
        <ele>773</ele>
        <time>2019-04-09T11:54:12Z</time>
      </trkpt>
      <trkpt lat="44.42648" lon="5.9266">
        <ele>773</ele>
        <time>2019-04-09T11:54:13Z</time>
      </trkpt>
      <trkpt lat="44.42649" lon="5.92656">
        <ele>773</ele>
        <time>2019-04-09T11:54:14Z</time>
      </trkpt>
      <trkpt lat="44.42651" lon="5.92653">
        <ele>773</ele>
        <time>2019-04-09T11:54:15Z</time>
      </trkpt>
      <trkpt lat="44.42654" lon="5.92649">
        <ele>774</ele>
        <time>2019-04-09T11:54:16Z</time>
      </trkpt>
      <trkpt lat="44.42656" lon="5.92646">
        <ele>774</ele>
        <time>2019-04-09T11:54:17Z</time>
      </trkpt>
      <trkpt lat="44.42657" lon="5.92643">
        <ele>774</ele>
        <time>2019-04-09T11:54:18Z</time>
      </trkpt>
      <trkpt lat="44.42659" lon="5.9264">
        <ele>774</ele>
        <time>2019-04-09T11:54:19Z</time>
      </trkpt>
      <trkpt lat="44.42661" lon="5.92636">
        <ele>774</ele>
        <time>2019-04-09T11:54:20Z</time>
      </trkpt>
      <trkpt lat="44.42662" lon="5.92633">
        <ele>774</ele>
        <time>2019-04-09T11:54:21Z</time>
      </trkpt>
      <trkpt lat="44.42664" lon="5.92629">
        <ele>774</ele>
        <time>2019-04-09T11:54:22Z</time>
      </trkpt>
      <trkpt lat="44.42666" lon="5.92626">
        <ele>774</ele>
        <time>2019-04-09T11:54:23Z</time>
      </trkpt>
      <trkpt lat="44.42668" lon="5.92622">
        <ele>774</ele>
        <time>2019-04-09T11:54:24Z</time>
      </trkpt>
      <trkpt lat="44.42669" lon="5.92619">
        <ele>774</ele>
        <time>2019-04-09T11:54:25Z</time>
      </trkpt>
      <trkpt lat="44.42671" lon="5.92615">
        <ele>774</ele>
        <time>2019-04-09T11:54:26Z</time>
      </trkpt>
      <trkpt lat="44.42673" lon="5.92611">
        <ele>774</ele>
        <time>2019-04-09T11:54:27Z</time>
      </trkpt>
      <trkpt lat="44.42675" lon="5.92607">
        <ele>774</ele>
        <time>2019-04-09T11:54:28Z</time>
      </trkpt>
      <trkpt lat="44.42677" lon="5.92603">
        <ele>774</ele>
        <time>2019-04-09T11:54:29Z</time>
      </trkpt>
      <trkpt lat="44.42679" lon="5.926">
        <ele>774</ele>
        <time>2019-04-09T11:54:30Z</time>
      </trkpt>
      <trkpt lat="44.42681" lon="5.92596">
        <ele>774</ele>
        <time>2019-04-09T11:54:31Z</time>
      </trkpt>
      <trkpt lat="44.42682" lon="5.92592">
        <ele>774</ele>
        <time>2019-04-09T11:54:32Z</time>
      </trkpt>
      <trkpt lat="44.42683" lon="5.92588">
        <ele>774</ele>
        <time>2019-04-09T11:54:33Z</time>
      </trkpt>
      <trkpt lat="44.42684" lon="5.92583">
        <ele>774</ele>
        <time>2019-04-09T11:54:34Z</time>
      </trkpt>
      <trkpt lat="44.42685" lon="5.92579">
        <ele>774</ele>
        <time>2019-04-09T11:54:35Z</time>
      </trkpt>
      <trkpt lat="44.42686" lon="5.92575">
        <ele>774</ele>
        <time>2019-04-09T11:54:36Z</time>
      </trkpt>
      <trkpt lat="44.42688" lon="5.92571">
        <ele>774</ele>
        <time>2019-04-09T11:54:37Z</time>
      </trkpt>
      <trkpt lat="44.42689" lon="5.92567">
        <ele>774</ele>
        <time>2019-04-09T11:54:38Z</time>
      </trkpt>
      <trkpt lat="44.4269" lon="5.92564">
        <ele>774</ele>
        <time>2019-04-09T11:54:39Z</time>
      </trkpt>
      <trkpt lat="44.42691" lon="5.9256">
        <ele>774</ele>
        <time>2019-04-09T11:54:40Z</time>
      </trkpt>
      <trkpt lat="44.42692" lon="5.92556">
        <ele>774</ele>
        <time>2019-04-09T11:54:41Z</time>
      </trkpt>
      <trkpt lat="44.42693" lon="5.92552">
        <ele>774</ele>
        <time>2019-04-09T11:54:42Z</time>
      </trkpt>
      <trkpt lat="44.42694" lon="5.92548">
        <ele>774</ele>
        <time>2019-04-09T11:54:43Z</time>
      </trkpt>
      <trkpt lat="44.42695" lon="5.92544">
        <ele>774</ele>
        <time>2019-04-09T11:54:44Z</time>
      </trkpt>
      <trkpt lat="44.42696" lon="5.9254">
        <ele>774</ele>
        <time>2019-04-09T11:54:45Z</time>
      </trkpt>
      <trkpt lat="44.42697" lon="5.92536">
        <ele>774</ele>
        <time>2019-04-09T11:54:46Z</time>
      </trkpt>
      <trkpt lat="44.42698" lon="5.92532">
        <ele>774</ele>
        <time>2019-04-09T11:54:47Z</time>
      </trkpt>
      <trkpt lat="44.42699" lon="5.92528">
        <ele>775</ele>
        <time>2019-04-09T11:54:48Z</time>
      </trkpt>
      <trkpt lat="44.42701" lon="5.92524">
        <ele>775</ele>
        <time>2019-04-09T11:54:49Z</time>
      </trkpt>
      <trkpt lat="44.42702" lon="5.92521">
        <ele>775</ele>
        <time>2019-04-09T11:54:50Z</time>
      </trkpt>
      <trkpt lat="44.42703" lon="5.92518">
        <ele>775</ele>
        <time>2019-04-09T11:54:51Z</time>
      </trkpt>
      <trkpt lat="44.42704" lon="5.92514">
        <ele>775</ele>
        <time>2019-04-09T11:54:52Z</time>
      </trkpt>
      <trkpt lat="44.42705" lon="5.92511">
        <ele>775</ele>
        <time>2019-04-09T11:54:53Z</time>
      </trkpt>
      <trkpt lat="44.42706" lon="5.92507">
        <ele>775</ele>
        <time>2019-04-09T11:54:54Z</time>
      </trkpt>
      <trkpt lat="44.42706" lon="5.92504">
        <ele>775</ele>
        <time>2019-04-09T11:54:55Z</time>
      </trkpt>
      <trkpt lat="44.42707" lon="5.92501">
        <ele>776</ele>
        <time>2019-04-09T11:54:56Z</time>
      </trkpt>
      <trkpt lat="44.42708" lon="5.92498">
        <ele>776</ele>
        <time>2019-04-09T11:54:57Z</time>
      </trkpt>
      <trkpt lat="44.42709" lon="5.92494">
        <ele>776</ele>
        <time>2019-04-09T11:54:58Z</time>
      </trkpt>
      <trkpt lat="44.42709" lon="5.92491">
        <ele>776</ele>
        <time>2019-04-09T11:54:59Z</time>
      </trkpt>
      <trkpt lat="44.4271" lon="5.92488">
        <ele>776</ele>
        <time>2019-04-09T11:55:00Z</time>
      </trkpt>
      <trkpt lat="44.42711" lon="5.92485">
        <ele>776</ele>
        <time>2019-04-09T11:55:01Z</time>
      </trkpt>
      <trkpt lat="44.42712" lon="5.92482">
        <ele>777</ele>
        <time>2019-04-09T11:55:02Z</time>
      </trkpt>
      <trkpt lat="44.42713" lon="5.92479">
        <ele>777</ele>
        <time>2019-04-09T11:55:03Z</time>
      </trkpt>
      <trkpt lat="44.42714" lon="5.92476">
        <ele>777</ele>
        <time>2019-04-09T11:55:04Z</time>
      </trkpt>
      <trkpt lat="44.42715" lon="5.92473">
        <ele>777</ele>
        <time>2019-04-09T11:55:05Z</time>
      </trkpt>
      <trkpt lat="44.42717" lon="5.9247">
        <ele>777</ele>
        <time>2019-04-09T11:55:06Z</time>
      </trkpt>
      <trkpt lat="44.42718" lon="5.92467">
        <ele>777</ele>
        <time>2019-04-09T11:55:07Z</time>
      </trkpt>
      <trkpt lat="44.42719" lon="5.92464">
        <ele>777</ele>
        <time>2019-04-09T11:55:08Z</time>
      </trkpt>
      <trkpt lat="44.42721" lon="5.92461">
        <ele>778</ele>
        <time>2019-04-09T11:55:09Z</time>
      </trkpt>
      <trkpt lat="44.42722" lon="5.92458">
        <ele>778</ele>
        <time>2019-04-09T11:55:10Z</time>
      </trkpt>
      <trkpt lat="44.42724" lon="5.92456">
        <ele>778</ele>
        <time>2019-04-09T11:55:11Z</time>
      </trkpt>
      <trkpt lat="44.42725" lon="5.92453">
        <ele>778</ele>
        <time>2019-04-09T11:55:12Z</time>
      </trkpt>
      <trkpt lat="44.42726" lon="5.9245">
        <ele>778</ele>
        <time>2019-04-09T11:55:13Z</time>
      </trkpt>
      <trkpt lat="44.42727" lon="5.92448">
        <ele>779</ele>
        <time>2019-04-09T11:55:14Z</time>
      </trkpt>
      <trkpt lat="44.42728" lon="5.92445">
        <ele>779</ele>
        <time>2019-04-09T11:55:15Z</time>
      </trkpt>
      <trkpt lat="44.42729" lon="5.92443">
        <ele>779</ele>
        <time>2019-04-09T11:55:16Z</time>
      </trkpt>
      <trkpt lat="44.42731" lon="5.92441">
        <ele>779</ele>
        <time>2019-04-09T11:55:17Z</time>
      </trkpt>
      <trkpt lat="44.42732" lon="5.92438">
        <ele>779</ele>
        <time>2019-04-09T11:55:18Z</time>
      </trkpt>
      <trkpt lat="44.42734" lon="5.92435">
        <ele>779</ele>
        <time>2019-04-09T11:55:19Z</time>
      </trkpt>
      <trkpt lat="44.42736" lon="5.92433">
        <ele>779</ele>
        <time>2019-04-09T11:55:20Z</time>
      </trkpt>
      <trkpt lat="44.42737" lon="5.9243">
        <ele>779</ele>
        <time>2019-04-09T11:55:21Z</time>
      </trkpt>
      <trkpt lat="44.42738" lon="5.92427">
        <ele>779</ele>
        <time>2019-04-09T11:55:22Z</time>
      </trkpt>
      <trkpt lat="44.42739" lon="5.92425">
        <ele>779</ele>
        <time>2019-04-09T11:55:23Z</time>
      </trkpt>
      <trkpt lat="44.42741" lon="5.92422">
        <ele>780</ele>
        <time>2019-04-09T11:55:24Z</time>
      </trkpt>
      <trkpt lat="44.42743" lon="5.92419">
        <ele>780</ele>
        <time>2019-04-09T11:55:25Z</time>
      </trkpt>
      <trkpt lat="44.42745" lon="5.92416">
        <ele>780</ele>
        <time>2019-04-09T11:55:26Z</time>
      </trkpt>
      <trkpt lat="44.42746" lon="5.92413">
        <ele>780</ele>
        <time>2019-04-09T11:55:27Z</time>
      </trkpt>
      <trkpt lat="44.42749" lon="5.92411">
        <ele>781</ele>
        <time>2019-04-09T11:55:28Z</time>
      </trkpt>
      <trkpt lat="44.4275" lon="5.92408">
        <ele>781</ele>
        <time>2019-04-09T11:55:29Z</time>
      </trkpt>
      <trkpt lat="44.42752" lon="5.92405">
        <ele>781</ele>
        <time>2019-04-09T11:55:30Z</time>
      </trkpt>
      <trkpt lat="44.42754" lon="5.92403">
        <ele>781</ele>
        <time>2019-04-09T11:55:31Z</time>
      </trkpt>
      <trkpt lat="44.42755" lon="5.924">
        <ele>782</ele>
        <time>2019-04-09T11:55:32Z</time>
      </trkpt>
      <trkpt lat="44.42757" lon="5.92397">
        <ele>782</ele>
        <time>2019-04-09T11:55:33Z</time>
      </trkpt>
      <trkpt lat="44.42759" lon="5.92394">
        <ele>782</ele>
        <time>2019-04-09T11:55:34Z</time>
      </trkpt>
      <trkpt lat="44.42761" lon="5.92391">
        <ele>782</ele>
        <time>2019-04-09T11:55:35Z</time>
      </trkpt>
      <trkpt lat="44.42763" lon="5.92389">
        <ele>783</ele>
        <time>2019-04-09T11:55:36Z</time>
      </trkpt>
      <trkpt lat="44.42765" lon="5.92386">
        <ele>783</ele>
        <time>2019-04-09T11:55:37Z</time>
      </trkpt>
      <trkpt lat="44.42767" lon="5.92383">
        <ele>784</ele>
        <time>2019-04-09T11:55:38Z</time>
      </trkpt>
      <trkpt lat="44.42769" lon="5.92381">
        <ele>784</ele>
        <time>2019-04-09T11:55:39Z</time>
      </trkpt>
      <trkpt lat="44.4277" lon="5.92378">
        <ele>784</ele>
        <time>2019-04-09T11:55:40Z</time>
      </trkpt>
      <trkpt lat="44.42772" lon="5.92375">
        <ele>785</ele>
        <time>2019-04-09T11:55:41Z</time>
      </trkpt>
      <trkpt lat="44.42774" lon="5.92372">
        <ele>785</ele>
        <time>2019-04-09T11:55:42Z</time>
      </trkpt>
      <trkpt lat="44.42776" lon="5.9237">
        <ele>785</ele>
        <time>2019-04-09T11:55:43Z</time>
      </trkpt>
      <trkpt lat="44.42778" lon="5.92367">
        <ele>786</ele>
        <time>2019-04-09T11:55:44Z</time>
      </trkpt>
      <trkpt lat="44.42779" lon="5.92364">
        <ele>786</ele>
        <time>2019-04-09T11:55:45Z</time>
      </trkpt>
      <trkpt lat="44.42781" lon="5.92361">
        <ele>786</ele>
        <time>2019-04-09T11:55:46Z</time>
      </trkpt>
      <trkpt lat="44.42784" lon="5.92359">
        <ele>787</ele>
        <time>2019-04-09T11:55:47Z</time>
      </trkpt>
      <trkpt lat="44.42786" lon="5.92356">
        <ele>787</ele>
        <time>2019-04-09T11:55:48Z</time>
      </trkpt>
      <trkpt lat="44.42788" lon="5.92353">
        <ele>788</ele>
        <time>2019-04-09T11:55:49Z</time>
      </trkpt>
      <trkpt lat="44.4279" lon="5.9235">
        <ele>788</ele>
        <time>2019-04-09T11:55:50Z</time>
      </trkpt>
      <trkpt lat="44.42793" lon="5.92347">
        <ele>789</ele>
        <time>2019-04-09T11:55:51Z</time>
      </trkpt>
      <trkpt lat="44.42794" lon="5.92345">
        <ele>789</ele>
        <time>2019-04-09T11:55:52Z</time>
      </trkpt>
      <trkpt lat="44.42796" lon="5.92342">
        <ele>789</ele>
        <time>2019-04-09T11:55:53Z</time>
      </trkpt>
      <trkpt lat="44.42798" lon="5.9234">
        <ele>790</ele>
        <time>2019-04-09T11:55:54Z</time>
      </trkpt>
      <trkpt lat="44.428" lon="5.92337">
        <ele>790</ele>
        <time>2019-04-09T11:55:55Z</time>
      </trkpt>
      <trkpt lat="44.42802" lon="5.92335">
        <ele>790</ele>
        <time>2019-04-09T11:55:56Z</time>
      </trkpt>
      <trkpt lat="44.42804" lon="5.92333">
        <ele>790</ele>
        <time>2019-04-09T11:55:57Z</time>
      </trkpt>
      <trkpt lat="44.42805" lon="5.92331">
        <ele>790</ele>
        <time>2019-04-09T11:55:58Z</time>
      </trkpt>
      <trkpt lat="44.42807" lon="5.92329">
        <ele>791</ele>
        <time>2019-04-09T11:55:59Z</time>
      </trkpt>
      <trkpt lat="44.42808" lon="5.92326">
        <ele>791</ele>
        <time>2019-04-09T11:56:00Z</time>
      </trkpt>
      <trkpt lat="44.4281" lon="5.92323">
        <ele>791</ele>
        <time>2019-04-09T11:56:01Z</time>
      </trkpt>
      <trkpt lat="44.42812" lon="5.92321">
        <ele>791</ele>
        <time>2019-04-09T11:56:02Z</time>
      </trkpt>
      <trkpt lat="44.42814" lon="5.92318">
        <ele>792</ele>
        <time>2019-04-09T11:56:03Z</time>
      </trkpt>
      <trkpt lat="44.42816" lon="5.92315">
        <ele>792</ele>
        <time>2019-04-09T11:56:04Z</time>
      </trkpt>
      <trkpt lat="44.42818" lon="5.92313">
        <ele>792</ele>
        <time>2019-04-09T11:56:05Z</time>
      </trkpt>
      <trkpt lat="44.4282" lon="5.9231">
        <ele>793</ele>
        <time>2019-04-09T11:56:06Z</time>
      </trkpt>
      <trkpt lat="44.42822" lon="5.92308">
        <ele>793</ele>
        <time>2019-04-09T11:56:07Z</time>
      </trkpt>
      <trkpt lat="44.42824" lon="5.92304">
        <ele>793</ele>
        <time>2019-04-09T11:56:08Z</time>
      </trkpt>
      <trkpt lat="44.42825" lon="5.92302">
        <ele>794</ele>
        <time>2019-04-09T11:56:09Z</time>
      </trkpt>
      <trkpt lat="44.42827" lon="5.92299">
        <ele>794</ele>
        <time>2019-04-09T11:56:10Z</time>
      </trkpt>
      <trkpt lat="44.42829" lon="5.92296">
        <ele>794</ele>
        <time>2019-04-09T11:56:11Z</time>
      </trkpt>
      <trkpt lat="44.42831" lon="5.92294">
        <ele>794</ele>
        <time>2019-04-09T11:56:12Z</time>
      </trkpt>
      <trkpt lat="44.42833" lon="5.92291">
        <ele>794</ele>
        <time>2019-04-09T11:56:13Z</time>
      </trkpt>
      <trkpt lat="44.42834" lon="5.92288">
        <ele>795</ele>
        <time>2019-04-09T11:56:14Z</time>
      </trkpt>
      <trkpt lat="44.42836" lon="5.92286">
        <ele>795</ele>
        <time>2019-04-09T11:56:15Z</time>
      </trkpt>
      <trkpt lat="44.42838" lon="5.92283">
        <ele>795</ele>
        <time>2019-04-09T11:56:16Z</time>
      </trkpt>
      <trkpt lat="44.4284" lon="5.92281">
        <ele>796</ele>
        <time>2019-04-09T11:56:17Z</time>
      </trkpt>
      <trkpt lat="44.42841" lon="5.92279">
        <ele>796</ele>
        <time>2019-04-09T11:56:18Z</time>
      </trkpt>
      <trkpt lat="44.42843" lon="5.92276">
        <ele>796</ele>
        <time>2019-04-09T11:56:19Z</time>
      </trkpt>
      <trkpt lat="44.42844" lon="5.92274">
        <ele>797</ele>
        <time>2019-04-09T11:56:20Z</time>
      </trkpt>
      <trkpt lat="44.42846" lon="5.92272">
        <ele>797</ele>
        <time>2019-04-09T11:56:21Z</time>
      </trkpt>
      <trkpt lat="44.42848" lon="5.9227">
        <ele>797</ele>
        <time>2019-04-09T11:56:22Z</time>
      </trkpt>
      <trkpt lat="44.42849" lon="5.92268">
        <ele>797</ele>
        <time>2019-04-09T11:56:23Z</time>
      </trkpt>
      <trkpt lat="44.42851" lon="5.92266">
        <ele>798</ele>
        <time>2019-04-09T11:56:24Z</time>
      </trkpt>
      <trkpt lat="44.42853" lon="5.92263">
        <ele>798</ele>
        <time>2019-04-09T11:56:25Z</time>
      </trkpt>
      <trkpt lat="44.42854" lon="5.92261">
        <ele>798</ele>
        <time>2019-04-09T11:56:26Z</time>
      </trkpt>
      <trkpt lat="44.42855" lon="5.92258">
        <ele>798</ele>
        <time>2019-04-09T11:56:27Z</time>
      </trkpt>
      <trkpt lat="44.42857" lon="5.92256">
        <ele>799</ele>
        <time>2019-04-09T11:56:28Z</time>
      </trkpt>
      <trkpt lat="44.42859" lon="5.92253">
        <ele>799</ele>
        <time>2019-04-09T11:56:29Z</time>
      </trkpt>
      <trkpt lat="44.42861" lon="5.92251">
        <ele>799</ele>
        <time>2019-04-09T11:56:30Z</time>
      </trkpt>
      <trkpt lat="44.42863" lon="5.92249">
        <ele>799</ele>
        <time>2019-04-09T11:56:31Z</time>
      </trkpt>
      <trkpt lat="44.42865" lon="5.92246">
        <ele>799</ele>
        <time>2019-04-09T11:56:32Z</time>
      </trkpt>
      <trkpt lat="44.42866" lon="5.92243">
        <ele>799</ele>
        <time>2019-04-09T11:56:33Z</time>
      </trkpt>
      <trkpt lat="44.42868" lon="5.9224">
        <ele>799</ele>
        <time>2019-04-09T11:56:34Z</time>
      </trkpt>
      <trkpt lat="44.4287" lon="5.92238">
        <ele>799</ele>
        <time>2019-04-09T11:56:35Z</time>
      </trkpt>
      <trkpt lat="44.42871" lon="5.92235">
        <ele>799</ele>
        <time>2019-04-09T11:56:36Z</time>
      </trkpt>
      <trkpt lat="44.42874" lon="5.92233">
        <ele>800</ele>
        <time>2019-04-09T11:56:37Z</time>
      </trkpt>
      <trkpt lat="44.42876" lon="5.9223">
        <ele>800</ele>
        <time>2019-04-09T11:56:38Z</time>
      </trkpt>
      <trkpt lat="44.42878" lon="5.92228">
        <ele>800</ele>
        <time>2019-04-09T11:56:39Z</time>
      </trkpt>
      <trkpt lat="44.4288" lon="5.92225">
        <ele>800</ele>
        <time>2019-04-09T11:56:40Z</time>
      </trkpt>
      <trkpt lat="44.42882" lon="5.92222">
        <ele>800</ele>
        <time>2019-04-09T11:56:41Z</time>
      </trkpt>
      <trkpt lat="44.42884" lon="5.9222">
        <ele>800</ele>
        <time>2019-04-09T11:56:42Z</time>
      </trkpt>
      <trkpt lat="44.42886" lon="5.92217">
        <ele>800</ele>
        <time>2019-04-09T11:56:43Z</time>
      </trkpt>
      <trkpt lat="44.42887" lon="5.92215">
        <ele>801</ele>
        <time>2019-04-09T11:56:44Z</time>
      </trkpt>
      <trkpt lat="44.42889" lon="5.92212">
        <ele>801</ele>
        <time>2019-04-09T11:56:45Z</time>
      </trkpt>
      <trkpt lat="44.42891" lon="5.92209">
        <ele>801</ele>
        <time>2019-04-09T11:56:46Z</time>
      </trkpt>
      <trkpt lat="44.42894" lon="5.92207">
        <ele>801</ele>
        <time>2019-04-09T11:56:47Z</time>
      </trkpt>
      <trkpt lat="44.42896" lon="5.92205">
        <ele>801</ele>
        <time>2019-04-09T11:56:48Z</time>
      </trkpt>
      <trkpt lat="44.42898" lon="5.92203">
        <ele>801</ele>
        <time>2019-04-09T11:56:49Z</time>
      </trkpt>
      <trkpt lat="44.429" lon="5.922">
        <ele>801</ele>
        <time>2019-04-09T11:56:50Z</time>
      </trkpt>
      <trkpt lat="44.42903" lon="5.92198">
        <ele>801</ele>
        <time>2019-04-09T11:56:51Z</time>
      </trkpt>
      <trkpt lat="44.42905" lon="5.92195">
        <ele>801</ele>
        <time>2019-04-09T11:56:52Z</time>
      </trkpt>
      <trkpt lat="44.42908" lon="5.92192">
        <ele>802</ele>
        <time>2019-04-09T11:56:53Z</time>
      </trkpt>
      <trkpt lat="44.4291" lon="5.92189">
        <ele>802</ele>
        <time>2019-04-09T11:56:54Z</time>
      </trkpt>
      <trkpt lat="44.42912" lon="5.92186">
        <ele>802</ele>
        <time>2019-04-09T11:56:55Z</time>
      </trkpt>
      <trkpt lat="44.42915" lon="5.92183">
        <ele>802</ele>
        <time>2019-04-09T11:56:56Z</time>
      </trkpt>
      <trkpt lat="44.42918" lon="5.92181">
        <ele>802</ele>
        <time>2019-04-09T11:56:57Z</time>
      </trkpt>
      <trkpt lat="44.42921" lon="5.92179">
        <ele>802</ele>
        <time>2019-04-09T11:56:58Z</time>
      </trkpt>
      <trkpt lat="44.42924" lon="5.92176">
        <ele>802</ele>
        <time>2019-04-09T11:56:59Z</time>
      </trkpt>
      <trkpt lat="44.42927" lon="5.92174">
        <ele>802</ele>
        <time>2019-04-09T11:57:00Z</time>
      </trkpt>
      <trkpt lat="44.42931" lon="5.92171">
        <ele>802</ele>
        <time>2019-04-09T11:57:01Z</time>
      </trkpt>
      <trkpt lat="44.42934" lon="5.92168">
        <ele>802</ele>
        <time>2019-04-09T11:57:02Z</time>
      </trkpt>
      <trkpt lat="44.42938" lon="5.92166">
        <ele>802</ele>
        <time>2019-04-09T11:57:03Z</time>
      </trkpt>
      <trkpt lat="44.42941" lon="5.92164">
        <ele>802</ele>
        <time>2019-04-09T11:57:04Z</time>
      </trkpt>
      <trkpt lat="44.42945" lon="5.92163">
        <ele>802</ele>
        <time>2019-04-09T11:57:05Z</time>
      </trkpt>
      <trkpt lat="44.42949" lon="5.92163">
        <ele>802</ele>
        <time>2019-04-09T11:57:06Z</time>
      </trkpt>
      <trkpt lat="44.42953" lon="5.92162">
        <ele>802</ele>
        <time>2019-04-09T11:57:07Z</time>
      </trkpt>
      <trkpt lat="44.42959" lon="5.92161">
        <ele>802</ele>
        <time>2019-04-09T11:57:08Z</time>
      </trkpt>
      <trkpt lat="44.42963" lon="5.9216">
        <ele>802</ele>
        <time>2019-04-09T11:57:09Z</time>
      </trkpt>
      <trkpt lat="44.42968" lon="5.9216">
        <ele>802</ele>
        <time>2019-04-09T11:57:10Z</time>
      </trkpt>
      <trkpt lat="44.42973" lon="5.92159">
        <ele>802</ele>
        <time>2019-04-09T11:57:11Z</time>
      </trkpt>
      <trkpt lat="44.42977" lon="5.92159">
        <ele>802</ele>
        <time>2019-04-09T11:57:12Z</time>
      </trkpt>
      <trkpt lat="44.42981" lon="5.92158">
        <ele>802</ele>
        <time>2019-04-09T11:57:13Z</time>
      </trkpt>
      <trkpt lat="44.42986" lon="5.92158">
        <ele>802</ele>
        <time>2019-04-09T11:57:14Z</time>
      </trkpt>
      <trkpt lat="44.4299" lon="5.92158">
        <ele>802</ele>
        <time>2019-04-09T11:57:15Z</time>
      </trkpt>
      <trkpt lat="44.42994" lon="5.92157">
        <ele>802</ele>
        <time>2019-04-09T11:57:16Z</time>
      </trkpt>
      <trkpt lat="44.42998" lon="5.92157">
        <ele>802</ele>
        <time>2019-04-09T11:57:17Z</time>
      </trkpt>
      <trkpt lat="44.43002" lon="5.92156">
        <ele>802</ele>
        <time>2019-04-09T11:57:18Z</time>
      </trkpt>
      <trkpt lat="44.43005" lon="5.92156">
        <ele>802</ele>
        <time>2019-04-09T11:57:19Z</time>
      </trkpt>
      <trkpt lat="44.43009" lon="5.92155">
        <ele>803</ele>
        <time>2019-04-09T11:57:20Z</time>
      </trkpt>
      <trkpt lat="44.43013" lon="5.92155">
        <ele>803</ele>
        <time>2019-04-09T11:57:21Z</time>
      </trkpt>
      <trkpt lat="44.43016" lon="5.92155">
        <ele>803</ele>
        <time>2019-04-09T11:57:22Z</time>
      </trkpt>
      <trkpt lat="44.4302" lon="5.92154">
        <ele>804</ele>
        <time>2019-04-09T11:57:23Z</time>
      </trkpt>
      <trkpt lat="44.43024" lon="5.92154">
        <ele>804</ele>
        <time>2019-04-09T11:57:24Z</time>
      </trkpt>
      <trkpt lat="44.43027" lon="5.92153">
        <ele>805</ele>
        <time>2019-04-09T11:57:25Z</time>
      </trkpt>
      <trkpt lat="44.43031" lon="5.92153">
        <ele>805</ele>
        <time>2019-04-09T11:57:26Z</time>
      </trkpt>
      <trkpt lat="44.43034" lon="5.92152">
        <ele>805</ele>
        <time>2019-04-09T11:57:27Z</time>
      </trkpt>
      <trkpt lat="44.43037" lon="5.92151">
        <ele>806</ele>
        <time>2019-04-09T11:57:28Z</time>
      </trkpt>
      <trkpt lat="44.4304" lon="5.9215">
        <ele>806</ele>
        <time>2019-04-09T11:57:29Z</time>
      </trkpt>
      <trkpt lat="44.43044" lon="5.9215">
        <ele>806</ele>
        <time>2019-04-09T11:57:30Z</time>
      </trkpt>
      <trkpt lat="44.43047" lon="5.92149">
        <ele>806</ele>
        <time>2019-04-09T11:57:31Z</time>
      </trkpt>
      <trkpt lat="44.43051" lon="5.92148">
        <ele>807</ele>
        <time>2019-04-09T11:57:32Z</time>
      </trkpt>
      <trkpt lat="44.43054" lon="5.92146">
        <ele>807</ele>
        <time>2019-04-09T11:57:33Z</time>
      </trkpt>
      <trkpt lat="44.43058" lon="5.92145">
        <ele>807</ele>
        <time>2019-04-09T11:57:34Z</time>
      </trkpt>
      <trkpt lat="44.43061" lon="5.92144">
        <ele>807</ele>
        <time>2019-04-09T11:57:35Z</time>
      </trkpt>
      <trkpt lat="44.43064" lon="5.92143">
        <ele>807</ele>
        <time>2019-04-09T11:57:36Z</time>
      </trkpt>
      <trkpt lat="44.43067" lon="5.92142">
        <ele>808</ele>
        <time>2019-04-09T11:57:37Z</time>
      </trkpt>
      <trkpt lat="44.43071" lon="5.92141">
        <ele>808</ele>
        <time>2019-04-09T11:57:38Z</time>
      </trkpt>
      <trkpt lat="44.43076" lon="5.92141">
        <ele>808</ele>
        <time>2019-04-09T11:57:39Z</time>
      </trkpt>
      <trkpt lat="44.43079" lon="5.9214">
        <ele>809</ele>
        <time>2019-04-09T11:57:40Z</time>
      </trkpt>
      <trkpt lat="44.43082" lon="5.92141">
        <ele>809</ele>
        <time>2019-04-09T11:57:41Z</time>
      </trkpt>
      <trkpt lat="44.43086" lon="5.92141">
        <ele>809</ele>
        <time>2019-04-09T11:57:42Z</time>
      </trkpt>
      <trkpt lat="44.43089" lon="5.92142">
        <ele>810</ele>
        <time>2019-04-09T11:57:43Z</time>
      </trkpt>
      <trkpt lat="44.43093" lon="5.92143">
        <ele>810</ele>
        <time>2019-04-09T11:57:44Z</time>
      </trkpt>
      <trkpt lat="44.43097" lon="5.92144">
        <ele>810</ele>
        <time>2019-04-09T11:57:45Z</time>
      </trkpt>
      <trkpt lat="44.431" lon="5.92146">
        <ele>810</ele>
        <time>2019-04-09T11:57:46Z</time>
      </trkpt>
      <trkpt lat="44.43104" lon="5.92147">
        <ele>810</ele>
        <time>2019-04-09T11:57:47Z</time>
      </trkpt>
      <trkpt lat="44.43108" lon="5.92148">
        <ele>810</ele>
        <time>2019-04-09T11:57:48Z</time>
      </trkpt>
      <trkpt lat="44.43111" lon="5.9215">
        <ele>810</ele>
        <time>2019-04-09T11:57:49Z</time>
      </trkpt>
      <trkpt lat="44.43115" lon="5.92152">
        <ele>810</ele>
        <time>2019-04-09T11:57:50Z</time>
      </trkpt>
      <trkpt lat="44.43119" lon="5.92154">
        <ele>810</ele>
        <time>2019-04-09T11:57:51Z</time>
      </trkpt>
      <trkpt lat="44.43123" lon="5.92156">
        <ele>810</ele>
        <time>2019-04-09T11:57:52Z</time>
      </trkpt>
      <trkpt lat="44.43126" lon="5.92158">
        <ele>810</ele>
        <time>2019-04-09T11:57:53Z</time>
      </trkpt>
      <trkpt lat="44.4313" lon="5.92159">
        <ele>810</ele>
        <time>2019-04-09T11:57:54Z</time>
      </trkpt>
      <trkpt lat="44.43134" lon="5.92161">
        <ele>811</ele>
        <time>2019-04-09T11:57:55Z</time>
      </trkpt>
      <trkpt lat="44.43137" lon="5.92162">
        <ele>811</ele>
        <time>2019-04-09T11:57:56Z</time>
      </trkpt>
      <trkpt lat="44.43141" lon="5.92163">
        <ele>811</ele>
        <time>2019-04-09T11:57:57Z</time>
      </trkpt>
      <trkpt lat="44.43145" lon="5.92163">
        <ele>811</ele>
        <time>2019-04-09T11:57:58Z</time>
      </trkpt>
      <trkpt lat="44.43149" lon="5.92163">
        <ele>811</ele>
        <time>2019-04-09T11:57:59Z</time>
      </trkpt>
      <trkpt lat="44.43153" lon="5.92162">
        <ele>811</ele>
        <time>2019-04-09T11:58:00Z</time>
      </trkpt>
      <trkpt lat="44.43157" lon="5.92161">
        <ele>811</ele>
        <time>2019-04-09T11:58:01Z</time>
      </trkpt>
      <trkpt lat="44.43161" lon="5.9216">
        <ele>811</ele>
        <time>2019-04-09T11:58:02Z</time>
      </trkpt>
      <trkpt lat="44.43165" lon="5.92159">
        <ele>811</ele>
        <time>2019-04-09T11:58:03Z</time>
      </trkpt>
      <trkpt lat="44.43169" lon="5.92157">
        <ele>811</ele>
        <time>2019-04-09T11:58:04Z</time>
      </trkpt>
      <trkpt lat="44.43173" lon="5.92155">
        <ele>811</ele>
        <time>2019-04-09T11:58:05Z</time>
      </trkpt>
      <trkpt lat="44.43177" lon="5.92153">
        <ele>811</ele>
        <time>2019-04-09T11:58:06Z</time>
      </trkpt>
      <trkpt lat="44.43181" lon="5.9215">
        <ele>811</ele>
        <time>2019-04-09T11:58:07Z</time>
      </trkpt>
      <trkpt lat="44.43185" lon="5.92147">
        <ele>811</ele>
        <time>2019-04-09T11:58:08Z</time>
      </trkpt>
      <trkpt lat="44.4319" lon="5.92144">
        <ele>811</ele>
        <time>2019-04-09T11:58:09Z</time>
      </trkpt>
      <trkpt lat="44.43193" lon="5.9214">
        <ele>811</ele>
        <time>2019-04-09T11:58:10Z</time>
      </trkpt>
      <trkpt lat="44.43198" lon="5.92136">
        <ele>811</ele>
        <time>2019-04-09T11:58:11Z</time>
      </trkpt>
      <trkpt lat="44.43201" lon="5.92132">
        <ele>811</ele>
        <time>2019-04-09T11:58:12Z</time>
      </trkpt>
      <trkpt lat="44.43205" lon="5.92128">
        <ele>811</ele>
        <time>2019-04-09T11:58:13Z</time>
      </trkpt>
      <trkpt lat="44.43209" lon="5.92123">
        <ele>811</ele>
        <time>2019-04-09T11:58:14Z</time>
      </trkpt>
      <trkpt lat="44.43213" lon="5.92118">
        <ele>811</ele>
        <time>2019-04-09T11:58:15Z</time>
      </trkpt>
      <trkpt lat="44.43217" lon="5.92113">
        <ele>811</ele>
        <time>2019-04-09T11:58:16Z</time>
      </trkpt>
      <trkpt lat="44.43221" lon="5.92107">
        <ele>811</ele>
        <time>2019-04-09T11:58:17Z</time>
      </trkpt>
      <trkpt lat="44.43225" lon="5.92102">
        <ele>811</ele>
        <time>2019-04-09T11:58:18Z</time>
      </trkpt>
      <trkpt lat="44.43229" lon="5.92097">
        <ele>811</ele>
        <time>2019-04-09T11:58:19Z</time>
      </trkpt>
      <trkpt lat="44.43232" lon="5.92091">
        <ele>811</ele>
        <time>2019-04-09T11:58:20Z</time>
      </trkpt>
      <trkpt lat="44.43235" lon="5.92086">
        <ele>811</ele>
        <time>2019-04-09T11:58:21Z</time>
      </trkpt>
      <trkpt lat="44.43239" lon="5.9208">
        <ele>811</ele>
        <time>2019-04-09T11:58:22Z</time>
      </trkpt>
      <trkpt lat="44.43242" lon="5.92074">
        <ele>811</ele>
        <time>2019-04-09T11:58:23Z</time>
      </trkpt>
      <trkpt lat="44.43245" lon="5.92069">
        <ele>811</ele>
        <time>2019-04-09T11:58:24Z</time>
      </trkpt>
      <trkpt lat="44.43248" lon="5.92064">
        <ele>811</ele>
        <time>2019-04-09T11:58:25Z</time>
      </trkpt>
      <trkpt lat="44.43251" lon="5.9206">
        <ele>811</ele>
        <time>2019-04-09T11:58:26Z</time>
      </trkpt>
      <trkpt lat="44.43254" lon="5.92055">
        <ele>811</ele>
        <time>2019-04-09T11:58:27Z</time>
      </trkpt>
      <trkpt lat="44.43257" lon="5.92049">
        <ele>811</ele>
        <time>2019-04-09T11:58:28Z</time>
      </trkpt>
      <trkpt lat="44.4326" lon="5.92045">
        <ele>811</ele>
        <time>2019-04-09T11:58:29Z</time>
      </trkpt>
      <trkpt lat="44.43263" lon="5.9204">
        <ele>812</ele>
        <time>2019-04-09T11:58:30Z</time>
      </trkpt>
      <trkpt lat="44.43266" lon="5.92035">
        <ele>812</ele>
        <time>2019-04-09T11:58:31Z</time>
      </trkpt>
      <trkpt lat="44.43269" lon="5.9203">
        <ele>812</ele>
        <time>2019-04-09T11:58:32Z</time>
      </trkpt>
      <trkpt lat="44.43272" lon="5.92026">
        <ele>812</ele>
        <time>2019-04-09T11:58:33Z</time>
      </trkpt>
      <trkpt lat="44.43275" lon="5.92021">
        <ele>812</ele>
        <time>2019-04-09T11:58:34Z</time>
      </trkpt>
      <trkpt lat="44.43278" lon="5.92016">
        <ele>812</ele>
        <time>2019-04-09T11:58:35Z</time>
      </trkpt>
      <trkpt lat="44.43281" lon="5.92011">
        <ele>812</ele>
        <time>2019-04-09T11:58:36Z</time>
      </trkpt>
      <trkpt lat="44.43284" lon="5.92006">
        <ele>812</ele>
        <time>2019-04-09T11:58:37Z</time>
      </trkpt>
      <trkpt lat="44.43287" lon="5.92">
        <ele>812</ele>
        <time>2019-04-09T11:58:38Z</time>
      </trkpt>
      <trkpt lat="44.4329" lon="5.91995">
        <ele>812</ele>
        <time>2019-04-09T11:58:39Z</time>
      </trkpt>
      <trkpt lat="44.43294" lon="5.9199">
        <ele>812</ele>
        <time>2019-04-09T11:58:40Z</time>
      </trkpt>
      <trkpt lat="44.43298" lon="5.91984">
        <ele>812</ele>
        <time>2019-04-09T11:58:41Z</time>
      </trkpt>
      <trkpt lat="44.43301" lon="5.91978">
        <ele>812</ele>
        <time>2019-04-09T11:58:42Z</time>
      </trkpt>
      <trkpt lat="44.43305" lon="5.91973">
        <ele>812</ele>
        <time>2019-04-09T11:58:43Z</time>
      </trkpt>
      <trkpt lat="44.43309" lon="5.91968">
        <ele>812</ele>
        <time>2019-04-09T11:58:44Z</time>
      </trkpt>
      <trkpt lat="44.43313" lon="5.91962">
        <ele>812</ele>
        <time>2019-04-09T11:58:45Z</time>
      </trkpt>
      <trkpt lat="44.43317" lon="5.91957">
        <ele>812</ele>
        <time>2019-04-09T11:58:46Z</time>
      </trkpt>
      <trkpt lat="44.43322" lon="5.91952">
        <ele>812</ele>
        <time>2019-04-09T11:58:47Z</time>
      </trkpt>
      <trkpt lat="44.43326" lon="5.91948">
        <ele>812</ele>
        <time>2019-04-09T11:58:48Z</time>
      </trkpt>
      <trkpt lat="44.43331" lon="5.91945">
        <ele>812</ele>
        <time>2019-04-09T11:58:49Z</time>
      </trkpt>
      <trkpt lat="44.43335" lon="5.91944">
        <ele>812</ele>
        <time>2019-04-09T11:58:50Z</time>
      </trkpt>
      <trkpt lat="44.4334" lon="5.91945">
        <ele>812</ele>
        <time>2019-04-09T11:58:51Z</time>
      </trkpt>
      <trkpt lat="44.43344" lon="5.91948">
        <ele>812</ele>
        <time>2019-04-09T11:58:52Z</time>
      </trkpt>
      <trkpt lat="44.43347" lon="5.91953">
        <ele>812</ele>
        <time>2019-04-09T11:58:53Z</time>
      </trkpt>
      <trkpt lat="44.4335" lon="5.91958">
        <ele>812</ele>
        <time>2019-04-09T11:58:54Z</time>
      </trkpt>
      <trkpt lat="44.43353" lon="5.91963">
        <ele>813</ele>
        <time>2019-04-09T11:58:55Z</time>
      </trkpt>
      <trkpt lat="44.43356" lon="5.91967">
        <ele>813</ele>
        <time>2019-04-09T11:58:56Z</time>
      </trkpt>
      <trkpt lat="44.43359" lon="5.91971">
        <ele>813</ele>
        <time>2019-04-09T11:58:57Z</time>
      </trkpt>
      <trkpt lat="44.43362" lon="5.91975">
        <ele>813</ele>
        <time>2019-04-09T11:58:58Z</time>
      </trkpt>
      <trkpt lat="44.43367" lon="5.91976">
        <ele>813</ele>
        <time>2019-04-09T11:58:59Z</time>
      </trkpt>
      <trkpt lat="44.43371" lon="5.91978">
        <ele>813</ele>
        <time>2019-04-09T11:59:00Z</time>
      </trkpt>
      <trkpt lat="44.43375" lon="5.91978">
        <ele>813</ele>
        <time>2019-04-09T11:59:01Z</time>
      </trkpt>
      <trkpt lat="44.4338" lon="5.91976">
        <ele>813</ele>
        <time>2019-04-09T11:59:02Z</time>
      </trkpt>
      <trkpt lat="44.43384" lon="5.91975">
        <ele>813</ele>
        <time>2019-04-09T11:59:03Z</time>
      </trkpt>
      <trkpt lat="44.43387" lon="5.91973">
        <ele>813</ele>
        <time>2019-04-09T11:59:04Z</time>
      </trkpt>
      <trkpt lat="44.43391" lon="5.91971">
        <ele>813</ele>
        <time>2019-04-09T11:59:05Z</time>
      </trkpt>
      <trkpt lat="44.43395" lon="5.91969">
        <ele>813</ele>
        <time>2019-04-09T11:59:06Z</time>
      </trkpt>
      <trkpt lat="44.43399" lon="5.91966">
        <ele>813</ele>
        <time>2019-04-09T11:59:07Z</time>
      </trkpt>
      <trkpt lat="44.43403" lon="5.91964">
        <ele>813</ele>
        <time>2019-04-09T11:59:08Z</time>
      </trkpt>
      <trkpt lat="44.43406" lon="5.91962">
        <ele>813</ele>
        <time>2019-04-09T11:59:09Z</time>
      </trkpt>
      <trkpt lat="44.4341" lon="5.9196">
        <ele>813</ele>
        <time>2019-04-09T11:59:10Z</time>
      </trkpt>
      <trkpt lat="44.43413" lon="5.91958">
        <ele>813</ele>
        <time>2019-04-09T11:59:11Z</time>
      </trkpt>
      <trkpt lat="44.43416" lon="5.91956">
        <ele>814</ele>
        <time>2019-04-09T11:59:12Z</time>
      </trkpt>
      <trkpt lat="44.43419" lon="5.91954">
        <ele>814</ele>
        <time>2019-04-09T11:59:13Z</time>
      </trkpt>
      <trkpt lat="44.43422" lon="5.91952">
        <ele>814</ele>
        <time>2019-04-09T11:59:14Z</time>
      </trkpt>
      <trkpt lat="44.43426" lon="5.9195">
        <ele>814</ele>
        <time>2019-04-09T11:59:15Z</time>
      </trkpt>
      <trkpt lat="44.43429" lon="5.91948">
        <ele>815</ele>
        <time>2019-04-09T11:59:16Z</time>
      </trkpt>
      <trkpt lat="44.43433" lon="5.91946">
        <ele>815</ele>
        <time>2019-04-09T11:59:17Z</time>
      </trkpt>
      <trkpt lat="44.43436" lon="5.91944">
        <ele>815</ele>
        <time>2019-04-09T11:59:18Z</time>
      </trkpt>
      <trkpt lat="44.43438" lon="5.91943">
        <ele>815</ele>
        <time>2019-04-09T11:59:19Z</time>
      </trkpt>
      <trkpt lat="44.43441" lon="5.91942">
        <ele>815</ele>
        <time>2019-04-09T11:59:20Z</time>
      </trkpt>
      <trkpt lat="44.43444" lon="5.91941">
        <ele>816</ele>
        <time>2019-04-09T11:59:21Z</time>
      </trkpt>
      <trkpt lat="44.43446" lon="5.9194">
        <ele>816</ele>
        <time>2019-04-09T11:59:22Z</time>
      </trkpt>
      <trkpt lat="44.43447" lon="5.91939">
        <ele>817</ele>
        <time>2019-04-09T11:59:23Z</time>
      </trkpt>
      <trkpt lat="44.43449" lon="5.91938">
        <ele>818</ele>
        <time>2019-04-09T11:59:27Z</time>
      </trkpt>
      <trkpt lat="44.43447" lon="5.91937">
        <ele>819</ele>
        <time>2019-04-09T11:59:37Z</time>
      </trkpt>
      <trkpt lat="44.43446" lon="5.91937">
        <ele>820</ele>
        <time>2019-04-09T11:59:40Z</time>
      </trkpt>
      <trkpt lat="44.43444" lon="5.91937">
        <ele>821</ele>
        <time>2019-04-09T11:59:44Z</time>
      </trkpt>
      <trkpt lat="44.43446" lon="5.91936">
        <ele>823</ele>
        <time>2019-04-09T11:59:56Z</time>
      </trkpt>
      <trkpt lat="44.43444" lon="5.91935">
        <ele>823</ele>
        <time>2019-04-09T12:00:04Z</time>
      </trkpt>
      <trkpt lat="44.43443" lon="5.91934">
        <ele>823</ele>
        <time>2019-04-09T12:00:16Z</time>
      </trkpt>
      <trkpt lat="44.43442" lon="5.91934">
        <ele>821</ele>
        <time>2019-04-09T12:00:25Z</time>
      </trkpt>
      <trkpt lat="44.43443" lon="5.91934">
        <ele>821</ele>
        <time>2019-04-09T12:00:40Z</time>
      </trkpt>
      <trkpt lat="44.43442" lon="5.91934">
        <ele>821</ele>
        <time>2019-04-09T12:00:43Z</time>
      </trkpt>
      <trkpt lat="44.43443" lon="5.91932">
        <ele>823</ele>
        <time>2019-04-09T12:00:51Z</time>
      </trkpt>
      <trkpt lat="44.43446" lon="5.91931">
        <ele>823</ele>
        <time>2019-04-09T12:00:53Z</time>
      </trkpt>
      <trkpt lat="44.43447" lon="5.91932">
        <ele>825</ele>
        <time>2019-04-09T12:00:55Z</time>
      </trkpt>
      <trkpt lat="44.43449" lon="5.91933">
        <ele>827</ele>
        <time>2019-04-09T12:01:00Z</time>
      </trkpt>
      <trkpt lat="44.4345" lon="5.91933">
        <ele>827</ele>
        <time>2019-04-09T12:01:02Z</time>
      </trkpt>
      <trkpt lat="44.43451" lon="5.91934">
        <ele>831</ele>
        <time>2019-04-09T12:01:08Z</time>
      </trkpt>
      <trkpt lat="44.43453" lon="5.91934">
        <ele>833</ele>
        <time>2019-04-09T12:01:11Z</time>
      </trkpt>
      <trkpt lat="44.43454" lon="5.91934">
        <ele>834</ele>
        <time>2019-04-09T12:01:12Z</time>
      </trkpt>
      <trkpt lat="44.43452" lon="5.91933">
        <ele>837</ele>
        <time>2019-04-09T12:01:24Z</time>
      </trkpt>
      <trkpt lat="44.43451" lon="5.91933">
        <ele>837</ele>
        <time>2019-04-09T12:01:26Z</time>
      </trkpt>
      <trkpt lat="44.4345" lon="5.91934">
        <ele>837</ele>
        <time>2019-04-09T12:01:28Z</time>
      </trkpt>
      <trkpt lat="44.43449" lon="5.91934">
        <ele>836</ele>
        <time>2019-04-09T12:01:31Z</time>
      </trkpt>
      <trkpt lat="44.43447" lon="5.91935">
        <ele>832</ele>
        <time>2019-04-09T12:01:42Z</time>
      </trkpt>
      <trkpt lat="44.43449" lon="5.91936">
        <ele>828</ele>
        <time>2019-04-09T12:01:56Z</time>
      </trkpt>
      <trkpt lat="44.43449" lon="5.91938">
        <ele>827</ele>
        <time>2019-04-09T12:02:24Z</time>
      </trkpt>
      <trkpt lat="44.43451" lon="5.91939">
        <ele>827</ele>
        <time>2019-04-09T12:03:05Z</time>
      </trkpt>
      <trkpt lat="44.43453" lon="5.9194">
        <ele>826</ele>
        <time>2019-04-09T12:03:07Z</time>
      </trkpt>
      <trkpt lat="44.43454" lon="5.91941">
        <ele>826</ele>
        <time>2019-04-09T12:03:08Z</time>
      </trkpt>
      <trkpt lat="44.43456" lon="5.91941">
        <ele>826</ele>
        <time>2019-04-09T12:03:09Z</time>
      </trkpt>
      <trkpt lat="44.43459" lon="5.91942">
        <ele>825</ele>
        <time>2019-04-09T12:03:10Z</time>
      </trkpt>
      <trkpt lat="44.43462" lon="5.91943">
        <ele>825</ele>
        <time>2019-04-09T12:03:11Z</time>
      </trkpt>
      <trkpt lat="44.43466" lon="5.91944">
        <ele>825</ele>
        <time>2019-04-09T12:03:12Z</time>
      </trkpt>
      <trkpt lat="44.4347" lon="5.91945">
        <ele>824</ele>
        <time>2019-04-09T12:03:13Z</time>
      </trkpt>
      <trkpt lat="44.43475" lon="5.91947">
        <ele>824</ele>
        <time>2019-04-09T12:03:14Z</time>
      </trkpt>
      <trkpt lat="44.4348" lon="5.91948">
        <ele>824</ele>
        <time>2019-04-09T12:03:15Z</time>
      </trkpt>
      <trkpt lat="44.43485" lon="5.91948">
        <ele>823</ele>
        <time>2019-04-09T12:03:16Z</time>
      </trkpt>
      <trkpt lat="44.43491" lon="5.91948">
        <ele>823</ele>
        <time>2019-04-09T12:03:17Z</time>
      </trkpt>
      <trkpt lat="44.43496" lon="5.91945">
        <ele>822</ele>
        <time>2019-04-09T12:03:18Z</time>
      </trkpt>
      <trkpt lat="44.43501" lon="5.91939">
        <ele>822</ele>
        <time>2019-04-09T12:03:19Z</time>
      </trkpt>
      <trkpt lat="44.43507" lon="5.91934">
        <ele>822</ele>
        <time>2019-04-09T12:03:20Z</time>
      </trkpt>
      <trkpt lat="44.43512" lon="5.91929">
        <ele>821</ele>
        <time>2019-04-09T12:03:21Z</time>
      </trkpt>
      <trkpt lat="44.43517" lon="5.91924">
        <ele>821</ele>
        <time>2019-04-09T12:03:22Z</time>
      </trkpt>
      <trkpt lat="44.43523" lon="5.9192">
        <ele>820</ele>
        <time>2019-04-09T12:03:23Z</time>
      </trkpt>
      <trkpt lat="44.4353" lon="5.91917">
        <ele>819</ele>
        <time>2019-04-09T12:03:24Z</time>
      </trkpt>
      <trkpt lat="44.43537" lon="5.91915">
        <ele>819</ele>
        <time>2019-04-09T12:03:25Z</time>
      </trkpt>
      <trkpt lat="44.43545" lon="5.91913">
        <ele>818</ele>
        <time>2019-04-09T12:03:26Z</time>
      </trkpt>
      <trkpt lat="44.43551" lon="5.91913">
        <ele>817</ele>
        <time>2019-04-09T12:03:27Z</time>
      </trkpt>
      <trkpt lat="44.43558" lon="5.91916">
        <ele>816</ele>
        <time>2019-04-09T12:03:28Z</time>
      </trkpt>
      <trkpt lat="44.43563" lon="5.91922">
        <ele>816</ele>
        <time>2019-04-09T12:03:29Z</time>
      </trkpt>
      <trkpt lat="44.43567" lon="5.91929">
        <ele>815</ele>
        <time>2019-04-09T12:03:30Z</time>
      </trkpt>
      <trkpt lat="44.43571" lon="5.91938">
        <ele>814</ele>
        <time>2019-04-09T12:03:31Z</time>
      </trkpt>
      <trkpt lat="44.43576" lon="5.91946">
        <ele>813</ele>
        <time>2019-04-09T12:03:32Z</time>
      </trkpt>
      <trkpt lat="44.43581" lon="5.91955">
        <ele>813</ele>
        <time>2019-04-09T12:03:33Z</time>
      </trkpt>
      <trkpt lat="44.43586" lon="5.91964">
        <ele>812</ele>
        <time>2019-04-09T12:03:34Z</time>
      </trkpt>
      <trkpt lat="44.43592" lon="5.91974">
        <ele>811</ele>
        <time>2019-04-09T12:03:35Z</time>
      </trkpt>
      <trkpt lat="44.43598" lon="5.91983">
        <ele>810</ele>
        <time>2019-04-09T12:03:36Z</time>
      </trkpt>
      <trkpt lat="44.43604" lon="5.91992">
        <ele>809</ele>
        <time>2019-04-09T12:03:37Z</time>
      </trkpt>
      <trkpt lat="44.43609" lon="5.92">
        <ele>808</ele>
        <time>2019-04-09T12:03:38Z</time>
      </trkpt>
      <trkpt lat="44.43614" lon="5.92008">
        <ele>807</ele>
        <time>2019-04-09T12:03:39Z</time>
      </trkpt>
      <trkpt lat="44.4362" lon="5.92015">
        <ele>807</ele>
        <time>2019-04-09T12:03:40Z</time>
      </trkpt>
      <trkpt lat="44.43627" lon="5.9202">
        <ele>806</ele>
        <time>2019-04-09T12:03:41Z</time>
      </trkpt>
      <trkpt lat="44.43634" lon="5.92025">
        <ele>805</ele>
        <time>2019-04-09T12:03:42Z</time>
      </trkpt>
      <trkpt lat="44.43641" lon="5.92028">
        <ele>805</ele>
        <time>2019-04-09T12:03:43Z</time>
      </trkpt>
      <trkpt lat="44.43649" lon="5.92031">
        <ele>804</ele>
        <time>2019-04-09T12:03:44Z</time>
      </trkpt>
      <trkpt lat="44.43656" lon="5.92033">
        <ele>803</ele>
        <time>2019-04-09T12:03:45Z</time>
      </trkpt>
      <trkpt lat="44.43664" lon="5.92036">
        <ele>803</ele>
        <time>2019-04-09T12:03:46Z</time>
      </trkpt>
      <trkpt lat="44.43671" lon="5.92037">
        <ele>802</ele>
        <time>2019-04-09T12:03:47Z</time>
      </trkpt>
      <trkpt lat="44.43679" lon="5.92039">
        <ele>802</ele>
        <time>2019-04-09T12:03:48Z</time>
      </trkpt>
      <trkpt lat="44.43687" lon="5.92038">
        <ele>801</ele>
        <time>2019-04-09T12:03:49Z</time>
      </trkpt>
      <trkpt lat="44.43694" lon="5.92037">
        <ele>800</ele>
        <time>2019-04-09T12:03:50Z</time>
      </trkpt>
      <trkpt lat="44.437" lon="5.92034">
        <ele>800</ele>
        <time>2019-04-09T12:03:51Z</time>
      </trkpt>
      <trkpt lat="44.43707" lon="5.9203">
        <ele>799</ele>
        <time>2019-04-09T12:03:52Z</time>
      </trkpt>
      <trkpt lat="44.43713" lon="5.92027">
        <ele>798</ele>
        <time>2019-04-09T12:03:53Z</time>
      </trkpt>
      <trkpt lat="44.4372" lon="5.92023">
        <ele>797</ele>
        <time>2019-04-09T12:03:54Z</time>
      </trkpt>
      <trkpt lat="44.43726" lon="5.92018">
        <ele>796</ele>
        <time>2019-04-09T12:03:55Z</time>
      </trkpt>
      <trkpt lat="44.43731" lon="5.92012">
        <ele>795</ele>
        <time>2019-04-09T12:03:56Z</time>
      </trkpt>
      <trkpt lat="44.43736" lon="5.92005">
        <ele>795</ele>
        <time>2019-04-09T12:03:57Z</time>
      </trkpt>
      <trkpt lat="44.43741" lon="5.91998">
        <ele>794</ele>
        <time>2019-04-09T12:03:58Z</time>
      </trkpt>
      <trkpt lat="44.43746" lon="5.91993">
        <ele>794</ele>
        <time>2019-04-09T12:03:59Z</time>
      </trkpt>
      <trkpt lat="44.43751" lon="5.91991">
        <ele>793</ele>
        <time>2019-04-09T12:04:00Z</time>
      </trkpt>
      <trkpt lat="44.43758" lon="5.91992">
        <ele>793</ele>
        <time>2019-04-09T12:04:01Z</time>
      </trkpt>
      <trkpt lat="44.43763" lon="5.91997">
        <ele>792</ele>
        <time>2019-04-09T12:04:02Z</time>
      </trkpt>
      <trkpt lat="44.43768" lon="5.92005">
        <ele>792</ele>
        <time>2019-04-09T12:04:03Z</time>
      </trkpt>
      <trkpt lat="44.43771" lon="5.92015">
        <ele>791</ele>
        <time>2019-04-09T12:04:04Z</time>
      </trkpt>
      <trkpt lat="44.43774" lon="5.92025">
        <ele>790</ele>
        <time>2019-04-09T12:04:05Z</time>
      </trkpt>
      <trkpt lat="44.43778" lon="5.92034">
        <ele>789</ele>
        <time>2019-04-09T12:04:06Z</time>
      </trkpt>
      <trkpt lat="44.43783" lon="5.92041">
        <ele>789</ele>
        <time>2019-04-09T12:04:07Z</time>
      </trkpt>
      <trkpt lat="44.43789" lon="5.92045">
        <ele>788</ele>
        <time>2019-04-09T12:04:08Z</time>
      </trkpt>
      <trkpt lat="44.43797" lon="5.92046">
        <ele>787</ele>
        <time>2019-04-09T12:04:09Z</time>
      </trkpt>
      <trkpt lat="44.43803" lon="5.92043">
        <ele>786</ele>
        <time>2019-04-09T12:04:10Z</time>
      </trkpt>
      <trkpt lat="44.4381" lon="5.92039">
        <ele>785</ele>
        <time>2019-04-09T12:04:11Z</time>
      </trkpt>
      <trkpt lat="44.43815" lon="5.92035">
        <ele>785</ele>
        <time>2019-04-09T12:04:12Z</time>
      </trkpt>
      <trkpt lat="44.4382" lon="5.92032">
        <ele>784</ele>
        <time>2019-04-09T12:04:13Z</time>
      </trkpt>
      <trkpt lat="44.43825" lon="5.9203">
        <ele>784</ele>
        <time>2019-04-09T12:04:14Z</time>
      </trkpt>
      <trkpt lat="44.43829" lon="5.9203">
        <ele>783</ele>
        <time>2019-04-09T12:04:15Z</time>
      </trkpt>
      <trkpt lat="44.43834" lon="5.92033">
        <ele>783</ele>
        <time>2019-04-09T12:04:16Z</time>
      </trkpt>
      <trkpt lat="44.43837" lon="5.9204">
        <ele>783</ele>
        <time>2019-04-09T12:04:17Z</time>
      </trkpt>
      <trkpt lat="44.43836" lon="5.92049">
        <ele>782</ele>
        <time>2019-04-09T12:04:18Z</time>
      </trkpt>
      <trkpt lat="44.43833" lon="5.92058">
        <ele>782</ele>
        <time>2019-04-09T12:04:19Z</time>
      </trkpt>
      <trkpt lat="44.43828" lon="5.92066">
        <ele>781</ele>
        <time>2019-04-09T12:04:20Z</time>
      </trkpt>
      <trkpt lat="44.43822" lon="5.92074">
        <ele>781</ele>
        <time>2019-04-09T12:04:21Z</time>
      </trkpt>
      <trkpt lat="44.43817" lon="5.92084">
        <ele>780</ele>
        <time>2019-04-09T12:04:22Z</time>
      </trkpt>
      <trkpt lat="44.43813" lon="5.92093">
        <ele>779</ele>
        <time>2019-04-09T12:04:23Z</time>
      </trkpt>
      <trkpt lat="44.43809" lon="5.92103">
        <ele>778</ele>
        <time>2019-04-09T12:04:24Z</time>
      </trkpt>
      <trkpt lat="44.43807" lon="5.92114">
        <ele>778</ele>
        <time>2019-04-09T12:04:25Z</time>
      </trkpt>
      <trkpt lat="44.43805" lon="5.92125">
        <ele>777</ele>
        <time>2019-04-09T12:04:26Z</time>
      </trkpt>
      <trkpt lat="44.43805" lon="5.92137">
        <ele>776</ele>
        <time>2019-04-09T12:04:27Z</time>
      </trkpt>
      <trkpt lat="44.43805" lon="5.92148">
        <ele>775</ele>
        <time>2019-04-09T12:04:28Z</time>
      </trkpt>
      <trkpt lat="44.43805" lon="5.92159">
        <ele>774</ele>
        <time>2019-04-09T12:04:29Z</time>
      </trkpt>
      <trkpt lat="44.43805" lon="5.92168">
        <ele>774</ele>
        <time>2019-04-09T12:04:30Z</time>
      </trkpt>
      <trkpt lat="44.43806" lon="5.92177">
        <ele>773</ele>
        <time>2019-04-09T12:04:31Z</time>
      </trkpt>
      <trkpt lat="44.43809" lon="5.92184">
        <ele>773</ele>
        <time>2019-04-09T12:04:32Z</time>
      </trkpt>
      <trkpt lat="44.43812" lon="5.9219">
        <ele>772</ele>
        <time>2019-04-09T12:04:33Z</time>
      </trkpt>
      <trkpt lat="44.43816" lon="5.92193">
        <ele>772</ele>
        <time>2019-04-09T12:04:34Z</time>
      </trkpt>
      <trkpt lat="44.43821" lon="5.92193">
        <ele>772</ele>
        <time>2019-04-09T12:04:35Z</time>
      </trkpt>
      <trkpt lat="44.43825" lon="5.92192">
        <ele>771</ele>
        <time>2019-04-09T12:04:36Z</time>
      </trkpt>
      <trkpt lat="44.4383" lon="5.92188">
        <ele>771</ele>
        <time>2019-04-09T12:04:37Z</time>
      </trkpt>
      <trkpt lat="44.43835" lon="5.92185">
        <ele>771</ele>
        <time>2019-04-09T12:04:38Z</time>
      </trkpt>
      <trkpt lat="44.4384" lon="5.92182">
        <ele>771</ele>
        <time>2019-04-09T12:04:39Z</time>
      </trkpt>
      <trkpt lat="44.43846" lon="5.9218">
        <ele>770</ele>
        <time>2019-04-09T12:04:40Z</time>
      </trkpt>
      <trkpt lat="44.43852" lon="5.92179">
        <ele>770</ele>
        <time>2019-04-09T12:04:41Z</time>
      </trkpt>
      <trkpt lat="44.43857" lon="5.9218">
        <ele>770</ele>
        <time>2019-04-09T12:04:42Z</time>
      </trkpt>
      <trkpt lat="44.43863" lon="5.92182">
        <ele>769</ele>
        <time>2019-04-09T12:04:43Z</time>
      </trkpt>
      <trkpt lat="44.43869" lon="5.92184">
        <ele>768</ele>
        <time>2019-04-09T12:04:44Z</time>
      </trkpt>
      <trkpt lat="44.43875" lon="5.92186">
        <ele>768</ele>
        <time>2019-04-09T12:04:45Z</time>
      </trkpt>
      <trkpt lat="44.43882" lon="5.92188">
        <ele>767</ele>
        <time>2019-04-09T12:04:46Z</time>
      </trkpt>
      <trkpt lat="44.43888" lon="5.9219">
        <ele>767</ele>
        <time>2019-04-09T12:04:47Z</time>
      </trkpt>
      <trkpt lat="44.43893" lon="5.92194">
        <ele>766</ele>
        <time>2019-04-09T12:04:48Z</time>
      </trkpt>
      <trkpt lat="44.43896" lon="5.92198">
        <ele>766</ele>
        <time>2019-04-09T12:04:49Z</time>
      </trkpt>
      <trkpt lat="44.43899" lon="5.92205">
        <ele>766</ele>
        <time>2019-04-09T12:04:50Z</time>
      </trkpt>
      <trkpt lat="44.43899" lon="5.92212">
        <ele>765</ele>
        <time>2019-04-09T12:04:51Z</time>
      </trkpt>
      <trkpt lat="44.43898" lon="5.92218">
        <ele>765</ele>
        <time>2019-04-09T12:04:52Z</time>
      </trkpt>
      <trkpt lat="44.43894" lon="5.92225">
        <ele>765</ele>
        <time>2019-04-09T12:04:53Z</time>
      </trkpt>
      <trkpt lat="44.4389" lon="5.9223">
        <ele>765</ele>
        <time>2019-04-09T12:04:54Z</time>
      </trkpt>
      <trkpt lat="44.43886" lon="5.92236">
        <ele>765</ele>
        <time>2019-04-09T12:04:55Z</time>
      </trkpt>
      <trkpt lat="44.43882" lon="5.92242">
        <ele>765</ele>
        <time>2019-04-09T12:04:56Z</time>
      </trkpt>
      <trkpt lat="44.43877" lon="5.92247">
        <ele>765</ele>
        <time>2019-04-09T12:04:57Z</time>
      </trkpt>
      <trkpt lat="44.43873" lon="5.92252">
        <ele>765</ele>
        <time>2019-04-09T12:04:58Z</time>
      </trkpt>
      <trkpt lat="44.43869" lon="5.92256">
        <ele>765</ele>
        <time>2019-04-09T12:04:59Z</time>
      </trkpt>
      <trkpt lat="44.43865" lon="5.92261">
        <ele>765</ele>
        <time>2019-04-09T12:05:00Z</time>
      </trkpt>
      <trkpt lat="44.43862" lon="5.92265">
        <ele>765</ele>
        <time>2019-04-09T12:05:01Z</time>
      </trkpt>
      <trkpt lat="44.43859" lon="5.9227">
        <ele>765</ele>
        <time>2019-04-09T12:05:02Z</time>
      </trkpt>
      <trkpt lat="44.43856" lon="5.92274">
        <ele>765</ele>
        <time>2019-04-09T12:05:03Z</time>
      </trkpt>
      <trkpt lat="44.43853" lon="5.92278">
        <ele>765</ele>
        <time>2019-04-09T12:05:04Z</time>
      </trkpt>
      <trkpt lat="44.4385" lon="5.92281">
        <ele>765</ele>
        <time>2019-04-09T12:05:05Z</time>
      </trkpt>
      <trkpt lat="44.43847" lon="5.92285">
        <ele>765</ele>
        <time>2019-04-09T12:05:06Z</time>
      </trkpt>
      <trkpt lat="44.43845" lon="5.92288">
        <ele>765</ele>
        <time>2019-04-09T12:05:07Z</time>
      </trkpt>
      <trkpt lat="44.43842" lon="5.92292">
        <ele>765</ele>
        <time>2019-04-09T12:05:08Z</time>
      </trkpt>
      <trkpt lat="44.43839" lon="5.92294">
        <ele>765</ele>
        <time>2019-04-09T12:05:09Z</time>
      </trkpt>
      <trkpt lat="44.43835" lon="5.92297">
        <ele>765</ele>
        <time>2019-04-09T12:05:10Z</time>
      </trkpt>
      <trkpt lat="44.43832" lon="5.92299">
        <ele>765</ele>
        <time>2019-04-09T12:05:11Z</time>
      </trkpt>
      <trkpt lat="44.43829" lon="5.92301">
        <ele>765</ele>
        <time>2019-04-09T12:05:12Z</time>
      </trkpt>
      <trkpt lat="44.43826" lon="5.92303">
        <ele>765</ele>
        <time>2019-04-09T12:05:13Z</time>
      </trkpt>
      <trkpt lat="44.43823" lon="5.92305">
        <ele>765</ele>
        <time>2019-04-09T12:05:14Z</time>
      </trkpt>
      <trkpt lat="44.4382" lon="5.92307">
        <ele>765</ele>
        <time>2019-04-09T12:05:15Z</time>
      </trkpt>
      <trkpt lat="44.43816" lon="5.92309">
        <ele>765</ele>
        <time>2019-04-09T12:05:16Z</time>
      </trkpt>
      <trkpt lat="44.43813" lon="5.92311">
        <ele>765</ele>
        <time>2019-04-09T12:05:17Z</time>
      </trkpt>
      <trkpt lat="44.43808" lon="5.92313">
        <ele>765</ele>
        <time>2019-04-09T12:05:18Z</time>
      </trkpt>
      <trkpt lat="44.43805" lon="5.92315">
        <ele>765</ele>
        <time>2019-04-09T12:05:19Z</time>
      </trkpt>
      <trkpt lat="44.43801" lon="5.92318">
        <ele>765</ele>
        <time>2019-04-09T12:05:20Z</time>
      </trkpt>
      <trkpt lat="44.43798" lon="5.92321">
        <ele>765</ele>
        <time>2019-04-09T12:05:21Z</time>
      </trkpt>
      <trkpt lat="44.43795" lon="5.92325">
        <ele>765</ele>
        <time>2019-04-09T12:05:22Z</time>
      </trkpt>
      <trkpt lat="44.43792" lon="5.92329">
        <ele>766</ele>
        <time>2019-04-09T12:05:23Z</time>
      </trkpt>
      <trkpt lat="44.43789" lon="5.92333">
        <ele>766</ele>
        <time>2019-04-09T12:05:24Z</time>
      </trkpt>
      <trkpt lat="44.43787" lon="5.92338">
        <ele>767</ele>
        <time>2019-04-09T12:05:25Z</time>
      </trkpt>
      <trkpt lat="44.43785" lon="5.92343">
        <ele>767</ele>
        <time>2019-04-09T12:05:26Z</time>
      </trkpt>
      <trkpt lat="44.43783" lon="5.92347">
        <ele>767</ele>
        <time>2019-04-09T12:05:27Z</time>
      </trkpt>
      <trkpt lat="44.43781" lon="5.92352">
        <ele>768</ele>
        <time>2019-04-09T12:05:28Z</time>
      </trkpt>
      <trkpt lat="44.43778" lon="5.92356">
        <ele>768</ele>
        <time>2019-04-09T12:05:29Z</time>
      </trkpt>
      <trkpt lat="44.43775" lon="5.9236">
        <ele>768</ele>
        <time>2019-04-09T12:05:30Z</time>
      </trkpt>
      <trkpt lat="44.43772" lon="5.92363">
        <ele>768</ele>
        <time>2019-04-09T12:05:31Z</time>
      </trkpt>
      <trkpt lat="44.43768" lon="5.92364">
        <ele>768</ele>
        <time>2019-04-09T12:05:32Z</time>
      </trkpt>
      <trkpt lat="44.43763" lon="5.92364">
        <ele>769</ele>
        <time>2019-04-09T12:05:33Z</time>
      </trkpt>
      <trkpt lat="44.4376" lon="5.92362">
        <ele>769</ele>
        <time>2019-04-09T12:05:34Z</time>
      </trkpt>
      <trkpt lat="44.43756" lon="5.92361">
        <ele>769</ele>
        <time>2019-04-09T12:05:35Z</time>
      </trkpt>
      <trkpt lat="44.43752" lon="5.92359">
        <ele>769</ele>
        <time>2019-04-09T12:05:36Z</time>
      </trkpt>
      <trkpt lat="44.43748" lon="5.92357">
        <ele>769</ele>
        <time>2019-04-09T12:05:37Z</time>
      </trkpt>
      <trkpt lat="44.43744" lon="5.92355">
        <ele>769</ele>
        <time>2019-04-09T12:05:38Z</time>
      </trkpt>
      <trkpt lat="44.43739" lon="5.92356">
        <ele>769</ele>
        <time>2019-04-09T12:05:39Z</time>
      </trkpt>
      <trkpt lat="44.43735" lon="5.92357">
        <ele>769</ele>
        <time>2019-04-09T12:05:40Z</time>
      </trkpt>
      <trkpt lat="44.43731" lon="5.92359">
        <ele>769</ele>
        <time>2019-04-09T12:05:41Z</time>
      </trkpt>
      <trkpt lat="44.43728" lon="5.92361">
        <ele>769</ele>
        <time>2019-04-09T12:05:42Z</time>
      </trkpt>
      <trkpt lat="44.43725" lon="5.92365">
        <ele>769</ele>
        <time>2019-04-09T12:05:43Z</time>
      </trkpt>
      <trkpt lat="44.43722" lon="5.92369">
        <ele>769</ele>
        <time>2019-04-09T12:05:44Z</time>
      </trkpt>
      <trkpt lat="44.43719" lon="5.92373">
        <ele>769</ele>
        <time>2019-04-09T12:05:45Z</time>
      </trkpt>
      <trkpt lat="44.43716" lon="5.92377">
        <ele>770</ele>
        <time>2019-04-09T12:05:46Z</time>
      </trkpt>
      <trkpt lat="44.43714" lon="5.92381">
        <ele>770</ele>
        <time>2019-04-09T12:05:47Z</time>
      </trkpt>
      <trkpt lat="44.43711" lon="5.92385">
        <ele>770</ele>
        <time>2019-04-09T12:05:48Z</time>
      </trkpt>
      <trkpt lat="44.43709" lon="5.9239">
        <ele>770</ele>
        <time>2019-04-09T12:05:49Z</time>
      </trkpt>
      <trkpt lat="44.43706" lon="5.92394">
        <ele>770</ele>
        <time>2019-04-09T12:05:50Z</time>
      </trkpt>
      <trkpt lat="44.43703" lon="5.92399">
        <ele>771</ele>
        <time>2019-04-09T12:05:51Z</time>
      </trkpt>
      <trkpt lat="44.437" lon="5.92402">
        <ele>771</ele>
        <time>2019-04-09T12:05:52Z</time>
      </trkpt>
      <trkpt lat="44.43697" lon="5.92405">
        <ele>771</ele>
        <time>2019-04-09T12:05:53Z</time>
      </trkpt>
      <trkpt lat="44.43693" lon="5.92407">
        <ele>771</ele>
        <time>2019-04-09T12:05:54Z</time>
      </trkpt>
      <trkpt lat="44.43689" lon="5.92407">
        <ele>772</ele>
        <time>2019-04-09T12:05:55Z</time>
      </trkpt>
      <trkpt lat="44.43686" lon="5.92407">
        <ele>772</ele>
        <time>2019-04-09T12:05:56Z</time>
      </trkpt>
      <trkpt lat="44.43682" lon="5.92406">
        <ele>772</ele>
        <time>2019-04-09T12:05:57Z</time>
      </trkpt>
      <trkpt lat="44.43678" lon="5.92405">
        <ele>772</ele>
        <time>2019-04-09T12:05:58Z</time>
      </trkpt>
      <trkpt lat="44.43674" lon="5.92405">
        <ele>772</ele>
        <time>2019-04-09T12:05:59Z</time>
      </trkpt>
      <trkpt lat="44.4367" lon="5.92404">
        <ele>772</ele>
        <time>2019-04-09T12:06:00Z</time>
      </trkpt>
      <trkpt lat="44.43666" lon="5.92404">
        <ele>772</ele>
        <time>2019-04-09T12:06:01Z</time>
      </trkpt>
      <trkpt lat="44.43663" lon="5.92404">
        <ele>772</ele>
        <time>2019-04-09T12:06:02Z</time>
      </trkpt>
      <trkpt lat="44.43659" lon="5.92405">
        <ele>772</ele>
        <time>2019-04-09T12:06:03Z</time>
      </trkpt>
      <trkpt lat="44.43655" lon="5.92406">
        <ele>772</ele>
        <time>2019-04-09T12:06:04Z</time>
      </trkpt>
      <trkpt lat="44.43651" lon="5.92408">
        <ele>772</ele>
        <time>2019-04-09T12:06:05Z</time>
      </trkpt>
      <trkpt lat="44.43648" lon="5.92409">
        <ele>772</ele>
        <time>2019-04-09T12:06:06Z</time>
      </trkpt>
      <trkpt lat="44.43644" lon="5.92412">
        <ele>773</ele>
        <time>2019-04-09T12:06:07Z</time>
      </trkpt>
      <trkpt lat="44.43641" lon="5.92416">
        <ele>773</ele>
        <time>2019-04-09T12:06:08Z</time>
      </trkpt>
      <trkpt lat="44.43638" lon="5.92419">
        <ele>773</ele>
        <time>2019-04-09T12:06:09Z</time>
      </trkpt>
      <trkpt lat="44.43635" lon="5.92423">
        <ele>773</ele>
        <time>2019-04-09T12:06:10Z</time>
      </trkpt>
      <trkpt lat="44.43632" lon="5.92427">
        <ele>773</ele>
        <time>2019-04-09T12:06:11Z</time>
      </trkpt>
      <trkpt lat="44.4363" lon="5.92431">
        <ele>773</ele>
        <time>2019-04-09T12:06:12Z</time>
      </trkpt>
      <trkpt lat="44.43627" lon="5.92435">
        <ele>773</ele>
        <time>2019-04-09T12:06:13Z</time>
      </trkpt>
      <trkpt lat="44.43625" lon="5.92438">
        <ele>773</ele>
        <time>2019-04-09T12:06:14Z</time>
      </trkpt>
      <trkpt lat="44.43623" lon="5.92442">
        <ele>773</ele>
        <time>2019-04-09T12:06:15Z</time>
      </trkpt>
      <trkpt lat="44.4362" lon="5.92446">
        <ele>773</ele>
        <time>2019-04-09T12:06:16Z</time>
      </trkpt>
      <trkpt lat="44.43618" lon="5.92449">
        <ele>773</ele>
        <time>2019-04-09T12:06:17Z</time>
      </trkpt>
      <trkpt lat="44.43615" lon="5.92453">
        <ele>773</ele>
        <time>2019-04-09T12:06:18Z</time>
      </trkpt>
      <trkpt lat="44.43612" lon="5.92457">
        <ele>773</ele>
        <time>2019-04-09T12:06:19Z</time>
      </trkpt>
      <trkpt lat="44.4361" lon="5.9246">
        <ele>773</ele>
        <time>2019-04-09T12:06:20Z</time>
      </trkpt>
      <trkpt lat="44.43608" lon="5.92464">
        <ele>773</ele>
        <time>2019-04-09T12:06:21Z</time>
      </trkpt>
      <trkpt lat="44.43607" lon="5.92469">
        <ele>773</ele>
        <time>2019-04-09T12:06:22Z</time>
      </trkpt>
      <trkpt lat="44.43606" lon="5.92474">
        <ele>773</ele>
        <time>2019-04-09T12:06:23Z</time>
      </trkpt>
      <trkpt lat="44.43606" lon="5.92479">
        <ele>774</ele>
        <time>2019-04-09T12:06:24Z</time>
      </trkpt>
      <trkpt lat="44.43607" lon="5.92485">
        <ele>774</ele>
        <time>2019-04-09T12:06:25Z</time>
      </trkpt>
      <trkpt lat="44.43608" lon="5.9249">
        <ele>774</ele>
        <time>2019-04-09T12:06:26Z</time>
      </trkpt>
      <trkpt lat="44.43609" lon="5.92495">
        <ele>774</ele>
        <time>2019-04-09T12:06:27Z</time>
      </trkpt>
      <trkpt lat="44.43611" lon="5.92501">
        <ele>775</ele>
        <time>2019-04-09T12:06:28Z</time>
      </trkpt>
      <trkpt lat="44.43612" lon="5.92508">
        <ele>775</ele>
        <time>2019-04-09T12:06:29Z</time>
      </trkpt>
      <trkpt lat="44.43614" lon="5.92515">
        <ele>775</ele>
        <time>2019-04-09T12:06:30Z</time>
      </trkpt>
      <trkpt lat="44.43615" lon="5.92522">
        <ele>775</ele>
        <time>2019-04-09T12:06:31Z</time>
      </trkpt>
      <trkpt lat="44.43616" lon="5.92529">
        <ele>775</ele>
        <time>2019-04-09T12:06:32Z</time>
      </trkpt>
      <trkpt lat="44.43616" lon="5.92537">
        <ele>775</ele>
        <time>2019-04-09T12:06:33Z</time>
      </trkpt>
      <trkpt lat="44.43616" lon="5.92544">
        <ele>775</ele>
        <time>2019-04-09T12:06:34Z</time>
      </trkpt>
      <trkpt lat="44.43615" lon="5.92551">
        <ele>775</ele>
        <time>2019-04-09T12:06:35Z</time>
      </trkpt>
      <trkpt lat="44.43615" lon="5.92557">
        <ele>775</ele>
        <time>2019-04-09T12:06:36Z</time>
      </trkpt>
      <trkpt lat="44.43614" lon="5.92563">
        <ele>775</ele>
        <time>2019-04-09T12:06:37Z</time>
      </trkpt>
      <trkpt lat="44.43613" lon="5.92569">
        <ele>776</ele>
        <time>2019-04-09T12:06:38Z</time>
      </trkpt>
      <trkpt lat="44.43613" lon="5.92575">
        <ele>776</ele>
        <time>2019-04-09T12:06:39Z</time>
      </trkpt>
      <trkpt lat="44.43613" lon="5.9258">
        <ele>776</ele>
        <time>2019-04-09T12:06:40Z</time>
      </trkpt>
      <trkpt lat="44.43614" lon="5.92585">
        <ele>776</ele>
        <time>2019-04-09T12:06:41Z</time>
      </trkpt>
      <trkpt lat="44.43615" lon="5.92589">
        <ele>777</ele>
        <time>2019-04-09T12:06:42Z</time>
      </trkpt>
      <trkpt lat="44.43618" lon="5.92593">
        <ele>777</ele>
        <time>2019-04-09T12:06:43Z</time>
      </trkpt>
      <trkpt lat="44.4362" lon="5.92596">
        <ele>778</ele>
        <time>2019-04-09T12:06:44Z</time>
      </trkpt>
      <trkpt lat="44.43623" lon="5.92598">
        <ele>778</ele>
        <time>2019-04-09T12:06:45Z</time>
      </trkpt>
      <trkpt lat="44.43626" lon="5.92599">
        <ele>779</ele>
        <time>2019-04-09T12:06:46Z</time>
      </trkpt>
      <trkpt lat="44.43629" lon="5.92601">
        <ele>779</ele>
        <time>2019-04-09T12:06:47Z</time>
      </trkpt>
      <trkpt lat="44.43632" lon="5.92601">
        <ele>779</ele>
        <time>2019-04-09T12:06:48Z</time>
      </trkpt>
      <trkpt lat="44.43635" lon="5.92602">
        <ele>779</ele>
        <time>2019-04-09T12:06:49Z</time>
      </trkpt>
      <trkpt lat="44.43638" lon="5.92602">
        <ele>780</ele>
        <time>2019-04-09T12:06:50Z</time>
      </trkpt>
      <trkpt lat="44.43641" lon="5.92603">
        <ele>780</ele>
        <time>2019-04-09T12:06:51Z</time>
      </trkpt>
      <trkpt lat="44.43644" lon="5.92604">
        <ele>780</ele>
        <time>2019-04-09T12:06:52Z</time>
      </trkpt>
      <trkpt lat="44.43647" lon="5.92606">
        <ele>780</ele>
        <time>2019-04-09T12:06:53Z</time>
      </trkpt>
      <trkpt lat="44.4365" lon="5.92608">
        <ele>780</ele>
        <time>2019-04-09T12:06:54Z</time>
      </trkpt>
      <trkpt lat="44.43653" lon="5.92611">
        <ele>780</ele>
        <time>2019-04-09T12:06:55Z</time>
      </trkpt>
      <trkpt lat="44.43655" lon="5.92614">
        <ele>780</ele>
        <time>2019-04-09T12:06:56Z</time>
      </trkpt>
      <trkpt lat="44.43657" lon="5.92617">
        <ele>780</ele>
        <time>2019-04-09T12:06:57Z</time>
      </trkpt>
      <trkpt lat="44.43658" lon="5.92621">
        <ele>780</ele>
        <time>2019-04-09T12:06:58Z</time>
      </trkpt>
      <trkpt lat="44.43659" lon="5.92625">
        <ele>781</ele>
        <time>2019-04-09T12:06:59Z</time>
      </trkpt>
      <trkpt lat="44.4366" lon="5.92629">
        <ele>781</ele>
        <time>2019-04-09T12:07:00Z</time>
      </trkpt>
      <trkpt lat="44.43661" lon="5.92634">
        <ele>781</ele>
        <time>2019-04-09T12:07:01Z</time>
      </trkpt>
      <trkpt lat="44.43661" lon="5.92638">
        <ele>781</ele>
        <time>2019-04-09T12:07:02Z</time>
      </trkpt>
      <trkpt lat="44.43661" lon="5.92643">
        <ele>781</ele>
        <time>2019-04-09T12:07:03Z</time>
      </trkpt>
      <trkpt lat="44.4366" lon="5.92647">
        <ele>781</ele>
        <time>2019-04-09T12:07:04Z</time>
      </trkpt>
      <trkpt lat="44.4366" lon="5.92651">
        <ele>781</ele>
        <time>2019-04-09T12:07:05Z</time>
      </trkpt>
      <trkpt lat="44.43658" lon="5.92655">
        <ele>781</ele>
        <time>2019-04-09T12:07:06Z</time>
      </trkpt>
      <trkpt lat="44.43658" lon="5.92659">
        <ele>781</ele>
        <time>2019-04-09T12:07:07Z</time>
      </trkpt>
      <trkpt lat="44.43656" lon="5.92662">
        <ele>781</ele>
        <time>2019-04-09T12:07:08Z</time>
      </trkpt>
      <trkpt lat="44.43655" lon="5.92666">
        <ele>781</ele>
        <time>2019-04-09T12:07:09Z</time>
      </trkpt>
      <trkpt lat="44.43653" lon="5.9267">
        <ele>781</ele>
        <time>2019-04-09T12:07:10Z</time>
      </trkpt>
      <trkpt lat="44.43652" lon="5.92673">
        <ele>781</ele>
        <time>2019-04-09T12:07:11Z</time>
      </trkpt>
      <trkpt lat="44.4365" lon="5.92677">
        <ele>781</ele>
        <time>2019-04-09T12:07:12Z</time>
      </trkpt>
      <trkpt lat="44.43647" lon="5.92681">
        <ele>781</ele>
        <time>2019-04-09T12:07:13Z</time>
      </trkpt>
      <trkpt lat="44.43644" lon="5.92684">
        <ele>781</ele>
        <time>2019-04-09T12:07:14Z</time>
      </trkpt>
      <trkpt lat="44.43641" lon="5.92687">
        <ele>781</ele>
        <time>2019-04-09T12:07:15Z</time>
      </trkpt>
      <trkpt lat="44.43637" lon="5.92688">
        <ele>781</ele>
        <time>2019-04-09T12:07:16Z</time>
      </trkpt>
      <trkpt lat="44.43633" lon="5.92688">
        <ele>781</ele>
        <time>2019-04-09T12:07:17Z</time>
      </trkpt>
      <trkpt lat="44.43629" lon="5.92687">
        <ele>781</ele>
        <time>2019-04-09T12:07:18Z</time>
      </trkpt>
      <trkpt lat="44.43626" lon="5.92686">
        <ele>781</ele>
        <time>2019-04-09T12:07:19Z</time>
      </trkpt>
      <trkpt lat="44.43623" lon="5.92684">
        <ele>781</ele>
        <time>2019-04-09T12:07:20Z</time>
      </trkpt>
      <trkpt lat="44.4362" lon="5.92682">
        <ele>781</ele>
        <time>2019-04-09T12:07:21Z</time>
      </trkpt>
      <trkpt lat="44.43617" lon="5.9268">
        <ele>781</ele>
        <time>2019-04-09T12:07:22Z</time>
      </trkpt>
      <trkpt lat="44.43614" lon="5.92677">
        <ele>781</ele>
        <time>2019-04-09T12:07:23Z</time>
      </trkpt>
      <trkpt lat="44.43611" lon="5.92675">
        <ele>781</ele>
        <time>2019-04-09T12:07:24Z</time>
      </trkpt>
      <trkpt lat="44.43607" lon="5.92673">
        <ele>781</ele>
        <time>2019-04-09T12:07:25Z</time>
      </trkpt>
      <trkpt lat="44.43604" lon="5.92671">
        <ele>781</ele>
        <time>2019-04-09T12:07:26Z</time>
      </trkpt>
      <trkpt lat="44.436" lon="5.92671">
        <ele>781</ele>
        <time>2019-04-09T12:07:27Z</time>
      </trkpt>
      <trkpt lat="44.43596" lon="5.92671">
        <ele>781</ele>
        <time>2019-04-09T12:07:28Z</time>
      </trkpt>
      <trkpt lat="44.43592" lon="5.92672">
        <ele>782</ele>
        <time>2019-04-09T12:07:29Z</time>
      </trkpt>
      <trkpt lat="44.43588" lon="5.92673">
        <ele>782</ele>
        <time>2019-04-09T12:07:30Z</time>
      </trkpt>
      <trkpt lat="44.43585" lon="5.92676">
        <ele>782</ele>
        <time>2019-04-09T12:07:31Z</time>
      </trkpt>
      <trkpt lat="44.43581" lon="5.92678">
        <ele>782</ele>
        <time>2019-04-09T12:07:32Z</time>
      </trkpt>
      <trkpt lat="44.43578" lon="5.92681">
        <ele>782</ele>
        <time>2019-04-09T12:07:33Z</time>
      </trkpt>
      <trkpt lat="44.43576" lon="5.92684">
        <ele>783</ele>
        <time>2019-04-09T12:07:34Z</time>
      </trkpt>
      <trkpt lat="44.43573" lon="5.92687">
        <ele>783</ele>
        <time>2019-04-09T12:07:35Z</time>
      </trkpt>
      <trkpt lat="44.43571" lon="5.9269">
        <ele>783</ele>
        <time>2019-04-09T12:07:36Z</time>
      </trkpt>
      <trkpt lat="44.43568" lon="5.92693">
        <ele>783</ele>
        <time>2019-04-09T12:07:37Z</time>
      </trkpt>
      <trkpt lat="44.43566" lon="5.92697">
        <ele>784</ele>
        <time>2019-04-09T12:07:38Z</time>
      </trkpt>
      <trkpt lat="44.43563" lon="5.927">
        <ele>784</ele>
        <time>2019-04-09T12:07:39Z</time>
      </trkpt>
      <trkpt lat="44.43561" lon="5.92703">
        <ele>784</ele>
        <time>2019-04-09T12:07:40Z</time>
      </trkpt>
      <trkpt lat="44.43559" lon="5.92706">
        <ele>785</ele>
        <time>2019-04-09T12:07:41Z</time>
      </trkpt>
      <trkpt lat="44.43556" lon="5.92708">
        <ele>785</ele>
        <time>2019-04-09T12:07:42Z</time>
      </trkpt>
      <trkpt lat="44.43554" lon="5.92711">
        <ele>785</ele>
        <time>2019-04-09T12:07:43Z</time>
      </trkpt>
      <trkpt lat="44.43551" lon="5.92713">
        <ele>786</ele>
        <time>2019-04-09T12:07:44Z</time>
      </trkpt>
      <trkpt lat="44.43548" lon="5.92715">
        <ele>786</ele>
        <time>2019-04-09T12:07:45Z</time>
      </trkpt>
      <trkpt lat="44.43546" lon="5.92717">
        <ele>786</ele>
        <time>2019-04-09T12:07:46Z</time>
      </trkpt>
      <trkpt lat="44.43542" lon="5.92718">
        <ele>786</ele>
        <time>2019-04-09T12:07:47Z</time>
      </trkpt>
      <trkpt lat="44.43539" lon="5.92719">
        <ele>787</ele>
        <time>2019-04-09T12:07:48Z</time>
      </trkpt>
      <trkpt lat="44.43536" lon="5.9272">
        <ele>787</ele>
        <time>2019-04-09T12:07:49Z</time>
      </trkpt>
      <trkpt lat="44.43533" lon="5.92721">
        <ele>787</ele>
        <time>2019-04-09T12:07:50Z</time>
      </trkpt>
      <trkpt lat="44.43531" lon="5.92721">
        <ele>787</ele>
        <time>2019-04-09T12:07:51Z</time>
      </trkpt>
      <trkpt lat="44.43528" lon="5.92722">
        <ele>787</ele>
        <time>2019-04-09T12:07:52Z</time>
      </trkpt>
      <trkpt lat="44.43525" lon="5.92722">
        <ele>787</ele>
        <time>2019-04-09T12:07:53Z</time>
      </trkpt>
      <trkpt lat="44.43523" lon="5.92722">
        <ele>787</ele>
        <time>2019-04-09T12:07:54Z</time>
      </trkpt>
      <trkpt lat="44.4352" lon="5.92723">
        <ele>787</ele>
        <time>2019-04-09T12:07:55Z</time>
      </trkpt>
      <trkpt lat="44.43518" lon="5.92723">
        <ele>788</ele>
        <time>2019-04-09T12:07:56Z</time>
      </trkpt>
      <trkpt lat="44.43515" lon="5.92723">
        <ele>788</ele>
        <time>2019-04-09T12:07:57Z</time>
      </trkpt>
      <trkpt lat="44.43513" lon="5.92723">
        <ele>788</ele>
        <time>2019-04-09T12:07:58Z</time>
      </trkpt>
      <trkpt lat="44.4351" lon="5.92723">
        <ele>789</ele>
        <time>2019-04-09T12:07:59Z</time>
      </trkpt>
      <trkpt lat="44.43508" lon="5.92724">
        <ele>789</ele>
        <time>2019-04-09T12:08:00Z</time>
      </trkpt>
      <trkpt lat="44.43506" lon="5.92725">
        <ele>789</ele>
        <time>2019-04-09T12:08:01Z</time>
      </trkpt>
      <trkpt lat="44.43503" lon="5.92725">
        <ele>789</ele>
        <time>2019-04-09T12:08:02Z</time>
      </trkpt>
      <trkpt lat="44.43501" lon="5.92725">
        <ele>790</ele>
        <time>2019-04-09T12:08:03Z</time>
      </trkpt>
      <trkpt lat="44.43498" lon="5.92725">
        <ele>790</ele>
        <time>2019-04-09T12:08:04Z</time>
      </trkpt>
      <trkpt lat="44.43495" lon="5.92725">
        <ele>790</ele>
        <time>2019-04-09T12:08:05Z</time>
      </trkpt>
      <trkpt lat="44.43493" lon="5.92726">
        <ele>791</ele>
        <time>2019-04-09T12:08:06Z</time>
      </trkpt>
      <trkpt lat="44.4349" lon="5.92727">
        <ele>791</ele>
        <time>2019-04-09T12:08:07Z</time>
      </trkpt>
      <trkpt lat="44.43488" lon="5.92728">
        <ele>791</ele>
        <time>2019-04-09T12:08:08Z</time>
      </trkpt>
      <trkpt lat="44.43485" lon="5.92729">
        <ele>791</ele>
        <time>2019-04-09T12:08:09Z</time>
      </trkpt>
      <trkpt lat="44.43482" lon="5.9273">
        <ele>792</ele>
        <time>2019-04-09T12:08:10Z</time>
      </trkpt>
      <trkpt lat="44.4348" lon="5.92732">
        <ele>792</ele>
        <time>2019-04-09T12:08:11Z</time>
      </trkpt>
      <trkpt lat="44.43477" lon="5.92735">
        <ele>792</ele>
        <time>2019-04-09T12:08:12Z</time>
      </trkpt>
      <trkpt lat="44.43475" lon="5.92737">
        <ele>792</ele>
        <time>2019-04-09T12:08:13Z</time>
      </trkpt>
      <trkpt lat="44.43473" lon="5.9274">
        <ele>792</ele>
        <time>2019-04-09T12:08:14Z</time>
      </trkpt>
      <trkpt lat="44.43472" lon="5.92743">
        <ele>792</ele>
        <time>2019-04-09T12:08:15Z</time>
      </trkpt>
      <trkpt lat="44.4347" lon="5.92746">
        <ele>792</ele>
        <time>2019-04-09T12:08:16Z</time>
      </trkpt>
      <trkpt lat="44.43469" lon="5.92749">
        <ele>793</ele>
        <time>2019-04-09T12:08:17Z</time>
      </trkpt>
      <trkpt lat="44.43467" lon="5.92752">
        <ele>793</ele>
        <time>2019-04-09T12:08:18Z</time>
      </trkpt>
      <trkpt lat="44.43466" lon="5.92755">
        <ele>793</ele>
        <time>2019-04-09T12:08:19Z</time>
      </trkpt>
      <trkpt lat="44.43466" lon="5.92758">
        <ele>793</ele>
        <time>2019-04-09T12:08:20Z</time>
      </trkpt>
      <trkpt lat="44.43465" lon="5.92762">
        <ele>793</ele>
        <time>2019-04-09T12:08:21Z</time>
      </trkpt>
      <trkpt lat="44.43465" lon="5.92766">
        <ele>793</ele>
        <time>2019-04-09T12:08:22Z</time>
      </trkpt>
      <trkpt lat="44.43465" lon="5.92769">
        <ele>794</ele>
        <time>2019-04-09T12:08:23Z</time>
      </trkpt>
      <trkpt lat="44.43465" lon="5.92773">
        <ele>794</ele>
        <time>2019-04-09T12:08:24Z</time>
      </trkpt>
      <trkpt lat="44.43466" lon="5.92777">
        <ele>794</ele>
        <time>2019-04-09T12:08:25Z</time>
      </trkpt>
      <trkpt lat="44.43466" lon="5.9278">
        <ele>794</ele>
        <time>2019-04-09T12:08:26Z</time>
      </trkpt>
      <trkpt lat="44.43468" lon="5.92784">
        <ele>794</ele>
        <time>2019-04-09T12:08:27Z</time>
      </trkpt>
      <trkpt lat="44.43469" lon="5.92787">
        <ele>794</ele>
        <time>2019-04-09T12:08:28Z</time>
      </trkpt>
      <trkpt lat="44.43471" lon="5.92789">
        <ele>794</ele>
        <time>2019-04-09T12:08:29Z</time>
      </trkpt>
      <trkpt lat="44.43473" lon="5.92791">
        <ele>794</ele>
        <time>2019-04-09T12:08:30Z</time>
      </trkpt>
      <trkpt lat="44.43475" lon="5.92793">
        <ele>795</ele>
        <time>2019-04-09T12:08:31Z</time>
      </trkpt>
      <trkpt lat="44.43477" lon="5.92795">
        <ele>795</ele>
        <time>2019-04-09T12:08:32Z</time>
      </trkpt>
      <trkpt lat="44.43478" lon="5.92797">
        <ele>795</ele>
        <time>2019-04-09T12:08:33Z</time>
      </trkpt>
      <trkpt lat="44.4348" lon="5.92799">
        <ele>795</ele>
        <time>2019-04-09T12:08:34Z</time>
      </trkpt>
      <trkpt lat="44.43481" lon="5.92801">
        <ele>796</ele>
        <time>2019-04-09T12:08:35Z</time>
      </trkpt>
      <trkpt lat="44.43483" lon="5.92803">
        <ele>796</ele>
        <time>2019-04-09T12:08:36Z</time>
      </trkpt>
      <trkpt lat="44.43485" lon="5.92805">
        <ele>796</ele>
        <time>2019-04-09T12:08:37Z</time>
      </trkpt>
      <trkpt lat="44.43487" lon="5.92806">
        <ele>796</ele>
        <time>2019-04-09T12:08:38Z</time>
      </trkpt>
      <trkpt lat="44.43488" lon="5.92808">
        <ele>796</ele>
        <time>2019-04-09T12:08:39Z</time>
      </trkpt>
      <trkpt lat="44.4349" lon="5.92809">
        <ele>797</ele>
        <time>2019-04-09T12:08:40Z</time>
      </trkpt>
      <trkpt lat="44.43492" lon="5.92811">
        <ele>797</ele>
        <time>2019-04-09T12:08:41Z</time>
      </trkpt>
      <trkpt lat="44.43494" lon="5.92813">
        <ele>797</ele>
        <time>2019-04-09T12:08:42Z</time>
      </trkpt>
      <trkpt lat="44.43495" lon="5.92815">
        <ele>797</ele>
        <time>2019-04-09T12:08:43Z</time>
      </trkpt>
      <trkpt lat="44.43497" lon="5.92817">
        <ele>797</ele>
        <time>2019-04-09T12:08:44Z</time>
      </trkpt>
      <trkpt lat="44.43499" lon="5.92818">
        <ele>797</ele>
        <time>2019-04-09T12:08:45Z</time>
      </trkpt>
      <trkpt lat="44.43501" lon="5.9282">
        <ele>798</ele>
        <time>2019-04-09T12:08:46Z</time>
      </trkpt>
      <trkpt lat="44.43503" lon="5.92821">
        <ele>798</ele>
        <time>2019-04-09T12:08:47Z</time>
      </trkpt>
      <trkpt lat="44.43504" lon="5.92823">
        <ele>798</ele>
        <time>2019-04-09T12:08:48Z</time>
      </trkpt>
      <trkpt lat="44.43506" lon="5.92825">
        <ele>798</ele>
        <time>2019-04-09T12:08:49Z</time>
      </trkpt>
      <trkpt lat="44.43508" lon="5.92827">
        <ele>798</ele>
        <time>2019-04-09T12:08:50Z</time>
      </trkpt>
      <trkpt lat="44.4351" lon="5.92829">
        <ele>799</ele>
        <time>2019-04-09T12:08:51Z</time>
      </trkpt>
      <trkpt lat="44.43511" lon="5.92831">
        <ele>799</ele>
        <time>2019-04-09T12:08:52Z</time>
      </trkpt>
      <trkpt lat="44.43513" lon="5.92833">
        <ele>799</ele>
        <time>2019-04-09T12:08:53Z</time>
      </trkpt>
      <trkpt lat="44.43515" lon="5.92834">
        <ele>800</ele>
        <time>2019-04-09T12:08:54Z</time>
      </trkpt>
      <trkpt lat="44.43516" lon="5.92836">
        <ele>800</ele>
        <time>2019-04-09T12:08:55Z</time>
      </trkpt>
      <trkpt lat="44.43518" lon="5.92837">
        <ele>800</ele>
        <time>2019-04-09T12:08:56Z</time>
      </trkpt>
      <trkpt lat="44.4352" lon="5.92839">
        <ele>800</ele>
        <time>2019-04-09T12:08:57Z</time>
      </trkpt>
      <trkpt lat="44.43521" lon="5.92841">
        <ele>801</ele>
        <time>2019-04-09T12:08:58Z</time>
      </trkpt>
      <trkpt lat="44.43523" lon="5.92842">
        <ele>801</ele>
        <time>2019-04-09T12:08:59Z</time>
      </trkpt>
      <trkpt lat="44.43525" lon="5.92844">
        <ele>801</ele>
        <time>2019-04-09T12:09:00Z</time>
      </trkpt>
      <trkpt lat="44.43526" lon="5.92846">
        <ele>801</ele>
        <time>2019-04-09T12:09:01Z</time>
      </trkpt>
      <trkpt lat="44.43527" lon="5.92848">
        <ele>802</ele>
        <time>2019-04-09T12:09:02Z</time>
      </trkpt>
      <trkpt lat="44.43528" lon="5.9285">
        <ele>802</ele>
        <time>2019-04-09T12:09:03Z</time>
      </trkpt>
      <trkpt lat="44.4353" lon="5.92852">
        <ele>802</ele>
        <time>2019-04-09T12:09:04Z</time>
      </trkpt>
      <trkpt lat="44.43532" lon="5.92854">
        <ele>802</ele>
        <time>2019-04-09T12:09:05Z</time>
      </trkpt>
      <trkpt lat="44.43533" lon="5.92856">
        <ele>802</ele>
        <time>2019-04-09T12:09:06Z</time>
      </trkpt>
      <trkpt lat="44.43535" lon="5.92858">
        <ele>802</ele>
        <time>2019-04-09T12:09:07Z</time>
      </trkpt>
      <trkpt lat="44.43536" lon="5.9286">
        <ele>802</ele>
        <time>2019-04-09T12:09:08Z</time>
      </trkpt>
      <trkpt lat="44.43538" lon="5.92863">
        <ele>802</ele>
        <time>2019-04-09T12:09:09Z</time>
      </trkpt>
      <trkpt lat="44.43539" lon="5.92865">
        <ele>802</ele>
        <time>2019-04-09T12:09:10Z</time>
      </trkpt>
      <trkpt lat="44.4354" lon="5.92868">
        <ele>802</ele>
        <time>2019-04-09T12:09:11Z</time>
      </trkpt>
      <trkpt lat="44.43541" lon="5.9287">
        <ele>802</ele>
        <time>2019-04-09T12:09:12Z</time>
      </trkpt>
      <trkpt lat="44.43542" lon="5.92873">
        <ele>802</ele>
        <time>2019-04-09T12:09:13Z</time>
      </trkpt>
      <trkpt lat="44.43544" lon="5.92876">
        <ele>803</ele>
        <time>2019-04-09T12:09:14Z</time>
      </trkpt>
      <trkpt lat="44.43545" lon="5.92879">
        <ele>803</ele>
        <time>2019-04-09T12:09:15Z</time>
      </trkpt>
      <trkpt lat="44.43546" lon="5.92882">
        <ele>803</ele>
        <time>2019-04-09T12:09:16Z</time>
      </trkpt>
      <trkpt lat="44.43547" lon="5.92885">
        <ele>804</ele>
        <time>2019-04-09T12:09:17Z</time>
      </trkpt>
      <trkpt lat="44.43547" lon="5.92887">
        <ele>804</ele>
        <time>2019-04-09T12:09:18Z</time>
      </trkpt>
      <trkpt lat="44.43549" lon="5.9289">
        <ele>805</ele>
        <time>2019-04-09T12:09:19Z</time>
      </trkpt>
      <trkpt lat="44.43549" lon="5.92892">
        <ele>805</ele>
        <time>2019-04-09T12:09:20Z</time>
      </trkpt>
      <trkpt lat="44.4355" lon="5.92894">
        <ele>805</ele>
        <time>2019-04-09T12:09:21Z</time>
      </trkpt>
      <trkpt lat="44.43552" lon="5.92896">
        <ele>806</ele>
        <time>2019-04-09T12:09:22Z</time>
      </trkpt>
      <trkpt lat="44.43553" lon="5.92899">
        <ele>806</ele>
        <time>2019-04-09T12:09:23Z</time>
      </trkpt>
      <trkpt lat="44.43554" lon="5.92901">
        <ele>806</ele>
        <time>2019-04-09T12:09:24Z</time>
      </trkpt>
      <trkpt lat="44.43555" lon="5.92903">
        <ele>806</ele>
        <time>2019-04-09T12:09:25Z</time>
      </trkpt>
      <trkpt lat="44.43557" lon="5.92906">
        <ele>807</ele>
        <time>2019-04-09T12:09:26Z</time>
      </trkpt>
      <trkpt lat="44.43557" lon="5.92908">
        <ele>807</ele>
        <time>2019-04-09T12:09:27Z</time>
      </trkpt>
      <trkpt lat="44.43558" lon="5.9291">
        <ele>807</ele>
        <time>2019-04-09T12:09:28Z</time>
      </trkpt>
      <trkpt lat="44.4356" lon="5.92913">
        <ele>807</ele>
        <time>2019-04-09T12:09:29Z</time>
      </trkpt>
      <trkpt lat="44.43561" lon="5.92915">
        <ele>807</ele>
        <time>2019-04-09T12:09:30Z</time>
      </trkpt>
      <trkpt lat="44.43562" lon="5.92918">
        <ele>807</ele>
        <time>2019-04-09T12:09:31Z</time>
      </trkpt>
      <trkpt lat="44.43563" lon="5.92921">
        <ele>807</ele>
        <time>2019-04-09T12:09:32Z</time>
      </trkpt>
      <trkpt lat="44.43563" lon="5.92924">
        <ele>807</ele>
        <time>2019-04-09T12:09:33Z</time>
      </trkpt>
      <trkpt lat="44.43564" lon="5.92927">
        <ele>807</ele>
        <time>2019-04-09T12:09:34Z</time>
      </trkpt>
      <trkpt lat="44.43565" lon="5.9293">
        <ele>807</ele>
        <time>2019-04-09T12:09:35Z</time>
      </trkpt>
      <trkpt lat="44.43565" lon="5.92933">
        <ele>807</ele>
        <time>2019-04-09T12:09:36Z</time>
      </trkpt>
      <trkpt lat="44.43566" lon="5.92937">
        <ele>807</ele>
        <time>2019-04-09T12:09:37Z</time>
      </trkpt>
      <trkpt lat="44.43567" lon="5.9294">
        <ele>807</ele>
        <time>2019-04-09T12:09:38Z</time>
      </trkpt>
      <trkpt lat="44.43568" lon="5.92944">
        <ele>807</ele>
        <time>2019-04-09T12:09:39Z</time>
      </trkpt>
      <trkpt lat="44.43568" lon="5.92947">
        <ele>807</ele>
        <time>2019-04-09T12:09:40Z</time>
      </trkpt>
      <trkpt lat="44.4357" lon="5.9295">
        <ele>807</ele>
        <time>2019-04-09T12:09:41Z</time>
      </trkpt>
      <trkpt lat="44.4357" lon="5.92954">
        <ele>807</ele>
        <time>2019-04-09T12:09:42Z</time>
      </trkpt>
      <trkpt lat="44.43571" lon="5.92957">
        <ele>807</ele>
        <time>2019-04-09T12:09:43Z</time>
      </trkpt>
      <trkpt lat="44.43572" lon="5.9296">
        <ele>807</ele>
        <time>2019-04-09T12:09:44Z</time>
      </trkpt>
      <trkpt lat="44.43572" lon="5.92963">
        <ele>808</ele>
        <time>2019-04-09T12:09:45Z</time>
      </trkpt>
      <trkpt lat="44.43573" lon="5.92967">
        <ele>808</ele>
        <time>2019-04-09T12:09:46Z</time>
      </trkpt>
      <trkpt lat="44.43573" lon="5.9297">
        <ele>808</ele>
        <time>2019-04-09T12:09:47Z</time>
      </trkpt>
      <trkpt lat="44.43574" lon="5.92972">
        <ele>808</ele>
        <time>2019-04-09T12:09:48Z</time>
      </trkpt>
      <trkpt lat="44.43575" lon="5.92975">
        <ele>808</ele>
        <time>2019-04-09T12:09:49Z</time>
      </trkpt>
      <trkpt lat="44.43576" lon="5.92978">
        <ele>808</ele>
        <time>2019-04-09T12:09:50Z</time>
      </trkpt>
      <trkpt lat="44.43577" lon="5.92981">
        <ele>809</ele>
        <time>2019-04-09T12:09:51Z</time>
      </trkpt>
      <trkpt lat="44.43578" lon="5.92984">
        <ele>809</ele>
        <time>2019-04-09T12:09:52Z</time>
      </trkpt>
      <trkpt lat="44.43578" lon="5.92987">
        <ele>809</ele>
        <time>2019-04-09T12:09:53Z</time>
      </trkpt>
      <trkpt lat="44.43579" lon="5.92989">
        <ele>809</ele>
        <time>2019-04-09T12:09:54Z</time>
      </trkpt>
      <trkpt lat="44.4358" lon="5.92992">
        <ele>809</ele>
        <time>2019-04-09T12:09:55Z</time>
      </trkpt>
      <trkpt lat="44.43581" lon="5.92996">
        <ele>809</ele>
        <time>2019-04-09T12:09:56Z</time>
      </trkpt>
      <trkpt lat="44.43582" lon="5.92999">
        <ele>809</ele>
        <time>2019-04-09T12:09:57Z</time>
      </trkpt>
      <trkpt lat="44.43582" lon="5.93002">
        <ele>809</ele>
        <time>2019-04-09T12:09:58Z</time>
      </trkpt>
      <trkpt lat="44.43582" lon="5.93005">
        <ele>809</ele>
        <time>2019-04-09T12:09:59Z</time>
      </trkpt>
      <trkpt lat="44.43582" lon="5.93009">
        <ele>809</ele>
        <time>2019-04-09T12:10:00Z</time>
      </trkpt>
      <trkpt lat="44.43581" lon="5.93013">
        <ele>809</ele>
        <time>2019-04-09T12:10:01Z</time>
      </trkpt>
      <trkpt lat="44.4358" lon="5.93017">
        <ele>809</ele>
        <time>2019-04-09T12:10:02Z</time>
      </trkpt>
      <trkpt lat="44.43579" lon="5.93021">
        <ele>809</ele>
        <time>2019-04-09T12:10:03Z</time>
      </trkpt>
      <trkpt lat="44.43577" lon="5.93025">
        <ele>809</ele>
        <time>2019-04-09T12:10:04Z</time>
      </trkpt>
      <trkpt lat="44.43575" lon="5.93029">
        <ele>809</ele>
        <time>2019-04-09T12:10:05Z</time>
      </trkpt>
      <trkpt lat="44.43573" lon="5.93033">
        <ele>809</ele>
        <time>2019-04-09T12:10:06Z</time>
      </trkpt>
      <trkpt lat="44.4357" lon="5.93038">
        <ele>809</ele>
        <time>2019-04-09T12:10:07Z</time>
      </trkpt>
      <trkpt lat="44.43567" lon="5.93042">
        <ele>809</ele>
        <time>2019-04-09T12:10:08Z</time>
      </trkpt>
      <trkpt lat="44.43564" lon="5.93047">
        <ele>809</ele>
        <time>2019-04-09T12:10:09Z</time>
      </trkpt>
      <trkpt lat="44.43561" lon="5.93053">
        <ele>810</ele>
        <time>2019-04-09T12:10:10Z</time>
      </trkpt>
      <trkpt lat="44.43558" lon="5.93058">
        <ele>810</ele>
        <time>2019-04-09T12:10:11Z</time>
      </trkpt>
      <trkpt lat="44.43555" lon="5.93063">
        <ele>810</ele>
        <time>2019-04-09T12:10:12Z</time>
      </trkpt>
      <trkpt lat="44.43552" lon="5.93068">
        <ele>810</ele>
        <time>2019-04-09T12:10:13Z</time>
      </trkpt>
      <trkpt lat="44.43548" lon="5.93073">
        <ele>810</ele>
        <time>2019-04-09T12:10:14Z</time>
      </trkpt>
      <trkpt lat="44.43545" lon="5.93078">
        <ele>810</ele>
        <time>2019-04-09T12:10:15Z</time>
      </trkpt>
      <trkpt lat="44.43541" lon="5.93083">
        <ele>810</ele>
        <time>2019-04-09T12:10:16Z</time>
      </trkpt>
      <trkpt lat="44.43538" lon="5.93087">
        <ele>810</ele>
        <time>2019-04-09T12:10:17Z</time>
      </trkpt>
      <trkpt lat="44.43533" lon="5.93092">
        <ele>810</ele>
        <time>2019-04-09T12:10:18Z</time>
      </trkpt>
      <trkpt lat="44.43528" lon="5.93096">
        <ele>810</ele>
        <time>2019-04-09T12:10:19Z</time>
      </trkpt>
      <trkpt lat="44.43523" lon="5.93101">
        <ele>810</ele>
        <time>2019-04-09T12:10:20Z</time>
      </trkpt>
      <trkpt lat="44.43518" lon="5.93105">
        <ele>810</ele>
        <time>2019-04-09T12:10:21Z</time>
      </trkpt>
      <trkpt lat="44.43513" lon="5.93112">
        <ele>810</ele>
        <time>2019-04-09T12:10:22Z</time>
      </trkpt>
      <trkpt lat="44.43509" lon="5.9312">
        <ele>810</ele>
        <time>2019-04-09T12:10:23Z</time>
      </trkpt>
      <trkpt lat="44.43506" lon="5.9313">
        <ele>810</ele>
        <time>2019-04-09T12:10:24Z</time>
      </trkpt>
      <trkpt lat="44.43505" lon="5.93142">
        <ele>810</ele>
        <time>2019-04-09T12:10:25Z</time>
      </trkpt>
      <trkpt lat="44.43507" lon="5.93153">
        <ele>810</ele>
        <time>2019-04-09T12:10:26Z</time>
      </trkpt>
      <trkpt lat="44.43509" lon="5.93165">
        <ele>810</ele>
        <time>2019-04-09T12:10:27Z</time>
      </trkpt>
      <trkpt lat="44.43511" lon="5.93177">
        <ele>810</ele>
        <time>2019-04-09T12:10:28Z</time>
      </trkpt>
      <trkpt lat="44.43513" lon="5.93189">
        <ele>810</ele>
        <time>2019-04-09T12:10:29Z</time>
      </trkpt>
      <trkpt lat="44.43513" lon="5.93201">
        <ele>810</ele>
        <time>2019-04-09T12:10:30Z</time>
      </trkpt>
      <trkpt lat="44.43512" lon="5.93213">
        <ele>810</ele>
        <time>2019-04-09T12:10:31Z</time>
      </trkpt>
      <trkpt lat="44.4351" lon="5.93224">
        <ele>810</ele>
        <time>2019-04-09T12:10:32Z</time>
      </trkpt>
      <trkpt lat="44.43505" lon="5.93232">
        <ele>810</ele>
        <time>2019-04-09T12:10:33Z</time>
      </trkpt>
      <trkpt lat="44.435" lon="5.9324">
        <ele>810</ele>
        <time>2019-04-09T12:10:34Z</time>
      </trkpt>
      <trkpt lat="44.43496" lon="5.93247">
        <ele>810</ele>
        <time>2019-04-09T12:10:35Z</time>
      </trkpt>
      <trkpt lat="44.43492" lon="5.93255">
        <ele>810</ele>
        <time>2019-04-09T12:10:36Z</time>
      </trkpt>
      <trkpt lat="44.43488" lon="5.93262">
        <ele>810</ele>
        <time>2019-04-09T12:10:37Z</time>
      </trkpt>
      <trkpt lat="44.43485" lon="5.93269">
        <ele>810</ele>
        <time>2019-04-09T12:10:38Z</time>
      </trkpt>
      <trkpt lat="44.43482" lon="5.93277">
        <ele>810</ele>
        <time>2019-04-09T12:10:39Z</time>
      </trkpt>
      <trkpt lat="44.43479" lon="5.93284">
        <ele>810</ele>
        <time>2019-04-09T12:10:40Z</time>
      </trkpt>
      <trkpt lat="44.43477" lon="5.93291">
        <ele>810</ele>
        <time>2019-04-09T12:10:41Z</time>
      </trkpt>
      <trkpt lat="44.43475" lon="5.93298">
        <ele>810</ele>
        <time>2019-04-09T12:10:42Z</time>
      </trkpt>
      <trkpt lat="44.43473" lon="5.93306">
        <ele>810</ele>
        <time>2019-04-09T12:10:43Z</time>
      </trkpt>
      <trkpt lat="44.43471" lon="5.93313">
        <ele>810</ele>
        <time>2019-04-09T12:10:44Z</time>
      </trkpt>
      <trkpt lat="44.43469" lon="5.9332">
        <ele>810</ele>
        <time>2019-04-09T12:10:45Z</time>
      </trkpt>
      <trkpt lat="44.43467" lon="5.93328">
        <ele>810</ele>
        <time>2019-04-09T12:10:46Z</time>
      </trkpt>
      <trkpt lat="44.43465" lon="5.93334">
        <ele>810</ele>
        <time>2019-04-09T12:10:47Z</time>
      </trkpt>
      <trkpt lat="44.43462" lon="5.93341">
        <ele>810</ele>
        <time>2019-04-09T12:10:48Z</time>
      </trkpt>
      <trkpt lat="44.4346" lon="5.93348">
        <ele>810</ele>
        <time>2019-04-09T12:10:49Z</time>
      </trkpt>
      <trkpt lat="44.43457" lon="5.93355">
        <ele>810</ele>
        <time>2019-04-09T12:10:50Z</time>
      </trkpt>
      <trkpt lat="44.43455" lon="5.93362">
        <ele>810</ele>
        <time>2019-04-09T12:10:51Z</time>
      </trkpt>
      <trkpt lat="44.43453" lon="5.93368">
        <ele>810</ele>
        <time>2019-04-09T12:10:52Z</time>
      </trkpt>
      <trkpt lat="44.43451" lon="5.93375">
        <ele>810</ele>
        <time>2019-04-09T12:10:53Z</time>
      </trkpt>
      <trkpt lat="44.43448" lon="5.93382">
        <ele>810</ele>
        <time>2019-04-09T12:10:54Z</time>
      </trkpt>
      <trkpt lat="44.43446" lon="5.93389">
        <ele>810</ele>
        <time>2019-04-09T12:10:55Z</time>
      </trkpt>
      <trkpt lat="44.43444" lon="5.93396">
        <ele>810</ele>
        <time>2019-04-09T12:10:56Z</time>
      </trkpt>
      <trkpt lat="44.43442" lon="5.93403">
        <ele>810</ele>
        <time>2019-04-09T12:10:57Z</time>
      </trkpt>
      <trkpt lat="44.4344" lon="5.93409">
        <ele>810</ele>
        <time>2019-04-09T12:10:58Z</time>
      </trkpt>
      <trkpt lat="44.43438" lon="5.93416">
        <ele>810</ele>
        <time>2019-04-09T12:10:59Z</time>
      </trkpt>
      <trkpt lat="44.43436" lon="5.93423">
        <ele>810</ele>
        <time>2019-04-09T12:11:00Z</time>
      </trkpt>
      <trkpt lat="44.43435" lon="5.9343">
        <ele>810</ele>
        <time>2019-04-09T12:11:01Z</time>
      </trkpt>
      <trkpt lat="44.43433" lon="5.93436">
        <ele>810</ele>
        <time>2019-04-09T12:11:02Z</time>
      </trkpt>
      <trkpt lat="44.43432" lon="5.93443">
        <ele>810</ele>
        <time>2019-04-09T12:11:03Z</time>
      </trkpt>
      <trkpt lat="44.4343" lon="5.9345">
        <ele>810</ele>
        <time>2019-04-09T12:11:04Z</time>
      </trkpt>
      <trkpt lat="44.43429" lon="5.93457">
        <ele>810</ele>
        <time>2019-04-09T12:11:05Z</time>
      </trkpt>
      <trkpt lat="44.43428" lon="5.93464">
        <ele>811</ele>
        <time>2019-04-09T12:11:06Z</time>
      </trkpt>
      <trkpt lat="44.43428" lon="5.9347">
        <ele>811</ele>
        <time>2019-04-09T12:11:07Z</time>
      </trkpt>
      <trkpt lat="44.43428" lon="5.93477">
        <ele>811</ele>
        <time>2019-04-09T12:11:08Z</time>
      </trkpt>
      <trkpt lat="44.43428" lon="5.93484">
        <ele>811</ele>
        <time>2019-04-09T12:11:09Z</time>
      </trkpt>
      <trkpt lat="44.43427" lon="5.93491">
        <ele>811</ele>
        <time>2019-04-09T12:11:10Z</time>
      </trkpt>
      <trkpt lat="44.43427" lon="5.93498">
        <ele>811</ele>
        <time>2019-04-09T12:11:11Z</time>
      </trkpt>
      <trkpt lat="44.43427" lon="5.93504">
        <ele>811</ele>
        <time>2019-04-09T12:11:12Z</time>
      </trkpt>
      <trkpt lat="44.43427" lon="5.93511">
        <ele>812</ele>
        <time>2019-04-09T12:11:13Z</time>
      </trkpt>
      <trkpt lat="44.43427" lon="5.93518">
        <ele>812</ele>
        <time>2019-04-09T12:11:14Z</time>
      </trkpt>
      <trkpt lat="44.43427" lon="5.93525">
        <ele>812</ele>
        <time>2019-04-09T12:11:15Z</time>
      </trkpt>
      <trkpt lat="44.43427" lon="5.93531">
        <ele>812</ele>
        <time>2019-04-09T12:11:16Z</time>
      </trkpt>
      <trkpt lat="44.43427" lon="5.93538">
        <ele>812</ele>
        <time>2019-04-09T12:11:17Z</time>
      </trkpt>
      <trkpt lat="44.43427" lon="5.93544">
        <ele>813</ele>
        <time>2019-04-09T12:11:18Z</time>
      </trkpt>
      <trkpt lat="44.43426" lon="5.93551">
        <ele>813</ele>
        <time>2019-04-09T12:11:19Z</time>
      </trkpt>
      <trkpt lat="44.43426" lon="5.93557">
        <ele>813</ele>
        <time>2019-04-09T12:11:20Z</time>
      </trkpt>
      <trkpt lat="44.43425" lon="5.93564">
        <ele>813</ele>
        <time>2019-04-09T12:11:21Z</time>
      </trkpt>
      <trkpt lat="44.43425" lon="5.9357">
        <ele>813</ele>
        <time>2019-04-09T12:11:22Z</time>
      </trkpt>
      <trkpt lat="44.43424" lon="5.93576">
        <ele>814</ele>
        <time>2019-04-09T12:11:23Z</time>
      </trkpt>
      <trkpt lat="44.43423" lon="5.93582">
        <ele>814</ele>
        <time>2019-04-09T12:11:24Z</time>
      </trkpt>
      <trkpt lat="44.43423" lon="5.93589">
        <ele>814</ele>
        <time>2019-04-09T12:11:25Z</time>
      </trkpt>
      <trkpt lat="44.43422" lon="5.93595">
        <ele>814</ele>
        <time>2019-04-09T12:11:26Z</time>
      </trkpt>
      <trkpt lat="44.43421" lon="5.93601">
        <ele>814</ele>
        <time>2019-04-09T12:11:27Z</time>
      </trkpt>
      <trkpt lat="44.4342" lon="5.93607">
        <ele>815</ele>
        <time>2019-04-09T12:11:28Z</time>
      </trkpt>
      <trkpt lat="44.4342" lon="5.93613">
        <ele>815</ele>
        <time>2019-04-09T12:11:29Z</time>
      </trkpt>
      <trkpt lat="44.43419" lon="5.93619">
        <ele>815</ele>
        <time>2019-04-09T12:11:30Z</time>
      </trkpt>
      <trkpt lat="44.43417" lon="5.93625">
        <ele>815</ele>
        <time>2019-04-09T12:11:31Z</time>
      </trkpt>
      <trkpt lat="44.43416" lon="5.93631">
        <ele>815</ele>
        <time>2019-04-09T12:11:32Z</time>
      </trkpt>
      <trkpt lat="44.43415" lon="5.93638">
        <ele>815</ele>
        <time>2019-04-09T12:11:33Z</time>
      </trkpt>
      <trkpt lat="44.43413" lon="5.93644">
        <ele>815</ele>
        <time>2019-04-09T12:11:34Z</time>
      </trkpt>
      <trkpt lat="44.43412" lon="5.9365">
        <ele>815</ele>
        <time>2019-04-09T12:11:35Z</time>
      </trkpt>
      <trkpt lat="44.43412" lon="5.93656">
        <ele>815</ele>
        <time>2019-04-09T12:11:36Z</time>
      </trkpt>
      <trkpt lat="44.43413" lon="5.93663">
        <ele>815</ele>
        <time>2019-04-09T12:11:37Z</time>
      </trkpt>
      <trkpt lat="44.43414" lon="5.9367">
        <ele>815</ele>
        <time>2019-04-09T12:11:38Z</time>
      </trkpt>
      <trkpt lat="44.43417" lon="5.93676">
        <ele>815</ele>
        <time>2019-04-09T12:11:39Z</time>
      </trkpt>
      <trkpt lat="44.43421" lon="5.93682">
        <ele>815</ele>
        <time>2019-04-09T12:11:40Z</time>
      </trkpt>
      <trkpt lat="44.43425" lon="5.93687">
        <ele>815</ele>
        <time>2019-04-09T12:11:41Z</time>
      </trkpt>
      <trkpt lat="44.4343" lon="5.93692">
        <ele>815</ele>
        <time>2019-04-09T12:11:42Z</time>
      </trkpt>
      <trkpt lat="44.43435" lon="5.93696">
        <ele>815</ele>
        <time>2019-04-09T12:11:43Z</time>
      </trkpt>
      <trkpt lat="44.43439" lon="5.93701">
        <ele>815</ele>
        <time>2019-04-09T12:11:44Z</time>
      </trkpt>
      <trkpt lat="44.43444" lon="5.93705">
        <ele>815</ele>
        <time>2019-04-09T12:11:45Z</time>
      </trkpt>
      <trkpt lat="44.4345" lon="5.93709">
        <ele>815</ele>
        <time>2019-04-09T12:11:46Z</time>
      </trkpt>
      <trkpt lat="44.43456" lon="5.93713">
        <ele>815</ele>
        <time>2019-04-09T12:11:47Z</time>
      </trkpt>
      <trkpt lat="44.43462" lon="5.93717">
        <ele>815</ele>
        <time>2019-04-09T12:11:48Z</time>
      </trkpt>
      <trkpt lat="44.43468" lon="5.93722">
        <ele>815</ele>
        <time>2019-04-09T12:11:49Z</time>
      </trkpt>
      <trkpt lat="44.43474" lon="5.93727">
        <ele>815</ele>
        <time>2019-04-09T12:11:50Z</time>
      </trkpt>
      <trkpt lat="44.4348" lon="5.93732">
        <ele>815</ele>
        <time>2019-04-09T12:11:51Z</time>
      </trkpt>
      <trkpt lat="44.43486" lon="5.93737">
        <ele>815</ele>
        <time>2019-04-09T12:11:52Z</time>
      </trkpt>
      <trkpt lat="44.43492" lon="5.93742">
        <ele>815</ele>
        <time>2019-04-09T12:11:53Z</time>
      </trkpt>
      <trkpt lat="44.43498" lon="5.93747">
        <ele>815</ele>
        <time>2019-04-09T12:11:54Z</time>
      </trkpt>
      <trkpt lat="44.43504" lon="5.93752">
        <ele>815</ele>
        <time>2019-04-09T12:11:55Z</time>
      </trkpt>
      <trkpt lat="44.43511" lon="5.93757">
        <ele>815</ele>
        <time>2019-04-09T12:11:56Z</time>
      </trkpt>
      <trkpt lat="44.43517" lon="5.93762">
        <ele>815</ele>
        <time>2019-04-09T12:11:57Z</time>
      </trkpt>
      <trkpt lat="44.43524" lon="5.93767">
        <ele>815</ele>
        <time>2019-04-09T12:11:58Z</time>
      </trkpt>
      <trkpt lat="44.43531" lon="5.93772">
        <ele>815</ele>
        <time>2019-04-09T12:11:59Z</time>
      </trkpt>
      <trkpt lat="44.43537" lon="5.93777">
        <ele>815</ele>
        <time>2019-04-09T12:12:00Z</time>
      </trkpt>
      <trkpt lat="44.43544" lon="5.93782">
        <ele>815</ele>
        <time>2019-04-09T12:12:01Z</time>
      </trkpt>
      <trkpt lat="44.43551" lon="5.93787">
        <ele>815</ele>
        <time>2019-04-09T12:12:02Z</time>
      </trkpt>
      <trkpt lat="44.43557" lon="5.93794">
        <ele>815</ele>
        <time>2019-04-09T12:12:03Z</time>
      </trkpt>
      <trkpt lat="44.43563" lon="5.93802">
        <ele>815</ele>
        <time>2019-04-09T12:12:04Z</time>
      </trkpt>
      <trkpt lat="44.43568" lon="5.93811">
        <ele>815</ele>
        <time>2019-04-09T12:12:05Z</time>
      </trkpt>
      <trkpt lat="44.43571" lon="5.93821">
        <ele>814</ele>
        <time>2019-04-09T12:12:06Z</time>
      </trkpt>
      <trkpt lat="44.43574" lon="5.93831">
        <ele>814</ele>
        <time>2019-04-09T12:12:07Z</time>
      </trkpt>
      <trkpt lat="44.43577" lon="5.93842">
        <ele>814</ele>
        <time>2019-04-09T12:12:08Z</time>
      </trkpt>
      <trkpt lat="44.43579" lon="5.93853">
        <ele>813</ele>
        <time>2019-04-09T12:12:09Z</time>
      </trkpt>
      <trkpt lat="44.43582" lon="5.93863">
        <ele>813</ele>
        <time>2019-04-09T12:12:10Z</time>
      </trkpt>
      <trkpt lat="44.43584" lon="5.93874">
        <ele>813</ele>
        <time>2019-04-09T12:12:11Z</time>
      </trkpt>
      <trkpt lat="44.43587" lon="5.93884">
        <ele>812</ele>
        <time>2019-04-09T12:12:12Z</time>
      </trkpt>
      <trkpt lat="44.4359" lon="5.93895">
        <ele>812</ele>
        <time>2019-04-09T12:12:13Z</time>
      </trkpt>
      <trkpt lat="44.43592" lon="5.93906">
        <ele>812</ele>
        <time>2019-04-09T12:12:14Z</time>
      </trkpt>
      <trkpt lat="44.43595" lon="5.93917">
        <ele>812</ele>
        <time>2019-04-09T12:12:15Z</time>
      </trkpt>
      <trkpt lat="44.43598" lon="5.93927">
        <ele>812</ele>
        <time>2019-04-09T12:12:16Z</time>
      </trkpt>
      <trkpt lat="44.436" lon="5.93938">
        <ele>811</ele>
        <time>2019-04-09T12:12:17Z</time>
      </trkpt>
      <trkpt lat="44.43603" lon="5.93949">
        <ele>811</ele>
        <time>2019-04-09T12:12:18Z</time>
      </trkpt>
      <trkpt lat="44.43606" lon="5.93959">
        <ele>811</ele>
        <time>2019-04-09T12:12:19Z</time>
      </trkpt>
      <trkpt lat="44.43608" lon="5.9397">
        <ele>811</ele>
        <time>2019-04-09T12:12:20Z</time>
      </trkpt>
      <trkpt lat="44.4361" lon="5.93982">
        <ele>810</ele>
        <time>2019-04-09T12:12:21Z</time>
      </trkpt>
      <trkpt lat="44.4361" lon="5.93994">
        <ele>810</ele>
        <time>2019-04-09T12:12:22Z</time>
      </trkpt>
      <trkpt lat="44.43611" lon="5.94006">
        <ele>809</ele>
        <time>2019-04-09T12:12:23Z</time>
      </trkpt>
      <trkpt lat="44.43611" lon="5.94018">
        <ele>809</ele>
        <time>2019-04-09T12:12:24Z</time>
      </trkpt>
      <trkpt lat="44.43611" lon="5.94031">
        <ele>808</ele>
        <time>2019-04-09T12:12:25Z</time>
      </trkpt>
      <trkpt lat="44.43611" lon="5.94043">
        <ele>808</ele>
        <time>2019-04-09T12:12:26Z</time>
      </trkpt>
      <trkpt lat="44.43611" lon="5.94056">
        <ele>807</ele>
        <time>2019-04-09T12:12:27Z</time>
      </trkpt>
      <trkpt lat="44.43611" lon="5.94069">
        <ele>806</ele>
        <time>2019-04-09T12:12:28Z</time>
      </trkpt>
      <trkpt lat="44.43611" lon="5.94082">
        <ele>806</ele>
        <time>2019-04-09T12:12:29Z</time>
      </trkpt>
      <trkpt lat="44.43611" lon="5.94096">
        <ele>805</ele>
        <time>2019-04-09T12:12:30Z</time>
      </trkpt>
      <trkpt lat="44.43612" lon="5.94108">
        <ele>805</ele>
        <time>2019-04-09T12:12:31Z</time>
      </trkpt>
      <trkpt lat="44.43612" lon="5.94122">
        <ele>804</ele>
        <time>2019-04-09T12:12:32Z</time>
      </trkpt>
      <trkpt lat="44.43612" lon="5.94135">
        <ele>803</ele>
        <time>2019-04-09T12:12:33Z</time>
      </trkpt>
      <trkpt lat="44.43612" lon="5.94148">
        <ele>803</ele>
        <time>2019-04-09T12:12:34Z</time>
      </trkpt>
      <trkpt lat="44.43613" lon="5.94162">
        <ele>802</ele>
        <time>2019-04-09T12:12:35Z</time>
      </trkpt>
      <trkpt lat="44.43613" lon="5.94176">
        <ele>801</ele>
        <time>2019-04-09T12:12:36Z</time>
      </trkpt>
      <trkpt lat="44.43613" lon="5.94189">
        <ele>801</ele>
        <time>2019-04-09T12:12:37Z</time>
      </trkpt>
      <trkpt lat="44.43613" lon="5.94203">
        <ele>801</ele>
        <time>2019-04-09T12:12:38Z</time>
      </trkpt>
      <trkpt lat="44.43613" lon="5.94215">
        <ele>800</ele>
        <time>2019-04-09T12:12:39Z</time>
      </trkpt>
      <trkpt lat="44.43612" lon="5.94228">
        <ele>800</ele>
        <time>2019-04-09T12:12:40Z</time>
      </trkpt>
      <trkpt lat="44.43611" lon="5.9424">
        <ele>800</ele>
        <time>2019-04-09T12:12:41Z</time>
      </trkpt>
      <trkpt lat="44.43608" lon="5.94251">
        <ele>800</ele>
        <time>2019-04-09T12:12:42Z</time>
      </trkpt>
      <trkpt lat="44.43606" lon="5.94262">
        <ele>800</ele>
        <time>2019-04-09T12:12:43Z</time>
      </trkpt>
      <trkpt lat="44.43604" lon="5.94273">
        <ele>800</ele>
        <time>2019-04-09T12:12:44Z</time>
      </trkpt>
      <trkpt lat="44.43601" lon="5.94283">
        <ele>799</ele>
        <time>2019-04-09T12:12:45Z</time>
      </trkpt>
      <trkpt lat="44.43598" lon="5.94293">
        <ele>799</ele>
        <time>2019-04-09T12:12:46Z</time>
      </trkpt>
      <trkpt lat="44.43596" lon="5.94304">
        <ele>799</ele>
        <time>2019-04-09T12:12:47Z</time>
      </trkpt>
      <trkpt lat="44.43593" lon="5.94313">
        <ele>799</ele>
        <time>2019-04-09T12:12:48Z</time>
      </trkpt>
      <trkpt lat="44.43591" lon="5.94323">
        <ele>798</ele>
        <time>2019-04-09T12:12:49Z</time>
      </trkpt>
      <trkpt lat="44.43589" lon="5.94333">
        <ele>798</ele>
        <time>2019-04-09T12:12:50Z</time>
      </trkpt>
      <trkpt lat="44.43586" lon="5.94343">
        <ele>798</ele>
        <time>2019-04-09T12:12:51Z</time>
      </trkpt>
      <trkpt lat="44.43583" lon="5.94352">
        <ele>797</ele>
        <time>2019-04-09T12:12:52Z</time>
      </trkpt>
      <trkpt lat="44.43581" lon="5.94361">
        <ele>797</ele>
        <time>2019-04-09T12:12:53Z</time>
      </trkpt>
      <trkpt lat="44.43579" lon="5.94371">
        <ele>797</ele>
        <time>2019-04-09T12:12:54Z</time>
      </trkpt>
      <trkpt lat="44.43576" lon="5.9438">
        <ele>796</ele>
        <time>2019-04-09T12:12:55Z</time>
      </trkpt>
      <trkpt lat="44.43574" lon="5.94389">
        <ele>796</ele>
        <time>2019-04-09T12:12:56Z</time>
      </trkpt>
      <trkpt lat="44.43572" lon="5.94399">
        <ele>796</ele>
        <time>2019-04-09T12:12:57Z</time>
      </trkpt>
      <trkpt lat="44.4357" lon="5.94408">
        <ele>795</ele>
        <time>2019-04-09T12:12:58Z</time>
      </trkpt>
      <trkpt lat="44.43568" lon="5.94417">
        <ele>795</ele>
        <time>2019-04-09T12:12:59Z</time>
      </trkpt>
      <trkpt lat="44.43565" lon="5.94426">
        <ele>795</ele>
        <time>2019-04-09T12:13:00Z</time>
      </trkpt>
      <trkpt lat="44.43564" lon="5.94435">
        <ele>795</ele>
        <time>2019-04-09T12:13:01Z</time>
      </trkpt>
      <trkpt lat="44.43562" lon="5.94444">
        <ele>795</ele>
        <time>2019-04-09T12:13:02Z</time>
      </trkpt>
      <trkpt lat="44.43562" lon="5.94453">
        <ele>794</ele>
        <time>2019-04-09T12:13:03Z</time>
      </trkpt>
      <trkpt lat="44.43562" lon="5.94463">
        <ele>794</ele>
        <time>2019-04-09T12:13:04Z</time>
      </trkpt>
      <trkpt lat="44.43564" lon="5.94472">
        <ele>794</ele>
        <time>2019-04-09T12:13:05Z</time>
      </trkpt>
      <trkpt lat="44.43566" lon="5.94481">
        <ele>794</ele>
        <time>2019-04-09T12:13:06Z</time>
      </trkpt>
      <trkpt lat="44.43569" lon="5.9449">
        <ele>793</ele>
        <time>2019-04-09T12:13:07Z</time>
      </trkpt>
      <trkpt lat="44.43573" lon="5.94498">
        <ele>793</ele>
        <time>2019-04-09T12:13:08Z</time>
      </trkpt>
      <trkpt lat="44.43578" lon="5.94506">
        <ele>793</ele>
        <time>2019-04-09T12:13:09Z</time>
      </trkpt>
      <trkpt lat="44.43582" lon="5.94513">
        <ele>793</ele>
        <time>2019-04-09T12:13:10Z</time>
      </trkpt>
      <trkpt lat="44.43588" lon="5.9452">
        <ele>792</ele>
        <time>2019-04-09T12:13:11Z</time>
      </trkpt>
      <trkpt lat="44.43593" lon="5.94527">
        <ele>792</ele>
        <time>2019-04-09T12:13:12Z</time>
      </trkpt>
      <trkpt lat="44.43599" lon="5.94533">
        <ele>792</ele>
        <time>2019-04-09T12:13:13Z</time>
      </trkpt>
      <trkpt lat="44.43604" lon="5.9454">
        <ele>791</ele>
        <time>2019-04-09T12:13:14Z</time>
      </trkpt>
      <trkpt lat="44.4361" lon="5.94548">
        <ele>791</ele>
        <time>2019-04-09T12:13:15Z</time>
      </trkpt>
      <trkpt lat="44.43616" lon="5.94555">
        <ele>790</ele>
        <time>2019-04-09T12:13:16Z</time>
      </trkpt>
      <trkpt lat="44.43622" lon="5.94562">
        <ele>790</ele>
        <time>2019-04-09T12:13:17Z</time>
      </trkpt>
      <trkpt lat="44.43628" lon="5.9457">
        <ele>789</ele>
        <time>2019-04-09T12:13:18Z</time>
      </trkpt>
      <trkpt lat="44.43633" lon="5.94579">
        <ele>789</ele>
        <time>2019-04-09T12:13:19Z</time>
      </trkpt>
      <trkpt lat="44.43639" lon="5.94588">
        <ele>789</ele>
        <time>2019-04-09T12:13:20Z</time>
      </trkpt>
      <trkpt lat="44.43644" lon="5.94597">
        <ele>788</ele>
        <time>2019-04-09T12:13:21Z</time>
      </trkpt>
      <trkpt lat="44.43648" lon="5.94607">
        <ele>788</ele>
        <time>2019-04-09T12:13:22Z</time>
      </trkpt>
      <trkpt lat="44.43652" lon="5.94617">
        <ele>788</ele>
        <time>2019-04-09T12:13:23Z</time>
      </trkpt>
      <trkpt lat="44.43657" lon="5.94626">
        <ele>788</ele>
        <time>2019-04-09T12:13:24Z</time>
      </trkpt>
      <trkpt lat="44.43661" lon="5.94636">
        <ele>787</ele>
        <time>2019-04-09T12:13:25Z</time>
      </trkpt>
      <trkpt lat="44.43665" lon="5.94646">
        <ele>787</ele>
        <time>2019-04-09T12:13:26Z</time>
      </trkpt>
      <trkpt lat="44.4367" lon="5.94656">
        <ele>787</ele>
        <time>2019-04-09T12:13:27Z</time>
      </trkpt>
      <trkpt lat="44.43673" lon="5.94666">
        <ele>787</ele>
        <time>2019-04-09T12:13:28Z</time>
      </trkpt>
      <trkpt lat="44.43677" lon="5.94676">
        <ele>787</ele>
        <time>2019-04-09T12:13:29Z</time>
      </trkpt>
      <trkpt lat="44.43681" lon="5.94687">
        <ele>786</ele>
        <time>2019-04-09T12:13:30Z</time>
      </trkpt>
      <trkpt lat="44.43684" lon="5.94697">
        <ele>786</ele>
        <time>2019-04-09T12:13:31Z</time>
      </trkpt>
      <trkpt lat="44.43686" lon="5.94708">
        <ele>786</ele>
        <time>2019-04-09T12:13:32Z</time>
      </trkpt>
      <trkpt lat="44.43688" lon="5.94719">
        <ele>786</ele>
        <time>2019-04-09T12:13:33Z</time>
      </trkpt>
      <trkpt lat="44.43689" lon="5.94729">
        <ele>786</ele>
        <time>2019-04-09T12:13:34Z</time>
      </trkpt>
      <trkpt lat="44.4369" lon="5.94739">
        <ele>786</ele>
        <time>2019-04-09T12:13:35Z</time>
      </trkpt>
      <trkpt lat="44.43691" lon="5.94749">
        <ele>786</ele>
        <time>2019-04-09T12:13:36Z</time>
      </trkpt>
      <trkpt lat="44.43692" lon="5.94759">
        <ele>786</ele>
        <time>2019-04-09T12:13:37Z</time>
      </trkpt>
      <trkpt lat="44.43693" lon="5.94769">
        <ele>786</ele>
        <time>2019-04-09T12:13:38Z</time>
      </trkpt>
      <trkpt lat="44.43694" lon="5.94778">
        <ele>786</ele>
        <time>2019-04-09T12:13:39Z</time>
      </trkpt>
      <trkpt lat="44.43695" lon="5.94788">
        <ele>786</ele>
        <time>2019-04-09T12:13:40Z</time>
      </trkpt>
      <trkpt lat="44.43696" lon="5.94797">
        <ele>786</ele>
        <time>2019-04-09T12:13:41Z</time>
      </trkpt>
      <trkpt lat="44.43697" lon="5.94806">
        <ele>786</ele>
        <time>2019-04-09T12:13:42Z</time>
      </trkpt>
      <trkpt lat="44.43698" lon="5.94815">
        <ele>786</ele>
        <time>2019-04-09T12:13:43Z</time>
      </trkpt>
      <trkpt lat="44.43699" lon="5.94825">
        <ele>786</ele>
        <time>2019-04-09T12:13:44Z</time>
      </trkpt>
      <trkpt lat="44.437" lon="5.94834">
        <ele>786</ele>
        <time>2019-04-09T12:13:45Z</time>
      </trkpt>
      <trkpt lat="44.437" lon="5.94843">
        <ele>786</ele>
        <time>2019-04-09T12:13:46Z</time>
      </trkpt>
      <trkpt lat="44.43701" lon="5.94852">
        <ele>786</ele>
        <time>2019-04-09T12:13:47Z</time>
      </trkpt>
      <trkpt lat="44.43702" lon="5.9486">
        <ele>786</ele>
        <time>2019-04-09T12:13:48Z</time>
      </trkpt>
      <trkpt lat="44.43703" lon="5.94869">
        <ele>786</ele>
        <time>2019-04-09T12:13:49Z</time>
      </trkpt>
      <trkpt lat="44.43704" lon="5.94877">
        <ele>786</ele>
        <time>2019-04-09T12:13:50Z</time>
      </trkpt>
      <trkpt lat="44.43705" lon="5.94885">
        <ele>786</ele>
        <time>2019-04-09T12:13:51Z</time>
      </trkpt>
      <trkpt lat="44.43706" lon="5.94894">
        <ele>786</ele>
        <time>2019-04-09T12:13:52Z</time>
      </trkpt>
      <trkpt lat="44.43707" lon="5.94901">
        <ele>786</ele>
        <time>2019-04-09T12:13:53Z</time>
      </trkpt>
      <trkpt lat="44.43708" lon="5.94909">
        <ele>786</ele>
        <time>2019-04-09T12:13:54Z</time>
      </trkpt>
      <trkpt lat="44.43708" lon="5.94916">
        <ele>786</ele>
        <time>2019-04-09T12:13:55Z</time>
      </trkpt>
      <trkpt lat="44.43709" lon="5.94924">
        <ele>786</ele>
        <time>2019-04-09T12:13:56Z</time>
      </trkpt>
      <trkpt lat="44.4371" lon="5.94932">
        <ele>786</ele>
        <time>2019-04-09T12:13:57Z</time>
      </trkpt>
      <trkpt lat="44.4371" lon="5.9494">
        <ele>786</ele>
        <time>2019-04-09T12:13:58Z</time>
      </trkpt>
      <trkpt lat="44.43711" lon="5.94947">
        <ele>786</ele>
        <time>2019-04-09T12:13:59Z</time>
      </trkpt>
      <trkpt lat="44.43712" lon="5.94955">
        <ele>786</ele>
        <time>2019-04-09T12:14:00Z</time>
      </trkpt>
      <trkpt lat="44.43713" lon="5.94962">
        <ele>786</ele>
        <time>2019-04-09T12:14:01Z</time>
      </trkpt>
      <trkpt lat="44.43715" lon="5.9497">
        <ele>786</ele>
        <time>2019-04-09T12:14:02Z</time>
      </trkpt>
      <trkpt lat="44.43716" lon="5.94978">
        <ele>786</ele>
        <time>2019-04-09T12:14:03Z</time>
      </trkpt>
      <trkpt lat="44.43717" lon="5.94986">
        <ele>785</ele>
        <time>2019-04-09T12:14:04Z</time>
      </trkpt>
      <trkpt lat="44.43719" lon="5.94995">
        <ele>785</ele>
        <time>2019-04-09T12:14:05Z</time>
      </trkpt>
      <trkpt lat="44.43721" lon="5.95003">
        <ele>785</ele>
        <time>2019-04-09T12:14:06Z</time>
      </trkpt>
      <trkpt lat="44.43724" lon="5.95011">
        <ele>785</ele>
        <time>2019-04-09T12:14:07Z</time>
      </trkpt>
      <trkpt lat="44.43727" lon="5.95018">
        <ele>785</ele>
        <time>2019-04-09T12:14:08Z</time>
      </trkpt>
      <trkpt lat="44.43731" lon="5.95024">
        <ele>785</ele>
        <time>2019-04-09T12:14:09Z</time>
      </trkpt>
      <trkpt lat="44.43736" lon="5.95029">
        <ele>784</ele>
        <time>2019-04-09T12:14:10Z</time>
      </trkpt>
      <trkpt lat="44.43741" lon="5.95031">
        <ele>784</ele>
        <time>2019-04-09T12:14:11Z</time>
      </trkpt>
      <trkpt lat="44.43746" lon="5.95034">
        <ele>784</ele>
        <time>2019-04-09T12:14:12Z</time>
      </trkpt>
      <trkpt lat="44.43749" lon="5.95037">
        <ele>784</ele>
        <time>2019-04-09T12:14:13Z</time>
      </trkpt>
      <trkpt lat="44.4375" lon="5.95042">
        <ele>784</ele>
        <time>2019-04-09T12:14:14Z</time>
      </trkpt>
      <trkpt lat="44.43752" lon="5.95046">
        <ele>784</ele>
        <time>2019-04-09T12:14:15Z</time>
      </trkpt>
      <trkpt lat="44.43753" lon="5.9505">
        <ele>784</ele>
        <time>2019-04-09T12:14:16Z</time>
      </trkpt>
      <trkpt lat="44.43754" lon="5.95055">
        <ele>784</ele>
        <time>2019-04-09T12:14:17Z</time>
      </trkpt>
      <trkpt lat="44.43756" lon="5.95059">
        <ele>783</ele>
        <time>2019-04-09T12:14:18Z</time>
      </trkpt>
      <trkpt lat="44.43758" lon="5.95063">
        <ele>783</ele>
        <time>2019-04-09T12:14:19Z</time>
      </trkpt>
      <trkpt lat="44.43762" lon="5.95066">
        <ele>783</ele>
        <time>2019-04-09T12:14:20Z</time>
      </trkpt>
      <trkpt lat="44.43766" lon="5.95069">
        <ele>783</ele>
        <time>2019-04-09T12:14:21Z</time>
      </trkpt>
      <trkpt lat="44.4377" lon="5.95072">
        <ele>783</ele>
        <time>2019-04-09T12:14:22Z</time>
      </trkpt>
      <trkpt lat="44.43774" lon="5.95074">
        <ele>783</ele>
        <time>2019-04-09T12:14:23Z</time>
      </trkpt>
      <trkpt lat="44.43778" lon="5.95076">
        <ele>783</ele>
        <time>2019-04-09T12:14:24Z</time>
      </trkpt>
      <trkpt lat="44.43782" lon="5.95078">
        <ele>783</ele>
        <time>2019-04-09T12:14:25Z</time>
      </trkpt>
      <trkpt lat="44.43787" lon="5.95079">
        <ele>783</ele>
        <time>2019-04-09T12:14:26Z</time>
      </trkpt>
      <trkpt lat="44.43791" lon="5.95081">
        <ele>783</ele>
        <time>2019-04-09T12:14:27Z</time>
      </trkpt>
      <trkpt lat="44.43795" lon="5.95082">
        <ele>783</ele>
        <time>2019-04-09T12:14:28Z</time>
      </trkpt>
      <trkpt lat="44.438" lon="5.95084">
        <ele>783</ele>
        <time>2019-04-09T12:14:29Z</time>
      </trkpt>
      <trkpt lat="44.43805" lon="5.95085">
        <ele>783</ele>
        <time>2019-04-09T12:14:30Z</time>
      </trkpt>
      <trkpt lat="44.43809" lon="5.95087">
        <ele>783</ele>
        <time>2019-04-09T12:14:31Z</time>
      </trkpt>
      <trkpt lat="44.43814" lon="5.9509">
        <ele>783</ele>
        <time>2019-04-09T12:14:32Z</time>
      </trkpt>
      <trkpt lat="44.43818" lon="5.95091">
        <ele>783</ele>
        <time>2019-04-09T12:14:33Z</time>
      </trkpt>
      <trkpt lat="44.43823" lon="5.95092">
        <ele>783</ele>
        <time>2019-04-09T12:14:34Z</time>
      </trkpt>
      <trkpt lat="44.43827" lon="5.95094">
        <ele>783</ele>
        <time>2019-04-09T12:14:35Z</time>
      </trkpt>
      <trkpt lat="44.43832" lon="5.95095">
        <ele>783</ele>
        <time>2019-04-09T12:14:36Z</time>
      </trkpt>
      <trkpt lat="44.43836" lon="5.95097">
        <ele>783</ele>
        <time>2019-04-09T12:14:37Z</time>
      </trkpt>
      <trkpt lat="44.43841" lon="5.95098">
        <ele>783</ele>
        <time>2019-04-09T12:14:38Z</time>
      </trkpt>
      <trkpt lat="44.43847" lon="5.951">
        <ele>783</ele>
        <time>2019-04-09T12:14:39Z</time>
      </trkpt>
      <trkpt lat="44.43851" lon="5.95101">
        <ele>783</ele>
        <time>2019-04-09T12:14:40Z</time>
      </trkpt>
      <trkpt lat="44.43856" lon="5.95103">
        <ele>783</ele>
        <time>2019-04-09T12:14:41Z</time>
      </trkpt>
      <trkpt lat="44.43862" lon="5.95104">
        <ele>783</ele>
        <time>2019-04-09T12:14:42Z</time>
      </trkpt>
      <trkpt lat="44.43867" lon="5.95106">
        <ele>783</ele>
        <time>2019-04-09T12:14:43Z</time>
      </trkpt>
      <trkpt lat="44.43872" lon="5.95108">
        <ele>783</ele>
        <time>2019-04-09T12:14:44Z</time>
      </trkpt>
      <trkpt lat="44.43877" lon="5.9511">
        <ele>783</ele>
        <time>2019-04-09T12:14:45Z</time>
      </trkpt>
      <trkpt lat="44.43882" lon="5.95111">
        <ele>783</ele>
        <time>2019-04-09T12:14:46Z</time>
      </trkpt>
      <trkpt lat="44.43887" lon="5.95113">
        <ele>783</ele>
        <time>2019-04-09T12:14:47Z</time>
      </trkpt>
      <trkpt lat="44.43893" lon="5.95114">
        <ele>783</ele>
        <time>2019-04-09T12:14:48Z</time>
      </trkpt>
      <trkpt lat="44.43898" lon="5.95116">
        <ele>783</ele>
        <time>2019-04-09T12:14:49Z</time>
      </trkpt>
      <trkpt lat="44.43903" lon="5.95119">
        <ele>783</ele>
        <time>2019-04-09T12:14:50Z</time>
      </trkpt>
      <trkpt lat="44.43908" lon="5.95122">
        <ele>783</ele>
        <time>2019-04-09T12:14:51Z</time>
      </trkpt>
      <trkpt lat="44.43913" lon="5.95126">
        <ele>783</ele>
        <time>2019-04-09T12:14:52Z</time>
      </trkpt>
      <trkpt lat="44.43918" lon="5.9513">
        <ele>783</ele>
        <time>2019-04-09T12:14:53Z</time>
      </trkpt>
      <trkpt lat="44.43923" lon="5.95135">
        <ele>783</ele>
        <time>2019-04-09T12:14:54Z</time>
      </trkpt>
      <trkpt lat="44.43928" lon="5.95139">
        <ele>783</ele>
        <time>2019-04-09T12:14:55Z</time>
      </trkpt>
      <trkpt lat="44.43932" lon="5.95144">
        <ele>783</ele>
        <time>2019-04-09T12:14:56Z</time>
      </trkpt>
      <trkpt lat="44.43937" lon="5.95149">
        <ele>783</ele>
        <time>2019-04-09T12:14:57Z</time>
      </trkpt>
      <trkpt lat="44.43941" lon="5.95154">
        <ele>783</ele>
        <time>2019-04-09T12:14:58Z</time>
      </trkpt>
      <trkpt lat="44.43945" lon="5.95158">
        <ele>783</ele>
        <time>2019-04-09T12:14:59Z</time>
      </trkpt>
      <trkpt lat="44.4395" lon="5.95163">
        <ele>783</ele>
        <time>2019-04-09T12:15:00Z</time>
      </trkpt>
      <trkpt lat="44.43954" lon="5.95169">
        <ele>783</ele>
        <time>2019-04-09T12:15:01Z</time>
      </trkpt>
      <trkpt lat="44.43958" lon="5.95174">
        <ele>783</ele>
        <time>2019-04-09T12:15:02Z</time>
      </trkpt>
      <trkpt lat="44.43963" lon="5.95179">
        <ele>783</ele>
        <time>2019-04-09T12:15:03Z</time>
      </trkpt>
      <trkpt lat="44.43967" lon="5.95185">
        <ele>783</ele>
        <time>2019-04-09T12:15:04Z</time>
      </trkpt>
      <trkpt lat="44.43972" lon="5.9519">
        <ele>783</ele>
        <time>2019-04-09T12:15:05Z</time>
      </trkpt>
      <trkpt lat="44.43976" lon="5.95195">
        <ele>783</ele>
        <time>2019-04-09T12:15:06Z</time>
      </trkpt>
      <trkpt lat="44.4398" lon="5.95201">
        <ele>783</ele>
        <time>2019-04-09T12:15:07Z</time>
      </trkpt>
      <trkpt lat="44.43984" lon="5.95206">
        <ele>783</ele>
        <time>2019-04-09T12:15:08Z</time>
      </trkpt>
      <trkpt lat="44.43988" lon="5.95212">
        <ele>783</ele>
        <time>2019-04-09T12:15:09Z</time>
      </trkpt>
      <trkpt lat="44.43991" lon="5.95218">
        <ele>783</ele>
        <time>2019-04-09T12:15:10Z</time>
      </trkpt>
      <trkpt lat="44.43993" lon="5.95225">
        <ele>783</ele>
        <time>2019-04-09T12:15:11Z</time>
      </trkpt>
      <trkpt lat="44.43996" lon="5.95232">
        <ele>783</ele>
        <time>2019-04-09T12:15:12Z</time>
      </trkpt>
      <trkpt lat="44.43998" lon="5.95239">
        <ele>783</ele>
        <time>2019-04-09T12:15:13Z</time>
      </trkpt>
      <trkpt lat="44.43999" lon="5.95247">
        <ele>783</ele>
        <time>2019-04-09T12:15:14Z</time>
      </trkpt>
      <trkpt lat="44.44" lon="5.95255">
        <ele>783</ele>
        <time>2019-04-09T12:15:15Z</time>
      </trkpt>
      <trkpt lat="44.44" lon="5.95263">
        <ele>783</ele>
        <time>2019-04-09T12:15:16Z</time>
      </trkpt>
      <trkpt lat="44.44" lon="5.95272">
        <ele>783</ele>
        <time>2019-04-09T12:15:17Z</time>
      </trkpt>
      <trkpt lat="44.43999" lon="5.9528">
        <ele>783</ele>
        <time>2019-04-09T12:15:18Z</time>
      </trkpt>
      <trkpt lat="44.43998" lon="5.95289">
        <ele>783</ele>
        <time>2019-04-09T12:15:19Z</time>
      </trkpt>
      <trkpt lat="44.43997" lon="5.95297">
        <ele>783</ele>
        <time>2019-04-09T12:15:20Z</time>
      </trkpt>
      <trkpt lat="44.43996" lon="5.95305">
        <ele>783</ele>
        <time>2019-04-09T12:15:21Z</time>
      </trkpt>
      <trkpt lat="44.43995" lon="5.95314">
        <ele>783</ele>
        <time>2019-04-09T12:15:22Z</time>
      </trkpt>
      <trkpt lat="44.43993" lon="5.95322">
        <ele>783</ele>
        <time>2019-04-09T12:15:23Z</time>
      </trkpt>
      <trkpt lat="44.43992" lon="5.9533">
        <ele>783</ele>
        <time>2019-04-09T12:15:24Z</time>
      </trkpt>
      <trkpt lat="44.43991" lon="5.95338">
        <ele>783</ele>
        <time>2019-04-09T12:15:25Z</time>
      </trkpt>
      <trkpt lat="44.4399" lon="5.95346">
        <ele>783</ele>
        <time>2019-04-09T12:15:26Z</time>
      </trkpt>
      <trkpt lat="44.43988" lon="5.95354">
        <ele>783</ele>
        <time>2019-04-09T12:15:27Z</time>
      </trkpt>
      <trkpt lat="44.43987" lon="5.95362">
        <ele>783</ele>
        <time>2019-04-09T12:15:28Z</time>
      </trkpt>
      <trkpt lat="44.43986" lon="5.9537">
        <ele>783</ele>
        <time>2019-04-09T12:15:29Z</time>
      </trkpt>
      <trkpt lat="44.43985" lon="5.95377">
        <ele>783</ele>
        <time>2019-04-09T12:15:30Z</time>
      </trkpt>
      <trkpt lat="44.43984" lon="5.95384">
        <ele>783</ele>
        <time>2019-04-09T12:15:31Z</time>
      </trkpt>
      <trkpt lat="44.43983" lon="5.95391">
        <ele>783</ele>
        <time>2019-04-09T12:15:32Z</time>
      </trkpt>
      <trkpt lat="44.43982" lon="5.95399">
        <ele>783</ele>
        <time>2019-04-09T12:15:33Z</time>
      </trkpt>
      <trkpt lat="44.43981" lon="5.95406">
        <ele>783</ele>
        <time>2019-04-09T12:15:34Z</time>
      </trkpt>
      <trkpt lat="44.4398" lon="5.95413">
        <ele>783</ele>
        <time>2019-04-09T12:15:35Z</time>
      </trkpt>
      <trkpt lat="44.43979" lon="5.95421">
        <ele>783</ele>
        <time>2019-04-09T12:15:36Z</time>
      </trkpt>
      <trkpt lat="44.43979" lon="5.95428">
        <ele>783</ele>
        <time>2019-04-09T12:15:37Z</time>
      </trkpt>
      <trkpt lat="44.43979" lon="5.95436">
        <ele>783</ele>
        <time>2019-04-09T12:15:38Z</time>
      </trkpt>
      <trkpt lat="44.43979" lon="5.95444">
        <ele>783</ele>
        <time>2019-04-09T12:15:39Z</time>
      </trkpt>
      <trkpt lat="44.43979" lon="5.95452">
        <ele>783</ele>
        <time>2019-04-09T12:15:40Z</time>
      </trkpt>
      <trkpt lat="44.43979" lon="5.9546">
        <ele>783</ele>
        <time>2019-04-09T12:15:41Z</time>
      </trkpt>
      <trkpt lat="44.4398" lon="5.95468">
        <ele>783</ele>
        <time>2019-04-09T12:15:42Z</time>
      </trkpt>
      <trkpt lat="44.4398" lon="5.95476">
        <ele>783</ele>
        <time>2019-04-09T12:15:43Z</time>
      </trkpt>
      <trkpt lat="44.43981" lon="5.95484">
        <ele>782</ele>
        <time>2019-04-09T12:15:44Z</time>
      </trkpt>
      <trkpt lat="44.43982" lon="5.95492">
        <ele>782</ele>
        <time>2019-04-09T12:15:45Z</time>
      </trkpt>
      <trkpt lat="44.43983" lon="5.955">
        <ele>782</ele>
        <time>2019-04-09T12:15:46Z</time>
      </trkpt>
      <trkpt lat="44.43984" lon="5.95508">
        <ele>782</ele>
        <time>2019-04-09T12:15:47Z</time>
      </trkpt>
      <trkpt lat="44.43986" lon="5.95515">
        <ele>782</ele>
        <time>2019-04-09T12:15:48Z</time>
      </trkpt>
      <trkpt lat="44.43987" lon="5.95523">
        <ele>782</ele>
        <time>2019-04-09T12:15:49Z</time>
      </trkpt>
      <trkpt lat="44.43989" lon="5.95531">
        <ele>782</ele>
        <time>2019-04-09T12:15:50Z</time>
      </trkpt>
      <trkpt lat="44.43992" lon="5.95538">
        <ele>782</ele>
        <time>2019-04-09T12:15:51Z</time>
      </trkpt>
      <trkpt lat="44.43994" lon="5.95544">
        <ele>782</ele>
        <time>2019-04-09T12:15:52Z</time>
      </trkpt>
      <trkpt lat="44.43997" lon="5.95551">
        <ele>782</ele>
        <time>2019-04-09T12:15:53Z</time>
      </trkpt>
      <trkpt lat="44.44" lon="5.95558">
        <ele>781</ele>
        <time>2019-04-09T12:15:54Z</time>
      </trkpt>
      <trkpt lat="44.44004" lon="5.95564">
        <ele>781</ele>
        <time>2019-04-09T12:15:55Z</time>
      </trkpt>
      <trkpt lat="44.44008" lon="5.9557">
        <ele>781</ele>
        <time>2019-04-09T12:15:56Z</time>
      </trkpt>
      <trkpt lat="44.44012" lon="5.95576">
        <ele>781</ele>
        <time>2019-04-09T12:15:57Z</time>
      </trkpt>
      <trkpt lat="44.44016" lon="5.95583">
        <ele>781</ele>
        <time>2019-04-09T12:15:58Z</time>
      </trkpt>
      <trkpt lat="44.4402" lon="5.9559">
        <ele>781</ele>
        <time>2019-04-09T12:15:59Z</time>
      </trkpt>
      <trkpt lat="44.44023" lon="5.95597">
        <ele>781</ele>
        <time>2019-04-09T12:16:00Z</time>
      </trkpt>
      <trkpt lat="44.44027" lon="5.95604">
        <ele>781</ele>
        <time>2019-04-09T12:16:01Z</time>
      </trkpt>
      <trkpt lat="44.4403" lon="5.95611">
        <ele>781</ele>
        <time>2019-04-09T12:16:02Z</time>
      </trkpt>
      <trkpt lat="44.44033" lon="5.95619">
        <ele>781</ele>
        <time>2019-04-09T12:16:03Z</time>
      </trkpt>
      <trkpt lat="44.44035" lon="5.95627">
        <ele>781</ele>
        <time>2019-04-09T12:16:04Z</time>
      </trkpt>
      <trkpt lat="44.44037" lon="5.95635">
        <ele>781</ele>
        <time>2019-04-09T12:16:05Z</time>
      </trkpt>
      <trkpt lat="44.44039" lon="5.95643">
        <ele>780</ele>
        <time>2019-04-09T12:16:06Z</time>
      </trkpt>
      <trkpt lat="44.44041" lon="5.95651">
        <ele>780</ele>
        <time>2019-04-09T12:16:07Z</time>
      </trkpt>
      <trkpt lat="44.44042" lon="5.9566">
        <ele>780</ele>
        <time>2019-04-09T12:16:08Z</time>
      </trkpt>
      <trkpt lat="44.44043" lon="5.95668">
        <ele>780</ele>
        <time>2019-04-09T12:16:09Z</time>
      </trkpt>
      <trkpt lat="44.44043" lon="5.95677">
        <ele>780</ele>
        <time>2019-04-09T12:16:10Z</time>
      </trkpt>
      <trkpt lat="44.44044" lon="5.95686">
        <ele>780</ele>
        <time>2019-04-09T12:16:11Z</time>
      </trkpt>
      <trkpt lat="44.44044" lon="5.95695">
        <ele>779</ele>
        <time>2019-04-09T12:16:12Z</time>
      </trkpt>
      <trkpt lat="44.44044" lon="5.95704">
        <ele>779</ele>
        <time>2019-04-09T12:16:13Z</time>
      </trkpt>
      <trkpt lat="44.44044" lon="5.95713">
        <ele>779</ele>
        <time>2019-04-09T12:16:14Z</time>
      </trkpt>
      <trkpt lat="44.44044" lon="5.95722">
        <ele>779</ele>
        <time>2019-04-09T12:16:15Z</time>
      </trkpt>
      <trkpt lat="44.44044" lon="5.9573">
        <ele>779</ele>
        <time>2019-04-09T12:16:16Z</time>
      </trkpt>
      <trkpt lat="44.44044" lon="5.95739">
        <ele>778</ele>
        <time>2019-04-09T12:16:17Z</time>
      </trkpt>
      <trkpt lat="44.44044" lon="5.95748">
        <ele>778</ele>
        <time>2019-04-09T12:16:18Z</time>
      </trkpt>
      <trkpt lat="44.44046" lon="5.95757">
        <ele>778</ele>
        <time>2019-04-09T12:16:19Z</time>
      </trkpt>
      <trkpt lat="44.44048" lon="5.95765">
        <ele>778</ele>
        <time>2019-04-09T12:16:20Z</time>
      </trkpt>
      <trkpt lat="44.44052" lon="5.95773">
        <ele>778</ele>
        <time>2019-04-09T12:16:21Z</time>
      </trkpt>
      <trkpt lat="44.44056" lon="5.95779">
        <ele>777</ele>
        <time>2019-04-09T12:16:22Z</time>
      </trkpt>
      <trkpt lat="44.44062" lon="5.95784">
        <ele>777</ele>
        <time>2019-04-09T12:16:23Z</time>
      </trkpt>
      <trkpt lat="44.44068" lon="5.95788">
        <ele>777</ele>
        <time>2019-04-09T12:16:24Z</time>
      </trkpt>
      <trkpt lat="44.44074" lon="5.95792">
        <ele>777</ele>
        <time>2019-04-09T12:16:25Z</time>
      </trkpt>
      <trkpt lat="44.4408" lon="5.95794">
        <ele>776</ele>
        <time>2019-04-09T12:16:26Z</time>
      </trkpt>
      <trkpt lat="44.44086" lon="5.95794">
        <ele>776</ele>
        <time>2019-04-09T12:16:27Z</time>
      </trkpt>
      <trkpt lat="44.44092" lon="5.95792">
        <ele>776</ele>
        <time>2019-04-09T12:16:28Z</time>
      </trkpt>
      <trkpt lat="44.44098" lon="5.95786">
        <ele>775</ele>
        <time>2019-04-09T12:16:29Z</time>
      </trkpt>
      <trkpt lat="44.44102" lon="5.95779">
        <ele>775</ele>
        <time>2019-04-09T12:16:30Z</time>
      </trkpt>
      <trkpt lat="44.44107" lon="5.95772">
        <ele>775</ele>
        <time>2019-04-09T12:16:31Z</time>
      </trkpt>
      <trkpt lat="44.44111" lon="5.95764">
        <ele>775</ele>
        <time>2019-04-09T12:16:32Z</time>
      </trkpt>
      <trkpt lat="44.44115" lon="5.95755">
        <ele>774</ele>
        <time>2019-04-09T12:16:33Z</time>
      </trkpt>
      <trkpt lat="44.44119" lon="5.95747">
        <ele>774</ele>
        <time>2019-04-09T12:16:34Z</time>
      </trkpt>
      <trkpt lat="44.44124" lon="5.95739">
        <ele>773</ele>
        <time>2019-04-09T12:16:35Z</time>
      </trkpt>
      <trkpt lat="44.44129" lon="5.95732">
        <ele>773</ele>
        <time>2019-04-09T12:16:36Z</time>
      </trkpt>
      <trkpt lat="44.44134" lon="5.95725">
        <ele>772</ele>
        <time>2019-04-09T12:16:37Z</time>
      </trkpt>
      <trkpt lat="44.4414" lon="5.95718">
        <ele>772</ele>
        <time>2019-04-09T12:16:38Z</time>
      </trkpt>
      <trkpt lat="44.44146" lon="5.95712">
        <ele>772</ele>
        <time>2019-04-09T12:16:39Z</time>
      </trkpt>
      <trkpt lat="44.44152" lon="5.95707">
        <ele>771</ele>
        <time>2019-04-09T12:16:40Z</time>
      </trkpt>
      <trkpt lat="44.44158" lon="5.957">
        <ele>771</ele>
        <time>2019-04-09T12:16:41Z</time>
      </trkpt>
      <trkpt lat="44.44164" lon="5.95694">
        <ele>771</ele>
        <time>2019-04-09T12:16:42Z</time>
      </trkpt>
      <trkpt lat="44.4417" lon="5.95688">
        <ele>771</ele>
        <time>2019-04-09T12:16:43Z</time>
      </trkpt>
      <trkpt lat="44.44176" lon="5.95681">
        <ele>770</ele>
        <time>2019-04-09T12:16:44Z</time>
      </trkpt>
      <trkpt lat="44.44182" lon="5.95675">
        <ele>770</ele>
        <time>2019-04-09T12:16:45Z</time>
      </trkpt>
      <trkpt lat="44.44188" lon="5.95668">
        <ele>769</ele>
        <time>2019-04-09T12:16:46Z</time>
      </trkpt>
      <trkpt lat="44.44194" lon="5.95661">
        <ele>769</ele>
        <time>2019-04-09T12:16:47Z</time>
      </trkpt>
      <trkpt lat="44.442" lon="5.95654">
        <ele>769</ele>
        <time>2019-04-09T12:16:48Z</time>
      </trkpt>
      <trkpt lat="44.44205" lon="5.95648">
        <ele>769</ele>
        <time>2019-04-09T12:16:49Z</time>
      </trkpt>
      <trkpt lat="44.44211" lon="5.95643">
        <ele>768</ele>
        <time>2019-04-09T12:16:50Z</time>
      </trkpt>
      <trkpt lat="44.44217" lon="5.95638">
        <ele>768</ele>
        <time>2019-04-09T12:16:51Z</time>
      </trkpt>
      <trkpt lat="44.44224" lon="5.95634">
        <ele>768</ele>
        <time>2019-04-09T12:16:52Z</time>
      </trkpt>
      <trkpt lat="44.44231" lon="5.9563">
        <ele>768</ele>
        <time>2019-04-09T12:16:53Z</time>
      </trkpt>
      <trkpt lat="44.44237" lon="5.95628">
        <ele>767</ele>
        <time>2019-04-09T12:16:54Z</time>
      </trkpt>
      <trkpt lat="44.44243" lon="5.9563">
        <ele>767</ele>
        <time>2019-04-09T12:16:55Z</time>
      </trkpt>
      <trkpt lat="44.44251" lon="5.95631">
        <ele>767</ele>
        <time>2019-04-09T12:16:56Z</time>
      </trkpt>
      <trkpt lat="44.44258" lon="5.95633">
        <ele>767</ele>
        <time>2019-04-09T12:16:57Z</time>
      </trkpt>
      <trkpt lat="44.44266" lon="5.95635">
        <ele>766</ele>
        <time>2019-04-09T12:16:58Z</time>
      </trkpt>
      <trkpt lat="44.44273" lon="5.95637">
        <ele>766</ele>
        <time>2019-04-09T12:16:59Z</time>
      </trkpt>
      <trkpt lat="44.44281" lon="5.9564">
        <ele>766</ele>
        <time>2019-04-09T12:17:00Z</time>
      </trkpt>
      <trkpt lat="44.44288" lon="5.95643">
        <ele>766</ele>
        <time>2019-04-09T12:17:01Z</time>
      </trkpt>
      <trkpt lat="44.44296" lon="5.95645">
        <ele>765</ele>
        <time>2019-04-09T12:17:02Z</time>
      </trkpt>
      <trkpt lat="44.44304" lon="5.95648">
        <ele>765</ele>
        <time>2019-04-09T12:17:03Z</time>
      </trkpt>
      <trkpt lat="44.44312" lon="5.9565">
        <ele>765</ele>
        <time>2019-04-09T12:17:04Z</time>
      </trkpt>
      <trkpt lat="44.4432" lon="5.95653">
        <ele>765</ele>
        <time>2019-04-09T12:17:05Z</time>
      </trkpt>
      <trkpt lat="44.44327" lon="5.95656">
        <ele>764</ele>
        <time>2019-04-09T12:17:06Z</time>
      </trkpt>
      <trkpt lat="44.44336" lon="5.9566">
        <ele>764</ele>
        <time>2019-04-09T12:17:07Z</time>
      </trkpt>
      <trkpt lat="44.44344" lon="5.95663">
        <ele>764</ele>
        <time>2019-04-09T12:17:08Z</time>
      </trkpt>
      <trkpt lat="44.44351" lon="5.95668">
        <ele>764</ele>
        <time>2019-04-09T12:17:09Z</time>
      </trkpt>
      <trkpt lat="44.44358" lon="5.95673">
        <ele>764</ele>
        <time>2019-04-09T12:17:10Z</time>
      </trkpt>
      <trkpt lat="44.44365" lon="5.95678">
        <ele>764</ele>
        <time>2019-04-09T12:17:11Z</time>
      </trkpt>
      <trkpt lat="44.44371" lon="5.95684">
        <ele>764</ele>
        <time>2019-04-09T12:17:12Z</time>
      </trkpt>
      <trkpt lat="44.44377" lon="5.9569">
        <ele>764</ele>
        <time>2019-04-09T12:17:13Z</time>
      </trkpt>
      <trkpt lat="44.44383" lon="5.95697">
        <ele>764</ele>
        <time>2019-04-09T12:17:14Z</time>
      </trkpt>
      <trkpt lat="44.44389" lon="5.95705">
        <ele>764</ele>
        <time>2019-04-09T12:17:15Z</time>
      </trkpt>
      <trkpt lat="44.44394" lon="5.95712">
        <ele>764</ele>
        <time>2019-04-09T12:17:16Z</time>
      </trkpt>
      <trkpt lat="44.44398" lon="5.95719">
        <ele>764</ele>
        <time>2019-04-09T12:17:17Z</time>
      </trkpt>
      <trkpt lat="44.44402" lon="5.95726">
        <ele>764</ele>
        <time>2019-04-09T12:17:18Z</time>
      </trkpt>
      <trkpt lat="44.44406" lon="5.95735">
        <ele>764</ele>
        <time>2019-04-09T12:17:19Z</time>
      </trkpt>
      <trkpt lat="44.44408" lon="5.95743">
        <ele>764</ele>
        <time>2019-04-09T12:17:20Z</time>
      </trkpt>
      <trkpt lat="44.44409" lon="5.95752">
        <ele>764</ele>
        <time>2019-04-09T12:17:21Z</time>
      </trkpt>
      <trkpt lat="44.44409" lon="5.9576">
        <ele>764</ele>
        <time>2019-04-09T12:17:22Z</time>
      </trkpt>
      <trkpt lat="44.44408" lon="5.95768">
        <ele>764</ele>
        <time>2019-04-09T12:17:23Z</time>
      </trkpt>
      <trkpt lat="44.44407" lon="5.95776">
        <ele>764</ele>
        <time>2019-04-09T12:17:24Z</time>
      </trkpt>
      <trkpt lat="44.44405" lon="5.95782">
        <ele>764</ele>
        <time>2019-04-09T12:17:25Z</time>
      </trkpt>
      <trkpt lat="44.44403" lon="5.95789">
        <ele>764</ele>
        <time>2019-04-09T12:17:26Z</time>
      </trkpt>
      <trkpt lat="44.444" lon="5.95795">
        <ele>764</ele>
        <time>2019-04-09T12:17:27Z</time>
      </trkpt>
      <trkpt lat="44.44397" lon="5.958">
        <ele>764</ele>
        <time>2019-04-09T12:17:28Z</time>
      </trkpt>
      <trkpt lat="44.44393" lon="5.95804">
        <ele>764</ele>
        <time>2019-04-09T12:17:29Z</time>
      </trkpt>
      <trkpt lat="44.44389" lon="5.95807">
        <ele>764</ele>
        <time>2019-04-09T12:17:30Z</time>
      </trkpt>
      <trkpt lat="44.44384" lon="5.95809">
        <ele>764</ele>
        <time>2019-04-09T12:17:31Z</time>
      </trkpt>
      <trkpt lat="44.4438" lon="5.9581">
        <ele>764</ele>
        <time>2019-04-09T12:17:32Z</time>
      </trkpt>
      <trkpt lat="44.44375" lon="5.9581">
        <ele>764</ele>
        <time>2019-04-09T12:17:33Z</time>
      </trkpt>
      <trkpt lat="44.4437" lon="5.95811">
        <ele>764</ele>
        <time>2019-04-09T12:17:34Z</time>
      </trkpt>
      <trkpt lat="44.44365" lon="5.95811">
        <ele>764</ele>
        <time>2019-04-09T12:17:35Z</time>
      </trkpt>
      <trkpt lat="44.4436" lon="5.95811">
        <ele>764</ele>
        <time>2019-04-09T12:17:36Z</time>
      </trkpt>
      <trkpt lat="44.44355" lon="5.95812">
        <ele>764</ele>
        <time>2019-04-09T12:17:37Z</time>
      </trkpt>
      <trkpt lat="44.4435" lon="5.95812">
        <ele>764</ele>
        <time>2019-04-09T12:17:38Z</time>
      </trkpt>
      <trkpt lat="44.44346" lon="5.95813">
        <ele>764</ele>
        <time>2019-04-09T12:17:39Z</time>
      </trkpt>
      <trkpt lat="44.44341" lon="5.95813">
        <ele>764</ele>
        <time>2019-04-09T12:17:40Z</time>
      </trkpt>
      <trkpt lat="44.44336" lon="5.95811">
        <ele>764</ele>
        <time>2019-04-09T12:17:41Z</time>
      </trkpt>
      <trkpt lat="44.44331" lon="5.9581">
        <ele>764</ele>
        <time>2019-04-09T12:17:42Z</time>
      </trkpt>
      <trkpt lat="44.44326" lon="5.95809">
        <ele>764</ele>
        <time>2019-04-09T12:17:43Z</time>
      </trkpt>
      <trkpt lat="44.44321" lon="5.9581">
        <ele>765</ele>
        <time>2019-04-09T12:17:44Z</time>
      </trkpt>
      <trkpt lat="44.44316" lon="5.95812">
        <ele>766</ele>
        <time>2019-04-09T12:17:45Z</time>
      </trkpt>
      <trkpt lat="44.44312" lon="5.95816">
        <ele>766</ele>
        <time>2019-04-09T12:17:46Z</time>
      </trkpt>
      <trkpt lat="44.44307" lon="5.95821">
        <ele>767</ele>
        <time>2019-04-09T12:17:47Z</time>
      </trkpt>
      <trkpt lat="44.44302" lon="5.95827">
        <ele>767</ele>
        <time>2019-04-09T12:17:48Z</time>
      </trkpt>
      <trkpt lat="44.44296" lon="5.95833">
        <ele>767</ele>
        <time>2019-04-09T12:17:49Z</time>
      </trkpt>
      <trkpt lat="44.44292" lon="5.9584">
        <ele>768</ele>
        <time>2019-04-09T12:17:50Z</time>
      </trkpt>
      <trkpt lat="44.44287" lon="5.95847">
        <ele>768</ele>
        <time>2019-04-09T12:17:51Z</time>
      </trkpt>
      <trkpt lat="44.44283" lon="5.95853">
        <ele>769</ele>
        <time>2019-04-09T12:17:52Z</time>
      </trkpt>
      <trkpt lat="44.44279" lon="5.95859">
        <ele>769</ele>
        <time>2019-04-09T12:17:53Z</time>
      </trkpt>
      <trkpt lat="44.44276" lon="5.95864">
        <ele>770</ele>
        <time>2019-04-09T12:17:54Z</time>
      </trkpt>
      <trkpt lat="44.44273" lon="5.95868">
        <ele>771</ele>
        <time>2019-04-09T12:17:55Z</time>
      </trkpt>
      <trkpt lat="44.4427" lon="5.95873">
        <ele>772</ele>
        <time>2019-04-09T12:17:56Z</time>
      </trkpt>
      <trkpt lat="44.44268" lon="5.95876">
        <ele>772</ele>
        <time>2019-04-09T12:17:57Z</time>
      </trkpt>
      <trkpt lat="44.44265" lon="5.9588">
        <ele>772</ele>
        <time>2019-04-09T12:17:58Z</time>
      </trkpt>
      <trkpt lat="44.44263" lon="5.95883">
        <ele>773</ele>
        <time>2019-04-09T12:17:59Z</time>
      </trkpt>
      <trkpt lat="44.44261" lon="5.95885">
        <ele>773</ele>
        <time>2019-04-09T12:18:00Z</time>
      </trkpt>
      <trkpt lat="44.44259" lon="5.95887">
        <ele>774</ele>
        <time>2019-04-09T12:18:01Z</time>
      </trkpt>
      <trkpt lat="44.44257" lon="5.95889">
        <ele>774</ele>
        <time>2019-04-09T12:18:02Z</time>
      </trkpt>
      <trkpt lat="44.44255" lon="5.95891">
        <ele>774</ele>
        <time>2019-04-09T12:18:03Z</time>
      </trkpt>
      <trkpt lat="44.44253" lon="5.95892">
        <ele>775</ele>
        <time>2019-04-09T12:18:04Z</time>
      </trkpt>
      <trkpt lat="44.44251" lon="5.95894">
        <ele>775</ele>
        <time>2019-04-09T12:18:05Z</time>
      </trkpt>
      <trkpt lat="44.44249" lon="5.95895">
        <ele>775</ele>
        <time>2019-04-09T12:18:06Z</time>
      </trkpt>
      <trkpt lat="44.44247" lon="5.95897">
        <ele>775</ele>
        <time>2019-04-09T12:18:07Z</time>
      </trkpt>
      <trkpt lat="44.44245" lon="5.95899">
        <ele>775</ele>
        <time>2019-04-09T12:18:08Z</time>
      </trkpt>
      <trkpt lat="44.44242" lon="5.95902">
        <ele>775</ele>
        <time>2019-04-09T12:18:09Z</time>
      </trkpt>
      <trkpt lat="44.4424" lon="5.95904">
        <ele>775</ele>
        <time>2019-04-09T12:18:10Z</time>
      </trkpt>
      <trkpt lat="44.44238" lon="5.95907">
        <ele>776</ele>
        <time>2019-04-09T12:18:11Z</time>
      </trkpt>
      <trkpt lat="44.44236" lon="5.9591">
        <ele>776</ele>
        <time>2019-04-09T12:18:12Z</time>
      </trkpt>
      <trkpt lat="44.44233" lon="5.95914">
        <ele>776</ele>
        <time>2019-04-09T12:18:13Z</time>
      </trkpt>
      <trkpt lat="44.44232" lon="5.95918">
        <ele>776</ele>
        <time>2019-04-09T12:18:14Z</time>
      </trkpt>
      <trkpt lat="44.4423" lon="5.95922">
        <ele>776</ele>
        <time>2019-04-09T12:18:15Z</time>
      </trkpt>
      <trkpt lat="44.44228" lon="5.95926">
        <ele>776</ele>
        <time>2019-04-09T12:18:16Z</time>
      </trkpt>
      <trkpt lat="44.44227" lon="5.9593">
        <ele>776</ele>
        <time>2019-04-09T12:18:17Z</time>
      </trkpt>
      <trkpt lat="44.44225" lon="5.95934">
        <ele>776</ele>
        <time>2019-04-09T12:18:18Z</time>
      </trkpt>
      <trkpt lat="44.44224" lon="5.95938">
        <ele>776</ele>
        <time>2019-04-09T12:18:19Z</time>
      </trkpt>
      <trkpt lat="44.44223" lon="5.95943">
        <ele>776</ele>
        <time>2019-04-09T12:18:20Z</time>
      </trkpt>
      <trkpt lat="44.44222" lon="5.95947">
        <ele>776</ele>
        <time>2019-04-09T12:18:21Z</time>
      </trkpt>
      <trkpt lat="44.44221" lon="5.95951">
        <ele>776</ele>
        <time>2019-04-09T12:18:22Z</time>
      </trkpt>
      <trkpt lat="44.4422" lon="5.95955">
        <ele>776</ele>
        <time>2019-04-09T12:18:23Z</time>
      </trkpt>
      <trkpt lat="44.44219" lon="5.9596">
        <ele>776</ele>
        <time>2019-04-09T12:18:24Z</time>
      </trkpt>
      <trkpt lat="44.44217" lon="5.95963">
        <ele>776</ele>
        <time>2019-04-09T12:18:25Z</time>
      </trkpt>
      <trkpt lat="44.44216" lon="5.95967">
        <ele>776</ele>
        <time>2019-04-09T12:18:26Z</time>
      </trkpt>
      <trkpt lat="44.44215" lon="5.95972">
        <ele>776</ele>
        <time>2019-04-09T12:18:27Z</time>
      </trkpt>
      <trkpt lat="44.44214" lon="5.95975">
        <ele>776</ele>
        <time>2019-04-09T12:18:28Z</time>
      </trkpt>
      <trkpt lat="44.44212" lon="5.95979">
        <ele>776</ele>
        <time>2019-04-09T12:18:29Z</time>
      </trkpt>
      <trkpt lat="44.44211" lon="5.95983">
        <ele>776</ele>
        <time>2019-04-09T12:18:30Z</time>
      </trkpt>
      <trkpt lat="44.44209" lon="5.95987">
        <ele>776</ele>
        <time>2019-04-09T12:18:31Z</time>
      </trkpt>
      <trkpt lat="44.44207" lon="5.9599">
        <ele>776</ele>
        <time>2019-04-09T12:18:32Z</time>
      </trkpt>
      <trkpt lat="44.44205" lon="5.95994">
        <ele>776</ele>
        <time>2019-04-09T12:18:33Z</time>
      </trkpt>
      <trkpt lat="44.44203" lon="5.95998">
        <ele>776</ele>
        <time>2019-04-09T12:18:34Z</time>
      </trkpt>
      <trkpt lat="44.44201" lon="5.96002">
        <ele>776</ele>
        <time>2019-04-09T12:18:35Z</time>
      </trkpt>
      <trkpt lat="44.44199" lon="5.96005">
        <ele>776</ele>
        <time>2019-04-09T12:18:36Z</time>
      </trkpt>
      <trkpt lat="44.44198" lon="5.9601">
        <ele>776</ele>
        <time>2019-04-09T12:18:37Z</time>
      </trkpt>
      <trkpt lat="44.44196" lon="5.96014">
        <ele>776</ele>
        <time>2019-04-09T12:18:38Z</time>
      </trkpt>
      <trkpt lat="44.44195" lon="5.96018">
        <ele>776</ele>
        <time>2019-04-09T12:18:39Z</time>
      </trkpt>
      <trkpt lat="44.44194" lon="5.96023">
        <ele>776</ele>
        <time>2019-04-09T12:18:40Z</time>
      </trkpt>
      <trkpt lat="44.44193" lon="5.96028">
        <ele>776</ele>
        <time>2019-04-09T12:18:41Z</time>
      </trkpt>
      <trkpt lat="44.44193" lon="5.96033">
        <ele>776</ele>
        <time>2019-04-09T12:18:42Z</time>
      </trkpt>
      <trkpt lat="44.44192" lon="5.96038">
        <ele>776</ele>
        <time>2019-04-09T12:18:43Z</time>
      </trkpt>
      <trkpt lat="44.44192" lon="5.96043">
        <ele>776</ele>
        <time>2019-04-09T12:18:44Z</time>
      </trkpt>
      <trkpt lat="44.44192" lon="5.96048">
        <ele>776</ele>
        <time>2019-04-09T12:18:45Z</time>
      </trkpt>
      <trkpt lat="44.44193" lon="5.96053">
        <ele>776</ele>
        <time>2019-04-09T12:18:46Z</time>
      </trkpt>
      <trkpt lat="44.44193" lon="5.96058">
        <ele>776</ele>
        <time>2019-04-09T12:18:47Z</time>
      </trkpt>
      <trkpt lat="44.44194" lon="5.96063">
        <ele>776</ele>
        <time>2019-04-09T12:18:48Z</time>
      </trkpt>
      <trkpt lat="44.44194" lon="5.96067">
        <ele>776</ele>
        <time>2019-04-09T12:18:49Z</time>
      </trkpt>
      <trkpt lat="44.44195" lon="5.96072">
        <ele>777</ele>
        <time>2019-04-09T12:18:50Z</time>
      </trkpt>
      <trkpt lat="44.44195" lon="5.96077">
        <ele>777</ele>
        <time>2019-04-09T12:18:51Z</time>
      </trkpt>
      <trkpt lat="44.44194" lon="5.96082">
        <ele>777</ele>
        <time>2019-04-09T12:18:52Z</time>
      </trkpt>
      <trkpt lat="44.44193" lon="5.96087">
        <ele>777</ele>
        <time>2019-04-09T12:18:53Z</time>
      </trkpt>
      <trkpt lat="44.44191" lon="5.96091">
        <ele>777</ele>
        <time>2019-04-09T12:18:54Z</time>
      </trkpt>
      <trkpt lat="44.44189" lon="5.96095">
        <ele>777</ele>
        <time>2019-04-09T12:18:55Z</time>
      </trkpt>
      <trkpt lat="44.44187" lon="5.96098">
        <ele>778</ele>
        <time>2019-04-09T12:18:56Z</time>
      </trkpt>
      <trkpt lat="44.44185" lon="5.96101">
        <ele>778</ele>
        <time>2019-04-09T12:18:57Z</time>
      </trkpt>
      <trkpt lat="44.44182" lon="5.96103">
        <ele>778</ele>
        <time>2019-04-09T12:18:58Z</time>
      </trkpt>
      <trkpt lat="44.44179" lon="5.96104">
        <ele>778</ele>
        <time>2019-04-09T12:18:59Z</time>
      </trkpt>
      <trkpt lat="44.44175" lon="5.96103">
        <ele>779</ele>
        <time>2019-04-09T12:19:00Z</time>
      </trkpt>
      <trkpt lat="44.44172" lon="5.96103">
        <ele>779</ele>
        <time>2019-04-09T12:19:01Z</time>
      </trkpt>
      <trkpt lat="44.44168" lon="5.96102">
        <ele>779</ele>
        <time>2019-04-09T12:19:02Z</time>
      </trkpt>
      <trkpt lat="44.44165" lon="5.96101">
        <ele>779</ele>
        <time>2019-04-09T12:19:03Z</time>
      </trkpt>
      <trkpt lat="44.4416" lon="5.96101">
        <ele>779</ele>
        <time>2019-04-09T12:19:04Z</time>
      </trkpt>
      <trkpt lat="44.44157" lon="5.961">
        <ele>779</ele>
        <time>2019-04-09T12:19:05Z</time>
      </trkpt>
      <trkpt lat="44.44153" lon="5.961">
        <ele>779</ele>
        <time>2019-04-09T12:19:06Z</time>
      </trkpt>
      <trkpt lat="44.44149" lon="5.961">
        <ele>779</ele>
        <time>2019-04-09T12:19:07Z</time>
      </trkpt>
      <trkpt lat="44.44145" lon="5.96101">
        <ele>779</ele>
        <time>2019-04-09T12:19:08Z</time>
      </trkpt>
      <trkpt lat="44.44141" lon="5.96102">
        <ele>779</ele>
        <time>2019-04-09T12:19:09Z</time>
      </trkpt>
      <trkpt lat="44.44136" lon="5.96103">
        <ele>779</ele>
        <time>2019-04-09T12:19:10Z</time>
      </trkpt>
      <trkpt lat="44.44132" lon="5.96104">
        <ele>779</ele>
        <time>2019-04-09T12:19:11Z</time>
      </trkpt>
      <trkpt lat="44.44128" lon="5.96107">
        <ele>779</ele>
        <time>2019-04-09T12:19:12Z</time>
      </trkpt>
      <trkpt lat="44.44124" lon="5.9611">
        <ele>779</ele>
        <time>2019-04-09T12:19:13Z</time>
      </trkpt>
      <trkpt lat="44.4412" lon="5.96114">
        <ele>779</ele>
        <time>2019-04-09T12:19:14Z</time>
      </trkpt>
      <trkpt lat="44.44117" lon="5.96118">
        <ele>779</ele>
        <time>2019-04-09T12:19:15Z</time>
      </trkpt>
      <trkpt lat="44.44114" lon="5.96123">
        <ele>779</ele>
        <time>2019-04-09T12:19:16Z</time>
      </trkpt>
      <trkpt lat="44.4411" lon="5.96129">
        <ele>780</ele>
        <time>2019-04-09T12:19:17Z</time>
      </trkpt>
      <trkpt lat="44.44108" lon="5.96135">
        <ele>780</ele>
        <time>2019-04-09T12:19:18Z</time>
      </trkpt>
      <trkpt lat="44.44105" lon="5.96141">
        <ele>780</ele>
        <time>2019-04-09T12:19:19Z</time>
      </trkpt>
      <trkpt lat="44.44103" lon="5.96147">
        <ele>780</ele>
        <time>2019-04-09T12:19:20Z</time>
      </trkpt>
      <trkpt lat="44.44101" lon="5.96154">
        <ele>780</ele>
        <time>2019-04-09T12:19:21Z</time>
      </trkpt>
      <trkpt lat="44.44099" lon="5.96161">
        <ele>780</ele>
        <time>2019-04-09T12:19:22Z</time>
      </trkpt>
      <trkpt lat="44.44096" lon="5.96168">
        <ele>780</ele>
        <time>2019-04-09T12:19:23Z</time>
      </trkpt>
      <trkpt lat="44.44094" lon="5.96175">
        <ele>780</ele>
        <time>2019-04-09T12:19:24Z</time>
      </trkpt>
      <trkpt lat="44.44092" lon="5.96183">
        <ele>780</ele>
        <time>2019-04-09T12:19:25Z</time>
      </trkpt>
      <trkpt lat="44.4409" lon="5.96191">
        <ele>780</ele>
        <time>2019-04-09T12:19:26Z</time>
      </trkpt>
      <trkpt lat="44.44088" lon="5.96198">
        <ele>780</ele>
        <time>2019-04-09T12:19:27Z</time>
      </trkpt>
      <trkpt lat="44.44085" lon="5.96206">
        <ele>780</ele>
        <time>2019-04-09T12:19:28Z</time>
      </trkpt>
      <trkpt lat="44.44083" lon="5.96213">
        <ele>780</ele>
        <time>2019-04-09T12:19:29Z</time>
      </trkpt>
      <trkpt lat="44.44081" lon="5.96222">
        <ele>780</ele>
        <time>2019-04-09T12:19:30Z</time>
      </trkpt>
      <trkpt lat="44.44079" lon="5.9623">
        <ele>780</ele>
        <time>2019-04-09T12:19:31Z</time>
      </trkpt>
      <trkpt lat="44.44077" lon="5.96238">
        <ele>780</ele>
        <time>2019-04-09T12:19:32Z</time>
      </trkpt>
      <trkpt lat="44.44074" lon="5.96247">
        <ele>780</ele>
        <time>2019-04-09T12:19:33Z</time>
      </trkpt>
      <trkpt lat="44.44071" lon="5.96255">
        <ele>780</ele>
        <time>2019-04-09T12:19:34Z</time>
      </trkpt>
      <trkpt lat="44.44069" lon="5.96264">
        <ele>780</ele>
        <time>2019-04-09T12:19:35Z</time>
      </trkpt>
      <trkpt lat="44.44066" lon="5.96272">
        <ele>780</ele>
        <time>2019-04-09T12:19:36Z</time>
      </trkpt>
      <trkpt lat="44.44063" lon="5.96281">
        <ele>780</ele>
        <time>2019-04-09T12:19:37Z</time>
      </trkpt>
      <trkpt lat="44.44061" lon="5.9629">
        <ele>780</ele>
        <time>2019-04-09T12:19:38Z</time>
      </trkpt>
      <trkpt lat="44.44058" lon="5.96299">
        <ele>780</ele>
        <time>2019-04-09T12:19:39Z</time>
      </trkpt>
      <trkpt lat="44.44055" lon="5.96308">
        <ele>780</ele>
        <time>2019-04-09T12:19:40Z</time>
      </trkpt>
      <trkpt lat="44.44053" lon="5.96317">
        <ele>780</ele>
        <time>2019-04-09T12:19:41Z</time>
      </trkpt>
      <trkpt lat="44.4405" lon="5.96326">
        <ele>780</ele>
        <time>2019-04-09T12:19:42Z</time>
      </trkpt>
      <trkpt lat="44.44047" lon="5.96335">
        <ele>780</ele>
        <time>2019-04-09T12:19:43Z</time>
      </trkpt>
      <trkpt lat="44.44044" lon="5.96344">
        <ele>780</ele>
        <time>2019-04-09T12:19:44Z</time>
      </trkpt>
      <trkpt lat="44.44041" lon="5.96353">
        <ele>780</ele>
        <time>2019-04-09T12:19:45Z</time>
      </trkpt>
      <trkpt lat="44.44038" lon="5.96362">
        <ele>780</ele>
        <time>2019-04-09T12:19:46Z</time>
      </trkpt>
      <trkpt lat="44.44035" lon="5.96372">
        <ele>780</ele>
        <time>2019-04-09T12:19:47Z</time>
      </trkpt>
      <trkpt lat="44.44032" lon="5.96381">
        <ele>780</ele>
        <time>2019-04-09T12:19:48Z</time>
      </trkpt>
      <trkpt lat="44.44029" lon="5.9639">
        <ele>780</ele>
        <time>2019-04-09T12:19:49Z</time>
      </trkpt>
      <trkpt lat="44.44026" lon="5.964">
        <ele>780</ele>
        <time>2019-04-09T12:19:50Z</time>
      </trkpt>
      <trkpt lat="44.44023" lon="5.9641">
        <ele>780</ele>
        <time>2019-04-09T12:19:51Z</time>
      </trkpt>
      <trkpt lat="44.44019" lon="5.96421">
        <ele>780</ele>
        <time>2019-04-09T12:19:52Z</time>
      </trkpt>
      <trkpt lat="44.44016" lon="5.96431">
        <ele>780</ele>
        <time>2019-04-09T12:19:53Z</time>
      </trkpt>
      <trkpt lat="44.44012" lon="5.96443">
        <ele>779</ele>
        <time>2019-04-09T12:19:54Z</time>
      </trkpt>
      <trkpt lat="44.44007" lon="5.96453">
        <ele>779</ele>
        <time>2019-04-09T12:19:55Z</time>
      </trkpt>
      <trkpt lat="44.44002" lon="5.96464">
        <ele>778</ele>
        <time>2019-04-09T12:19:56Z</time>
      </trkpt>
      <trkpt lat="44.43998" lon="5.96475">
        <ele>778</ele>
        <time>2019-04-09T12:19:57Z</time>
      </trkpt>
      <trkpt lat="44.43993" lon="5.96485">
        <ele>778</ele>
        <time>2019-04-09T12:19:58Z</time>
      </trkpt>
      <trkpt lat="44.43988" lon="5.96494">
        <ele>777</ele>
        <time>2019-04-09T12:19:59Z</time>
      </trkpt>
      <trkpt lat="44.43985" lon="5.96503">
        <ele>777</ele>
        <time>2019-04-09T12:20:00Z</time>
      </trkpt>
      <trkpt lat="44.43981" lon="5.96511">
        <ele>777</ele>
        <time>2019-04-09T12:20:01Z</time>
      </trkpt>
      <trkpt lat="44.43978" lon="5.96519">
        <ele>777</ele>
        <time>2019-04-09T12:20:02Z</time>
      </trkpt>
      <trkpt lat="44.43975" lon="5.96526">
        <ele>777</ele>
        <time>2019-04-09T12:20:03Z</time>
      </trkpt>
      <trkpt lat="44.43972" lon="5.96533">
        <ele>777</ele>
        <time>2019-04-09T12:20:04Z</time>
      </trkpt>
      <trkpt lat="44.4397" lon="5.9654">
        <ele>777</ele>
        <time>2019-04-09T12:20:05Z</time>
      </trkpt>
      <trkpt lat="44.43968" lon="5.96547">
        <ele>777</ele>
        <time>2019-04-09T12:20:06Z</time>
      </trkpt>
      <trkpt lat="44.43966" lon="5.96554">
        <ele>777</ele>
        <time>2019-04-09T12:20:07Z</time>
      </trkpt>
      <trkpt lat="44.43964" lon="5.9656">
        <ele>777</ele>
        <time>2019-04-09T12:20:08Z</time>
      </trkpt>
      <trkpt lat="44.43963" lon="5.96567">
        <ele>777</ele>
        <time>2019-04-09T12:20:09Z</time>
      </trkpt>
      <trkpt lat="44.43961" lon="5.96574">
        <ele>777</ele>
        <time>2019-04-09T12:20:10Z</time>
      </trkpt>
      <trkpt lat="44.4396" lon="5.96581">
        <ele>777</ele>
        <time>2019-04-09T12:20:11Z</time>
      </trkpt>
      <trkpt lat="44.43959" lon="5.96587">
        <ele>777</ele>
        <time>2019-04-09T12:20:12Z</time>
      </trkpt>
      <trkpt lat="44.43958" lon="5.96593">
        <ele>777</ele>
        <time>2019-04-09T12:20:13Z</time>
      </trkpt>
      <trkpt lat="44.43957" lon="5.96599">
        <ele>777</ele>
        <time>2019-04-09T12:20:14Z</time>
      </trkpt>
      <trkpt lat="44.43956" lon="5.96606">
        <ele>777</ele>
        <time>2019-04-09T12:20:15Z</time>
      </trkpt>
      <trkpt lat="44.43955" lon="5.96612">
        <ele>777</ele>
        <time>2019-04-09T12:20:16Z</time>
      </trkpt>
      <trkpt lat="44.43954" lon="5.96619">
        <ele>777</ele>
        <time>2019-04-09T12:20:17Z</time>
      </trkpt>
      <trkpt lat="44.43953" lon="5.96625">
        <ele>778</ele>
        <time>2019-04-09T12:20:18Z</time>
      </trkpt>
      <trkpt lat="44.43951" lon="5.9663">
        <ele>778</ele>
        <time>2019-04-09T12:20:19Z</time>
      </trkpt>
      <trkpt lat="44.4395" lon="5.96636">
        <ele>778</ele>
        <time>2019-04-09T12:20:20Z</time>
      </trkpt>
      <trkpt lat="44.43949" lon="5.96642">
        <ele>779</ele>
        <time>2019-04-09T12:20:21Z</time>
      </trkpt>
      <trkpt lat="44.43948" lon="5.96649">
        <ele>779</ele>
        <time>2019-04-09T12:20:22Z</time>
      </trkpt>
      <trkpt lat="44.43947" lon="5.96654">
        <ele>779</ele>
        <time>2019-04-09T12:20:23Z</time>
      </trkpt>
      <trkpt lat="44.43946" lon="5.9666">
        <ele>779</ele>
        <time>2019-04-09T12:20:24Z</time>
      </trkpt>
      <trkpt lat="44.43946" lon="5.96665">
        <ele>779</ele>
        <time>2019-04-09T12:20:25Z</time>
      </trkpt>
      <trkpt lat="44.43945" lon="5.9667">
        <ele>779</ele>
        <time>2019-04-09T12:20:26Z</time>
      </trkpt>
      <trkpt lat="44.43944" lon="5.96675">
        <ele>779</ele>
        <time>2019-04-09T12:20:27Z</time>
      </trkpt>
      <trkpt lat="44.43943" lon="5.9668">
        <ele>780</ele>
        <time>2019-04-09T12:20:28Z</time>
      </trkpt>
      <trkpt lat="44.43942" lon="5.96686">
        <ele>780</ele>
        <time>2019-04-09T12:20:29Z</time>
      </trkpt>
      <trkpt lat="44.43941" lon="5.96691">
        <ele>780</ele>
        <time>2019-04-09T12:20:30Z</time>
      </trkpt>
      <trkpt lat="44.43941" lon="5.96696">
        <ele>780</ele>
        <time>2019-04-09T12:20:31Z</time>
      </trkpt>
      <trkpt lat="44.4394" lon="5.96701">
        <ele>780</ele>
        <time>2019-04-09T12:20:32Z</time>
      </trkpt>
      <trkpt lat="44.43939" lon="5.96706">
        <ele>780</ele>
        <time>2019-04-09T12:20:33Z</time>
      </trkpt>
      <trkpt lat="44.43938" lon="5.96712">
        <ele>780</ele>
        <time>2019-04-09T12:20:34Z</time>
      </trkpt>
      <trkpt lat="44.43938" lon="5.96717">
        <ele>780</ele>
        <time>2019-04-09T12:20:35Z</time>
      </trkpt>
      <trkpt lat="44.43937" lon="5.96723">
        <ele>780</ele>
        <time>2019-04-09T12:20:36Z</time>
      </trkpt>
      <trkpt lat="44.43936" lon="5.96728">
        <ele>780</ele>
        <time>2019-04-09T12:20:37Z</time>
      </trkpt>
      <trkpt lat="44.43935" lon="5.96734">
        <ele>780</ele>
        <time>2019-04-09T12:20:38Z</time>
      </trkpt>
      <trkpt lat="44.43934" lon="5.96739">
        <ele>780</ele>
        <time>2019-04-09T12:20:39Z</time>
      </trkpt>
      <trkpt lat="44.43933" lon="5.96745">
        <ele>780</ele>
        <time>2019-04-09T12:20:40Z</time>
      </trkpt>
      <trkpt lat="44.43932" lon="5.96751">
        <ele>780</ele>
        <time>2019-04-09T12:20:41Z</time>
      </trkpt>
      <trkpt lat="44.43931" lon="5.96758">
        <ele>780</ele>
        <time>2019-04-09T12:20:42Z</time>
      </trkpt>
      <trkpt lat="44.4393" lon="5.96764">
        <ele>780</ele>
        <time>2019-04-09T12:20:43Z</time>
      </trkpt>
      <trkpt lat="44.4393" lon="5.96771">
        <ele>780</ele>
        <time>2019-04-09T12:20:44Z</time>
      </trkpt>
      <trkpt lat="44.43929" lon="5.96778">
        <ele>780</ele>
        <time>2019-04-09T12:20:45Z</time>
      </trkpt>
      <trkpt lat="44.43929" lon="5.96785">
        <ele>780</ele>
        <time>2019-04-09T12:20:46Z</time>
      </trkpt>
      <trkpt lat="44.43928" lon="5.96793">
        <ele>780</ele>
        <time>2019-04-09T12:20:47Z</time>
      </trkpt>
      <trkpt lat="44.43928" lon="5.968">
        <ele>780</ele>
        <time>2019-04-09T12:20:48Z</time>
      </trkpt>
      <trkpt lat="44.43928" lon="5.96808">
        <ele>780</ele>
        <time>2019-04-09T12:20:49Z</time>
      </trkpt>
      <trkpt lat="44.43928" lon="5.96816">
        <ele>780</ele>
        <time>2019-04-09T12:20:50Z</time>
      </trkpt>
      <trkpt lat="44.43929" lon="5.96824">
        <ele>780</ele>
        <time>2019-04-09T12:20:51Z</time>
      </trkpt>
      <trkpt lat="44.4393" lon="5.96833">
        <ele>780</ele>
        <time>2019-04-09T12:20:52Z</time>
      </trkpt>
      <trkpt lat="44.4393" lon="5.96841">
        <ele>780</ele>
        <time>2019-04-09T12:20:53Z</time>
      </trkpt>
      <trkpt lat="44.43931" lon="5.9685">
        <ele>780</ele>
        <time>2019-04-09T12:20:54Z</time>
      </trkpt>
      <trkpt lat="44.43932" lon="5.96858">
        <ele>780</ele>
        <time>2019-04-09T12:20:55Z</time>
      </trkpt>
      <trkpt lat="44.43932" lon="5.96867">
        <ele>780</ele>
        <time>2019-04-09T12:20:56Z</time>
      </trkpt>
      <trkpt lat="44.43933" lon="5.96876">
        <ele>780</ele>
        <time>2019-04-09T12:20:57Z</time>
      </trkpt>
      <trkpt lat="44.43933" lon="5.96884">
        <ele>780</ele>
        <time>2019-04-09T12:20:58Z</time>
      </trkpt>
      <trkpt lat="44.43934" lon="5.96893">
        <ele>780</ele>
        <time>2019-04-09T12:20:59Z</time>
      </trkpt>
      <trkpt lat="44.43935" lon="5.96902">
        <ele>780</ele>
        <time>2019-04-09T12:21:00Z</time>
      </trkpt>
      <trkpt lat="44.43935" lon="5.96911">
        <ele>780</ele>
        <time>2019-04-09T12:21:01Z</time>
      </trkpt>
      <trkpt lat="44.43937" lon="5.96921">
        <ele>780</ele>
        <time>2019-04-09T12:21:02Z</time>
      </trkpt>
      <trkpt lat="44.43938" lon="5.9693">
        <ele>780</ele>
        <time>2019-04-09T12:21:03Z</time>
      </trkpt>
      <trkpt lat="44.43938" lon="5.9694">
        <ele>780</ele>
        <time>2019-04-09T12:21:04Z</time>
      </trkpt>
      <trkpt lat="44.43939" lon="5.9695">
        <ele>780</ele>
        <time>2019-04-09T12:21:05Z</time>
      </trkpt>
      <trkpt lat="44.4394" lon="5.96961">
        <ele>780</ele>
        <time>2019-04-09T12:21:06Z</time>
      </trkpt>
      <trkpt lat="44.4394" lon="5.96972">
        <ele>780</ele>
        <time>2019-04-09T12:21:07Z</time>
      </trkpt>
      <trkpt lat="44.4394" lon="5.96983">
        <ele>780</ele>
        <time>2019-04-09T12:21:08Z</time>
      </trkpt>
      <trkpt lat="44.43941" lon="5.96993">
        <ele>780</ele>
        <time>2019-04-09T12:21:09Z</time>
      </trkpt>
      <trkpt lat="44.43942" lon="5.97004">
        <ele>780</ele>
        <time>2019-04-09T12:21:10Z</time>
      </trkpt>
      <trkpt lat="44.43945" lon="5.97015">
        <ele>780</ele>
        <time>2019-04-09T12:21:11Z</time>
      </trkpt>
      <trkpt lat="44.43949" lon="5.97024">
        <ele>780</ele>
        <time>2019-04-09T12:21:12Z</time>
      </trkpt>
      <trkpt lat="44.43953" lon="5.97033">
        <ele>780</ele>
        <time>2019-04-09T12:21:13Z</time>
      </trkpt>
      <trkpt lat="44.43959" lon="5.97041">
        <ele>780</ele>
        <time>2019-04-09T12:21:14Z</time>
      </trkpt>
      <trkpt lat="44.43964" lon="5.97049">
        <ele>780</ele>
        <time>2019-04-09T12:21:15Z</time>
      </trkpt>
      <trkpt lat="44.4397" lon="5.97057">
        <ele>780</ele>
        <time>2019-04-09T12:21:16Z</time>
      </trkpt>
      <trkpt lat="44.43975" lon="5.97065">
        <ele>780</ele>
        <time>2019-04-09T12:21:17Z</time>
      </trkpt>
      <trkpt lat="44.43981" lon="5.97074">
        <ele>780</ele>
        <time>2019-04-09T12:21:18Z</time>
      </trkpt>
      <trkpt lat="44.43985" lon="5.97084">
        <ele>780</ele>
        <time>2019-04-09T12:21:19Z</time>
      </trkpt>
      <trkpt lat="44.43987" lon="5.97096">
        <ele>780</ele>
        <time>2019-04-09T12:21:20Z</time>
      </trkpt>
      <trkpt lat="44.43987" lon="5.97108">
        <ele>780</ele>
        <time>2019-04-09T12:21:21Z</time>
      </trkpt>
      <trkpt lat="44.43984" lon="5.97118">
        <ele>780</ele>
        <time>2019-04-09T12:21:22Z</time>
      </trkpt>
      <trkpt lat="44.4398" lon="5.97128">
        <ele>780</ele>
        <time>2019-04-09T12:21:23Z</time>
      </trkpt>
      <trkpt lat="44.43976" lon="5.97136">
        <ele>780</ele>
        <time>2019-04-09T12:21:24Z</time>
      </trkpt>
      <trkpt lat="44.43971" lon="5.97144">
        <ele>780</ele>
        <time>2019-04-09T12:21:25Z</time>
      </trkpt>
      <trkpt lat="44.43966" lon="5.9715">
        <ele>780</ele>
        <time>2019-04-09T12:21:26Z</time>
      </trkpt>
      <trkpt lat="44.43961" lon="5.97156">
        <ele>780</ele>
        <time>2019-04-09T12:21:27Z</time>
      </trkpt>
      <trkpt lat="44.43957" lon="5.97162">
        <ele>780</ele>
        <time>2019-04-09T12:21:28Z</time>
      </trkpt>
      <trkpt lat="44.43954" lon="5.97168">
        <ele>780</ele>
        <time>2019-04-09T12:21:29Z</time>
      </trkpt>
      <trkpt lat="44.43951" lon="5.97174">
        <ele>780</ele>
        <time>2019-04-09T12:21:30Z</time>
      </trkpt>
      <trkpt lat="44.43948" lon="5.97181">
        <ele>780</ele>
        <time>2019-04-09T12:21:31Z</time>
      </trkpt>
      <trkpt lat="44.43947" lon="5.97188">
        <ele>780</ele>
        <time>2019-04-09T12:21:32Z</time>
      </trkpt>
      <trkpt lat="44.43945" lon="5.97194">
        <ele>780</ele>
        <time>2019-04-09T12:21:33Z</time>
      </trkpt>
      <trkpt lat="44.43943" lon="5.97201">
        <ele>780</ele>
        <time>2019-04-09T12:21:34Z</time>
      </trkpt>
      <trkpt lat="44.43942" lon="5.97207">
        <ele>780</ele>
        <time>2019-04-09T12:21:35Z</time>
      </trkpt>
      <trkpt lat="44.43941" lon="5.97214">
        <ele>780</ele>
        <time>2019-04-09T12:21:36Z</time>
      </trkpt>
      <trkpt lat="44.43939" lon="5.9722">
        <ele>780</ele>
        <time>2019-04-09T12:21:37Z</time>
      </trkpt>
      <trkpt lat="44.43938" lon="5.97226">
        <ele>780</ele>
        <time>2019-04-09T12:21:38Z</time>
      </trkpt>
      <trkpt lat="44.43937" lon="5.97232">
        <ele>780</ele>
        <time>2019-04-09T12:21:39Z</time>
      </trkpt>
      <trkpt lat="44.43936" lon="5.97238">
        <ele>780</ele>
        <time>2019-04-09T12:21:40Z</time>
      </trkpt>
      <trkpt lat="44.43935" lon="5.97244">
        <ele>780</ele>
        <time>2019-04-09T12:21:41Z</time>
      </trkpt>
      <trkpt lat="44.43933" lon="5.9725">
        <ele>780</ele>
        <time>2019-04-09T12:21:42Z</time>
      </trkpt>
      <trkpt lat="44.43932" lon="5.97256">
        <ele>780</ele>
        <time>2019-04-09T12:21:43Z</time>
      </trkpt>
      <trkpt lat="44.43931" lon="5.97261">
        <ele>780</ele>
        <time>2019-04-09T12:21:44Z</time>
      </trkpt>
      <trkpt lat="44.4393" lon="5.97266">
        <ele>780</ele>
        <time>2019-04-09T12:21:45Z</time>
      </trkpt>
      <trkpt lat="44.43929" lon="5.97271">
        <ele>780</ele>
        <time>2019-04-09T12:21:46Z</time>
      </trkpt>
      <trkpt lat="44.43929" lon="5.97276">
        <ele>780</ele>
        <time>2019-04-09T12:21:47Z</time>
      </trkpt>
      <trkpt lat="44.43927" lon="5.97281">
        <ele>780</ele>
        <time>2019-04-09T12:21:48Z</time>
      </trkpt>
      <trkpt lat="44.43926" lon="5.97287">
        <ele>781</ele>
        <time>2019-04-09T12:21:49Z</time>
      </trkpt>
      <trkpt lat="44.43925" lon="5.97293">
        <ele>781</ele>
        <time>2019-04-09T12:21:50Z</time>
      </trkpt>
      <trkpt lat="44.43924" lon="5.97298">
        <ele>781</ele>
        <time>2019-04-09T12:21:51Z</time>
      </trkpt>
      <trkpt lat="44.43922" lon="5.97304">
        <ele>781</ele>
        <time>2019-04-09T12:21:52Z</time>
      </trkpt>
      <trkpt lat="44.43922" lon="5.97311">
        <ele>782</ele>
        <time>2019-04-09T12:21:53Z</time>
      </trkpt>
      <trkpt lat="44.43921" lon="5.97317">
        <ele>782</ele>
        <time>2019-04-09T12:21:54Z</time>
      </trkpt>
      <trkpt lat="44.43919" lon="5.97323">
        <ele>782</ele>
        <time>2019-04-09T12:21:55Z</time>
      </trkpt>
      <trkpt lat="44.43918" lon="5.97328">
        <ele>782</ele>
        <time>2019-04-09T12:21:56Z</time>
      </trkpt>
      <trkpt lat="44.43917" lon="5.97334">
        <ele>783</ele>
        <time>2019-04-09T12:21:57Z</time>
      </trkpt>
      <trkpt lat="44.43916" lon="5.9734">
        <ele>783</ele>
        <time>2019-04-09T12:21:58Z</time>
      </trkpt>
      <trkpt lat="44.43915" lon="5.97347">
        <ele>783</ele>
        <time>2019-04-09T12:21:59Z</time>
      </trkpt>
      <trkpt lat="44.43914" lon="5.97353">
        <ele>783</ele>
        <time>2019-04-09T12:22:00Z</time>
      </trkpt>
      <trkpt lat="44.43913" lon="5.9736">
        <ele>783</ele>
        <time>2019-04-09T12:22:01Z</time>
      </trkpt>
      <trkpt lat="44.43912" lon="5.97366">
        <ele>784</ele>
        <time>2019-04-09T12:22:02Z</time>
      </trkpt>
      <trkpt lat="44.43911" lon="5.97372">
        <ele>784</ele>
        <time>2019-04-09T12:22:03Z</time>
      </trkpt>
      <trkpt lat="44.43909" lon="5.97378">
        <ele>784</ele>
        <time>2019-04-09T12:22:04Z</time>
      </trkpt>
      <trkpt lat="44.43908" lon="5.97384">
        <ele>784</ele>
        <time>2019-04-09T12:22:05Z</time>
      </trkpt>
      <trkpt lat="44.43907" lon="5.9739">
        <ele>785</ele>
        <time>2019-04-09T12:22:06Z</time>
      </trkpt>
      <trkpt lat="44.43906" lon="5.97396">
        <ele>785</ele>
        <time>2019-04-09T12:22:07Z</time>
      </trkpt>
      <trkpt lat="44.43905" lon="5.97402">
        <ele>785</ele>
        <time>2019-04-09T12:22:08Z</time>
      </trkpt>
      <trkpt lat="44.43903" lon="5.97408">
        <ele>785</ele>
        <time>2019-04-09T12:22:09Z</time>
      </trkpt>
      <trkpt lat="44.43902" lon="5.97414">
        <ele>785</ele>
        <time>2019-04-09T12:22:10Z</time>
      </trkpt>
      <trkpt lat="44.439" lon="5.9742">
        <ele>785</ele>
        <time>2019-04-09T12:22:11Z</time>
      </trkpt>
      <trkpt lat="44.43899" lon="5.97426">
        <ele>785</ele>
        <time>2019-04-09T12:22:12Z</time>
      </trkpt>
      <trkpt lat="44.43898" lon="5.97432">
        <ele>785</ele>
        <time>2019-04-09T12:22:13Z</time>
      </trkpt>
      <trkpt lat="44.43897" lon="5.97438">
        <ele>786</ele>
        <time>2019-04-09T12:22:14Z</time>
      </trkpt>
      <trkpt lat="44.43895" lon="5.97444">
        <ele>786</ele>
        <time>2019-04-09T12:22:15Z</time>
      </trkpt>
      <trkpt lat="44.43895" lon="5.9745">
        <ele>786</ele>
        <time>2019-04-09T12:22:16Z</time>
      </trkpt>
      <trkpt lat="44.43893" lon="5.97457">
        <ele>786</ele>
        <time>2019-04-09T12:22:17Z</time>
      </trkpt>
      <trkpt lat="44.43892" lon="5.97463">
        <ele>786</ele>
        <time>2019-04-09T12:22:18Z</time>
      </trkpt>
      <trkpt lat="44.43891" lon="5.97469">
        <ele>786</ele>
        <time>2019-04-09T12:22:19Z</time>
      </trkpt>
      <trkpt lat="44.4389" lon="5.97475">
        <ele>787</ele>
        <time>2019-04-09T12:22:20Z</time>
      </trkpt>
      <trkpt lat="44.43888" lon="5.97481">
        <ele>787</ele>
        <time>2019-04-09T12:22:21Z</time>
      </trkpt>
      <trkpt lat="44.43887" lon="5.97487">
        <ele>787</ele>
        <time>2019-04-09T12:22:22Z</time>
      </trkpt>
      <trkpt lat="44.43886" lon="5.97493">
        <ele>787</ele>
        <time>2019-04-09T12:22:23Z</time>
      </trkpt>
      <trkpt lat="44.43884" lon="5.975">
        <ele>787</ele>
        <time>2019-04-09T12:22:24Z</time>
      </trkpt>
      <trkpt lat="44.43883" lon="5.97505">
        <ele>787</ele>
        <time>2019-04-09T12:22:25Z</time>
      </trkpt>
      <trkpt lat="44.43882" lon="5.97511">
        <ele>787</ele>
        <time>2019-04-09T12:22:26Z</time>
      </trkpt>
      <trkpt lat="44.4388" lon="5.97518">
        <ele>787</ele>
        <time>2019-04-09T12:22:27Z</time>
      </trkpt>
      <trkpt lat="44.43878" lon="5.97524">
        <ele>787</ele>
        <time>2019-04-09T12:22:28Z</time>
      </trkpt>
      <trkpt lat="44.43877" lon="5.9753">
        <ele>787</ele>
        <time>2019-04-09T12:22:29Z</time>
      </trkpt>
      <trkpt lat="44.43875" lon="5.97536">
        <ele>787</ele>
        <time>2019-04-09T12:22:30Z</time>
      </trkpt>
      <trkpt lat="44.43873" lon="5.97542">
        <ele>788</ele>
        <time>2019-04-09T12:22:31Z</time>
      </trkpt>
      <trkpt lat="44.43871" lon="5.97548">
        <ele>788</ele>
        <time>2019-04-09T12:22:32Z</time>
      </trkpt>
      <trkpt lat="44.43869" lon="5.97554">
        <ele>788</ele>
        <time>2019-04-09T12:22:33Z</time>
      </trkpt>
      <trkpt lat="44.43867" lon="5.9756">
        <ele>788</ele>
        <time>2019-04-09T12:22:34Z</time>
      </trkpt>
      <trkpt lat="44.43865" lon="5.97566">
        <ele>788</ele>
        <time>2019-04-09T12:22:35Z</time>
      </trkpt>
      <trkpt lat="44.43863" lon="5.97572">
        <ele>788</ele>
        <time>2019-04-09T12:22:36Z</time>
      </trkpt>
      <trkpt lat="44.43861" lon="5.97577">
        <ele>788</ele>
        <time>2019-04-09T12:22:37Z</time>
      </trkpt>
      <trkpt lat="44.43859" lon="5.97583">
        <ele>788</ele>
        <time>2019-04-09T12:22:38Z</time>
      </trkpt>
      <trkpt lat="44.43857" lon="5.97589">
        <ele>789</ele>
        <time>2019-04-09T12:22:39Z</time>
      </trkpt>
      <trkpt lat="44.43855" lon="5.97594">
        <ele>789</ele>
        <time>2019-04-09T12:22:40Z</time>
      </trkpt>
      <trkpt lat="44.43853" lon="5.97601">
        <ele>789</ele>
        <time>2019-04-09T12:22:41Z</time>
      </trkpt>
      <trkpt lat="44.4385" lon="5.97606">
        <ele>789</ele>
        <time>2019-04-09T12:22:42Z</time>
      </trkpt>
      <trkpt lat="44.43848" lon="5.97612">
        <ele>789</ele>
        <time>2019-04-09T12:22:43Z</time>
      </trkpt>
      <trkpt lat="44.43846" lon="5.97618">
        <ele>789</ele>
        <time>2019-04-09T12:22:44Z</time>
      </trkpt>
      <trkpt lat="44.43844" lon="5.97624">
        <ele>789</ele>
        <time>2019-04-09T12:22:45Z</time>
      </trkpt>
      <trkpt lat="44.43842" lon="5.97631">
        <ele>789</ele>
        <time>2019-04-09T12:22:46Z</time>
      </trkpt>
      <trkpt lat="44.43839" lon="5.97637">
        <ele>789</ele>
        <time>2019-04-09T12:22:47Z</time>
      </trkpt>
      <trkpt lat="44.43837" lon="5.97643">
        <ele>789</ele>
        <time>2019-04-09T12:22:48Z</time>
      </trkpt>
      <trkpt lat="44.43835" lon="5.97649">
        <ele>789</ele>
        <time>2019-04-09T12:22:49Z</time>
      </trkpt>
      <trkpt lat="44.43832" lon="5.97655">
        <ele>789</ele>
        <time>2019-04-09T12:22:50Z</time>
      </trkpt>
      <trkpt lat="44.4383" lon="5.97661">
        <ele>790</ele>
        <time>2019-04-09T12:22:51Z</time>
      </trkpt>
      <trkpt lat="44.43828" lon="5.97667">
        <ele>790</ele>
        <time>2019-04-09T12:22:52Z</time>
      </trkpt>
      <trkpt lat="44.43826" lon="5.97674">
        <ele>790</ele>
        <time>2019-04-09T12:22:53Z</time>
      </trkpt>
      <trkpt lat="44.43824" lon="5.9768">
        <ele>790</ele>
        <time>2019-04-09T12:22:54Z</time>
      </trkpt>
      <trkpt lat="44.43821" lon="5.97686">
        <ele>790</ele>
        <time>2019-04-09T12:22:55Z</time>
      </trkpt>
      <trkpt lat="44.43819" lon="5.97692">
        <ele>790</ele>
        <time>2019-04-09T12:22:56Z</time>
      </trkpt>
      <trkpt lat="44.43817" lon="5.97698">
        <ele>790</ele>
        <time>2019-04-09T12:22:57Z</time>
      </trkpt>
      <trkpt lat="44.43815" lon="5.97704">
        <ele>790</ele>
        <time>2019-04-09T12:22:58Z</time>
      </trkpt>
      <trkpt lat="44.43813" lon="5.9771">
        <ele>790</ele>
        <time>2019-04-09T12:22:59Z</time>
      </trkpt>
      <trkpt lat="44.4381" lon="5.97716">
        <ele>790</ele>
        <time>2019-04-09T12:23:00Z</time>
      </trkpt>
      <trkpt lat="44.43808" lon="5.97722">
        <ele>790</ele>
        <time>2019-04-09T12:23:01Z</time>
      </trkpt>
      <trkpt lat="44.43806" lon="5.97728">
        <ele>790</ele>
        <time>2019-04-09T12:23:02Z</time>
      </trkpt>
      <trkpt lat="44.43803" lon="5.97734">
        <ele>790</ele>
        <time>2019-04-09T12:23:03Z</time>
      </trkpt>
      <trkpt lat="44.43801" lon="5.9774">
        <ele>791</ele>
        <time>2019-04-09T12:23:04Z</time>
      </trkpt>
      <trkpt lat="44.43799" lon="5.97746">
        <ele>791</ele>
        <time>2019-04-09T12:23:05Z</time>
      </trkpt>
      <trkpt lat="44.43796" lon="5.97752">
        <ele>791</ele>
        <time>2019-04-09T12:23:06Z</time>
      </trkpt>
      <trkpt lat="44.43794" lon="5.97758">
        <ele>791</ele>
        <time>2019-04-09T12:23:07Z</time>
      </trkpt>
      <trkpt lat="44.43792" lon="5.97764">
        <ele>791</ele>
        <time>2019-04-09T12:23:08Z</time>
      </trkpt>
      <trkpt lat="44.4379" lon="5.9777">
        <ele>791</ele>
        <time>2019-04-09T12:23:09Z</time>
      </trkpt>
      <trkpt lat="44.43787" lon="5.97776">
        <ele>791</ele>
        <time>2019-04-09T12:23:10Z</time>
      </trkpt>
      <trkpt lat="44.43785" lon="5.97782">
        <ele>791</ele>
        <time>2019-04-09T12:23:11Z</time>
      </trkpt>
      <trkpt lat="44.43782" lon="5.97788">
        <ele>791</ele>
        <time>2019-04-09T12:23:12Z</time>
      </trkpt>
      <trkpt lat="44.4378" lon="5.97794">
        <ele>791</ele>
        <time>2019-04-09T12:23:13Z</time>
      </trkpt>
      <trkpt lat="44.43779" lon="5.978">
        <ele>792</ele>
        <time>2019-04-09T12:23:14Z</time>
      </trkpt>
      <trkpt lat="44.43776" lon="5.97806">
        <ele>792</ele>
        <time>2019-04-09T12:23:15Z</time>
      </trkpt>
      <trkpt lat="44.43775" lon="5.97811">
        <ele>792</ele>
        <time>2019-04-09T12:23:16Z</time>
      </trkpt>
      <trkpt lat="44.43773" lon="5.97817">
        <ele>792</ele>
        <time>2019-04-09T12:23:17Z</time>
      </trkpt>
      <trkpt lat="44.43771" lon="5.97823">
        <ele>792</ele>
        <time>2019-04-09T12:23:18Z</time>
      </trkpt>
      <trkpt lat="44.4377" lon="5.9783">
        <ele>792</ele>
        <time>2019-04-09T12:23:19Z</time>
      </trkpt>
      <trkpt lat="44.43769" lon="5.97836">
        <ele>793</ele>
        <time>2019-04-09T12:23:20Z</time>
      </trkpt>
      <trkpt lat="44.4377" lon="5.97843">
        <ele>793</ele>
        <time>2019-04-09T12:23:21Z</time>
      </trkpt>
      <trkpt lat="44.4377" lon="5.97848">
        <ele>793</ele>
        <time>2019-04-09T12:23:22Z</time>
      </trkpt>
      <trkpt lat="44.43771" lon="5.97854">
        <ele>793</ele>
        <time>2019-04-09T12:23:23Z</time>
      </trkpt>
      <trkpt lat="44.43772" lon="5.9786">
        <ele>793</ele>
        <time>2019-04-09T12:23:24Z</time>
      </trkpt>
      <trkpt lat="44.43774" lon="5.97865">
        <ele>793</ele>
        <time>2019-04-09T12:23:25Z</time>
      </trkpt>
      <trkpt lat="44.43776" lon="5.97871">
        <ele>793</ele>
        <time>2019-04-09T12:23:26Z</time>
      </trkpt>
      <trkpt lat="44.43778" lon="5.97876">
        <ele>793</ele>
        <time>2019-04-09T12:23:27Z</time>
      </trkpt>
      <trkpt lat="44.43781" lon="5.9788">
        <ele>794</ele>
        <time>2019-04-09T12:23:28Z</time>
      </trkpt>
      <trkpt lat="44.43784" lon="5.97885">
        <ele>794</ele>
        <time>2019-04-09T12:23:29Z</time>
      </trkpt>
      <trkpt lat="44.43786" lon="5.97889">
        <ele>794</ele>
        <time>2019-04-09T12:23:30Z</time>
      </trkpt>
      <trkpt lat="44.43789" lon="5.97894">
        <ele>794</ele>
        <time>2019-04-09T12:23:31Z</time>
      </trkpt>
      <trkpt lat="44.43792" lon="5.97898">
        <ele>794</ele>
        <time>2019-04-09T12:23:32Z</time>
      </trkpt>
      <trkpt lat="44.43794" lon="5.97902">
        <ele>795</ele>
        <time>2019-04-09T12:23:33Z</time>
      </trkpt>
      <trkpt lat="44.43797" lon="5.97907">
        <ele>795</ele>
        <time>2019-04-09T12:23:34Z</time>
      </trkpt>
      <trkpt lat="44.438" lon="5.97911">
        <ele>795</ele>
        <time>2019-04-09T12:23:35Z</time>
      </trkpt>
      <trkpt lat="44.43803" lon="5.97915">
        <ele>795</ele>
        <time>2019-04-09T12:23:36Z</time>
      </trkpt>
      <trkpt lat="44.43806" lon="5.97919">
        <ele>795</ele>
        <time>2019-04-09T12:23:37Z</time>
      </trkpt>
      <trkpt lat="44.43808" lon="5.97923">
        <ele>796</ele>
        <time>2019-04-09T12:23:38Z</time>
      </trkpt>
      <trkpt lat="44.43811" lon="5.97928">
        <ele>796</ele>
        <time>2019-04-09T12:23:39Z</time>
      </trkpt>
      <trkpt lat="44.43814" lon="5.97932">
        <ele>796</ele>
        <time>2019-04-09T12:23:40Z</time>
      </trkpt>
      <trkpt lat="44.43816" lon="5.97936">
        <ele>796</ele>
        <time>2019-04-09T12:23:41Z</time>
      </trkpt>
      <trkpt lat="44.43818" lon="5.97941">
        <ele>796</ele>
        <time>2019-04-09T12:23:42Z</time>
      </trkpt>
      <trkpt lat="44.4382" lon="5.97946">
        <ele>796</ele>
        <time>2019-04-09T12:23:43Z</time>
      </trkpt>
      <trkpt lat="44.43821" lon="5.97951">
        <ele>796</ele>
        <time>2019-04-09T12:23:44Z</time>
      </trkpt>
      <trkpt lat="44.43822" lon="5.97956">
        <ele>797</ele>
        <time>2019-04-09T12:23:45Z</time>
      </trkpt>
      <trkpt lat="44.43822" lon="5.97962">
        <ele>797</ele>
        <time>2019-04-09T12:23:46Z</time>
      </trkpt>
      <trkpt lat="44.43822" lon="5.97967">
        <ele>797</ele>
        <time>2019-04-09T12:23:47Z</time>
      </trkpt>
      <trkpt lat="44.43821" lon="5.97972">
        <ele>797</ele>
        <time>2019-04-09T12:23:48Z</time>
      </trkpt>
      <trkpt lat="44.4382" lon="5.97976">
        <ele>797</ele>
        <time>2019-04-09T12:23:49Z</time>
      </trkpt>
      <trkpt lat="44.43819" lon="5.97981">
        <ele>797</ele>
        <time>2019-04-09T12:23:50Z</time>
      </trkpt>
      <trkpt lat="44.43817" lon="5.97985">
        <ele>798</ele>
        <time>2019-04-09T12:23:51Z</time>
      </trkpt>
      <trkpt lat="44.43816" lon="5.9799">
        <ele>798</ele>
        <time>2019-04-09T12:23:52Z</time>
      </trkpt>
      <trkpt lat="44.43815" lon="5.97994">
        <ele>798</ele>
        <time>2019-04-09T12:23:53Z</time>
      </trkpt>
      <trkpt lat="44.43814" lon="5.97998">
        <ele>798</ele>
        <time>2019-04-09T12:23:54Z</time>
      </trkpt>
      <trkpt lat="44.43813" lon="5.98003">
        <ele>799</ele>
        <time>2019-04-09T12:23:55Z</time>
      </trkpt>
      <trkpt lat="44.43811" lon="5.98007">
        <ele>799</ele>
        <time>2019-04-09T12:23:56Z</time>
      </trkpt>
      <trkpt lat="44.4381" lon="5.98011">
        <ele>799</ele>
        <time>2019-04-09T12:23:57Z</time>
      </trkpt>
      <trkpt lat="44.43809" lon="5.98015">
        <ele>799</ele>
        <time>2019-04-09T12:23:58Z</time>
      </trkpt>
      <trkpt lat="44.43808" lon="5.98019">
        <ele>800</ele>
        <time>2019-04-09T12:23:59Z</time>
      </trkpt>
      <trkpt lat="44.43806" lon="5.98023">
        <ele>800</ele>
        <time>2019-04-09T12:24:00Z</time>
      </trkpt>
      <trkpt lat="44.43805" lon="5.98027">
        <ele>800</ele>
        <time>2019-04-09T12:24:01Z</time>
      </trkpt>
      <trkpt lat="44.43805" lon="5.98031">
        <ele>800</ele>
        <time>2019-04-09T12:24:02Z</time>
      </trkpt>
      <trkpt lat="44.43804" lon="5.98034">
        <ele>801</ele>
        <time>2019-04-09T12:24:03Z</time>
      </trkpt>
      <trkpt lat="44.43803" lon="5.98038">
        <ele>801</ele>
        <time>2019-04-09T12:24:04Z</time>
      </trkpt>
      <trkpt lat="44.43801" lon="5.98042">
        <ele>801</ele>
        <time>2019-04-09T12:24:05Z</time>
      </trkpt>
      <trkpt lat="44.438" lon="5.98046">
        <ele>801</ele>
        <time>2019-04-09T12:24:06Z</time>
      </trkpt>
      <trkpt lat="44.43799" lon="5.98049">
        <ele>802</ele>
        <time>2019-04-09T12:24:07Z</time>
      </trkpt>
      <trkpt lat="44.43798" lon="5.98053">
        <ele>802</ele>
        <time>2019-04-09T12:24:08Z</time>
      </trkpt>
      <trkpt lat="44.43796" lon="5.98056">
        <ele>802</ele>
        <time>2019-04-09T12:24:09Z</time>
      </trkpt>
      <trkpt lat="44.43795" lon="5.9806">
        <ele>803</ele>
        <time>2019-04-09T12:24:10Z</time>
      </trkpt>
      <trkpt lat="44.43793" lon="5.98063">
        <ele>803</ele>
        <time>2019-04-09T12:24:11Z</time>
      </trkpt>
      <trkpt lat="44.43792" lon="5.98067">
        <ele>803</ele>
        <time>2019-04-09T12:24:12Z</time>
      </trkpt>
      <trkpt lat="44.43792" lon="5.9807">
        <ele>804</ele>
        <time>2019-04-09T12:24:13Z</time>
      </trkpt>
      <trkpt lat="44.4379" lon="5.98073">
        <ele>804</ele>
        <time>2019-04-09T12:24:14Z</time>
      </trkpt>
      <trkpt lat="44.43789" lon="5.98076">
        <ele>805</ele>
        <time>2019-04-09T12:24:15Z</time>
      </trkpt>
      <trkpt lat="44.43788" lon="5.9808">
        <ele>805</ele>
        <time>2019-04-09T12:24:16Z</time>
      </trkpt>
      <trkpt lat="44.43786" lon="5.98083">
        <ele>806</ele>
        <time>2019-04-09T12:24:17Z</time>
      </trkpt>
      <trkpt lat="44.43785" lon="5.98086">
        <ele>806</ele>
        <time>2019-04-09T12:24:18Z</time>
      </trkpt>
      <trkpt lat="44.43784" lon="5.98089">
        <ele>806</ele>
        <time>2019-04-09T12:24:19Z</time>
      </trkpt>
      <trkpt lat="44.43782" lon="5.98092">
        <ele>807</ele>
        <time>2019-04-09T12:24:20Z</time>
      </trkpt>
      <trkpt lat="44.43781" lon="5.98095">
        <ele>807</ele>
        <time>2019-04-09T12:24:21Z</time>
      </trkpt>
      <trkpt lat="44.4378" lon="5.98098">
        <ele>807</ele>
        <time>2019-04-09T12:24:22Z</time>
      </trkpt>
      <trkpt lat="44.43779" lon="5.98101">
        <ele>808</ele>
        <time>2019-04-09T12:24:23Z</time>
      </trkpt>
      <trkpt lat="44.43777" lon="5.98104">
        <ele>808</ele>
        <time>2019-04-09T12:24:24Z</time>
      </trkpt>
      <trkpt lat="44.43776" lon="5.98107">
        <ele>808</ele>
        <time>2019-04-09T12:24:25Z</time>
      </trkpt>
      <trkpt lat="44.43774" lon="5.9811">
        <ele>809</ele>
        <time>2019-04-09T12:24:26Z</time>
      </trkpt>
      <trkpt lat="44.43773" lon="5.98114">
        <ele>809</ele>
        <time>2019-04-09T12:24:27Z</time>
      </trkpt>
      <trkpt lat="44.43773" lon="5.98117">
        <ele>809</ele>
        <time>2019-04-09T12:24:28Z</time>
      </trkpt>
      <trkpt lat="44.43772" lon="5.98121">
        <ele>810</ele>
        <time>2019-04-09T12:24:29Z</time>
      </trkpt>
      <trkpt lat="44.43771" lon="5.98124">
        <ele>810</ele>
        <time>2019-04-09T12:24:30Z</time>
      </trkpt>
      <trkpt lat="44.4377" lon="5.98127">
        <ele>810</ele>
        <time>2019-04-09T12:24:31Z</time>
      </trkpt>
      <trkpt lat="44.43769" lon="5.9813">
        <ele>810</ele>
        <time>2019-04-09T12:24:32Z</time>
      </trkpt>
      <trkpt lat="44.43769" lon="5.98134">
        <ele>811</ele>
        <time>2019-04-09T12:24:33Z</time>
      </trkpt>
      <trkpt lat="44.43768" lon="5.98137">
        <ele>811</ele>
        <time>2019-04-09T12:24:34Z</time>
      </trkpt>
      <trkpt lat="44.43766" lon="5.9814">
        <ele>811</ele>
        <time>2019-04-09T12:24:35Z</time>
      </trkpt>
      <trkpt lat="44.43765" lon="5.98143">
        <ele>812</ele>
        <time>2019-04-09T12:24:36Z</time>
      </trkpt>
      <trkpt lat="44.43764" lon="5.98147">
        <ele>812</ele>
        <time>2019-04-09T12:24:37Z</time>
      </trkpt>
      <trkpt lat="44.43762" lon="5.9815">
        <ele>812</ele>
        <time>2019-04-09T12:24:38Z</time>
      </trkpt>
      <trkpt lat="44.43761" lon="5.98153">
        <ele>812</ele>
        <time>2019-04-09T12:24:39Z</time>
      </trkpt>
      <trkpt lat="44.4376" lon="5.98156">
        <ele>813</ele>
        <time>2019-04-09T12:24:40Z</time>
      </trkpt>
      <trkpt lat="44.43758" lon="5.9816">
        <ele>813</ele>
        <time>2019-04-09T12:24:41Z</time>
      </trkpt>
      <trkpt lat="44.43757" lon="5.98164">
        <ele>813</ele>
        <time>2019-04-09T12:24:42Z</time>
      </trkpt>
      <trkpt lat="44.43755" lon="5.98167">
        <ele>813</ele>
        <time>2019-04-09T12:24:43Z</time>
      </trkpt>
      <trkpt lat="44.43754" lon="5.98171">
        <ele>814</ele>
        <time>2019-04-09T12:24:44Z</time>
      </trkpt>
      <trkpt lat="44.43752" lon="5.98174">
        <ele>814</ele>
        <time>2019-04-09T12:24:45Z</time>
      </trkpt>
      <trkpt lat="44.4375" lon="5.98176">
        <ele>814</ele>
        <time>2019-04-09T12:24:46Z</time>
      </trkpt>
      <trkpt lat="44.43748" lon="5.98179">
        <ele>815</ele>
        <time>2019-04-09T12:24:47Z</time>
      </trkpt>
      <trkpt lat="44.43746" lon="5.98182">
        <ele>815</ele>
        <time>2019-04-09T12:24:48Z</time>
      </trkpt>
      <trkpt lat="44.43745" lon="5.98185">
        <ele>815</ele>
        <time>2019-04-09T12:24:49Z</time>
      </trkpt>
      <trkpt lat="44.43742" lon="5.98187">
        <ele>816</ele>
        <time>2019-04-09T12:24:50Z</time>
      </trkpt>
      <trkpt lat="44.4374" lon="5.9819">
        <ele>816</ele>
        <time>2019-04-09T12:24:51Z</time>
      </trkpt>
      <trkpt lat="44.43738" lon="5.98192">
        <ele>816</ele>
        <time>2019-04-09T12:24:52Z</time>
      </trkpt>
      <trkpt lat="44.43735" lon="5.98194">
        <ele>817</ele>
        <time>2019-04-09T12:24:53Z</time>
      </trkpt>
      <trkpt lat="44.43732" lon="5.98196">
        <ele>818</ele>
        <time>2019-04-09T12:24:54Z</time>
      </trkpt>
      <trkpt lat="44.4373" lon="5.98198">
        <ele>818</ele>
        <time>2019-04-09T12:24:55Z</time>
      </trkpt>
      <trkpt lat="44.43727" lon="5.982">
        <ele>819</ele>
        <time>2019-04-09T12:24:56Z</time>
      </trkpt>
      <trkpt lat="44.43725" lon="5.98202">
        <ele>820</ele>
        <time>2019-04-09T12:24:57Z</time>
      </trkpt>
      <trkpt lat="44.43722" lon="5.98203">
        <ele>820</ele>
        <time>2019-04-09T12:24:58Z</time>
      </trkpt>
      <trkpt lat="44.43719" lon="5.98205">
        <ele>820</ele>
        <time>2019-04-09T12:24:59Z</time>
      </trkpt>
      <trkpt lat="44.43717" lon="5.98206">
        <ele>821</ele>
        <time>2019-04-09T12:25:00Z</time>
      </trkpt>
      <trkpt lat="44.43715" lon="5.98206">
        <ele>821</ele>
        <time>2019-04-09T12:25:01Z</time>
      </trkpt>
      <trkpt lat="44.43712" lon="5.98206">
        <ele>821</ele>
        <time>2019-04-09T12:25:02Z</time>
      </trkpt>
      <trkpt lat="44.43709" lon="5.98205">
        <ele>822</ele>
        <time>2019-04-09T12:25:03Z</time>
      </trkpt>
      <trkpt lat="44.43707" lon="5.98204">
        <ele>822</ele>
        <time>2019-04-09T12:25:04Z</time>
      </trkpt>
      <trkpt lat="44.43704" lon="5.98202">
        <ele>822</ele>
        <time>2019-04-09T12:25:05Z</time>
      </trkpt>
      <trkpt lat="44.43702" lon="5.98199">
        <ele>822</ele>
        <time>2019-04-09T12:25:06Z</time>
      </trkpt>
      <trkpt lat="44.437" lon="5.98197">
        <ele>823</ele>
        <time>2019-04-09T12:25:07Z</time>
      </trkpt>
      <trkpt lat="44.43697" lon="5.98194">
        <ele>823</ele>
        <time>2019-04-09T12:25:08Z</time>
      </trkpt>
      <trkpt lat="44.43695" lon="5.98191">
        <ele>823</ele>
        <time>2019-04-09T12:25:09Z</time>
      </trkpt>
      <trkpt lat="44.43693" lon="5.98189">
        <ele>823</ele>
        <time>2019-04-09T12:25:10Z</time>
      </trkpt>
      <trkpt lat="44.43691" lon="5.98186">
        <ele>823</ele>
        <time>2019-04-09T12:25:11Z</time>
      </trkpt>
      <trkpt lat="44.43689" lon="5.98183">
        <ele>823</ele>
        <time>2019-04-09T12:25:12Z</time>
      </trkpt>
      <trkpt lat="44.43688" lon="5.9818">
        <ele>823</ele>
        <time>2019-04-09T12:25:13Z</time>
      </trkpt>
      <trkpt lat="44.43686" lon="5.98177">
        <ele>823</ele>
        <time>2019-04-09T12:25:14Z</time>
      </trkpt>
      <trkpt lat="44.43684" lon="5.98174">
        <ele>823</ele>
        <time>2019-04-09T12:25:15Z</time>
      </trkpt>
      <trkpt lat="44.43682" lon="5.98172">
        <ele>823</ele>
        <time>2019-04-09T12:25:16Z</time>
      </trkpt>
      <trkpt lat="44.4368" lon="5.98169">
        <ele>823</ele>
        <time>2019-04-09T12:25:17Z</time>
      </trkpt>
      <trkpt lat="44.43678" lon="5.98166">
        <ele>823</ele>
        <time>2019-04-09T12:25:18Z</time>
      </trkpt>
      <trkpt lat="44.43676" lon="5.98164">
        <ele>823</ele>
        <time>2019-04-09T12:25:19Z</time>
      </trkpt>
      <trkpt lat="44.43674" lon="5.98161">
        <ele>823</ele>
        <time>2019-04-09T12:25:20Z</time>
      </trkpt>
      <trkpt lat="44.43672" lon="5.98158">
        <ele>823</ele>
        <time>2019-04-09T12:25:21Z</time>
      </trkpt>
      <trkpt lat="44.4367" lon="5.98155">
        <ele>823</ele>
        <time>2019-04-09T12:25:22Z</time>
      </trkpt>
      <trkpt lat="44.43667" lon="5.98152">
        <ele>823</ele>
        <time>2019-04-09T12:25:23Z</time>
      </trkpt>
      <trkpt lat="44.43665" lon="5.98149">
        <ele>823</ele>
        <time>2019-04-09T12:25:24Z</time>
      </trkpt>
      <trkpt lat="44.43663" lon="5.98146">
        <ele>823</ele>
        <time>2019-04-09T12:25:25Z</time>
      </trkpt>
      <trkpt lat="44.43661" lon="5.98143">
        <ele>823</ele>
        <time>2019-04-09T12:25:26Z</time>
      </trkpt>
      <trkpt lat="44.43658" lon="5.98141">
        <ele>823</ele>
        <time>2019-04-09T12:25:27Z</time>
      </trkpt>
      <trkpt lat="44.43656" lon="5.98138">
        <ele>823</ele>
        <time>2019-04-09T12:25:28Z</time>
      </trkpt>
      <trkpt lat="44.43653" lon="5.98136">
        <ele>823</ele>
        <time>2019-04-09T12:25:29Z</time>
      </trkpt>
      <trkpt lat="44.4365" lon="5.98135">
        <ele>823</ele>
        <time>2019-04-09T12:25:30Z</time>
      </trkpt>
      <trkpt lat="44.43648" lon="5.98134">
        <ele>823</ele>
        <time>2019-04-09T12:25:31Z</time>
      </trkpt>
      <trkpt lat="44.43645" lon="5.98133">
        <ele>823</ele>
        <time>2019-04-09T12:25:32Z</time>
      </trkpt>
      <trkpt lat="44.43642" lon="5.98133">
        <ele>823</ele>
        <time>2019-04-09T12:25:33Z</time>
      </trkpt>
      <trkpt lat="44.43639" lon="5.98134">
        <ele>823</ele>
        <time>2019-04-09T12:25:34Z</time>
      </trkpt>
      <trkpt lat="44.43635" lon="5.98134">
        <ele>823</ele>
        <time>2019-04-09T12:25:35Z</time>
      </trkpt>
      <trkpt lat="44.43632" lon="5.98135">
        <ele>823</ele>
        <time>2019-04-09T12:25:36Z</time>
      </trkpt>
      <trkpt lat="44.43629" lon="5.98136">
        <ele>823</ele>
        <time>2019-04-09T12:25:37Z</time>
      </trkpt>
      <trkpt lat="44.43626" lon="5.98138">
        <ele>823</ele>
        <time>2019-04-09T12:25:38Z</time>
      </trkpt>
      <trkpt lat="44.43623" lon="5.98139">
        <ele>823</ele>
        <time>2019-04-09T12:25:39Z</time>
      </trkpt>
      <trkpt lat="44.4362" lon="5.9814">
        <ele>823</ele>
        <time>2019-04-09T12:25:40Z</time>
      </trkpt>
      <trkpt lat="44.43617" lon="5.9814">
        <ele>823</ele>
        <time>2019-04-09T12:25:41Z</time>
      </trkpt>
      <trkpt lat="44.43613" lon="5.98141">
        <ele>823</ele>
        <time>2019-04-09T12:25:42Z</time>
      </trkpt>
      <trkpt lat="44.4361" lon="5.98141">
        <ele>823</ele>
        <time>2019-04-09T12:25:43Z</time>
      </trkpt>
      <trkpt lat="44.43607" lon="5.98142">
        <ele>823</ele>
        <time>2019-04-09T12:25:44Z</time>
      </trkpt>
      <trkpt lat="44.43603" lon="5.98142">
        <ele>823</ele>
        <time>2019-04-09T12:25:45Z</time>
      </trkpt>
      <trkpt lat="44.436" lon="5.98142">
        <ele>823</ele>
        <time>2019-04-09T12:25:46Z</time>
      </trkpt>
      <trkpt lat="44.43596" lon="5.98141">
        <ele>823</ele>
        <time>2019-04-09T12:25:47Z</time>
      </trkpt>
      <trkpt lat="44.43593" lon="5.98141">
        <ele>823</ele>
        <time>2019-04-09T12:25:48Z</time>
      </trkpt>
      <trkpt lat="44.43589" lon="5.9814">
        <ele>823</ele>
        <time>2019-04-09T12:25:49Z</time>
      </trkpt>
      <trkpt lat="44.43586" lon="5.9814">
        <ele>823</ele>
        <time>2019-04-09T12:25:50Z</time>
      </trkpt>
      <trkpt lat="44.43583" lon="5.98139">
        <ele>823</ele>
        <time>2019-04-09T12:25:51Z</time>
      </trkpt>
      <trkpt lat="44.4358" lon="5.98139">
        <ele>824</ele>
        <time>2019-04-09T12:25:52Z</time>
      </trkpt>
      <trkpt lat="44.43577" lon="5.98138">
        <ele>824</ele>
        <time>2019-04-09T12:25:53Z</time>
      </trkpt>
      <trkpt lat="44.43574" lon="5.98138">
        <ele>824</ele>
        <time>2019-04-09T12:25:54Z</time>
      </trkpt>
      <trkpt lat="44.43571" lon="5.98138">
        <ele>824</ele>
        <time>2019-04-09T12:25:55Z</time>
      </trkpt>
      <trkpt lat="44.43568" lon="5.98137">
        <ele>824</ele>
        <time>2019-04-09T12:25:56Z</time>
      </trkpt>
      <trkpt lat="44.43565" lon="5.98136">
        <ele>825</ele>
        <time>2019-04-09T12:25:57Z</time>
      </trkpt>
      <trkpt lat="44.43562" lon="5.98136">
        <ele>825</ele>
        <time>2019-04-09T12:25:58Z</time>
      </trkpt>
      <trkpt lat="44.43559" lon="5.98136">
        <ele>825</ele>
        <time>2019-04-09T12:25:59Z</time>
      </trkpt>
      <trkpt lat="44.43556" lon="5.98136">
        <ele>825</ele>
        <time>2019-04-09T12:26:00Z</time>
      </trkpt>
      <trkpt lat="44.43553" lon="5.98136">
        <ele>825</ele>
        <time>2019-04-09T12:26:01Z</time>
      </trkpt>
      <trkpt lat="44.4355" lon="5.98136">
        <ele>825</ele>
        <time>2019-04-09T12:26:02Z</time>
      </trkpt>
      <trkpt lat="44.43547" lon="5.98137">
        <ele>826</ele>
        <time>2019-04-09T12:26:03Z</time>
      </trkpt>
      <trkpt lat="44.43544" lon="5.98138">
        <ele>826</ele>
        <time>2019-04-09T12:26:04Z</time>
      </trkpt>
      <trkpt lat="44.43541" lon="5.98139">
        <ele>826</ele>
        <time>2019-04-09T12:26:05Z</time>
      </trkpt>
      <trkpt lat="44.43539" lon="5.98139">
        <ele>826</ele>
        <time>2019-04-09T12:26:06Z</time>
      </trkpt>
      <trkpt lat="44.43536" lon="5.9814">
        <ele>826</ele>
        <time>2019-04-09T12:26:07Z</time>
      </trkpt>
      <trkpt lat="44.43534" lon="5.98141">
        <ele>826</ele>
        <time>2019-04-09T12:26:08Z</time>
      </trkpt>
      <trkpt lat="44.43532" lon="5.98142">
        <ele>826</ele>
        <time>2019-04-09T12:26:09Z</time>
      </trkpt>
      <trkpt lat="44.4353" lon="5.98143">
        <ele>827</ele>
        <time>2019-04-09T12:26:10Z</time>
      </trkpt>
      <trkpt lat="44.43528" lon="5.98144">
        <ele>827</ele>
        <time>2019-04-09T12:26:11Z</time>
      </trkpt>
      <trkpt lat="44.43527" lon="5.98144">
        <ele>828</ele>
        <time>2019-04-09T12:26:12Z</time>
      </trkpt>
      <trkpt lat="44.43525" lon="5.98146">
        <ele>828</ele>
        <time>2019-04-09T12:26:14Z</time>
      </trkpt>
      <trkpt lat="44.43524" lon="5.98147">
        <ele>828</ele>
        <time>2019-04-09T12:26:16Z</time>
      </trkpt>
      <trkpt lat="44.43525" lon="5.98146">
        <ele>829</ele>
        <time>2019-04-09T12:26:46Z</time>
      </trkpt>
      <trkpt lat="44.43524" lon="5.98144">
        <ele>829</ele>
        <time>2019-04-09T12:28:37Z</time>
      </trkpt>
      <trkpt lat="44.43523" lon="5.98143">
        <ele>829</ele>
        <time>2019-04-09T12:29:18Z</time>
      </trkpt>
      <trkpt lat="44.43521" lon="5.98142">
        <ele>829</ele>
        <time>2019-04-09T12:29:41Z</time>
      </trkpt>
      <trkpt lat="44.4352" lon="5.98141">
        <ele>829</ele>
        <time>2019-04-09T12:30:09Z</time>
      </trkpt>
      <trkpt lat="44.43521" lon="5.98142">
        <ele>829</ele>
        <time>2019-04-09T12:31:16Z</time>
      </trkpt>
      <trkpt lat="44.43522" lon="5.98143">
        <ele>829</ele>
        <time>2019-04-09T12:31:33Z</time>
      </trkpt>
      <trkpt lat="44.43523" lon="5.98145">
        <ele>829</ele>
        <time>2019-04-09T12:31:49Z</time>
      </trkpt>
      <trkpt lat="44.43523" lon="5.98146">
        <ele>829</ele>
        <time>2019-04-09T12:32:43Z</time>
      </trkpt>
      <trkpt lat="44.43522" lon="5.98146">
        <ele>829</ele>
        <time>2019-04-09T12:33:06Z</time>
      </trkpt>
      <trkpt lat="44.43521" lon="5.98143">
        <ele>829</ele>
        <time>2019-04-09T12:33:08Z</time>
      </trkpt>
      <trkpt lat="44.43521" lon="5.98141">
        <ele>829</ele>
        <time>2019-04-09T12:33:09Z</time>
      </trkpt>
      <trkpt lat="44.43521" lon="5.98138">
        <ele>829</ele>
        <time>2019-04-09T12:33:10Z</time>
      </trkpt>
      <trkpt lat="44.43521" lon="5.98135">
        <ele>829</ele>
        <time>2019-04-09T12:33:11Z</time>
      </trkpt>
      <trkpt lat="44.4352" lon="5.98131">
        <ele>829</ele>
        <time>2019-04-09T12:33:12Z</time>
      </trkpt>
      <trkpt lat="44.43518" lon="5.98128">
        <ele>830</ele>
        <time>2019-04-09T12:33:13Z</time>
      </trkpt>
      <trkpt lat="44.43515" lon="5.98126">
        <ele>830</ele>
        <time>2019-04-09T12:33:14Z</time>
      </trkpt>
      <trkpt lat="44.43512" lon="5.98126">
        <ele>830</ele>
        <time>2019-04-09T12:33:15Z</time>
      </trkpt>
      <trkpt lat="44.43509" lon="5.98127">
        <ele>830</ele>
        <time>2019-04-09T12:33:16Z</time>
      </trkpt>
      <trkpt lat="44.43506" lon="5.98127">
        <ele>830</ele>
        <time>2019-04-09T12:33:17Z</time>
      </trkpt>
      <trkpt lat="44.43502" lon="5.98128">
        <ele>830</ele>
        <time>2019-04-09T12:33:18Z</time>
      </trkpt>
      <trkpt lat="44.43498" lon="5.98129">
        <ele>830</ele>
        <time>2019-04-09T12:33:19Z</time>
      </trkpt>
      <trkpt lat="44.43493" lon="5.98132">
        <ele>830</ele>
        <time>2019-04-09T12:33:20Z</time>
      </trkpt>
      <trkpt lat="44.43488" lon="5.98135">
        <ele>830</ele>
        <time>2019-04-09T12:33:21Z</time>
      </trkpt>
      <trkpt lat="44.43483" lon="5.98138">
        <ele>830</ele>
        <time>2019-04-09T12:33:22Z</time>
      </trkpt>
      <trkpt lat="44.43478" lon="5.98142">
        <ele>830</ele>
        <time>2019-04-09T12:33:23Z</time>
      </trkpt>
      <trkpt lat="44.43473" lon="5.98145">
        <ele>830</ele>
        <time>2019-04-09T12:33:24Z</time>
      </trkpt>
      <trkpt lat="44.43468" lon="5.98147">
        <ele>830</ele>
        <time>2019-04-09T12:33:25Z</time>
      </trkpt>
      <trkpt lat="44.43464" lon="5.9815">
        <ele>830</ele>
        <time>2019-04-09T12:33:26Z</time>
      </trkpt>
      <trkpt lat="44.43459" lon="5.98153">
        <ele>829</ele>
        <time>2019-04-09T12:33:27Z</time>
      </trkpt>
      <trkpt lat="44.43455" lon="5.98157">
        <ele>828</ele>
        <time>2019-04-09T12:33:28Z</time>
      </trkpt>
      <trkpt lat="44.4345" lon="5.98162">
        <ele>828</ele>
        <time>2019-04-09T12:33:29Z</time>
      </trkpt>
      <trkpt lat="44.43445" lon="5.98167">
        <ele>828</ele>
        <time>2019-04-09T12:33:30Z</time>
      </trkpt>
      <trkpt lat="44.4344" lon="5.98174">
        <ele>828</ele>
        <time>2019-04-09T12:33:31Z</time>
      </trkpt>
      <trkpt lat="44.43436" lon="5.9818">
        <ele>828</ele>
        <time>2019-04-09T12:33:32Z</time>
      </trkpt>
      <trkpt lat="44.43431" lon="5.98188">
        <ele>828</ele>
        <time>2019-04-09T12:33:33Z</time>
      </trkpt>
      <trkpt lat="44.43425" lon="5.98195">
        <ele>828</ele>
        <time>2019-04-09T12:33:34Z</time>
      </trkpt>
      <trkpt lat="44.4342" lon="5.98203">
        <ele>827</ele>
        <time>2019-04-09T12:33:35Z</time>
      </trkpt>
      <trkpt lat="44.43415" lon="5.9821">
        <ele>827</ele>
        <time>2019-04-09T12:33:36Z</time>
      </trkpt>
      <trkpt lat="44.4341" lon="5.98216">
        <ele>826</ele>
        <time>2019-04-09T12:33:37Z</time>
      </trkpt>
      <trkpt lat="44.43404" lon="5.98222">
        <ele>825</ele>
        <time>2019-04-09T12:33:38Z</time>
      </trkpt>
      <trkpt lat="44.43398" lon="5.98229">
        <ele>825</ele>
        <time>2019-04-09T12:33:39Z</time>
      </trkpt>
      <trkpt lat="44.43392" lon="5.98235">
        <ele>824</ele>
        <time>2019-04-09T12:33:40Z</time>
      </trkpt>
      <trkpt lat="44.43386" lon="5.9824">
        <ele>823</ele>
        <time>2019-04-09T12:33:41Z</time>
      </trkpt>
      <trkpt lat="44.4338" lon="5.98245">
        <ele>823</ele>
        <time>2019-04-09T12:33:42Z</time>
      </trkpt>
      <trkpt lat="44.43373" lon="5.9825">
        <ele>822</ele>
        <time>2019-04-09T12:33:43Z</time>
      </trkpt>
      <trkpt lat="44.43367" lon="5.98254">
        <ele>822</ele>
        <time>2019-04-09T12:33:44Z</time>
      </trkpt>
      <trkpt lat="44.43361" lon="5.98258">
        <ele>822</ele>
        <time>2019-04-09T12:33:45Z</time>
      </trkpt>
      <trkpt lat="44.43356" lon="5.98262">
        <ele>821</ele>
        <time>2019-04-09T12:33:46Z</time>
      </trkpt>
      <trkpt lat="44.4335" lon="5.98266">
        <ele>821</ele>
        <time>2019-04-09T12:33:47Z</time>
      </trkpt>
      <trkpt lat="44.43344" lon="5.9827">
        <ele>821</ele>
        <time>2019-04-09T12:33:48Z</time>
      </trkpt>
      <trkpt lat="44.43338" lon="5.98273">
        <ele>820</ele>
        <time>2019-04-09T12:33:49Z</time>
      </trkpt>
      <trkpt lat="44.43331" lon="5.98275">
        <ele>820</ele>
        <time>2019-04-09T12:33:50Z</time>
      </trkpt>
      <trkpt lat="44.43325" lon="5.98276">
        <ele>819</ele>
        <time>2019-04-09T12:33:51Z</time>
      </trkpt>
      <trkpt lat="44.43318" lon="5.98277">
        <ele>819</ele>
        <time>2019-04-09T12:33:52Z</time>
      </trkpt>
      <trkpt lat="44.43312" lon="5.98276">
        <ele>818</ele>
        <time>2019-04-09T12:33:53Z</time>
      </trkpt>
      <trkpt lat="44.43306" lon="5.98274">
        <ele>818</ele>
        <time>2019-04-09T12:33:54Z</time>
      </trkpt>
      <trkpt lat="44.433" lon="5.98272">
        <ele>817</ele>
        <time>2019-04-09T12:33:55Z</time>
      </trkpt>
      <trkpt lat="44.43294" lon="5.9827">
        <ele>816</ele>
        <time>2019-04-09T12:33:56Z</time>
      </trkpt>
      <trkpt lat="44.43289" lon="5.98268">
        <ele>816</ele>
        <time>2019-04-09T12:33:57Z</time>
      </trkpt>
      <trkpt lat="44.43284" lon="5.98265">
        <ele>815</ele>
        <time>2019-04-09T12:33:58Z</time>
      </trkpt>
      <trkpt lat="44.4328" lon="5.98262">
        <ele>815</ele>
        <time>2019-04-09T12:33:59Z</time>
      </trkpt>
      <trkpt lat="44.43277" lon="5.98258">
        <ele>814</ele>
        <time>2019-04-09T12:34:00Z</time>
      </trkpt>
      <trkpt lat="44.43274" lon="5.98255">
        <ele>813</ele>
        <time>2019-04-09T12:34:01Z</time>
      </trkpt>
      <trkpt lat="44.43272" lon="5.98252">
        <ele>813</ele>
        <time>2019-04-09T12:34:02Z</time>
      </trkpt>
      <trkpt lat="44.4327" lon="5.98249">
        <ele>813</ele>
        <time>2019-04-09T12:34:03Z</time>
      </trkpt>
      <trkpt lat="44.43269" lon="5.98247">
        <ele>812</ele>
        <time>2019-04-09T12:34:04Z</time>
      </trkpt>
      <trkpt lat="44.43267" lon="5.98245">
        <ele>812</ele>
        <time>2019-04-09T12:34:05Z</time>
      </trkpt>
      <trkpt lat="44.43265" lon="5.98242">
        <ele>811</ele>
        <time>2019-04-09T12:34:06Z</time>
      </trkpt>
      <trkpt lat="44.43262" lon="5.98238">
        <ele>811</ele>
        <time>2019-04-09T12:34:07Z</time>
      </trkpt>
      <trkpt lat="44.43259" lon="5.98234">
        <ele>810</ele>
        <time>2019-04-09T12:34:08Z</time>
      </trkpt>
      <trkpt lat="44.43255" lon="5.9823">
        <ele>810</ele>
        <time>2019-04-09T12:34:09Z</time>
      </trkpt>
      <trkpt lat="44.43251" lon="5.98225">
        <ele>810</ele>
        <time>2019-04-09T12:34:10Z</time>
      </trkpt>
      <trkpt lat="44.43246" lon="5.98221">
        <ele>809</ele>
        <time>2019-04-09T12:34:11Z</time>
      </trkpt>
      <trkpt lat="44.43242" lon="5.98216">
        <ele>809</ele>
        <time>2019-04-09T12:34:12Z</time>
      </trkpt>
      <trkpt lat="44.43237" lon="5.98211">
        <ele>808</ele>
        <time>2019-04-09T12:34:13Z</time>
      </trkpt>
      <trkpt lat="44.43232" lon="5.98206">
        <ele>808</ele>
        <time>2019-04-09T12:34:14Z</time>
      </trkpt>
      <trkpt lat="44.43227" lon="5.98201">
        <ele>808</ele>
        <time>2019-04-09T12:34:15Z</time>
      </trkpt>
      <trkpt lat="44.43221" lon="5.98196">
        <ele>807</ele>
        <time>2019-04-09T12:34:16Z</time>
      </trkpt>
      <trkpt lat="44.43215" lon="5.9819">
        <ele>807</ele>
        <time>2019-04-09T12:34:17Z</time>
      </trkpt>
      <trkpt lat="44.43209" lon="5.98183">
        <ele>807</ele>
        <time>2019-04-09T12:34:18Z</time>
      </trkpt>
      <trkpt lat="44.43204" lon="5.98175">
        <ele>806</ele>
        <time>2019-04-09T12:34:19Z</time>
      </trkpt>
      <trkpt lat="44.43199" lon="5.98168">
        <ele>806</ele>
        <time>2019-04-09T12:34:20Z</time>
      </trkpt>
      <trkpt lat="44.43193" lon="5.9816">
        <ele>806</ele>
        <time>2019-04-09T12:34:21Z</time>
      </trkpt>
      <trkpt lat="44.43188" lon="5.98151">
        <ele>805</ele>
        <time>2019-04-09T12:34:22Z</time>
      </trkpt>
      <trkpt lat="44.43183" lon="5.98143">
        <ele>805</ele>
        <time>2019-04-09T12:34:23Z</time>
      </trkpt>
      <trkpt lat="44.43178" lon="5.98135">
        <ele>805</ele>
        <time>2019-04-09T12:34:24Z</time>
      </trkpt>
      <trkpt lat="44.43173" lon="5.98127">
        <ele>805</ele>
        <time>2019-04-09T12:34:25Z</time>
      </trkpt>
      <trkpt lat="44.43169" lon="5.98119">
        <ele>804</ele>
        <time>2019-04-09T12:34:26Z</time>
      </trkpt>
      <trkpt lat="44.43164" lon="5.9811">
        <ele>804</ele>
        <time>2019-04-09T12:34:27Z</time>
      </trkpt>
      <trkpt lat="44.43159" lon="5.98102">
        <ele>804</ele>
        <time>2019-04-09T12:34:28Z</time>
      </trkpt>
      <trkpt lat="44.43155" lon="5.98094">
        <ele>804</ele>
        <time>2019-04-09T12:34:29Z</time>
      </trkpt>
      <trkpt lat="44.4315" lon="5.98085">
        <ele>804</ele>
        <time>2019-04-09T12:34:30Z</time>
      </trkpt>
      <trkpt lat="44.43146" lon="5.98076">
        <ele>803</ele>
        <time>2019-04-09T12:34:31Z</time>
      </trkpt>
      <trkpt lat="44.43142" lon="5.98067">
        <ele>803</ele>
        <time>2019-04-09T12:34:32Z</time>
      </trkpt>
      <trkpt lat="44.43138" lon="5.98057">
        <ele>803</ele>
        <time>2019-04-09T12:34:33Z</time>
      </trkpt>
      <trkpt lat="44.43135" lon="5.98048">
        <ele>802</ele>
        <time>2019-04-09T12:34:34Z</time>
      </trkpt>
      <trkpt lat="44.43131" lon="5.98038">
        <ele>802</ele>
        <time>2019-04-09T12:34:35Z</time>
      </trkpt>
      <trkpt lat="44.43127" lon="5.98029">
        <ele>802</ele>
        <time>2019-04-09T12:34:36Z</time>
      </trkpt>
      <trkpt lat="44.43124" lon="5.98019">
        <ele>802</ele>
        <time>2019-04-09T12:34:37Z</time>
      </trkpt>
      <trkpt lat="44.4312" lon="5.98008">
        <ele>802</ele>
        <time>2019-04-09T12:34:38Z</time>
      </trkpt>
      <trkpt lat="44.43117" lon="5.97998">
        <ele>801</ele>
        <time>2019-04-09T12:34:39Z</time>
      </trkpt>
      <trkpt lat="44.43113" lon="5.97988">
        <ele>801</ele>
        <time>2019-04-09T12:34:40Z</time>
      </trkpt>
      <trkpt lat="44.4311" lon="5.97977">
        <ele>801</ele>
        <time>2019-04-09T12:34:41Z</time>
      </trkpt>
      <trkpt lat="44.43107" lon="5.97967">
        <ele>801</ele>
        <time>2019-04-09T12:34:42Z</time>
      </trkpt>
      <trkpt lat="44.43103" lon="5.97957">
        <ele>801</ele>
        <time>2019-04-09T12:34:43Z</time>
      </trkpt>
      <trkpt lat="44.431" lon="5.97946">
        <ele>801</ele>
        <time>2019-04-09T12:34:44Z</time>
      </trkpt>
      <trkpt lat="44.43097" lon="5.97936">
        <ele>801</ele>
        <time>2019-04-09T12:34:45Z</time>
      </trkpt>
      <trkpt lat="44.43094" lon="5.97926">
        <ele>800</ele>
        <time>2019-04-09T12:34:46Z</time>
      </trkpt>
      <trkpt lat="44.43091" lon="5.97916">
        <ele>800</ele>
        <time>2019-04-09T12:34:47Z</time>
      </trkpt>
      <trkpt lat="44.43088" lon="5.97906">
        <ele>800</ele>
        <time>2019-04-09T12:34:48Z</time>
      </trkpt>
      <trkpt lat="44.43085" lon="5.97896">
        <ele>799</ele>
        <time>2019-04-09T12:34:49Z</time>
      </trkpt>
      <trkpt lat="44.43082" lon="5.97887">
        <ele>798</ele>
        <time>2019-04-09T12:34:50Z</time>
      </trkpt>
      <trkpt lat="44.43079" lon="5.97878">
        <ele>798</ele>
        <time>2019-04-09T12:34:51Z</time>
      </trkpt>
      <trkpt lat="44.43076" lon="5.97868">
        <ele>798</ele>
        <time>2019-04-09T12:34:52Z</time>
      </trkpt>
      <trkpt lat="44.43074" lon="5.97859">
        <ele>798</ele>
        <time>2019-04-09T12:34:53Z</time>
      </trkpt>
      <trkpt lat="44.43071" lon="5.9785">
        <ele>798</ele>
        <time>2019-04-09T12:34:54Z</time>
      </trkpt>
      <trkpt lat="44.43069" lon="5.9784">
        <ele>798</ele>
        <time>2019-04-09T12:34:55Z</time>
      </trkpt>
      <trkpt lat="44.43068" lon="5.9783">
        <ele>798</ele>
        <time>2019-04-09T12:34:56Z</time>
      </trkpt>
      <trkpt lat="44.43066" lon="5.9782">
        <ele>798</ele>
        <time>2019-04-09T12:34:57Z</time>
      </trkpt>
      <trkpt lat="44.43065" lon="5.9781">
        <ele>798</ele>
        <time>2019-04-09T12:34:58Z</time>
      </trkpt>
      <trkpt lat="44.43064" lon="5.97801">
        <ele>797</ele>
        <time>2019-04-09T12:34:59Z</time>
      </trkpt>
      <trkpt lat="44.43063" lon="5.97791">
        <ele>797</ele>
        <time>2019-04-09T12:35:00Z</time>
      </trkpt>
      <trkpt lat="44.43062" lon="5.97783">
        <ele>796</ele>
        <time>2019-04-09T12:35:01Z</time>
      </trkpt>
      <trkpt lat="44.4306" lon="5.97776">
        <ele>796</ele>
        <time>2019-04-09T12:35:02Z</time>
      </trkpt>
      <trkpt lat="44.43056" lon="5.9777">
        <ele>795</ele>
        <time>2019-04-09T12:35:03Z</time>
      </trkpt>
      <trkpt lat="44.43051" lon="5.97766">
        <ele>795</ele>
        <time>2019-04-09T12:35:04Z</time>
      </trkpt>
      <trkpt lat="44.43045" lon="5.97765">
        <ele>795</ele>
        <time>2019-04-09T12:35:05Z</time>
      </trkpt>
      <trkpt lat="44.4304" lon="5.97765">
        <ele>795</ele>
        <time>2019-04-09T12:35:06Z</time>
      </trkpt>
      <trkpt lat="44.43034" lon="5.97767">
        <ele>794</ele>
        <time>2019-04-09T12:35:07Z</time>
      </trkpt>
      <trkpt lat="44.43028" lon="5.97768">
        <ele>793</ele>
        <time>2019-04-09T12:35:08Z</time>
      </trkpt>
      <trkpt lat="44.43022" lon="5.9777">
        <ele>793</ele>
        <time>2019-04-09T12:35:09Z</time>
      </trkpt>
      <trkpt lat="44.43016" lon="5.97772">
        <ele>792</ele>
        <time>2019-04-09T12:35:10Z</time>
      </trkpt>
      <trkpt lat="44.43011" lon="5.97774">
        <ele>792</ele>
        <time>2019-04-09T12:35:11Z</time>
      </trkpt>
      <trkpt lat="44.43005" lon="5.97775">
        <ele>791</ele>
        <time>2019-04-09T12:35:12Z</time>
      </trkpt>
      <trkpt lat="44.42999" lon="5.97777">
        <ele>791</ele>
        <time>2019-04-09T12:35:13Z</time>
      </trkpt>
      <trkpt lat="44.42992" lon="5.97778">
        <ele>790</ele>
        <time>2019-04-09T12:35:14Z</time>
      </trkpt>
      <trkpt lat="44.42986" lon="5.97781">
        <ele>790</ele>
        <time>2019-04-09T12:35:15Z</time>
      </trkpt>
      <trkpt lat="44.42979" lon="5.97784">
        <ele>790</ele>
        <time>2019-04-09T12:35:16Z</time>
      </trkpt>
      <trkpt lat="44.42974" lon="5.9779">
        <ele>789</ele>
        <time>2019-04-09T12:35:17Z</time>
      </trkpt>
      <trkpt lat="44.42969" lon="5.97797">
        <ele>789</ele>
        <time>2019-04-09T12:35:18Z</time>
      </trkpt>
      <trkpt lat="44.42966" lon="5.97807">
        <ele>788</ele>
        <time>2019-04-09T12:35:19Z</time>
      </trkpt>
      <trkpt lat="44.42964" lon="5.97816">
        <ele>788</ele>
        <time>2019-04-09T12:35:20Z</time>
      </trkpt>
      <trkpt lat="44.42963" lon="5.97826">
        <ele>787</ele>
        <time>2019-04-09T12:35:21Z</time>
      </trkpt>
      <trkpt lat="44.4296" lon="5.97836">
        <ele>787</ele>
        <time>2019-04-09T12:35:22Z</time>
      </trkpt>
      <trkpt lat="44.42957" lon="5.97846">
        <ele>787</ele>
        <time>2019-04-09T12:35:23Z</time>
      </trkpt>
      <trkpt lat="44.42953" lon="5.97855">
        <ele>786</ele>
        <time>2019-04-09T12:35:24Z</time>
      </trkpt>
      <trkpt lat="44.42949" lon="5.97864">
        <ele>786</ele>
        <time>2019-04-09T12:35:25Z</time>
      </trkpt>
      <trkpt lat="44.42945" lon="5.97872">
        <ele>785</ele>
        <time>2019-04-09T12:35:26Z</time>
      </trkpt>
      <trkpt lat="44.42941" lon="5.97881">
        <ele>785</ele>
        <time>2019-04-09T12:35:27Z</time>
      </trkpt>
      <trkpt lat="44.42936" lon="5.9789">
        <ele>785</ele>
        <time>2019-04-09T12:35:28Z</time>
      </trkpt>
      <trkpt lat="44.42931" lon="5.97899">
        <ele>784</ele>
        <time>2019-04-09T12:35:29Z</time>
      </trkpt>
      <trkpt lat="44.42926" lon="5.97909">
        <ele>784</ele>
        <time>2019-04-09T12:35:30Z</time>
      </trkpt>
      <trkpt lat="44.42922" lon="5.97919">
        <ele>783</ele>
        <time>2019-04-09T12:35:31Z</time>
      </trkpt>
      <trkpt lat="44.42917" lon="5.97929">
        <ele>783</ele>
        <time>2019-04-09T12:35:32Z</time>
      </trkpt>
      <trkpt lat="44.42913" lon="5.9794">
        <ele>783</ele>
        <time>2019-04-09T12:35:33Z</time>
      </trkpt>
      <trkpt lat="44.42908" lon="5.97951">
        <ele>782</ele>
        <time>2019-04-09T12:35:34Z</time>
      </trkpt>
      <trkpt lat="44.42905" lon="5.97962">
        <ele>782</ele>
        <time>2019-04-09T12:35:35Z</time>
      </trkpt>
      <trkpt lat="44.42903" lon="5.97973">
        <ele>782</ele>
        <time>2019-04-09T12:35:36Z</time>
      </trkpt>
      <trkpt lat="44.42902" lon="5.97985">
        <ele>782</ele>
        <time>2019-04-09T12:35:37Z</time>
      </trkpt>
      <trkpt lat="44.42902" lon="5.97997">
        <ele>781</ele>
        <time>2019-04-09T12:35:38Z</time>
      </trkpt>
      <trkpt lat="44.42903" lon="5.98008">
        <ele>781</ele>
        <time>2019-04-09T12:35:39Z</time>
      </trkpt>
      <trkpt lat="44.42905" lon="5.9802">
        <ele>780</ele>
        <time>2019-04-09T12:35:40Z</time>
      </trkpt>
      <trkpt lat="44.42907" lon="5.98032">
        <ele>780</ele>
        <time>2019-04-09T12:35:41Z</time>
      </trkpt>
      <trkpt lat="44.42909" lon="5.98045">
        <ele>779</ele>
        <time>2019-04-09T12:35:42Z</time>
      </trkpt>
      <trkpt lat="44.4291" lon="5.98058">
        <ele>779</ele>
        <time>2019-04-09T12:35:43Z</time>
      </trkpt>
      <trkpt lat="44.42912" lon="5.9807">
        <ele>779</ele>
        <time>2019-04-09T12:35:44Z</time>
      </trkpt>
      <trkpt lat="44.42914" lon="5.98083">
        <ele>779</ele>
        <time>2019-04-09T12:35:45Z</time>
      </trkpt>
      <trkpt lat="44.42916" lon="5.98097">
        <ele>779</ele>
        <time>2019-04-09T12:35:46Z</time>
      </trkpt>
      <trkpt lat="44.42918" lon="5.9811">
        <ele>778</ele>
        <time>2019-04-09T12:35:47Z</time>
      </trkpt>
      <trkpt lat="44.4292" lon="5.98123">
        <ele>778</ele>
        <time>2019-04-09T12:35:48Z</time>
      </trkpt>
      <trkpt lat="44.42922" lon="5.98136">
        <ele>778</ele>
        <time>2019-04-09T12:35:49Z</time>
      </trkpt>
      <trkpt lat="44.42923" lon="5.98148">
        <ele>778</ele>
        <time>2019-04-09T12:35:50Z</time>
      </trkpt>
      <trkpt lat="44.42925" lon="5.9816">
        <ele>777</ele>
        <time>2019-04-09T12:35:51Z</time>
      </trkpt>
      <trkpt lat="44.42927" lon="5.98173">
        <ele>777</ele>
        <time>2019-04-09T12:35:52Z</time>
      </trkpt>
      <trkpt lat="44.42929" lon="5.98185">
        <ele>776</ele>
        <time>2019-04-09T12:35:53Z</time>
      </trkpt>
      <trkpt lat="44.42931" lon="5.98197">
        <ele>776</ele>
        <time>2019-04-09T12:35:54Z</time>
      </trkpt>
      <trkpt lat="44.42932" lon="5.98209">
        <ele>775</ele>
        <time>2019-04-09T12:35:55Z</time>
      </trkpt>
      <trkpt lat="44.42934" lon="5.98221">
        <ele>775</ele>
        <time>2019-04-09T12:35:56Z</time>
      </trkpt>
      <trkpt lat="44.42935" lon="5.98233">
        <ele>774</ele>
        <time>2019-04-09T12:35:57Z</time>
      </trkpt>
      <trkpt lat="44.42936" lon="5.98245">
        <ele>774</ele>
        <time>2019-04-09T12:35:58Z</time>
      </trkpt>
      <trkpt lat="44.42936" lon="5.98256">
        <ele>773</ele>
        <time>2019-04-09T12:35:59Z</time>
      </trkpt>
      <trkpt lat="44.42936" lon="5.98268">
        <ele>773</ele>
        <time>2019-04-09T12:36:00Z</time>
      </trkpt>
      <trkpt lat="44.42936" lon="5.98279">
        <ele>772</ele>
        <time>2019-04-09T12:36:01Z</time>
      </trkpt>
      <trkpt lat="44.42936" lon="5.98291">
        <ele>771</ele>
        <time>2019-04-09T12:36:02Z</time>
      </trkpt>
      <trkpt lat="44.42936" lon="5.98302">
        <ele>771</ele>
        <time>2019-04-09T12:36:03Z</time>
      </trkpt>
      <trkpt lat="44.42934" lon="5.98312">
        <ele>770</ele>
        <time>2019-04-09T12:36:04Z</time>
      </trkpt>
      <trkpt lat="44.4293" lon="5.9832">
        <ele>769</ele>
        <time>2019-04-09T12:36:05Z</time>
      </trkpt>
      <trkpt lat="44.42925" lon="5.98328">
        <ele>769</ele>
        <time>2019-04-09T12:36:06Z</time>
      </trkpt>
      <trkpt lat="44.42919" lon="5.98333">
        <ele>768</ele>
        <time>2019-04-09T12:36:07Z</time>
      </trkpt>
      <trkpt lat="44.42912" lon="5.98336">
        <ele>767</ele>
        <time>2019-04-09T12:36:08Z</time>
      </trkpt>
      <trkpt lat="44.42905" lon="5.98338">
        <ele>767</ele>
        <time>2019-04-09T12:36:09Z</time>
      </trkpt>
      <trkpt lat="44.42897" lon="5.98339">
        <ele>766</ele>
        <time>2019-04-09T12:36:10Z</time>
      </trkpt>
      <trkpt lat="44.42889" lon="5.9834">
        <ele>766</ele>
        <time>2019-04-09T12:36:11Z</time>
      </trkpt>
      <trkpt lat="44.42881" lon="5.98341">
        <ele>765</ele>
        <time>2019-04-09T12:36:12Z</time>
      </trkpt>
      <trkpt lat="44.42872" lon="5.98341">
        <ele>765</ele>
        <time>2019-04-09T12:36:13Z</time>
      </trkpt>
      <trkpt lat="44.42863" lon="5.9834">
        <ele>764</ele>
        <time>2019-04-09T12:36:14Z</time>
      </trkpt>
      <trkpt lat="44.42854" lon="5.98339">
        <ele>764</ele>
        <time>2019-04-09T12:36:15Z</time>
      </trkpt>
      <trkpt lat="44.42845" lon="5.98338">
        <ele>763</ele>
        <time>2019-04-09T12:36:16Z</time>
      </trkpt>
      <trkpt lat="44.42836" lon="5.98337">
        <ele>763</ele>
        <time>2019-04-09T12:36:17Z</time>
      </trkpt>
      <trkpt lat="44.42826" lon="5.98336">
        <ele>762</ele>
        <time>2019-04-09T12:36:18Z</time>
      </trkpt>
      <trkpt lat="44.42816" lon="5.98334">
        <ele>762</ele>
        <time>2019-04-09T12:36:19Z</time>
      </trkpt>
      <trkpt lat="44.42806" lon="5.98332">
        <ele>761</ele>
        <time>2019-04-09T12:36:20Z</time>
      </trkpt>
      <trkpt lat="44.42796" lon="5.9833">
        <ele>761</ele>
        <time>2019-04-09T12:36:21Z</time>
      </trkpt>
      <trkpt lat="44.42785" lon="5.9833">
        <ele>760</ele>
        <time>2019-04-09T12:36:22Z</time>
      </trkpt>
      <trkpt lat="44.42775" lon="5.98332">
        <ele>759</ele>
        <time>2019-04-09T12:36:23Z</time>
      </trkpt>
      <trkpt lat="44.42765" lon="5.98334">
        <ele>759</ele>
        <time>2019-04-09T12:36:24Z</time>
      </trkpt>
      <trkpt lat="44.42756" lon="5.98335">
        <ele>758</ele>
        <time>2019-04-09T12:36:25Z</time>
      </trkpt>
      <trkpt lat="44.42746" lon="5.98334">
        <ele>757</ele>
        <time>2019-04-09T12:36:26Z</time>
      </trkpt>
      <trkpt lat="44.42736" lon="5.98331">
        <ele>756</ele>
        <time>2019-04-09T12:36:27Z</time>
      </trkpt>
      <trkpt lat="44.42727" lon="5.98327">
        <ele>756</ele>
        <time>2019-04-09T12:36:28Z</time>
      </trkpt>
      <trkpt lat="44.42718" lon="5.98323">
        <ele>755</ele>
        <time>2019-04-09T12:36:29Z</time>
      </trkpt>
      <trkpt lat="44.4271" lon="5.9832">
        <ele>754</ele>
        <time>2019-04-09T12:36:30Z</time>
      </trkpt>
      <trkpt lat="44.42703" lon="5.98316">
        <ele>754</ele>
        <time>2019-04-09T12:36:31Z</time>
      </trkpt>
      <trkpt lat="44.42696" lon="5.98311">
        <ele>754</ele>
        <time>2019-04-09T12:36:32Z</time>
      </trkpt>
      <trkpt lat="44.42691" lon="5.98306">
        <ele>753</ele>
        <time>2019-04-09T12:36:33Z</time>
      </trkpt>
      <trkpt lat="44.42686" lon="5.98301">
        <ele>753</ele>
        <time>2019-04-09T12:36:34Z</time>
      </trkpt>
      <trkpt lat="44.42681" lon="5.98298">
        <ele>752</ele>
        <time>2019-04-09T12:36:35Z</time>
      </trkpt>
      <trkpt lat="44.42677" lon="5.98299">
        <ele>752</ele>
        <time>2019-04-09T12:36:36Z</time>
      </trkpt>
      <trkpt lat="44.42673" lon="5.98302">
        <ele>751</ele>
        <time>2019-04-09T12:36:37Z</time>
      </trkpt>
      <trkpt lat="44.42672" lon="5.98307">
        <ele>751</ele>
        <time>2019-04-09T12:36:38Z</time>
      </trkpt>
      <trkpt lat="44.42673" lon="5.98313">
        <ele>750</ele>
        <time>2019-04-09T12:36:39Z</time>
      </trkpt>
      <trkpt lat="44.42677" lon="5.98318">
        <ele>750</ele>
        <time>2019-04-09T12:36:40Z</time>
      </trkpt>
      <trkpt lat="44.42682" lon="5.98322">
        <ele>749</ele>
        <time>2019-04-09T12:36:41Z</time>
      </trkpt>
      <trkpt lat="44.42688" lon="5.98325">
        <ele>748</ele>
        <time>2019-04-09T12:36:42Z</time>
      </trkpt>
      <trkpt lat="44.42694" lon="5.98328">
        <ele>747</ele>
        <time>2019-04-09T12:36:43Z</time>
      </trkpt>
      <trkpt lat="44.42701" lon="5.98332">
        <ele>747</ele>
        <time>2019-04-09T12:36:44Z</time>
      </trkpt>
      <trkpt lat="44.42707" lon="5.98335">
        <ele>746</ele>
        <time>2019-04-09T12:36:45Z</time>
      </trkpt>
      <trkpt lat="44.42714" lon="5.9834">
        <ele>745</ele>
        <time>2019-04-09T12:36:46Z</time>
      </trkpt>
      <trkpt lat="44.4272" lon="5.98345">
        <ele>745</ele>
        <time>2019-04-09T12:36:47Z</time>
      </trkpt>
      <trkpt lat="44.42726" lon="5.98352">
        <ele>744</ele>
        <time>2019-04-09T12:36:48Z</time>
      </trkpt>
      <trkpt lat="44.42732" lon="5.9836">
        <ele>744</ele>
        <time>2019-04-09T12:36:49Z</time>
      </trkpt>
      <trkpt lat="44.42738" lon="5.98368">
        <ele>743</ele>
        <time>2019-04-09T12:36:50Z</time>
      </trkpt>
      <trkpt lat="44.42745" lon="5.98374">
        <ele>743</ele>
        <time>2019-04-09T12:36:51Z</time>
      </trkpt>
      <trkpt lat="44.42752" lon="5.9838">
        <ele>742</ele>
        <time>2019-04-09T12:36:52Z</time>
      </trkpt>
      <trkpt lat="44.4276" lon="5.98385">
        <ele>741</ele>
        <time>2019-04-09T12:36:53Z</time>
      </trkpt>
      <trkpt lat="44.42767" lon="5.9839">
        <ele>741</ele>
        <time>2019-04-09T12:36:54Z</time>
      </trkpt>
      <trkpt lat="44.42773" lon="5.98397">
        <ele>740</ele>
        <time>2019-04-09T12:36:55Z</time>
      </trkpt>
      <trkpt lat="44.42779" lon="5.98406">
        <ele>739</ele>
        <time>2019-04-09T12:36:56Z</time>
      </trkpt>
      <trkpt lat="44.42786" lon="5.98413">
        <ele>739</ele>
        <time>2019-04-09T12:36:57Z</time>
      </trkpt>
      <trkpt lat="44.42794" lon="5.9842">
        <ele>738</ele>
        <time>2019-04-09T12:36:58Z</time>
      </trkpt>
      <trkpt lat="44.42802" lon="5.98426">
        <ele>738</ele>
        <time>2019-04-09T12:36:59Z</time>
      </trkpt>
      <trkpt lat="44.4281" lon="5.98431">
        <ele>737</ele>
        <time>2019-04-09T12:37:00Z</time>
      </trkpt>
      <trkpt lat="44.42817" lon="5.98435">
        <ele>737</ele>
        <time>2019-04-09T12:37:01Z</time>
      </trkpt>
      <trkpt lat="44.42825" lon="5.9844">
        <ele>736</ele>
        <time>2019-04-09T12:37:02Z</time>
      </trkpt>
      <trkpt lat="44.42834" lon="5.98446">
        <ele>736</ele>
        <time>2019-04-09T12:37:03Z</time>
      </trkpt>
      <trkpt lat="44.42842" lon="5.98451">
        <ele>736</ele>
        <time>2019-04-09T12:37:04Z</time>
      </trkpt>
      <trkpt lat="44.4285" lon="5.98456">
        <ele>735</ele>
        <time>2019-04-09T12:37:05Z</time>
      </trkpt>
      <trkpt lat="44.42859" lon="5.98461">
        <ele>735</ele>
        <time>2019-04-09T12:37:06Z</time>
      </trkpt>
      <trkpt lat="44.42867" lon="5.98467">
        <ele>734</ele>
        <time>2019-04-09T12:37:07Z</time>
      </trkpt>
      <trkpt lat="44.42876" lon="5.98473">
        <ele>734</ele>
        <time>2019-04-09T12:37:08Z</time>
      </trkpt>
      <trkpt lat="44.42885" lon="5.98478">
        <ele>733</ele>
        <time>2019-04-09T12:37:09Z</time>
      </trkpt>
      <trkpt lat="44.42894" lon="5.98483">
        <ele>733</ele>
        <time>2019-04-09T12:37:10Z</time>
      </trkpt>
      <trkpt lat="44.42904" lon="5.98486">
        <ele>732</ele>
        <time>2019-04-09T12:37:11Z</time>
      </trkpt>
      <trkpt lat="44.42914" lon="5.9849">
        <ele>732</ele>
        <time>2019-04-09T12:37:12Z</time>
      </trkpt>
      <trkpt lat="44.42923" lon="5.98493">
        <ele>731</ele>
        <time>2019-04-09T12:37:13Z</time>
      </trkpt>
      <trkpt lat="44.42933" lon="5.98495">
        <ele>730</ele>
        <time>2019-04-09T12:37:14Z</time>
      </trkpt>
      <trkpt lat="44.42941" lon="5.98498">
        <ele>730</ele>
        <time>2019-04-09T12:37:15Z</time>
      </trkpt>
      <trkpt lat="44.42948" lon="5.98502">
        <ele>729</ele>
        <time>2019-04-09T12:37:16Z</time>
      </trkpt>
      <trkpt lat="44.42956" lon="5.98507">
        <ele>729</ele>
        <time>2019-04-09T12:37:17Z</time>
      </trkpt>
      <trkpt lat="44.42962" lon="5.98514">
        <ele>728</ele>
        <time>2019-04-09T12:37:18Z</time>
      </trkpt>
      <trkpt lat="44.42968" lon="5.98521">
        <ele>728</ele>
        <time>2019-04-09T12:37:19Z</time>
      </trkpt>
      <trkpt lat="44.42972" lon="5.98529">
        <ele>728</ele>
        <time>2019-04-09T12:37:20Z</time>
      </trkpt>
      <trkpt lat="44.42978" lon="5.98536">
        <ele>727</ele>
        <time>2019-04-09T12:37:21Z</time>
      </trkpt>
      <trkpt lat="44.42983" lon="5.98543">
        <ele>727</ele>
        <time>2019-04-09T12:37:22Z</time>
      </trkpt>
      <trkpt lat="44.42988" lon="5.98551">
        <ele>727</ele>
        <time>2019-04-09T12:37:23Z</time>
      </trkpt>
      <trkpt lat="44.42992" lon="5.98558">
        <ele>726</ele>
        <time>2019-04-09T12:37:24Z</time>
      </trkpt>
      <trkpt lat="44.42996" lon="5.98566">
        <ele>726</ele>
        <time>2019-04-09T12:37:25Z</time>
      </trkpt>
      <trkpt lat="44.42997" lon="5.98576">
        <ele>725</ele>
        <time>2019-04-09T12:37:26Z</time>
      </trkpt>
      <trkpt lat="44.42996" lon="5.98586">
        <ele>725</ele>
        <time>2019-04-09T12:37:27Z</time>
      </trkpt>
      <trkpt lat="44.42994" lon="5.98596">
        <ele>724</ele>
        <time>2019-04-09T12:37:28Z</time>
      </trkpt>
      <trkpt lat="44.42988" lon="5.98604">
        <ele>723</ele>
        <time>2019-04-09T12:37:29Z</time>
      </trkpt>
      <trkpt lat="44.42981" lon="5.9861">
        <ele>722</ele>
        <time>2019-04-09T12:37:30Z</time>
      </trkpt>
      <trkpt lat="44.42973" lon="5.98615">
        <ele>722</ele>
        <time>2019-04-09T12:37:31Z</time>
      </trkpt>
      <trkpt lat="44.42965" lon="5.98619">
        <ele>721</ele>
        <time>2019-04-09T12:37:32Z</time>
      </trkpt>
      <trkpt lat="44.42956" lon="5.98622">
        <ele>720</ele>
        <time>2019-04-09T12:37:33Z</time>
      </trkpt>
      <trkpt lat="44.42947" lon="5.98624">
        <ele>719</ele>
        <time>2019-04-09T12:37:34Z</time>
      </trkpt>
      <trkpt lat="44.42937" lon="5.98625">
        <ele>718</ele>
        <time>2019-04-09T12:37:35Z</time>
      </trkpt>
      <trkpt lat="44.42928" lon="5.98627">
        <ele>718</ele>
        <time>2019-04-09T12:37:36Z</time>
      </trkpt>
      <trkpt lat="44.42919" lon="5.9863">
        <ele>717</ele>
        <time>2019-04-09T12:37:37Z</time>
      </trkpt>
      <trkpt lat="44.4291" lon="5.98633">
        <ele>716</ele>
        <time>2019-04-09T12:37:38Z</time>
      </trkpt>
      <trkpt lat="44.42902" lon="5.98636">
        <ele>716</ele>
        <time>2019-04-09T12:37:39Z</time>
      </trkpt>
      <trkpt lat="44.42892" lon="5.9864">
        <ele>715</ele>
        <time>2019-04-09T12:37:40Z</time>
      </trkpt>
      <trkpt lat="44.42883" lon="5.98644">
        <ele>715</ele>
        <time>2019-04-09T12:37:41Z</time>
      </trkpt>
      <trkpt lat="44.42874" lon="5.98647">
        <ele>715</ele>
        <time>2019-04-09T12:37:42Z</time>
      </trkpt>
      <trkpt lat="44.42867" lon="5.98651">
        <ele>715</ele>
        <time>2019-04-09T12:37:43Z</time>
      </trkpt>
      <trkpt lat="44.42858" lon="5.98654">
        <ele>715</ele>
        <time>2019-04-09T12:37:44Z</time>
      </trkpt>
      <trkpt lat="44.4285" lon="5.98658">
        <ele>715</ele>
        <time>2019-04-09T12:37:45Z</time>
      </trkpt>
      <trkpt lat="44.42843" lon="5.98664">
        <ele>715</ele>
        <time>2019-04-09T12:37:46Z</time>
      </trkpt>
      <trkpt lat="44.42836" lon="5.98671">
        <ele>715</ele>
        <time>2019-04-09T12:37:47Z</time>
      </trkpt>
      <trkpt lat="44.42831" lon="5.98678">
        <ele>715</ele>
        <time>2019-04-09T12:37:48Z</time>
      </trkpt>
      <trkpt lat="44.42825" lon="5.98686">
        <ele>715</ele>
        <time>2019-04-09T12:37:49Z</time>
      </trkpt>
      <trkpt lat="44.4282" lon="5.98695">
        <ele>714</ele>
        <time>2019-04-09T12:37:50Z</time>
      </trkpt>
      <trkpt lat="44.42815" lon="5.98704">
        <ele>714</ele>
        <time>2019-04-09T12:37:51Z</time>
      </trkpt>
      <trkpt lat="44.42811" lon="5.98715">
        <ele>714</ele>
        <time>2019-04-09T12:37:52Z</time>
      </trkpt>
      <trkpt lat="44.42808" lon="5.98726">
        <ele>713</ele>
        <time>2019-04-09T12:37:53Z</time>
      </trkpt>
      <trkpt lat="44.42805" lon="5.98738">
        <ele>713</ele>
        <time>2019-04-09T12:37:54Z</time>
      </trkpt>
      <trkpt lat="44.42802" lon="5.98749">
        <ele>712</ele>
        <time>2019-04-09T12:37:55Z</time>
      </trkpt>
      <trkpt lat="44.428" lon="5.98761">
        <ele>711</ele>
        <time>2019-04-09T12:37:56Z</time>
      </trkpt>
      <trkpt lat="44.42797" lon="5.98772">
        <ele>711</ele>
        <time>2019-04-09T12:37:57Z</time>
      </trkpt>
      <trkpt lat="44.42795" lon="5.98784">
        <ele>710</ele>
        <time>2019-04-09T12:37:58Z</time>
      </trkpt>
      <trkpt lat="44.42793" lon="5.98795">
        <ele>709</ele>
        <time>2019-04-09T12:37:59Z</time>
      </trkpt>
      <trkpt lat="44.42791" lon="5.98807">
        <ele>709</ele>
        <time>2019-04-09T12:38:00Z</time>
      </trkpt>
      <trkpt lat="44.42791" lon="5.98818">
        <ele>708</ele>
        <time>2019-04-09T12:38:01Z</time>
      </trkpt>
      <trkpt lat="44.42791" lon="5.9883">
        <ele>707</ele>
        <time>2019-04-09T12:38:02Z</time>
      </trkpt>
      <trkpt lat="44.42792" lon="5.98841">
        <ele>707</ele>
        <time>2019-04-09T12:38:03Z</time>
      </trkpt>
      <trkpt lat="44.42793" lon="5.98853">
        <ele>706</ele>
        <time>2019-04-09T12:38:04Z</time>
      </trkpt>
      <trkpt lat="44.42794" lon="5.98865">
        <ele>705</ele>
        <time>2019-04-09T12:38:05Z</time>
      </trkpt>
      <trkpt lat="44.42794" lon="5.98877">
        <ele>704</ele>
        <time>2019-04-09T12:38:06Z</time>
      </trkpt>
      <trkpt lat="44.42794" lon="5.98889">
        <ele>704</ele>
        <time>2019-04-09T12:38:07Z</time>
      </trkpt>
      <trkpt lat="44.42794" lon="5.98901">
        <ele>703</ele>
        <time>2019-04-09T12:38:08Z</time>
      </trkpt>
      <trkpt lat="44.42794" lon="5.98913">
        <ele>702</ele>
        <time>2019-04-09T12:38:09Z</time>
      </trkpt>
      <trkpt lat="44.42794" lon="5.98926">
        <ele>701</ele>
        <time>2019-04-09T12:38:10Z</time>
      </trkpt>
      <trkpt lat="44.42793" lon="5.9894">
        <ele>700</ele>
        <time>2019-04-09T12:38:11Z</time>
      </trkpt>
      <trkpt lat="44.42791" lon="5.98953">
        <ele>699</ele>
        <time>2019-04-09T12:38:12Z</time>
      </trkpt>
      <trkpt lat="44.42789" lon="5.98967">
        <ele>699</ele>
        <time>2019-04-09T12:38:13Z</time>
      </trkpt>
      <trkpt lat="44.42788" lon="5.9898">
        <ele>698</ele>
        <time>2019-04-09T12:38:14Z</time>
      </trkpt>
      <trkpt lat="44.42787" lon="5.98994">
        <ele>697</ele>
        <time>2019-04-09T12:38:15Z</time>
      </trkpt>
      <trkpt lat="44.42787" lon="5.99007">
        <ele>696</ele>
        <time>2019-04-09T12:38:16Z</time>
      </trkpt>
      <trkpt lat="44.42788" lon="5.99018">
        <ele>696</ele>
        <time>2019-04-09T12:38:17Z</time>
      </trkpt>
      <trkpt lat="44.42789" lon="5.9903">
        <ele>695</ele>
        <time>2019-04-09T12:38:18Z</time>
      </trkpt>
      <trkpt lat="44.42792" lon="5.9904">
        <ele>694</ele>
        <time>2019-04-09T12:38:19Z</time>
      </trkpt>
      <trkpt lat="44.42794" lon="5.9905">
        <ele>693</ele>
        <time>2019-04-09T12:38:20Z</time>
      </trkpt>
      <trkpt lat="44.42796" lon="5.99057">
        <ele>692</ele>
        <time>2019-04-09T12:38:21Z</time>
      </trkpt>
      <trkpt lat="44.42796" lon="5.99065">
        <ele>691</ele>
        <time>2019-04-09T12:38:22Z</time>
      </trkpt>
      <trkpt lat="44.42794" lon="5.9907">
        <ele>690</ele>
        <time>2019-04-09T12:38:23Z</time>
      </trkpt>
      <trkpt lat="44.42789" lon="5.99073">
        <ele>689</ele>
        <time>2019-04-09T12:38:24Z</time>
      </trkpt>
      <trkpt lat="44.42783" lon="5.99072">
        <ele>688</ele>
        <time>2019-04-09T12:38:25Z</time>
      </trkpt>
      <trkpt lat="44.42777" lon="5.99067">
        <ele>688</ele>
        <time>2019-04-09T12:38:26Z</time>
      </trkpt>
      <trkpt lat="44.42771" lon="5.9906">
        <ele>687</ele>
        <time>2019-04-09T12:38:27Z</time>
      </trkpt>
      <trkpt lat="44.42767" lon="5.9905">
        <ele>686</ele>
        <time>2019-04-09T12:38:28Z</time>
      </trkpt>
      <trkpt lat="44.42764" lon="5.99039">
        <ele>685</ele>
        <time>2019-04-09T12:38:29Z</time>
      </trkpt>
      <trkpt lat="44.42761" lon="5.99027">
        <ele>684</ele>
        <time>2019-04-09T12:38:30Z</time>
      </trkpt>
      <trkpt lat="44.42759" lon="5.99015">
        <ele>683</ele>
        <time>2019-04-09T12:38:31Z</time>
      </trkpt>
      <trkpt lat="44.42757" lon="5.99003">
        <ele>682</ele>
        <time>2019-04-09T12:38:32Z</time>
      </trkpt>
      <trkpt lat="44.42754" lon="5.98991">
        <ele>681</ele>
        <time>2019-04-09T12:38:33Z</time>
      </trkpt>
      <trkpt lat="44.42751" lon="5.98981">
        <ele>680</ele>
        <time>2019-04-09T12:38:34Z</time>
      </trkpt>
      <trkpt lat="44.42747" lon="5.98971">
        <ele>679</ele>
        <time>2019-04-09T12:38:35Z</time>
      </trkpt>
      <trkpt lat="44.42741" lon="5.98963">
        <ele>678</ele>
        <time>2019-04-09T12:38:36Z</time>
      </trkpt>
      <trkpt lat="44.42733" lon="5.98957">
        <ele>677</ele>
        <time>2019-04-09T12:38:37Z</time>
      </trkpt>
      <trkpt lat="44.42724" lon="5.98954">
        <ele>676</ele>
        <time>2019-04-09T12:38:38Z</time>
      </trkpt>
      <trkpt lat="44.42716" lon="5.98951">
        <ele>675</ele>
        <time>2019-04-09T12:38:39Z</time>
      </trkpt>
      <trkpt lat="44.42707" lon="5.98949">
        <ele>674</ele>
        <time>2019-04-09T12:38:40Z</time>
      </trkpt>
      <trkpt lat="44.42698" lon="5.98947">
        <ele>673</ele>
        <time>2019-04-09T12:38:41Z</time>
      </trkpt>
      <trkpt lat="44.4269" lon="5.98945">
        <ele>672</ele>
        <time>2019-04-09T12:38:42Z</time>
      </trkpt>
      <trkpt lat="44.42681" lon="5.98942">
        <ele>671</ele>
        <time>2019-04-09T12:38:43Z</time>
      </trkpt>
      <trkpt lat="44.42672" lon="5.9894">
        <ele>671</ele>
        <time>2019-04-09T12:38:44Z</time>
      </trkpt>
      <trkpt lat="44.42664" lon="5.98938">
        <ele>671</ele>
        <time>2019-04-09T12:38:45Z</time>
      </trkpt>
      <trkpt lat="44.42656" lon="5.98936">
        <ele>671</ele>
        <time>2019-04-09T12:38:46Z</time>
      </trkpt>
      <trkpt lat="44.42648" lon="5.98935">
        <ele>671</ele>
        <time>2019-04-09T12:38:47Z</time>
      </trkpt>
      <trkpt lat="44.4264" lon="5.98936">
        <ele>671</ele>
        <time>2019-04-09T12:38:48Z</time>
      </trkpt>
      <trkpt lat="44.42632" lon="5.9894">
        <ele>670</ele>
        <time>2019-04-09T12:38:49Z</time>
      </trkpt>
      <trkpt lat="44.42625" lon="5.98945">
        <ele>670</ele>
        <time>2019-04-09T12:38:50Z</time>
      </trkpt>
      <trkpt lat="44.42617" lon="5.98951">
        <ele>670</ele>
        <time>2019-04-09T12:38:51Z</time>
      </trkpt>
      <trkpt lat="44.4261" lon="5.98958">
        <ele>670</ele>
        <time>2019-04-09T12:38:52Z</time>
      </trkpt>
      <trkpt lat="44.42603" lon="5.98965">
        <ele>669</ele>
        <time>2019-04-09T12:38:53Z</time>
      </trkpt>
      <trkpt lat="44.42596" lon="5.9897">
        <ele>669</ele>
        <time>2019-04-09T12:38:54Z</time>
      </trkpt>
      <trkpt lat="44.42588" lon="5.98974">
        <ele>668</ele>
        <time>2019-04-09T12:38:55Z</time>
      </trkpt>
      <trkpt lat="44.4258" lon="5.98975">
        <ele>668</ele>
        <time>2019-04-09T12:38:56Z</time>
      </trkpt>
      <trkpt lat="44.42572" lon="5.98976">
        <ele>667</ele>
        <time>2019-04-09T12:38:57Z</time>
      </trkpt>
      <trkpt lat="44.42564" lon="5.98975">
        <ele>667</ele>
        <time>2019-04-09T12:38:58Z</time>
      </trkpt>
      <trkpt lat="44.42556" lon="5.98974">
        <ele>666</ele>
        <time>2019-04-09T12:38:59Z</time>
      </trkpt>
      <trkpt lat="44.42548" lon="5.98973">
        <ele>666</ele>
        <time>2019-04-09T12:39:00Z</time>
      </trkpt>
      <trkpt lat="44.4254" lon="5.98971">
        <ele>665</ele>
        <time>2019-04-09T12:39:01Z</time>
      </trkpt>
      <trkpt lat="44.42532" lon="5.98971">
        <ele>665</ele>
        <time>2019-04-09T12:39:02Z</time>
      </trkpt>
      <trkpt lat="44.42524" lon="5.9897">
        <ele>664</ele>
        <time>2019-04-09T12:39:03Z</time>
      </trkpt>
      <trkpt lat="44.42515" lon="5.98971">
        <ele>664</ele>
        <time>2019-04-09T12:39:04Z</time>
      </trkpt>
      <trkpt lat="44.42507" lon="5.98972">
        <ele>664</ele>
        <time>2019-04-09T12:39:05Z</time>
      </trkpt>
      <trkpt lat="44.42499" lon="5.98974">
        <ele>663</ele>
        <time>2019-04-09T12:39:06Z</time>
      </trkpt>
      <trkpt lat="44.4249" lon="5.98977">
        <ele>663</ele>
        <time>2019-04-09T12:39:07Z</time>
      </trkpt>
      <trkpt lat="44.42483" lon="5.98981">
        <ele>662</ele>
        <time>2019-04-09T12:39:08Z</time>
      </trkpt>
      <trkpt lat="44.42475" lon="5.98985">
        <ele>662</ele>
        <time>2019-04-09T12:39:09Z</time>
      </trkpt>
      <trkpt lat="44.42467" lon="5.98987">
        <ele>661</ele>
        <time>2019-04-09T12:39:10Z</time>
      </trkpt>
      <trkpt lat="44.42459" lon="5.98988">
        <ele>661</ele>
        <time>2019-04-09T12:39:11Z</time>
      </trkpt>
      <trkpt lat="44.42451" lon="5.98987">
        <ele>660</ele>
        <time>2019-04-09T12:39:12Z</time>
      </trkpt>
      <trkpt lat="44.42442" lon="5.98984">
        <ele>660</ele>
        <time>2019-04-09T12:39:13Z</time>
      </trkpt>
      <trkpt lat="44.42434" lon="5.98981">
        <ele>659</ele>
        <time>2019-04-09T12:39:14Z</time>
      </trkpt>
      <trkpt lat="44.42426" lon="5.98978">
        <ele>659</ele>
        <time>2019-04-09T12:39:15Z</time>
      </trkpt>
      <trkpt lat="44.42418" lon="5.98975">
        <ele>659</ele>
        <time>2019-04-09T12:39:16Z</time>
      </trkpt>
      <trkpt lat="44.4241" lon="5.9897">
        <ele>658</ele>
        <time>2019-04-09T12:39:17Z</time>
      </trkpt>
      <trkpt lat="44.42403" lon="5.98962">
        <ele>658</ele>
        <time>2019-04-09T12:39:18Z</time>
      </trkpt>
      <trkpt lat="44.42397" lon="5.98954">
        <ele>657</ele>
        <time>2019-04-09T12:39:19Z</time>
      </trkpt>
      <trkpt lat="44.4239" lon="5.98945">
        <ele>657</ele>
        <time>2019-04-09T12:39:20Z</time>
      </trkpt>
      <trkpt lat="44.42384" lon="5.98936">
        <ele>656</ele>
        <time>2019-04-09T12:39:21Z</time>
      </trkpt>
      <trkpt lat="44.42377" lon="5.98926">
        <ele>656</ele>
        <time>2019-04-09T12:39:22Z</time>
      </trkpt>
      <trkpt lat="44.4237" lon="5.98917">
        <ele>655</ele>
        <time>2019-04-09T12:39:23Z</time>
      </trkpt>
      <trkpt lat="44.42363" lon="5.98908">
        <ele>655</ele>
        <time>2019-04-09T12:39:24Z</time>
      </trkpt>
      <trkpt lat="44.42355" lon="5.98899">
        <ele>654</ele>
        <time>2019-04-09T12:39:25Z</time>
      </trkpt>
      <trkpt lat="44.42347" lon="5.9889">
        <ele>654</ele>
        <time>2019-04-09T12:39:26Z</time>
      </trkpt>
      <trkpt lat="44.4234" lon="5.98882">
        <ele>653</ele>
        <time>2019-04-09T12:39:27Z</time>
      </trkpt>
      <trkpt lat="44.42332" lon="5.98874">
        <ele>653</ele>
        <time>2019-04-09T12:39:28Z</time>
      </trkpt>
      <trkpt lat="44.42324" lon="5.98866">
        <ele>652</ele>
        <time>2019-04-09T12:39:29Z</time>
      </trkpt>
      <trkpt lat="44.42315" lon="5.98859">
        <ele>652</ele>
        <time>2019-04-09T12:39:30Z</time>
      </trkpt>
      <trkpt lat="44.42306" lon="5.98853">
        <ele>651</ele>
        <time>2019-04-09T12:39:31Z</time>
      </trkpt>
      <trkpt lat="44.42297" lon="5.98847">
        <ele>651</ele>
        <time>2019-04-09T12:39:32Z</time>
      </trkpt>
      <trkpt lat="44.42288" lon="5.98843">
        <ele>650</ele>
        <time>2019-04-09T12:39:33Z</time>
      </trkpt>
      <trkpt lat="44.42279" lon="5.9884">
        <ele>650</ele>
        <time>2019-04-09T12:39:34Z</time>
      </trkpt>
      <trkpt lat="44.4227" lon="5.98837">
        <ele>649</ele>
        <time>2019-04-09T12:39:35Z</time>
      </trkpt>
      <trkpt lat="44.42261" lon="5.98834">
        <ele>649</ele>
        <time>2019-04-09T12:39:36Z</time>
      </trkpt>
      <trkpt lat="44.42253" lon="5.98832">
        <ele>648</ele>
        <time>2019-04-09T12:39:37Z</time>
      </trkpt>
      <trkpt lat="44.42245" lon="5.9883">
        <ele>647</ele>
        <time>2019-04-09T12:39:38Z</time>
      </trkpt>
      <trkpt lat="44.42237" lon="5.98828">
        <ele>647</ele>
        <time>2019-04-09T12:39:39Z</time>
      </trkpt>
      <trkpt lat="44.42229" lon="5.98826">
        <ele>646</ele>
        <time>2019-04-09T12:39:40Z</time>
      </trkpt>
      <trkpt lat="44.4222" lon="5.98825">
        <ele>645</ele>
        <time>2019-04-09T12:39:41Z</time>
      </trkpt>
      <trkpt lat="44.42213" lon="5.98822">
        <ele>645</ele>
        <time>2019-04-09T12:39:42Z</time>
      </trkpt>
      <trkpt lat="44.42205" lon="5.9882">
        <ele>644</ele>
        <time>2019-04-09T12:39:43Z</time>
      </trkpt>
      <trkpt lat="44.42198" lon="5.98816">
        <ele>644</ele>
        <time>2019-04-09T12:39:44Z</time>
      </trkpt>
      <trkpt lat="44.42191" lon="5.98812">
        <ele>643</ele>
        <time>2019-04-09T12:39:45Z</time>
      </trkpt>
      <trkpt lat="44.42186" lon="5.98807">
        <ele>642</ele>
        <time>2019-04-09T12:39:46Z</time>
      </trkpt>
      <trkpt lat="44.4218" lon="5.98802">
        <ele>642</ele>
        <time>2019-04-09T12:39:47Z</time>
      </trkpt>
      <trkpt lat="44.42175" lon="5.98798">
        <ele>642</ele>
        <time>2019-04-09T12:39:48Z</time>
      </trkpt>
      <trkpt lat="44.4217" lon="5.98796">
        <ele>641</ele>
        <time>2019-04-09T12:39:49Z</time>
      </trkpt>
      <trkpt lat="44.42166" lon="5.98798">
        <ele>641</ele>
        <time>2019-04-09T12:39:50Z</time>
      </trkpt>
      <trkpt lat="44.42163" lon="5.98802">
        <ele>640</ele>
        <time>2019-04-09T12:39:51Z</time>
      </trkpt>
      <trkpt lat="44.42163" lon="5.98808">
        <ele>639</ele>
        <time>2019-04-09T12:39:52Z</time>
      </trkpt>
      <trkpt lat="44.42166" lon="5.98814">
        <ele>639</ele>
        <time>2019-04-09T12:39:53Z</time>
      </trkpt>
      <trkpt lat="44.4217" lon="5.98818">
        <ele>638</ele>
        <time>2019-04-09T12:39:54Z</time>
      </trkpt>
      <trkpt lat="44.42176" lon="5.98822">
        <ele>637</ele>
        <time>2019-04-09T12:39:55Z</time>
      </trkpt>
      <trkpt lat="44.42181" lon="5.98826">
        <ele>636</ele>
        <time>2019-04-09T12:39:56Z</time>
      </trkpt>
      <trkpt lat="44.42188" lon="5.98829">
        <ele>636</ele>
        <time>2019-04-09T12:39:57Z</time>
      </trkpt>
      <trkpt lat="44.42194" lon="5.98833">
        <ele>635</ele>
        <time>2019-04-09T12:39:58Z</time>
      </trkpt>
      <trkpt lat="44.422" lon="5.98837">
        <ele>635</ele>
        <time>2019-04-09T12:39:59Z</time>
      </trkpt>
      <trkpt lat="44.42207" lon="5.98841">
        <ele>634</ele>
        <time>2019-04-09T12:40:00Z</time>
      </trkpt>
      <trkpt lat="44.42214" lon="5.98845">
        <ele>634</ele>
        <time>2019-04-09T12:40:01Z</time>
      </trkpt>
      <trkpt lat="44.42221" lon="5.98851">
        <ele>633</ele>
        <time>2019-04-09T12:40:02Z</time>
      </trkpt>
      <trkpt lat="44.42228" lon="5.98856">
        <ele>633</ele>
        <time>2019-04-09T12:40:03Z</time>
      </trkpt>
      <trkpt lat="44.42235" lon="5.98862">
        <ele>632</ele>
        <time>2019-04-09T12:40:04Z</time>
      </trkpt>
      <trkpt lat="44.42243" lon="5.98868">
        <ele>632</ele>
        <time>2019-04-09T12:40:05Z</time>
      </trkpt>
      <trkpt lat="44.42251" lon="5.98874">
        <ele>631</ele>
        <time>2019-04-09T12:40:06Z</time>
      </trkpt>
      <trkpt lat="44.42259" lon="5.98881">
        <ele>630</ele>
        <time>2019-04-09T12:40:07Z</time>
      </trkpt>
      <trkpt lat="44.42267" lon="5.98889">
        <ele>630</ele>
        <time>2019-04-09T12:40:08Z</time>
      </trkpt>
      <trkpt lat="44.42275" lon="5.98897">
        <ele>629</ele>
        <time>2019-04-09T12:40:09Z</time>
      </trkpt>
      <trkpt lat="44.42282" lon="5.98906">
        <ele>629</ele>
        <time>2019-04-09T12:40:10Z</time>
      </trkpt>
      <trkpt lat="44.42289" lon="5.98916">
        <ele>628</ele>
        <time>2019-04-09T12:40:11Z</time>
      </trkpt>
      <trkpt lat="44.42295" lon="5.98926">
        <ele>628</ele>
        <time>2019-04-09T12:40:12Z</time>
      </trkpt>
      <trkpt lat="44.423" lon="5.98938">
        <ele>627</ele>
        <time>2019-04-09T12:40:13Z</time>
      </trkpt>
      <trkpt lat="44.42308" lon="5.9895">
        <ele>627</ele>
        <time>2019-04-09T12:40:14Z</time>
      </trkpt>
      <trkpt lat="44.42313" lon="5.98962">
        <ele>626</ele>
        <time>2019-04-09T12:40:15Z</time>
      </trkpt>
      <trkpt lat="44.42319" lon="5.98974">
        <ele>626</ele>
        <time>2019-04-09T12:40:16Z</time>
      </trkpt>
      <trkpt lat="44.42324" lon="5.98985">
        <ele>625</ele>
        <time>2019-04-09T12:40:17Z</time>
      </trkpt>
      <trkpt lat="44.42331" lon="5.98996">
        <ele>625</ele>
        <time>2019-04-09T12:40:18Z</time>
      </trkpt>
      <trkpt lat="44.42338" lon="5.99007">
        <ele>624</ele>
        <time>2019-04-09T12:40:19Z</time>
      </trkpt>
      <trkpt lat="44.42345" lon="5.99017">
        <ele>624</ele>
        <time>2019-04-09T12:40:20Z</time>
      </trkpt>
      <trkpt lat="44.42352" lon="5.99028">
        <ele>623</ele>
        <time>2019-04-09T12:40:21Z</time>
      </trkpt>
      <trkpt lat="44.42359" lon="5.99038">
        <ele>622</ele>
        <time>2019-04-09T12:40:22Z</time>
      </trkpt>
      <trkpt lat="44.42366" lon="5.99048">
        <ele>622</ele>
        <time>2019-04-09T12:40:23Z</time>
      </trkpt>
      <trkpt lat="44.42374" lon="5.99059">
        <ele>621</ele>
        <time>2019-04-09T12:40:24Z</time>
      </trkpt>
      <trkpt lat="44.42381" lon="5.9907">
        <ele>620</ele>
        <time>2019-04-09T12:40:25Z</time>
      </trkpt>
      <trkpt lat="44.42388" lon="5.99081">
        <ele>619</ele>
        <time>2019-04-09T12:40:26Z</time>
      </trkpt>
      <trkpt lat="44.42395" lon="5.99092">
        <ele>619</ele>
        <time>2019-04-09T12:40:27Z</time>
      </trkpt>
      <trkpt lat="44.42402" lon="5.99103">
        <ele>618</ele>
        <time>2019-04-09T12:40:28Z</time>
      </trkpt>
      <trkpt lat="44.42409" lon="5.99114">
        <ele>618</ele>
        <time>2019-04-09T12:40:29Z</time>
      </trkpt>
      <trkpt lat="44.42416" lon="5.99124">
        <ele>618</ele>
        <time>2019-04-09T12:40:30Z</time>
      </trkpt>
      <trkpt lat="44.42422" lon="5.99136">
        <ele>617</ele>
        <time>2019-04-09T12:40:32Z</time>
      </trkpt>
      <trkpt lat="44.42427" lon="5.99148">
        <ele>617</ele>
        <time>2019-04-09T12:40:32Z</time>
      </trkpt>
      <trkpt lat="44.42433" lon="5.9916">
        <ele>616</ele>
        <time>2019-04-09T12:40:33Z</time>
      </trkpt>
      <trkpt lat="44.42438" lon="5.99172">
        <ele>616</ele>
        <time>2019-04-09T12:40:34Z</time>
      </trkpt>
      <trkpt lat="44.42443" lon="5.99185">
        <ele>615</ele>
        <time>2019-04-09T12:40:35Z</time>
      </trkpt>
      <trkpt lat="44.42447" lon="5.99197">
        <ele>615</ele>
        <time>2019-04-09T12:40:36Z</time>
      </trkpt>
      <trkpt lat="44.4245" lon="5.99208">
        <ele>614</ele>
        <time>2019-04-09T12:40:37Z</time>
      </trkpt>
      <trkpt lat="44.42453" lon="5.9922">
        <ele>614</ele>
        <time>2019-04-09T12:40:38Z</time>
      </trkpt>
      <trkpt lat="44.42455" lon="5.99232">
        <ele>614</ele>
        <time>2019-04-09T12:40:39Z</time>
      </trkpt>
      <trkpt lat="44.42458" lon="5.99243">
        <ele>613</ele>
        <time>2019-04-09T12:40:40Z</time>
      </trkpt>
      <trkpt lat="44.4246" lon="5.99255">
        <ele>613</ele>
        <time>2019-04-09T12:40:41Z</time>
      </trkpt>
      <trkpt lat="44.42461" lon="5.99265">
        <ele>613</ele>
        <time>2019-04-09T12:40:42Z</time>
      </trkpt>
      <trkpt lat="44.42463" lon="5.99275">
        <ele>612</ele>
        <time>2019-04-09T12:40:43Z</time>
      </trkpt>
      <trkpt lat="44.42463" lon="5.99285">
        <ele>612</ele>
        <time>2019-04-09T12:40:44Z</time>
      </trkpt>
      <trkpt lat="44.42461" lon="5.99296">
        <ele>611</ele>
        <time>2019-04-09T12:40:45Z</time>
      </trkpt>
      <trkpt lat="44.42456" lon="5.99305">
        <ele>610</ele>
        <time>2019-04-09T12:40:46Z</time>
      </trkpt>
      <trkpt lat="44.4245" lon="5.99312">
        <ele>610</ele>
        <time>2019-04-09T12:40:47Z</time>
      </trkpt>
      <trkpt lat="44.42441" lon="5.99317">
        <ele>609</ele>
        <time>2019-04-09T12:40:48Z</time>
      </trkpt>
      <trkpt lat="44.42432" lon="5.99319">
        <ele>608</ele>
        <time>2019-04-09T12:40:49Z</time>
      </trkpt>
      <trkpt lat="44.42423" lon="5.9932">
        <ele>607</ele>
        <time>2019-04-09T12:40:50Z</time>
      </trkpt>
      <trkpt lat="44.42414" lon="5.99321">
        <ele>607</ele>
        <time>2019-04-09T12:40:51Z</time>
      </trkpt>
      <trkpt lat="44.42405" lon="5.99322">
        <ele>606</ele>
        <time>2019-04-09T12:40:52Z</time>
      </trkpt>
      <trkpt lat="44.42395" lon="5.99322">
        <ele>605</ele>
        <time>2019-04-09T12:40:53Z</time>
      </trkpt>
      <trkpt lat="44.42385" lon="5.99324">
        <ele>604</ele>
        <time>2019-04-09T12:40:54Z</time>
      </trkpt>
      <trkpt lat="44.42376" lon="5.99325">
        <ele>603</ele>
        <time>2019-04-09T12:40:55Z</time>
      </trkpt>
      <trkpt lat="44.42365" lon="5.99326">
        <ele>602</ele>
        <time>2019-04-09T12:40:56Z</time>
      </trkpt>
      <trkpt lat="44.42355" lon="5.99328">
        <ele>602</ele>
        <time>2019-04-09T12:40:57Z</time>
      </trkpt>
      <trkpt lat="44.42345" lon="5.99329">
        <ele>601</ele>
        <time>2019-04-09T12:40:58Z</time>
      </trkpt>
      <trkpt lat="44.42335" lon="5.9933">
        <ele>600</ele>
        <time>2019-04-09T12:40:59Z</time>
      </trkpt>
      <trkpt lat="44.42325" lon="5.99331">
        <ele>600</ele>
        <time>2019-04-09T12:41:00Z</time>
      </trkpt>
      <trkpt lat="44.42315" lon="5.99332">
        <ele>599</ele>
        <time>2019-04-09T12:41:01Z</time>
      </trkpt>
      <trkpt lat="44.42305" lon="5.99333">
        <ele>598</ele>
        <time>2019-04-09T12:41:02Z</time>
      </trkpt>
      <trkpt lat="44.42294" lon="5.99334">
        <ele>598</ele>
        <time>2019-04-09T12:41:03Z</time>
      </trkpt>
      <trkpt lat="44.42284" lon="5.99335">
        <ele>597</ele>
        <time>2019-04-09T12:41:04Z</time>
      </trkpt>
      <trkpt lat="44.42274" lon="5.99336">
        <ele>597</ele>
        <time>2019-04-09T12:41:05Z</time>
      </trkpt>
      <trkpt lat="44.42264" lon="5.99338">
        <ele>596</ele>
        <time>2019-04-09T12:41:06Z</time>
      </trkpt>
      <trkpt lat="44.42254" lon="5.99339">
        <ele>595</ele>
        <time>2019-04-09T12:41:07Z</time>
      </trkpt>
      <trkpt lat="44.42244" lon="5.9934">
        <ele>595</ele>
        <time>2019-04-09T12:41:08Z</time>
      </trkpt>
      <trkpt lat="44.42234" lon="5.99341">
        <ele>594</ele>
        <time>2019-04-09T12:41:09Z</time>
      </trkpt>
      <trkpt lat="44.42224" lon="5.99342">
        <ele>594</ele>
        <time>2019-04-09T12:41:10Z</time>
      </trkpt>
      <trkpt lat="44.42215" lon="5.99343">
        <ele>594</ele>
        <time>2019-04-09T12:41:11Z</time>
      </trkpt>
      <trkpt lat="44.42205" lon="5.99344">
        <ele>593</ele>
        <time>2019-04-09T12:41:12Z</time>
      </trkpt>
      <trkpt lat="44.42196" lon="5.99345">
        <ele>593</ele>
        <time>2019-04-09T12:41:13Z</time>
      </trkpt>
      <trkpt lat="44.42187" lon="5.99346">
        <ele>592</ele>
        <time>2019-04-09T12:41:14Z</time>
      </trkpt>
      <trkpt lat="44.42178" lon="5.99348">
        <ele>592</ele>
        <time>2019-04-09T12:41:15Z</time>
      </trkpt>
      <trkpt lat="44.42169" lon="5.99349">
        <ele>592</ele>
        <time>2019-04-09T12:41:16Z</time>
      </trkpt>
      <trkpt lat="44.4216" lon="5.9935">
        <ele>591</ele>
        <time>2019-04-09T12:41:17Z</time>
      </trkpt>
      <trkpt lat="44.42151" lon="5.9935">
        <ele>591</ele>
        <time>2019-04-09T12:41:18Z</time>
      </trkpt>
      <trkpt lat="44.42142" lon="5.99351">
        <ele>591</ele>
        <time>2019-04-09T12:41:19Z</time>
      </trkpt>
      <trkpt lat="44.42133" lon="5.99352">
        <ele>590</ele>
        <time>2019-04-09T12:41:20Z</time>
      </trkpt>
      <trkpt lat="44.42123" lon="5.99354">
        <ele>590</ele>
        <time>2019-04-09T12:41:21Z</time>
      </trkpt>
      <trkpt lat="44.42114" lon="5.99355">
        <ele>589</ele>
        <time>2019-04-09T12:41:22Z</time>
      </trkpt>
      <trkpt lat="44.42105" lon="5.99356">
        <ele>589</ele>
        <time>2019-04-09T12:41:23Z</time>
      </trkpt>
      <trkpt lat="44.42096" lon="5.99358">
        <ele>588</ele>
        <time>2019-04-09T12:41:24Z</time>
      </trkpt>
      <trkpt lat="44.42088" lon="5.9936">
        <ele>588</ele>
        <time>2019-04-09T12:41:25Z</time>
      </trkpt>
      <trkpt lat="44.42081" lon="5.99362">
        <ele>588</ele>
        <time>2019-04-09T12:41:26Z</time>
      </trkpt>
      <trkpt lat="44.42075" lon="5.99366">
        <ele>587</ele>
        <time>2019-04-09T12:41:27Z</time>
      </trkpt>
      <trkpt lat="44.4207" lon="5.99372">
        <ele>587</ele>
        <time>2019-04-09T12:41:28Z</time>
      </trkpt>
      <trkpt lat="44.42065" lon="5.99378">
        <ele>586</ele>
        <time>2019-04-09T12:41:29Z</time>
      </trkpt>
      <trkpt lat="44.42062" lon="5.99384">
        <ele>586</ele>
        <time>2019-04-09T12:41:30Z</time>
      </trkpt>
      <trkpt lat="44.42059" lon="5.9939">
        <ele>585</ele>
        <time>2019-04-09T12:41:31Z</time>
      </trkpt>
      <trkpt lat="44.42057" lon="5.99395">
        <ele>585</ele>
        <time>2019-04-09T12:41:32Z</time>
      </trkpt>
      <trkpt lat="44.42055" lon="5.99401">
        <ele>585</ele>
        <time>2019-04-09T12:41:33Z</time>
      </trkpt>
      <trkpt lat="44.42054" lon="5.99407">
        <ele>584</ele>
        <time>2019-04-09T12:41:34Z</time>
      </trkpt>
      <trkpt lat="44.42053" lon="5.99414">
        <ele>584</ele>
        <time>2019-04-09T12:41:35Z</time>
      </trkpt>
      <trkpt lat="44.42053" lon="5.99422">
        <ele>583</ele>
        <time>2019-04-09T12:41:36Z</time>
      </trkpt>
      <trkpt lat="44.42054" lon="5.9943">
        <ele>583</ele>
        <time>2019-04-09T12:41:37Z</time>
      </trkpt>
      <trkpt lat="44.42056" lon="5.99437">
        <ele>583</ele>
        <time>2019-04-09T12:41:38Z</time>
      </trkpt>
      <trkpt lat="44.42059" lon="5.99444">
        <ele>583</ele>
        <time>2019-04-09T12:41:39Z</time>
      </trkpt>
      <trkpt lat="44.42062" lon="5.99451">
        <ele>583</ele>
        <time>2019-04-09T12:41:40Z</time>
      </trkpt>
      <trkpt lat="44.42065" lon="5.99458">
        <ele>583</ele>
        <time>2019-04-09T12:41:41Z</time>
      </trkpt>
      <trkpt lat="44.42068" lon="5.99465">
        <ele>583</ele>
        <time>2019-04-09T12:41:42Z</time>
      </trkpt>
      <trkpt lat="44.42071" lon="5.99473">
        <ele>583</ele>
        <time>2019-04-09T12:41:43Z</time>
      </trkpt>
      <trkpt lat="44.42073" lon="5.9948">
        <ele>583</ele>
        <time>2019-04-09T12:41:44Z</time>
      </trkpt>
      <trkpt lat="44.42076" lon="5.99487">
        <ele>583</ele>
        <time>2019-04-09T12:41:45Z</time>
      </trkpt>
      <trkpt lat="44.42078" lon="5.99494">
        <ele>583</ele>
        <time>2019-04-09T12:41:46Z</time>
      </trkpt>
      <trkpt lat="44.42081" lon="5.99501">
        <ele>583</ele>
        <time>2019-04-09T12:41:47Z</time>
      </trkpt>
      <trkpt lat="44.42083" lon="5.99508">
        <ele>583</ele>
        <time>2019-04-09T12:41:48Z</time>
      </trkpt>
      <trkpt lat="44.42086" lon="5.99514">
        <ele>583</ele>
        <time>2019-04-09T12:41:49Z</time>
      </trkpt>
      <trkpt lat="44.42088" lon="5.99521">
        <ele>583</ele>
        <time>2019-04-09T12:41:50Z</time>
      </trkpt>
      <trkpt lat="44.42091" lon="5.99528">
        <ele>583</ele>
        <time>2019-04-09T12:41:51Z</time>
      </trkpt>
      <trkpt lat="44.42093" lon="5.99535">
        <ele>583</ele>
        <time>2019-04-09T12:41:52Z</time>
      </trkpt>
      <trkpt lat="44.42095" lon="5.99542">
        <ele>583</ele>
        <time>2019-04-09T12:41:53Z</time>
      </trkpt>
      <trkpt lat="44.42098" lon="5.99548">
        <ele>583</ele>
        <time>2019-04-09T12:41:54Z</time>
      </trkpt>
      <trkpt lat="44.421" lon="5.99555">
        <ele>583</ele>
        <time>2019-04-09T12:41:55Z</time>
      </trkpt>
      <trkpt lat="44.42103" lon="5.99561">
        <ele>583</ele>
        <time>2019-04-09T12:41:56Z</time>
      </trkpt>
      <trkpt lat="44.42105" lon="5.99568">
        <ele>583</ele>
        <time>2019-04-09T12:41:57Z</time>
      </trkpt>
      <trkpt lat="44.42107" lon="5.99574">
        <ele>583</ele>
        <time>2019-04-09T12:41:58Z</time>
      </trkpt>
      <trkpt lat="44.4211" lon="5.9958">
        <ele>583</ele>
        <time>2019-04-09T12:41:59Z</time>
      </trkpt>
      <trkpt lat="44.42112" lon="5.99586">
        <ele>583</ele>
        <time>2019-04-09T12:42:00Z</time>
      </trkpt>
      <trkpt lat="44.42114" lon="5.99592">
        <ele>583</ele>
        <time>2019-04-09T12:42:01Z</time>
      </trkpt>
      <trkpt lat="44.42116" lon="5.99599">
        <ele>583</ele>
        <time>2019-04-09T12:42:02Z</time>
      </trkpt>
      <trkpt lat="44.42118" lon="5.99606">
        <ele>583</ele>
        <time>2019-04-09T12:42:03Z</time>
      </trkpt>
      <trkpt lat="44.4212" lon="5.99612">
        <ele>583</ele>
        <time>2019-04-09T12:42:04Z</time>
      </trkpt>
      <trkpt lat="44.42122" lon="5.99619">
        <ele>583</ele>
        <time>2019-04-09T12:42:05Z</time>
      </trkpt>
      <trkpt lat="44.42125" lon="5.99626">
        <ele>583</ele>
        <time>2019-04-09T12:42:06Z</time>
      </trkpt>
      <trkpt lat="44.42127" lon="5.99633">
        <ele>583</ele>
        <time>2019-04-09T12:42:07Z</time>
      </trkpt>
      <trkpt lat="44.42129" lon="5.99641">
        <ele>583</ele>
        <time>2019-04-09T12:42:08Z</time>
      </trkpt>
      <trkpt lat="44.42131" lon="5.99648">
        <ele>583</ele>
        <time>2019-04-09T12:42:09Z</time>
      </trkpt>
      <trkpt lat="44.42133" lon="5.99655">
        <ele>583</ele>
        <time>2019-04-09T12:42:10Z</time>
      </trkpt>
      <trkpt lat="44.42136" lon="5.99662">
        <ele>583</ele>
        <time>2019-04-09T12:42:11Z</time>
      </trkpt>
      <trkpt lat="44.42138" lon="5.99669">
        <ele>583</ele>
        <time>2019-04-09T12:42:12Z</time>
      </trkpt>
      <trkpt lat="44.42141" lon="5.99676">
        <ele>582</ele>
        <time>2019-04-09T12:42:13Z</time>
      </trkpt>
      <trkpt lat="44.42143" lon="5.99683">
        <ele>582</ele>
        <time>2019-04-09T12:42:14Z</time>
      </trkpt>
      <trkpt lat="44.42145" lon="5.9969">
        <ele>582</ele>
        <time>2019-04-09T12:42:15Z</time>
      </trkpt>
      <trkpt lat="44.42147" lon="5.99697">
        <ele>582</ele>
        <time>2019-04-09T12:42:16Z</time>
      </trkpt>
      <trkpt lat="44.4215" lon="5.99704">
        <ele>582</ele>
        <time>2019-04-09T12:42:17Z</time>
      </trkpt>
      <trkpt lat="44.42152" lon="5.99711">
        <ele>582</ele>
        <time>2019-04-09T12:42:18Z</time>
      </trkpt>
      <trkpt lat="44.42154" lon="5.99718">
        <ele>582</ele>
        <time>2019-04-09T12:42:19Z</time>
      </trkpt>
      <trkpt lat="44.42157" lon="5.99725">
        <ele>582</ele>
        <time>2019-04-09T12:42:20Z</time>
      </trkpt>
      <trkpt lat="44.42159" lon="5.99732">
        <ele>582</ele>
        <time>2019-04-09T12:42:21Z</time>
      </trkpt>
      <trkpt lat="44.42161" lon="5.99739">
        <ele>582</ele>
        <time>2019-04-09T12:42:22Z</time>
      </trkpt>
      <trkpt lat="44.42164" lon="5.99746">
        <ele>582</ele>
        <time>2019-04-09T12:42:23Z</time>
      </trkpt>
      <trkpt lat="44.42166" lon="5.99753">
        <ele>582</ele>
        <time>2019-04-09T12:42:24Z</time>
      </trkpt>
      <trkpt lat="44.42168" lon="5.9976">
        <ele>582</ele>
        <time>2019-04-09T12:42:25Z</time>
      </trkpt>
      <trkpt lat="44.4217" lon="5.99767">
        <ele>582</ele>
        <time>2019-04-09T12:42:26Z</time>
      </trkpt>
      <trkpt lat="44.42173" lon="5.99774">
        <ele>582</ele>
        <time>2019-04-09T12:42:27Z</time>
      </trkpt>
      <trkpt lat="44.42175" lon="5.99781">
        <ele>582</ele>
        <time>2019-04-09T12:42:28Z</time>
      </trkpt>
      <trkpt lat="44.42177" lon="5.99788">
        <ele>582</ele>
        <time>2019-04-09T12:42:29Z</time>
      </trkpt>
      <trkpt lat="44.4218" lon="5.99795">
        <ele>582</ele>
        <time>2019-04-09T12:42:30Z</time>
      </trkpt>
      <trkpt lat="44.42182" lon="5.99802">
        <ele>582</ele>
        <time>2019-04-09T12:42:31Z</time>
      </trkpt>
      <trkpt lat="44.42185" lon="5.9981">
        <ele>582</ele>
        <time>2019-04-09T12:42:32Z</time>
      </trkpt>
      <trkpt lat="44.42187" lon="5.99817">
        <ele>581</ele>
        <time>2019-04-09T12:42:33Z</time>
      </trkpt>
      <trkpt lat="44.4219" lon="5.99825">
        <ele>581</ele>
        <time>2019-04-09T12:42:34Z</time>
      </trkpt>
      <trkpt lat="44.42192" lon="5.99833">
        <ele>581</ele>
        <time>2019-04-09T12:42:35Z</time>
      </trkpt>
      <trkpt lat="44.42195" lon="5.99841">
        <ele>581</ele>
        <time>2019-04-09T12:42:36Z</time>
      </trkpt>
      <trkpt lat="44.42197" lon="5.99849">
        <ele>581</ele>
        <time>2019-04-09T12:42:37Z</time>
      </trkpt>
      <trkpt lat="44.422" lon="5.99857">
        <ele>581</ele>
        <time>2019-04-09T12:42:38Z</time>
      </trkpt>
      <trkpt lat="44.42202" lon="5.99865">
        <ele>581</ele>
        <time>2019-04-09T12:42:39Z</time>
      </trkpt>
      <trkpt lat="44.42205" lon="5.99872">
        <ele>580</ele>
        <time>2019-04-09T12:42:40Z</time>
      </trkpt>
      <trkpt lat="44.42207" lon="5.9988">
        <ele>580</ele>
        <time>2019-04-09T12:42:41Z</time>
      </trkpt>
      <trkpt lat="44.4221" lon="5.99888">
        <ele>580</ele>
        <time>2019-04-09T12:42:42Z</time>
      </trkpt>
      <trkpt lat="44.42212" lon="5.99895">
        <ele>580</ele>
        <time>2019-04-09T12:42:43Z</time>
      </trkpt>
      <trkpt lat="44.42215" lon="5.99903">
        <ele>580</ele>
        <time>2019-04-09T12:42:44Z</time>
      </trkpt>
      <trkpt lat="44.42217" lon="5.9991">
        <ele>580</ele>
        <time>2019-04-09T12:42:45Z</time>
      </trkpt>
      <trkpt lat="44.4222" lon="5.99918">
        <ele>580</ele>
        <time>2019-04-09T12:42:46Z</time>
      </trkpt>
      <trkpt lat="44.42222" lon="5.99926">
        <ele>580</ele>
        <time>2019-04-09T12:42:47Z</time>
      </trkpt>
      <trkpt lat="44.42224" lon="5.99933">
        <ele>580</ele>
        <time>2019-04-09T12:42:48Z</time>
      </trkpt>
      <trkpt lat="44.42227" lon="5.9994">
        <ele>580</ele>
        <time>2019-04-09T12:42:49Z</time>
      </trkpt>
      <trkpt lat="44.42229" lon="5.99948">
        <ele>580</ele>
        <time>2019-04-09T12:42:50Z</time>
      </trkpt>
      <trkpt lat="44.42231" lon="5.99955">
        <ele>580</ele>
        <time>2019-04-09T12:42:51Z</time>
      </trkpt>
      <trkpt lat="44.42234" lon="5.99962">
        <ele>580</ele>
        <time>2019-04-09T12:42:52Z</time>
      </trkpt>
      <trkpt lat="44.42236" lon="5.9997">
        <ele>580</ele>
        <time>2019-04-09T12:42:53Z</time>
      </trkpt>
      <trkpt lat="44.42239" lon="5.99977">
        <ele>580</ele>
        <time>2019-04-09T12:42:54Z</time>
      </trkpt>
      <trkpt lat="44.42241" lon="5.99985">
        <ele>580</ele>
        <time>2019-04-09T12:42:55Z</time>
      </trkpt>
      <trkpt lat="44.42243" lon="5.99992">
        <ele>580</ele>
        <time>2019-04-09T12:42:56Z</time>
      </trkpt>
      <trkpt lat="44.42245" lon="5.99999">
        <ele>580</ele>
        <time>2019-04-09T12:42:57Z</time>
      </trkpt>
      <trkpt lat="44.42247" lon="6.00006">
        <ele>580</ele>
        <time>2019-04-09T12:42:58Z</time>
      </trkpt>
      <trkpt lat="44.4225" lon="6.00014">
        <ele>580</ele>
        <time>2019-04-09T12:42:59Z</time>
      </trkpt>
      <trkpt lat="44.42252" lon="6.00021">
        <ele>580</ele>
        <time>2019-04-09T12:43:00Z</time>
      </trkpt>
      <trkpt lat="44.42254" lon="6.00028">
        <ele>580</ele>
        <time>2019-04-09T12:43:01Z</time>
      </trkpt>
      <trkpt lat="44.42256" lon="6.00034">
        <ele>580</ele>
        <time>2019-04-09T12:43:02Z</time>
      </trkpt>
      <trkpt lat="44.42258" lon="6.00041">
        <ele>580</ele>
        <time>2019-04-09T12:43:03Z</time>
      </trkpt>
      <trkpt lat="44.42261" lon="6.00048">
        <ele>580</ele>
        <time>2019-04-09T12:43:04Z</time>
      </trkpt>
      <trkpt lat="44.42263" lon="6.00055">
        <ele>579</ele>
        <time>2019-04-09T12:43:05Z</time>
      </trkpt>
      <trkpt lat="44.42265" lon="6.00061">
        <ele>579</ele>
        <time>2019-04-09T12:43:06Z</time>
      </trkpt>
      <trkpt lat="44.42268" lon="6.00068">
        <ele>579</ele>
        <time>2019-04-09T12:43:07Z</time>
      </trkpt>
      <trkpt lat="44.4227" lon="6.00075">
        <ele>579</ele>
        <time>2019-04-09T12:43:08Z</time>
      </trkpt>
      <trkpt lat="44.42273" lon="6.00082">
        <ele>579</ele>
        <time>2019-04-09T12:43:09Z</time>
      </trkpt>
      <trkpt lat="44.42275" lon="6.00089">
        <ele>579</ele>
        <time>2019-04-09T12:43:10Z</time>
      </trkpt>
      <trkpt lat="44.42277" lon="6.00096">
        <ele>579</ele>
        <time>2019-04-09T12:43:11Z</time>
      </trkpt>
      <trkpt lat="44.4228" lon="6.00103">
        <ele>579</ele>
        <time>2019-04-09T12:43:12Z</time>
      </trkpt>
      <trkpt lat="44.42282" lon="6.00109">
        <ele>579</ele>
        <time>2019-04-09T12:43:13Z</time>
      </trkpt>
      <trkpt lat="44.42284" lon="6.00116">
        <ele>579</ele>
        <time>2019-04-09T12:43:14Z</time>
      </trkpt>
      <trkpt lat="44.42287" lon="6.00124">
        <ele>579</ele>
        <time>2019-04-09T12:43:15Z</time>
      </trkpt>
      <trkpt lat="44.42289" lon="6.00131">
        <ele>579</ele>
        <time>2019-04-09T12:43:16Z</time>
      </trkpt>
      <trkpt lat="44.42291" lon="6.00138">
        <ele>579</ele>
        <time>2019-04-09T12:43:17Z</time>
      </trkpt>
      <trkpt lat="44.42293" lon="6.00145">
        <ele>579</ele>
        <time>2019-04-09T12:43:18Z</time>
      </trkpt>
      <trkpt lat="44.42295" lon="6.00151">
        <ele>579</ele>
        <time>2019-04-09T12:43:19Z</time>
      </trkpt>
      <trkpt lat="44.42297" lon="6.00158">
        <ele>579</ele>
        <time>2019-04-09T12:43:20Z</time>
      </trkpt>
      <trkpt lat="44.423" lon="6.00165">
        <ele>579</ele>
        <time>2019-04-09T12:43:21Z</time>
      </trkpt>
      <trkpt lat="44.42302" lon="6.00172">
        <ele>579</ele>
        <time>2019-04-09T12:43:22Z</time>
      </trkpt>
      <trkpt lat="44.42304" lon="6.00179">
        <ele>579</ele>
        <time>2019-04-09T12:43:23Z</time>
      </trkpt>
      <trkpt lat="44.42307" lon="6.00185">
        <ele>579</ele>
        <time>2019-04-09T12:43:24Z</time>
      </trkpt>
      <trkpt lat="44.42309" lon="6.00192">
        <ele>579</ele>
        <time>2019-04-09T12:43:25Z</time>
      </trkpt>
      <trkpt lat="44.42311" lon="6.00199">
        <ele>579</ele>
        <time>2019-04-09T12:43:26Z</time>
      </trkpt>
      <trkpt lat="44.42313" lon="6.00205">
        <ele>579</ele>
        <time>2019-04-09T12:43:27Z</time>
      </trkpt>
      <trkpt lat="44.42315" lon="6.00212">
        <ele>579</ele>
        <time>2019-04-09T12:43:28Z</time>
      </trkpt>
      <trkpt lat="44.42317" lon="6.00218">
        <ele>579</ele>
        <time>2019-04-09T12:43:29Z</time>
      </trkpt>
      <trkpt lat="44.42319" lon="6.00225">
        <ele>579</ele>
        <time>2019-04-09T12:43:30Z</time>
      </trkpt>
      <trkpt lat="44.42321" lon="6.00231">
        <ele>579</ele>
        <time>2019-04-09T12:43:31Z</time>
      </trkpt>
      <trkpt lat="44.42323" lon="6.00238">
        <ele>579</ele>
        <time>2019-04-09T12:43:32Z</time>
      </trkpt>
      <trkpt lat="44.42325" lon="6.00244">
        <ele>579</ele>
        <time>2019-04-09T12:43:33Z</time>
      </trkpt>
      <trkpt lat="44.42327" lon="6.00251">
        <ele>579</ele>
        <time>2019-04-09T12:43:34Z</time>
      </trkpt>
      <trkpt lat="44.42329" lon="6.00257">
        <ele>579</ele>
        <time>2019-04-09T12:43:35Z</time>
      </trkpt>
      <trkpt lat="44.42331" lon="6.00264">
        <ele>579</ele>
        <time>2019-04-09T12:43:36Z</time>
      </trkpt>
      <trkpt lat="44.42334" lon="6.0027">
        <ele>579</ele>
        <time>2019-04-09T12:43:37Z</time>
      </trkpt>
      <trkpt lat="44.42336" lon="6.00276">
        <ele>579</ele>
        <time>2019-04-09T12:43:38Z</time>
      </trkpt>
      <trkpt lat="44.42339" lon="6.00282">
        <ele>579</ele>
        <time>2019-04-09T12:43:39Z</time>
      </trkpt>
      <trkpt lat="44.4234" lon="6.00289">
        <ele>579</ele>
        <time>2019-04-09T12:43:40Z</time>
      </trkpt>
      <trkpt lat="44.42342" lon="6.00295">
        <ele>579</ele>
        <time>2019-04-09T12:43:41Z</time>
      </trkpt>
      <trkpt lat="44.42344" lon="6.00301">
        <ele>579</ele>
        <time>2019-04-09T12:43:42Z</time>
      </trkpt>
      <trkpt lat="44.42346" lon="6.00308">
        <ele>579</ele>
        <time>2019-04-09T12:43:43Z</time>
      </trkpt>
      <trkpt lat="44.42348" lon="6.00314">
        <ele>579</ele>
        <time>2019-04-09T12:43:44Z</time>
      </trkpt>
      <trkpt lat="44.4235" lon="6.0032">
        <ele>579</ele>
        <time>2019-04-09T12:43:45Z</time>
      </trkpt>
      <trkpt lat="44.42352" lon="6.00326">
        <ele>579</ele>
        <time>2019-04-09T12:43:46Z</time>
      </trkpt>
      <trkpt lat="44.42354" lon="6.00333">
        <ele>579</ele>
        <time>2019-04-09T12:43:47Z</time>
      </trkpt>
      <trkpt lat="44.42356" lon="6.00339">
        <ele>579</ele>
        <time>2019-04-09T12:43:48Z</time>
      </trkpt>
      <trkpt lat="44.42358" lon="6.00345">
        <ele>579</ele>
        <time>2019-04-09T12:43:49Z</time>
      </trkpt>
      <trkpt lat="44.4236" lon="6.00351">
        <ele>579</ele>
        <time>2019-04-09T12:43:50Z</time>
      </trkpt>
      <trkpt lat="44.42362" lon="6.00358">
        <ele>579</ele>
        <time>2019-04-09T12:43:51Z</time>
      </trkpt>
      <trkpt lat="44.42365" lon="6.00364">
        <ele>579</ele>
        <time>2019-04-09T12:43:52Z</time>
      </trkpt>
      <trkpt lat="44.42366" lon="6.00371">
        <ele>579</ele>
        <time>2019-04-09T12:43:53Z</time>
      </trkpt>
      <trkpt lat="44.42369" lon="6.00377">
        <ele>579</ele>
        <time>2019-04-09T12:43:54Z</time>
      </trkpt>
      <trkpt lat="44.42371" lon="6.00383">
        <ele>579</ele>
        <time>2019-04-09T12:43:55Z</time>
      </trkpt>
      <trkpt lat="44.42373" lon="6.0039">
        <ele>579</ele>
        <time>2019-04-09T12:43:56Z</time>
      </trkpt>
      <trkpt lat="44.42375" lon="6.00396">
        <ele>579</ele>
        <time>2019-04-09T12:43:57Z</time>
      </trkpt>
      <trkpt lat="44.42377" lon="6.00402">
        <ele>579</ele>
        <time>2019-04-09T12:43:58Z</time>
      </trkpt>
      <trkpt lat="44.42379" lon="6.00409">
        <ele>579</ele>
        <time>2019-04-09T12:43:59Z</time>
      </trkpt>
      <trkpt lat="44.42382" lon="6.00415">
        <ele>579</ele>
        <time>2019-04-09T12:44:00Z</time>
      </trkpt>
      <trkpt lat="44.42384" lon="6.00422">
        <ele>579</ele>
        <time>2019-04-09T12:44:01Z</time>
      </trkpt>
      <trkpt lat="44.42386" lon="6.00428">
        <ele>579</ele>
        <time>2019-04-09T12:44:02Z</time>
      </trkpt>
      <trkpt lat="44.42388" lon="6.00434">
        <ele>579</ele>
        <time>2019-04-09T12:44:03Z</time>
      </trkpt>
      <trkpt lat="44.4239" lon="6.00441">
        <ele>579</ele>
        <time>2019-04-09T12:44:04Z</time>
      </trkpt>
      <trkpt lat="44.42393" lon="6.00447">
        <ele>579</ele>
        <time>2019-04-09T12:44:05Z</time>
      </trkpt>
      <trkpt lat="44.42395" lon="6.00454">
        <ele>579</ele>
        <time>2019-04-09T12:44:06Z</time>
      </trkpt>
      <trkpt lat="44.42397" lon="6.0046">
        <ele>579</ele>
        <time>2019-04-09T12:44:07Z</time>
      </trkpt>
      <trkpt lat="44.42399" lon="6.00466">
        <ele>580</ele>
        <time>2019-04-09T12:44:08Z</time>
      </trkpt>
      <trkpt lat="44.42402" lon="6.00472">
        <ele>580</ele>
        <time>2019-04-09T12:44:09Z</time>
      </trkpt>
      <trkpt lat="44.42404" lon="6.00478">
        <ele>580</ele>
        <time>2019-04-09T12:44:10Z</time>
      </trkpt>
      <trkpt lat="44.42406" lon="6.00484">
        <ele>580</ele>
        <time>2019-04-09T12:44:11Z</time>
      </trkpt>
      <trkpt lat="44.42408" lon="6.0049">
        <ele>580</ele>
        <time>2019-04-09T12:44:12Z</time>
      </trkpt>
      <trkpt lat="44.42411" lon="6.00496">
        <ele>580</ele>
        <time>2019-04-09T12:44:13Z</time>
      </trkpt>
      <trkpt lat="44.42413" lon="6.00501">
        <ele>580</ele>
        <time>2019-04-09T12:44:14Z</time>
      </trkpt>
      <trkpt lat="44.42416" lon="6.00507">
        <ele>581</ele>
        <time>2019-04-09T12:44:15Z</time>
      </trkpt>
      <trkpt lat="44.42418" lon="6.00513">
        <ele>581</ele>
        <time>2019-04-09T12:44:16Z</time>
      </trkpt>
      <trkpt lat="44.4242" lon="6.0052">
        <ele>581</ele>
        <time>2019-04-09T12:44:17Z</time>
      </trkpt>
      <trkpt lat="44.42421" lon="6.00526">
        <ele>581</ele>
        <time>2019-04-09T12:44:18Z</time>
      </trkpt>
      <trkpt lat="44.42423" lon="6.00532">
        <ele>582</ele>
        <time>2019-04-09T12:44:19Z</time>
      </trkpt>
      <trkpt lat="44.42424" lon="6.00538">
        <ele>582</ele>
        <time>2019-04-09T12:44:20Z</time>
      </trkpt>
      <trkpt lat="44.42426" lon="6.00544">
        <ele>582</ele>
        <time>2019-04-09T12:44:21Z</time>
      </trkpt>
      <trkpt lat="44.42428" lon="6.00551">
        <ele>582</ele>
        <time>2019-04-09T12:44:22Z</time>
      </trkpt>
      <trkpt lat="44.42431" lon="6.00558">
        <ele>582</ele>
        <time>2019-04-09T12:44:23Z</time>
      </trkpt>
      <trkpt lat="44.42434" lon="6.00565">
        <ele>582</ele>
        <time>2019-04-09T12:44:24Z</time>
      </trkpt>
      <trkpt lat="44.42438" lon="6.00572">
        <ele>582</ele>
        <time>2019-04-09T12:44:25Z</time>
      </trkpt>
      <trkpt lat="44.4244" lon="6.00579">
        <ele>582</ele>
        <time>2019-04-09T12:44:26Z</time>
      </trkpt>
      <trkpt lat="44.42441" lon="6.00587">
        <ele>582</ele>
        <time>2019-04-09T12:44:27Z</time>
      </trkpt>
      <trkpt lat="44.42443" lon="6.00595">
        <ele>582</ele>
        <time>2019-04-09T12:44:28Z</time>
      </trkpt>
      <trkpt lat="44.42445" lon="6.00602">
        <ele>582</ele>
        <time>2019-04-09T12:44:29Z</time>
      </trkpt>
      <trkpt lat="44.42447" lon="6.0061">
        <ele>582</ele>
        <time>2019-04-09T12:44:30Z</time>
      </trkpt>
      <trkpt lat="44.42448" lon="6.00619">
        <ele>582</ele>
        <time>2019-04-09T12:44:31Z</time>
      </trkpt>
      <trkpt lat="44.42448" lon="6.00628">
        <ele>582</ele>
        <time>2019-04-09T12:44:32Z</time>
      </trkpt>
      <trkpt lat="44.42449" lon="6.00636">
        <ele>582</ele>
        <time>2019-04-09T12:44:33Z</time>
      </trkpt>
      <trkpt lat="44.4245" lon="6.00646">
        <ele>582</ele>
        <time>2019-04-09T12:44:34Z</time>
      </trkpt>
      <trkpt lat="44.42451" lon="6.00655">
        <ele>582</ele>
        <time>2019-04-09T12:44:35Z</time>
      </trkpt>
      <trkpt lat="44.42454" lon="6.00664">
        <ele>582</ele>
        <time>2019-04-09T12:44:36Z</time>
      </trkpt>
      <trkpt lat="44.42456" lon="6.00672">
        <ele>582</ele>
        <time>2019-04-09T12:44:37Z</time>
      </trkpt>
      <trkpt lat="44.4246" lon="6.0068">
        <ele>582</ele>
        <time>2019-04-09T12:44:38Z</time>
      </trkpt>
      <trkpt lat="44.42463" lon="6.00688">
        <ele>582</ele>
        <time>2019-04-09T12:44:39Z</time>
      </trkpt>
      <trkpt lat="44.42467" lon="6.00694">
        <ele>582</ele>
        <time>2019-04-09T12:44:40Z</time>
      </trkpt>
      <trkpt lat="44.42471" lon="6.007">
        <ele>582</ele>
        <time>2019-04-09T12:44:41Z</time>
      </trkpt>
      <trkpt lat="44.42476" lon="6.00706">
        <ele>582</ele>
        <time>2019-04-09T12:44:42Z</time>
      </trkpt>
      <trkpt lat="44.42479" lon="6.00712">
        <ele>582</ele>
        <time>2019-04-09T12:44:43Z</time>
      </trkpt>
      <trkpt lat="44.42481" lon="6.0072">
        <ele>582</ele>
        <time>2019-04-09T12:44:44Z</time>
      </trkpt>
      <trkpt lat="44.42482" lon="6.00727">
        <ele>582</ele>
        <time>2019-04-09T12:44:45Z</time>
      </trkpt>
      <trkpt lat="44.42482" lon="6.00736">
        <ele>582</ele>
        <time>2019-04-09T12:44:46Z</time>
      </trkpt>
      <trkpt lat="44.42482" lon="6.00744">
        <ele>582</ele>
        <time>2019-04-09T12:44:47Z</time>
      </trkpt>
      <trkpt lat="44.42482" lon="6.00753">
        <ele>582</ele>
        <time>2019-04-09T12:44:48Z</time>
      </trkpt>
      <trkpt lat="44.42481" lon="6.00763">
        <ele>582</ele>
        <time>2019-04-09T12:44:49Z</time>
      </trkpt>
      <trkpt lat="44.42481" lon="6.00773">
        <ele>582</ele>
        <time>2019-04-09T12:44:50Z</time>
      </trkpt>
      <trkpt lat="44.42481" lon="6.00783">
        <ele>582</ele>
        <time>2019-04-09T12:44:51Z</time>
      </trkpt>
      <trkpt lat="44.42483" lon="6.00793">
        <ele>582</ele>
        <time>2019-04-09T12:44:52Z</time>
      </trkpt>
      <trkpt lat="44.42486" lon="6.00803">
        <ele>582</ele>
        <time>2019-04-09T12:44:53Z</time>
      </trkpt>
      <trkpt lat="44.42491" lon="6.00811">
        <ele>582</ele>
        <time>2019-04-09T12:44:54Z</time>
      </trkpt>
      <trkpt lat="44.42497" lon="6.00819">
        <ele>581</ele>
        <time>2019-04-09T12:44:55Z</time>
      </trkpt>
      <trkpt lat="44.42503" lon="6.00828">
        <ele>580</ele>
        <time>2019-04-09T12:44:56Z</time>
      </trkpt>
      <trkpt lat="44.4251" lon="6.00837">
        <ele>580</ele>
        <time>2019-04-09T12:44:57Z</time>
      </trkpt>
      <trkpt lat="44.42517" lon="6.00846">
        <ele>579</ele>
        <time>2019-04-09T12:44:58Z</time>
      </trkpt>
      <trkpt lat="44.42524" lon="6.00855">
        <ele>578</ele>
        <time>2019-04-09T12:44:59Z</time>
      </trkpt>
      <trkpt lat="44.42531" lon="6.00864">
        <ele>578</ele>
        <time>2019-04-09T12:45:00Z</time>
      </trkpt>
      <trkpt lat="44.42538" lon="6.00873">
        <ele>577</ele>
        <time>2019-04-09T12:45:01Z</time>
      </trkpt>
      <trkpt lat="44.42546" lon="6.00883">
        <ele>577</ele>
        <time>2019-04-09T12:45:02Z</time>
      </trkpt>
      <trkpt lat="44.42553" lon="6.00893">
        <ele>576</ele>
        <time>2019-04-09T12:45:03Z</time>
      </trkpt>
      <trkpt lat="44.42561" lon="6.00903">
        <ele>576</ele>
        <time>2019-04-09T12:45:04Z</time>
      </trkpt>
      <trkpt lat="44.42569" lon="6.00912">
        <ele>575</ele>
        <time>2019-04-09T12:45:05Z</time>
      </trkpt>
      <trkpt lat="44.42577" lon="6.00921">
        <ele>575</ele>
        <time>2019-04-09T12:45:06Z</time>
      </trkpt>
      <trkpt lat="44.42585" lon="6.00931">
        <ele>575</ele>
        <time>2019-04-09T12:45:07Z</time>
      </trkpt>
      <trkpt lat="44.42593" lon="6.0094">
        <ele>575</ele>
        <time>2019-04-09T12:45:08Z</time>
      </trkpt>
      <trkpt lat="44.42599" lon="6.0095">
        <ele>574</ele>
        <time>2019-04-09T12:45:09Z</time>
      </trkpt>
      <trkpt lat="44.42606" lon="6.00959">
        <ele>574</ele>
        <time>2019-04-09T12:45:10Z</time>
      </trkpt>
      <trkpt lat="44.42612" lon="6.00968">
        <ele>574</ele>
        <time>2019-04-09T12:45:11Z</time>
      </trkpt>
      <trkpt lat="44.42619" lon="6.00976">
        <ele>574</ele>
        <time>2019-04-09T12:45:12Z</time>
      </trkpt>
      <trkpt lat="44.42625" lon="6.00984">
        <ele>573</ele>
        <time>2019-04-09T12:45:13Z</time>
      </trkpt>
      <trkpt lat="44.42631" lon="6.0099">
        <ele>573</ele>
        <time>2019-04-09T12:45:14Z</time>
      </trkpt>
      <trkpt lat="44.42636" lon="6.00996">
        <ele>573</ele>
        <time>2019-04-09T12:45:15Z</time>
      </trkpt>
      <trkpt lat="44.42641" lon="6.01001">
        <ele>573</ele>
        <time>2019-04-09T12:45:16Z</time>
      </trkpt>
      <trkpt lat="44.42645" lon="6.01005">
        <ele>573</ele>
        <time>2019-04-09T12:45:17Z</time>
      </trkpt>
      <trkpt lat="44.42648" lon="6.01009">
        <ele>573</ele>
        <time>2019-04-09T12:45:18Z</time>
      </trkpt>
      <trkpt lat="44.42651" lon="6.01013">
        <ele>573</ele>
        <time>2019-04-09T12:45:19Z</time>
      </trkpt>
      <trkpt lat="44.42652" lon="6.01018">
        <ele>573</ele>
        <time>2019-04-09T12:45:20Z</time>
      </trkpt>
      <trkpt lat="44.42651" lon="6.01023">
        <ele>573</ele>
        <time>2019-04-09T12:45:21Z</time>
      </trkpt>
      <trkpt lat="44.42648" lon="6.01029">
        <ele>573</ele>
        <time>2019-04-09T12:45:22Z</time>
      </trkpt>
      <trkpt lat="44.42645" lon="6.01034">
        <ele>573</ele>
        <time>2019-04-09T12:45:23Z</time>
      </trkpt>
      <trkpt lat="44.42641" lon="6.0104">
        <ele>573</ele>
        <time>2019-04-09T12:45:24Z</time>
      </trkpt>
      <trkpt lat="44.42638" lon="6.01046">
        <ele>573</ele>
        <time>2019-04-09T12:45:25Z</time>
      </trkpt>
      <trkpt lat="44.42634" lon="6.01053">
        <ele>573</ele>
        <time>2019-04-09T12:45:26Z</time>
      </trkpt>
      <trkpt lat="44.42629" lon="6.0106">
        <ele>573</ele>
        <time>2019-04-09T12:45:27Z</time>
      </trkpt>
      <trkpt lat="44.42624" lon="6.01067">
        <ele>573</ele>
        <time>2019-04-09T12:45:28Z</time>
      </trkpt>
      <trkpt lat="44.42619" lon="6.01074">
        <ele>572</ele>
        <time>2019-04-09T12:45:29Z</time>
      </trkpt>
      <trkpt lat="44.42614" lon="6.01081">
        <ele>572</ele>
        <time>2019-04-09T12:45:30Z</time>
      </trkpt>
      <trkpt lat="44.42609" lon="6.01088">
        <ele>572</ele>
        <time>2019-04-09T12:45:31Z</time>
      </trkpt>
      <trkpt lat="44.42604" lon="6.01095">
        <ele>572</ele>
        <time>2019-04-09T12:45:32Z</time>
      </trkpt>
      <trkpt lat="44.42599" lon="6.01102">
        <ele>572</ele>
        <time>2019-04-09T12:45:33Z</time>
      </trkpt>
      <trkpt lat="44.42595" lon="6.01109">
        <ele>572</ele>
        <time>2019-04-09T12:45:34Z</time>
      </trkpt>
      <trkpt lat="44.4259" lon="6.01115">
        <ele>572</ele>
        <time>2019-04-09T12:45:35Z</time>
      </trkpt>
      <trkpt lat="44.42586" lon="6.0112">
        <ele>572</ele>
        <time>2019-04-09T12:45:36Z</time>
      </trkpt>
      <trkpt lat="44.42582" lon="6.01125">
        <ele>572</ele>
        <time>2019-04-09T12:45:37Z</time>
      </trkpt>
      <trkpt lat="44.42579" lon="6.0113">
        <ele>572</ele>
        <time>2019-04-09T12:45:38Z</time>
      </trkpt>
      <trkpt lat="44.42575" lon="6.01134">
        <ele>572</ele>
        <time>2019-04-09T12:45:39Z</time>
      </trkpt>
      <trkpt lat="44.42572" lon="6.01138">
        <ele>572</ele>
        <time>2019-04-09T12:45:40Z</time>
      </trkpt>
      <trkpt lat="44.4257" lon="6.01142">
        <ele>572</ele>
        <time>2019-04-09T12:45:41Z</time>
      </trkpt>
      <trkpt lat="44.42567" lon="6.01145">
        <ele>572</ele>
        <time>2019-04-09T12:45:42Z</time>
      </trkpt>
      <trkpt lat="44.42564" lon="6.0115">
        <ele>572</ele>
        <time>2019-04-09T12:45:43Z</time>
      </trkpt>
      <trkpt lat="44.42562" lon="6.01154">
        <ele>572</ele>
        <time>2019-04-09T12:45:44Z</time>
      </trkpt>
      <trkpt lat="44.42559" lon="6.01158">
        <ele>572</ele>
        <time>2019-04-09T12:45:45Z</time>
      </trkpt>
      <trkpt lat="44.42556" lon="6.01162">
        <ele>572</ele>
        <time>2019-04-09T12:45:46Z</time>
      </trkpt>
      <trkpt lat="44.42553" lon="6.01166">
        <ele>572</ele>
        <time>2019-04-09T12:45:47Z</time>
      </trkpt>
      <trkpt lat="44.4255" lon="6.01171">
        <ele>572</ele>
        <time>2019-04-09T12:45:48Z</time>
      </trkpt>
      <trkpt lat="44.42547" lon="6.01176">
        <ele>572</ele>
        <time>2019-04-09T12:45:49Z</time>
      </trkpt>
      <trkpt lat="44.42543" lon="6.0118">
        <ele>572</ele>
        <time>2019-04-09T12:45:50Z</time>
      </trkpt>
      <trkpt lat="44.4254" lon="6.01185">
        <ele>572</ele>
        <time>2019-04-09T12:45:51Z</time>
      </trkpt>
      <trkpt lat="44.42537" lon="6.0119">
        <ele>572</ele>
        <time>2019-04-09T12:45:52Z</time>
      </trkpt>
      <trkpt lat="44.42533" lon="6.01195">
        <ele>572</ele>
        <time>2019-04-09T12:45:53Z</time>
      </trkpt>
      <trkpt lat="44.42529" lon="6.01201">
        <ele>572</ele>
        <time>2019-04-09T12:45:54Z</time>
      </trkpt>
      <trkpt lat="44.42525" lon="6.01206">
        <ele>572</ele>
        <time>2019-04-09T12:45:55Z</time>
      </trkpt>
      <trkpt lat="44.42522" lon="6.01212">
        <ele>572</ele>
        <time>2019-04-09T12:45:56Z</time>
      </trkpt>
      <trkpt lat="44.42518" lon="6.01219">
        <ele>572</ele>
        <time>2019-04-09T12:45:57Z</time>
      </trkpt>
      <trkpt lat="44.42514" lon="6.01225">
        <ele>572</ele>
        <time>2019-04-09T12:45:58Z</time>
      </trkpt>
      <trkpt lat="44.42509" lon="6.01232">
        <ele>572</ele>
        <time>2019-04-09T12:45:59Z</time>
      </trkpt>
      <trkpt lat="44.42504" lon="6.01239">
        <ele>572</ele>
        <time>2019-04-09T12:46:00Z</time>
      </trkpt>
      <trkpt lat="44.42499" lon="6.01247">
        <ele>572</ele>
        <time>2019-04-09T12:46:01Z</time>
      </trkpt>
      <trkpt lat="44.42494" lon="6.01255">
        <ele>572</ele>
        <time>2019-04-09T12:46:02Z</time>
      </trkpt>
      <trkpt lat="44.42488" lon="6.01264">
        <ele>571</ele>
        <time>2019-04-09T12:46:03Z</time>
      </trkpt>
      <trkpt lat="44.42482" lon="6.01272">
        <ele>571</ele>
        <time>2019-04-09T12:46:04Z</time>
      </trkpt>
      <trkpt lat="44.42477" lon="6.01282">
        <ele>570</ele>
        <time>2019-04-09T12:46:05Z</time>
      </trkpt>
      <trkpt lat="44.42471" lon="6.01291">
        <ele>570</ele>
        <time>2019-04-09T12:46:06Z</time>
      </trkpt>
      <trkpt lat="44.42464" lon="6.01301">
        <ele>569</ele>
        <time>2019-04-09T12:46:07Z</time>
      </trkpt>
      <trkpt lat="44.42458" lon="6.0131">
        <ele>569</ele>
        <time>2019-04-09T12:46:08Z</time>
      </trkpt>
      <trkpt lat="44.42452" lon="6.01319">
        <ele>568</ele>
        <time>2019-04-09T12:46:09Z</time>
      </trkpt>
      <trkpt lat="44.42447" lon="6.01329">
        <ele>568</ele>
        <time>2019-04-09T12:46:10Z</time>
      </trkpt>
      <trkpt lat="44.42441" lon="6.01337">
        <ele>568</ele>
        <time>2019-04-09T12:46:11Z</time>
      </trkpt>
      <trkpt lat="44.42435" lon="6.01346">
        <ele>568</ele>
        <time>2019-04-09T12:46:12Z</time>
      </trkpt>
      <trkpt lat="44.4243" lon="6.01354">
        <ele>568</ele>
        <time>2019-04-09T12:46:13Z</time>
      </trkpt>
      <trkpt lat="44.42425" lon="6.01362">
        <ele>568</ele>
        <time>2019-04-09T12:46:14Z</time>
      </trkpt>
      <trkpt lat="44.4242" lon="6.0137">
        <ele>568</ele>
        <time>2019-04-09T12:46:15Z</time>
      </trkpt>
      <trkpt lat="44.42415" lon="6.01377">
        <ele>568</ele>
        <time>2019-04-09T12:46:16Z</time>
      </trkpt>
      <trkpt lat="44.4241" lon="6.01385">
        <ele>568</ele>
        <time>2019-04-09T12:46:17Z</time>
      </trkpt>
      <trkpt lat="44.42405" lon="6.01393">
        <ele>568</ele>
        <time>2019-04-09T12:46:18Z</time>
      </trkpt>
      <trkpt lat="44.424" lon="6.014">
        <ele>568</ele>
        <time>2019-04-09T12:46:19Z</time>
      </trkpt>
      <trkpt lat="44.42395" lon="6.01407">
        <ele>568</ele>
        <time>2019-04-09T12:46:20Z</time>
      </trkpt>
      <trkpt lat="44.4239" lon="6.01414">
        <ele>568</ele>
        <time>2019-04-09T12:46:21Z</time>
      </trkpt>
      <trkpt lat="44.42385" lon="6.01422">
        <ele>568</ele>
        <time>2019-04-09T12:46:22Z</time>
      </trkpt>
      <trkpt lat="44.42381" lon="6.01429">
        <ele>568</ele>
        <time>2019-04-09T12:46:23Z</time>
      </trkpt>
      <trkpt lat="44.42376" lon="6.01436">
        <ele>568</ele>
        <time>2019-04-09T12:46:24Z</time>
      </trkpt>
      <trkpt lat="44.42371" lon="6.01443">
        <ele>568</ele>
        <time>2019-04-09T12:46:25Z</time>
      </trkpt>
      <trkpt lat="44.42366" lon="6.0145">
        <ele>568</ele>
        <time>2019-04-09T12:46:26Z</time>
      </trkpt>
      <trkpt lat="44.42362" lon="6.01457">
        <ele>568</ele>
        <time>2019-04-09T12:46:27Z</time>
      </trkpt>
      <trkpt lat="44.42357" lon="6.01465">
        <ele>568</ele>
        <time>2019-04-09T12:46:28Z</time>
      </trkpt>
      <trkpt lat="44.42353" lon="6.01472">
        <ele>568</ele>
        <time>2019-04-09T12:46:29Z</time>
      </trkpt>
      <trkpt lat="44.42348" lon="6.01479">
        <ele>567</ele>
        <time>2019-04-09T12:46:30Z</time>
      </trkpt>
      <trkpt lat="44.42344" lon="6.01486">
        <ele>567</ele>
        <time>2019-04-09T12:46:31Z</time>
      </trkpt>
      <trkpt lat="44.42339" lon="6.01493">
        <ele>567</ele>
        <time>2019-04-09T12:46:32Z</time>
      </trkpt>
      <trkpt lat="44.42334" lon="6.01501">
        <ele>567</ele>
        <time>2019-04-09T12:46:33Z</time>
      </trkpt>
      <trkpt lat="44.42329" lon="6.01508">
        <ele>567</ele>
        <time>2019-04-09T12:46:34Z</time>
      </trkpt>
      <trkpt lat="44.42325" lon="6.01514">
        <ele>567</ele>
        <time>2019-04-09T12:46:35Z</time>
      </trkpt>
      <trkpt lat="44.4232" lon="6.01521">
        <ele>567</ele>
        <time>2019-04-09T12:46:36Z</time>
      </trkpt>
      <trkpt lat="44.42316" lon="6.01528">
        <ele>567</ele>
        <time>2019-04-09T12:46:37Z</time>
      </trkpt>
      <trkpt lat="44.42311" lon="6.01535">
        <ele>567</ele>
        <time>2019-04-09T12:46:38Z</time>
      </trkpt>
      <trkpt lat="44.42307" lon="6.01541">
        <ele>567</ele>
        <time>2019-04-09T12:46:39Z</time>
      </trkpt>
      <trkpt lat="44.42302" lon="6.01548">
        <ele>567</ele>
        <time>2019-04-09T12:46:40Z</time>
      </trkpt>
      <trkpt lat="44.42298" lon="6.01555">
        <ele>567</ele>
        <time>2019-04-09T12:46:41Z</time>
      </trkpt>
      <trkpt lat="44.42294" lon="6.01561">
        <ele>567</ele>
        <time>2019-04-09T12:46:42Z</time>
      </trkpt>
      <trkpt lat="44.42289" lon="6.01568">
        <ele>567</ele>
        <time>2019-04-09T12:46:43Z</time>
      </trkpt>
      <trkpt lat="44.42285" lon="6.01575">
        <ele>567</ele>
        <time>2019-04-09T12:46:44Z</time>
      </trkpt>
      <trkpt lat="44.42281" lon="6.01581">
        <ele>567</ele>
        <time>2019-04-09T12:46:45Z</time>
      </trkpt>
      <trkpt lat="44.42276" lon="6.01588">
        <ele>567</ele>
        <time>2019-04-09T12:46:46Z</time>
      </trkpt>
      <trkpt lat="44.42272" lon="6.01594">
        <ele>567</ele>
        <time>2019-04-09T12:46:47Z</time>
      </trkpt>
      <trkpt lat="44.42268" lon="6.016">
        <ele>567</ele>
        <time>2019-04-09T12:46:48Z</time>
      </trkpt>
      <trkpt lat="44.42265" lon="6.01606">
        <ele>567</ele>
        <time>2019-04-09T12:46:49Z</time>
      </trkpt>
      <trkpt lat="44.42262" lon="6.01611">
        <ele>567</ele>
        <time>2019-04-09T12:46:50Z</time>
      </trkpt>
      <trkpt lat="44.42258" lon="6.01617">
        <ele>567</ele>
        <time>2019-04-09T12:46:51Z</time>
      </trkpt>
      <trkpt lat="44.42255" lon="6.01622">
        <ele>567</ele>
        <time>2019-04-09T12:46:52Z</time>
      </trkpt>
      <trkpt lat="44.42251" lon="6.01626">
        <ele>567</ele>
        <time>2019-04-09T12:46:53Z</time>
      </trkpt>
      <trkpt lat="44.42247" lon="6.0163">
        <ele>567</ele>
        <time>2019-04-09T12:46:54Z</time>
      </trkpt>
      <trkpt lat="44.42243" lon="6.01634">
        <ele>567</ele>
        <time>2019-04-09T12:46:55Z</time>
      </trkpt>
      <trkpt lat="44.42239" lon="6.01638">
        <ele>567</ele>
        <time>2019-04-09T12:46:56Z</time>
      </trkpt>
      <trkpt lat="44.42235" lon="6.01642">
        <ele>567</ele>
        <time>2019-04-09T12:46:57Z</time>
      </trkpt>
      <trkpt lat="44.42231" lon="6.01647">
        <ele>567</ele>
        <time>2019-04-09T12:46:58Z</time>
      </trkpt>
      <trkpt lat="44.42229" lon="6.01653">
        <ele>567</ele>
        <time>2019-04-09T12:46:59Z</time>
      </trkpt>
      <trkpt lat="44.42227" lon="6.0166">
        <ele>567</ele>
        <time>2019-04-09T12:47:00Z</time>
      </trkpt>
      <trkpt lat="44.42227" lon="6.01667">
        <ele>567</ele>
        <time>2019-04-09T12:47:01Z</time>
      </trkpt>
      <trkpt lat="44.42228" lon="6.01675">
        <ele>567</ele>
        <time>2019-04-09T12:47:02Z</time>
      </trkpt>
      <trkpt lat="44.42229" lon="6.01683">
        <ele>567</ele>
        <time>2019-04-09T12:47:03Z</time>
      </trkpt>
      <trkpt lat="44.42231" lon="6.01691">
        <ele>567</ele>
        <time>2019-04-09T12:47:04Z</time>
      </trkpt>
      <trkpt lat="44.42232" lon="6.01699">
        <ele>567</ele>
        <time>2019-04-09T12:47:05Z</time>
      </trkpt>
      <trkpt lat="44.42233" lon="6.01708">
        <ele>567</ele>
        <time>2019-04-09T12:47:06Z</time>
      </trkpt>
      <trkpt lat="44.42234" lon="6.01717">
        <ele>567</ele>
        <time>2019-04-09T12:47:07Z</time>
      </trkpt>
      <trkpt lat="44.42235" lon="6.01726">
        <ele>567</ele>
        <time>2019-04-09T12:47:08Z</time>
      </trkpt>
      <trkpt lat="44.42235" lon="6.01735">
        <ele>567</ele>
        <time>2019-04-09T12:47:09Z</time>
      </trkpt>
      <trkpt lat="44.42236" lon="6.01745">
        <ele>567</ele>
        <time>2019-04-09T12:47:10Z</time>
      </trkpt>
      <trkpt lat="44.42237" lon="6.01754">
        <ele>567</ele>
        <time>2019-04-09T12:47:11Z</time>
      </trkpt>
      <trkpt lat="44.42237" lon="6.01762">
        <ele>567</ele>
        <time>2019-04-09T12:47:12Z</time>
      </trkpt>
      <trkpt lat="44.42237" lon="6.01771">
        <ele>567</ele>
        <time>2019-04-09T12:47:13Z</time>
      </trkpt>
      <trkpt lat="44.42236" lon="6.0178">
        <ele>567</ele>
        <time>2019-04-09T12:47:14Z</time>
      </trkpt>
      <trkpt lat="44.42235" lon="6.01788">
        <ele>567</ele>
        <time>2019-04-09T12:47:15Z</time>
      </trkpt>
      <trkpt lat="44.42234" lon="6.01795">
        <ele>567</ele>
        <time>2019-04-09T12:47:16Z</time>
      </trkpt>
      <trkpt lat="44.42233" lon="6.01803">
        <ele>567</ele>
        <time>2019-04-09T12:47:17Z</time>
      </trkpt>
      <trkpt lat="44.42231" lon="6.0181">
        <ele>567</ele>
        <time>2019-04-09T12:47:18Z</time>
      </trkpt>
      <trkpt lat="44.42229" lon="6.01817">
        <ele>567</ele>
        <time>2019-04-09T12:47:19Z</time>
      </trkpt>
      <trkpt lat="44.42226" lon="6.01823">
        <ele>567</ele>
        <time>2019-04-09T12:47:20Z</time>
      </trkpt>
      <trkpt lat="44.42223" lon="6.01829">
        <ele>567</ele>
        <time>2019-04-09T12:47:21Z</time>
      </trkpt>
      <trkpt lat="44.4222" lon="6.01834">
        <ele>567</ele>
        <time>2019-04-09T12:47:22Z</time>
      </trkpt>
      <trkpt lat="44.42216" lon="6.0184">
        <ele>568</ele>
        <time>2019-04-09T12:47:23Z</time>
      </trkpt>
      <trkpt lat="44.42212" lon="6.01845">
        <ele>568</ele>
        <time>2019-04-09T12:47:24Z</time>
      </trkpt>
      <trkpt lat="44.42209" lon="6.0185">
        <ele>568</ele>
        <time>2019-04-09T12:47:25Z</time>
      </trkpt>
      <trkpt lat="44.42205" lon="6.01854">
        <ele>568</ele>
        <time>2019-04-09T12:47:26Z</time>
      </trkpt>
      <trkpt lat="44.42201" lon="6.01859">
        <ele>569</ele>
        <time>2019-04-09T12:47:27Z</time>
      </trkpt>
      <trkpt lat="44.42197" lon="6.01864">
        <ele>569</ele>
        <time>2019-04-09T12:47:28Z</time>
      </trkpt>
      <trkpt lat="44.42194" lon="6.01868">
        <ele>569</ele>
        <time>2019-04-09T12:47:29Z</time>
      </trkpt>
      <trkpt lat="44.4219" lon="6.01872">
        <ele>569</ele>
        <time>2019-04-09T12:47:30Z</time>
      </trkpt>
      <trkpt lat="44.42186" lon="6.01877">
        <ele>569</ele>
        <time>2019-04-09T12:47:31Z</time>
      </trkpt>
      <trkpt lat="44.42183" lon="6.01882">
        <ele>570</ele>
        <time>2019-04-09T12:47:32Z</time>
      </trkpt>
      <trkpt lat="44.42179" lon="6.01887">
        <ele>570</ele>
        <time>2019-04-09T12:47:33Z</time>
      </trkpt>
      <trkpt lat="44.42175" lon="6.01892">
        <ele>570</ele>
        <time>2019-04-09T12:47:34Z</time>
      </trkpt>
      <trkpt lat="44.42171" lon="6.01896">
        <ele>570</ele>
        <time>2019-04-09T12:47:35Z</time>
      </trkpt>
      <trkpt lat="44.42168" lon="6.01901">
        <ele>570</ele>
        <time>2019-04-09T12:47:36Z</time>
      </trkpt>
      <trkpt lat="44.42164" lon="6.01906">
        <ele>570</ele>
        <time>2019-04-09T12:47:37Z</time>
      </trkpt>
      <trkpt lat="44.4216" lon="6.01911">
        <ele>570</ele>
        <time>2019-04-09T12:47:38Z</time>
      </trkpt>
      <trkpt lat="44.42156" lon="6.01917">
        <ele>570</ele>
        <time>2019-04-09T12:47:39Z</time>
      </trkpt>
      <trkpt lat="44.42152" lon="6.01922">
        <ele>570</ele>
        <time>2019-04-09T12:47:40Z</time>
      </trkpt>
      <trkpt lat="44.42148" lon="6.01927">
        <ele>570</ele>
        <time>2019-04-09T12:47:41Z</time>
      </trkpt>
      <trkpt lat="44.42144" lon="6.01932">
        <ele>570</ele>
        <time>2019-04-09T12:47:42Z</time>
      </trkpt>
      <trkpt lat="44.4214" lon="6.01937">
        <ele>570</ele>
        <time>2019-04-09T12:47:43Z</time>
      </trkpt>
      <trkpt lat="44.42136" lon="6.01942">
        <ele>570</ele>
        <time>2019-04-09T12:47:44Z</time>
      </trkpt>
      <trkpt lat="44.42132" lon="6.01947">
        <ele>570</ele>
        <time>2019-04-09T12:47:45Z</time>
      </trkpt>
      <trkpt lat="44.42128" lon="6.01953">
        <ele>570</ele>
        <time>2019-04-09T12:47:46Z</time>
      </trkpt>
      <trkpt lat="44.42123" lon="6.01958">
        <ele>570</ele>
        <time>2019-04-09T12:47:47Z</time>
      </trkpt>
      <trkpt lat="44.42119" lon="6.01963">
        <ele>570</ele>
        <time>2019-04-09T12:47:48Z</time>
      </trkpt>
      <trkpt lat="44.42115" lon="6.01969">
        <ele>570</ele>
        <time>2019-04-09T12:47:49Z</time>
      </trkpt>
      <trkpt lat="44.42111" lon="6.01974">
        <ele>570</ele>
        <time>2019-04-09T12:47:50Z</time>
      </trkpt>
      <trkpt lat="44.42106" lon="6.01979">
        <ele>570</ele>
        <time>2019-04-09T12:47:51Z</time>
      </trkpt>
      <trkpt lat="44.42102" lon="6.01985">
        <ele>570</ele>
        <time>2019-04-09T12:47:52Z</time>
      </trkpt>
      <trkpt lat="44.42098" lon="6.0199">
        <ele>570</ele>
        <time>2019-04-09T12:47:53Z</time>
      </trkpt>
      <trkpt lat="44.42094" lon="6.01996">
        <ele>570</ele>
        <time>2019-04-09T12:47:54Z</time>
      </trkpt>
      <trkpt lat="44.42089" lon="6.02001">
        <ele>570</ele>
        <time>2019-04-09T12:47:55Z</time>
      </trkpt>
      <trkpt lat="44.42085" lon="6.02006">
        <ele>570</ele>
        <time>2019-04-09T12:47:56Z</time>
      </trkpt>
      <trkpt lat="44.4208" lon="6.02012">
        <ele>570</ele>
        <time>2019-04-09T12:47:57Z</time>
      </trkpt>
      <trkpt lat="44.42076" lon="6.02017">
        <ele>570</ele>
        <time>2019-04-09T12:47:58Z</time>
      </trkpt>
      <trkpt lat="44.42072" lon="6.02023">
        <ele>570</ele>
        <time>2019-04-09T12:47:59Z</time>
      </trkpt>
      <trkpt lat="44.42067" lon="6.02029">
        <ele>570</ele>
        <time>2019-04-09T12:48:00Z</time>
      </trkpt>
      <trkpt lat="44.42063" lon="6.02034">
        <ele>570</ele>
        <time>2019-04-09T12:48:01Z</time>
      </trkpt>
      <trkpt lat="44.42058" lon="6.0204">
        <ele>570</ele>
        <time>2019-04-09T12:48:02Z</time>
      </trkpt>
      <trkpt lat="44.42054" lon="6.02046">
        <ele>570</ele>
        <time>2019-04-09T12:48:03Z</time>
      </trkpt>
      <trkpt lat="44.42049" lon="6.02051">
        <ele>570</ele>
        <time>2019-04-09T12:48:04Z</time>
      </trkpt>
      <trkpt lat="44.42045" lon="6.02057">
        <ele>570</ele>
        <time>2019-04-09T12:48:05Z</time>
      </trkpt>
      <trkpt lat="44.4204" lon="6.02063">
        <ele>570</ele>
        <time>2019-04-09T12:48:06Z</time>
      </trkpt>
      <trkpt lat="44.42036" lon="6.02069">
        <ele>570</ele>
        <time>2019-04-09T12:48:07Z</time>
      </trkpt>
      <trkpt lat="44.42031" lon="6.02074">
        <ele>570</ele>
        <time>2019-04-09T12:48:08Z</time>
      </trkpt>
      <trkpt lat="44.42026" lon="6.0208">
        <ele>570</ele>
        <time>2019-04-09T12:48:09Z</time>
      </trkpt>
      <trkpt lat="44.42022" lon="6.02086">
        <ele>570</ele>
        <time>2019-04-09T12:48:10Z</time>
      </trkpt>
      <trkpt lat="44.42017" lon="6.02092">
        <ele>570</ele>
        <time>2019-04-09T12:48:11Z</time>
      </trkpt>
      <trkpt lat="44.42012" lon="6.02097">
        <ele>570</ele>
        <time>2019-04-09T12:48:12Z</time>
      </trkpt>
      <trkpt lat="44.42008" lon="6.02103">
        <ele>570</ele>
        <time>2019-04-09T12:48:13Z</time>
      </trkpt>
      <trkpt lat="44.42004" lon="6.02109">
        <ele>570</ele>
        <time>2019-04-09T12:48:14Z</time>
      </trkpt>
      <trkpt lat="44.41999" lon="6.02114">
        <ele>570</ele>
        <time>2019-04-09T12:48:15Z</time>
      </trkpt>
      <trkpt lat="44.41995" lon="6.02119">
        <ele>570</ele>
        <time>2019-04-09T12:48:16Z</time>
      </trkpt>
      <trkpt lat="44.4199" lon="6.02124">
        <ele>570</ele>
        <time>2019-04-09T12:48:17Z</time>
      </trkpt>
      <trkpt lat="44.41985" lon="6.02127">
        <ele>570</ele>
        <time>2019-04-09T12:48:18Z</time>
      </trkpt>
      <trkpt lat="44.41979" lon="6.02127">
        <ele>570</ele>
        <time>2019-04-09T12:48:19Z</time>
      </trkpt>
      <trkpt lat="44.41974" lon="6.02124">
        <ele>570</ele>
        <time>2019-04-09T12:48:20Z</time>
      </trkpt>
      <trkpt lat="44.4197" lon="6.02118">
        <ele>570</ele>
        <time>2019-04-09T12:48:21Z</time>
      </trkpt>
      <trkpt lat="44.41967" lon="6.0211">
        <ele>570</ele>
        <time>2019-04-09T12:48:22Z</time>
      </trkpt>
      <trkpt lat="44.41964" lon="6.02102">
        <ele>570</ele>
        <time>2019-04-09T12:48:23Z</time>
      </trkpt>
      <trkpt lat="44.41962" lon="6.02094">
        <ele>570</ele>
        <time>2019-04-09T12:48:24Z</time>
      </trkpt>
      <trkpt lat="44.41959" lon="6.02086">
        <ele>570</ele>
        <time>2019-04-09T12:48:25Z</time>
      </trkpt>
      <trkpt lat="44.41957" lon="6.02077">
        <ele>570</ele>
        <time>2019-04-09T12:48:26Z</time>
      </trkpt>
      <trkpt lat="44.41954" lon="6.02069">
        <ele>570</ele>
        <time>2019-04-09T12:48:27Z</time>
      </trkpt>
      <trkpt lat="44.41952" lon="6.0206">
        <ele>570</ele>
        <time>2019-04-09T12:48:28Z</time>
      </trkpt>
      <trkpt lat="44.41949" lon="6.02051">
        <ele>570</ele>
        <time>2019-04-09T12:48:29Z</time>
      </trkpt>
      <trkpt lat="44.41946" lon="6.02042">
        <ele>570</ele>
        <time>2019-04-09T12:48:30Z</time>
      </trkpt>
      <trkpt lat="44.41944" lon="6.02033">
        <ele>570</ele>
        <time>2019-04-09T12:48:31Z</time>
      </trkpt>
      <trkpt lat="44.41941" lon="6.02024">
        <ele>570</ele>
        <time>2019-04-09T12:48:32Z</time>
      </trkpt>
      <trkpt lat="44.41938" lon="6.02016">
        <ele>570</ele>
        <time>2019-04-09T12:48:33Z</time>
      </trkpt>
      <trkpt lat="44.41933" lon="6.02007">
        <ele>570</ele>
        <time>2019-04-09T12:48:34Z</time>
      </trkpt>
      <trkpt lat="44.41929" lon="6.01999">
        <ele>570</ele>
        <time>2019-04-09T12:48:35Z</time>
      </trkpt>
      <trkpt lat="44.41925" lon="6.01992">
        <ele>570</ele>
        <time>2019-04-09T12:48:36Z</time>
      </trkpt>
      <trkpt lat="44.4192" lon="6.01985">
        <ele>570</ele>
        <time>2019-04-09T12:48:37Z</time>
      </trkpt>
      <trkpt lat="44.41915" lon="6.01978">
        <ele>570</ele>
        <time>2019-04-09T12:48:38Z</time>
      </trkpt>
      <trkpt lat="44.4191" lon="6.01972">
        <ele>570</ele>
        <time>2019-04-09T12:48:39Z</time>
      </trkpt>
      <trkpt lat="44.41905" lon="6.01967">
        <ele>570</ele>
        <time>2019-04-09T12:48:40Z</time>
      </trkpt>
      <trkpt lat="44.419" lon="6.01962">
        <ele>570</ele>
        <time>2019-04-09T12:48:41Z</time>
      </trkpt>
      <trkpt lat="44.41895" lon="6.01958">
        <ele>570</ele>
        <time>2019-04-09T12:48:42Z</time>
      </trkpt>
      <trkpt lat="44.4189" lon="6.01953">
        <ele>570</ele>
        <time>2019-04-09T12:48:43Z</time>
      </trkpt>
      <trkpt lat="44.41884" lon="6.01948">
        <ele>570</ele>
        <time>2019-04-09T12:48:44Z</time>
      </trkpt>
      <trkpt lat="44.41879" lon="6.01943">
        <ele>570</ele>
        <time>2019-04-09T12:48:45Z</time>
      </trkpt>
      <trkpt lat="44.41874" lon="6.01938">
        <ele>570</ele>
        <time>2019-04-09T12:48:46Z</time>
      </trkpt>
      <trkpt lat="44.41868" lon="6.01933">
        <ele>570</ele>
        <time>2019-04-09T12:48:47Z</time>
      </trkpt>
      <trkpt lat="44.41862" lon="6.01928">
        <ele>570</ele>
        <time>2019-04-09T12:48:48Z</time>
      </trkpt>
      <trkpt lat="44.41856" lon="6.01923">
        <ele>570</ele>
        <time>2019-04-09T12:48:49Z</time>
      </trkpt>
      <trkpt lat="44.41851" lon="6.01919">
        <ele>570</ele>
        <time>2019-04-09T12:48:50Z</time>
      </trkpt>
      <trkpt lat="44.41845" lon="6.01914">
        <ele>570</ele>
        <time>2019-04-09T12:48:51Z</time>
      </trkpt>
      <trkpt lat="44.41839" lon="6.01909">
        <ele>570</ele>
        <time>2019-04-09T12:48:52Z</time>
      </trkpt>
      <trkpt lat="44.41833" lon="6.01905">
        <ele>570</ele>
        <time>2019-04-09T12:48:53Z</time>
      </trkpt>
      <trkpt lat="44.41827" lon="6.01901">
        <ele>570</ele>
        <time>2019-04-09T12:48:54Z</time>
      </trkpt>
      <trkpt lat="44.4182" lon="6.01896">
        <ele>570</ele>
        <time>2019-04-09T12:48:55Z</time>
      </trkpt>
      <trkpt lat="44.41814" lon="6.01892">
        <ele>570</ele>
        <time>2019-04-09T12:48:56Z</time>
      </trkpt>
      <trkpt lat="44.41808" lon="6.01887">
        <ele>570</ele>
        <time>2019-04-09T12:48:57Z</time>
      </trkpt>
      <trkpt lat="44.41802" lon="6.01881">
        <ele>570</ele>
        <time>2019-04-09T12:48:58Z</time>
      </trkpt>
      <trkpt lat="44.41797" lon="6.01875">
        <ele>570</ele>
        <time>2019-04-09T12:48:59Z</time>
      </trkpt>
      <trkpt lat="44.41792" lon="6.01869">
        <ele>570</ele>
        <time>2019-04-09T12:49:00Z</time>
      </trkpt>
      <trkpt lat="44.41787" lon="6.01862">
        <ele>570</ele>
        <time>2019-04-09T12:49:01Z</time>
      </trkpt>
      <trkpt lat="44.41782" lon="6.01855">
        <ele>570</ele>
        <time>2019-04-09T12:49:02Z</time>
      </trkpt>
      <trkpt lat="44.41779" lon="6.01848">
        <ele>571</ele>
        <time>2019-04-09T12:49:03Z</time>
      </trkpt>
      <trkpt lat="44.41777" lon="6.0184">
        <ele>571</ele>
        <time>2019-04-09T12:49:04Z</time>
      </trkpt>
      <trkpt lat="44.41774" lon="6.01832">
        <ele>571</ele>
        <time>2019-04-09T12:49:05Z</time>
      </trkpt>
      <trkpt lat="44.41772" lon="6.01825">
        <ele>571</ele>
        <time>2019-04-09T12:49:06Z</time>
      </trkpt>
      <trkpt lat="44.4177" lon="6.01818">
        <ele>572</ele>
        <time>2019-04-09T12:49:07Z</time>
      </trkpt>
      <trkpt lat="44.41768" lon="6.01811">
        <ele>572</ele>
        <time>2019-04-09T12:49:08Z</time>
      </trkpt>
      <trkpt lat="44.41766" lon="6.01804">
        <ele>572</ele>
        <time>2019-04-09T12:49:09Z</time>
      </trkpt>
      <trkpt lat="44.41764" lon="6.01798">
        <ele>572</ele>
        <time>2019-04-09T12:49:10Z</time>
      </trkpt>
      <trkpt lat="44.41762" lon="6.01792">
        <ele>572</ele>
        <time>2019-04-09T12:49:11Z</time>
      </trkpt>
      <trkpt lat="44.4176" lon="6.01785">
        <ele>572</ele>
        <time>2019-04-09T12:49:12Z</time>
      </trkpt>
      <trkpt lat="44.41759" lon="6.01779">
        <ele>572</ele>
        <time>2019-04-09T12:49:13Z</time>
      </trkpt>
      <trkpt lat="44.41757" lon="6.01772">
        <ele>572</ele>
        <time>2019-04-09T12:49:14Z</time>
      </trkpt>
      <trkpt lat="44.41755" lon="6.01765">
        <ele>572</ele>
        <time>2019-04-09T12:49:15Z</time>
      </trkpt>
      <trkpt lat="44.41753" lon="6.01758">
        <ele>572</ele>
        <time>2019-04-09T12:49:16Z</time>
      </trkpt>
      <trkpt lat="44.41751" lon="6.01752">
        <ele>572</ele>
        <time>2019-04-09T12:49:17Z</time>
      </trkpt>
      <trkpt lat="44.41749" lon="6.01745">
        <ele>572</ele>
        <time>2019-04-09T12:49:18Z</time>
      </trkpt>
      <trkpt lat="44.41746" lon="6.01738">
        <ele>572</ele>
        <time>2019-04-09T12:49:19Z</time>
      </trkpt>
      <trkpt lat="44.41744" lon="6.01731">
        <ele>572</ele>
        <time>2019-04-09T12:49:20Z</time>
      </trkpt>
      <trkpt lat="44.41742" lon="6.01725">
        <ele>572</ele>
        <time>2019-04-09T12:49:21Z</time>
      </trkpt>
      <trkpt lat="44.4174" lon="6.01718">
        <ele>572</ele>
        <time>2019-04-09T12:49:22Z</time>
      </trkpt>
      <trkpt lat="44.41737" lon="6.01711">
        <ele>572</ele>
        <time>2019-04-09T12:49:23Z</time>
      </trkpt>
      <trkpt lat="44.41735" lon="6.01705">
        <ele>572</ele>
        <time>2019-04-09T12:49:24Z</time>
      </trkpt>
      <trkpt lat="44.41733" lon="6.01699">
        <ele>572</ele>
        <time>2019-04-09T12:49:25Z</time>
      </trkpt>
      <trkpt lat="44.41731" lon="6.01693">
        <ele>572</ele>
        <time>2019-04-09T12:49:26Z</time>
      </trkpt>
      <trkpt lat="44.4173" lon="6.01686">
        <ele>572</ele>
        <time>2019-04-09T12:49:27Z</time>
      </trkpt>
      <trkpt lat="44.41728" lon="6.01681">
        <ele>572</ele>
        <time>2019-04-09T12:49:28Z</time>
      </trkpt>
      <trkpt lat="44.41726" lon="6.01676">
        <ele>572</ele>
        <time>2019-04-09T12:49:29Z</time>
      </trkpt>
      <trkpt lat="44.41724" lon="6.0167">
        <ele>572</ele>
        <time>2019-04-09T12:49:30Z</time>
      </trkpt>
      <trkpt lat="44.41722" lon="6.01664">
        <ele>572</ele>
        <time>2019-04-09T12:49:31Z</time>
      </trkpt>
      <trkpt lat="44.41721" lon="6.01658">
        <ele>572</ele>
        <time>2019-04-09T12:49:32Z</time>
      </trkpt>
      <trkpt lat="44.41719" lon="6.01652">
        <ele>572</ele>
        <time>2019-04-09T12:49:33Z</time>
      </trkpt>
      <trkpt lat="44.41717" lon="6.01646">
        <ele>572</ele>
        <time>2019-04-09T12:49:34Z</time>
      </trkpt>
      <trkpt lat="44.41715" lon="6.0164">
        <ele>572</ele>
        <time>2019-04-09T12:49:35Z</time>
      </trkpt>
      <trkpt lat="44.41713" lon="6.01634">
        <ele>572</ele>
        <time>2019-04-09T12:49:36Z</time>
      </trkpt>
      <trkpt lat="44.41711" lon="6.01628">
        <ele>572</ele>
        <time>2019-04-09T12:49:37Z</time>
      </trkpt>
      <trkpt lat="44.41709" lon="6.01621">
        <ele>572</ele>
        <time>2019-04-09T12:49:38Z</time>
      </trkpt>
      <trkpt lat="44.41707" lon="6.01615">
        <ele>572</ele>
        <time>2019-04-09T12:49:39Z</time>
      </trkpt>
      <trkpt lat="44.41705" lon="6.01609">
        <ele>572</ele>
        <time>2019-04-09T12:49:40Z</time>
      </trkpt>
      <trkpt lat="44.41703" lon="6.01602">
        <ele>572</ele>
        <time>2019-04-09T12:49:41Z</time>
      </trkpt>
      <trkpt lat="44.41702" lon="6.01596">
        <ele>572</ele>
        <time>2019-04-09T12:49:42Z</time>
      </trkpt>
      <trkpt lat="44.417" lon="6.01591">
        <ele>573</ele>
        <time>2019-04-09T12:49:43Z</time>
      </trkpt>
      <trkpt lat="44.41698" lon="6.01585">
        <ele>573</ele>
        <time>2019-04-09T12:49:44Z</time>
      </trkpt>
      <trkpt lat="44.41697" lon="6.0158">
        <ele>574</ele>
        <time>2019-04-09T12:49:45Z</time>
      </trkpt>
      <trkpt lat="44.41695" lon="6.01574">
        <ele>574</ele>
        <time>2019-04-09T12:49:46Z</time>
      </trkpt>
      <trkpt lat="44.41693" lon="6.01568">
        <ele>575</ele>
        <time>2019-04-09T12:49:47Z</time>
      </trkpt>
      <trkpt lat="44.41691" lon="6.01563">
        <ele>576</ele>
        <time>2019-04-09T12:49:48Z</time>
      </trkpt>
      <trkpt lat="44.4169" lon="6.01557">
        <ele>577</ele>
        <time>2019-04-09T12:49:49Z</time>
      </trkpt>
      <trkpt lat="44.41688" lon="6.01552">
        <ele>578</ele>
        <time>2019-04-09T12:49:50Z</time>
      </trkpt>
      <trkpt lat="44.41687" lon="6.01547">
        <ele>578</ele>
        <time>2019-04-09T12:49:51Z</time>
      </trkpt>
      <trkpt lat="44.41685" lon="6.01542">
        <ele>579</ele>
        <time>2019-04-09T12:49:52Z</time>
      </trkpt>
      <trkpt lat="44.41684" lon="6.01536">
        <ele>579</ele>
        <time>2019-04-09T12:49:53Z</time>
      </trkpt>
      <trkpt lat="44.41683" lon="6.01531">
        <ele>579</ele>
        <time>2019-04-09T12:49:54Z</time>
      </trkpt>
      <trkpt lat="44.41681" lon="6.01525">
        <ele>579</ele>
        <time>2019-04-09T12:49:55Z</time>
      </trkpt>
      <trkpt lat="44.4168" lon="6.01519">
        <ele>579</ele>
        <time>2019-04-09T12:49:56Z</time>
      </trkpt>
      <trkpt lat="44.41679" lon="6.01513">
        <ele>579</ele>
        <time>2019-04-09T12:49:57Z</time>
      </trkpt>
      <trkpt lat="44.41679" lon="6.01506">
        <ele>579</ele>
        <time>2019-04-09T12:49:58Z</time>
      </trkpt>
      <trkpt lat="44.41678" lon="6.015">
        <ele>579</ele>
        <time>2019-04-09T12:49:59Z</time>
      </trkpt>
      <trkpt lat="44.41677" lon="6.01494">
        <ele>579</ele>
        <time>2019-04-09T12:50:00Z</time>
      </trkpt>
      <trkpt lat="44.41676" lon="6.01488">
        <ele>579</ele>
        <time>2019-04-09T12:50:01Z</time>
      </trkpt>
      <trkpt lat="44.41676" lon="6.01481">
        <ele>579</ele>
        <time>2019-04-09T12:50:02Z</time>
      </trkpt>
      <trkpt lat="44.41676" lon="6.01475">
        <ele>579</ele>
        <time>2019-04-09T12:50:03Z</time>
      </trkpt>
      <trkpt lat="44.41675" lon="6.01469">
        <ele>579</ele>
        <time>2019-04-09T12:50:04Z</time>
      </trkpt>
      <trkpt lat="44.41674" lon="6.01464">
        <ele>579</ele>
        <time>2019-04-09T12:50:05Z</time>
      </trkpt>
      <trkpt lat="44.41673" lon="6.01458">
        <ele>579</ele>
        <time>2019-04-09T12:50:06Z</time>
      </trkpt>
      <trkpt lat="44.41671" lon="6.01452">
        <ele>579</ele>
        <time>2019-04-09T12:50:07Z</time>
      </trkpt>
      <trkpt lat="44.41669" lon="6.01446">
        <ele>579</ele>
        <time>2019-04-09T12:50:08Z</time>
      </trkpt>
      <trkpt lat="44.41667" lon="6.01441">
        <ele>579</ele>
        <time>2019-04-09T12:50:09Z</time>
      </trkpt>
      <trkpt lat="44.41665" lon="6.01435">
        <ele>579</ele>
        <time>2019-04-09T12:50:10Z</time>
      </trkpt>
      <trkpt lat="44.41662" lon="6.01429">
        <ele>579</ele>
        <time>2019-04-09T12:50:11Z</time>
      </trkpt>
      <trkpt lat="44.4166" lon="6.01423">
        <ele>579</ele>
        <time>2019-04-09T12:50:12Z</time>
      </trkpt>
      <trkpt lat="44.41657" lon="6.01418">
        <ele>579</ele>
        <time>2019-04-09T12:50:13Z</time>
      </trkpt>
      <trkpt lat="44.41654" lon="6.01413">
        <ele>579</ele>
        <time>2019-04-09T12:50:14Z</time>
      </trkpt>
      <trkpt lat="44.41652" lon="6.01407">
        <ele>579</ele>
        <time>2019-04-09T12:50:15Z</time>
      </trkpt>
      <trkpt lat="44.41649" lon="6.01402">
        <ele>579</ele>
        <time>2019-04-09T12:50:16Z</time>
      </trkpt>
      <trkpt lat="44.41646" lon="6.01396">
        <ele>579</ele>
        <time>2019-04-09T12:50:17Z</time>
      </trkpt>
      <trkpt lat="44.41644" lon="6.01391">
        <ele>579</ele>
        <time>2019-04-09T12:50:18Z</time>
      </trkpt>
      <trkpt lat="44.41641" lon="6.01386">
        <ele>579</ele>
        <time>2019-04-09T12:50:19Z</time>
      </trkpt>
      <trkpt lat="44.41638" lon="6.0138">
        <ele>579</ele>
        <time>2019-04-09T12:50:20Z</time>
      </trkpt>
      <trkpt lat="44.41636" lon="6.01375">
        <ele>579</ele>
        <time>2019-04-09T12:50:21Z</time>
      </trkpt>
      <trkpt lat="44.41633" lon="6.01369">
        <ele>579</ele>
        <time>2019-04-09T12:50:22Z</time>
      </trkpt>
      <trkpt lat="44.41631" lon="6.01364">
        <ele>579</ele>
        <time>2019-04-09T12:50:23Z</time>
      </trkpt>
      <trkpt lat="44.41628" lon="6.01359">
        <ele>579</ele>
        <time>2019-04-09T12:50:24Z</time>
      </trkpt>
      <trkpt lat="44.41625" lon="6.01354">
        <ele>579</ele>
        <time>2019-04-09T12:50:25Z</time>
      </trkpt>
      <trkpt lat="44.41623" lon="6.01348">
        <ele>579</ele>
        <time>2019-04-09T12:50:26Z</time>
      </trkpt>
      <trkpt lat="44.4162" lon="6.01343">
        <ele>579</ele>
        <time>2019-04-09T12:50:27Z</time>
      </trkpt>
      <trkpt lat="44.41618" lon="6.01338">
        <ele>579</ele>
        <time>2019-04-09T12:50:28Z</time>
      </trkpt>
      <trkpt lat="44.41616" lon="6.01333">
        <ele>579</ele>
        <time>2019-04-09T12:50:29Z</time>
      </trkpt>
      <trkpt lat="44.41613" lon="6.01328">
        <ele>579</ele>
        <time>2019-04-09T12:50:30Z</time>
      </trkpt>
      <trkpt lat="44.41611" lon="6.01323">
        <ele>579</ele>
        <time>2019-04-09T12:50:31Z</time>
      </trkpt>
      <trkpt lat="44.41609" lon="6.01318">
        <ele>579</ele>
        <time>2019-04-09T12:50:32Z</time>
      </trkpt>
      <trkpt lat="44.41606" lon="6.01314">
        <ele>579</ele>
        <time>2019-04-09T12:50:33Z</time>
      </trkpt>
      <trkpt lat="44.41604" lon="6.01309">
        <ele>579</ele>
        <time>2019-04-09T12:50:34Z</time>
      </trkpt>
      <trkpt lat="44.41601" lon="6.01304">
        <ele>580</ele>
        <time>2019-04-09T12:50:35Z</time>
      </trkpt>
      <trkpt lat="44.41599" lon="6.013">
        <ele>580</ele>
        <time>2019-04-09T12:50:36Z</time>
      </trkpt>
      <trkpt lat="44.41596" lon="6.01295">
        <ele>580</ele>
        <time>2019-04-09T12:50:37Z</time>
      </trkpt>
      <trkpt lat="44.41592" lon="6.01291">
        <ele>580</ele>
        <time>2019-04-09T12:50:38Z</time>
      </trkpt>
      <trkpt lat="44.41589" lon="6.01286">
        <ele>580</ele>
        <time>2019-04-09T12:50:39Z</time>
      </trkpt>
      <trkpt lat="44.41586" lon="6.01281">
        <ele>580</ele>
        <time>2019-04-09T12:50:40Z</time>
      </trkpt>
      <trkpt lat="44.41583" lon="6.01277">
        <ele>580</ele>
        <time>2019-04-09T12:50:41Z</time>
      </trkpt>
      <trkpt lat="44.4158" lon="6.01272">
        <ele>581</ele>
        <time>2019-04-09T12:50:42Z</time>
      </trkpt>
      <trkpt lat="44.41576" lon="6.01268">
        <ele>581</ele>
        <time>2019-04-09T12:50:43Z</time>
      </trkpt>
      <trkpt lat="44.41573" lon="6.01264">
        <ele>581</ele>
        <time>2019-04-09T12:50:44Z</time>
      </trkpt>
      <trkpt lat="44.41569" lon="6.0126">
        <ele>581</ele>
        <time>2019-04-09T12:50:45Z</time>
      </trkpt>
      <trkpt lat="44.41566" lon="6.01256">
        <ele>581</ele>
        <time>2019-04-09T12:50:46Z</time>
      </trkpt>
      <trkpt lat="44.41562" lon="6.01252">
        <ele>581</ele>
        <time>2019-04-09T12:50:47Z</time>
      </trkpt>
      <trkpt lat="44.41558" lon="6.01247">
        <ele>581</ele>
        <time>2019-04-09T12:50:48Z</time>
      </trkpt>
      <trkpt lat="44.41555" lon="6.01243">
        <ele>582</ele>
        <time>2019-04-09T12:50:49Z</time>
      </trkpt>
      <trkpt lat="44.41551" lon="6.01239">
        <ele>582</ele>
        <time>2019-04-09T12:50:50Z</time>
      </trkpt>
      <trkpt lat="44.41547" lon="6.01235">
        <ele>582</ele>
        <time>2019-04-09T12:50:51Z</time>
      </trkpt>
      <trkpt lat="44.41543" lon="6.0123">
        <ele>582</ele>
        <time>2019-04-09T12:50:52Z</time>
      </trkpt>
      <trkpt lat="44.41539" lon="6.01227">
        <ele>582</ele>
        <time>2019-04-09T12:50:53Z</time>
      </trkpt>
      <trkpt lat="44.41534" lon="6.01223">
        <ele>582</ele>
        <time>2019-04-09T12:50:54Z</time>
      </trkpt>
      <trkpt lat="44.4153" lon="6.01219">
        <ele>582</ele>
        <time>2019-04-09T12:50:55Z</time>
      </trkpt>
      <trkpt lat="44.41525" lon="6.01215">
        <ele>582</ele>
        <time>2019-04-09T12:50:56Z</time>
      </trkpt>
      <trkpt lat="44.41521" lon="6.01211">
        <ele>582</ele>
        <time>2019-04-09T12:50:57Z</time>
      </trkpt>
      <trkpt lat="44.41516" lon="6.01207">
        <ele>582</ele>
        <time>2019-04-09T12:50:58Z</time>
      </trkpt>
      <trkpt lat="44.41511" lon="6.01203">
        <ele>582</ele>
        <time>2019-04-09T12:50:59Z</time>
      </trkpt>
      <trkpt lat="44.41506" lon="6.01199">
        <ele>583</ele>
        <time>2019-04-09T12:51:00Z</time>
      </trkpt>
      <trkpt lat="44.41501" lon="6.01195">
        <ele>583</ele>
        <time>2019-04-09T12:51:01Z</time>
      </trkpt>
      <trkpt lat="44.41496" lon="6.01191">
        <ele>583</ele>
        <time>2019-04-09T12:51:02Z</time>
      </trkpt>
      <trkpt lat="44.41491" lon="6.01187">
        <ele>583</ele>
        <time>2019-04-09T12:51:03Z</time>
      </trkpt>
      <trkpt lat="44.41486" lon="6.01182">
        <ele>584</ele>
        <time>2019-04-09T12:51:04Z</time>
      </trkpt>
      <trkpt lat="44.41482" lon="6.01178">
        <ele>584</ele>
        <time>2019-04-09T12:51:05Z</time>
      </trkpt>
      <trkpt lat="44.41477" lon="6.01173">
        <ele>584</ele>
        <time>2019-04-09T12:51:06Z</time>
      </trkpt>
      <trkpt lat="44.41473" lon="6.01169">
        <ele>584</ele>
        <time>2019-04-09T12:51:07Z</time>
      </trkpt>
      <trkpt lat="44.41468" lon="6.01165">
        <ele>584</ele>
        <time>2019-04-09T12:51:08Z</time>
      </trkpt>
      <trkpt lat="44.41464" lon="6.01161">
        <ele>584</ele>
        <time>2019-04-09T12:51:09Z</time>
      </trkpt>
      <trkpt lat="44.4146" lon="6.01157">
        <ele>584</ele>
        <time>2019-04-09T12:51:10Z</time>
      </trkpt>
      <trkpt lat="44.41455" lon="6.01153">
        <ele>584</ele>
        <time>2019-04-09T12:51:11Z</time>
      </trkpt>
      <trkpt lat="44.41451" lon="6.01149">
        <ele>584</ele>
        <time>2019-04-09T12:51:12Z</time>
      </trkpt>
      <trkpt lat="44.41447" lon="6.01145">
        <ele>584</ele>
        <time>2019-04-09T12:51:13Z</time>
      </trkpt>
      <trkpt lat="44.41442" lon="6.01141">
        <ele>584</ele>
        <time>2019-04-09T12:51:14Z</time>
      </trkpt>
      <trkpt lat="44.41438" lon="6.01137">
        <ele>584</ele>
        <time>2019-04-09T12:51:15Z</time>
      </trkpt>
      <trkpt lat="44.41434" lon="6.01133">
        <ele>584</ele>
        <time>2019-04-09T12:51:16Z</time>
      </trkpt>
      <trkpt lat="44.4143" lon="6.01129">
        <ele>584</ele>
        <time>2019-04-09T12:51:17Z</time>
      </trkpt>
      <trkpt lat="44.41426" lon="6.01125">
        <ele>584</ele>
        <time>2019-04-09T12:51:18Z</time>
      </trkpt>
      <trkpt lat="44.41421" lon="6.01121">
        <ele>585</ele>
        <time>2019-04-09T12:51:19Z</time>
      </trkpt>
      <trkpt lat="44.41416" lon="6.01117">
        <ele>585</ele>
        <time>2019-04-09T12:51:20Z</time>
      </trkpt>
      <trkpt lat="44.41412" lon="6.01112">
        <ele>585</ele>
        <time>2019-04-09T12:51:21Z</time>
      </trkpt>
      <trkpt lat="44.41407" lon="6.01108">
        <ele>585</ele>
        <time>2019-04-09T12:51:22Z</time>
      </trkpt>
      <trkpt lat="44.41402" lon="6.01103">
        <ele>585</ele>
        <time>2019-04-09T12:51:23Z</time>
      </trkpt>
      <trkpt lat="44.41396" lon="6.01098">
        <ele>585</ele>
        <time>2019-04-09T12:51:24Z</time>
      </trkpt>
      <trkpt lat="44.41391" lon="6.01093">
        <ele>585</ele>
        <time>2019-04-09T12:51:25Z</time>
      </trkpt>
      <trkpt lat="44.41386" lon="6.01087">
        <ele>585</ele>
        <time>2019-04-09T12:51:26Z</time>
      </trkpt>
      <trkpt lat="44.41381" lon="6.0108">
        <ele>585</ele>
        <time>2019-04-09T12:51:27Z</time>
      </trkpt>
      <trkpt lat="44.41376" lon="6.01074">
        <ele>585</ele>
        <time>2019-04-09T12:51:28Z</time>
      </trkpt>
      <trkpt lat="44.41372" lon="6.01067">
        <ele>585</ele>
        <time>2019-04-09T12:51:29Z</time>
      </trkpt>
      <trkpt lat="44.41367" lon="6.0106">
        <ele>585</ele>
        <time>2019-04-09T12:51:30Z</time>
      </trkpt>
      <trkpt lat="44.41362" lon="6.01053">
        <ele>585</ele>
        <time>2019-04-09T12:51:31Z</time>
      </trkpt>
      <trkpt lat="44.41358" lon="6.01045">
        <ele>585</ele>
        <time>2019-04-09T12:51:32Z</time>
      </trkpt>
      <trkpt lat="44.41354" lon="6.01037">
        <ele>585</ele>
        <time>2019-04-09T12:51:33Z</time>
      </trkpt>
      <trkpt lat="44.4135" lon="6.01028">
        <ele>585</ele>
        <time>2019-04-09T12:51:34Z</time>
      </trkpt>
      <trkpt lat="44.41345" lon="6.01019">
        <ele>585</ele>
        <time>2019-04-09T12:51:35Z</time>
      </trkpt>
      <trkpt lat="44.41341" lon="6.0101">
        <ele>585</ele>
        <time>2019-04-09T12:51:36Z</time>
      </trkpt>
      <trkpt lat="44.41337" lon="6.01001">
        <ele>585</ele>
        <time>2019-04-09T12:51:37Z</time>
      </trkpt>
      <trkpt lat="44.41333" lon="6.00992">
        <ele>585</ele>
        <time>2019-04-09T12:51:38Z</time>
      </trkpt>
      <trkpt lat="44.41328" lon="6.00984">
        <ele>584</ele>
        <time>2019-04-09T12:51:39Z</time>
      </trkpt>
      <trkpt lat="44.41324" lon="6.00976">
        <ele>584</ele>
        <time>2019-04-09T12:51:40Z</time>
      </trkpt>
      <trkpt lat="44.4132" lon="6.00968">
        <ele>583</ele>
        <time>2019-04-09T12:51:41Z</time>
      </trkpt>
      <trkpt lat="44.41316" lon="6.0096">
        <ele>582</ele>
        <time>2019-04-09T12:51:42Z</time>
      </trkpt>
      <trkpt lat="44.41312" lon="6.00952">
        <ele>582</ele>
        <time>2019-04-09T12:51:43Z</time>
      </trkpt>
      <trkpt lat="44.41309" lon="6.00945">
        <ele>582</ele>
        <time>2019-04-09T12:51:44Z</time>
      </trkpt>
      <trkpt lat="44.41306" lon="6.00936">
        <ele>581</ele>
        <time>2019-04-09T12:51:45Z</time>
      </trkpt>
      <trkpt lat="44.41302" lon="6.00928">
        <ele>581</ele>
        <time>2019-04-09T12:51:46Z</time>
      </trkpt>
      <trkpt lat="44.41299" lon="6.00919">
        <ele>581</ele>
        <time>2019-04-09T12:51:47Z</time>
      </trkpt>
      <trkpt lat="44.41296" lon="6.0091">
        <ele>581</ele>
        <time>2019-04-09T12:51:48Z</time>
      </trkpt>
      <trkpt lat="44.41293" lon="6.00901">
        <ele>580</ele>
        <time>2019-04-09T12:51:49Z</time>
      </trkpt>
      <trkpt lat="44.41291" lon="6.00892">
        <ele>580</ele>
        <time>2019-04-09T12:51:50Z</time>
      </trkpt>
      <trkpt lat="44.41288" lon="6.00883">
        <ele>580</ele>
        <time>2019-04-09T12:51:51Z</time>
      </trkpt>
      <trkpt lat="44.41286" lon="6.00875">
        <ele>580</ele>
        <time>2019-04-09T12:51:52Z</time>
      </trkpt>
      <trkpt lat="44.41284" lon="6.00866">
        <ele>579</ele>
        <time>2019-04-09T12:51:53Z</time>
      </trkpt>
      <trkpt lat="44.41282" lon="6.00858">
        <ele>579</ele>
        <time>2019-04-09T12:51:54Z</time>
      </trkpt>
      <trkpt lat="44.41279" lon="6.00849">
        <ele>579</ele>
        <time>2019-04-09T12:51:55Z</time>
      </trkpt>
      <trkpt lat="44.41277" lon="6.00841">
        <ele>579</ele>
        <time>2019-04-09T12:51:56Z</time>
      </trkpt>
      <trkpt lat="44.41275" lon="6.00834">
        <ele>579</ele>
        <time>2019-04-09T12:51:57Z</time>
      </trkpt>
      <trkpt lat="44.41273" lon="6.00826">
        <ele>579</ele>
        <time>2019-04-09T12:51:58Z</time>
      </trkpt>
      <trkpt lat="44.41271" lon="6.00819">
        <ele>579</ele>
        <time>2019-04-09T12:51:59Z</time>
      </trkpt>
      <trkpt lat="44.41269" lon="6.00812">
        <ele>579</ele>
        <time>2019-04-09T12:52:00Z</time>
      </trkpt>
      <trkpt lat="44.41267" lon="6.00805">
        <ele>579</ele>
        <time>2019-04-09T12:52:01Z</time>
      </trkpt>
      <trkpt lat="44.41264" lon="6.00798">
        <ele>579</ele>
        <time>2019-04-09T12:52:02Z</time>
      </trkpt>
      <trkpt lat="44.41263" lon="6.00791">
        <ele>579</ele>
        <time>2019-04-09T12:52:03Z</time>
      </trkpt>
      <trkpt lat="44.41261" lon="6.00784">
        <ele>579</ele>
        <time>2019-04-09T12:52:04Z</time>
      </trkpt>
      <trkpt lat="44.41259" lon="6.00777">
        <ele>579</ele>
        <time>2019-04-09T12:52:05Z</time>
      </trkpt>
      <trkpt lat="44.41257" lon="6.0077">
        <ele>579</ele>
        <time>2019-04-09T12:52:06Z</time>
      </trkpt>
      <trkpt lat="44.41255" lon="6.00763">
        <ele>579</ele>
        <time>2019-04-09T12:52:07Z</time>
      </trkpt>
      <trkpt lat="44.41253" lon="6.00755">
        <ele>579</ele>
        <time>2019-04-09T12:52:08Z</time>
      </trkpt>
      <trkpt lat="44.41251" lon="6.00748">
        <ele>579</ele>
        <time>2019-04-09T12:52:09Z</time>
      </trkpt>
      <trkpt lat="44.41249" lon="6.00742">
        <ele>579</ele>
        <time>2019-04-09T12:52:10Z</time>
      </trkpt>
      <trkpt lat="44.41247" lon="6.00735">
        <ele>579</ele>
        <time>2019-04-09T12:52:11Z</time>
      </trkpt>
      <trkpt lat="44.41245" lon="6.00728">
        <ele>579</ele>
        <time>2019-04-09T12:52:12Z</time>
      </trkpt>
      <trkpt lat="44.41243" lon="6.00721">
        <ele>579</ele>
        <time>2019-04-09T12:52:13Z</time>
      </trkpt>
      <trkpt lat="44.41241" lon="6.00714">
        <ele>579</ele>
        <time>2019-04-09T12:52:14Z</time>
      </trkpt>
      <trkpt lat="44.41239" lon="6.00707">
        <ele>579</ele>
        <time>2019-04-09T12:52:15Z</time>
      </trkpt>
      <trkpt lat="44.41237" lon="6.007">
        <ele>579</ele>
        <time>2019-04-09T12:52:16Z</time>
      </trkpt>
      <trkpt lat="44.41235" lon="6.00692">
        <ele>579</ele>
        <time>2019-04-09T12:52:17Z</time>
      </trkpt>
      <trkpt lat="44.41233" lon="6.00685">
        <ele>579</ele>
        <time>2019-04-09T12:52:18Z</time>
      </trkpt>
      <trkpt lat="44.41231" lon="6.00678">
        <ele>579</ele>
        <time>2019-04-09T12:52:19Z</time>
      </trkpt>
      <trkpt lat="44.41229" lon="6.0067">
        <ele>579</ele>
        <time>2019-04-09T12:52:20Z</time>
      </trkpt>
      <trkpt lat="44.41227" lon="6.00663">
        <ele>579</ele>
        <time>2019-04-09T12:52:21Z</time>
      </trkpt>
      <trkpt lat="44.41225" lon="6.00655">
        <ele>579</ele>
        <time>2019-04-09T12:52:22Z</time>
      </trkpt>
      <trkpt lat="44.41223" lon="6.00648">
        <ele>579</ele>
        <time>2019-04-09T12:52:23Z</time>
      </trkpt>
      <trkpt lat="44.41221" lon="6.0064">
        <ele>579</ele>
        <time>2019-04-09T12:52:24Z</time>
      </trkpt>
      <trkpt lat="44.41219" lon="6.00633">
        <ele>579</ele>
        <time>2019-04-09T12:52:25Z</time>
      </trkpt>
      <trkpt lat="44.41217" lon="6.00625">
        <ele>579</ele>
        <time>2019-04-09T12:52:26Z</time>
      </trkpt>
      <trkpt lat="44.41215" lon="6.00618">
        <ele>579</ele>
        <time>2019-04-09T12:52:27Z</time>
      </trkpt>
      <trkpt lat="44.41214" lon="6.0061">
        <ele>579</ele>
        <time>2019-04-09T12:52:28Z</time>
      </trkpt>
      <trkpt lat="44.41211" lon="6.00602">
        <ele>579</ele>
        <time>2019-04-09T12:52:29Z</time>
      </trkpt>
      <trkpt lat="44.41209" lon="6.00595">
        <ele>579</ele>
        <time>2019-04-09T12:52:30Z</time>
      </trkpt>
      <trkpt lat="44.41208" lon="6.00587">
        <ele>579</ele>
        <time>2019-04-09T12:52:31Z</time>
      </trkpt>
      <trkpt lat="44.41206" lon="6.00579">
        <ele>579</ele>
        <time>2019-04-09T12:52:32Z</time>
      </trkpt>
      <trkpt lat="44.41204" lon="6.00571">
        <ele>579</ele>
        <time>2019-04-09T12:52:33Z</time>
      </trkpt>
      <trkpt lat="44.41202" lon="6.00564">
        <ele>579</ele>
        <time>2019-04-09T12:52:34Z</time>
      </trkpt>
      <trkpt lat="44.412" lon="6.00556">
        <ele>579</ele>
        <time>2019-04-09T12:52:35Z</time>
      </trkpt>
      <trkpt lat="44.41198" lon="6.00549">
        <ele>579</ele>
        <time>2019-04-09T12:52:36Z</time>
      </trkpt>
      <trkpt lat="44.41196" lon="6.00541">
        <ele>579</ele>
        <time>2019-04-09T12:52:37Z</time>
      </trkpt>
      <trkpt lat="44.41194" lon="6.00534">
        <ele>579</ele>
        <time>2019-04-09T12:52:38Z</time>
      </trkpt>
      <trkpt lat="44.41192" lon="6.00526">
        <ele>579</ele>
        <time>2019-04-09T12:52:39Z</time>
      </trkpt>
      <trkpt lat="44.41191" lon="6.00519">
        <ele>579</ele>
        <time>2019-04-09T12:52:40Z</time>
      </trkpt>
      <trkpt lat="44.41189" lon="6.00512">
        <ele>579</ele>
        <time>2019-04-09T12:52:41Z</time>
      </trkpt>
      <trkpt lat="44.41187" lon="6.00504">
        <ele>579</ele>
        <time>2019-04-09T12:52:42Z</time>
      </trkpt>
      <trkpt lat="44.41185" lon="6.00497">
        <ele>579</ele>
        <time>2019-04-09T12:52:43Z</time>
      </trkpt>
      <trkpt lat="44.41183" lon="6.0049">
        <ele>579</ele>
        <time>2019-04-09T12:52:44Z</time>
      </trkpt>
      <trkpt lat="44.41181" lon="6.00483">
        <ele>579</ele>
        <time>2019-04-09T12:52:45Z</time>
      </trkpt>
      <trkpt lat="44.41179" lon="6.00476">
        <ele>579</ele>
        <time>2019-04-09T12:52:46Z</time>
      </trkpt>
      <trkpt lat="44.41177" lon="6.00468">
        <ele>579</ele>
        <time>2019-04-09T12:52:47Z</time>
      </trkpt>
      <trkpt lat="44.41175" lon="6.00461">
        <ele>579</ele>
        <time>2019-04-09T12:52:48Z</time>
      </trkpt>
      <trkpt lat="44.41173" lon="6.00454">
        <ele>579</ele>
        <time>2019-04-09T12:52:49Z</time>
      </trkpt>
      <trkpt lat="44.41171" lon="6.00446">
        <ele>579</ele>
        <time>2019-04-09T12:52:50Z</time>
      </trkpt>
      <trkpt lat="44.41169" lon="6.00439">
        <ele>579</ele>
        <time>2019-04-09T12:52:51Z</time>
      </trkpt>
      <trkpt lat="44.41167" lon="6.00431">
        <ele>579</ele>
        <time>2019-04-09T12:52:52Z</time>
      </trkpt>
      <trkpt lat="44.41165" lon="6.00424">
        <ele>579</ele>
        <time>2019-04-09T12:52:53Z</time>
      </trkpt>
      <trkpt lat="44.41163" lon="6.00417">
        <ele>579</ele>
        <time>2019-04-09T12:52:54Z</time>
      </trkpt>
      <trkpt lat="44.41161" lon="6.00409">
        <ele>579</ele>
        <time>2019-04-09T12:52:55Z</time>
      </trkpt>
      <trkpt lat="44.41159" lon="6.00402">
        <ele>579</ele>
        <time>2019-04-09T12:52:56Z</time>
      </trkpt>
      <trkpt lat="44.41157" lon="6.00394">
        <ele>579</ele>
        <time>2019-04-09T12:52:57Z</time>
      </trkpt>
      <trkpt lat="44.41155" lon="6.00387">
        <ele>579</ele>
        <time>2019-04-09T12:52:58Z</time>
      </trkpt>
      <trkpt lat="44.41153" lon="6.00379">
        <ele>579</ele>
        <time>2019-04-09T12:52:59Z</time>
      </trkpt>
      <trkpt lat="44.41151" lon="6.00372">
        <ele>579</ele>
        <time>2019-04-09T12:53:00Z</time>
      </trkpt>
      <trkpt lat="44.41149" lon="6.00364">
        <ele>579</ele>
        <time>2019-04-09T12:53:01Z</time>
      </trkpt>
      <trkpt lat="44.41147" lon="6.00356">
        <ele>579</ele>
        <time>2019-04-09T12:53:02Z</time>
      </trkpt>
      <trkpt lat="44.41145" lon="6.00348">
        <ele>579</ele>
        <time>2019-04-09T12:53:03Z</time>
      </trkpt>
      <trkpt lat="44.41143" lon="6.0034">
        <ele>579</ele>
        <time>2019-04-09T12:53:04Z</time>
      </trkpt>
      <trkpt lat="44.4114" lon="6.00332">
        <ele>579</ele>
        <time>2019-04-09T12:53:05Z</time>
      </trkpt>
      <trkpt lat="44.41138" lon="6.00324">
        <ele>579</ele>
        <time>2019-04-09T12:53:06Z</time>
      </trkpt>
      <trkpt lat="44.41136" lon="6.00316">
        <ele>579</ele>
        <time>2019-04-09T12:53:07Z</time>
      </trkpt>
      <trkpt lat="44.41134" lon="6.00308">
        <ele>579</ele>
        <time>2019-04-09T12:53:08Z</time>
      </trkpt>
      <trkpt lat="44.41132" lon="6.003">
        <ele>579</ele>
        <time>2019-04-09T12:53:09Z</time>
      </trkpt>
      <trkpt lat="44.4113" lon="6.00291">
        <ele>579</ele>
        <time>2019-04-09T12:53:10Z</time>
      </trkpt>
      <trkpt lat="44.41128" lon="6.00284">
        <ele>579</ele>
        <time>2019-04-09T12:53:11Z</time>
      </trkpt>
      <trkpt lat="44.41126" lon="6.00276">
        <ele>579</ele>
        <time>2019-04-09T12:53:12Z</time>
      </trkpt>
      <trkpt lat="44.41124" lon="6.00269">
        <ele>579</ele>
        <time>2019-04-09T12:53:13Z</time>
      </trkpt>
      <trkpt lat="44.41122" lon="6.00261">
        <ele>579</ele>
        <time>2019-04-09T12:53:14Z</time>
      </trkpt>
      <trkpt lat="44.4112" lon="6.00254">
        <ele>579</ele>
        <time>2019-04-09T12:53:15Z</time>
      </trkpt>
      <trkpt lat="44.41118" lon="6.00246">
        <ele>579</ele>
        <time>2019-04-09T12:53:16Z</time>
      </trkpt>
      <trkpt lat="44.41116" lon="6.00239">
        <ele>579</ele>
        <time>2019-04-09T12:53:17Z</time>
      </trkpt>
      <trkpt lat="44.41114" lon="6.00231">
        <ele>579</ele>
        <time>2019-04-09T12:53:18Z</time>
      </trkpt>
      <trkpt lat="44.41111" lon="6.00223">
        <ele>579</ele>
        <time>2019-04-09T12:53:19Z</time>
      </trkpt>
      <trkpt lat="44.41109" lon="6.00215">
        <ele>579</ele>
        <time>2019-04-09T12:53:20Z</time>
      </trkpt>
      <trkpt lat="44.41107" lon="6.00207">
        <ele>579</ele>
        <time>2019-04-09T12:53:21Z</time>
      </trkpt>
      <trkpt lat="44.41105" lon="6.00199">
        <ele>579</ele>
        <time>2019-04-09T12:53:22Z</time>
      </trkpt>
      <trkpt lat="44.41103" lon="6.00191">
        <ele>579</ele>
        <time>2019-04-09T12:53:23Z</time>
      </trkpt>
      <trkpt lat="44.41101" lon="6.00184">
        <ele>579</ele>
        <time>2019-04-09T12:53:24Z</time>
      </trkpt>
      <trkpt lat="44.41099" lon="6.00176">
        <ele>579</ele>
        <time>2019-04-09T12:53:25Z</time>
      </trkpt>
      <trkpt lat="44.41097" lon="6.00168">
        <ele>579</ele>
        <time>2019-04-09T12:53:26Z</time>
      </trkpt>
      <trkpt lat="44.41095" lon="6.0016">
        <ele>579</ele>
        <time>2019-04-09T12:53:27Z</time>
      </trkpt>
      <trkpt lat="44.41093" lon="6.00151">
        <ele>579</ele>
        <time>2019-04-09T12:53:28Z</time>
      </trkpt>
      <trkpt lat="44.41091" lon="6.00143">
        <ele>579</ele>
        <time>2019-04-09T12:53:29Z</time>
      </trkpt>
      <trkpt lat="44.41088" lon="6.00135">
        <ele>579</ele>
        <time>2019-04-09T12:53:30Z</time>
      </trkpt>
      <trkpt lat="44.41086" lon="6.00127">
        <ele>579</ele>
        <time>2019-04-09T12:53:31Z</time>
      </trkpt>
      <trkpt lat="44.41084" lon="6.00118">
        <ele>579</ele>
        <time>2019-04-09T12:53:32Z</time>
      </trkpt>
      <trkpt lat="44.41082" lon="6.00109">
        <ele>579</ele>
        <time>2019-04-09T12:53:33Z</time>
      </trkpt>
      <trkpt lat="44.41079" lon="6.00101">
        <ele>579</ele>
        <time>2019-04-09T12:53:34Z</time>
      </trkpt>
      <trkpt lat="44.41077" lon="6.00092">
        <ele>579</ele>
        <time>2019-04-09T12:53:35Z</time>
      </trkpt>
      <trkpt lat="44.41075" lon="6.00083">
        <ele>578</ele>
        <time>2019-04-09T12:53:36Z</time>
      </trkpt>
      <trkpt lat="44.41072" lon="6.00073">
        <ele>578</ele>
        <time>2019-04-09T12:53:37Z</time>
      </trkpt>
      <trkpt lat="44.4107" lon="6.00064">
        <ele>578</ele>
        <time>2019-04-09T12:53:38Z</time>
      </trkpt>
      <trkpt lat="44.41068" lon="6.00054">
        <ele>578</ele>
        <time>2019-04-09T12:53:39Z</time>
      </trkpt>
      <trkpt lat="44.41066" lon="6.00045">
        <ele>577</ele>
        <time>2019-04-09T12:53:40Z</time>
      </trkpt>
      <trkpt lat="44.41064" lon="6.00035">
        <ele>577</ele>
        <time>2019-04-09T12:53:41Z</time>
      </trkpt>
      <trkpt lat="44.41062" lon="6.00026">
        <ele>577</ele>
        <time>2019-04-09T12:53:42Z</time>
      </trkpt>
      <trkpt lat="44.4106" lon="6.00016">
        <ele>576</ele>
        <time>2019-04-09T12:53:43Z</time>
      </trkpt>
      <trkpt lat="44.41058" lon="6.00006">
        <ele>576</ele>
        <time>2019-04-09T12:53:44Z</time>
      </trkpt>
      <trkpt lat="44.41056" lon="5.99997">
        <ele>576</ele>
        <time>2019-04-09T12:53:45Z</time>
      </trkpt>
      <trkpt lat="44.41055" lon="5.99988">
        <ele>576</ele>
        <time>2019-04-09T12:53:46Z</time>
      </trkpt>
      <trkpt lat="44.41054" lon="5.99978">
        <ele>576</ele>
        <time>2019-04-09T12:53:47Z</time>
      </trkpt>
      <trkpt lat="44.41052" lon="5.99969">
        <ele>575</ele>
        <time>2019-04-09T12:53:48Z</time>
      </trkpt>
      <trkpt lat="44.41051" lon="5.9996">
        <ele>575</ele>
        <time>2019-04-09T12:53:49Z</time>
      </trkpt>
      <trkpt lat="44.41049" lon="5.9995">
        <ele>575</ele>
        <time>2019-04-09T12:53:50Z</time>
      </trkpt>
      <trkpt lat="44.41048" lon="5.99941">
        <ele>575</ele>
        <time>2019-04-09T12:53:51Z</time>
      </trkpt>
      <trkpt lat="44.41047" lon="5.99931">
        <ele>574</ele>
        <time>2019-04-09T12:53:52Z</time>
      </trkpt>
      <trkpt lat="44.41045" lon="5.99921">
        <ele>574</ele>
        <time>2019-04-09T12:53:53Z</time>
      </trkpt>
      <trkpt lat="44.41044" lon="5.99912">
        <ele>574</ele>
        <time>2019-04-09T12:53:54Z</time>
      </trkpt>
      <trkpt lat="44.41043" lon="5.99902">
        <ele>574</ele>
        <time>2019-04-09T12:53:55Z</time>
      </trkpt>
      <trkpt lat="44.41042" lon="5.99892">
        <ele>573</ele>
        <time>2019-04-09T12:53:56Z</time>
      </trkpt>
      <trkpt lat="44.41041" lon="5.99882">
        <ele>573</ele>
        <time>2019-04-09T12:53:57Z</time>
      </trkpt>
      <trkpt lat="44.4104" lon="5.99873">
        <ele>573</ele>
        <time>2019-04-09T12:53:58Z</time>
      </trkpt>
      <trkpt lat="44.41039" lon="5.99863">
        <ele>573</ele>
        <time>2019-04-09T12:53:59Z</time>
      </trkpt>
      <trkpt lat="44.41037" lon="5.99854">
        <ele>573</ele>
        <time>2019-04-09T12:54:00Z</time>
      </trkpt>
      <trkpt lat="44.41036" lon="5.99844">
        <ele>573</ele>
        <time>2019-04-09T12:54:01Z</time>
      </trkpt>
      <trkpt lat="44.41035" lon="5.99834">
        <ele>573</ele>
        <time>2019-04-09T12:54:02Z</time>
      </trkpt>
      <trkpt lat="44.41034" lon="5.99824">
        <ele>572</ele>
        <time>2019-04-09T12:54:03Z</time>
      </trkpt>
      <trkpt lat="44.41032" lon="5.99815">
        <ele>572</ele>
        <time>2019-04-09T12:54:04Z</time>
      </trkpt>
      <trkpt lat="44.41031" lon="5.99804">
        <ele>572</ele>
        <time>2019-04-09T12:54:05Z</time>
      </trkpt>
      <trkpt lat="44.4103" lon="5.99794">
        <ele>572</ele>
        <time>2019-04-09T12:54:06Z</time>
      </trkpt>
      <trkpt lat="44.41029" lon="5.99785">
        <ele>572</ele>
        <time>2019-04-09T12:54:07Z</time>
      </trkpt>
      <trkpt lat="44.41028" lon="5.99775">
        <ele>572</ele>
        <time>2019-04-09T12:54:08Z</time>
      </trkpt>
      <trkpt lat="44.41027" lon="5.99765">
        <ele>572</ele>
        <time>2019-04-09T12:54:09Z</time>
      </trkpt>
      <trkpt lat="44.41026" lon="5.99756">
        <ele>572</ele>
        <time>2019-04-09T12:54:10Z</time>
      </trkpt>
      <trkpt lat="44.41025" lon="5.99746">
        <ele>572</ele>
        <time>2019-04-09T12:54:11Z</time>
      </trkpt>
      <trkpt lat="44.41024" lon="5.99737">
        <ele>572</ele>
        <time>2019-04-09T12:54:12Z</time>
      </trkpt>
      <trkpt lat="44.41023" lon="5.99728">
        <ele>572</ele>
        <time>2019-04-09T12:54:13Z</time>
      </trkpt>
      <trkpt lat="44.41022" lon="5.9972">
        <ele>572</ele>
        <time>2019-04-09T12:54:14Z</time>
      </trkpt>
      <trkpt lat="44.41021" lon="5.99711">
        <ele>572</ele>
        <time>2019-04-09T12:54:15Z</time>
      </trkpt>
      <trkpt lat="44.4102" lon="5.99703">
        <ele>572</ele>
        <time>2019-04-09T12:54:16Z</time>
      </trkpt>
      <trkpt lat="44.41019" lon="5.99695">
        <ele>572</ele>
        <time>2019-04-09T12:54:17Z</time>
      </trkpt>
      <trkpt lat="44.41019" lon="5.99687">
        <ele>572</ele>
        <time>2019-04-09T12:54:18Z</time>
      </trkpt>
      <trkpt lat="44.41018" lon="5.9968">
        <ele>572</ele>
        <time>2019-04-09T12:54:19Z</time>
      </trkpt>
      <trkpt lat="44.41017" lon="5.99673">
        <ele>572</ele>
        <time>2019-04-09T12:54:20Z</time>
      </trkpt>
      <trkpt lat="44.41017" lon="5.99665">
        <ele>572</ele>
        <time>2019-04-09T12:54:21Z</time>
      </trkpt>
      <trkpt lat="44.41016" lon="5.99658">
        <ele>572</ele>
        <time>2019-04-09T12:54:22Z</time>
      </trkpt>
      <trkpt lat="44.41016" lon="5.99651">
        <ele>572</ele>
        <time>2019-04-09T12:54:23Z</time>
      </trkpt>
      <trkpt lat="44.41015" lon="5.99644">
        <ele>572</ele>
        <time>2019-04-09T12:54:24Z</time>
      </trkpt>
      <trkpt lat="44.41015" lon="5.99636">
        <ele>572</ele>
        <time>2019-04-09T12:54:25Z</time>
      </trkpt>
      <trkpt lat="44.41014" lon="5.99629">
        <ele>572</ele>
        <time>2019-04-09T12:54:26Z</time>
      </trkpt>
      <trkpt lat="44.41014" lon="5.99621">
        <ele>572</ele>
        <time>2019-04-09T12:54:27Z</time>
      </trkpt>
      <trkpt lat="44.41014" lon="5.99614">
        <ele>572</ele>
        <time>2019-04-09T12:54:28Z</time>
      </trkpt>
      <trkpt lat="44.41014" lon="5.99607">
        <ele>572</ele>
        <time>2019-04-09T12:54:29Z</time>
      </trkpt>
      <trkpt lat="44.41014" lon="5.99599">
        <ele>572</ele>
        <time>2019-04-09T12:54:30Z</time>
      </trkpt>
      <trkpt lat="44.41014" lon="5.99591">
        <ele>572</ele>
        <time>2019-04-09T12:54:31Z</time>
      </trkpt>
      <trkpt lat="44.41014" lon="5.99584">
        <ele>572</ele>
        <time>2019-04-09T12:54:32Z</time>
      </trkpt>
      <trkpt lat="44.41014" lon="5.99576">
        <ele>572</ele>
        <time>2019-04-09T12:54:33Z</time>
      </trkpt>
      <trkpt lat="44.41015" lon="5.99568">
        <ele>572</ele>
        <time>2019-04-09T12:54:34Z</time>
      </trkpt>
      <trkpt lat="44.41016" lon="5.9956">
        <ele>572</ele>
        <time>2019-04-09T12:54:35Z</time>
      </trkpt>
      <trkpt lat="44.41016" lon="5.99552">
        <ele>572</ele>
        <time>2019-04-09T12:54:36Z</time>
      </trkpt>
      <trkpt lat="44.41017" lon="5.99545">
        <ele>572</ele>
        <time>2019-04-09T12:54:37Z</time>
      </trkpt>
      <trkpt lat="44.41018" lon="5.99537">
        <ele>572</ele>
        <time>2019-04-09T12:54:38Z</time>
      </trkpt>
      <trkpt lat="44.41018" lon="5.99529">
        <ele>572</ele>
        <time>2019-04-09T12:54:39Z</time>
      </trkpt>
      <trkpt lat="44.41019" lon="5.99522">
        <ele>572</ele>
        <time>2019-04-09T12:54:40Z</time>
      </trkpt>
      <trkpt lat="44.41019" lon="5.99514">
        <ele>572</ele>
        <time>2019-04-09T12:54:41Z</time>
      </trkpt>
      <trkpt lat="44.4102" lon="5.99507">
        <ele>572</ele>
        <time>2019-04-09T12:54:42Z</time>
      </trkpt>
      <trkpt lat="44.41021" lon="5.99499">
        <ele>572</ele>
        <time>2019-04-09T12:54:43Z</time>
      </trkpt>
      <trkpt lat="44.41021" lon="5.99491">
        <ele>572</ele>
        <time>2019-04-09T12:54:44Z</time>
      </trkpt>
      <trkpt lat="44.41022" lon="5.99484">
        <ele>572</ele>
        <time>2019-04-09T12:54:45Z</time>
      </trkpt>
      <trkpt lat="44.41022" lon="5.99476">
        <ele>572</ele>
        <time>2019-04-09T12:54:46Z</time>
      </trkpt>
      <trkpt lat="44.41023" lon="5.9947">
        <ele>572</ele>
        <time>2019-04-09T12:54:47Z</time>
      </trkpt>
      <trkpt lat="44.41024" lon="5.99463">
        <ele>572</ele>
        <time>2019-04-09T12:54:48Z</time>
      </trkpt>
      <trkpt lat="44.41024" lon="5.99456">
        <ele>572</ele>
        <time>2019-04-09T12:54:49Z</time>
      </trkpt>
      <trkpt lat="44.41024" lon="5.9945">
        <ele>572</ele>
        <time>2019-04-09T12:54:50Z</time>
      </trkpt>
      <trkpt lat="44.41024" lon="5.99444">
        <ele>572</ele>
        <time>2019-04-09T12:54:51Z</time>
      </trkpt>
      <trkpt lat="44.41024" lon="5.99438">
        <ele>572</ele>
        <time>2019-04-09T12:54:52Z</time>
      </trkpt>
      <trkpt lat="44.41024" lon="5.99432">
        <ele>572</ele>
        <time>2019-04-09T12:54:53Z</time>
      </trkpt>
      <trkpt lat="44.41024" lon="5.99426">
        <ele>572</ele>
        <time>2019-04-09T12:54:54Z</time>
      </trkpt>
      <trkpt lat="44.41024" lon="5.99419">
        <ele>572</ele>
        <time>2019-04-09T12:54:55Z</time>
      </trkpt>
      <trkpt lat="44.41023" lon="5.99413">
        <ele>572</ele>
        <time>2019-04-09T12:54:56Z</time>
      </trkpt>
      <trkpt lat="44.41022" lon="5.99407">
        <ele>572</ele>
        <time>2019-04-09T12:54:57Z</time>
      </trkpt>
      <trkpt lat="44.41022" lon="5.99401">
        <ele>572</ele>
        <time>2019-04-09T12:54:58Z</time>
      </trkpt>
      <trkpt lat="44.41021" lon="5.99395">
        <ele>572</ele>
        <time>2019-04-09T12:54:59Z</time>
      </trkpt>
      <trkpt lat="44.4102" lon="5.99389">
        <ele>572</ele>
        <time>2019-04-09T12:55:00Z</time>
      </trkpt>
      <trkpt lat="44.41019" lon="5.99383">
        <ele>572</ele>
        <time>2019-04-09T12:55:01Z</time>
      </trkpt>
      <trkpt lat="44.41017" lon="5.99377">
        <ele>572</ele>
        <time>2019-04-09T12:55:02Z</time>
      </trkpt>
      <trkpt lat="44.41016" lon="5.99372">
        <ele>572</ele>
        <time>2019-04-09T12:55:03Z</time>
      </trkpt>
      <trkpt lat="44.41014" lon="5.99367">
        <ele>572</ele>
        <time>2019-04-09T12:55:04Z</time>
      </trkpt>
      <trkpt lat="44.41012" lon="5.99362">
        <ele>572</ele>
        <time>2019-04-09T12:55:05Z</time>
      </trkpt>
      <trkpt lat="44.4101" lon="5.99356">
        <ele>572</ele>
        <time>2019-04-09T12:55:06Z</time>
      </trkpt>
      <trkpt lat="44.41008" lon="5.99351">
        <ele>572</ele>
        <time>2019-04-09T12:55:07Z</time>
      </trkpt>
      <trkpt lat="44.41005" lon="5.99345">
        <ele>572</ele>
        <time>2019-04-09T12:55:08Z</time>
      </trkpt>
      <trkpt lat="44.41003" lon="5.99341">
        <ele>572</ele>
        <time>2019-04-09T12:55:09Z</time>
      </trkpt>
      <trkpt lat="44.41" lon="5.99336">
        <ele>572</ele>
        <time>2019-04-09T12:55:10Z</time>
      </trkpt>
      <trkpt lat="44.40997" lon="5.9933">
        <ele>572</ele>
        <time>2019-04-09T12:55:11Z</time>
      </trkpt>
      <trkpt lat="44.40994" lon="5.99324">
        <ele>573</ele>
        <time>2019-04-09T12:55:12Z</time>
      </trkpt>
      <trkpt lat="44.40992" lon="5.99319">
        <ele>573</ele>
        <time>2019-04-09T12:55:13Z</time>
      </trkpt>
      <trkpt lat="44.40989" lon="5.99313">
        <ele>573</ele>
        <time>2019-04-09T12:55:14Z</time>
      </trkpt>
      <trkpt lat="44.40985" lon="5.99307">
        <ele>573</ele>
        <time>2019-04-09T12:55:15Z</time>
      </trkpt>
      <trkpt lat="44.40983" lon="5.99302">
        <ele>573</ele>
        <time>2019-04-09T12:55:16Z</time>
      </trkpt>
      <trkpt lat="44.4098" lon="5.99296">
        <ele>573</ele>
        <time>2019-04-09T12:55:17Z</time>
      </trkpt>
      <trkpt lat="44.40977" lon="5.99291">
        <ele>573</ele>
        <time>2019-04-09T12:55:18Z</time>
      </trkpt>
      <trkpt lat="44.40974" lon="5.99286">
        <ele>574</ele>
        <time>2019-04-09T12:55:19Z</time>
      </trkpt>
      <trkpt lat="44.40971" lon="5.9928">
        <ele>574</ele>
        <time>2019-04-09T12:55:20Z</time>
      </trkpt>
      <trkpt lat="44.40968" lon="5.99274">
        <ele>574</ele>
        <time>2019-04-09T12:55:21Z</time>
      </trkpt>
      <trkpt lat="44.40966" lon="5.99268">
        <ele>574</ele>
        <time>2019-04-09T12:55:22Z</time>
      </trkpt>
      <trkpt lat="44.40963" lon="5.99263">
        <ele>575</ele>
        <time>2019-04-09T12:55:23Z</time>
      </trkpt>
      <trkpt lat="44.4096" lon="5.99257">
        <ele>575</ele>
        <time>2019-04-09T12:55:24Z</time>
      </trkpt>
      <trkpt lat="44.40957" lon="5.99252">
        <ele>575</ele>
        <time>2019-04-09T12:55:25Z</time>
      </trkpt>
      <trkpt lat="44.40955" lon="5.99247">
        <ele>576</ele>
        <time>2019-04-09T12:55:26Z</time>
      </trkpt>
      <trkpt lat="44.40952" lon="5.99242">
        <ele>576</ele>
        <time>2019-04-09T12:55:27Z</time>
      </trkpt>
      <trkpt lat="44.40949" lon="5.99237">
        <ele>576</ele>
        <time>2019-04-09T12:55:28Z</time>
      </trkpt>
      <trkpt lat="44.40946" lon="5.99232">
        <ele>576</ele>
        <time>2019-04-09T12:55:29Z</time>
      </trkpt>
      <trkpt lat="44.40944" lon="5.99227">
        <ele>577</ele>
        <time>2019-04-09T12:55:30Z</time>
      </trkpt>
      <trkpt lat="44.40941" lon="5.99221">
        <ele>577</ele>
        <time>2019-04-09T12:55:31Z</time>
      </trkpt>
      <trkpt lat="44.40938" lon="5.99216">
        <ele>577</ele>
        <time>2019-04-09T12:55:32Z</time>
      </trkpt>
      <trkpt lat="44.40935" lon="5.9921">
        <ele>578</ele>
        <time>2019-04-09T12:55:33Z</time>
      </trkpt>
      <trkpt lat="44.40932" lon="5.99205">
        <ele>578</ele>
        <time>2019-04-09T12:55:34Z</time>
      </trkpt>
      <trkpt lat="44.4093" lon="5.992">
        <ele>578</ele>
        <time>2019-04-09T12:55:35Z</time>
      </trkpt>
      <trkpt lat="44.40927" lon="5.99194">
        <ele>579</ele>
        <time>2019-04-09T12:55:36Z</time>
      </trkpt>
      <trkpt lat="44.40924" lon="5.99189">
        <ele>579</ele>
        <time>2019-04-09T12:55:37Z</time>
      </trkpt>
      <trkpt lat="44.40921" lon="5.99184">
        <ele>579</ele>
        <time>2019-04-09T12:55:38Z</time>
      </trkpt>
      <trkpt lat="44.40918" lon="5.99179">
        <ele>579</ele>
        <time>2019-04-09T12:55:39Z</time>
      </trkpt>
      <trkpt lat="44.40915" lon="5.99173">
        <ele>580</ele>
        <time>2019-04-09T12:55:40Z</time>
      </trkpt>
      <trkpt lat="44.40912" lon="5.99168">
        <ele>580</ele>
        <time>2019-04-09T12:55:41Z</time>
      </trkpt>
      <trkpt lat="44.40908" lon="5.99162">
        <ele>580</ele>
        <time>2019-04-09T12:55:42Z</time>
      </trkpt>
      <trkpt lat="44.40905" lon="5.99157">
        <ele>580</ele>
        <time>2019-04-09T12:55:43Z</time>
      </trkpt>
      <trkpt lat="44.40902" lon="5.99151">
        <ele>580</ele>
        <time>2019-04-09T12:55:44Z</time>
      </trkpt>
      <trkpt lat="44.40899" lon="5.99146">
        <ele>580</ele>
        <time>2019-04-09T12:55:45Z</time>
      </trkpt>
      <trkpt lat="44.40896" lon="5.9914">
        <ele>581</ele>
        <time>2019-04-09T12:55:46Z</time>
      </trkpt>
      <trkpt lat="44.40894" lon="5.99135">
        <ele>581</ele>
        <time>2019-04-09T12:55:47Z</time>
      </trkpt>
      <trkpt lat="44.40891" lon="5.99129">
        <ele>581</ele>
        <time>2019-04-09T12:55:48Z</time>
      </trkpt>
      <trkpt lat="44.40887" lon="5.99123">
        <ele>581</ele>
        <time>2019-04-09T12:55:49Z</time>
      </trkpt>
      <trkpt lat="44.40884" lon="5.99118">
        <ele>581</ele>
        <time>2019-04-09T12:55:50Z</time>
      </trkpt>
      <trkpt lat="44.40882" lon="5.99112">
        <ele>581</ele>
        <time>2019-04-09T12:55:51Z</time>
      </trkpt>
      <trkpt lat="44.40879" lon="5.99107">
        <ele>581</ele>
        <time>2019-04-09T12:55:52Z</time>
      </trkpt>
      <trkpt lat="44.40876" lon="5.99101">
        <ele>582</ele>
        <time>2019-04-09T12:55:53Z</time>
      </trkpt>
      <trkpt lat="44.40873" lon="5.99096">
        <ele>582</ele>
        <time>2019-04-09T12:55:54Z</time>
      </trkpt>
      <trkpt lat="44.4087" lon="5.9909">
        <ele>582</ele>
        <time>2019-04-09T12:55:55Z</time>
      </trkpt>
      <trkpt lat="44.40866" lon="5.99085">
        <ele>582</ele>
        <time>2019-04-09T12:55:56Z</time>
      </trkpt>
      <trkpt lat="44.40863" lon="5.99079">
        <ele>582</ele>
        <time>2019-04-09T12:55:57Z</time>
      </trkpt>
      <trkpt lat="44.4086" lon="5.99074">
        <ele>582</ele>
        <time>2019-04-09T12:55:58Z</time>
      </trkpt>
      <trkpt lat="44.40857" lon="5.99068">
        <ele>582</ele>
        <time>2019-04-09T12:55:59Z</time>
      </trkpt>
      <trkpt lat="44.40855" lon="5.99063">
        <ele>582</ele>
        <time>2019-04-09T12:56:00Z</time>
      </trkpt>
      <trkpt lat="44.40852" lon="5.99058">
        <ele>582</ele>
        <time>2019-04-09T12:56:01Z</time>
      </trkpt>
      <trkpt lat="44.40849" lon="5.99052">
        <ele>582</ele>
        <time>2019-04-09T12:56:02Z</time>
      </trkpt>
      <trkpt lat="44.40847" lon="5.99047">
        <ele>582</ele>
        <time>2019-04-09T12:56:03Z</time>
      </trkpt>
      <trkpt lat="44.40844" lon="5.99042">
        <ele>582</ele>
        <time>2019-04-09T12:56:04Z</time>
      </trkpt>
      <trkpt lat="44.40841" lon="5.99037">
        <ele>582</ele>
        <time>2019-04-09T12:56:05Z</time>
      </trkpt>
      <trkpt lat="44.40839" lon="5.99031">
        <ele>582</ele>
        <time>2019-04-09T12:56:06Z</time>
      </trkpt>
      <trkpt lat="44.40836" lon="5.99026">
        <ele>582</ele>
        <time>2019-04-09T12:56:07Z</time>
      </trkpt>
      <trkpt lat="44.40834" lon="5.99021">
        <ele>582</ele>
        <time>2019-04-09T12:56:08Z</time>
      </trkpt>
      <trkpt lat="44.40831" lon="5.99016">
        <ele>582</ele>
        <time>2019-04-09T12:56:09Z</time>
      </trkpt>
      <trkpt lat="44.40828" lon="5.9901">
        <ele>582</ele>
        <time>2019-04-09T12:56:10Z</time>
      </trkpt>
      <trkpt lat="44.40826" lon="5.99005">
        <ele>582</ele>
        <time>2019-04-09T12:56:11Z</time>
      </trkpt>
      <trkpt lat="44.40823" lon="5.98999">
        <ele>583</ele>
        <time>2019-04-09T12:56:12Z</time>
      </trkpt>
      <trkpt lat="44.4082" lon="5.98993">
        <ele>583</ele>
        <time>2019-04-09T12:56:13Z</time>
      </trkpt>
      <trkpt lat="44.40817" lon="5.98988">
        <ele>583</ele>
        <time>2019-04-09T12:56:14Z</time>
      </trkpt>
      <trkpt lat="44.40815" lon="5.98982">
        <ele>583</ele>
        <time>2019-04-09T12:56:15Z</time>
      </trkpt>
      <trkpt lat="44.40812" lon="5.98976">
        <ele>583</ele>
        <time>2019-04-09T12:56:16Z</time>
      </trkpt>
      <trkpt lat="44.40809" lon="5.9897">
        <ele>583</ele>
        <time>2019-04-09T12:56:17Z</time>
      </trkpt>
      <trkpt lat="44.40806" lon="5.98964">
        <ele>583</ele>
        <time>2019-04-09T12:56:18Z</time>
      </trkpt>
      <trkpt lat="44.40803" lon="5.98958">
        <ele>583</ele>
        <time>2019-04-09T12:56:19Z</time>
      </trkpt>
      <trkpt lat="44.408" lon="5.98953">
        <ele>583</ele>
        <time>2019-04-09T12:56:20Z</time>
      </trkpt>
      <trkpt lat="44.40797" lon="5.98947">
        <ele>583</ele>
        <time>2019-04-09T12:56:21Z</time>
      </trkpt>
      <trkpt lat="44.40795" lon="5.98941">
        <ele>583</ele>
        <time>2019-04-09T12:56:22Z</time>
      </trkpt>
      <trkpt lat="44.40792" lon="5.98935">
        <ele>583</ele>
        <time>2019-04-09T12:56:23Z</time>
      </trkpt>
      <trkpt lat="44.40789" lon="5.98929">
        <ele>583</ele>
        <time>2019-04-09T12:56:24Z</time>
      </trkpt>
      <trkpt lat="44.40786" lon="5.98924">
        <ele>583</ele>
        <time>2019-04-09T12:56:25Z</time>
      </trkpt>
      <trkpt lat="44.40784" lon="5.98918">
        <ele>583</ele>
        <time>2019-04-09T12:56:26Z</time>
      </trkpt>
      <trkpt lat="44.40781" lon="5.98912">
        <ele>583</ele>
        <time>2019-04-09T12:56:27Z</time>
      </trkpt>
      <trkpt lat="44.40779" lon="5.98907">
        <ele>584</ele>
        <time>2019-04-09T12:56:28Z</time>
      </trkpt>
      <trkpt lat="44.40776" lon="5.98901">
        <ele>584</ele>
        <time>2019-04-09T12:56:29Z</time>
      </trkpt>
      <trkpt lat="44.40774" lon="5.98896">
        <ele>584</ele>
        <time>2019-04-09T12:56:30Z</time>
      </trkpt>
      <trkpt lat="44.40772" lon="5.9889">
        <ele>584</ele>
        <time>2019-04-09T12:56:31Z</time>
      </trkpt>
      <trkpt lat="44.4077" lon="5.98884">
        <ele>584</ele>
        <time>2019-04-09T12:56:32Z</time>
      </trkpt>
      <trkpt lat="44.40768" lon="5.98878">
        <ele>584</ele>
        <time>2019-04-09T12:56:33Z</time>
      </trkpt>
      <trkpt lat="44.40766" lon="5.98872">
        <ele>584</ele>
        <time>2019-04-09T12:56:34Z</time>
      </trkpt>
      <trkpt lat="44.40764" lon="5.98866">
        <ele>584</ele>
        <time>2019-04-09T12:56:35Z</time>
      </trkpt>
      <trkpt lat="44.40762" lon="5.9886">
        <ele>584</ele>
        <time>2019-04-09T12:56:36Z</time>
      </trkpt>
      <trkpt lat="44.4076" lon="5.98854">
        <ele>585</ele>
        <time>2019-04-09T12:56:37Z</time>
      </trkpt>
      <trkpt lat="44.40759" lon="5.98848">
        <ele>585</ele>
        <time>2019-04-09T12:56:38Z</time>
      </trkpt>
      <trkpt lat="44.40757" lon="5.98842">
        <ele>585</ele>
        <time>2019-04-09T12:56:39Z</time>
      </trkpt>
      <trkpt lat="44.40756" lon="5.98836">
        <ele>585</ele>
        <time>2019-04-09T12:56:40Z</time>
      </trkpt>
      <trkpt lat="44.40754" lon="5.98829">
        <ele>585</ele>
        <time>2019-04-09T12:56:41Z</time>
      </trkpt>
      <trkpt lat="44.40753" lon="5.98822">
        <ele>585</ele>
        <time>2019-04-09T12:56:42Z</time>
      </trkpt>
      <trkpt lat="44.40752" lon="5.98815">
        <ele>585</ele>
        <time>2019-04-09T12:56:43Z</time>
      </trkpt>
      <trkpt lat="44.4075" lon="5.98808">
        <ele>585</ele>
        <time>2019-04-09T12:56:44Z</time>
      </trkpt>
      <trkpt lat="44.40749" lon="5.98801">
        <ele>585</ele>
        <time>2019-04-09T12:56:45Z</time>
      </trkpt>
      <trkpt lat="44.40748" lon="5.98793">
        <ele>585</ele>
        <time>2019-04-09T12:56:46Z</time>
      </trkpt>
      <trkpt lat="44.40746" lon="5.98785">
        <ele>585</ele>
        <time>2019-04-09T12:56:47Z</time>
      </trkpt>
      <trkpt lat="44.40745" lon="5.98777">
        <ele>585</ele>
        <time>2019-04-09T12:56:48Z</time>
      </trkpt>
      <trkpt lat="44.40744" lon="5.98769">
        <ele>585</ele>
        <time>2019-04-09T12:56:49Z</time>
      </trkpt>
      <trkpt lat="44.40743" lon="5.9876">
        <ele>585</ele>
        <time>2019-04-09T12:56:50Z</time>
      </trkpt>
      <trkpt lat="44.40742" lon="5.98752">
        <ele>585</ele>
        <time>2019-04-09T12:56:51Z</time>
      </trkpt>
      <trkpt lat="44.4074" lon="5.98743">
        <ele>585</ele>
        <time>2019-04-09T12:56:52Z</time>
      </trkpt>
      <trkpt lat="44.40739" lon="5.98735">
        <ele>585</ele>
        <time>2019-04-09T12:56:53Z</time>
      </trkpt>
      <trkpt lat="44.40738" lon="5.98726">
        <ele>585</ele>
        <time>2019-04-09T12:56:54Z</time>
      </trkpt>
      <trkpt lat="44.40736" lon="5.98717">
        <ele>585</ele>
        <time>2019-04-09T12:56:55Z</time>
      </trkpt>
      <trkpt lat="44.40735" lon="5.98708">
        <ele>585</ele>
        <time>2019-04-09T12:56:56Z</time>
      </trkpt>
      <trkpt lat="44.40733" lon="5.98699">
        <ele>585</ele>
        <time>2019-04-09T12:56:57Z</time>
      </trkpt>
      <trkpt lat="44.40732" lon="5.9869">
        <ele>585</ele>
        <time>2019-04-09T12:56:58Z</time>
      </trkpt>
      <trkpt lat="44.4073" lon="5.9868">
        <ele>585</ele>
        <time>2019-04-09T12:56:59Z</time>
      </trkpt>
      <trkpt lat="44.40729" lon="5.98671">
        <ele>585</ele>
        <time>2019-04-09T12:57:00Z</time>
      </trkpt>
      <trkpt lat="44.40727" lon="5.98661">
        <ele>585</ele>
        <time>2019-04-09T12:57:01Z</time>
      </trkpt>
      <trkpt lat="44.40726" lon="5.98652">
        <ele>585</ele>
        <time>2019-04-09T12:57:02Z</time>
      </trkpt>
      <trkpt lat="44.40724" lon="5.98642">
        <ele>585</ele>
        <time>2019-04-09T12:57:03Z</time>
      </trkpt>
      <trkpt lat="44.40723" lon="5.98632">
        <ele>585</ele>
        <time>2019-04-09T12:57:04Z</time>
      </trkpt>
      <trkpt lat="44.40721" lon="5.98623">
        <ele>585</ele>
        <time>2019-04-09T12:57:05Z</time>
      </trkpt>
      <trkpt lat="44.4072" lon="5.98613">
        <ele>585</ele>
        <time>2019-04-09T12:57:06Z</time>
      </trkpt>
      <trkpt lat="44.40718" lon="5.98603">
        <ele>585</ele>
        <time>2019-04-09T12:57:07Z</time>
      </trkpt>
      <trkpt lat="44.40717" lon="5.98594">
        <ele>584</ele>
        <time>2019-04-09T12:57:08Z</time>
      </trkpt>
      <trkpt lat="44.40715" lon="5.98584">
        <ele>584</ele>
        <time>2019-04-09T12:57:09Z</time>
      </trkpt>
      <trkpt lat="44.40713" lon="5.98574">
        <ele>584</ele>
        <time>2019-04-09T12:57:10Z</time>
      </trkpt>
      <trkpt lat="44.40712" lon="5.98564">
        <ele>584</ele>
        <time>2019-04-09T12:57:11Z</time>
      </trkpt>
      <trkpt lat="44.40711" lon="5.98554">
        <ele>584</ele>
        <time>2019-04-09T12:57:12Z</time>
      </trkpt>
      <trkpt lat="44.40709" lon="5.98544">
        <ele>583</ele>
        <time>2019-04-09T12:57:13Z</time>
      </trkpt>
      <trkpt lat="44.40707" lon="5.98534">
        <ele>583</ele>
        <time>2019-04-09T12:57:14Z</time>
      </trkpt>
      <trkpt lat="44.40706" lon="5.98524">
        <ele>583</ele>
        <time>2019-04-09T12:57:15Z</time>
      </trkpt>
      <trkpt lat="44.40704" lon="5.98514">
        <ele>583</ele>
        <time>2019-04-09T12:57:16Z</time>
      </trkpt>
      <trkpt lat="44.40702" lon="5.98504">
        <ele>583</ele>
        <time>2019-04-09T12:57:17Z</time>
      </trkpt>
      <trkpt lat="44.40701" lon="5.98493">
        <ele>583</ele>
        <time>2019-04-09T12:57:18Z</time>
      </trkpt>
      <trkpt lat="44.40699" lon="5.98483">
        <ele>582</ele>
        <time>2019-04-09T12:57:19Z</time>
      </trkpt>
      <trkpt lat="44.40696" lon="5.98473">
        <ele>582</ele>
        <time>2019-04-09T12:57:20Z</time>
      </trkpt>
      <trkpt lat="44.40694" lon="5.98462">
        <ele>582</ele>
        <time>2019-04-09T12:57:21Z</time>
      </trkpt>
      <trkpt lat="44.40691" lon="5.98452">
        <ele>582</ele>
        <time>2019-04-09T12:57:22Z</time>
      </trkpt>
      <trkpt lat="44.40687" lon="5.98442">
        <ele>581</ele>
        <time>2019-04-09T12:57:23Z</time>
      </trkpt>
      <trkpt lat="44.40683" lon="5.98432">
        <ele>581</ele>
        <time>2019-04-09T12:57:24Z</time>
      </trkpt>
      <trkpt lat="44.40679" lon="5.98421">
        <ele>580</ele>
        <time>2019-04-09T12:57:25Z</time>
      </trkpt>
      <trkpt lat="44.40675" lon="5.9841">
        <ele>580</ele>
        <time>2019-04-09T12:57:26Z</time>
      </trkpt>
      <trkpt lat="44.4067" lon="5.98398">
        <ele>579</ele>
        <time>2019-04-09T12:57:27Z</time>
      </trkpt>
      <trkpt lat="44.40665" lon="5.98386">
        <ele>578</ele>
        <time>2019-04-09T12:57:28Z</time>
      </trkpt>
      <trkpt lat="44.4066" lon="5.98374">
        <ele>578</ele>
        <time>2019-04-09T12:57:29Z</time>
      </trkpt>
      <trkpt lat="44.40656" lon="5.9836">
        <ele>577</ele>
        <time>2019-04-09T12:57:30Z</time>
      </trkpt>
      <trkpt lat="44.40652" lon="5.98347">
        <ele>576</ele>
        <time>2019-04-09T12:57:31Z</time>
      </trkpt>
      <trkpt lat="44.40649" lon="5.98334">
        <ele>576</ele>
        <time>2019-04-09T12:57:32Z</time>
      </trkpt>
      <trkpt lat="44.40647" lon="5.9832">
        <ele>575</ele>
        <time>2019-04-09T12:57:33Z</time>
      </trkpt>
      <trkpt lat="44.40644" lon="5.98306">
        <ele>574</ele>
        <time>2019-04-09T12:57:34Z</time>
      </trkpt>
      <trkpt lat="44.40643" lon="5.98291">
        <ele>573</ele>
        <time>2019-04-09T12:57:35Z</time>
      </trkpt>
      <trkpt lat="44.40641" lon="5.98277">
        <ele>573</ele>
        <time>2019-04-09T12:57:36Z</time>
      </trkpt>
      <trkpt lat="44.40638" lon="5.98263">
        <ele>572</ele>
        <time>2019-04-09T12:57:37Z</time>
      </trkpt>
      <trkpt lat="44.40636" lon="5.98249">
        <ele>572</ele>
        <time>2019-04-09T12:57:38Z</time>
      </trkpt>
      <trkpt lat="44.40633" lon="5.98235">
        <ele>571</ele>
        <time>2019-04-09T12:57:39Z</time>
      </trkpt>
      <trkpt lat="44.40629" lon="5.98221">
        <ele>571</ele>
        <time>2019-04-09T12:57:40Z</time>
      </trkpt>
      <trkpt lat="44.40624" lon="5.98208">
        <ele>570</ele>
        <time>2019-04-09T12:57:41Z</time>
      </trkpt>
      <trkpt lat="44.40618" lon="5.98195">
        <ele>569</ele>
        <time>2019-04-09T12:57:42Z</time>
      </trkpt>
      <trkpt lat="44.40611" lon="5.98184">
        <ele>569</ele>
        <time>2019-04-09T12:57:43Z</time>
      </trkpt>
      <trkpt lat="44.40604" lon="5.98173">
        <ele>568</ele>
        <time>2019-04-09T12:57:44Z</time>
      </trkpt>
      <trkpt lat="44.40596" lon="5.98162">
        <ele>567</ele>
        <time>2019-04-09T12:57:45Z</time>
      </trkpt>
      <trkpt lat="44.40588" lon="5.98152">
        <ele>567</ele>
        <time>2019-04-09T12:57:46Z</time>
      </trkpt>
      <trkpt lat="44.40579" lon="5.98143">
        <ele>566</ele>
        <time>2019-04-09T12:57:47Z</time>
      </trkpt>
      <trkpt lat="44.40571" lon="5.98134">
        <ele>566</ele>
        <time>2019-04-09T12:57:48Z</time>
      </trkpt>
      <trkpt lat="44.40564" lon="5.98126">
        <ele>565</ele>
        <time>2019-04-09T12:57:49Z</time>
      </trkpt>
      <trkpt lat="44.40557" lon="5.98117">
        <ele>565</ele>
        <time>2019-04-09T12:57:50Z</time>
      </trkpt>
      <trkpt lat="44.4055" lon="5.98109">
        <ele>565</ele>
        <time>2019-04-09T12:57:51Z</time>
      </trkpt>
      <trkpt lat="44.40544" lon="5.98101">
        <ele>565</ele>
        <time>2019-04-09T12:57:52Z</time>
      </trkpt>
      <trkpt lat="44.40537" lon="5.98094">
        <ele>565</ele>
        <time>2019-04-09T12:57:53Z</time>
      </trkpt>
      <trkpt lat="44.40531" lon="5.98087">
        <ele>565</ele>
        <time>2019-04-09T12:57:54Z</time>
      </trkpt>
      <trkpt lat="44.40525" lon="5.9808">
        <ele>565</ele>
        <time>2019-04-09T12:57:55Z</time>
      </trkpt>
      <trkpt lat="44.4052" lon="5.98073">
        <ele>565</ele>
        <time>2019-04-09T12:57:56Z</time>
      </trkpt>
      <trkpt lat="44.40515" lon="5.98066">
        <ele>565</ele>
        <time>2019-04-09T12:57:57Z</time>
      </trkpt>
      <trkpt lat="44.40509" lon="5.9806">
        <ele>565</ele>
        <time>2019-04-09T12:57:58Z</time>
      </trkpt>
      <trkpt lat="44.40504" lon="5.98054">
        <ele>565</ele>
        <time>2019-04-09T12:57:59Z</time>
      </trkpt>
      <trkpt lat="44.40499" lon="5.98048">
        <ele>565</ele>
        <time>2019-04-09T12:58:00Z</time>
      </trkpt>
      <trkpt lat="44.40494" lon="5.98042">
        <ele>565</ele>
        <time>2019-04-09T12:58:01Z</time>
      </trkpt>
      <trkpt lat="44.40489" lon="5.98037">
        <ele>565</ele>
        <time>2019-04-09T12:58:02Z</time>
      </trkpt>
      <trkpt lat="44.40483" lon="5.98033">
        <ele>565</ele>
        <time>2019-04-09T12:58:03Z</time>
      </trkpt>
      <trkpt lat="44.40478" lon="5.98029">
        <ele>565</ele>
        <time>2019-04-09T12:58:04Z</time>
      </trkpt>
      <trkpt lat="44.40472" lon="5.98026">
        <ele>565</ele>
        <time>2019-04-09T12:58:05Z</time>
      </trkpt>
      <trkpt lat="44.40467" lon="5.98025">
        <ele>565</ele>
        <time>2019-04-09T12:58:06Z</time>
      </trkpt>
      <trkpt lat="44.40461" lon="5.98023">
        <ele>565</ele>
        <time>2019-04-09T12:58:07Z</time>
      </trkpt>
      <trkpt lat="44.40456" lon="5.98022">
        <ele>565</ele>
        <time>2019-04-09T12:58:08Z</time>
      </trkpt>
      <trkpt lat="44.40451" lon="5.98021">
        <ele>565</ele>
        <time>2019-04-09T12:58:09Z</time>
      </trkpt>
      <trkpt lat="44.40446" lon="5.9802">
        <ele>565</ele>
        <time>2019-04-09T12:58:10Z</time>
      </trkpt>
      <trkpt lat="44.40441" lon="5.9802">
        <ele>565</ele>
        <time>2019-04-09T12:58:11Z</time>
      </trkpt>
      <trkpt lat="44.40437" lon="5.9802">
        <ele>565</ele>
        <time>2019-04-09T12:58:12Z</time>
      </trkpt>
      <trkpt lat="44.40432" lon="5.98019">
        <ele>565</ele>
        <time>2019-04-09T12:58:13Z</time>
      </trkpt>
      <trkpt lat="44.40428" lon="5.98018">
        <ele>565</ele>
        <time>2019-04-09T12:58:14Z</time>
      </trkpt>
      <trkpt lat="44.40423" lon="5.98017">
        <ele>565</ele>
        <time>2019-04-09T12:58:15Z</time>
      </trkpt>
      <trkpt lat="44.40419" lon="5.98016">
        <ele>565</ele>
        <time>2019-04-09T12:58:16Z</time>
      </trkpt>
      <trkpt lat="44.40414" lon="5.98014">
        <ele>565</ele>
        <time>2019-04-09T12:58:17Z</time>
      </trkpt>
      <trkpt lat="44.4041" lon="5.98012">
        <ele>565</ele>
        <time>2019-04-09T12:58:18Z</time>
      </trkpt>
      <trkpt lat="44.40406" lon="5.98009">
        <ele>565</ele>
        <time>2019-04-09T12:58:19Z</time>
      </trkpt>
      <trkpt lat="44.40402" lon="5.98005">
        <ele>565</ele>
        <time>2019-04-09T12:58:20Z</time>
      </trkpt>
      <trkpt lat="44.40398" lon="5.98002">
        <ele>565</ele>
        <time>2019-04-09T12:58:21Z</time>
      </trkpt>
      <trkpt lat="44.40394" lon="5.97998">
        <ele>565</ele>
        <time>2019-04-09T12:58:22Z</time>
      </trkpt>
      <trkpt lat="44.40391" lon="5.97994">
        <ele>565</ele>
        <time>2019-04-09T12:58:23Z</time>
      </trkpt>
      <trkpt lat="44.40388" lon="5.97989">
        <ele>565</ele>
        <time>2019-04-09T12:58:24Z</time>
      </trkpt>
      <trkpt lat="44.40385" lon="5.97984">
        <ele>566</ele>
        <time>2019-04-09T12:58:25Z</time>
      </trkpt>
      <trkpt lat="44.40383" lon="5.97979">
        <ele>566</ele>
        <time>2019-04-09T12:58:26Z</time>
      </trkpt>
      <trkpt lat="44.4038" lon="5.97974">
        <ele>566</ele>
        <time>2019-04-09T12:58:27Z</time>
      </trkpt>
      <trkpt lat="44.40377" lon="5.97969">
        <ele>566</ele>
        <time>2019-04-09T12:58:28Z</time>
      </trkpt>
      <trkpt lat="44.40374" lon="5.97964">
        <ele>566</ele>
        <time>2019-04-09T12:58:29Z</time>
      </trkpt>
      <trkpt lat="44.40372" lon="5.97958">
        <ele>566</ele>
        <time>2019-04-09T12:58:30Z</time>
      </trkpt>
      <trkpt lat="44.40369" lon="5.97953">
        <ele>566</ele>
        <time>2019-04-09T12:58:31Z</time>
      </trkpt>
      <trkpt lat="44.40366" lon="5.97948">
        <ele>566</ele>
        <time>2019-04-09T12:58:32Z</time>
      </trkpt>
      <trkpt lat="44.40363" lon="5.97942">
        <ele>566</ele>
        <time>2019-04-09T12:58:33Z</time>
      </trkpt>
      <trkpt lat="44.4036" lon="5.97937">
        <ele>566</ele>
        <time>2019-04-09T12:58:34Z</time>
      </trkpt>
      <trkpt lat="44.40357" lon="5.97931">
        <ele>566</ele>
        <time>2019-04-09T12:58:35Z</time>
      </trkpt>
      <trkpt lat="44.40353" lon="5.97925">
        <ele>566</ele>
        <time>2019-04-09T12:58:36Z</time>
      </trkpt>
      <trkpt lat="44.4035" lon="5.97919">
        <ele>566</ele>
        <time>2019-04-09T12:58:37Z</time>
      </trkpt>
      <trkpt lat="44.40346" lon="5.97912">
        <ele>566</ele>
        <time>2019-04-09T12:58:38Z</time>
      </trkpt>
      <trkpt lat="44.40342" lon="5.97905">
        <ele>566</ele>
        <time>2019-04-09T12:58:39Z</time>
      </trkpt>
      <trkpt lat="44.40337" lon="5.97898">
        <ele>566</ele>
        <time>2019-04-09T12:58:40Z</time>
      </trkpt>
      <trkpt lat="44.40333" lon="5.9789">
        <ele>566</ele>
        <time>2019-04-09T12:58:41Z</time>
      </trkpt>
      <trkpt lat="44.40328" lon="5.97883">
        <ele>566</ele>
        <time>2019-04-09T12:58:42Z</time>
      </trkpt>
      <trkpt lat="44.40323" lon="5.97875">
        <ele>566</ele>
        <time>2019-04-09T12:58:43Z</time>
      </trkpt>
      <trkpt lat="44.40318" lon="5.97866">
        <ele>565</ele>
        <time>2019-04-09T12:58:44Z</time>
      </trkpt>
      <trkpt lat="44.40314" lon="5.97858">
        <ele>565</ele>
        <time>2019-04-09T12:58:45Z</time>
      </trkpt>
      <trkpt lat="44.40309" lon="5.97848">
        <ele>564</ele>
        <time>2019-04-09T12:58:46Z</time>
      </trkpt>
      <trkpt lat="44.40305" lon="5.97839">
        <ele>564</ele>
        <time>2019-04-09T12:58:47Z</time>
      </trkpt>
      <trkpt lat="44.403" lon="5.97829">
        <ele>564</ele>
        <time>2019-04-09T12:58:48Z</time>
      </trkpt>
      <trkpt lat="44.40295" lon="5.9782">
        <ele>563</ele>
        <time>2019-04-09T12:58:49Z</time>
      </trkpt>
      <trkpt lat="44.4029" lon="5.97811">
        <ele>563</ele>
        <time>2019-04-09T12:58:50Z</time>
      </trkpt>
      <trkpt lat="44.40285" lon="5.97802">
        <ele>563</ele>
        <time>2019-04-09T12:58:51Z</time>
      </trkpt>
      <trkpt lat="44.4028" lon="5.97794">
        <ele>563</ele>
        <time>2019-04-09T12:58:52Z</time>
      </trkpt>
      <trkpt lat="44.40274" lon="5.97785">
        <ele>563</ele>
        <time>2019-04-09T12:58:53Z</time>
      </trkpt>
      <trkpt lat="44.40269" lon="5.97776">
        <ele>562</ele>
        <time>2019-04-09T12:58:54Z</time>
      </trkpt>
      <trkpt lat="44.40264" lon="5.97767">
        <ele>562</ele>
        <time>2019-04-09T12:58:55Z</time>
      </trkpt>
      <trkpt lat="44.40259" lon="5.97758">
        <ele>562</ele>
        <time>2019-04-09T12:58:56Z</time>
      </trkpt>
      <trkpt lat="44.40253" lon="5.9775">
        <ele>562</ele>
        <time>2019-04-09T12:58:57Z</time>
      </trkpt>
      <trkpt lat="44.40248" lon="5.97741">
        <ele>562</ele>
        <time>2019-04-09T12:58:58Z</time>
      </trkpt>
      <trkpt lat="44.40243" lon="5.97731">
        <ele>562</ele>
        <time>2019-04-09T12:58:59Z</time>
      </trkpt>
      <trkpt lat="44.40238" lon="5.97722">
        <ele>561</ele>
        <time>2019-04-09T12:59:00Z</time>
      </trkpt>
      <trkpt lat="44.40233" lon="5.97714">
        <ele>561</ele>
        <time>2019-04-09T12:59:01Z</time>
      </trkpt>
      <trkpt lat="44.40228" lon="5.97706">
        <ele>561</ele>
        <time>2019-04-09T12:59:02Z</time>
      </trkpt>
      <trkpt lat="44.40223" lon="5.97697">
        <ele>561</ele>
        <time>2019-04-09T12:59:03Z</time>
      </trkpt>
      <trkpt lat="44.40218" lon="5.9769">
        <ele>561</ele>
        <time>2019-04-09T12:59:04Z</time>
      </trkpt>
      <trkpt lat="44.40213" lon="5.97682">
        <ele>561</ele>
        <time>2019-04-09T12:59:05Z</time>
      </trkpt>
      <trkpt lat="44.40208" lon="5.97675">
        <ele>561</ele>
        <time>2019-04-09T12:59:06Z</time>
      </trkpt>
      <trkpt lat="44.40203" lon="5.97668">
        <ele>561</ele>
        <time>2019-04-09T12:59:07Z</time>
      </trkpt>
      <trkpt lat="44.40198" lon="5.9766">
        <ele>561</ele>
        <time>2019-04-09T12:59:08Z</time>
      </trkpt>
      <trkpt lat="44.40193" lon="5.97654">
        <ele>561</ele>
        <time>2019-04-09T12:59:09Z</time>
      </trkpt>
      <trkpt lat="44.40188" lon="5.97648">
        <ele>561</ele>
        <time>2019-04-09T12:59:10Z</time>
      </trkpt>
      <trkpt lat="44.40183" lon="5.97643">
        <ele>561</ele>
        <time>2019-04-09T12:59:11Z</time>
      </trkpt>
      <trkpt lat="44.40178" lon="5.97637">
        <ele>561</ele>
        <time>2019-04-09T12:59:12Z</time>
      </trkpt>
      <trkpt lat="44.40173" lon="5.97632">
        <ele>561</ele>
        <time>2019-04-09T12:59:13Z</time>
      </trkpt>
      <trkpt lat="44.40169" lon="5.97626">
        <ele>561</ele>
        <time>2019-04-09T12:59:14Z</time>
      </trkpt>
      <trkpt lat="44.40164" lon="5.9762">
        <ele>561</ele>
        <time>2019-04-09T12:59:15Z</time>
      </trkpt>
      <trkpt lat="44.40159" lon="5.97615">
        <ele>561</ele>
        <time>2019-04-09T12:59:16Z</time>
      </trkpt>
      <trkpt lat="44.40154" lon="5.97609">
        <ele>561</ele>
        <time>2019-04-09T12:59:17Z</time>
      </trkpt>
      <trkpt lat="44.40149" lon="5.97603">
        <ele>561</ele>
        <time>2019-04-09T12:59:18Z</time>
      </trkpt>
      <trkpt lat="44.40144" lon="5.97597">
        <ele>561</ele>
        <time>2019-04-09T12:59:19Z</time>
      </trkpt>
      <trkpt lat="44.40139" lon="5.9759">
        <ele>561</ele>
        <time>2019-04-09T12:59:20Z</time>
      </trkpt>
      <trkpt lat="44.40133" lon="5.97584">
        <ele>561</ele>
        <time>2019-04-09T12:59:21Z</time>
      </trkpt>
      <trkpt lat="44.40128" lon="5.97577">
        <ele>561</ele>
        <time>2019-04-09T12:59:22Z</time>
      </trkpt>
      <trkpt lat="44.40123" lon="5.97571">
        <ele>561</ele>
        <time>2019-04-09T12:59:23Z</time>
      </trkpt>
      <trkpt lat="44.40117" lon="5.97564">
        <ele>561</ele>
        <time>2019-04-09T12:59:24Z</time>
      </trkpt>
      <trkpt lat="44.40111" lon="5.97558">
        <ele>561</ele>
        <time>2019-04-09T12:59:25Z</time>
      </trkpt>
      <trkpt lat="44.40105" lon="5.97552">
        <ele>561</ele>
        <time>2019-04-09T12:59:26Z</time>
      </trkpt>
      <trkpt lat="44.40099" lon="5.97547">
        <ele>561</ele>
        <time>2019-04-09T12:59:27Z</time>
      </trkpt>
      <trkpt lat="44.40092" lon="5.97541">
        <ele>561</ele>
        <time>2019-04-09T12:59:28Z</time>
      </trkpt>
      <trkpt lat="44.40086" lon="5.97536">
        <ele>561</ele>
        <time>2019-04-09T12:59:29Z</time>
      </trkpt>
      <trkpt lat="44.40079" lon="5.9753">
        <ele>561</ele>
        <time>2019-04-09T12:59:30Z</time>
      </trkpt>
      <trkpt lat="44.40073" lon="5.97523">
        <ele>560</ele>
        <time>2019-04-09T12:59:31Z</time>
      </trkpt>
      <trkpt lat="44.40067" lon="5.97516">
        <ele>560</ele>
        <time>2019-04-09T12:59:32Z</time>
      </trkpt>
      <trkpt lat="44.40062" lon="5.97509">
        <ele>560</ele>
        <time>2019-04-09T12:59:33Z</time>
      </trkpt>
      <trkpt lat="44.40056" lon="5.97503">
        <ele>560</ele>
        <time>2019-04-09T12:59:34Z</time>
      </trkpt>
      <trkpt lat="44.40051" lon="5.97496">
        <ele>560</ele>
        <time>2019-04-09T12:59:35Z</time>
      </trkpt>
      <trkpt lat="44.40046" lon="5.9749">
        <ele>560</ele>
        <time>2019-04-09T12:59:36Z</time>
      </trkpt>
      <trkpt lat="44.40041" lon="5.97482">
        <ele>560</ele>
        <time>2019-04-09T12:59:37Z</time>
      </trkpt>
      <trkpt lat="44.40037" lon="5.97475">
        <ele>560</ele>
        <time>2019-04-09T12:59:38Z</time>
      </trkpt>
      <trkpt lat="44.40034" lon="5.97467">
        <ele>560</ele>
        <time>2019-04-09T12:59:39Z</time>
      </trkpt>
      <trkpt lat="44.40031" lon="5.97459">
        <ele>560</ele>
        <time>2019-04-09T12:59:40Z</time>
      </trkpt>
      <trkpt lat="44.40028" lon="5.9745">
        <ele>560</ele>
        <time>2019-04-09T12:59:41Z</time>
      </trkpt>
      <trkpt lat="44.40025" lon="5.97442">
        <ele>560</ele>
        <time>2019-04-09T12:59:42Z</time>
      </trkpt>
      <trkpt lat="44.40023" lon="5.97434">
        <ele>560</ele>
        <time>2019-04-09T12:59:43Z</time>
      </trkpt>
      <trkpt lat="44.4002" lon="5.97426">
        <ele>560</ele>
        <time>2019-04-09T12:59:44Z</time>
      </trkpt>
      <trkpt lat="44.40017" lon="5.97419">
        <ele>560</ele>
        <time>2019-04-09T12:59:45Z</time>
      </trkpt>
      <trkpt lat="44.40014" lon="5.97412">
        <ele>560</ele>
        <time>2019-04-09T12:59:46Z</time>
      </trkpt>
      <trkpt lat="44.40011" lon="5.97405">
        <ele>560</ele>
        <time>2019-04-09T12:59:47Z</time>
      </trkpt>
      <trkpt lat="44.40007" lon="5.97399">
        <ele>560</ele>
        <time>2019-04-09T12:59:48Z</time>
      </trkpt>
      <trkpt lat="44.40003" lon="5.97393">
        <ele>560</ele>
        <time>2019-04-09T12:59:49Z</time>
      </trkpt>
      <trkpt lat="44.39999" lon="5.97388">
        <ele>560</ele>
        <time>2019-04-09T12:59:50Z</time>
      </trkpt>
      <trkpt lat="44.39996" lon="5.97383">
        <ele>560</ele>
        <time>2019-04-09T12:59:51Z</time>
      </trkpt>
      <trkpt lat="44.39992" lon="5.97378">
        <ele>560</ele>
        <time>2019-04-09T12:59:52Z</time>
      </trkpt>
      <trkpt lat="44.39988" lon="5.97373">
        <ele>560</ele>
        <time>2019-04-09T12:59:53Z</time>
      </trkpt>
      <trkpt lat="44.39984" lon="5.97368">
        <ele>560</ele>
        <time>2019-04-09T12:59:54Z</time>
      </trkpt>
      <trkpt lat="44.3998" lon="5.97364">
        <ele>560</ele>
        <time>2019-04-09T12:59:55Z</time>
      </trkpt>
      <trkpt lat="44.39977" lon="5.9736">
        <ele>560</ele>
        <time>2019-04-09T12:59:56Z</time>
      </trkpt>
      <trkpt lat="44.39973" lon="5.97356">
        <ele>560</ele>
        <time>2019-04-09T12:59:57Z</time>
      </trkpt>
      <trkpt lat="44.39969" lon="5.97353">
        <ele>560</ele>
        <time>2019-04-09T12:59:58Z</time>
      </trkpt>
      <trkpt lat="44.39964" lon="5.97351">
        <ele>561</ele>
        <time>2019-04-09T12:59:59Z</time>
      </trkpt>
      <trkpt lat="44.3996" lon="5.97348">
        <ele>561</ele>
        <time>2019-04-09T13:00:00Z</time>
      </trkpt>
      <trkpt lat="44.39956" lon="5.97346">
        <ele>562</ele>
        <time>2019-04-09T13:00:01Z</time>
      </trkpt>
      <trkpt lat="44.39951" lon="5.97343">
        <ele>563</ele>
        <time>2019-04-09T13:00:02Z</time>
      </trkpt>
      <trkpt lat="44.39947" lon="5.9734">
        <ele>563</ele>
        <time>2019-04-09T13:00:03Z</time>
      </trkpt>
      <trkpt lat="44.39944" lon="5.97337">
        <ele>563</ele>
        <time>2019-04-09T13:00:04Z</time>
      </trkpt>
      <trkpt lat="44.3994" lon="5.97334">
        <ele>564</ele>
        <time>2019-04-09T13:00:05Z</time>
      </trkpt>
      <trkpt lat="44.39937" lon="5.9733">
        <ele>564</ele>
        <time>2019-04-09T13:00:06Z</time>
      </trkpt>
      <trkpt lat="44.39933" lon="5.97326">
        <ele>564</ele>
        <time>2019-04-09T13:00:07Z</time>
      </trkpt>
      <trkpt lat="44.3993" lon="5.97322">
        <ele>564</ele>
        <time>2019-04-09T13:00:08Z</time>
      </trkpt>
      <trkpt lat="44.39927" lon="5.97318">
        <ele>564</ele>
        <time>2019-04-09T13:00:09Z</time>
      </trkpt>
      <trkpt lat="44.39923" lon="5.97314">
        <ele>564</ele>
        <time>2019-04-09T13:00:10Z</time>
      </trkpt>
      <trkpt lat="44.3992" lon="5.97309">
        <ele>564</ele>
        <time>2019-04-09T13:00:11Z</time>
      </trkpt>
      <trkpt lat="44.39917" lon="5.97305">
        <ele>564</ele>
        <time>2019-04-09T13:00:12Z</time>
      </trkpt>
      <trkpt lat="44.39913" lon="5.973">
        <ele>564</ele>
        <time>2019-04-09T13:00:13Z</time>
      </trkpt>
      <trkpt lat="44.3991" lon="5.97295">
        <ele>564</ele>
        <time>2019-04-09T13:00:14Z</time>
      </trkpt>
      <trkpt lat="44.39906" lon="5.9729">
        <ele>564</ele>
        <time>2019-04-09T13:00:15Z</time>
      </trkpt>
      <trkpt lat="44.39903" lon="5.97285">
        <ele>564</ele>
        <time>2019-04-09T13:00:16Z</time>
      </trkpt>
      <trkpt lat="44.39899" lon="5.9728">
        <ele>564</ele>
        <time>2019-04-09T13:00:17Z</time>
      </trkpt>
      <trkpt lat="44.39896" lon="5.97276">
        <ele>564</ele>
        <time>2019-04-09T13:00:18Z</time>
      </trkpt>
      <trkpt lat="44.39892" lon="5.97271">
        <ele>564</ele>
        <time>2019-04-09T13:00:19Z</time>
      </trkpt>
      <trkpt lat="44.39888" lon="5.97266">
        <ele>564</ele>
        <time>2019-04-09T13:00:20Z</time>
      </trkpt>
      <trkpt lat="44.39884" lon="5.97262">
        <ele>564</ele>
        <time>2019-04-09T13:00:21Z</time>
      </trkpt>
      <trkpt lat="44.3988" lon="5.97258">
        <ele>564</ele>
        <time>2019-04-09T13:00:22Z</time>
      </trkpt>
      <trkpt lat="44.39876" lon="5.97255">
        <ele>564</ele>
        <time>2019-04-09T13:00:23Z</time>
      </trkpt>
      <trkpt lat="44.39872" lon="5.97251">
        <ele>564</ele>
        <time>2019-04-09T13:00:24Z</time>
      </trkpt>
      <trkpt lat="44.39867" lon="5.97247">
        <ele>564</ele>
        <time>2019-04-09T13:00:25Z</time>
      </trkpt>
      <trkpt lat="44.39863" lon="5.97243">
        <ele>564</ele>
        <time>2019-04-09T13:00:26Z</time>
      </trkpt>
      <trkpt lat="44.39859" lon="5.97239">
        <ele>564</ele>
        <time>2019-04-09T13:00:27Z</time>
      </trkpt>
      <trkpt lat="44.39854" lon="5.97234">
        <ele>564</ele>
        <time>2019-04-09T13:00:28Z</time>
      </trkpt>
      <trkpt lat="44.39849" lon="5.9723">
        <ele>564</ele>
        <time>2019-04-09T13:00:29Z</time>
      </trkpt>
      <trkpt lat="44.39845" lon="5.97225">
        <ele>564</ele>
        <time>2019-04-09T13:00:30Z</time>
      </trkpt>
      <trkpt lat="44.39841" lon="5.9722">
        <ele>564</ele>
        <time>2019-04-09T13:00:31Z</time>
      </trkpt>
      <trkpt lat="44.39837" lon="5.97215">
        <ele>564</ele>
        <time>2019-04-09T13:00:32Z</time>
      </trkpt>
      <trkpt lat="44.39833" lon="5.9721">
        <ele>564</ele>
        <time>2019-04-09T13:00:33Z</time>
      </trkpt>
      <trkpt lat="44.39829" lon="5.97204">
        <ele>564</ele>
        <time>2019-04-09T13:00:34Z</time>
      </trkpt>
      <trkpt lat="44.39826" lon="5.97199">
        <ele>564</ele>
        <time>2019-04-09T13:00:35Z</time>
      </trkpt>
      <trkpt lat="44.39822" lon="5.97194">
        <ele>564</ele>
        <time>2019-04-09T13:00:36Z</time>
      </trkpt>
      <trkpt lat="44.39819" lon="5.97189">
        <ele>564</ele>
        <time>2019-04-09T13:00:37Z</time>
      </trkpt>
      <trkpt lat="44.39817" lon="5.97183">
        <ele>564</ele>
        <time>2019-04-09T13:00:38Z</time>
      </trkpt>
      <trkpt lat="44.39814" lon="5.97178">
        <ele>564</ele>
        <time>2019-04-09T13:00:39Z</time>
      </trkpt>
      <trkpt lat="44.39811" lon="5.97173">
        <ele>564</ele>
        <time>2019-04-09T13:00:40Z</time>
      </trkpt>
      <trkpt lat="44.39809" lon="5.97168">
        <ele>564</ele>
        <time>2019-04-09T13:00:41Z</time>
      </trkpt>
      <trkpt lat="44.39806" lon="5.97162">
        <ele>564</ele>
        <time>2019-04-09T13:00:42Z</time>
      </trkpt>
      <trkpt lat="44.39804" lon="5.97157">
        <ele>564</ele>
        <time>2019-04-09T13:00:43Z</time>
      </trkpt>
      <trkpt lat="44.39802" lon="5.97152">
        <ele>564</ele>
        <time>2019-04-09T13:00:44Z</time>
      </trkpt>
      <trkpt lat="44.398" lon="5.97146">
        <ele>564</ele>
        <time>2019-04-09T13:00:45Z</time>
      </trkpt>
      <trkpt lat="44.39798" lon="5.97141">
        <ele>564</ele>
        <time>2019-04-09T13:00:46Z</time>
      </trkpt>
      <trkpt lat="44.39796" lon="5.97135">
        <ele>564</ele>
        <time>2019-04-09T13:00:47Z</time>
      </trkpt>
      <trkpt lat="44.39794" lon="5.97129">
        <ele>565</ele>
        <time>2019-04-09T13:00:48Z</time>
      </trkpt>
      <trkpt lat="44.39792" lon="5.97123">
        <ele>565</ele>
        <time>2019-04-09T13:00:49Z</time>
      </trkpt>
      <trkpt lat="44.3979" lon="5.97117">
        <ele>565</ele>
        <time>2019-04-09T13:00:50Z</time>
      </trkpt>
      <trkpt lat="44.39788" lon="5.97111">
        <ele>565</ele>
        <time>2019-04-09T13:00:51Z</time>
      </trkpt>
      <trkpt lat="44.39785" lon="5.97105">
        <ele>565</ele>
        <time>2019-04-09T13:00:52Z</time>
      </trkpt>
      <trkpt lat="44.39783" lon="5.97099">
        <ele>565</ele>
        <time>2019-04-09T13:00:53Z</time>
      </trkpt>
      <trkpt lat="44.39782" lon="5.97094">
        <ele>565</ele>
        <time>2019-04-09T13:00:54Z</time>
      </trkpt>
      <trkpt lat="44.3978" lon="5.97088">
        <ele>565</ele>
        <time>2019-04-09T13:00:55Z</time>
      </trkpt>
      <trkpt lat="44.39778" lon="5.97083">
        <ele>565</ele>
        <time>2019-04-09T13:00:56Z</time>
      </trkpt>
      <trkpt lat="44.39776" lon="5.97077">
        <ele>566</ele>
        <time>2019-04-09T13:00:57Z</time>
      </trkpt>
      <trkpt lat="44.39774" lon="5.97071">
        <ele>566</ele>
        <time>2019-04-09T13:00:58Z</time>
      </trkpt>
      <trkpt lat="44.39772" lon="5.97066">
        <ele>566</ele>
        <time>2019-04-09T13:00:59Z</time>
      </trkpt>
      <trkpt lat="44.3977" lon="5.97061">
        <ele>566</ele>
        <time>2019-04-09T13:01:00Z</time>
      </trkpt>
      <trkpt lat="44.39768" lon="5.97056">
        <ele>566</ele>
        <time>2019-04-09T13:01:01Z</time>
      </trkpt>
      <trkpt lat="44.39766" lon="5.97051">
        <ele>566</ele>
        <time>2019-04-09T13:01:02Z</time>
      </trkpt>
      <trkpt lat="44.39765" lon="5.97047">
        <ele>567</ele>
        <time>2019-04-09T13:01:03Z</time>
      </trkpt>
      <trkpt lat="44.39763" lon="5.97042">
        <ele>567</ele>
        <time>2019-04-09T13:01:04Z</time>
      </trkpt>
      <trkpt lat="44.39761" lon="5.97037">
        <ele>567</ele>
        <time>2019-04-09T13:01:05Z</time>
      </trkpt>
      <trkpt lat="44.39759" lon="5.97032">
        <ele>567</ele>
        <time>2019-04-09T13:01:06Z</time>
      </trkpt>
      <trkpt lat="44.39758" lon="5.97027">
        <ele>567</ele>
        <time>2019-04-09T13:01:07Z</time>
      </trkpt>
      <trkpt lat="44.39756" lon="5.97022">
        <ele>567</ele>
        <time>2019-04-09T13:01:08Z</time>
      </trkpt>
      <trkpt lat="44.39754" lon="5.97017">
        <ele>567</ele>
        <time>2019-04-09T13:01:09Z</time>
      </trkpt>
      <trkpt lat="44.39751" lon="5.97012">
        <ele>567</ele>
        <time>2019-04-09T13:01:10Z</time>
      </trkpt>
      <trkpt lat="44.3975" lon="5.97007">
        <ele>567</ele>
        <time>2019-04-09T13:01:11Z</time>
      </trkpt>
      <trkpt lat="44.39747" lon="5.97002">
        <ele>567</ele>
        <time>2019-04-09T13:01:12Z</time>
      </trkpt>
      <trkpt lat="44.39745" lon="5.96997">
        <ele>567</ele>
        <time>2019-04-09T13:01:13Z</time>
      </trkpt>
      <trkpt lat="44.39743" lon="5.96992">
        <ele>568</ele>
        <time>2019-04-09T13:01:14Z</time>
      </trkpt>
      <trkpt lat="44.39741" lon="5.96987">
        <ele>568</ele>
        <time>2019-04-09T13:01:15Z</time>
      </trkpt>
      <trkpt lat="44.39739" lon="5.96982">
        <ele>568</ele>
        <time>2019-04-09T13:01:16Z</time>
      </trkpt>
      <trkpt lat="44.39737" lon="5.96977">
        <ele>568</ele>
        <time>2019-04-09T13:01:17Z</time>
      </trkpt>
      <trkpt lat="44.39735" lon="5.96972">
        <ele>568</ele>
        <time>2019-04-09T13:01:18Z</time>
      </trkpt>
      <trkpt lat="44.39733" lon="5.96967">
        <ele>568</ele>
        <time>2019-04-09T13:01:19Z</time>
      </trkpt>
      <trkpt lat="44.39731" lon="5.96963">
        <ele>568</ele>
        <time>2019-04-09T13:01:20Z</time>
      </trkpt>
      <trkpt lat="44.39729" lon="5.96958">
        <ele>568</ele>
        <time>2019-04-09T13:01:21Z</time>
      </trkpt>
      <trkpt lat="44.39727" lon="5.96953">
        <ele>568</ele>
        <time>2019-04-09T13:01:22Z</time>
      </trkpt>
      <trkpt lat="44.39724" lon="5.96949">
        <ele>569</ele>
        <time>2019-04-09T13:01:23Z</time>
      </trkpt>
      <trkpt lat="44.39722" lon="5.96945">
        <ele>569</ele>
        <time>2019-04-09T13:01:24Z</time>
      </trkpt>
      <trkpt lat="44.3972" lon="5.96941">
        <ele>569</ele>
        <time>2019-04-09T13:01:25Z</time>
      </trkpt>
      <trkpt lat="44.39717" lon="5.96937">
        <ele>569</ele>
        <time>2019-04-09T13:01:26Z</time>
      </trkpt>
      <trkpt lat="44.39715" lon="5.96932">
        <ele>569</ele>
        <time>2019-04-09T13:01:27Z</time>
      </trkpt>
      <trkpt lat="44.39712" lon="5.96927">
        <ele>569</ele>
        <time>2019-04-09T13:01:28Z</time>
      </trkpt>
      <trkpt lat="44.3971" lon="5.96922">
        <ele>570</ele>
        <time>2019-04-09T13:01:29Z</time>
      </trkpt>
      <trkpt lat="44.39707" lon="5.96918">
        <ele>570</ele>
        <time>2019-04-09T13:01:30Z</time>
      </trkpt>
      <trkpt lat="44.39704" lon="5.96913">
        <ele>570</ele>
        <time>2019-04-09T13:01:31Z</time>
      </trkpt>
      <trkpt lat="44.39701" lon="5.96908">
        <ele>570</ele>
        <time>2019-04-09T13:01:32Z</time>
      </trkpt>
      <trkpt lat="44.39699" lon="5.96902">
        <ele>570</ele>
        <time>2019-04-09T13:01:33Z</time>
      </trkpt>
      <trkpt lat="44.39696" lon="5.96897">
        <ele>570</ele>
        <time>2019-04-09T13:01:34Z</time>
      </trkpt>
      <trkpt lat="44.39693" lon="5.96892">
        <ele>570</ele>
        <time>2019-04-09T13:01:35Z</time>
      </trkpt>
      <trkpt lat="44.39689" lon="5.96886">
        <ele>570</ele>
        <time>2019-04-09T13:01:36Z</time>
      </trkpt>
      <trkpt lat="44.39685" lon="5.96881">
        <ele>571</ele>
        <time>2019-04-09T13:01:37Z</time>
      </trkpt>
      <trkpt lat="44.39682" lon="5.96876">
        <ele>571</ele>
        <time>2019-04-09T13:01:38Z</time>
      </trkpt>
      <trkpt lat="44.39678" lon="5.96871">
        <ele>571</ele>
        <time>2019-04-09T13:01:39Z</time>
      </trkpt>
      <trkpt lat="44.39674" lon="5.96865">
        <ele>571</ele>
        <time>2019-04-09T13:01:40Z</time>
      </trkpt>
      <trkpt lat="44.3967" lon="5.9686">
        <ele>571</ele>
        <time>2019-04-09T13:01:41Z</time>
      </trkpt>
      <trkpt lat="44.39666" lon="5.96854">
        <ele>571</ele>
        <time>2019-04-09T13:01:42Z</time>
      </trkpt>
      <trkpt lat="44.39661" lon="5.96848">
        <ele>571</ele>
        <time>2019-04-09T13:01:43Z</time>
      </trkpt>
      <trkpt lat="44.39657" lon="5.96842">
        <ele>571</ele>
        <time>2019-04-09T13:01:44Z</time>
      </trkpt>
      <trkpt lat="44.39653" lon="5.96836">
        <ele>571</ele>
        <time>2019-04-09T13:01:45Z</time>
      </trkpt>
      <trkpt lat="44.39648" lon="5.96831">
        <ele>571</ele>
        <time>2019-04-09T13:01:46Z</time>
      </trkpt>
      <trkpt lat="44.39643" lon="5.96825">
        <ele>571</ele>
        <time>2019-04-09T13:01:47Z</time>
      </trkpt>
      <trkpt lat="44.39638" lon="5.96819">
        <ele>571</ele>
        <time>2019-04-09T13:01:48Z</time>
      </trkpt>
      <trkpt lat="44.39633" lon="5.96813">
        <ele>571</ele>
        <time>2019-04-09T13:01:49Z</time>
      </trkpt>
      <trkpt lat="44.39627" lon="5.96808">
        <ele>571</ele>
        <time>2019-04-09T13:01:50Z</time>
      </trkpt>
      <trkpt lat="44.39622" lon="5.96803">
        <ele>571</ele>
        <time>2019-04-09T13:01:51Z</time>
      </trkpt>
      <trkpt lat="44.39616" lon="5.96798">
        <ele>571</ele>
        <time>2019-04-09T13:01:52Z</time>
      </trkpt>
      <trkpt lat="44.3961" lon="5.96793">
        <ele>571</ele>
        <time>2019-04-09T13:01:53Z</time>
      </trkpt>
      <trkpt lat="44.39605" lon="5.96788">
        <ele>571</ele>
        <time>2019-04-09T13:01:54Z</time>
      </trkpt>
      <trkpt lat="44.39599" lon="5.96783">
        <ele>571</ele>
        <time>2019-04-09T13:01:55Z</time>
      </trkpt>
      <trkpt lat="44.39593" lon="5.96778">
        <ele>571</ele>
        <time>2019-04-09T13:01:56Z</time>
      </trkpt>
      <trkpt lat="44.39587" lon="5.96773">
        <ele>571</ele>
        <time>2019-04-09T13:01:57Z</time>
      </trkpt>
      <trkpt lat="44.39582" lon="5.9677">
        <ele>571</ele>
        <time>2019-04-09T13:01:58Z</time>
      </trkpt>
      <trkpt lat="44.39575" lon="5.96766">
        <ele>571</ele>
        <time>2019-04-09T13:01:59Z</time>
      </trkpt>
      <trkpt lat="44.39569" lon="5.96764">
        <ele>571</ele>
        <time>2019-04-09T13:02:00Z</time>
      </trkpt>
      <trkpt lat="44.39563" lon="5.96762">
        <ele>571</ele>
        <time>2019-04-09T13:02:01Z</time>
      </trkpt>
      <trkpt lat="44.39556" lon="5.96762">
        <ele>571</ele>
        <time>2019-04-09T13:02:02Z</time>
      </trkpt>
      <trkpt lat="44.39549" lon="5.96762">
        <ele>571</ele>
        <time>2019-04-09T13:02:03Z</time>
      </trkpt>
      <trkpt lat="44.39542" lon="5.96763">
        <ele>571</ele>
        <time>2019-04-09T13:02:04Z</time>
      </trkpt>
      <trkpt lat="44.39536" lon="5.96764">
        <ele>571</ele>
        <time>2019-04-09T13:02:05Z</time>
      </trkpt>
      <trkpt lat="44.39529" lon="5.96765">
        <ele>571</ele>
        <time>2019-04-09T13:02:06Z</time>
      </trkpt>
      <trkpt lat="44.39523" lon="5.96766">
        <ele>571</ele>
        <time>2019-04-09T13:02:07Z</time>
      </trkpt>
      <trkpt lat="44.39517" lon="5.96766">
        <ele>571</ele>
        <time>2019-04-09T13:02:08Z</time>
      </trkpt>
      <trkpt lat="44.3951" lon="5.96764">
        <ele>571</ele>
        <time>2019-04-09T13:02:09Z</time>
      </trkpt>
      <trkpt lat="44.39505" lon="5.96761">
        <ele>571</ele>
        <time>2019-04-09T13:02:10Z</time>
      </trkpt>
      <trkpt lat="44.39499" lon="5.96756">
        <ele>571</ele>
        <time>2019-04-09T13:02:11Z</time>
      </trkpt>
      <trkpt lat="44.39494" lon="5.96749">
        <ele>571</ele>
        <time>2019-04-09T13:02:12Z</time>
      </trkpt>
      <trkpt lat="44.3949" lon="5.96742">
        <ele>571</ele>
        <time>2019-04-09T13:02:13Z</time>
      </trkpt>
      <trkpt lat="44.39486" lon="5.96734">
        <ele>571</ele>
        <time>2019-04-09T13:02:14Z</time>
      </trkpt>
      <trkpt lat="44.39483" lon="5.96726">
        <ele>571</ele>
        <time>2019-04-09T13:02:15Z</time>
      </trkpt>
      <trkpt lat="44.39479" lon="5.96717">
        <ele>571</ele>
        <time>2019-04-09T13:02:16Z</time>
      </trkpt>
      <trkpt lat="44.39476" lon="5.96708">
        <ele>571</ele>
        <time>2019-04-09T13:02:17Z</time>
      </trkpt>
      <trkpt lat="44.39472" lon="5.96699">
        <ele>570</ele>
        <time>2019-04-09T13:02:18Z</time>
      </trkpt>
      <trkpt lat="44.39468" lon="5.96689">
        <ele>570</ele>
        <time>2019-04-09T13:02:19Z</time>
      </trkpt>
      <trkpt lat="44.39465" lon="5.96679">
        <ele>569</ele>
        <time>2019-04-09T13:02:20Z</time>
      </trkpt>
      <trkpt lat="44.3946" lon="5.9667">
        <ele>569</ele>
        <time>2019-04-09T13:02:21Z</time>
      </trkpt>
      <trkpt lat="44.39456" lon="5.9666">
        <ele>568</ele>
        <time>2019-04-09T13:02:22Z</time>
      </trkpt>
      <trkpt lat="44.39452" lon="5.9665">
        <ele>568</ele>
        <time>2019-04-09T13:02:23Z</time>
      </trkpt>
      <trkpt lat="44.39448" lon="5.96639">
        <ele>567</ele>
        <time>2019-04-09T13:02:24Z</time>
      </trkpt>
      <trkpt lat="44.39444" lon="5.96629">
        <ele>567</ele>
        <time>2019-04-09T13:02:25Z</time>
      </trkpt>
      <trkpt lat="44.39439" lon="5.96619">
        <ele>566</ele>
        <time>2019-04-09T13:02:26Z</time>
      </trkpt>
      <trkpt lat="44.39435" lon="5.96608">
        <ele>566</ele>
        <time>2019-04-09T13:02:27Z</time>
      </trkpt>
      <trkpt lat="44.39431" lon="5.96596">
        <ele>565</ele>
        <time>2019-04-09T13:02:28Z</time>
      </trkpt>
      <trkpt lat="44.39426" lon="5.96585">
        <ele>564</ele>
        <time>2019-04-09T13:02:29Z</time>
      </trkpt>
      <trkpt lat="44.39421" lon="5.96573">
        <ele>564</ele>
        <time>2019-04-09T13:02:30Z</time>
      </trkpt>
      <trkpt lat="44.39416" lon="5.96562">
        <ele>563</ele>
        <time>2019-04-09T13:02:31Z</time>
      </trkpt>
      <trkpt lat="44.39411" lon="5.9655">
        <ele>562</ele>
        <time>2019-04-09T13:02:32Z</time>
      </trkpt>
      <trkpt lat="44.39405" lon="5.96538">
        <ele>562</ele>
        <time>2019-04-09T13:02:33Z</time>
      </trkpt>
      <trkpt lat="44.394" lon="5.96526">
        <ele>561</ele>
        <time>2019-04-09T13:02:34Z</time>
      </trkpt>
      <trkpt lat="44.39394" lon="5.96515">
        <ele>561</ele>
        <time>2019-04-09T13:02:35Z</time>
      </trkpt>
      <trkpt lat="44.39388" lon="5.96504">
        <ele>561</ele>
        <time>2019-04-09T13:02:36Z</time>
      </trkpt>
      <trkpt lat="44.39383" lon="5.96493">
        <ele>560</ele>
        <time>2019-04-09T13:02:37Z</time>
      </trkpt>
      <trkpt lat="44.39377" lon="5.96483">
        <ele>560</ele>
        <time>2019-04-09T13:02:38Z</time>
      </trkpt>
      <trkpt lat="44.39371" lon="5.96474">
        <ele>560</ele>
        <time>2019-04-09T13:02:39Z</time>
      </trkpt>
      <trkpt lat="44.39365" lon="5.96464">
        <ele>559</ele>
        <time>2019-04-09T13:02:40Z</time>
      </trkpt>
      <trkpt lat="44.39359" lon="5.96454">
        <ele>559</ele>
        <time>2019-04-09T13:02:41Z</time>
      </trkpt>
      <trkpt lat="44.39353" lon="5.96444">
        <ele>559</ele>
        <time>2019-04-09T13:02:42Z</time>
      </trkpt>
      <trkpt lat="44.39346" lon="5.96434">
        <ele>559</ele>
        <time>2019-04-09T13:02:43Z</time>
      </trkpt>
      <trkpt lat="44.39341" lon="5.96425">
        <ele>558</ele>
        <time>2019-04-09T13:02:44Z</time>
      </trkpt>
      <trkpt lat="44.39335" lon="5.96416">
        <ele>558</ele>
        <time>2019-04-09T13:02:45Z</time>
      </trkpt>
      <trkpt lat="44.39329" lon="5.96407">
        <ele>558</ele>
        <time>2019-04-09T13:02:46Z</time>
      </trkpt>
      <trkpt lat="44.39323" lon="5.96398">
        <ele>558</ele>
        <time>2019-04-09T13:02:47Z</time>
      </trkpt>
      <trkpt lat="44.39318" lon="5.96389">
        <ele>557</ele>
        <time>2019-04-09T13:02:48Z</time>
      </trkpt>
      <trkpt lat="44.39312" lon="5.96381">
        <ele>557</ele>
        <time>2019-04-09T13:02:49Z</time>
      </trkpt>
      <trkpt lat="44.39307" lon="5.96372">
        <ele>557</ele>
        <time>2019-04-09T13:02:50Z</time>
      </trkpt>
      <trkpt lat="44.39301" lon="5.96364">
        <ele>557</ele>
        <time>2019-04-09T13:02:51Z</time>
      </trkpt>
      <trkpt lat="44.39296" lon="5.96355">
        <ele>556</ele>
        <time>2019-04-09T13:02:52Z</time>
      </trkpt>
      <trkpt lat="44.39291" lon="5.96347">
        <ele>556</ele>
        <time>2019-04-09T13:02:53Z</time>
      </trkpt>
      <trkpt lat="44.39286" lon="5.96339">
        <ele>556</ele>
        <time>2019-04-09T13:02:54Z</time>
      </trkpt>
      <trkpt lat="44.39281" lon="5.9633">
        <ele>556</ele>
        <time>2019-04-09T13:02:55Z</time>
      </trkpt>
      <trkpt lat="44.39276" lon="5.96322">
        <ele>556</ele>
        <time>2019-04-09T13:02:56Z</time>
      </trkpt>
      <trkpt lat="44.39271" lon="5.96313">
        <ele>555</ele>
        <time>2019-04-09T13:02:57Z</time>
      </trkpt>
      <trkpt lat="44.39267" lon="5.96305">
        <ele>555</ele>
        <time>2019-04-09T13:02:58Z</time>
      </trkpt>
      <trkpt lat="44.39262" lon="5.96297">
        <ele>555</ele>
        <time>2019-04-09T13:02:59Z</time>
      </trkpt>
      <trkpt lat="44.39257" lon="5.96289">
        <ele>555</ele>
        <time>2019-04-09T13:03:00Z</time>
      </trkpt>
      <trkpt lat="44.39252" lon="5.96281">
        <ele>555</ele>
        <time>2019-04-09T13:03:01Z</time>
      </trkpt>
      <trkpt lat="44.39247" lon="5.96274">
        <ele>555</ele>
        <time>2019-04-09T13:03:02Z</time>
      </trkpt>
      <trkpt lat="44.39241" lon="5.96266">
        <ele>555</ele>
        <time>2019-04-09T13:03:03Z</time>
      </trkpt>
      <trkpt lat="44.39236" lon="5.96258">
        <ele>554</ele>
        <time>2019-04-09T13:03:04Z</time>
      </trkpt>
      <trkpt lat="44.3923" lon="5.96251">
        <ele>554</ele>
        <time>2019-04-09T13:03:05Z</time>
      </trkpt>
      <trkpt lat="44.39224" lon="5.96244">
        <ele>554</ele>
        <time>2019-04-09T13:03:06Z</time>
      </trkpt>
      <trkpt lat="44.39217" lon="5.96238">
        <ele>554</ele>
        <time>2019-04-09T13:03:07Z</time>
      </trkpt>
      <trkpt lat="44.39211" lon="5.96231">
        <ele>554</ele>
        <time>2019-04-09T13:03:08Z</time>
      </trkpt>
      <trkpt lat="44.39205" lon="5.96224">
        <ele>554</ele>
        <time>2019-04-09T13:03:09Z</time>
      </trkpt>
      <trkpt lat="44.39199" lon="5.96218">
        <ele>554</ele>
        <time>2019-04-09T13:03:10Z</time>
      </trkpt>
      <trkpt lat="44.39193" lon="5.96211">
        <ele>554</ele>
        <time>2019-04-09T13:03:11Z</time>
      </trkpt>
      <trkpt lat="44.39186" lon="5.96205">
        <ele>554</ele>
        <time>2019-04-09T13:03:12Z</time>
      </trkpt>
      <trkpt lat="44.39179" lon="5.96198">
        <ele>553</ele>
        <time>2019-04-09T13:03:13Z</time>
      </trkpt>
      <trkpt lat="44.39173" lon="5.96192">
        <ele>553</ele>
        <time>2019-04-09T13:03:14Z</time>
      </trkpt>
      <trkpt lat="44.39166" lon="5.96185">
        <ele>553</ele>
        <time>2019-04-09T13:03:15Z</time>
      </trkpt>
      <trkpt lat="44.3916" lon="5.96178">
        <ele>553</ele>
        <time>2019-04-09T13:03:16Z</time>
      </trkpt>
      <trkpt lat="44.39154" lon="5.96172">
        <ele>553</ele>
        <time>2019-04-09T13:03:17Z</time>
      </trkpt>
      <trkpt lat="44.39148" lon="5.96165">
        <ele>553</ele>
        <time>2019-04-09T13:03:18Z</time>
      </trkpt>
      <trkpt lat="44.39141" lon="5.96159">
        <ele>553</ele>
        <time>2019-04-09T13:03:19Z</time>
      </trkpt>
      <trkpt lat="44.39135" lon="5.96152">
        <ele>553</ele>
        <time>2019-04-09T13:03:20Z</time>
      </trkpt>
      <trkpt lat="44.39129" lon="5.96146">
        <ele>553</ele>
        <time>2019-04-09T13:03:21Z</time>
      </trkpt>
      <trkpt lat="44.39123" lon="5.9614">
        <ele>553</ele>
        <time>2019-04-09T13:03:22Z</time>
      </trkpt>
      <trkpt lat="44.39117" lon="5.96134">
        <ele>553</ele>
        <time>2019-04-09T13:03:23Z</time>
      </trkpt>
      <trkpt lat="44.39111" lon="5.96129">
        <ele>553</ele>
        <time>2019-04-09T13:03:24Z</time>
      </trkpt>
      <trkpt lat="44.39106" lon="5.96124">
        <ele>553</ele>
        <time>2019-04-09T13:03:25Z</time>
      </trkpt>
      <trkpt lat="44.39101" lon="5.96118">
        <ele>553</ele>
        <time>2019-04-09T13:03:26Z</time>
      </trkpt>
      <trkpt lat="44.39096" lon="5.96113">
        <ele>553</ele>
        <time>2019-04-09T13:03:27Z</time>
      </trkpt>
      <trkpt lat="44.39091" lon="5.96108">
        <ele>553</ele>
        <time>2019-04-09T13:03:28Z</time>
      </trkpt>
      <trkpt lat="44.39086" lon="5.96103">
        <ele>553</ele>
        <time>2019-04-09T13:03:29Z</time>
      </trkpt>
      <trkpt lat="44.39081" lon="5.96097">
        <ele>553</ele>
        <time>2019-04-09T13:03:30Z</time>
      </trkpt>
      <trkpt lat="44.39077" lon="5.96092">
        <ele>553</ele>
        <time>2019-04-09T13:03:31Z</time>
      </trkpt>
      <trkpt lat="44.39072" lon="5.96086">
        <ele>553</ele>
        <time>2019-04-09T13:03:32Z</time>
      </trkpt>
      <trkpt lat="44.39067" lon="5.9608">
        <ele>553</ele>
        <time>2019-04-09T13:03:33Z</time>
      </trkpt>
      <trkpt lat="44.39062" lon="5.96073">
        <ele>553</ele>
        <time>2019-04-09T13:03:34Z</time>
      </trkpt>
      <trkpt lat="44.39058" lon="5.96066">
        <ele>553</ele>
        <time>2019-04-09T13:03:35Z</time>
      </trkpt>
      <trkpt lat="44.39054" lon="5.96058">
        <ele>553</ele>
        <time>2019-04-09T13:03:36Z</time>
      </trkpt>
      <trkpt lat="44.3905" lon="5.9605">
        <ele>553</ele>
        <time>2019-04-09T13:03:37Z</time>
      </trkpt>
      <trkpt lat="44.39046" lon="5.96042">
        <ele>553</ele>
        <time>2019-04-09T13:03:38Z</time>
      </trkpt>
      <trkpt lat="44.39043" lon="5.96034">
        <ele>553</ele>
        <time>2019-04-09T13:03:39Z</time>
      </trkpt>
      <trkpt lat="44.39039" lon="5.96026">
        <ele>553</ele>
        <time>2019-04-09T13:03:40Z</time>
      </trkpt>
      <trkpt lat="44.39036" lon="5.96018">
        <ele>553</ele>
        <time>2019-04-09T13:03:41Z</time>
      </trkpt>
      <trkpt lat="44.39032" lon="5.9601">
        <ele>553</ele>
        <time>2019-04-09T13:03:42Z</time>
      </trkpt>
      <trkpt lat="44.39029" lon="5.96002">
        <ele>553</ele>
        <time>2019-04-09T13:03:43Z</time>
      </trkpt>
      <trkpt lat="44.39025" lon="5.95994">
        <ele>553</ele>
        <time>2019-04-09T13:03:44Z</time>
      </trkpt>
      <trkpt lat="44.39021" lon="5.95986">
        <ele>553</ele>
        <time>2019-04-09T13:03:45Z</time>
      </trkpt>
      <trkpt lat="44.39016" lon="5.95977">
        <ele>553</ele>
        <time>2019-04-09T13:03:46Z</time>
      </trkpt>
      <trkpt lat="44.39012" lon="5.95969">
        <ele>553</ele>
        <time>2019-04-09T13:03:47Z</time>
      </trkpt>
      <trkpt lat="44.39007" lon="5.9596">
        <ele>553</ele>
        <time>2019-04-09T13:03:48Z</time>
      </trkpt>
      <trkpt lat="44.39001" lon="5.95952">
        <ele>553</ele>
        <time>2019-04-09T13:03:49Z</time>
      </trkpt>
      <trkpt lat="44.38996" lon="5.95943">
        <ele>553</ele>
        <time>2019-04-09T13:03:50Z</time>
      </trkpt>
      <trkpt lat="44.3899" lon="5.95934">
        <ele>553</ele>
        <time>2019-04-09T13:03:51Z</time>
      </trkpt>
      <trkpt lat="44.38984" lon="5.95924">
        <ele>553</ele>
        <time>2019-04-09T13:03:52Z</time>
      </trkpt>
      <trkpt lat="44.38977" lon="5.95915">
        <ele>552</ele>
        <time>2019-04-09T13:03:53Z</time>
      </trkpt>
      <trkpt lat="44.38971" lon="5.95905">
        <ele>551</ele>
        <time>2019-04-09T13:03:54Z</time>
      </trkpt>
      <trkpt lat="44.38964" lon="5.95895">
        <ele>551</ele>
        <time>2019-04-09T13:03:55Z</time>
      </trkpt>
      <trkpt lat="44.38958" lon="5.95885">
        <ele>550</ele>
        <time>2019-04-09T13:03:56Z</time>
      </trkpt>
      <trkpt lat="44.38951" lon="5.95875">
        <ele>550</ele>
        <time>2019-04-09T13:03:57Z</time>
      </trkpt>
      <trkpt lat="44.38944" lon="5.95864">
        <ele>549</ele>
        <time>2019-04-09T13:03:58Z</time>
      </trkpt>
      <trkpt lat="44.38938" lon="5.95854">
        <ele>549</ele>
        <time>2019-04-09T13:03:59Z</time>
      </trkpt>
      <trkpt lat="44.38931" lon="5.95845">
        <ele>548</ele>
        <time>2019-04-09T13:04:00Z</time>
      </trkpt>
      <trkpt lat="44.38924" lon="5.95836">
        <ele>548</ele>
        <time>2019-04-09T13:04:01Z</time>
      </trkpt>
      <trkpt lat="44.38917" lon="5.95827">
        <ele>548</ele>
        <time>2019-04-09T13:04:02Z</time>
      </trkpt>
      <trkpt lat="44.3891" lon="5.9582">
        <ele>547</ele>
        <time>2019-04-09T13:04:03Z</time>
      </trkpt>
      <trkpt lat="44.38903" lon="5.95813">
        <ele>547</ele>
        <time>2019-04-09T13:04:04Z</time>
      </trkpt>
      <trkpt lat="44.38897" lon="5.95806">
        <ele>547</ele>
        <time>2019-04-09T13:04:05Z</time>
      </trkpt>
      <trkpt lat="44.3889" lon="5.958">
        <ele>547</ele>
        <time>2019-04-09T13:04:06Z</time>
      </trkpt>
      <trkpt lat="44.38883" lon="5.95794">
        <ele>547</ele>
        <time>2019-04-09T13:04:07Z</time>
      </trkpt>
      <trkpt lat="44.38876" lon="5.95788">
        <ele>547</ele>
        <time>2019-04-09T13:04:08Z</time>
      </trkpt>
      <trkpt lat="44.3887" lon="5.95782">
        <ele>547</ele>
        <time>2019-04-09T13:04:09Z</time>
      </trkpt>
      <trkpt lat="44.38864" lon="5.95777">
        <ele>547</ele>
        <time>2019-04-09T13:04:10Z</time>
      </trkpt>
      <trkpt lat="44.38858" lon="5.95771">
        <ele>547</ele>
        <time>2019-04-09T13:04:11Z</time>
      </trkpt>
      <trkpt lat="44.38852" lon="5.95765">
        <ele>547</ele>
        <time>2019-04-09T13:04:12Z</time>
      </trkpt>
      <trkpt lat="44.38846" lon="5.9576">
        <ele>547</ele>
        <time>2019-04-09T13:04:13Z</time>
      </trkpt>
      <trkpt lat="44.3884" lon="5.95754">
        <ele>547</ele>
        <time>2019-04-09T13:04:14Z</time>
      </trkpt>
      <trkpt lat="44.38834" lon="5.95749">
        <ele>547</ele>
        <time>2019-04-09T13:04:15Z</time>
      </trkpt>
      <trkpt lat="44.38828" lon="5.95744">
        <ele>547</ele>
        <time>2019-04-09T13:04:16Z</time>
      </trkpt>
      <trkpt lat="44.38823" lon="5.95739">
        <ele>547</ele>
        <time>2019-04-09T13:04:17Z</time>
      </trkpt>
      <trkpt lat="44.38817" lon="5.95735">
        <ele>547</ele>
        <time>2019-04-09T13:04:18Z</time>
      </trkpt>
      <trkpt lat="44.38811" lon="5.95731">
        <ele>547</ele>
        <time>2019-04-09T13:04:19Z</time>
      </trkpt>
      <trkpt lat="44.38805" lon="5.95727">
        <ele>547</ele>
        <time>2019-04-09T13:04:20Z</time>
      </trkpt>
      <trkpt lat="44.38799" lon="5.95723">
        <ele>547</ele>
        <time>2019-04-09T13:04:21Z</time>
      </trkpt>
      <trkpt lat="44.38794" lon="5.9572">
        <ele>547</ele>
        <time>2019-04-09T13:04:22Z</time>
      </trkpt>
      <trkpt lat="44.38788" lon="5.95716">
        <ele>547</ele>
        <time>2019-04-09T13:04:23Z</time>
      </trkpt>
      <trkpt lat="44.38782" lon="5.95713">
        <ele>547</ele>
        <time>2019-04-09T13:04:24Z</time>
      </trkpt>
      <trkpt lat="44.38776" lon="5.9571">
        <ele>547</ele>
        <time>2019-04-09T13:04:25Z</time>
      </trkpt>
      <trkpt lat="44.3877" lon="5.95707">
        <ele>547</ele>
        <time>2019-04-09T13:04:26Z</time>
      </trkpt>
      <trkpt lat="44.38764" lon="5.95704">
        <ele>547</ele>
        <time>2019-04-09T13:04:27Z</time>
      </trkpt>
      <trkpt lat="44.38758" lon="5.957">
        <ele>547</ele>
        <time>2019-04-09T13:04:28Z</time>
      </trkpt>
      <trkpt lat="44.38752" lon="5.95697">
        <ele>547</ele>
        <time>2019-04-09T13:04:29Z</time>
      </trkpt>
      <trkpt lat="44.38745" lon="5.95694">
        <ele>547</ele>
        <time>2019-04-09T13:04:30Z</time>
      </trkpt>
      <trkpt lat="44.38739" lon="5.9569">
        <ele>547</ele>
        <time>2019-04-09T13:04:31Z</time>
      </trkpt>
      <trkpt lat="44.38733" lon="5.95687">
        <ele>547</ele>
        <time>2019-04-09T13:04:32Z</time>
      </trkpt>
      <trkpt lat="44.38727" lon="5.95683">
        <ele>547</ele>
        <time>2019-04-09T13:04:33Z</time>
      </trkpt>
      <trkpt lat="44.38721" lon="5.9568">
        <ele>547</ele>
        <time>2019-04-09T13:04:34Z</time>
      </trkpt>
      <trkpt lat="44.38715" lon="5.95677">
        <ele>547</ele>
        <time>2019-04-09T13:04:35Z</time>
      </trkpt>
      <trkpt lat="44.38709" lon="5.95673">
        <ele>547</ele>
        <time>2019-04-09T13:04:36Z</time>
      </trkpt>
      <trkpt lat="44.38703" lon="5.9567">
        <ele>547</ele>
        <time>2019-04-09T13:04:37Z</time>
      </trkpt>
      <trkpt lat="44.38697" lon="5.95666">
        <ele>547</ele>
        <time>2019-04-09T13:04:38Z</time>
      </trkpt>
      <trkpt lat="44.38692" lon="5.95662">
        <ele>547</ele>
        <time>2019-04-09T13:04:39Z</time>
      </trkpt>
      <trkpt lat="44.38686" lon="5.95658">
        <ele>547</ele>
        <time>2019-04-09T13:04:40Z</time>
      </trkpt>
      <trkpt lat="44.38681" lon="5.95653">
        <ele>547</ele>
        <time>2019-04-09T13:04:41Z</time>
      </trkpt>
      <trkpt lat="44.38676" lon="5.95648">
        <ele>547</ele>
        <time>2019-04-09T13:04:42Z</time>
      </trkpt>
      <trkpt lat="44.38671" lon="5.95643">
        <ele>547</ele>
        <time>2019-04-09T13:04:43Z</time>
      </trkpt>
      <trkpt lat="44.38667" lon="5.95638">
        <ele>547</ele>
        <time>2019-04-09T13:04:44Z</time>
      </trkpt>
      <trkpt lat="44.38662" lon="5.95633">
        <ele>547</ele>
        <time>2019-04-09T13:04:45Z</time>
      </trkpt>
      <trkpt lat="44.38658" lon="5.95627">
        <ele>547</ele>
        <time>2019-04-09T13:04:46Z</time>
      </trkpt>
      <trkpt lat="44.38654" lon="5.95623">
        <ele>547</ele>
        <time>2019-04-09T13:04:47Z</time>
      </trkpt>
      <trkpt lat="44.38649" lon="5.95618">
        <ele>547</ele>
        <time>2019-04-09T13:04:48Z</time>
      </trkpt>
      <trkpt lat="44.38646" lon="5.95613">
        <ele>547</ele>
        <time>2019-04-09T13:04:49Z</time>
      </trkpt>
      <trkpt lat="44.38642" lon="5.95608">
        <ele>547</ele>
        <time>2019-04-09T13:04:50Z</time>
      </trkpt>
      <trkpt lat="44.38638" lon="5.95603">
        <ele>547</ele>
        <time>2019-04-09T13:04:51Z</time>
      </trkpt>
      <trkpt lat="44.38634" lon="5.95599">
        <ele>547</ele>
        <time>2019-04-09T13:04:52Z</time>
      </trkpt>
      <trkpt lat="44.38631" lon="5.95594">
        <ele>547</ele>
        <time>2019-04-09T13:04:53Z</time>
      </trkpt>
      <trkpt lat="44.38627" lon="5.95589">
        <ele>547</ele>
        <time>2019-04-09T13:04:54Z</time>
      </trkpt>
      <trkpt lat="44.38623" lon="5.95585">
        <ele>547</ele>
        <time>2019-04-09T13:04:55Z</time>
      </trkpt>
      <trkpt lat="44.3862" lon="5.9558">
        <ele>547</ele>
        <time>2019-04-09T13:04:56Z</time>
      </trkpt>
      <trkpt lat="44.38617" lon="5.95576">
        <ele>547</ele>
        <time>2019-04-09T13:04:57Z</time>
      </trkpt>
      <trkpt lat="44.38614" lon="5.95573">
        <ele>547</ele>
        <time>2019-04-09T13:04:58Z</time>
      </trkpt>
      <trkpt lat="44.3861" lon="5.95569">
        <ele>547</ele>
        <time>2019-04-09T13:04:59Z</time>
      </trkpt>
      <trkpt lat="44.38607" lon="5.95566">
        <ele>547</ele>
        <time>2019-04-09T13:05:00Z</time>
      </trkpt>
      <trkpt lat="44.38604" lon="5.95562">
        <ele>547</ele>
        <time>2019-04-09T13:05:01Z</time>
      </trkpt>
      <trkpt lat="44.38602" lon="5.95559">
        <ele>547</ele>
        <time>2019-04-09T13:05:02Z</time>
      </trkpt>
      <trkpt lat="44.38599" lon="5.95556">
        <ele>547</ele>
        <time>2019-04-09T13:05:03Z</time>
      </trkpt>
      <trkpt lat="44.38596" lon="5.95553">
        <ele>547</ele>
        <time>2019-04-09T13:05:04Z</time>
      </trkpt>
      <trkpt lat="44.38592" lon="5.95551">
        <ele>547</ele>
        <time>2019-04-09T13:05:05Z</time>
      </trkpt>
      <trkpt lat="44.38589" lon="5.95549">
        <ele>547</ele>
        <time>2019-04-09T13:05:06Z</time>
      </trkpt>
      <trkpt lat="44.38586" lon="5.95548">
        <ele>547</ele>
        <time>2019-04-09T13:05:07Z</time>
      </trkpt>
      <trkpt lat="44.38583" lon="5.95548">
        <ele>547</ele>
        <time>2019-04-09T13:05:08Z</time>
      </trkpt>
      <trkpt lat="44.38579" lon="5.95547">
        <ele>547</ele>
        <time>2019-04-09T13:05:09Z</time>
      </trkpt>
      <trkpt lat="44.38576" lon="5.95548">
        <ele>547</ele>
        <time>2019-04-09T13:05:10Z</time>
      </trkpt>
      <trkpt lat="44.38572" lon="5.95548">
        <ele>547</ele>
        <time>2019-04-09T13:05:11Z</time>
      </trkpt>
      <trkpt lat="44.38568" lon="5.95549">
        <ele>547</ele>
        <time>2019-04-09T13:05:12Z</time>
      </trkpt>
      <trkpt lat="44.38565" lon="5.95551">
        <ele>547</ele>
        <time>2019-04-09T13:05:13Z</time>
      </trkpt>
      <trkpt lat="44.38561" lon="5.95554">
        <ele>547</ele>
        <time>2019-04-09T13:05:14Z</time>
      </trkpt>
      <trkpt lat="44.38557" lon="5.95556">
        <ele>547</ele>
        <time>2019-04-09T13:05:15Z</time>
      </trkpt>
      <trkpt lat="44.38554" lon="5.95558">
        <ele>547</ele>
        <time>2019-04-09T13:05:16Z</time>
      </trkpt>
      <trkpt lat="44.38551" lon="5.9556">
        <ele>547</ele>
        <time>2019-04-09T13:05:17Z</time>
      </trkpt>
      <trkpt lat="44.38548" lon="5.95562">
        <ele>548</ele>
        <time>2019-04-09T13:05:18Z</time>
      </trkpt>
      <trkpt lat="44.38545" lon="5.95564">
        <ele>548</ele>
        <time>2019-04-09T13:05:19Z</time>
      </trkpt>
      <trkpt lat="44.38542" lon="5.95566">
        <ele>549</ele>
        <time>2019-04-09T13:05:20Z</time>
      </trkpt>
      <trkpt lat="44.38539" lon="5.95567">
        <ele>549</ele>
        <time>2019-04-09T13:05:21Z</time>
      </trkpt>
      <trkpt lat="44.38536" lon="5.95568">
        <ele>549</ele>
        <time>2019-04-09T13:05:22Z</time>
      </trkpt>
      <trkpt lat="44.38533" lon="5.95569">
        <ele>550</ele>
        <time>2019-04-09T13:05:23Z</time>
      </trkpt>
      <trkpt lat="44.3853" lon="5.95569">
        <ele>550</ele>
        <time>2019-04-09T13:05:24Z</time>
      </trkpt>
      <trkpt lat="44.38527" lon="5.95568">
        <ele>550</ele>
        <time>2019-04-09T13:05:25Z</time>
      </trkpt>
      <trkpt lat="44.38524" lon="5.95566">
        <ele>551</ele>
        <time>2019-04-09T13:05:26Z</time>
      </trkpt>
      <trkpt lat="44.38521" lon="5.95563">
        <ele>551</ele>
        <time>2019-04-09T13:05:27Z</time>
      </trkpt>
      <trkpt lat="44.38518" lon="5.9556">
        <ele>551</ele>
        <time>2019-04-09T13:05:28Z</time>
      </trkpt>
      <trkpt lat="44.38516" lon="5.95555">
        <ele>551</ele>
        <time>2019-04-09T13:05:29Z</time>
      </trkpt>
      <trkpt lat="44.38514" lon="5.95551">
        <ele>551</ele>
        <time>2019-04-09T13:05:30Z</time>
      </trkpt>
      <trkpt lat="44.38512" lon="5.95546">
        <ele>551</ele>
        <time>2019-04-09T13:05:31Z</time>
      </trkpt>
      <trkpt lat="44.38509" lon="5.95542">
        <ele>551</ele>
        <time>2019-04-09T13:05:32Z</time>
      </trkpt>
      <trkpt lat="44.38506" lon="5.95538">
        <ele>551</ele>
        <time>2019-04-09T13:05:33Z</time>
      </trkpt>
      <trkpt lat="44.38503" lon="5.95536">
        <ele>551</ele>
        <time>2019-04-09T13:05:34Z</time>
      </trkpt>
      <trkpt lat="44.38499" lon="5.95535">
        <ele>551</ele>
        <time>2019-04-09T13:05:35Z</time>
      </trkpt>
      <trkpt lat="44.38496" lon="5.95535">
        <ele>551</ele>
        <time>2019-04-09T13:05:36Z</time>
      </trkpt>
      <trkpt lat="44.38493" lon="5.95535">
        <ele>551</ele>
        <time>2019-04-09T13:05:37Z</time>
      </trkpt>
      <trkpt lat="44.3849" lon="5.95535">
        <ele>551</ele>
        <time>2019-04-09T13:05:38Z</time>
      </trkpt>
      <trkpt lat="44.38487" lon="5.95536">
        <ele>551</ele>
        <time>2019-04-09T13:05:39Z</time>
      </trkpt>
      <trkpt lat="44.38484" lon="5.95537">
        <ele>551</ele>
        <time>2019-04-09T13:05:40Z</time>
      </trkpt>
      <trkpt lat="44.38481" lon="5.95538">
        <ele>551</ele>
        <time>2019-04-09T13:05:41Z</time>
      </trkpt>
      <trkpt lat="44.38479" lon="5.95539">
        <ele>551</ele>
        <time>2019-04-09T13:05:42Z</time>
      </trkpt>
      <trkpt lat="44.38476" lon="5.9554">
        <ele>551</ele>
        <time>2019-04-09T13:05:43Z</time>
      </trkpt>
      <trkpt lat="44.38473" lon="5.95541">
        <ele>551</ele>
        <time>2019-04-09T13:05:44Z</time>
      </trkpt>
      <trkpt lat="44.3847" lon="5.95541">
        <ele>551</ele>
        <time>2019-04-09T13:05:45Z</time>
      </trkpt>
      <trkpt lat="44.38467" lon="5.95542">
        <ele>551</ele>
        <time>2019-04-09T13:05:46Z</time>
      </trkpt>
      <trkpt lat="44.38465" lon="5.95543">
        <ele>551</ele>
        <time>2019-04-09T13:05:47Z</time>
      </trkpt>
      <trkpt lat="44.38462" lon="5.95543">
        <ele>551</ele>
        <time>2019-04-09T13:05:48Z</time>
      </trkpt>
      <trkpt lat="44.38459" lon="5.95543">
        <ele>551</ele>
        <time>2019-04-09T13:05:49Z</time>
      </trkpt>
      <trkpt lat="44.38457" lon="5.95543">
        <ele>552</ele>
        <time>2019-04-09T13:05:50Z</time>
      </trkpt>
      <trkpt lat="44.38454" lon="5.95543">
        <ele>552</ele>
        <time>2019-04-09T13:05:51Z</time>
      </trkpt>
      <trkpt lat="44.38452" lon="5.95542">
        <ele>552</ele>
        <time>2019-04-09T13:05:52Z</time>
      </trkpt>
      <trkpt lat="44.38449" lon="5.95542">
        <ele>552</ele>
        <time>2019-04-09T13:05:53Z</time>
      </trkpt>
      <trkpt lat="44.38447" lon="5.95541">
        <ele>553</ele>
        <time>2019-04-09T13:05:54Z</time>
      </trkpt>
      <trkpt lat="44.38445" lon="5.9554">
        <ele>553</ele>
        <time>2019-04-09T13:05:55Z</time>
      </trkpt>
      <trkpt lat="44.38442" lon="5.95539">
        <ele>553</ele>
        <time>2019-04-09T13:05:56Z</time>
      </trkpt>
      <trkpt lat="44.3844" lon="5.95538">
        <ele>553</ele>
        <time>2019-04-09T13:05:57Z</time>
      </trkpt>
      <trkpt lat="44.38438" lon="5.95537">
        <ele>554</ele>
        <time>2019-04-09T13:05:58Z</time>
      </trkpt>
      <trkpt lat="44.38436" lon="5.95536">
        <ele>554</ele>
        <time>2019-04-09T13:05:59Z</time>
      </trkpt>
      <trkpt lat="44.38434" lon="5.95535">
        <ele>554</ele>
        <time>2019-04-09T13:06:00Z</time>
      </trkpt>
      <trkpt lat="44.38432" lon="5.95534">
        <ele>554</ele>
        <time>2019-04-09T13:06:01Z</time>
      </trkpt>
      <trkpt lat="44.38431" lon="5.95533">
        <ele>554</ele>
        <time>2019-04-09T13:06:02Z</time>
      </trkpt>
      <trkpt lat="44.38429" lon="5.95532">
        <ele>554</ele>
        <time>2019-04-09T13:06:03Z</time>
      </trkpt>
      <trkpt lat="44.38427" lon="5.95531">
        <ele>554</ele>
        <time>2019-04-09T13:06:04Z</time>
      </trkpt>
      <trkpt lat="44.38425" lon="5.95529">
        <ele>554</ele>
        <time>2019-04-09T13:06:05Z</time>
      </trkpt>
      <trkpt lat="44.38423" lon="5.95528">
        <ele>554</ele>
        <time>2019-04-09T13:06:06Z</time>
      </trkpt>
      <trkpt lat="44.38421" lon="5.95527">
        <ele>554</ele>
        <time>2019-04-09T13:06:07Z</time>
      </trkpt>
      <trkpt lat="44.38419" lon="5.95526">
        <ele>554</ele>
        <time>2019-04-09T13:06:08Z</time>
      </trkpt>
      <trkpt lat="44.38417" lon="5.95525">
        <ele>554</ele>
        <time>2019-04-09T13:06:09Z</time>
      </trkpt>
      <trkpt lat="44.38414" lon="5.95524">
        <ele>554</ele>
        <time>2019-04-09T13:06:10Z</time>
      </trkpt>
      <trkpt lat="44.38412" lon="5.95522">
        <ele>554</ele>
        <time>2019-04-09T13:06:11Z</time>
      </trkpt>
      <trkpt lat="44.3841" lon="5.95521">
        <ele>555</ele>
        <time>2019-04-09T13:06:12Z</time>
      </trkpt>
      <trkpt lat="44.38408" lon="5.95519">
        <ele>555</ele>
        <time>2019-04-09T13:06:13Z</time>
      </trkpt>
      <trkpt lat="44.38406" lon="5.95517">
        <ele>556</ele>
        <time>2019-04-09T13:06:14Z</time>
      </trkpt>
      <trkpt lat="44.38404" lon="5.95515">
        <ele>556</ele>
        <time>2019-04-09T13:06:15Z</time>
      </trkpt>
      <trkpt lat="44.38402" lon="5.95513">
        <ele>556</ele>
        <time>2019-04-09T13:06:16Z</time>
      </trkpt>
      <trkpt lat="44.384" lon="5.95511">
        <ele>557</ele>
        <time>2019-04-09T13:06:17Z</time>
      </trkpt>
      <trkpt lat="44.38398" lon="5.9551">
        <ele>557</ele>
        <time>2019-04-09T13:06:18Z</time>
      </trkpt>
      <trkpt lat="44.38396" lon="5.95509">
        <ele>557</ele>
        <time>2019-04-09T13:06:19Z</time>
      </trkpt>
      <trkpt lat="44.38394" lon="5.95507">
        <ele>557</ele>
        <time>2019-04-09T13:06:20Z</time>
      </trkpt>
      <trkpt lat="44.38392" lon="5.95506">
        <ele>558</ele>
        <time>2019-04-09T13:06:21Z</time>
      </trkpt>
      <trkpt lat="44.3839" lon="5.95504">
        <ele>558</ele>
        <time>2019-04-09T13:06:22Z</time>
      </trkpt>
      <trkpt lat="44.38388" lon="5.95503">
        <ele>559</ele>
        <time>2019-04-09T13:06:23Z</time>
      </trkpt>
      <trkpt lat="44.38386" lon="5.95501">
        <ele>559</ele>
        <time>2019-04-09T13:06:24Z</time>
      </trkpt>
      <trkpt lat="44.38384" lon="5.95499">
        <ele>560</ele>
        <time>2019-04-09T13:06:25Z</time>
      </trkpt>
      <trkpt lat="44.38382" lon="5.95497">
        <ele>560</ele>
        <time>2019-04-09T13:06:26Z</time>
      </trkpt>
      <trkpt lat="44.3838" lon="5.95496">
        <ele>560</ele>
        <time>2019-04-09T13:06:27Z</time>
      </trkpt>
      <trkpt lat="44.38379" lon="5.95494">
        <ele>561</ele>
        <time>2019-04-09T13:06:28Z</time>
      </trkpt>
      <trkpt lat="44.38377" lon="5.95492">
        <ele>561</ele>
        <time>2019-04-09T13:06:29Z</time>
      </trkpt>
      <trkpt lat="44.38375" lon="5.95491">
        <ele>562</ele>
        <time>2019-04-09T13:06:30Z</time>
      </trkpt>
      <trkpt lat="44.38373" lon="5.95489">
        <ele>562</ele>
        <time>2019-04-09T13:06:31Z</time>
      </trkpt>
      <trkpt lat="44.38371" lon="5.95488">
        <ele>562</ele>
        <time>2019-04-09T13:06:32Z</time>
      </trkpt>
      <trkpt lat="44.38369" lon="5.95486">
        <ele>562</ele>
        <time>2019-04-09T13:06:33Z</time>
      </trkpt>
      <trkpt lat="44.38366" lon="5.95485">
        <ele>562</ele>
        <time>2019-04-09T13:06:34Z</time>
      </trkpt>
      <trkpt lat="44.38364" lon="5.95484">
        <ele>562</ele>
        <time>2019-04-09T13:06:35Z</time>
      </trkpt>
      <trkpt lat="44.38362" lon="5.95483">
        <ele>563</ele>
        <time>2019-04-09T13:06:36Z</time>
      </trkpt>
      <trkpt lat="44.38359" lon="5.95482">
        <ele>563</ele>
        <time>2019-04-09T13:06:37Z</time>
      </trkpt>
      <trkpt lat="44.38357" lon="5.95481">
        <ele>563</ele>
        <time>2019-04-09T13:06:38Z</time>
      </trkpt>
      <trkpt lat="44.38355" lon="5.9548">
        <ele>564</ele>
        <time>2019-04-09T13:06:39Z</time>
      </trkpt>
      <trkpt lat="44.38352" lon="5.9548">
        <ele>564</ele>
        <time>2019-04-09T13:06:40Z</time>
      </trkpt>
      <trkpt lat="44.3835" lon="5.9548">
        <ele>564</ele>
        <time>2019-04-09T13:06:41Z</time>
      </trkpt>
      <trkpt lat="44.38348" lon="5.95479">
        <ele>565</ele>
        <time>2019-04-09T13:06:42Z</time>
      </trkpt>
      <trkpt lat="44.38345" lon="5.95479">
        <ele>565</ele>
        <time>2019-04-09T13:06:43Z</time>
      </trkpt>
      <trkpt lat="44.38343" lon="5.95479">
        <ele>565</ele>
        <time>2019-04-09T13:06:44Z</time>
      </trkpt>
      <trkpt lat="44.38341" lon="5.95479">
        <ele>565</ele>
        <time>2019-04-09T13:06:45Z</time>
      </trkpt>
      <trkpt lat="44.38339" lon="5.9548">
        <ele>565</ele>
        <time>2019-04-09T13:06:46Z</time>
      </trkpt>
      <trkpt lat="44.38337" lon="5.95481">
        <ele>565</ele>
        <time>2019-04-09T13:06:47Z</time>
      </trkpt>
      <trkpt lat="44.38335" lon="5.95481">
        <ele>565</ele>
        <time>2019-04-09T13:06:48Z</time>
      </trkpt>
      <trkpt lat="44.38333" lon="5.95482">
        <ele>565</ele>
        <time>2019-04-09T13:06:49Z</time>
      </trkpt>
      <trkpt lat="44.38331" lon="5.95483">
        <ele>565</ele>
        <time>2019-04-09T13:06:50Z</time>
      </trkpt>
      <trkpt lat="44.38329" lon="5.95484">
        <ele>565</ele>
        <time>2019-04-09T13:06:51Z</time>
      </trkpt>
      <trkpt lat="44.38327" lon="5.95486">
        <ele>565</ele>
        <time>2019-04-09T13:06:52Z</time>
      </trkpt>
      <trkpt lat="44.38325" lon="5.95486">
        <ele>565</ele>
        <time>2019-04-09T13:06:53Z</time>
      </trkpt>
      <trkpt lat="44.38323" lon="5.95487">
        <ele>565</ele>
        <time>2019-04-09T13:06:54Z</time>
      </trkpt>
      <trkpt lat="44.38321" lon="5.95489">
        <ele>565</ele>
        <time>2019-04-09T13:06:55Z</time>
      </trkpt>
      <trkpt lat="44.38319" lon="5.9549">
        <ele>565</ele>
        <time>2019-04-09T13:06:56Z</time>
      </trkpt>
      <trkpt lat="44.38318" lon="5.95491">
        <ele>565</ele>
        <time>2019-04-09T13:06:57Z</time>
      </trkpt>
      <trkpt lat="44.38316" lon="5.95492">
        <ele>565</ele>
        <time>2019-04-09T13:06:58Z</time>
      </trkpt>
      <trkpt lat="44.38314" lon="5.95493">
        <ele>565</ele>
        <time>2019-04-09T13:06:59Z</time>
      </trkpt>
      <trkpt lat="44.38312" lon="5.95493">
        <ele>565</ele>
        <time>2019-04-09T13:07:00Z</time>
      </trkpt>
      <trkpt lat="44.38311" lon="5.95494">
        <ele>565</ele>
        <time>2019-04-09T13:07:01Z</time>
      </trkpt>
      <trkpt lat="44.38308" lon="5.95495">
        <ele>565</ele>
        <time>2019-04-09T13:07:02Z</time>
      </trkpt>
      <trkpt lat="44.38306" lon="5.95496">
        <ele>565</ele>
        <time>2019-04-09T13:07:03Z</time>
      </trkpt>
      <trkpt lat="44.38305" lon="5.95497">
        <ele>565</ele>
        <time>2019-04-09T13:07:04Z</time>
      </trkpt>
      <trkpt lat="44.38302" lon="5.95497">
        <ele>565</ele>
        <time>2019-04-09T13:07:05Z</time>
      </trkpt>
      <trkpt lat="44.383" lon="5.95498">
        <ele>565</ele>
        <time>2019-04-09T13:07:06Z</time>
      </trkpt>
      <trkpt lat="44.38298" lon="5.95498">
        <ele>565</ele>
        <time>2019-04-09T13:07:07Z</time>
      </trkpt>
      <trkpt lat="44.38296" lon="5.95498">
        <ele>565</ele>
        <time>2019-04-09T13:07:08Z</time>
      </trkpt>
      <trkpt lat="44.38294" lon="5.95498">
        <ele>565</ele>
        <time>2019-04-09T13:07:09Z</time>
      </trkpt>
      <trkpt lat="44.38291" lon="5.95498">
        <ele>565</ele>
        <time>2019-04-09T13:07:10Z</time>
      </trkpt>
      <trkpt lat="44.38289" lon="5.95498">
        <ele>565</ele>
        <time>2019-04-09T13:07:11Z</time>
      </trkpt>
      <trkpt lat="44.38287" lon="5.95498">
        <ele>565</ele>
        <time>2019-04-09T13:07:12Z</time>
      </trkpt>
      <trkpt lat="44.38285" lon="5.95498">
        <ele>565</ele>
        <time>2019-04-09T13:07:13Z</time>
      </trkpt>
      <trkpt lat="44.38282" lon="5.95498">
        <ele>565</ele>
        <time>2019-04-09T13:07:14Z</time>
      </trkpt>
      <trkpt lat="44.3828" lon="5.95497">
        <ele>565</ele>
        <time>2019-04-09T13:07:15Z</time>
      </trkpt>
      <trkpt lat="44.38278" lon="5.95496">
        <ele>565</ele>
        <time>2019-04-09T13:07:16Z</time>
      </trkpt>
      <trkpt lat="44.38276" lon="5.95496">
        <ele>565</ele>
        <time>2019-04-09T13:07:17Z</time>
      </trkpt>
      <trkpt lat="44.38274" lon="5.95495">
        <ele>565</ele>
        <time>2019-04-09T13:07:18Z</time>
      </trkpt>
      <trkpt lat="44.38271" lon="5.95494">
        <ele>565</ele>
        <time>2019-04-09T13:07:19Z</time>
      </trkpt>
      <trkpt lat="44.38269" lon="5.95494">
        <ele>565</ele>
        <time>2019-04-09T13:07:20Z</time>
      </trkpt>
      <trkpt lat="44.38267" lon="5.95492">
        <ele>565</ele>
        <time>2019-04-09T13:07:21Z</time>
      </trkpt>
      <trkpt lat="44.38264" lon="5.95491">
        <ele>566</ele>
        <time>2019-04-09T13:07:22Z</time>
      </trkpt>
      <trkpt lat="44.38262" lon="5.9549">
        <ele>566</ele>
        <time>2019-04-09T13:07:23Z</time>
      </trkpt>
      <trkpt lat="44.3826" lon="5.95488">
        <ele>567</ele>
        <time>2019-04-09T13:07:24Z</time>
      </trkpt>
      <trkpt lat="44.38258" lon="5.95486">
        <ele>568</ele>
        <time>2019-04-09T13:07:25Z</time>
      </trkpt>
      <trkpt lat="44.38256" lon="5.95484">
        <ele>568</ele>
        <time>2019-04-09T13:07:26Z</time>
      </trkpt>
      <trkpt lat="44.38254" lon="5.95482">
        <ele>569</ele>
        <time>2019-04-09T13:07:27Z</time>
      </trkpt>
      <trkpt lat="44.38252" lon="5.9548">
        <ele>569</ele>
        <time>2019-04-09T13:07:28Z</time>
      </trkpt>
      <trkpt lat="44.3825" lon="5.95478">
        <ele>570</ele>
        <time>2019-04-09T13:07:29Z</time>
      </trkpt>
      <trkpt lat="44.38248" lon="5.95476">
        <ele>570</ele>
        <time>2019-04-09T13:07:30Z</time>
      </trkpt>
      <trkpt lat="44.38245" lon="5.95473">
        <ele>571</ele>
        <time>2019-04-09T13:07:31Z</time>
      </trkpt>
      <trkpt lat="44.38243" lon="5.95471">
        <ele>571</ele>
        <time>2019-04-09T13:07:32Z</time>
      </trkpt>
      <trkpt lat="44.38241" lon="5.95468">
        <ele>572</ele>
        <time>2019-04-09T13:07:33Z</time>
      </trkpt>
      <trkpt lat="44.38239" lon="5.95466">
        <ele>572</ele>
        <time>2019-04-09T13:07:34Z</time>
      </trkpt>
      <trkpt lat="44.38237" lon="5.95464">
        <ele>572</ele>
        <time>2019-04-09T13:07:35Z</time>
      </trkpt>
      <trkpt lat="44.38235" lon="5.95462">
        <ele>573</ele>
        <time>2019-04-09T13:07:36Z</time>
      </trkpt>
      <trkpt lat="44.38232" lon="5.95459">
        <ele>573</ele>
        <time>2019-04-09T13:07:37Z</time>
      </trkpt>
      <trkpt lat="44.3823" lon="5.95457">
        <ele>573</ele>
        <time>2019-04-09T13:07:38Z</time>
      </trkpt>
      <trkpt lat="44.38228" lon="5.95455">
        <ele>573</ele>
        <time>2019-04-09T13:07:39Z</time>
      </trkpt>
      <trkpt lat="44.38226" lon="5.95452">
        <ele>573</ele>
        <time>2019-04-09T13:07:40Z</time>
      </trkpt>
      <trkpt lat="44.38223" lon="5.95449">
        <ele>573</ele>
        <time>2019-04-09T13:07:41Z</time>
      </trkpt>
      <trkpt lat="44.38221" lon="5.95447">
        <ele>574</ele>
        <time>2019-04-09T13:07:42Z</time>
      </trkpt>
      <trkpt lat="44.38219" lon="5.95444">
        <ele>574</ele>
        <time>2019-04-09T13:07:43Z</time>
      </trkpt>
      <trkpt lat="44.38216" lon="5.95442">
        <ele>574</ele>
        <time>2019-04-09T13:07:44Z</time>
      </trkpt>
      <trkpt lat="44.38214" lon="5.95439">
        <ele>574</ele>
        <time>2019-04-09T13:07:45Z</time>
      </trkpt>
      <trkpt lat="44.38212" lon="5.95436">
        <ele>574</ele>
        <time>2019-04-09T13:07:46Z</time>
      </trkpt>
      <trkpt lat="44.3821" lon="5.95434">
        <ele>574</ele>
        <time>2019-04-09T13:07:47Z</time>
      </trkpt>
      <trkpt lat="44.38208" lon="5.95431">
        <ele>574</ele>
        <time>2019-04-09T13:07:48Z</time>
      </trkpt>
      <trkpt lat="44.38205" lon="5.95429">
        <ele>575</ele>
        <time>2019-04-09T13:07:49Z</time>
      </trkpt>
      <trkpt lat="44.38203" lon="5.95426">
        <ele>575</ele>
        <time>2019-04-09T13:07:50Z</time>
      </trkpt>
      <trkpt lat="44.382" lon="5.95424">
        <ele>575</ele>
        <time>2019-04-09T13:07:51Z</time>
      </trkpt>
      <trkpt lat="44.38198" lon="5.95421">
        <ele>575</ele>
        <time>2019-04-09T13:07:52Z</time>
      </trkpt>
      <trkpt lat="44.38195" lon="5.95418">
        <ele>576</ele>
        <time>2019-04-09T13:07:53Z</time>
      </trkpt>
      <trkpt lat="44.38193" lon="5.95415">
        <ele>576</ele>
        <time>2019-04-09T13:07:54Z</time>
      </trkpt>
      <trkpt lat="44.3819" lon="5.95412">
        <ele>576</ele>
        <time>2019-04-09T13:07:55Z</time>
      </trkpt>
      <trkpt lat="44.38188" lon="5.95409">
        <ele>576</ele>
        <time>2019-04-09T13:07:56Z</time>
      </trkpt>
      <trkpt lat="44.38186" lon="5.95406">
        <ele>576</ele>
        <time>2019-04-09T13:07:57Z</time>
      </trkpt>
      <trkpt lat="44.38183" lon="5.95403">
        <ele>577</ele>
        <time>2019-04-09T13:07:58Z</time>
      </trkpt>
      <trkpt lat="44.3818" lon="5.954">
        <ele>577</ele>
        <time>2019-04-09T13:07:59Z</time>
      </trkpt>
      <trkpt lat="44.38178" lon="5.95398">
        <ele>577</ele>
        <time>2019-04-09T13:08:00Z</time>
      </trkpt>
      <trkpt lat="44.38175" lon="5.95395">
        <ele>577</ele>
        <time>2019-04-09T13:08:01Z</time>
      </trkpt>
      <trkpt lat="44.38172" lon="5.95392">
        <ele>577</ele>
        <time>2019-04-09T13:08:02Z</time>
      </trkpt>
      <trkpt lat="44.38169" lon="5.95389">
        <ele>577</ele>
        <time>2019-04-09T13:08:03Z</time>
      </trkpt>
      <trkpt lat="44.38166" lon="5.95385">
        <ele>577</ele>
        <time>2019-04-09T13:08:04Z</time>
      </trkpt>
      <trkpt lat="44.38162" lon="5.95381">
        <ele>577</ele>
        <time>2019-04-09T13:08:05Z</time>
      </trkpt>
      <trkpt lat="44.38159" lon="5.95378">
        <ele>578</ele>
        <time>2019-04-09T13:08:06Z</time>
      </trkpt>
      <trkpt lat="44.38155" lon="5.95374">
        <ele>578</ele>
        <time>2019-04-09T13:08:07Z</time>
      </trkpt>
      <trkpt lat="44.38151" lon="5.95371">
        <ele>578</ele>
        <time>2019-04-09T13:08:08Z</time>
      </trkpt>
      <trkpt lat="44.38147" lon="5.95367">
        <ele>578</ele>
        <time>2019-04-09T13:08:09Z</time>
      </trkpt>
      <trkpt lat="44.38142" lon="5.95364">
        <ele>578</ele>
        <time>2019-04-09T13:08:10Z</time>
      </trkpt>
      <trkpt lat="44.38138" lon="5.9536">
        <ele>578</ele>
        <time>2019-04-09T13:08:11Z</time>
      </trkpt>
      <trkpt lat="44.38133" lon="5.95357">
        <ele>578</ele>
        <time>2019-04-09T13:08:12Z</time>
      </trkpt>
      <trkpt lat="44.38128" lon="5.95353">
        <ele>578</ele>
        <time>2019-04-09T13:08:13Z</time>
      </trkpt>
      <trkpt lat="44.38123" lon="5.95349">
        <ele>578</ele>
        <time>2019-04-09T13:08:14Z</time>
      </trkpt>
      <trkpt lat="44.38118" lon="5.95346">
        <ele>578</ele>
        <time>2019-04-09T13:08:15Z</time>
      </trkpt>
      <trkpt lat="44.38113" lon="5.95342">
        <ele>578</ele>
        <time>2019-04-09T13:08:16Z</time>
      </trkpt>
      <trkpt lat="44.38107" lon="5.95339">
        <ele>578</ele>
        <time>2019-04-09T13:08:17Z</time>
      </trkpt>
      <trkpt lat="44.38101" lon="5.95337">
        <ele>578</ele>
        <time>2019-04-09T13:08:18Z</time>
      </trkpt>
      <trkpt lat="44.38096" lon="5.95334">
        <ele>578</ele>
        <time>2019-04-09T13:08:19Z</time>
      </trkpt>
      <trkpt lat="44.3809" lon="5.95332">
        <ele>578</ele>
        <time>2019-04-09T13:08:20Z</time>
      </trkpt>
      <trkpt lat="44.38084" lon="5.9533">
        <ele>578</ele>
        <time>2019-04-09T13:08:21Z</time>
      </trkpt>
      <trkpt lat="44.38078" lon="5.95329">
        <ele>578</ele>
        <time>2019-04-09T13:08:22Z</time>
      </trkpt>
      <trkpt lat="44.38072" lon="5.95327">
        <ele>578</ele>
        <time>2019-04-09T13:08:23Z</time>
      </trkpt>
      <trkpt lat="44.38066" lon="5.95326">
        <ele>578</ele>
        <time>2019-04-09T13:08:24Z</time>
      </trkpt>
      <trkpt lat="44.3806" lon="5.95324">
        <ele>578</ele>
        <time>2019-04-09T13:08:25Z</time>
      </trkpt>
      <trkpt lat="44.38053" lon="5.95322">
        <ele>578</ele>
        <time>2019-04-09T13:08:26Z</time>
      </trkpt>
      <trkpt lat="44.38047" lon="5.9532">
        <ele>578</ele>
        <time>2019-04-09T13:08:27Z</time>
      </trkpt>
      <trkpt lat="44.3804" lon="5.95319">
        <ele>578</ele>
        <time>2019-04-09T13:08:28Z</time>
      </trkpt>
      <trkpt lat="44.38033" lon="5.95318">
        <ele>578</ele>
        <time>2019-04-09T13:08:29Z</time>
      </trkpt>
      <trkpt lat="44.38026" lon="5.95318">
        <ele>578</ele>
        <time>2019-04-09T13:08:30Z</time>
      </trkpt>
      <trkpt lat="44.3802" lon="5.95317">
        <ele>578</ele>
        <time>2019-04-09T13:08:31Z</time>
      </trkpt>
      <trkpt lat="44.38013" lon="5.95317">
        <ele>578</ele>
        <time>2019-04-09T13:08:32Z</time>
      </trkpt>
      <trkpt lat="44.38006" lon="5.95317">
        <ele>578</ele>
        <time>2019-04-09T13:08:33Z</time>
      </trkpt>
      <trkpt lat="44.37999" lon="5.95318">
        <ele>578</ele>
        <time>2019-04-09T13:08:34Z</time>
      </trkpt>
      <trkpt lat="44.37992" lon="5.95319">
        <ele>578</ele>
        <time>2019-04-09T13:08:35Z</time>
      </trkpt>
      <trkpt lat="44.37985" lon="5.9532">
        <ele>578</ele>
        <time>2019-04-09T13:08:36Z</time>
      </trkpt>
      <trkpt lat="44.37978" lon="5.95321">
        <ele>578</ele>
        <time>2019-04-09T13:08:37Z</time>
      </trkpt>
      <trkpt lat="44.37971" lon="5.95323">
        <ele>578</ele>
        <time>2019-04-09T13:08:38Z</time>
      </trkpt>
      <trkpt lat="44.37965" lon="5.95325">
        <ele>578</ele>
        <time>2019-04-09T13:08:39Z</time>
      </trkpt>
      <trkpt lat="44.37958" lon="5.95327">
        <ele>577</ele>
        <time>2019-04-09T13:08:40Z</time>
      </trkpt>
      <trkpt lat="44.37952" lon="5.95329">
        <ele>577</ele>
        <time>2019-04-09T13:08:41Z</time>
      </trkpt>
      <trkpt lat="44.37945" lon="5.95331">
        <ele>577</ele>
        <time>2019-04-09T13:08:42Z</time>
      </trkpt>
      <trkpt lat="44.37939" lon="5.95332">
        <ele>577</ele>
        <time>2019-04-09T13:08:43Z</time>
      </trkpt>
      <trkpt lat="44.37932" lon="5.95334">
        <ele>577</ele>
        <time>2019-04-09T13:08:44Z</time>
      </trkpt>
      <trkpt lat="44.37926" lon="5.95336">
        <ele>577</ele>
        <time>2019-04-09T13:08:45Z</time>
      </trkpt>
      <trkpt lat="44.3792" lon="5.95337">
        <ele>577</ele>
        <time>2019-04-09T13:08:46Z</time>
      </trkpt>
      <trkpt lat="44.37914" lon="5.95339">
        <ele>577</ele>
        <time>2019-04-09T13:08:47Z</time>
      </trkpt>
      <trkpt lat="44.37908" lon="5.9534">
        <ele>576</ele>
        <time>2019-04-09T13:08:48Z</time>
      </trkpt>
      <trkpt lat="44.37902" lon="5.95342">
        <ele>576</ele>
        <time>2019-04-09T13:08:49Z</time>
      </trkpt>
      <trkpt lat="44.37896" lon="5.95344">
        <ele>576</ele>
        <time>2019-04-09T13:08:50Z</time>
      </trkpt>
      <trkpt lat="44.3789" lon="5.95345">
        <ele>576</ele>
        <time>2019-04-09T13:08:51Z</time>
      </trkpt>
      <trkpt lat="44.37884" lon="5.95346">
        <ele>576</ele>
        <time>2019-04-09T13:08:52Z</time>
      </trkpt>
      <trkpt lat="44.37878" lon="5.95348">
        <ele>576</ele>
        <time>2019-04-09T13:08:53Z</time>
      </trkpt>
      <trkpt lat="44.37872" lon="5.9535">
        <ele>576</ele>
        <time>2019-04-09T13:08:54Z</time>
      </trkpt>
      <trkpt lat="44.37866" lon="5.95351">
        <ele>576</ele>
        <time>2019-04-09T13:08:55Z</time>
      </trkpt>
      <trkpt lat="44.37859" lon="5.95353">
        <ele>575</ele>
        <time>2019-04-09T13:08:56Z</time>
      </trkpt>
      <trkpt lat="44.37853" lon="5.95353">
        <ele>575</ele>
        <time>2019-04-09T13:08:57Z</time>
      </trkpt>
      <trkpt lat="44.37846" lon="5.95353">
        <ele>575</ele>
        <time>2019-04-09T13:08:58Z</time>
      </trkpt>
      <trkpt lat="44.3784" lon="5.95352">
        <ele>575</ele>
        <time>2019-04-09T13:08:59Z</time>
      </trkpt>
      <trkpt lat="44.37833" lon="5.95351">
        <ele>575</ele>
        <time>2019-04-09T13:09:00Z</time>
      </trkpt>
      <trkpt lat="44.37827" lon="5.95348">
        <ele>575</ele>
        <time>2019-04-09T13:09:01Z</time>
      </trkpt>
      <trkpt lat="44.37821" lon="5.95345">
        <ele>575</ele>
        <time>2019-04-09T13:09:02Z</time>
      </trkpt>
      <trkpt lat="44.37816" lon="5.95342">
        <ele>575</ele>
        <time>2019-04-09T13:09:03Z</time>
      </trkpt>
      <trkpt lat="44.3781" lon="5.95338">
        <ele>575</ele>
        <time>2019-04-09T13:09:04Z</time>
      </trkpt>
      <trkpt lat="44.37805" lon="5.95334">
        <ele>575</ele>
        <time>2019-04-09T13:09:05Z</time>
      </trkpt>
      <trkpt lat="44.378" lon="5.95329">
        <ele>575</ele>
        <time>2019-04-09T13:09:06Z</time>
      </trkpt>
      <trkpt lat="44.37794" lon="5.95325">
        <ele>575</ele>
        <time>2019-04-09T13:09:07Z</time>
      </trkpt>
      <trkpt lat="44.37788" lon="5.9532">
        <ele>575</ele>
        <time>2019-04-09T13:09:08Z</time>
      </trkpt>
      <trkpt lat="44.37783" lon="5.95316">
        <ele>575</ele>
        <time>2019-04-09T13:09:09Z</time>
      </trkpt>
      <trkpt lat="44.37777" lon="5.95311">
        <ele>575</ele>
        <time>2019-04-09T13:09:10Z</time>
      </trkpt>
      <trkpt lat="44.37772" lon="5.95307">
        <ele>575</ele>
        <time>2019-04-09T13:09:11Z</time>
      </trkpt>
      <trkpt lat="44.37766" lon="5.95303">
        <ele>575</ele>
        <time>2019-04-09T13:09:12Z</time>
      </trkpt>
      <trkpt lat="44.3776" lon="5.95299">
        <ele>575</ele>
        <time>2019-04-09T13:09:13Z</time>
      </trkpt>
      <trkpt lat="44.37754" lon="5.95296">
        <ele>575</ele>
        <time>2019-04-09T13:09:14Z</time>
      </trkpt>
      <trkpt lat="44.37748" lon="5.95293">
        <ele>575</ele>
        <time>2019-04-09T13:09:15Z</time>
      </trkpt>
      <trkpt lat="44.37742" lon="5.9529">
        <ele>575</ele>
        <time>2019-04-09T13:09:16Z</time>
      </trkpt>
      <trkpt lat="44.37736" lon="5.95287">
        <ele>575</ele>
        <time>2019-04-09T13:09:17Z</time>
      </trkpt>
      <trkpt lat="44.3773" lon="5.95284">
        <ele>575</ele>
        <time>2019-04-09T13:09:18Z</time>
      </trkpt>
      <trkpt lat="44.37724" lon="5.95281">
        <ele>575</ele>
        <time>2019-04-09T13:09:19Z</time>
      </trkpt>
      <trkpt lat="44.37717" lon="5.95277">
        <ele>575</ele>
        <time>2019-04-09T13:09:20Z</time>
      </trkpt>
      <trkpt lat="44.37711" lon="5.95273">
        <ele>575</ele>
        <time>2019-04-09T13:09:21Z</time>
      </trkpt>
      <trkpt lat="44.37706" lon="5.95268">
        <ele>575</ele>
        <time>2019-04-09T13:09:22Z</time>
      </trkpt>
      <trkpt lat="44.377" lon="5.95263">
        <ele>575</ele>
        <time>2019-04-09T13:09:23Z</time>
      </trkpt>
      <trkpt lat="44.37695" lon="5.95258">
        <ele>575</ele>
        <time>2019-04-09T13:09:24Z</time>
      </trkpt>
      <trkpt lat="44.37689" lon="5.95253">
        <ele>575</ele>
        <time>2019-04-09T13:09:25Z</time>
      </trkpt>
      <trkpt lat="44.37684" lon="5.95247">
        <ele>575</ele>
        <time>2019-04-09T13:09:26Z</time>
      </trkpt>
      <trkpt lat="44.37679" lon="5.95241">
        <ele>575</ele>
        <time>2019-04-09T13:09:27Z</time>
      </trkpt>
      <trkpt lat="44.37674" lon="5.95235">
        <ele>575</ele>
        <time>2019-04-09T13:09:28Z</time>
      </trkpt>
      <trkpt lat="44.37669" lon="5.95229">
        <ele>575</ele>
        <time>2019-04-09T13:09:29Z</time>
      </trkpt>
      <trkpt lat="44.37665" lon="5.95224">
        <ele>575</ele>
        <time>2019-04-09T13:09:30Z</time>
      </trkpt>
      <trkpt lat="44.3766" lon="5.95218">
        <ele>575</ele>
        <time>2019-04-09T13:09:31Z</time>
      </trkpt>
      <trkpt lat="44.37656" lon="5.95212">
        <ele>575</ele>
        <time>2019-04-09T13:09:32Z</time>
      </trkpt>
      <trkpt lat="44.37651" lon="5.95206">
        <ele>575</ele>
        <time>2019-04-09T13:09:33Z</time>
      </trkpt>
      <trkpt lat="44.37645" lon="5.952">
        <ele>575</ele>
        <time>2019-04-09T13:09:34Z</time>
      </trkpt>
      <trkpt lat="44.3764" lon="5.95195">
        <ele>575</ele>
        <time>2019-04-09T13:09:35Z</time>
      </trkpt>
      <trkpt lat="44.37635" lon="5.95189">
        <ele>575</ele>
        <time>2019-04-09T13:09:36Z</time>
      </trkpt>
      <trkpt lat="44.3763" lon="5.95185">
        <ele>575</ele>
        <time>2019-04-09T13:09:37Z</time>
      </trkpt>
      <trkpt lat="44.37624" lon="5.95181">
        <ele>575</ele>
        <time>2019-04-09T13:09:38Z</time>
      </trkpt>
      <trkpt lat="44.37617" lon="5.95177">
        <ele>575</ele>
        <time>2019-04-09T13:09:39Z</time>
      </trkpt>
      <trkpt lat="44.37611" lon="5.95173">
        <ele>575</ele>
        <time>2019-04-09T13:09:40Z</time>
      </trkpt>
      <trkpt lat="44.37605" lon="5.9517">
        <ele>575</ele>
        <time>2019-04-09T13:09:41Z</time>
      </trkpt>
      <trkpt lat="44.37598" lon="5.95167">
        <ele>575</ele>
        <time>2019-04-09T13:09:42Z</time>
      </trkpt>
      <trkpt lat="44.37592" lon="5.95165">
        <ele>575</ele>
        <time>2019-04-09T13:09:43Z</time>
      </trkpt>
      <trkpt lat="44.37586" lon="5.95163">
        <ele>574</ele>
        <time>2019-04-09T13:09:44Z</time>
      </trkpt>
      <trkpt lat="44.3758" lon="5.9516">
        <ele>574</ele>
        <time>2019-04-09T13:09:45Z</time>
      </trkpt>
      <trkpt lat="44.37577" lon="5.95156">
        <ele>574</ele>
        <time>2019-04-09T13:09:46Z</time>
      </trkpt>
      <trkpt lat="44.37575" lon="5.95152">
        <ele>574</ele>
        <time>2019-04-09T13:09:47Z</time>
      </trkpt>
      <trkpt lat="44.37575" lon="5.95146">
        <ele>573</ele>
        <time>2019-04-09T13:09:48Z</time>
      </trkpt>
      <trkpt lat="44.37577" lon="5.95142">
        <ele>573</ele>
        <time>2019-04-09T13:09:49Z</time>
      </trkpt>
      <trkpt lat="44.37579" lon="5.95139">
        <ele>573</ele>
        <time>2019-04-09T13:09:50Z</time>
      </trkpt>
      <trkpt lat="44.37582" lon="5.95136">
        <ele>573</ele>
        <time>2019-04-09T13:09:51Z</time>
      </trkpt>
      <trkpt lat="44.37586" lon="5.95134">
        <ele>573</ele>
        <time>2019-04-09T13:09:52Z</time>
      </trkpt>
      <trkpt lat="44.3759" lon="5.95132">
        <ele>573</ele>
        <time>2019-04-09T13:09:53Z</time>
      </trkpt>
      <trkpt lat="44.37594" lon="5.95131">
        <ele>573</ele>
        <time>2019-04-09T13:09:54Z</time>
      </trkpt>
      <trkpt lat="44.37598" lon="5.95129">
        <ele>573</ele>
        <time>2019-04-09T13:09:55Z</time>
      </trkpt>
      <trkpt lat="44.37601" lon="5.95128">
        <ele>573</ele>
        <time>2019-04-09T13:09:56Z</time>
      </trkpt>
      <trkpt lat="44.37606" lon="5.95126">
        <ele>572</ele>
        <time>2019-04-09T13:09:57Z</time>
      </trkpt>
      <trkpt lat="44.3761" lon="5.95125">
        <ele>572</ele>
        <time>2019-04-09T13:09:58Z</time>
      </trkpt>
      <trkpt lat="44.37614" lon="5.95123">
        <ele>572</ele>
        <time>2019-04-09T13:09:59Z</time>
      </trkpt>
      <trkpt lat="44.37619" lon="5.95121">
        <ele>572</ele>
        <time>2019-04-09T13:10:00Z</time>
      </trkpt>
      <trkpt lat="44.37623" lon="5.95119">
        <ele>572</ele>
        <time>2019-04-09T13:10:01Z</time>
      </trkpt>
      <trkpt lat="44.37628" lon="5.95117">
        <ele>572</ele>
        <time>2019-04-09T13:10:02Z</time>
      </trkpt>
      <trkpt lat="44.37633" lon="5.95115">
        <ele>572</ele>
        <time>2019-04-09T13:10:03Z</time>
      </trkpt>
      <trkpt lat="44.37638" lon="5.95113">
        <ele>571</ele>
        <time>2019-04-09T13:10:04Z</time>
      </trkpt>
      <trkpt lat="44.37643" lon="5.9511">
        <ele>571</ele>
        <time>2019-04-09T13:10:05Z</time>
      </trkpt>
      <trkpt lat="44.37648" lon="5.95108">
        <ele>571</ele>
        <time>2019-04-09T13:10:06Z</time>
      </trkpt>
      <trkpt lat="44.37654" lon="5.95105">
        <ele>571</ele>
        <time>2019-04-09T13:10:07Z</time>
      </trkpt>
      <trkpt lat="44.3766" lon="5.95103">
        <ele>570</ele>
        <time>2019-04-09T13:10:08Z</time>
      </trkpt>
      <trkpt lat="44.37665" lon="5.951">
        <ele>570</ele>
        <time>2019-04-09T13:10:09Z</time>
      </trkpt>
      <trkpt lat="44.37672" lon="5.95098">
        <ele>570</ele>
        <time>2019-04-09T13:10:10Z</time>
      </trkpt>
      <trkpt lat="44.37678" lon="5.95096">
        <ele>570</ele>
        <time>2019-04-09T13:10:11Z</time>
      </trkpt>
      <trkpt lat="44.37684" lon="5.95094">
        <ele>570</ele>
        <time>2019-04-09T13:10:12Z</time>
      </trkpt>
      <trkpt lat="44.37691" lon="5.95091">
        <ele>569</ele>
        <time>2019-04-09T13:10:13Z</time>
      </trkpt>
      <trkpt lat="44.37698" lon="5.95088">
        <ele>569</ele>
        <time>2019-04-09T13:10:14Z</time>
      </trkpt>
      <trkpt lat="44.37705" lon="5.95085">
        <ele>569</ele>
        <time>2019-04-09T13:10:15Z</time>
      </trkpt>
      <trkpt lat="44.37712" lon="5.95082">
        <ele>569</ele>
        <time>2019-04-09T13:10:16Z</time>
      </trkpt>
      <trkpt lat="44.3772" lon="5.95079">
        <ele>568</ele>
        <time>2019-04-09T13:10:17Z</time>
      </trkpt>
      <trkpt lat="44.37727" lon="5.95075">
        <ele>568</ele>
        <time>2019-04-09T13:10:18Z</time>
      </trkpt>
      <trkpt lat="44.37735" lon="5.95072">
        <ele>567</ele>
        <time>2019-04-09T13:10:19Z</time>
      </trkpt>
      <trkpt lat="44.37743" lon="5.95069">
        <ele>567</ele>
        <time>2019-04-09T13:10:20Z</time>
      </trkpt>
      <trkpt lat="44.37751" lon="5.95065">
        <ele>567</ele>
        <time>2019-04-09T13:10:21Z</time>
      </trkpt>
      <trkpt lat="44.37759" lon="5.95061">
        <ele>566</ele>
        <time>2019-04-09T13:10:22Z</time>
      </trkpt>
      <trkpt lat="44.37767" lon="5.95057">
        <ele>566</ele>
        <time>2019-04-09T13:10:23Z</time>
      </trkpt>
      <trkpt lat="44.37775" lon="5.95054">
        <ele>565</ele>
        <time>2019-04-09T13:10:24Z</time>
      </trkpt>
      <trkpt lat="44.37783" lon="5.95049">
        <ele>565</ele>
        <time>2019-04-09T13:10:25Z</time>
      </trkpt>
      <trkpt lat="44.37791" lon="5.95044">
        <ele>565</ele>
        <time>2019-04-09T13:10:26Z</time>
      </trkpt>
      <trkpt lat="44.37797" lon="5.95036">
        <ele>564</ele>
        <time>2019-04-09T13:10:27Z</time>
      </trkpt>
      <trkpt lat="44.37803" lon="5.95026">
        <ele>564</ele>
        <time>2019-04-09T13:10:28Z</time>
      </trkpt>
      <trkpt lat="44.37808" lon="5.95015">
        <ele>563</ele>
        <time>2019-04-09T13:10:29Z</time>
      </trkpt>
      <trkpt lat="44.37812" lon="5.95003">
        <ele>563</ele>
        <time>2019-04-09T13:10:30Z</time>
      </trkpt>
      <trkpt lat="44.37814" lon="5.9499">
        <ele>563</ele>
        <time>2019-04-09T13:10:31Z</time>
      </trkpt>
      <trkpt lat="44.37817" lon="5.94977">
        <ele>562</ele>
        <time>2019-04-09T13:10:32Z</time>
      </trkpt>
      <trkpt lat="44.37819" lon="5.94964">
        <ele>562</ele>
        <time>2019-04-09T13:10:33Z</time>
      </trkpt>
      <trkpt lat="44.37821" lon="5.94951">
        <ele>561</ele>
        <time>2019-04-09T13:10:34Z</time>
      </trkpt>
      <trkpt lat="44.37823" lon="5.94937">
        <ele>561</ele>
        <time>2019-04-09T13:10:35Z</time>
      </trkpt>
      <trkpt lat="44.37826" lon="5.94924">
        <ele>561</ele>
        <time>2019-04-09T13:10:36Z</time>
      </trkpt>
      <trkpt lat="44.37828" lon="5.9491">
        <ele>560</ele>
        <time>2019-04-09T13:10:37Z</time>
      </trkpt>
      <trkpt lat="44.3783" lon="5.94896">
        <ele>560</ele>
        <time>2019-04-09T13:10:38Z</time>
      </trkpt>
      <trkpt lat="44.37832" lon="5.94882">
        <ele>559</ele>
        <time>2019-04-09T13:10:39Z</time>
      </trkpt>
      <trkpt lat="44.37834" lon="5.94868">
        <ele>558</ele>
        <time>2019-04-09T13:10:40Z</time>
      </trkpt>
      <trkpt lat="44.37835" lon="5.94854">
        <ele>558</ele>
        <time>2019-04-09T13:10:41Z</time>
      </trkpt>
      <trkpt lat="44.37836" lon="5.9484">
        <ele>557</ele>
        <time>2019-04-09T13:10:42Z</time>
      </trkpt>
      <trkpt lat="44.37837" lon="5.94827">
        <ele>556</ele>
        <time>2019-04-09T13:10:43Z</time>
      </trkpt>
      <trkpt lat="44.37839" lon="5.94814">
        <ele>556</ele>
        <time>2019-04-09T13:10:44Z</time>
      </trkpt>
      <trkpt lat="44.37842" lon="5.94803">
        <ele>555</ele>
        <time>2019-04-09T13:10:45Z</time>
      </trkpt>
      <trkpt lat="44.37847" lon="5.94792">
        <ele>554</ele>
        <time>2019-04-09T13:10:46Z</time>
      </trkpt>
      <trkpt lat="44.37854" lon="5.94783">
        <ele>554</ele>
        <time>2019-04-09T13:10:47Z</time>
      </trkpt>
      <trkpt lat="44.37861" lon="5.94777">
        <ele>553</ele>
        <time>2019-04-09T13:10:48Z</time>
      </trkpt>
      <trkpt lat="44.3787" lon="5.9477">
        <ele>553</ele>
        <time>2019-04-09T13:10:49Z</time>
      </trkpt>
      <trkpt lat="44.37878" lon="5.94764">
        <ele>552</ele>
        <time>2019-04-09T13:10:50Z</time>
      </trkpt>
      <trkpt lat="44.37886" lon="5.94757">
        <ele>552</ele>
        <time>2019-04-09T13:10:51Z</time>
      </trkpt>
      <trkpt lat="44.37892" lon="5.94748">
        <ele>551</ele>
        <time>2019-04-09T13:10:52Z</time>
      </trkpt>
      <trkpt lat="44.37899" lon="5.94737">
        <ele>551</ele>
        <time>2019-04-09T13:10:53Z</time>
      </trkpt>
      <trkpt lat="44.37904" lon="5.94726">
        <ele>550</ele>
        <time>2019-04-09T13:10:54Z</time>
      </trkpt>
      <trkpt lat="44.3791" lon="5.94715">
        <ele>550</ele>
        <time>2019-04-09T13:10:55Z</time>
      </trkpt>
      <trkpt lat="44.37917" lon="5.94705">
        <ele>549</ele>
        <time>2019-04-09T13:10:56Z</time>
      </trkpt>
      <trkpt lat="44.37924" lon="5.94695">
        <ele>548</ele>
        <time>2019-04-09T13:10:57Z</time>
      </trkpt>
      <trkpt lat="44.37932" lon="5.94687">
        <ele>548</ele>
        <time>2019-04-09T13:10:58Z</time>
      </trkpt>
      <trkpt lat="44.37941" lon="5.9468">
        <ele>547</ele>
        <time>2019-04-09T13:10:59Z</time>
      </trkpt>
      <trkpt lat="44.3795" lon="5.94674">
        <ele>547</ele>
        <time>2019-04-09T13:11:00Z</time>
      </trkpt>
      <trkpt lat="44.37959" lon="5.94669">
        <ele>547</ele>
        <time>2019-04-09T13:11:01Z</time>
      </trkpt>
      <trkpt lat="44.37968" lon="5.94666">
        <ele>546</ele>
        <time>2019-04-09T13:11:02Z</time>
      </trkpt>
      <trkpt lat="44.37978" lon="5.94664">
        <ele>546</ele>
        <time>2019-04-09T13:11:03Z</time>
      </trkpt>
      <trkpt lat="44.37988" lon="5.94661">
        <ele>546</ele>
        <time>2019-04-09T13:11:04Z</time>
      </trkpt>
      <trkpt lat="44.37997" lon="5.94657">
        <ele>545</ele>
        <time>2019-04-09T13:11:05Z</time>
      </trkpt>
      <trkpt lat="44.38005" lon="5.94652">
        <ele>545</ele>
        <time>2019-04-09T13:11:06Z</time>
      </trkpt>
      <trkpt lat="44.38012" lon="5.94643">
        <ele>545</ele>
        <time>2019-04-09T13:11:07Z</time>
      </trkpt>
      <trkpt lat="44.38018" lon="5.94633">
        <ele>544</ele>
        <time>2019-04-09T13:11:08Z</time>
      </trkpt>
      <trkpt lat="44.38023" lon="5.94623">
        <ele>544</ele>
        <time>2019-04-09T13:11:09Z</time>
      </trkpt>
      <trkpt lat="44.38027" lon="5.94611">
        <ele>544</ele>
        <time>2019-04-09T13:11:10Z</time>
      </trkpt>
      <trkpt lat="44.38031" lon="5.94599">
        <ele>544</ele>
        <time>2019-04-09T13:11:11Z</time>
      </trkpt>
      <trkpt lat="44.38034" lon="5.94588">
        <ele>544</ele>
        <time>2019-04-09T13:11:12Z</time>
      </trkpt>
      <trkpt lat="44.38037" lon="5.94576">
        <ele>544</ele>
        <time>2019-04-09T13:11:13Z</time>
      </trkpt>
      <trkpt lat="44.38041" lon="5.94565">
        <ele>544</ele>
        <time>2019-04-09T13:11:14Z</time>
      </trkpt>
      <trkpt lat="44.38044" lon="5.94555">
        <ele>544</ele>
        <time>2019-04-09T13:11:15Z</time>
      </trkpt>
      <trkpt lat="44.38046" lon="5.94545">
        <ele>544</ele>
        <time>2019-04-09T13:11:16Z</time>
      </trkpt>
      <trkpt lat="44.38049" lon="5.94535">
        <ele>544</ele>
        <time>2019-04-09T13:11:17Z</time>
      </trkpt>
      <trkpt lat="44.38052" lon="5.94525">
        <ele>544</ele>
        <time>2019-04-09T13:11:18Z</time>
      </trkpt>
      <trkpt lat="44.38055" lon="5.94515">
        <ele>544</ele>
        <time>2019-04-09T13:11:19Z</time>
      </trkpt>
      <trkpt lat="44.38057" lon="5.94505">
        <ele>544</ele>
        <time>2019-04-09T13:11:20Z</time>
      </trkpt>
      <trkpt lat="44.3806" lon="5.94495">
        <ele>544</ele>
        <time>2019-04-09T13:11:21Z</time>
      </trkpt>
      <trkpt lat="44.38063" lon="5.94485">
        <ele>544</ele>
        <time>2019-04-09T13:11:22Z</time>
      </trkpt>
      <trkpt lat="44.38066" lon="5.94476">
        <ele>544</ele>
        <time>2019-04-09T13:11:23Z</time>
      </trkpt>
      <trkpt lat="44.38069" lon="5.94466">
        <ele>544</ele>
        <time>2019-04-09T13:11:24Z</time>
      </trkpt>
      <trkpt lat="44.38073" lon="5.94457">
        <ele>544</ele>
        <time>2019-04-09T13:11:25Z</time>
      </trkpt>
      <trkpt lat="44.38077" lon="5.94448">
        <ele>544</ele>
        <time>2019-04-09T13:11:26Z</time>
      </trkpt>
      <trkpt lat="44.38082" lon="5.9444">
        <ele>544</ele>
        <time>2019-04-09T13:11:27Z</time>
      </trkpt>
      <trkpt lat="44.38088" lon="5.94433">
        <ele>544</ele>
        <time>2019-04-09T13:11:28Z</time>
      </trkpt>
      <trkpt lat="44.38094" lon="5.94427">
        <ele>544</ele>
        <time>2019-04-09T13:11:29Z</time>
      </trkpt>
      <trkpt lat="44.38101" lon="5.94423">
        <ele>544</ele>
        <time>2019-04-09T13:11:30Z</time>
      </trkpt>
      <trkpt lat="44.38108" lon="5.9442">
        <ele>544</ele>
        <time>2019-04-09T13:11:31Z</time>
      </trkpt>
      <trkpt lat="44.38116" lon="5.94417">
        <ele>544</ele>
        <time>2019-04-09T13:11:32Z</time>
      </trkpt>
      <trkpt lat="44.38124" lon="5.94414">
        <ele>544</ele>
        <time>2019-04-09T13:11:33Z</time>
      </trkpt>
      <trkpt lat="44.38131" lon="5.94411">
        <ele>543</ele>
        <time>2019-04-09T13:11:34Z</time>
      </trkpt>
      <trkpt lat="44.38139" lon="5.94406">
        <ele>543</ele>
        <time>2019-04-09T13:11:35Z</time>
      </trkpt>
      <trkpt lat="44.38146" lon="5.94401">
        <ele>543</ele>
        <time>2019-04-09T13:11:36Z</time>
      </trkpt>
      <trkpt lat="44.38153" lon="5.94395">
        <ele>543</ele>
        <time>2019-04-09T13:11:37Z</time>
      </trkpt>
      <trkpt lat="44.3816" lon="5.94388">
        <ele>543</ele>
        <time>2019-04-09T13:11:38Z</time>
      </trkpt>
      <trkpt lat="44.38166" lon="5.94382">
        <ele>542</ele>
        <time>2019-04-09T13:11:39Z</time>
      </trkpt>
      <trkpt lat="44.38173" lon="5.94375">
        <ele>542</ele>
        <time>2019-04-09T13:11:40Z</time>
      </trkpt>
      <trkpt lat="44.38179" lon="5.94369">
        <ele>542</ele>
        <time>2019-04-09T13:11:41Z</time>
      </trkpt>
      <trkpt lat="44.38186" lon="5.94362">
        <ele>542</ele>
        <time>2019-04-09T13:11:42Z</time>
      </trkpt>
      <trkpt lat="44.38192" lon="5.94355">
        <ele>542</ele>
        <time>2019-04-09T13:11:43Z</time>
      </trkpt>
      <trkpt lat="44.38198" lon="5.94349">
        <ele>542</ele>
        <time>2019-04-09T13:11:44Z</time>
      </trkpt>
      <trkpt lat="44.38204" lon="5.94342">
        <ele>542</ele>
        <time>2019-04-09T13:11:45Z</time>
      </trkpt>
      <trkpt lat="44.3821" lon="5.94336">
        <ele>542</ele>
        <time>2019-04-09T13:11:46Z</time>
      </trkpt>
      <trkpt lat="44.38216" lon="5.94329">
        <ele>542</ele>
        <time>2019-04-09T13:11:47Z</time>
      </trkpt>
      <trkpt lat="44.38221" lon="5.94322">
        <ele>542</ele>
        <time>2019-04-09T13:11:48Z</time>
      </trkpt>
      <trkpt lat="44.38227" lon="5.94315">
        <ele>542</ele>
        <time>2019-04-09T13:11:49Z</time>
      </trkpt>
      <trkpt lat="44.38231" lon="5.94307">
        <ele>542</ele>
        <time>2019-04-09T13:11:50Z</time>
      </trkpt>
      <trkpt lat="44.38236" lon="5.94299">
        <ele>542</ele>
        <time>2019-04-09T13:11:51Z</time>
      </trkpt>
      <trkpt lat="44.3824" lon="5.94291">
        <ele>542</ele>
        <time>2019-04-09T13:11:52Z</time>
      </trkpt>
      <trkpt lat="44.38244" lon="5.94283">
        <ele>542</ele>
        <time>2019-04-09T13:11:53Z</time>
      </trkpt>
      <trkpt lat="44.38248" lon="5.94275">
        <ele>542</ele>
        <time>2019-04-09T13:11:54Z</time>
      </trkpt>
      <trkpt lat="44.38252" lon="5.94267">
        <ele>542</ele>
        <time>2019-04-09T13:11:55Z</time>
      </trkpt>
      <trkpt lat="44.38255" lon="5.94259">
        <ele>542</ele>
        <time>2019-04-09T13:11:56Z</time>
      </trkpt>
      <trkpt lat="44.38259" lon="5.94251">
        <ele>542</ele>
        <time>2019-04-09T13:11:57Z</time>
      </trkpt>
      <trkpt lat="44.38263" lon="5.94244">
        <ele>542</ele>
        <time>2019-04-09T13:11:58Z</time>
      </trkpt>
      <trkpt lat="44.38266" lon="5.94236">
        <ele>542</ele>
        <time>2019-04-09T13:11:59Z</time>
      </trkpt>
      <trkpt lat="44.3827" lon="5.94228">
        <ele>542</ele>
        <time>2019-04-09T13:12:00Z</time>
      </trkpt>
      <trkpt lat="44.38274" lon="5.94221">
        <ele>542</ele>
        <time>2019-04-09T13:12:01Z</time>
      </trkpt>
      <trkpt lat="44.38278" lon="5.94213">
        <ele>542</ele>
        <time>2019-04-09T13:12:02Z</time>
      </trkpt>
      <trkpt lat="44.38282" lon="5.94206">
        <ele>542</ele>
        <time>2019-04-09T13:12:03Z</time>
      </trkpt>
      <trkpt lat="44.38285" lon="5.94198">
        <ele>542</ele>
        <time>2019-04-09T13:12:04Z</time>
      </trkpt>
      <trkpt lat="44.38289" lon="5.94191">
        <ele>542</ele>
        <time>2019-04-09T13:12:05Z</time>
      </trkpt>
      <trkpt lat="44.38292" lon="5.94183">
        <ele>542</ele>
        <time>2019-04-09T13:12:06Z</time>
      </trkpt>
      <trkpt lat="44.38296" lon="5.94176">
        <ele>542</ele>
        <time>2019-04-09T13:12:07Z</time>
      </trkpt>
      <trkpt lat="44.383" lon="5.94169">
        <ele>542</ele>
        <time>2019-04-09T13:12:08Z</time>
      </trkpt>
      <trkpt lat="44.38304" lon="5.94161">
        <ele>542</ele>
        <time>2019-04-09T13:12:09Z</time>
      </trkpt>
      <trkpt lat="44.38308" lon="5.94155">
        <ele>542</ele>
        <time>2019-04-09T13:12:10Z</time>
      </trkpt>
      <trkpt lat="44.38312" lon="5.9415">
        <ele>542</ele>
        <time>2019-04-09T13:12:11Z</time>
      </trkpt>
      <trkpt lat="44.38316" lon="5.94145">
        <ele>542</ele>
        <time>2019-04-09T13:12:12Z</time>
      </trkpt>
      <trkpt lat="44.38321" lon="5.94142">
        <ele>542</ele>
        <time>2019-04-09T13:12:13Z</time>
      </trkpt>
      <trkpt lat="44.38326" lon="5.94141">
        <ele>542</ele>
        <time>2019-04-09T13:12:14Z</time>
      </trkpt>
      <trkpt lat="44.38331" lon="5.94142">
        <ele>542</ele>
        <time>2019-04-09T13:12:15Z</time>
      </trkpt>
      <trkpt lat="44.38336" lon="5.94144">
        <ele>542</ele>
        <time>2019-04-09T13:12:16Z</time>
      </trkpt>
      <trkpt lat="44.38341" lon="5.94148">
        <ele>542</ele>
        <time>2019-04-09T13:12:17Z</time>
      </trkpt>
      <trkpt lat="44.38345" lon="5.94153">
        <ele>542</ele>
        <time>2019-04-09T13:12:18Z</time>
      </trkpt>
      <trkpt lat="44.38349" lon="5.94158">
        <ele>542</ele>
        <time>2019-04-09T13:12:19Z</time>
      </trkpt>
      <trkpt lat="44.38352" lon="5.94164">
        <ele>542</ele>
        <time>2019-04-09T13:12:20Z</time>
      </trkpt>
      <trkpt lat="44.38355" lon="5.9417">
        <ele>542</ele>
        <time>2019-04-09T13:12:21Z</time>
      </trkpt>
      <trkpt lat="44.38358" lon="5.94176">
        <ele>542</ele>
        <time>2019-04-09T13:12:22Z</time>
      </trkpt>
      <trkpt lat="44.38361" lon="5.94183">
        <ele>542</ele>
        <time>2019-04-09T13:12:23Z</time>
      </trkpt>
      <trkpt lat="44.38363" lon="5.94189">
        <ele>542</ele>
        <time>2019-04-09T13:12:24Z</time>
      </trkpt>
      <trkpt lat="44.38365" lon="5.94196">
        <ele>542</ele>
        <time>2019-04-09T13:12:25Z</time>
      </trkpt>
      <trkpt lat="44.38368" lon="5.94202">
        <ele>542</ele>
        <time>2019-04-09T13:12:26Z</time>
      </trkpt>
      <trkpt lat="44.3837" lon="5.94207">
        <ele>542</ele>
        <time>2019-04-09T13:12:27Z</time>
      </trkpt>
      <trkpt lat="44.38372" lon="5.94212">
        <ele>542</ele>
        <time>2019-04-09T13:12:28Z</time>
      </trkpt>
      <trkpt lat="44.38375" lon="5.94218">
        <ele>542</ele>
        <time>2019-04-09T13:12:29Z</time>
      </trkpt>
      <trkpt lat="44.38378" lon="5.94223">
        <ele>542</ele>
        <time>2019-04-09T13:12:30Z</time>
      </trkpt>
      <trkpt lat="44.38381" lon="5.94228">
        <ele>542</ele>
        <time>2019-04-09T13:12:31Z</time>
      </trkpt>
      <trkpt lat="44.38384" lon="5.94233">
        <ele>542</ele>
        <time>2019-04-09T13:12:32Z</time>
      </trkpt>
      <trkpt lat="44.38388" lon="5.94238">
        <ele>542</ele>
        <time>2019-04-09T13:12:33Z</time>
      </trkpt>
      <trkpt lat="44.38391" lon="5.94242">
        <ele>542</ele>
        <time>2019-04-09T13:12:34Z</time>
      </trkpt>
      <trkpt lat="44.38395" lon="5.94246">
        <ele>542</ele>
        <time>2019-04-09T13:12:35Z</time>
      </trkpt>
      <trkpt lat="44.38399" lon="5.94249">
        <ele>542</ele>
        <time>2019-04-09T13:12:36Z</time>
      </trkpt>
      <trkpt lat="44.38403" lon="5.94252">
        <ele>542</ele>
        <time>2019-04-09T13:12:37Z</time>
      </trkpt>
      <trkpt lat="44.38407" lon="5.94254">
        <ele>542</ele>
        <time>2019-04-09T13:12:38Z</time>
      </trkpt>
      <trkpt lat="44.38411" lon="5.94257">
        <ele>543</ele>
        <time>2019-04-09T13:12:39Z</time>
      </trkpt>
      <trkpt lat="44.38415" lon="5.9426">
        <ele>543</ele>
        <time>2019-04-09T13:12:40Z</time>
      </trkpt>
      <trkpt lat="44.38419" lon="5.94263">
        <ele>543</ele>
        <time>2019-04-09T13:12:41Z</time>
      </trkpt>
      <trkpt lat="44.38424" lon="5.94266">
        <ele>544</ele>
        <time>2019-04-09T13:12:42Z</time>
      </trkpt>
      <trkpt lat="44.38427" lon="5.94268">
        <ele>544</ele>
        <time>2019-04-09T13:12:43Z</time>
      </trkpt>
      <trkpt lat="44.38431" lon="5.94271">
        <ele>544</ele>
        <time>2019-04-09T13:12:44Z</time>
      </trkpt>
      <trkpt lat="44.38435" lon="5.94273">
        <ele>544</ele>
        <time>2019-04-09T13:12:45Z</time>
      </trkpt>
      <trkpt lat="44.3844" lon="5.94276">
        <ele>544</ele>
        <time>2019-04-09T13:12:46Z</time>
      </trkpt>
      <trkpt lat="44.38445" lon="5.94278">
        <ele>544</ele>
        <time>2019-04-09T13:12:47Z</time>
      </trkpt>
      <trkpt lat="44.38448" lon="5.94281">
        <ele>545</ele>
        <time>2019-04-09T13:12:48Z</time>
      </trkpt>
      <trkpt lat="44.38452" lon="5.94283">
        <ele>545</ele>
        <time>2019-04-09T13:12:49Z</time>
      </trkpt>
      <trkpt lat="44.38456" lon="5.94285">
        <ele>546</ele>
        <time>2019-04-09T13:12:50Z</time>
      </trkpt>
      <trkpt lat="44.38459" lon="5.94286">
        <ele>546</ele>
        <time>2019-04-09T13:12:51Z</time>
      </trkpt>
      <trkpt lat="44.38463" lon="5.94286">
        <ele>546</ele>
        <time>2019-04-09T13:12:52Z</time>
      </trkpt>
      <trkpt lat="44.38466" lon="5.94286">
        <ele>546</ele>
        <time>2019-04-09T13:12:53Z</time>
      </trkpt>
      <trkpt lat="44.3847" lon="5.94285">
        <ele>547</ele>
        <time>2019-04-09T13:12:54Z</time>
      </trkpt>
      <trkpt lat="44.38474" lon="5.94284">
        <ele>547</ele>
        <time>2019-04-09T13:12:55Z</time>
      </trkpt>
      <trkpt lat="44.38477" lon="5.94282">
        <ele>547</ele>
        <time>2019-04-09T13:12:56Z</time>
      </trkpt>
      <trkpt lat="44.3848" lon="5.9428">
        <ele>547</ele>
        <time>2019-04-09T13:12:57Z</time>
      </trkpt>
      <trkpt lat="44.38482" lon="5.94277">
        <ele>547</ele>
        <time>2019-04-09T13:12:58Z</time>
      </trkpt>
      <trkpt lat="44.38485" lon="5.94275">
        <ele>548</ele>
        <time>2019-04-09T13:12:59Z</time>
      </trkpt>
      <trkpt lat="44.38486" lon="5.94271">
        <ele>548</ele>
        <time>2019-04-09T13:13:00Z</time>
      </trkpt>
      <trkpt lat="44.38488" lon="5.94267">
        <ele>548</ele>
        <time>2019-04-09T13:13:01Z</time>
      </trkpt>
      <trkpt lat="44.38489" lon="5.94264">
        <ele>548</ele>
        <time>2019-04-09T13:13:02Z</time>
      </trkpt>
      <trkpt lat="44.3849" lon="5.94259">
        <ele>548</ele>
        <time>2019-04-09T13:13:03Z</time>
      </trkpt>
      <trkpt lat="44.3849" lon="5.94255">
        <ele>548</ele>
        <time>2019-04-09T13:13:04Z</time>
      </trkpt>
      <trkpt lat="44.3849" lon="5.94251">
        <ele>549</ele>
        <time>2019-04-09T13:13:05Z</time>
      </trkpt>
      <trkpt lat="44.3849" lon="5.94247">
        <ele>549</ele>
        <time>2019-04-09T13:13:06Z</time>
      </trkpt>
      <trkpt lat="44.3849" lon="5.94242">
        <ele>549</ele>
        <time>2019-04-09T13:13:07Z</time>
      </trkpt>
      <trkpt lat="44.3849" lon="5.94238">
        <ele>549</ele>
        <time>2019-04-09T13:13:08Z</time>
      </trkpt>
      <trkpt lat="44.3849" lon="5.94233">
        <ele>549</ele>
        <time>2019-04-09T13:13:09Z</time>
      </trkpt>
      <trkpt lat="44.3849" lon="5.94228">
        <ele>550</ele>
        <time>2019-04-09T13:13:10Z</time>
      </trkpt>
      <trkpt lat="44.3849" lon="5.94223">
        <ele>550</ele>
        <time>2019-04-09T13:13:11Z</time>
      </trkpt>
      <trkpt lat="44.38491" lon="5.94219">
        <ele>550</ele>
        <time>2019-04-09T13:13:12Z</time>
      </trkpt>
      <trkpt lat="44.38491" lon="5.94214">
        <ele>551</ele>
        <time>2019-04-09T13:13:13Z</time>
      </trkpt>
      <trkpt lat="44.38492" lon="5.9421">
        <ele>551</ele>
        <time>2019-04-09T13:13:14Z</time>
      </trkpt>
      <trkpt lat="44.38493" lon="5.94205">
        <ele>551</ele>
        <time>2019-04-09T13:13:15Z</time>
      </trkpt>
      <trkpt lat="44.38494" lon="5.942">
        <ele>552</ele>
        <time>2019-04-09T13:13:16Z</time>
      </trkpt>
      <trkpt lat="44.38495" lon="5.94194">
        <ele>552</ele>
        <time>2019-04-09T13:13:17Z</time>
      </trkpt>
      <trkpt lat="44.38496" lon="5.94188">
        <ele>552</ele>
        <time>2019-04-09T13:13:18Z</time>
      </trkpt>
      <trkpt lat="44.38497" lon="5.94183">
        <ele>552</ele>
        <time>2019-04-09T13:13:19Z</time>
      </trkpt>
      <trkpt lat="44.38498" lon="5.94177">
        <ele>553</ele>
        <time>2019-04-09T13:13:20Z</time>
      </trkpt>
      <trkpt lat="44.38499" lon="5.9417">
        <ele>553</ele>
        <time>2019-04-09T13:13:21Z</time>
      </trkpt>
      <trkpt lat="44.385" lon="5.94162">
        <ele>553</ele>
        <time>2019-04-09T13:13:22Z</time>
      </trkpt>
      <trkpt lat="44.38501" lon="5.94154">
        <ele>553</ele>
        <time>2019-04-09T13:13:23Z</time>
      </trkpt>
      <trkpt lat="44.38503" lon="5.94147">
        <ele>553</ele>
        <time>2019-04-09T13:13:24Z</time>
      </trkpt>
      <trkpt lat="44.38504" lon="5.94139">
        <ele>553</ele>
        <time>2019-04-09T13:13:25Z</time>
      </trkpt>
      <trkpt lat="44.38505" lon="5.94132">
        <ele>553</ele>
        <time>2019-04-09T13:13:26Z</time>
      </trkpt>
      <trkpt lat="44.38505" lon="5.94125">
        <ele>553</ele>
        <time>2019-04-09T13:13:27Z</time>
      </trkpt>
      <trkpt lat="44.38506" lon="5.94117">
        <ele>553</ele>
        <time>2019-04-09T13:13:28Z</time>
      </trkpt>
      <trkpt lat="44.38506" lon="5.9411">
        <ele>553</ele>
        <time>2019-04-09T13:13:29Z</time>
      </trkpt>
      <trkpt lat="44.38507" lon="5.94102">
        <ele>553</ele>
        <time>2019-04-09T13:13:30Z</time>
      </trkpt>
      <trkpt lat="44.38508" lon="5.94095">
        <ele>553</ele>
        <time>2019-04-09T13:13:31Z</time>
      </trkpt>
      <trkpt lat="44.38509" lon="5.94087">
        <ele>553</ele>
        <time>2019-04-09T13:13:32Z</time>
      </trkpt>
      <trkpt lat="44.38509" lon="5.94079">
        <ele>553</ele>
        <time>2019-04-09T13:13:33Z</time>
      </trkpt>
      <trkpt lat="44.38509" lon="5.94071">
        <ele>553</ele>
        <time>2019-04-09T13:13:34Z</time>
      </trkpt>
      <trkpt lat="44.38509" lon="5.94063">
        <ele>553</ele>
        <time>2019-04-09T13:13:35Z</time>
      </trkpt>
      <trkpt lat="44.3851" lon="5.94054">
        <ele>553</ele>
        <time>2019-04-09T13:13:36Z</time>
      </trkpt>
      <trkpt lat="44.3851" lon="5.94046">
        <ele>553</ele>
        <time>2019-04-09T13:13:37Z</time>
      </trkpt>
      <trkpt lat="44.3851" lon="5.94037">
        <ele>553</ele>
        <time>2019-04-09T13:13:38Z</time>
      </trkpt>
      <trkpt lat="44.3851" lon="5.94028">
        <ele>553</ele>
        <time>2019-04-09T13:13:39Z</time>
      </trkpt>
      <trkpt lat="44.3851" lon="5.94019">
        <ele>553</ele>
        <time>2019-04-09T13:13:40Z</time>
      </trkpt>
      <trkpt lat="44.38509" lon="5.94011">
        <ele>553</ele>
        <time>2019-04-09T13:13:41Z</time>
      </trkpt>
      <trkpt lat="44.38508" lon="5.94002">
        <ele>553</ele>
        <time>2019-04-09T13:13:42Z</time>
      </trkpt>
      <trkpt lat="44.38507" lon="5.93993">
        <ele>553</ele>
        <time>2019-04-09T13:13:43Z</time>
      </trkpt>
      <trkpt lat="44.38506" lon="5.93985">
        <ele>553</ele>
        <time>2019-04-09T13:13:44Z</time>
      </trkpt>
      <trkpt lat="44.38505" lon="5.93976">
        <ele>553</ele>
        <time>2019-04-09T13:13:45Z</time>
      </trkpt>
      <trkpt lat="44.38505" lon="5.93968">
        <ele>553</ele>
        <time>2019-04-09T13:13:46Z</time>
      </trkpt>
      <trkpt lat="44.38506" lon="5.9396">
        <ele>553</ele>
        <time>2019-04-09T13:13:47Z</time>
      </trkpt>
      <trkpt lat="44.38508" lon="5.93953">
        <ele>553</ele>
        <time>2019-04-09T13:13:48Z</time>
      </trkpt>
      <trkpt lat="44.38512" lon="5.93947">
        <ele>553</ele>
        <time>2019-04-09T13:13:49Z</time>
      </trkpt>
      <trkpt lat="44.38517" lon="5.93944">
        <ele>553</ele>
        <time>2019-04-09T13:13:50Z</time>
      </trkpt>
      <trkpt lat="44.38521" lon="5.93941">
        <ele>553</ele>
        <time>2019-04-09T13:13:51Z</time>
      </trkpt>
      <trkpt lat="44.38525" lon="5.93939">
        <ele>553</ele>
        <time>2019-04-09T13:13:52Z</time>
      </trkpt>
      <trkpt lat="44.38529" lon="5.93938">
        <ele>553</ele>
        <time>2019-04-09T13:13:53Z</time>
      </trkpt>
      <trkpt lat="44.38533" lon="5.93937">
        <ele>553</ele>
        <time>2019-04-09T13:13:54Z</time>
      </trkpt>
      <trkpt lat="44.38537" lon="5.93936">
        <ele>553</ele>
        <time>2019-04-09T13:13:55Z</time>
      </trkpt>
      <trkpt lat="44.38541" lon="5.93935">
        <ele>553</ele>
        <time>2019-04-09T13:13:56Z</time>
      </trkpt>
      <trkpt lat="44.38545" lon="5.93934">
        <ele>553</ele>
        <time>2019-04-09T13:13:57Z</time>
      </trkpt>
      <trkpt lat="44.38549" lon="5.93933">
        <ele>553</ele>
        <time>2019-04-09T13:13:58Z</time>
      </trkpt>
      <trkpt lat="44.38553" lon="5.93932">
        <ele>553</ele>
        <time>2019-04-09T13:13:59Z</time>
      </trkpt>
      <trkpt lat="44.38557" lon="5.93932">
        <ele>553</ele>
        <time>2019-04-09T13:14:00Z</time>
      </trkpt>
      <trkpt lat="44.3856" lon="5.93931">
        <ele>553</ele>
        <time>2019-04-09T13:14:01Z</time>
      </trkpt>
      <trkpt lat="44.38564" lon="5.93931">
        <ele>553</ele>
        <time>2019-04-09T13:14:02Z</time>
      </trkpt>
      <trkpt lat="44.38568" lon="5.9393">
        <ele>553</ele>
        <time>2019-04-09T13:14:03Z</time>
      </trkpt>
      <trkpt lat="44.38571" lon="5.93929">
        <ele>553</ele>
        <time>2019-04-09T13:14:04Z</time>
      </trkpt>
      <trkpt lat="44.38575" lon="5.93929">
        <ele>553</ele>
        <time>2019-04-09T13:14:05Z</time>
      </trkpt>
      <trkpt lat="44.38578" lon="5.93928">
        <ele>553</ele>
        <time>2019-04-09T13:14:06Z</time>
      </trkpt>
      <trkpt lat="44.38582" lon="5.93927">
        <ele>553</ele>
        <time>2019-04-09T13:14:07Z</time>
      </trkpt>
      <trkpt lat="44.38585" lon="5.93926">
        <ele>553</ele>
        <time>2019-04-09T13:14:08Z</time>
      </trkpt>
      <trkpt lat="44.38589" lon="5.93926">
        <ele>553</ele>
        <time>2019-04-09T13:14:09Z</time>
      </trkpt>
      <trkpt lat="44.38592" lon="5.93925">
        <ele>554</ele>
        <time>2019-04-09T13:14:10Z</time>
      </trkpt>
      <trkpt lat="44.38596" lon="5.93924">
        <ele>554</ele>
        <time>2019-04-09T13:14:11Z</time>
      </trkpt>
      <trkpt lat="44.38599" lon="5.93924">
        <ele>554</ele>
        <time>2019-04-09T13:14:12Z</time>
      </trkpt>
      <trkpt lat="44.38603" lon="5.93923">
        <ele>554</ele>
        <time>2019-04-09T13:14:13Z</time>
      </trkpt>
      <trkpt lat="44.38607" lon="5.93923">
        <ele>555</ele>
        <time>2019-04-09T13:14:14Z</time>
      </trkpt>
      <trkpt lat="44.3861" lon="5.93922">
        <ele>555</ele>
        <time>2019-04-09T13:14:15Z</time>
      </trkpt>
      <trkpt lat="44.38614" lon="5.93921">
        <ele>555</ele>
        <time>2019-04-09T13:14:16Z</time>
      </trkpt>
      <trkpt lat="44.38617" lon="5.93921">
        <ele>556</ele>
        <time>2019-04-09T13:14:17Z</time>
      </trkpt>
      <trkpt lat="44.3862" lon="5.93921">
        <ele>556</ele>
        <time>2019-04-09T13:14:18Z</time>
      </trkpt>
      <trkpt lat="44.38624" lon="5.9392">
        <ele>556</ele>
        <time>2019-04-09T13:14:19Z</time>
      </trkpt>
      <trkpt lat="44.38627" lon="5.93919">
        <ele>557</ele>
        <time>2019-04-09T13:14:20Z</time>
      </trkpt>
      <trkpt lat="44.38631" lon="5.93919">
        <ele>557</ele>
        <time>2019-04-09T13:14:21Z</time>
      </trkpt>
      <trkpt lat="44.38634" lon="5.93918">
        <ele>557</ele>
        <time>2019-04-09T13:14:22Z</time>
      </trkpt>
      <trkpt lat="44.38637" lon="5.93918">
        <ele>557</ele>
        <time>2019-04-09T13:14:23Z</time>
      </trkpt>
      <trkpt lat="44.3864" lon="5.93918">
        <ele>558</ele>
        <time>2019-04-09T13:14:24Z</time>
      </trkpt>
      <trkpt lat="44.38644" lon="5.93917">
        <ele>558</ele>
        <time>2019-04-09T13:14:25Z</time>
      </trkpt>
      <trkpt lat="44.38647" lon="5.93917">
        <ele>558</ele>
        <time>2019-04-09T13:14:26Z</time>
      </trkpt>
      <trkpt lat="44.3865" lon="5.93916">
        <ele>559</ele>
        <time>2019-04-09T13:14:27Z</time>
      </trkpt>
      <trkpt lat="44.38653" lon="5.93915">
        <ele>559</ele>
        <time>2019-04-09T13:14:28Z</time>
      </trkpt>
      <trkpt lat="44.38657" lon="5.93914">
        <ele>559</ele>
        <time>2019-04-09T13:14:29Z</time>
      </trkpt>
      <trkpt lat="44.3866" lon="5.93913">
        <ele>560</ele>
        <time>2019-04-09T13:14:30Z</time>
      </trkpt>
      <trkpt lat="44.38663" lon="5.93912">
        <ele>560</ele>
        <time>2019-04-09T13:14:31Z</time>
      </trkpt>
      <trkpt lat="44.38666" lon="5.93911">
        <ele>560</ele>
        <time>2019-04-09T13:14:32Z</time>
      </trkpt>
      <trkpt lat="44.38669" lon="5.9391">
        <ele>561</ele>
        <time>2019-04-09T13:14:33Z</time>
      </trkpt>
      <trkpt lat="44.38672" lon="5.93908">
        <ele>561</ele>
        <time>2019-04-09T13:14:34Z</time>
      </trkpt>
      <trkpt lat="44.38675" lon="5.93906">
        <ele>561</ele>
        <time>2019-04-09T13:14:35Z</time>
      </trkpt>
      <trkpt lat="44.38678" lon="5.93904">
        <ele>561</ele>
        <time>2019-04-09T13:14:36Z</time>
      </trkpt>
      <trkpt lat="44.38681" lon="5.93902">
        <ele>562</ele>
        <time>2019-04-09T13:14:37Z</time>
      </trkpt>
      <trkpt lat="44.38683" lon="5.93899">
        <ele>562</ele>
        <time>2019-04-09T13:14:38Z</time>
      </trkpt>
      <trkpt lat="44.38686" lon="5.93896">
        <ele>562</ele>
        <time>2019-04-09T13:14:39Z</time>
      </trkpt>
      <trkpt lat="44.38688" lon="5.93893">
        <ele>563</ele>
        <time>2019-04-09T13:14:40Z</time>
      </trkpt>
      <trkpt lat="44.38689" lon="5.93889">
        <ele>563</ele>
        <time>2019-04-09T13:14:41Z</time>
      </trkpt>
      <trkpt lat="44.38691" lon="5.93886">
        <ele>563</ele>
        <time>2019-04-09T13:14:42Z</time>
      </trkpt>
      <trkpt lat="44.38692" lon="5.93882">
        <ele>564</ele>
        <time>2019-04-09T13:14:43Z</time>
      </trkpt>
      <trkpt lat="44.38693" lon="5.93877">
        <ele>564</ele>
        <time>2019-04-09T13:14:44Z</time>
      </trkpt>
      <trkpt lat="44.38693" lon="5.93873">
        <ele>564</ele>
        <time>2019-04-09T13:14:45Z</time>
      </trkpt>
      <trkpt lat="44.38692" lon="5.93868">
        <ele>565</ele>
        <time>2019-04-09T13:14:46Z</time>
      </trkpt>
      <trkpt lat="44.38692" lon="5.93864">
        <ele>565</ele>
        <time>2019-04-09T13:14:47Z</time>
      </trkpt>
      <trkpt lat="44.38692" lon="5.93859">
        <ele>565</ele>
        <time>2019-04-09T13:14:48Z</time>
      </trkpt>
      <trkpt lat="44.38693" lon="5.93854">
        <ele>565</ele>
        <time>2019-04-09T13:14:49Z</time>
      </trkpt>
      <trkpt lat="44.38693" lon="5.9385">
        <ele>566</ele>
        <time>2019-04-09T13:14:50Z</time>
      </trkpt>
      <trkpt lat="44.38695" lon="5.93845">
        <ele>566</ele>
        <time>2019-04-09T13:14:51Z</time>
      </trkpt>
      <trkpt lat="44.38697" lon="5.93841">
        <ele>566</ele>
        <time>2019-04-09T13:14:52Z</time>
      </trkpt>
      <trkpt lat="44.38698" lon="5.93837">
        <ele>566</ele>
        <time>2019-04-09T13:14:53Z</time>
      </trkpt>
      <trkpt lat="44.38699" lon="5.93832">
        <ele>566</ele>
        <time>2019-04-09T13:14:54Z</time>
      </trkpt>
      <trkpt lat="44.38699" lon="5.93827">
        <ele>566</ele>
        <time>2019-04-09T13:14:55Z</time>
      </trkpt>
      <trkpt lat="44.38699" lon="5.93823">
        <ele>566</ele>
        <time>2019-04-09T13:14:56Z</time>
      </trkpt>
      <trkpt lat="44.38699" lon="5.93818">
        <ele>566</ele>
        <time>2019-04-09T13:14:57Z</time>
      </trkpt>
      <trkpt lat="44.38699" lon="5.93813">
        <ele>567</ele>
        <time>2019-04-09T13:14:58Z</time>
      </trkpt>
      <trkpt lat="44.38699" lon="5.93809">
        <ele>567</ele>
        <time>2019-04-09T13:14:59Z</time>
      </trkpt>
      <trkpt lat="44.38699" lon="5.93805">
        <ele>567</ele>
        <time>2019-04-09T13:15:00Z</time>
      </trkpt>
      <trkpt lat="44.387" lon="5.938">
        <ele>567</ele>
        <time>2019-04-09T13:15:01Z</time>
      </trkpt>
      <trkpt lat="44.387" lon="5.93796">
        <ele>568</ele>
        <time>2019-04-09T13:15:02Z</time>
      </trkpt>
      <trkpt lat="44.387" lon="5.93792">
        <ele>568</ele>
        <time>2019-04-09T13:15:03Z</time>
      </trkpt>
      <trkpt lat="44.387" lon="5.93788">
        <ele>568</ele>
        <time>2019-04-09T13:15:04Z</time>
      </trkpt>
      <trkpt lat="44.387" lon="5.93784">
        <ele>568</ele>
        <time>2019-04-09T13:15:05Z</time>
      </trkpt>
      <trkpt lat="44.387" lon="5.93779">
        <ele>568</ele>
        <time>2019-04-09T13:15:06Z</time>
      </trkpt>
      <trkpt lat="44.387" lon="5.93775">
        <ele>568</ele>
        <time>2019-04-09T13:15:07Z</time>
      </trkpt>
      <trkpt lat="44.387" lon="5.9377">
        <ele>569</ele>
        <time>2019-04-09T13:15:08Z</time>
      </trkpt>
      <trkpt lat="44.38701" lon="5.93765">
        <ele>569</ele>
        <time>2019-04-09T13:15:09Z</time>
      </trkpt>
      <trkpt lat="44.38701" lon="5.93761">
        <ele>569</ele>
        <time>2019-04-09T13:15:10Z</time>
      </trkpt>
      <trkpt lat="44.38701" lon="5.93756">
        <ele>569</ele>
        <time>2019-04-09T13:15:11Z</time>
      </trkpt>
      <trkpt lat="44.38701" lon="5.93751">
        <ele>569</ele>
        <time>2019-04-09T13:15:12Z</time>
      </trkpt>
      <trkpt lat="44.38702" lon="5.93747">
        <ele>569</ele>
        <time>2019-04-09T13:15:13Z</time>
      </trkpt>
      <trkpt lat="44.38702" lon="5.93742">
        <ele>569</ele>
        <time>2019-04-09T13:15:14Z</time>
      </trkpt>
      <trkpt lat="44.38702" lon="5.93738">
        <ele>569</ele>
        <time>2019-04-09T13:15:15Z</time>
      </trkpt>
      <trkpt lat="44.38703" lon="5.93733">
        <ele>569</ele>
        <time>2019-04-09T13:15:16Z</time>
      </trkpt>
      <trkpt lat="44.38703" lon="5.93729">
        <ele>570</ele>
        <time>2019-04-09T13:15:17Z</time>
      </trkpt>
      <trkpt lat="44.38703" lon="5.93724">
        <ele>570</ele>
        <time>2019-04-09T13:15:18Z</time>
      </trkpt>
      <trkpt lat="44.38702" lon="5.93719">
        <ele>570</ele>
        <time>2019-04-09T13:15:19Z</time>
      </trkpt>
      <trkpt lat="44.38702" lon="5.93714">
        <ele>570</ele>
        <time>2019-04-09T13:15:20Z</time>
      </trkpt>
      <trkpt lat="44.38702" lon="5.93709">
        <ele>570</ele>
        <time>2019-04-09T13:15:21Z</time>
      </trkpt>
      <trkpt lat="44.38702" lon="5.93704">
        <ele>570</ele>
        <time>2019-04-09T13:15:22Z</time>
      </trkpt>
      <trkpt lat="44.38702" lon="5.93699">
        <ele>570</ele>
        <time>2019-04-09T13:15:23Z</time>
      </trkpt>
      <trkpt lat="44.38702" lon="5.93694">
        <ele>571</ele>
        <time>2019-04-09T13:15:24Z</time>
      </trkpt>
      <trkpt lat="44.38702" lon="5.93689">
        <ele>571</ele>
        <time>2019-04-09T13:15:25Z</time>
      </trkpt>
      <trkpt lat="44.38702" lon="5.93684">
        <ele>571</ele>
        <time>2019-04-09T13:15:26Z</time>
      </trkpt>
      <trkpt lat="44.38702" lon="5.93678">
        <ele>571</ele>
        <time>2019-04-09T13:15:27Z</time>
      </trkpt>
      <trkpt lat="44.38702" lon="5.93673">
        <ele>571</ele>
        <time>2019-04-09T13:15:28Z</time>
      </trkpt>
      <trkpt lat="44.38703" lon="5.93668">
        <ele>571</ele>
        <time>2019-04-09T13:15:29Z</time>
      </trkpt>
      <trkpt lat="44.38703" lon="5.93662">
        <ele>571</ele>
        <time>2019-04-09T13:15:30Z</time>
      </trkpt>
      <trkpt lat="44.38703" lon="5.93656">
        <ele>571</ele>
        <time>2019-04-09T13:15:31Z</time>
      </trkpt>
      <trkpt lat="44.38703" lon="5.93651">
        <ele>571</ele>
        <time>2019-04-09T13:15:32Z</time>
      </trkpt>
      <trkpt lat="44.38703" lon="5.93646">
        <ele>571</ele>
        <time>2019-04-09T13:15:33Z</time>
      </trkpt>
      <trkpt lat="44.38704" lon="5.9364">
        <ele>571</ele>
        <time>2019-04-09T13:15:34Z</time>
      </trkpt>
      <trkpt lat="44.38704" lon="5.93635">
        <ele>571</ele>
        <time>2019-04-09T13:15:35Z</time>
      </trkpt>
      <trkpt lat="44.38704" lon="5.93629">
        <ele>571</ele>
        <time>2019-04-09T13:15:36Z</time>
      </trkpt>
      <trkpt lat="44.38705" lon="5.93623">
        <ele>571</ele>
        <time>2019-04-09T13:15:37Z</time>
      </trkpt>
      <trkpt lat="44.38705" lon="5.93618">
        <ele>571</ele>
        <time>2019-04-09T13:15:38Z</time>
      </trkpt>
      <trkpt lat="44.38705" lon="5.93612">
        <ele>571</ele>
        <time>2019-04-09T13:15:39Z</time>
      </trkpt>
      <trkpt lat="44.38706" lon="5.93607">
        <ele>571</ele>
        <time>2019-04-09T13:15:40Z</time>
      </trkpt>
      <trkpt lat="44.38706" lon="5.93602">
        <ele>571</ele>
        <time>2019-04-09T13:15:41Z</time>
      </trkpt>
      <trkpt lat="44.38706" lon="5.93596">
        <ele>571</ele>
        <time>2019-04-09T13:15:42Z</time>
      </trkpt>
      <trkpt lat="44.38705" lon="5.93591">
        <ele>572</ele>
        <time>2019-04-09T13:15:43Z</time>
      </trkpt>
      <trkpt lat="44.38702" lon="5.93587">
        <ele>572</ele>
        <time>2019-04-09T13:15:44Z</time>
      </trkpt>
      <trkpt lat="44.38698" lon="5.93585">
        <ele>572</ele>
        <time>2019-04-09T13:15:45Z</time>
      </trkpt>
      <trkpt lat="44.38694" lon="5.93582">
        <ele>572</ele>
        <time>2019-04-09T13:15:46Z</time>
      </trkpt>
      <trkpt lat="44.38691" lon="5.93579">
        <ele>572</ele>
        <time>2019-04-09T13:15:47Z</time>
      </trkpt>
      <trkpt lat="44.38686" lon="5.93576">
        <ele>572</ele>
        <time>2019-04-09T13:15:48Z</time>
      </trkpt>
      <trkpt lat="44.38682" lon="5.93573">
        <ele>572</ele>
        <time>2019-04-09T13:15:49Z</time>
      </trkpt>
      <trkpt lat="44.38678" lon="5.9357">
        <ele>572</ele>
        <time>2019-04-09T13:15:50Z</time>
      </trkpt>
      <trkpt lat="44.38673" lon="5.93567">
        <ele>572</ele>
        <time>2019-04-09T13:15:51Z</time>
      </trkpt>
      <trkpt lat="44.38668" lon="5.93564">
        <ele>572</ele>
        <time>2019-04-09T13:15:52Z</time>
      </trkpt>
      <trkpt lat="44.38663" lon="5.93562">
        <ele>572</ele>
        <time>2019-04-09T13:15:53Z</time>
      </trkpt>
      <trkpt lat="44.38659" lon="5.93559">
        <ele>572</ele>
        <time>2019-04-09T13:15:54Z</time>
      </trkpt>
      <trkpt lat="44.38654" lon="5.93555">
        <ele>572</ele>
        <time>2019-04-09T13:15:55Z</time>
      </trkpt>
      <trkpt lat="44.38649" lon="5.93552">
        <ele>572</ele>
        <time>2019-04-09T13:15:56Z</time>
      </trkpt>
      <trkpt lat="44.38644" lon="5.93549">
        <ele>572</ele>
        <time>2019-04-09T13:15:57Z</time>
      </trkpt>
      <trkpt lat="44.38639" lon="5.93546">
        <ele>572</ele>
        <time>2019-04-09T13:15:58Z</time>
      </trkpt>
      <trkpt lat="44.38633" lon="5.93542">
        <ele>572</ele>
        <time>2019-04-09T13:15:59Z</time>
      </trkpt>
      <trkpt lat="44.38628" lon="5.93539">
        <ele>572</ele>
        <time>2019-04-09T13:16:00Z</time>
      </trkpt>
      <trkpt lat="44.38622" lon="5.93535">
        <ele>572</ele>
        <time>2019-04-09T13:16:01Z</time>
      </trkpt>
      <trkpt lat="44.38616" lon="5.93531">
        <ele>572</ele>
        <time>2019-04-09T13:16:02Z</time>
      </trkpt>
      <trkpt lat="44.3861" lon="5.93527">
        <ele>572</ele>
        <time>2019-04-09T13:16:03Z</time>
      </trkpt>
      <trkpt lat="44.38604" lon="5.93522">
        <ele>572</ele>
        <time>2019-04-09T13:16:04Z</time>
      </trkpt>
      <trkpt lat="44.38598" lon="5.93517">
        <ele>572</ele>
        <time>2019-04-09T13:16:05Z</time>
      </trkpt>
      <trkpt lat="44.38592" lon="5.93513">
        <ele>572</ele>
        <time>2019-04-09T13:16:06Z</time>
      </trkpt>
      <trkpt lat="44.38586" lon="5.93508">
        <ele>572</ele>
        <time>2019-04-09T13:16:07Z</time>
      </trkpt>
      <trkpt lat="44.3858" lon="5.93504">
        <ele>572</ele>
        <time>2019-04-09T13:16:08Z</time>
      </trkpt>
      <trkpt lat="44.38573" lon="5.93499">
        <ele>571</ele>
        <time>2019-04-09T13:16:09Z</time>
      </trkpt>
      <trkpt lat="44.38567" lon="5.93494">
        <ele>571</ele>
        <time>2019-04-09T13:16:10Z</time>
      </trkpt>
      <trkpt lat="44.3856" lon="5.9349">
        <ele>571</ele>
        <time>2019-04-09T13:16:11Z</time>
      </trkpt>
      <trkpt lat="44.38554" lon="5.93485">
        <ele>571</ele>
        <time>2019-04-09T13:16:12Z</time>
      </trkpt>
      <trkpt lat="44.38548" lon="5.93481">
        <ele>571</ele>
        <time>2019-04-09T13:16:13Z</time>
      </trkpt>
      <trkpt lat="44.38541" lon="5.93477">
        <ele>571</ele>
        <time>2019-04-09T13:16:14Z</time>
      </trkpt>
      <trkpt lat="44.38536" lon="5.93473">
        <ele>571</ele>
        <time>2019-04-09T13:16:15Z</time>
      </trkpt>
      <trkpt lat="44.3853" lon="5.93469">
        <ele>571</ele>
        <time>2019-04-09T13:16:16Z</time>
      </trkpt>
      <trkpt lat="44.38524" lon="5.93464">
        <ele>571</ele>
        <time>2019-04-09T13:16:17Z</time>
      </trkpt>
      <trkpt lat="44.38519" lon="5.9346">
        <ele>571</ele>
        <time>2019-04-09T13:16:18Z</time>
      </trkpt>
      <trkpt lat="44.38513" lon="5.93456">
        <ele>570</ele>
        <time>2019-04-09T13:16:19Z</time>
      </trkpt>
      <trkpt lat="44.38507" lon="5.93451">
        <ele>570</ele>
        <time>2019-04-09T13:16:20Z</time>
      </trkpt>
      <trkpt lat="44.38502" lon="5.93447">
        <ele>570</ele>
        <time>2019-04-09T13:16:21Z</time>
      </trkpt>
      <trkpt lat="44.38496" lon="5.93443">
        <ele>570</ele>
        <time>2019-04-09T13:16:22Z</time>
      </trkpt>
      <trkpt lat="44.38491" lon="5.93439">
        <ele>570</ele>
        <time>2019-04-09T13:16:23Z</time>
      </trkpt>
      <trkpt lat="44.38485" lon="5.93435">
        <ele>570</ele>
        <time>2019-04-09T13:16:24Z</time>
      </trkpt>
      <trkpt lat="44.38479" lon="5.93431">
        <ele>570</ele>
        <time>2019-04-09T13:16:25Z</time>
      </trkpt>
      <trkpt lat="44.38473" lon="5.93428">
        <ele>570</ele>
        <time>2019-04-09T13:16:26Z</time>
      </trkpt>
      <trkpt lat="44.38467" lon="5.93424">
        <ele>570</ele>
        <time>2019-04-09T13:16:27Z</time>
      </trkpt>
      <trkpt lat="44.38462" lon="5.9342">
        <ele>570</ele>
        <time>2019-04-09T13:16:28Z</time>
      </trkpt>
      <trkpt lat="44.38456" lon="5.93415">
        <ele>570</ele>
        <time>2019-04-09T13:16:29Z</time>
      </trkpt>
      <trkpt lat="44.3845" lon="5.93411">
        <ele>570</ele>
        <time>2019-04-09T13:16:30Z</time>
      </trkpt>
      <trkpt lat="44.38444" lon="5.93407">
        <ele>570</ele>
        <time>2019-04-09T13:16:31Z</time>
      </trkpt>
      <trkpt lat="44.38438" lon="5.93403">
        <ele>570</ele>
        <time>2019-04-09T13:16:32Z</time>
      </trkpt>
      <trkpt lat="44.38432" lon="5.93399">
        <ele>570</ele>
        <time>2019-04-09T13:16:33Z</time>
      </trkpt>
      <trkpt lat="44.38426" lon="5.93395">
        <ele>570</ele>
        <time>2019-04-09T13:16:34Z</time>
      </trkpt>
      <trkpt lat="44.3842" lon="5.93391">
        <ele>570</ele>
        <time>2019-04-09T13:16:35Z</time>
      </trkpt>
      <trkpt lat="44.38414" lon="5.93387">
        <ele>569</ele>
        <time>2019-04-09T13:16:36Z</time>
      </trkpt>
      <trkpt lat="44.38409" lon="5.93383">
        <ele>569</ele>
        <time>2019-04-09T13:16:37Z</time>
      </trkpt>
      <trkpt lat="44.38403" lon="5.93378">
        <ele>569</ele>
        <time>2019-04-09T13:16:38Z</time>
      </trkpt>
      <trkpt lat="44.38397" lon="5.93374">
        <ele>569</ele>
        <time>2019-04-09T13:16:39Z</time>
      </trkpt>
      <trkpt lat="44.38392" lon="5.93371">
        <ele>569</ele>
        <time>2019-04-09T13:16:40Z</time>
      </trkpt>
      <trkpt lat="44.38386" lon="5.93367">
        <ele>569</ele>
        <time>2019-04-09T13:16:41Z</time>
      </trkpt>
      <trkpt lat="44.38381" lon="5.93364">
        <ele>569</ele>
        <time>2019-04-09T13:16:42Z</time>
      </trkpt>
      <trkpt lat="44.38376" lon="5.9336">
        <ele>569</ele>
        <time>2019-04-09T13:16:43Z</time>
      </trkpt>
      <trkpt lat="44.38371" lon="5.93357">
        <ele>569</ele>
        <time>2019-04-09T13:16:44Z</time>
      </trkpt>
      <trkpt lat="44.38365" lon="5.93353">
        <ele>569</ele>
        <time>2019-04-09T13:16:45Z</time>
      </trkpt>
      <trkpt lat="44.3836" lon="5.9335">
        <ele>569</ele>
        <time>2019-04-09T13:16:46Z</time>
      </trkpt>
      <trkpt lat="44.38355" lon="5.93346">
        <ele>569</ele>
        <time>2019-04-09T13:16:47Z</time>
      </trkpt>
      <trkpt lat="44.3835" lon="5.93342">
        <ele>569</ele>
        <time>2019-04-09T13:16:48Z</time>
      </trkpt>
      <trkpt lat="44.38345" lon="5.93339">
        <ele>569</ele>
        <time>2019-04-09T13:16:49Z</time>
      </trkpt>
      <trkpt lat="44.3834" lon="5.93335">
        <ele>569</ele>
        <time>2019-04-09T13:16:50Z</time>
      </trkpt>
      <trkpt lat="44.38335" lon="5.93332">
        <ele>569</ele>
        <time>2019-04-09T13:16:51Z</time>
      </trkpt>
      <trkpt lat="44.3833" lon="5.93329">
        <ele>569</ele>
        <time>2019-04-09T13:16:52Z</time>
      </trkpt>
      <trkpt lat="44.38325" lon="5.93325">
        <ele>569</ele>
        <time>2019-04-09T13:16:53Z</time>
      </trkpt>
      <trkpt lat="44.3832" lon="5.93322">
        <ele>569</ele>
        <time>2019-04-09T13:16:54Z</time>
      </trkpt>
      <trkpt lat="44.38315" lon="5.93319">
        <ele>569</ele>
        <time>2019-04-09T13:16:55Z</time>
      </trkpt>
      <trkpt lat="44.3831" lon="5.93316">
        <ele>569</ele>
        <time>2019-04-09T13:16:56Z</time>
      </trkpt>
      <trkpt lat="44.38305" lon="5.93312">
        <ele>569</ele>
        <time>2019-04-09T13:16:57Z</time>
      </trkpt>
      <trkpt lat="44.383" lon="5.93309">
        <ele>569</ele>
        <time>2019-04-09T13:16:58Z</time>
      </trkpt>
      <trkpt lat="44.38295" lon="5.93306">
        <ele>569</ele>
        <time>2019-04-09T13:16:59Z</time>
      </trkpt>
      <trkpt lat="44.3829" lon="5.93303">
        <ele>569</ele>
        <time>2019-04-09T13:17:00Z</time>
      </trkpt>
      <trkpt lat="44.38285" lon="5.93299">
        <ele>569</ele>
        <time>2019-04-09T13:17:01Z</time>
      </trkpt>
      <trkpt lat="44.3828" lon="5.93296">
        <ele>569</ele>
        <time>2019-04-09T13:17:02Z</time>
      </trkpt>
      <trkpt lat="44.38275" lon="5.93293">
        <ele>569</ele>
        <time>2019-04-09T13:17:03Z</time>
      </trkpt>
      <trkpt lat="44.3827" lon="5.9329">
        <ele>569</ele>
        <time>2019-04-09T13:17:04Z</time>
      </trkpt>
      <trkpt lat="44.38265" lon="5.93287">
        <ele>569</ele>
        <time>2019-04-09T13:17:05Z</time>
      </trkpt>
      <trkpt lat="44.38261" lon="5.93283">
        <ele>569</ele>
        <time>2019-04-09T13:17:06Z</time>
      </trkpt>
      <trkpt lat="44.38256" lon="5.9328">
        <ele>569</ele>
        <time>2019-04-09T13:17:07Z</time>
      </trkpt>
      <trkpt lat="44.38251" lon="5.93277">
        <ele>569</ele>
        <time>2019-04-09T13:17:08Z</time>
      </trkpt>
      <trkpt lat="44.38247" lon="5.93274">
        <ele>569</ele>
        <time>2019-04-09T13:17:09Z</time>
      </trkpt>
      <trkpt lat="44.38242" lon="5.93271">
        <ele>569</ele>
        <time>2019-04-09T13:17:10Z</time>
      </trkpt>
      <trkpt lat="44.38237" lon="5.93268">
        <ele>569</ele>
        <time>2019-04-09T13:17:11Z</time>
      </trkpt>
      <trkpt lat="44.38233" lon="5.93265">
        <ele>569</ele>
        <time>2019-04-09T13:17:12Z</time>
      </trkpt>
      <trkpt lat="44.38228" lon="5.93262">
        <ele>569</ele>
        <time>2019-04-09T13:17:13Z</time>
      </trkpt>
      <trkpt lat="44.38224" lon="5.93259">
        <ele>569</ele>
        <time>2019-04-09T13:17:14Z</time>
      </trkpt>
      <trkpt lat="44.38219" lon="5.93256">
        <ele>569</ele>
        <time>2019-04-09T13:17:15Z</time>
      </trkpt>
      <trkpt lat="44.38214" lon="5.93253">
        <ele>569</ele>
        <time>2019-04-09T13:17:16Z</time>
      </trkpt>
      <trkpt lat="44.3821" lon="5.9325">
        <ele>569</ele>
        <time>2019-04-09T13:17:17Z</time>
      </trkpt>
      <trkpt lat="44.38205" lon="5.93246">
        <ele>569</ele>
        <time>2019-04-09T13:17:18Z</time>
      </trkpt>
      <trkpt lat="44.38201" lon="5.93243">
        <ele>569</ele>
        <time>2019-04-09T13:17:19Z</time>
      </trkpt>
      <trkpt lat="44.38196" lon="5.9324">
        <ele>569</ele>
        <time>2019-04-09T13:17:20Z</time>
      </trkpt>
      <trkpt lat="44.38192" lon="5.93237">
        <ele>569</ele>
        <time>2019-04-09T13:17:21Z</time>
      </trkpt>
      <trkpt lat="44.38187" lon="5.93233">
        <ele>569</ele>
        <time>2019-04-09T13:17:22Z</time>
      </trkpt>
      <trkpt lat="44.38182" lon="5.9323">
        <ele>569</ele>
        <time>2019-04-09T13:17:23Z</time>
      </trkpt>
      <trkpt lat="44.38177" lon="5.93226">
        <ele>569</ele>
        <time>2019-04-09T13:17:24Z</time>
      </trkpt>
      <trkpt lat="44.38173" lon="5.93223">
        <ele>569</ele>
        <time>2019-04-09T13:17:25Z</time>
      </trkpt>
      <trkpt lat="44.38168" lon="5.9322">
        <ele>569</ele>
        <time>2019-04-09T13:17:26Z</time>
      </trkpt>
      <trkpt lat="44.38163" lon="5.93217">
        <ele>569</ele>
        <time>2019-04-09T13:17:27Z</time>
      </trkpt>
      <trkpt lat="44.38158" lon="5.93213">
        <ele>569</ele>
        <time>2019-04-09T13:17:28Z</time>
      </trkpt>
      <trkpt lat="44.38153" lon="5.9321">
        <ele>569</ele>
        <time>2019-04-09T13:17:29Z</time>
      </trkpt>
      <trkpt lat="44.38148" lon="5.93206">
        <ele>569</ele>
        <time>2019-04-09T13:17:30Z</time>
      </trkpt>
      <trkpt lat="44.38143" lon="5.93202">
        <ele>569</ele>
        <time>2019-04-09T13:17:31Z</time>
      </trkpt>
      <trkpt lat="44.38138" lon="5.93199">
        <ele>569</ele>
        <time>2019-04-09T13:17:32Z</time>
      </trkpt>
      <trkpt lat="44.38132" lon="5.93195">
        <ele>569</ele>
        <time>2019-04-09T13:17:33Z</time>
      </trkpt>
      <trkpt lat="44.38127" lon="5.93191">
        <ele>569</ele>
        <time>2019-04-09T13:17:34Z</time>
      </trkpt>
      <trkpt lat="44.38122" lon="5.93188">
        <ele>569</ele>
        <time>2019-04-09T13:17:35Z</time>
      </trkpt>
      <trkpt lat="44.38117" lon="5.93184">
        <ele>569</ele>
        <time>2019-04-09T13:17:36Z</time>
      </trkpt>
      <trkpt lat="44.38111" lon="5.9318">
        <ele>569</ele>
        <time>2019-04-09T13:17:37Z</time>
      </trkpt>
      <trkpt lat="44.38106" lon="5.93176">
        <ele>569</ele>
        <time>2019-04-09T13:17:38Z</time>
      </trkpt>
      <trkpt lat="44.38101" lon="5.93172">
        <ele>569</ele>
        <time>2019-04-09T13:17:39Z</time>
      </trkpt>
      <trkpt lat="44.38095" lon="5.93168">
        <ele>569</ele>
        <time>2019-04-09T13:17:40Z</time>
      </trkpt>
      <trkpt lat="44.3809" lon="5.93165">
        <ele>569</ele>
        <time>2019-04-09T13:17:41Z</time>
      </trkpt>
      <trkpt lat="44.38085" lon="5.93161">
        <ele>569</ele>
        <time>2019-04-09T13:17:42Z</time>
      </trkpt>
      <trkpt lat="44.38079" lon="5.93157">
        <ele>569</ele>
        <time>2019-04-09T13:17:43Z</time>
      </trkpt>
      <trkpt lat="44.38074" lon="5.93153">
        <ele>569</ele>
        <time>2019-04-09T13:17:44Z</time>
      </trkpt>
      <trkpt lat="44.38069" lon="5.93149">
        <ele>569</ele>
        <time>2019-04-09T13:17:45Z</time>
      </trkpt>
      <trkpt lat="44.38063" lon="5.93145">
        <ele>569</ele>
        <time>2019-04-09T13:17:46Z</time>
      </trkpt>
      <trkpt lat="44.38058" lon="5.93142">
        <ele>569</ele>
        <time>2019-04-09T13:17:47Z</time>
      </trkpt>
      <trkpt lat="44.38053" lon="5.93138">
        <ele>569</ele>
        <time>2019-04-09T13:17:48Z</time>
      </trkpt>
      <trkpt lat="44.38048" lon="5.93133">
        <ele>569</ele>
        <time>2019-04-09T13:17:49Z</time>
      </trkpt>
      <trkpt lat="44.38043" lon="5.9313">
        <ele>569</ele>
        <time>2019-04-09T13:17:50Z</time>
      </trkpt>
      <trkpt lat="44.38037" lon="5.93126">
        <ele>569</ele>
        <time>2019-04-09T13:17:51Z</time>
      </trkpt>
      <trkpt lat="44.38032" lon="5.93122">
        <ele>569</ele>
        <time>2019-04-09T13:17:52Z</time>
      </trkpt>
      <trkpt lat="44.38027" lon="5.93118">
        <ele>569</ele>
        <time>2019-04-09T13:17:53Z</time>
      </trkpt>
      <trkpt lat="44.38021" lon="5.93114">
        <ele>569</ele>
        <time>2019-04-09T13:17:54Z</time>
      </trkpt>
      <trkpt lat="44.38016" lon="5.93111">
        <ele>569</ele>
        <time>2019-04-09T13:17:55Z</time>
      </trkpt>
      <trkpt lat="44.38011" lon="5.93107">
        <ele>569</ele>
        <time>2019-04-09T13:17:56Z</time>
      </trkpt>
      <trkpt lat="44.38006" lon="5.93102">
        <ele>569</ele>
        <time>2019-04-09T13:17:57Z</time>
      </trkpt>
      <trkpt lat="44.38" lon="5.93098">
        <ele>569</ele>
        <time>2019-04-09T13:17:58Z</time>
      </trkpt>
      <trkpt lat="44.37995" lon="5.93094">
        <ele>569</ele>
        <time>2019-04-09T13:17:59Z</time>
      </trkpt>
      <trkpt lat="44.37989" lon="5.93091">
        <ele>569</ele>
        <time>2019-04-09T13:18:00Z</time>
      </trkpt>
      <trkpt lat="44.37984" lon="5.93087">
        <ele>569</ele>
        <time>2019-04-09T13:18:01Z</time>
      </trkpt>
      <trkpt lat="44.37979" lon="5.93083">
        <ele>569</ele>
        <time>2019-04-09T13:18:02Z</time>
      </trkpt>
      <trkpt lat="44.37973" lon="5.93078">
        <ele>569</ele>
        <time>2019-04-09T13:18:03Z</time>
      </trkpt>
      <trkpt lat="44.37968" lon="5.93074">
        <ele>569</ele>
        <time>2019-04-09T13:18:04Z</time>
      </trkpt>
      <trkpt lat="44.37962" lon="5.9307">
        <ele>569</ele>
        <time>2019-04-09T13:18:05Z</time>
      </trkpt>
      <trkpt lat="44.37957" lon="5.93066">
        <ele>569</ele>
        <time>2019-04-09T13:18:06Z</time>
      </trkpt>
      <trkpt lat="44.37952" lon="5.93062">
        <ele>569</ele>
        <time>2019-04-09T13:18:07Z</time>
      </trkpt>
      <trkpt lat="44.37946" lon="5.93058">
        <ele>569</ele>
        <time>2019-04-09T13:18:08Z</time>
      </trkpt>
      <trkpt lat="44.3794" lon="5.93054">
        <ele>569</ele>
        <time>2019-04-09T13:18:09Z</time>
      </trkpt>
      <trkpt lat="44.37934" lon="5.9305">
        <ele>569</ele>
        <time>2019-04-09T13:18:10Z</time>
      </trkpt>
      <trkpt lat="44.37929" lon="5.93046">
        <ele>569</ele>
        <time>2019-04-09T13:18:11Z</time>
      </trkpt>
      <trkpt lat="44.37923" lon="5.93042">
        <ele>569</ele>
        <time>2019-04-09T13:18:12Z</time>
      </trkpt>
      <trkpt lat="44.37917" lon="5.93038">
        <ele>569</ele>
        <time>2019-04-09T13:18:13Z</time>
      </trkpt>
      <trkpt lat="44.37911" lon="5.93034">
        <ele>569</ele>
        <time>2019-04-09T13:18:14Z</time>
      </trkpt>
      <trkpt lat="44.37906" lon="5.9303">
        <ele>569</ele>
        <time>2019-04-09T13:18:15Z</time>
      </trkpt>
      <trkpt lat="44.379" lon="5.93026">
        <ele>569</ele>
        <time>2019-04-09T13:18:16Z</time>
      </trkpt>
      <trkpt lat="44.37894" lon="5.93022">
        <ele>569</ele>
        <time>2019-04-09T13:18:17Z</time>
      </trkpt>
      <trkpt lat="44.37888" lon="5.93018">
        <ele>569</ele>
        <time>2019-04-09T13:18:18Z</time>
      </trkpt>
      <trkpt lat="44.37882" lon="5.93014">
        <ele>569</ele>
        <time>2019-04-09T13:18:19Z</time>
      </trkpt>
      <trkpt lat="44.37877" lon="5.9301">
        <ele>569</ele>
        <time>2019-04-09T13:18:20Z</time>
      </trkpt>
      <trkpt lat="44.37871" lon="5.93006">
        <ele>569</ele>
        <time>2019-04-09T13:18:21Z</time>
      </trkpt>
      <trkpt lat="44.37865" lon="5.93002">
        <ele>569</ele>
        <time>2019-04-09T13:18:22Z</time>
      </trkpt>
      <trkpt lat="44.3786" lon="5.92998">
        <ele>569</ele>
        <time>2019-04-09T13:18:23Z</time>
      </trkpt>
      <trkpt lat="44.37854" lon="5.92994">
        <ele>569</ele>
        <time>2019-04-09T13:18:24Z</time>
      </trkpt>
      <trkpt lat="44.37849" lon="5.9299">
        <ele>569</ele>
        <time>2019-04-09T13:18:25Z</time>
      </trkpt>
      <trkpt lat="44.37843" lon="5.92987">
        <ele>569</ele>
        <time>2019-04-09T13:18:26Z</time>
      </trkpt>
      <trkpt lat="44.37837" lon="5.92983">
        <ele>569</ele>
        <time>2019-04-09T13:18:27Z</time>
      </trkpt>
      <trkpt lat="44.37832" lon="5.92979">
        <ele>569</ele>
        <time>2019-04-09T13:18:28Z</time>
      </trkpt>
      <trkpt lat="44.37826" lon="5.92975">
        <ele>569</ele>
        <time>2019-04-09T13:18:29Z</time>
      </trkpt>
      <trkpt lat="44.37821" lon="5.92971">
        <ele>569</ele>
        <time>2019-04-09T13:18:30Z</time>
      </trkpt>
      <trkpt lat="44.37815" lon="5.92967">
        <ele>569</ele>
        <time>2019-04-09T13:18:31Z</time>
      </trkpt>
      <trkpt lat="44.3781" lon="5.92964">
        <ele>569</ele>
        <time>2019-04-09T13:18:32Z</time>
      </trkpt>
      <trkpt lat="44.37804" lon="5.9296">
        <ele>569</ele>
        <time>2019-04-09T13:18:33Z</time>
      </trkpt>
      <trkpt lat="44.37799" lon="5.92956">
        <ele>569</ele>
        <time>2019-04-09T13:18:34Z</time>
      </trkpt>
      <trkpt lat="44.37793" lon="5.92953">
        <ele>569</ele>
        <time>2019-04-09T13:18:35Z</time>
      </trkpt>
      <trkpt lat="44.37788" lon="5.92949">
        <ele>569</ele>
        <time>2019-04-09T13:18:36Z</time>
      </trkpt>
      <trkpt lat="44.37783" lon="5.92945">
        <ele>569</ele>
        <time>2019-04-09T13:18:37Z</time>
      </trkpt>
      <trkpt lat="44.37777" lon="5.92942">
        <ele>569</ele>
        <time>2019-04-09T13:18:38Z</time>
      </trkpt>
      <trkpt lat="44.37772" lon="5.92938">
        <ele>568</ele>
        <time>2019-04-09T13:18:39Z</time>
      </trkpt>
      <trkpt lat="44.37766" lon="5.92934">
        <ele>568</ele>
        <time>2019-04-09T13:18:40Z</time>
      </trkpt>
      <trkpt lat="44.37761" lon="5.9293">
        <ele>568</ele>
        <time>2019-04-09T13:18:41Z</time>
      </trkpt>
      <trkpt lat="44.37756" lon="5.92927">
        <ele>568</ele>
        <time>2019-04-09T13:18:42Z</time>
      </trkpt>
      <trkpt lat="44.3775" lon="5.92923">
        <ele>568</ele>
        <time>2019-04-09T13:18:43Z</time>
      </trkpt>
      <trkpt lat="44.37745" lon="5.92919">
        <ele>568</ele>
        <time>2019-04-09T13:18:44Z</time>
      </trkpt>
      <trkpt lat="44.37739" lon="5.92915">
        <ele>568</ele>
        <time>2019-04-09T13:18:45Z</time>
      </trkpt>
      <trkpt lat="44.37734" lon="5.92912">
        <ele>568</ele>
        <time>2019-04-09T13:18:46Z</time>
      </trkpt>
      <trkpt lat="44.37729" lon="5.92908">
        <ele>568</ele>
        <time>2019-04-09T13:18:47Z</time>
      </trkpt>
      <trkpt lat="44.37723" lon="5.92904">
        <ele>568</ele>
        <time>2019-04-09T13:18:48Z</time>
      </trkpt>
      <trkpt lat="44.37718" lon="5.92901">
        <ele>568</ele>
        <time>2019-04-09T13:18:49Z</time>
      </trkpt>
      <trkpt lat="44.37712" lon="5.92897">
        <ele>568</ele>
        <time>2019-04-09T13:18:50Z</time>
      </trkpt>
      <trkpt lat="44.37707" lon="5.92893">
        <ele>568</ele>
        <time>2019-04-09T13:18:51Z</time>
      </trkpt>
      <trkpt lat="44.37702" lon="5.9289">
        <ele>568</ele>
        <time>2019-04-09T13:18:52Z</time>
      </trkpt>
      <trkpt lat="44.37696" lon="5.92886">
        <ele>568</ele>
        <time>2019-04-09T13:18:53Z</time>
      </trkpt>
      <trkpt lat="44.37691" lon="5.92882">
        <ele>568</ele>
        <time>2019-04-09T13:18:54Z</time>
      </trkpt>
      <trkpt lat="44.37686" lon="5.92878">
        <ele>568</ele>
        <time>2019-04-09T13:18:55Z</time>
      </trkpt>
      <trkpt lat="44.37681" lon="5.92874">
        <ele>568</ele>
        <time>2019-04-09T13:18:56Z</time>
      </trkpt>
      <trkpt lat="44.37675" lon="5.92871">
        <ele>568</ele>
        <time>2019-04-09T13:18:57Z</time>
      </trkpt>
      <trkpt lat="44.3767" lon="5.92867">
        <ele>568</ele>
        <time>2019-04-09T13:18:58Z</time>
      </trkpt>
      <trkpt lat="44.37665" lon="5.92864">
        <ele>568</ele>
        <time>2019-04-09T13:18:59Z</time>
      </trkpt>
      <trkpt lat="44.3766" lon="5.9286">
        <ele>568</ele>
        <time>2019-04-09T13:19:00Z</time>
      </trkpt>
      <trkpt lat="44.37655" lon="5.92857">
        <ele>568</ele>
        <time>2019-04-09T13:19:01Z</time>
      </trkpt>
      <trkpt lat="44.3765" lon="5.92853">
        <ele>568</ele>
        <time>2019-04-09T13:19:02Z</time>
      </trkpt>
      <trkpt lat="44.37645" lon="5.9285">
        <ele>568</ele>
        <time>2019-04-09T13:19:03Z</time>
      </trkpt>
      <trkpt lat="44.3764" lon="5.92847">
        <ele>568</ele>
        <time>2019-04-09T13:19:04Z</time>
      </trkpt>
      <trkpt lat="44.37635" lon="5.92843">
        <ele>568</ele>
        <time>2019-04-09T13:19:05Z</time>
      </trkpt>
      <trkpt lat="44.3763" lon="5.9284">
        <ele>568</ele>
        <time>2019-04-09T13:19:06Z</time>
      </trkpt>
      <trkpt lat="44.37625" lon="5.92837">
        <ele>568</ele>
        <time>2019-04-09T13:19:07Z</time>
      </trkpt>
      <trkpt lat="44.3762" lon="5.92834">
        <ele>568</ele>
        <time>2019-04-09T13:19:08Z</time>
      </trkpt>
      <trkpt lat="44.37615" lon="5.9283">
        <ele>568</ele>
        <time>2019-04-09T13:19:09Z</time>
      </trkpt>
      <trkpt lat="44.3761" lon="5.92827">
        <ele>568</ele>
        <time>2019-04-09T13:19:10Z</time>
      </trkpt>
      <trkpt lat="44.37605" lon="5.92824">
        <ele>568</ele>
        <time>2019-04-09T13:19:11Z</time>
      </trkpt>
      <trkpt lat="44.376" lon="5.9282">
        <ele>568</ele>
        <time>2019-04-09T13:19:12Z</time>
      </trkpt>
      <trkpt lat="44.37595" lon="5.92817">
        <ele>568</ele>
        <time>2019-04-09T13:19:13Z</time>
      </trkpt>
      <trkpt lat="44.3759" lon="5.92813">
        <ele>568</ele>
        <time>2019-04-09T13:19:14Z</time>
      </trkpt>
      <trkpt lat="44.37585" lon="5.92809">
        <ele>568</ele>
        <time>2019-04-09T13:19:15Z</time>
      </trkpt>
      <trkpt lat="44.37579" lon="5.92806">
        <ele>568</ele>
        <time>2019-04-09T13:19:16Z</time>
      </trkpt>
      <trkpt lat="44.37574" lon="5.92802">
        <ele>568</ele>
        <time>2019-04-09T13:19:17Z</time>
      </trkpt>
      <trkpt lat="44.37569" lon="5.92799">
        <ele>568</ele>
        <time>2019-04-09T13:19:18Z</time>
      </trkpt>
      <trkpt lat="44.37564" lon="5.92795">
        <ele>568</ele>
        <time>2019-04-09T13:19:19Z</time>
      </trkpt>
      <trkpt lat="44.37558" lon="5.92792">
        <ele>568</ele>
        <time>2019-04-09T13:19:20Z</time>
      </trkpt>
      <trkpt lat="44.37553" lon="5.92788">
        <ele>568</ele>
        <time>2019-04-09T13:19:21Z</time>
      </trkpt>
      <trkpt lat="44.37548" lon="5.92784">
        <ele>568</ele>
        <time>2019-04-09T13:19:22Z</time>
      </trkpt>
      <trkpt lat="44.37543" lon="5.92781">
        <ele>568</ele>
        <time>2019-04-09T13:19:23Z</time>
      </trkpt>
      <trkpt lat="44.37538" lon="5.92777">
        <ele>568</ele>
        <time>2019-04-09T13:19:24Z</time>
      </trkpt>
      <trkpt lat="44.37533" lon="5.92774">
        <ele>568</ele>
        <time>2019-04-09T13:19:25Z</time>
      </trkpt>
      <trkpt lat="44.37527" lon="5.9277">
        <ele>568</ele>
        <time>2019-04-09T13:19:26Z</time>
      </trkpt>
      <trkpt lat="44.37522" lon="5.92767">
        <ele>568</ele>
        <time>2019-04-09T13:19:27Z</time>
      </trkpt>
      <trkpt lat="44.37517" lon="5.92763">
        <ele>568</ele>
        <time>2019-04-09T13:19:28Z</time>
      </trkpt>
      <trkpt lat="44.37512" lon="5.92758">
        <ele>568</ele>
        <time>2019-04-09T13:19:29Z</time>
      </trkpt>
      <trkpt lat="44.37507" lon="5.92755">
        <ele>568</ele>
        <time>2019-04-09T13:19:30Z</time>
      </trkpt>
      <trkpt lat="44.37502" lon="5.92751">
        <ele>568</ele>
        <time>2019-04-09T13:19:31Z</time>
      </trkpt>
      <trkpt lat="44.37496" lon="5.92747">
        <ele>568</ele>
        <time>2019-04-09T13:19:32Z</time>
      </trkpt>
      <trkpt lat="44.37491" lon="5.92744">
        <ele>568</ele>
        <time>2019-04-09T13:19:33Z</time>
      </trkpt>
      <trkpt lat="44.37486" lon="5.9274">
        <ele>568</ele>
        <time>2019-04-09T13:19:34Z</time>
      </trkpt>
      <trkpt lat="44.37481" lon="5.92737">
        <ele>568</ele>
        <time>2019-04-09T13:19:35Z</time>
      </trkpt>
      <trkpt lat="44.37476" lon="5.92733">
        <ele>568</ele>
        <time>2019-04-09T13:19:36Z</time>
      </trkpt>
      <trkpt lat="44.3747" lon="5.9273">
        <ele>568</ele>
        <time>2019-04-09T13:19:37Z</time>
      </trkpt>
      <trkpt lat="44.37465" lon="5.92726">
        <ele>568</ele>
        <time>2019-04-09T13:19:38Z</time>
      </trkpt>
      <trkpt lat="44.3746" lon="5.92723">
        <ele>568</ele>
        <time>2019-04-09T13:19:39Z</time>
      </trkpt>
      <trkpt lat="44.37455" lon="5.92719">
        <ele>568</ele>
        <time>2019-04-09T13:19:40Z</time>
      </trkpt>
      <trkpt lat="44.3745" lon="5.92716">
        <ele>568</ele>
        <time>2019-04-09T13:19:41Z</time>
      </trkpt>
      <trkpt lat="44.37445" lon="5.92712">
        <ele>568</ele>
        <time>2019-04-09T13:19:42Z</time>
      </trkpt>
      <trkpt lat="44.3744" lon="5.92709">
        <ele>568</ele>
        <time>2019-04-09T13:19:43Z</time>
      </trkpt>
      <trkpt lat="44.37435" lon="5.92705">
        <ele>568</ele>
        <time>2019-04-09T13:19:44Z</time>
      </trkpt>
      <trkpt lat="44.3743" lon="5.927">
        <ele>568</ele>
        <time>2019-04-09T13:19:45Z</time>
      </trkpt>
      <trkpt lat="44.37425" lon="5.92697">
        <ele>568</ele>
        <time>2019-04-09T13:19:46Z</time>
      </trkpt>
      <trkpt lat="44.3742" lon="5.92694">
        <ele>567</ele>
        <time>2019-04-09T13:19:47Z</time>
      </trkpt>
      <trkpt lat="44.37415" lon="5.9269">
        <ele>566</ele>
        <time>2019-04-09T13:19:48Z</time>
      </trkpt>
      <trkpt lat="44.3741" lon="5.92686">
        <ele>566</ele>
        <time>2019-04-09T13:19:49Z</time>
      </trkpt>
      <trkpt lat="44.37405" lon="5.92683">
        <ele>566</ele>
        <time>2019-04-09T13:19:50Z</time>
      </trkpt>
      <trkpt lat="44.374" lon="5.92679">
        <ele>566</ele>
        <time>2019-04-09T13:19:51Z</time>
      </trkpt>
      <trkpt lat="44.37396" lon="5.92676">
        <ele>566</ele>
        <time>2019-04-09T13:19:52Z</time>
      </trkpt>
      <trkpt lat="44.37391" lon="5.92672">
        <ele>566</ele>
        <time>2019-04-09T13:19:53Z</time>
      </trkpt>
      <trkpt lat="44.37386" lon="5.92669">
        <ele>566</ele>
        <time>2019-04-09T13:19:54Z</time>
      </trkpt>
      <trkpt lat="44.37381" lon="5.92666">
        <ele>566</ele>
        <time>2019-04-09T13:19:55Z</time>
      </trkpt>
      <trkpt lat="44.37376" lon="5.92662">
        <ele>566</ele>
        <time>2019-04-09T13:19:56Z</time>
      </trkpt>
      <trkpt lat="44.37371" lon="5.92659">
        <ele>566</ele>
        <time>2019-04-09T13:19:57Z</time>
      </trkpt>
      <trkpt lat="44.37366" lon="5.92655">
        <ele>566</ele>
        <time>2019-04-09T13:19:58Z</time>
      </trkpt>
      <trkpt lat="44.37361" lon="5.92652">
        <ele>566</ele>
        <time>2019-04-09T13:19:59Z</time>
      </trkpt>
      <trkpt lat="44.37357" lon="5.92648">
        <ele>566</ele>
        <time>2019-04-09T13:20:00Z</time>
      </trkpt>
      <trkpt lat="44.37351" lon="5.92644">
        <ele>566</ele>
        <time>2019-04-09T13:20:01Z</time>
      </trkpt>
      <trkpt lat="44.37346" lon="5.9264">
        <ele>566</ele>
        <time>2019-04-09T13:20:02Z</time>
      </trkpt>
      <trkpt lat="44.37341" lon="5.92635">
        <ele>566</ele>
        <time>2019-04-09T13:20:03Z</time>
      </trkpt>
      <trkpt lat="44.37336" lon="5.92631">
        <ele>566</ele>
        <time>2019-04-09T13:20:04Z</time>
      </trkpt>
      <trkpt lat="44.3733" lon="5.92627">
        <ele>566</ele>
        <time>2019-04-09T13:20:05Z</time>
      </trkpt>
      <trkpt lat="44.37324" lon="5.92623">
        <ele>566</ele>
        <time>2019-04-09T13:20:06Z</time>
      </trkpt>
      <trkpt lat="44.37319" lon="5.92618">
        <ele>566</ele>
        <time>2019-04-09T13:20:07Z</time>
      </trkpt>
      <trkpt lat="44.37313" lon="5.92613">
        <ele>565</ele>
        <time>2019-04-09T13:20:08Z</time>
      </trkpt>
      <trkpt lat="44.37307" lon="5.92608">
        <ele>565</ele>
        <time>2019-04-09T13:20:09Z</time>
      </trkpt>
      <trkpt lat="44.37302" lon="5.92603">
        <ele>565</ele>
        <time>2019-04-09T13:20:10Z</time>
      </trkpt>
      <trkpt lat="44.37296" lon="5.92597">
        <ele>565</ele>
        <time>2019-04-09T13:20:11Z</time>
      </trkpt>
      <trkpt lat="44.3729" lon="5.92592">
        <ele>564</ele>
        <time>2019-04-09T13:20:12Z</time>
      </trkpt>
      <trkpt lat="44.37284" lon="5.92586">
        <ele>564</ele>
        <time>2019-04-09T13:20:13Z</time>
      </trkpt>
      <trkpt lat="44.37278" lon="5.92581">
        <ele>564</ele>
        <time>2019-04-09T13:20:14Z</time>
      </trkpt>
      <trkpt lat="44.37273" lon="5.92576">
        <ele>564</ele>
        <time>2019-04-09T13:20:15Z</time>
      </trkpt>
      <trkpt lat="44.37267" lon="5.9257">
        <ele>563</ele>
        <time>2019-04-09T13:20:16Z</time>
      </trkpt>
      <trkpt lat="44.37261" lon="5.92565">
        <ele>563</ele>
        <time>2019-04-09T13:20:17Z</time>
      </trkpt>
      <trkpt lat="44.37255" lon="5.92559">
        <ele>563</ele>
        <time>2019-04-09T13:20:18Z</time>
      </trkpt>
      <trkpt lat="44.37249" lon="5.92554">
        <ele>563</ele>
        <time>2019-04-09T13:20:19Z</time>
      </trkpt>
      <trkpt lat="44.37244" lon="5.92549">
        <ele>563</ele>
        <time>2019-04-09T13:20:20Z</time>
      </trkpt>
      <trkpt lat="44.37238" lon="5.92543">
        <ele>563</ele>
        <time>2019-04-09T13:20:21Z</time>
      </trkpt>
      <trkpt lat="44.37231" lon="5.92537">
        <ele>563</ele>
        <time>2019-04-09T13:20:22Z</time>
      </trkpt>
      <trkpt lat="44.37225" lon="5.92532">
        <ele>563</ele>
        <time>2019-04-09T13:20:23Z</time>
      </trkpt>
      <trkpt lat="44.3722" lon="5.92526">
        <ele>563</ele>
        <time>2019-04-09T13:20:24Z</time>
      </trkpt>
      <trkpt lat="44.37213" lon="5.92521">
        <ele>563</ele>
        <time>2019-04-09T13:20:25Z</time>
      </trkpt>
      <trkpt lat="44.37207" lon="5.92515">
        <ele>563</ele>
        <time>2019-04-09T13:20:26Z</time>
      </trkpt>
      <trkpt lat="44.37201" lon="5.92509">
        <ele>563</ele>
        <time>2019-04-09T13:20:27Z</time>
      </trkpt>
      <trkpt lat="44.37196" lon="5.92504">
        <ele>563</ele>
        <time>2019-04-09T13:20:28Z</time>
      </trkpt>
      <trkpt lat="44.3719" lon="5.92498">
        <ele>563</ele>
        <time>2019-04-09T13:20:29Z</time>
      </trkpt>
      <trkpt lat="44.37184" lon="5.92493">
        <ele>563</ele>
        <time>2019-04-09T13:20:30Z</time>
      </trkpt>
      <trkpt lat="44.37178" lon="5.92488">
        <ele>563</ele>
        <time>2019-04-09T13:20:31Z</time>
      </trkpt>
      <trkpt lat="44.37172" lon="5.92483">
        <ele>563</ele>
        <time>2019-04-09T13:20:32Z</time>
      </trkpt>
      <trkpt lat="44.37166" lon="5.92478">
        <ele>562</ele>
        <time>2019-04-09T13:20:33Z</time>
      </trkpt>
      <trkpt lat="44.3716" lon="5.92473">
        <ele>562</ele>
        <time>2019-04-09T13:20:34Z</time>
      </trkpt>
      <trkpt lat="44.37154" lon="5.92468">
        <ele>562</ele>
        <time>2019-04-09T13:20:35Z</time>
      </trkpt>
      <trkpt lat="44.37148" lon="5.92463">
        <ele>562</ele>
        <time>2019-04-09T13:20:36Z</time>
      </trkpt>
      <trkpt lat="44.37143" lon="5.92458">
        <ele>562</ele>
        <time>2019-04-09T13:20:37Z</time>
      </trkpt>
      <trkpt lat="44.37137" lon="5.92453">
        <ele>562</ele>
        <time>2019-04-09T13:20:38Z</time>
      </trkpt>
      <trkpt lat="44.37131" lon="5.92448">
        <ele>562</ele>
        <time>2019-04-09T13:20:39Z</time>
      </trkpt>
      <trkpt lat="44.37125" lon="5.92443">
        <ele>562</ele>
        <time>2019-04-09T13:20:40Z</time>
      </trkpt>
      <trkpt lat="44.3712" lon="5.92438">
        <ele>562</ele>
        <time>2019-04-09T13:20:41Z</time>
      </trkpt>
      <trkpt lat="44.37114" lon="5.92433">
        <ele>562</ele>
        <time>2019-04-09T13:20:42Z</time>
      </trkpt>
      <trkpt lat="44.37108" lon="5.92428">
        <ele>562</ele>
        <time>2019-04-09T13:20:43Z</time>
      </trkpt>
      <trkpt lat="44.37103" lon="5.92423">
        <ele>562</ele>
        <time>2019-04-09T13:20:44Z</time>
      </trkpt>
      <trkpt lat="44.37097" lon="5.92419">
        <ele>562</ele>
        <time>2019-04-09T13:20:45Z</time>
      </trkpt>
      <trkpt lat="44.37091" lon="5.92414">
        <ele>562</ele>
        <time>2019-04-09T13:20:46Z</time>
      </trkpt>
      <trkpt lat="44.37086" lon="5.9241">
        <ele>562</ele>
        <time>2019-04-09T13:20:47Z</time>
      </trkpt>
      <trkpt lat="44.3708" lon="5.92405">
        <ele>562</ele>
        <time>2019-04-09T13:20:48Z</time>
      </trkpt>
      <trkpt lat="44.37075" lon="5.924">
        <ele>562</ele>
        <time>2019-04-09T13:20:49Z</time>
      </trkpt>
      <trkpt lat="44.37069" lon="5.92395">
        <ele>562</ele>
        <time>2019-04-09T13:20:50Z</time>
      </trkpt>
      <trkpt lat="44.37064" lon="5.92391">
        <ele>562</ele>
        <time>2019-04-09T13:20:51Z</time>
      </trkpt>
      <trkpt lat="44.37058" lon="5.92386">
        <ele>562</ele>
        <time>2019-04-09T13:20:52Z</time>
      </trkpt>
      <trkpt lat="44.37053" lon="5.92381">
        <ele>562</ele>
        <time>2019-04-09T13:20:53Z</time>
      </trkpt>
      <trkpt lat="44.37047" lon="5.92377">
        <ele>562</ele>
        <time>2019-04-09T13:20:54Z</time>
      </trkpt>
      <trkpt lat="44.37042" lon="5.92372">
        <ele>562</ele>
        <time>2019-04-09T13:20:55Z</time>
      </trkpt>
      <trkpt lat="44.37036" lon="5.92368">
        <ele>562</ele>
        <time>2019-04-09T13:20:56Z</time>
      </trkpt>
      <trkpt lat="44.37031" lon="5.92363">
        <ele>562</ele>
        <time>2019-04-09T13:20:57Z</time>
      </trkpt>
      <trkpt lat="44.37025" lon="5.92358">
        <ele>562</ele>
        <time>2019-04-09T13:20:58Z</time>
      </trkpt>
      <trkpt lat="44.3702" lon="5.92354">
        <ele>562</ele>
        <time>2019-04-09T13:20:59Z</time>
      </trkpt>
      <trkpt lat="44.37015" lon="5.92349">
        <ele>562</ele>
        <time>2019-04-09T13:21:00Z</time>
      </trkpt>
      <trkpt lat="44.3701" lon="5.92345">
        <ele>562</ele>
        <time>2019-04-09T13:21:01Z</time>
      </trkpt>
      <trkpt lat="44.37004" lon="5.92341">
        <ele>562</ele>
        <time>2019-04-09T13:21:02Z</time>
      </trkpt>
      <trkpt lat="44.36999" lon="5.92337">
        <ele>562</ele>
        <time>2019-04-09T13:21:03Z</time>
      </trkpt>
      <trkpt lat="44.36994" lon="5.92333">
        <ele>562</ele>
        <time>2019-04-09T13:21:04Z</time>
      </trkpt>
      <trkpt lat="44.36989" lon="5.92328">
        <ele>562</ele>
        <time>2019-04-09T13:21:05Z</time>
      </trkpt>
      <trkpt lat="44.36984" lon="5.92324">
        <ele>562</ele>
        <time>2019-04-09T13:21:06Z</time>
      </trkpt>
      <trkpt lat="44.36979" lon="5.9232">
        <ele>562</ele>
        <time>2019-04-09T13:21:07Z</time>
      </trkpt>
      <trkpt lat="44.36974" lon="5.92316">
        <ele>562</ele>
        <time>2019-04-09T13:21:08Z</time>
      </trkpt>
      <trkpt lat="44.36969" lon="5.92311">
        <ele>562</ele>
        <time>2019-04-09T13:21:09Z</time>
      </trkpt>
      <trkpt lat="44.36964" lon="5.92308">
        <ele>562</ele>
        <time>2019-04-09T13:21:10Z</time>
      </trkpt>
      <trkpt lat="44.36959" lon="5.92304">
        <ele>562</ele>
        <time>2019-04-09T13:21:11Z</time>
      </trkpt>
      <trkpt lat="44.36954" lon="5.923">
        <ele>562</ele>
        <time>2019-04-09T13:21:12Z</time>
      </trkpt>
      <trkpt lat="44.36949" lon="5.92295">
        <ele>562</ele>
        <time>2019-04-09T13:21:13Z</time>
      </trkpt>
      <trkpt lat="44.36945" lon="5.92291">
        <ele>562</ele>
        <time>2019-04-09T13:21:14Z</time>
      </trkpt>
      <trkpt lat="44.3694" lon="5.92288">
        <ele>562</ele>
        <time>2019-04-09T13:21:15Z</time>
      </trkpt>
      <trkpt lat="44.36935" lon="5.92284">
        <ele>562</ele>
        <time>2019-04-09T13:21:16Z</time>
      </trkpt>
      <trkpt lat="44.3693" lon="5.9228">
        <ele>562</ele>
        <time>2019-04-09T13:21:17Z</time>
      </trkpt>
      <trkpt lat="44.36926" lon="5.92276">
        <ele>562</ele>
        <time>2019-04-09T13:21:18Z</time>
      </trkpt>
      <trkpt lat="44.36921" lon="5.92273">
        <ele>562</ele>
        <time>2019-04-09T13:21:19Z</time>
      </trkpt>
      <trkpt lat="44.36916" lon="5.92269">
        <ele>562</ele>
        <time>2019-04-09T13:21:20Z</time>
      </trkpt>
      <trkpt lat="44.36912" lon="5.92266">
        <ele>562</ele>
        <time>2019-04-09T13:21:21Z</time>
      </trkpt>
      <trkpt lat="44.36907" lon="5.92263">
        <ele>562</ele>
        <time>2019-04-09T13:21:22Z</time>
      </trkpt>
      <trkpt lat="44.36902" lon="5.9226">
        <ele>562</ele>
        <time>2019-04-09T13:21:23Z</time>
      </trkpt>
      <trkpt lat="44.36898" lon="5.92257">
        <ele>562</ele>
        <time>2019-04-09T13:21:24Z</time>
      </trkpt>
      <trkpt lat="44.36893" lon="5.92254">
        <ele>562</ele>
        <time>2019-04-09T13:21:25Z</time>
      </trkpt>
      <trkpt lat="44.36889" lon="5.92252">
        <ele>563</ele>
        <time>2019-04-09T13:21:26Z</time>
      </trkpt>
      <trkpt lat="44.36885" lon="5.92249">
        <ele>563</ele>
        <time>2019-04-09T13:21:27Z</time>
      </trkpt>
      <trkpt lat="44.3688" lon="5.92247">
        <ele>563</ele>
        <time>2019-04-09T13:21:28Z</time>
      </trkpt>
      <trkpt lat="44.36876" lon="5.92245">
        <ele>564</ele>
        <time>2019-04-09T13:21:29Z</time>
      </trkpt>
      <trkpt lat="44.36871" lon="5.92242">
        <ele>564</ele>
        <time>2019-04-09T13:21:30Z</time>
      </trkpt>
      <trkpt lat="44.36866" lon="5.9224">
        <ele>564</ele>
        <time>2019-04-09T13:21:31Z</time>
      </trkpt>
      <trkpt lat="44.36862" lon="5.92237">
        <ele>565</ele>
        <time>2019-04-09T13:21:32Z</time>
      </trkpt>
      <trkpt lat="44.36858" lon="5.92235">
        <ele>565</ele>
        <time>2019-04-09T13:21:33Z</time>
      </trkpt>
      <trkpt lat="44.36853" lon="5.92232">
        <ele>565</ele>
        <time>2019-04-09T13:21:34Z</time>
      </trkpt>
      <trkpt lat="44.36849" lon="5.9223">
        <ele>566</ele>
        <time>2019-04-09T13:21:35Z</time>
      </trkpt>
      <trkpt lat="44.36845" lon="5.92227">
        <ele>566</ele>
        <time>2019-04-09T13:21:36Z</time>
      </trkpt>
      <trkpt lat="44.36841" lon="5.92225">
        <ele>566</ele>
        <time>2019-04-09T13:21:37Z</time>
      </trkpt>
      <trkpt lat="44.36838" lon="5.92222">
        <ele>567</ele>
        <time>2019-04-09T13:21:38Z</time>
      </trkpt>
      <trkpt lat="44.36835" lon="5.9222">
        <ele>567</ele>
        <time>2019-04-09T13:21:39Z</time>
      </trkpt>
      <trkpt lat="44.36832" lon="5.92218">
        <ele>567</ele>
        <time>2019-04-09T13:21:40Z</time>
      </trkpt>
      <trkpt lat="44.3683" lon="5.92217">
        <ele>567</ele>
        <time>2019-04-09T13:21:41Z</time>
      </trkpt>
      <trkpt lat="44.36827" lon="5.92215">
        <ele>568</ele>
        <time>2019-04-09T13:21:42Z</time>
      </trkpt>
      <trkpt lat="44.36825" lon="5.92214">
        <ele>568</ele>
        <time>2019-04-09T13:21:43Z</time>
      </trkpt>
      <trkpt lat="44.36822" lon="5.92213">
        <ele>568</ele>
        <time>2019-04-09T13:21:44Z</time>
      </trkpt>
      <trkpt lat="44.36819" lon="5.92212">
        <ele>568</ele>
        <time>2019-04-09T13:21:45Z</time>
      </trkpt>
      <trkpt lat="44.36816" lon="5.92211">
        <ele>568</ele>
        <time>2019-04-09T13:21:46Z</time>
      </trkpt>
      <trkpt lat="44.36812" lon="5.92209">
        <ele>568</ele>
        <time>2019-04-09T13:21:47Z</time>
      </trkpt>
      <trkpt lat="44.36808" lon="5.92207">
        <ele>568</ele>
        <time>2019-04-09T13:21:48Z</time>
      </trkpt>
      <trkpt lat="44.36803" lon="5.92204">
        <ele>568</ele>
        <time>2019-04-09T13:21:49Z</time>
      </trkpt>
      <trkpt lat="44.36797" lon="5.92202">
        <ele>568</ele>
        <time>2019-04-09T13:21:50Z</time>
      </trkpt>
      <trkpt lat="44.36791" lon="5.92199">
        <ele>568</ele>
        <time>2019-04-09T13:21:51Z</time>
      </trkpt>
      <trkpt lat="44.36785" lon="5.92196">
        <ele>568</ele>
        <time>2019-04-09T13:21:52Z</time>
      </trkpt>
      <trkpt lat="44.36778" lon="5.92193">
        <ele>568</ele>
        <time>2019-04-09T13:21:53Z</time>
      </trkpt>
      <trkpt lat="44.36771" lon="5.9219">
        <ele>568</ele>
        <time>2019-04-09T13:21:54Z</time>
      </trkpt>
      <trkpt lat="44.36764" lon="5.92187">
        <ele>568</ele>
        <time>2019-04-09T13:21:55Z</time>
      </trkpt>
      <trkpt lat="44.36757" lon="5.92184">
        <ele>568</ele>
        <time>2019-04-09T13:21:56Z</time>
      </trkpt>
      <trkpt lat="44.3675" lon="5.92181">
        <ele>568</ele>
        <time>2019-04-09T13:21:57Z</time>
      </trkpt>
      <trkpt lat="44.36743" lon="5.92179">
        <ele>568</ele>
        <time>2019-04-09T13:21:58Z</time>
      </trkpt>
      <trkpt lat="44.36736" lon="5.92177">
        <ele>568</ele>
        <time>2019-04-09T13:21:59Z</time>
      </trkpt>
      <trkpt lat="44.36729" lon="5.92175">
        <ele>568</ele>
        <time>2019-04-09T13:22:00Z</time>
      </trkpt>
      <trkpt lat="44.36723" lon="5.92173">
        <ele>568</ele>
        <time>2019-04-09T13:22:01Z</time>
      </trkpt>
      <trkpt lat="44.36716" lon="5.92171">
        <ele>568</ele>
        <time>2019-04-09T13:22:02Z</time>
      </trkpt>
      <trkpt lat="44.3671" lon="5.9217">
        <ele>568</ele>
        <time>2019-04-09T13:22:03Z</time>
      </trkpt>
      <trkpt lat="44.36704" lon="5.92168">
        <ele>568</ele>
        <time>2019-04-09T13:22:04Z</time>
      </trkpt>
      <trkpt lat="44.36697" lon="5.92166">
        <ele>568</ele>
        <time>2019-04-09T13:22:05Z</time>
      </trkpt>
      <trkpt lat="44.36691" lon="5.92164">
        <ele>568</ele>
        <time>2019-04-09T13:22:06Z</time>
      </trkpt>
      <trkpt lat="44.36685" lon="5.92162">
        <ele>568</ele>
        <time>2019-04-09T13:22:07Z</time>
      </trkpt>
      <trkpt lat="44.36679" lon="5.9216">
        <ele>568</ele>
        <time>2019-04-09T13:22:08Z</time>
      </trkpt>
      <trkpt lat="44.36673" lon="5.92159">
        <ele>568</ele>
        <time>2019-04-09T13:22:09Z</time>
      </trkpt>
      <trkpt lat="44.36667" lon="5.92157">
        <ele>568</ele>
        <time>2019-04-09T13:22:10Z</time>
      </trkpt>
      <trkpt lat="44.36662" lon="5.92156">
        <ele>568</ele>
        <time>2019-04-09T13:22:11Z</time>
      </trkpt>
      <trkpt lat="44.36655" lon="5.92154">
        <ele>568</ele>
        <time>2019-04-09T13:22:12Z</time>
      </trkpt>
      <trkpt lat="44.36649" lon="5.92151">
        <ele>568</ele>
        <time>2019-04-09T13:22:13Z</time>
      </trkpt>
      <trkpt lat="44.36644" lon="5.92149">
        <ele>568</ele>
        <time>2019-04-09T13:22:14Z</time>
      </trkpt>
      <trkpt lat="44.36637" lon="5.92147">
        <ele>568</ele>
        <time>2019-04-09T13:22:15Z</time>
      </trkpt>
      <trkpt lat="44.36632" lon="5.92145">
        <ele>568</ele>
        <time>2019-04-09T13:22:16Z</time>
      </trkpt>
      <trkpt lat="44.36626" lon="5.92143">
        <ele>568</ele>
        <time>2019-04-09T13:22:17Z</time>
      </trkpt>
      <trkpt lat="44.3662" lon="5.9214">
        <ele>568</ele>
        <time>2019-04-09T13:22:18Z</time>
      </trkpt>
      <trkpt lat="44.36614" lon="5.92138">
        <ele>568</ele>
        <time>2019-04-09T13:22:19Z</time>
      </trkpt>
      <trkpt lat="44.36608" lon="5.92135">
        <ele>568</ele>
        <time>2019-04-09T13:22:20Z</time>
      </trkpt>
      <trkpt lat="44.36602" lon="5.92132">
        <ele>568</ele>
        <time>2019-04-09T13:22:21Z</time>
      </trkpt>
      <trkpt lat="44.36596" lon="5.92129">
        <ele>568</ele>
        <time>2019-04-09T13:22:22Z</time>
      </trkpt>
      <trkpt lat="44.3659" lon="5.92126">
        <ele>568</ele>
        <time>2019-04-09T13:22:23Z</time>
      </trkpt>
      <trkpt lat="44.36584" lon="5.92123">
        <ele>568</ele>
        <time>2019-04-09T13:22:24Z</time>
      </trkpt>
      <trkpt lat="44.36579" lon="5.92119">
        <ele>568</ele>
        <time>2019-04-09T13:22:25Z</time>
      </trkpt>
      <trkpt lat="44.36573" lon="5.92115">
        <ele>568</ele>
        <time>2019-04-09T13:22:26Z</time>
      </trkpt>
      <trkpt lat="44.36567" lon="5.92112">
        <ele>568</ele>
        <time>2019-04-09T13:22:27Z</time>
      </trkpt>
      <trkpt lat="44.36562" lon="5.92108">
        <ele>568</ele>
        <time>2019-04-09T13:22:28Z</time>
      </trkpt>
      <trkpt lat="44.36556" lon="5.92104">
        <ele>568</ele>
        <time>2019-04-09T13:22:29Z</time>
      </trkpt>
      <trkpt lat="44.36551" lon="5.921">
        <ele>568</ele>
        <time>2019-04-09T13:22:30Z</time>
      </trkpt>
      <trkpt lat="44.36545" lon="5.92096">
        <ele>568</ele>
        <time>2019-04-09T13:22:31Z</time>
      </trkpt>
      <trkpt lat="44.36539" lon="5.92092">
        <ele>568</ele>
        <time>2019-04-09T13:22:32Z</time>
      </trkpt>
      <trkpt lat="44.36533" lon="5.92088">
        <ele>568</ele>
        <time>2019-04-09T13:22:33Z</time>
      </trkpt>
      <trkpt lat="44.36528" lon="5.92085">
        <ele>568</ele>
        <time>2019-04-09T13:22:34Z</time>
      </trkpt>
      <trkpt lat="44.36522" lon="5.9208">
        <ele>568</ele>
        <time>2019-04-09T13:22:35Z</time>
      </trkpt>
      <trkpt lat="44.36517" lon="5.92076">
        <ele>568</ele>
        <time>2019-04-09T13:22:36Z</time>
      </trkpt>
      <trkpt lat="44.36511" lon="5.92072">
        <ele>568</ele>
        <time>2019-04-09T13:22:37Z</time>
      </trkpt>
      <trkpt lat="44.36505" lon="5.92069">
        <ele>568</ele>
        <time>2019-04-09T13:22:38Z</time>
      </trkpt>
      <trkpt lat="44.36499" lon="5.92065">
        <ele>568</ele>
        <time>2019-04-09T13:22:39Z</time>
      </trkpt>
      <trkpt lat="44.36494" lon="5.92061">
        <ele>568</ele>
        <time>2019-04-09T13:22:40Z</time>
      </trkpt>
      <trkpt lat="44.36488" lon="5.92058">
        <ele>568</ele>
        <time>2019-04-09T13:22:41Z</time>
      </trkpt>
      <trkpt lat="44.36482" lon="5.92054">
        <ele>568</ele>
        <time>2019-04-09T13:22:42Z</time>
      </trkpt>
      <trkpt lat="44.36476" lon="5.9205">
        <ele>568</ele>
        <time>2019-04-09T13:22:43Z</time>
      </trkpt>
      <trkpt lat="44.3647" lon="5.92046">
        <ele>568</ele>
        <time>2019-04-09T13:22:44Z</time>
      </trkpt>
      <trkpt lat="44.36464" lon="5.92042">
        <ele>568</ele>
        <time>2019-04-09T13:22:45Z</time>
      </trkpt>
      <trkpt lat="44.36459" lon="5.92038">
        <ele>568</ele>
        <time>2019-04-09T13:22:46Z</time>
      </trkpt>
      <trkpt lat="44.36453" lon="5.92034">
        <ele>568</ele>
        <time>2019-04-09T13:22:47Z</time>
      </trkpt>
      <trkpt lat="44.36448" lon="5.9203">
        <ele>568</ele>
        <time>2019-04-09T13:22:48Z</time>
      </trkpt>
      <trkpt lat="44.36442" lon="5.92026">
        <ele>568</ele>
        <time>2019-04-09T13:22:49Z</time>
      </trkpt>
      <trkpt lat="44.36436" lon="5.92022">
        <ele>568</ele>
        <time>2019-04-09T13:22:50Z</time>
      </trkpt>
      <trkpt lat="44.36431" lon="5.92018">
        <ele>568</ele>
        <time>2019-04-09T13:22:51Z</time>
      </trkpt>
      <trkpt lat="44.36425" lon="5.92014">
        <ele>568</ele>
        <time>2019-04-09T13:22:52Z</time>
      </trkpt>
      <trkpt lat="44.3642" lon="5.9201">
        <ele>568</ele>
        <time>2019-04-09T13:22:53Z</time>
      </trkpt>
      <trkpt lat="44.36415" lon="5.92006">
        <ele>568</ele>
        <time>2019-04-09T13:22:54Z</time>
      </trkpt>
      <trkpt lat="44.36409" lon="5.92002">
        <ele>568</ele>
        <time>2019-04-09T13:22:55Z</time>
      </trkpt>
      <trkpt lat="44.36404" lon="5.91999">
        <ele>568</ele>
        <time>2019-04-09T13:22:56Z</time>
      </trkpt>
      <trkpt lat="44.36399" lon="5.91995">
        <ele>568</ele>
        <time>2019-04-09T13:22:57Z</time>
      </trkpt>
      <trkpt lat="44.36393" lon="5.91992">
        <ele>568</ele>
        <time>2019-04-09T13:22:58Z</time>
      </trkpt>
      <trkpt lat="44.36388" lon="5.91988">
        <ele>568</ele>
        <time>2019-04-09T13:22:59Z</time>
      </trkpt>
      <trkpt lat="44.36383" lon="5.91984">
        <ele>568</ele>
        <time>2019-04-09T13:23:00Z</time>
      </trkpt>
      <trkpt lat="44.36378" lon="5.91981">
        <ele>568</ele>
        <time>2019-04-09T13:23:01Z</time>
      </trkpt>
      <trkpt lat="44.36373" lon="5.91977">
        <ele>568</ele>
        <time>2019-04-09T13:23:02Z</time>
      </trkpt>
      <trkpt lat="44.36367" lon="5.91973">
        <ele>568</ele>
        <time>2019-04-09T13:23:03Z</time>
      </trkpt>
      <trkpt lat="44.36362" lon="5.9197">
        <ele>568</ele>
        <time>2019-04-09T13:23:04Z</time>
      </trkpt>
      <trkpt lat="44.36357" lon="5.91966">
        <ele>568</ele>
        <time>2019-04-09T13:23:05Z</time>
      </trkpt>
      <trkpt lat="44.36352" lon="5.91963">
        <ele>568</ele>
        <time>2019-04-09T13:23:06Z</time>
      </trkpt>
      <trkpt lat="44.36346" lon="5.9196">
        <ele>568</ele>
        <time>2019-04-09T13:23:07Z</time>
      </trkpt>
      <trkpt lat="44.36341" lon="5.91957">
        <ele>568</ele>
        <time>2019-04-09T13:23:08Z</time>
      </trkpt>
      <trkpt lat="44.36336" lon="5.91953">
        <ele>568</ele>
        <time>2019-04-09T13:23:09Z</time>
      </trkpt>
      <trkpt lat="44.36331" lon="5.91949">
        <ele>568</ele>
        <time>2019-04-09T13:23:10Z</time>
      </trkpt>
      <trkpt lat="44.36326" lon="5.91945">
        <ele>568</ele>
        <time>2019-04-09T13:23:11Z</time>
      </trkpt>
      <trkpt lat="44.36321" lon="5.91941">
        <ele>568</ele>
        <time>2019-04-09T13:23:12Z</time>
      </trkpt>
      <trkpt lat="44.36315" lon="5.91938">
        <ele>568</ele>
        <time>2019-04-09T13:23:13Z</time>
      </trkpt>
      <trkpt lat="44.3631" lon="5.91934">
        <ele>568</ele>
        <time>2019-04-09T13:23:14Z</time>
      </trkpt>
      <trkpt lat="44.36304" lon="5.9193">
        <ele>568</ele>
        <time>2019-04-09T13:23:15Z</time>
      </trkpt>
      <trkpt lat="44.36299" lon="5.91926">
        <ele>568</ele>
        <time>2019-04-09T13:23:16Z</time>
      </trkpt>
      <trkpt lat="44.36294" lon="5.91922">
        <ele>568</ele>
        <time>2019-04-09T13:23:17Z</time>
      </trkpt>
      <trkpt lat="44.36288" lon="5.91919">
        <ele>568</ele>
        <time>2019-04-09T13:23:18Z</time>
      </trkpt>
      <trkpt lat="44.36283" lon="5.91915">
        <ele>568</ele>
        <time>2019-04-09T13:23:19Z</time>
      </trkpt>
      <trkpt lat="44.36277" lon="5.91911">
        <ele>568</ele>
        <time>2019-04-09T13:23:20Z</time>
      </trkpt>
      <trkpt lat="44.36272" lon="5.91907">
        <ele>568</ele>
        <time>2019-04-09T13:23:21Z</time>
      </trkpt>
      <trkpt lat="44.36267" lon="5.91903">
        <ele>568</ele>
        <time>2019-04-09T13:23:22Z</time>
      </trkpt>
      <trkpt lat="44.36261" lon="5.919">
        <ele>568</ele>
        <time>2019-04-09T13:23:23Z</time>
      </trkpt>
      <trkpt lat="44.36256" lon="5.91896">
        <ele>568</ele>
        <time>2019-04-09T13:23:24Z</time>
      </trkpt>
      <trkpt lat="44.36251" lon="5.91893">
        <ele>568</ele>
        <time>2019-04-09T13:23:25Z</time>
      </trkpt>
      <trkpt lat="44.36245" lon="5.91889">
        <ele>568</ele>
        <time>2019-04-09T13:23:26Z</time>
      </trkpt>
      <trkpt lat="44.3624" lon="5.91885">
        <ele>568</ele>
        <time>2019-04-09T13:23:27Z</time>
      </trkpt>
      <trkpt lat="44.36235" lon="5.91882">
        <ele>568</ele>
        <time>2019-04-09T13:23:28Z</time>
      </trkpt>
      <trkpt lat="44.3623" lon="5.91879">
        <ele>568</ele>
        <time>2019-04-09T13:23:29Z</time>
      </trkpt>
      <trkpt lat="44.36225" lon="5.91876">
        <ele>568</ele>
        <time>2019-04-09T13:23:30Z</time>
      </trkpt>
      <trkpt lat="44.3622" lon="5.91872">
        <ele>568</ele>
        <time>2019-04-09T13:23:31Z</time>
      </trkpt>
      <trkpt lat="44.36215" lon="5.91869">
        <ele>568</ele>
        <time>2019-04-09T13:23:32Z</time>
      </trkpt>
      <trkpt lat="44.3621" lon="5.91865">
        <ele>568</ele>
        <time>2019-04-09T13:23:33Z</time>
      </trkpt>
      <trkpt lat="44.36205" lon="5.91862">
        <ele>568</ele>
        <time>2019-04-09T13:23:34Z</time>
      </trkpt>
      <trkpt lat="44.36199" lon="5.91859">
        <ele>568</ele>
        <time>2019-04-09T13:23:35Z</time>
      </trkpt>
      <trkpt lat="44.36194" lon="5.91855">
        <ele>568</ele>
        <time>2019-04-09T13:23:36Z</time>
      </trkpt>
      <trkpt lat="44.36189" lon="5.91852">
        <ele>568</ele>
        <time>2019-04-09T13:23:37Z</time>
      </trkpt>
      <trkpt lat="44.36183" lon="5.91848">
        <ele>568</ele>
        <time>2019-04-09T13:23:38Z</time>
      </trkpt>
      <trkpt lat="44.36178" lon="5.91843">
        <ele>568</ele>
        <time>2019-04-09T13:23:39Z</time>
      </trkpt>
      <trkpt lat="44.36172" lon="5.91839">
        <ele>568</ele>
        <time>2019-04-09T13:23:40Z</time>
      </trkpt>
      <trkpt lat="44.36166" lon="5.91835">
        <ele>568</ele>
        <time>2019-04-09T13:23:41Z</time>
      </trkpt>
      <trkpt lat="44.3616" lon="5.91831">
        <ele>568</ele>
        <time>2019-04-09T13:23:42Z</time>
      </trkpt>
      <trkpt lat="44.36155" lon="5.91827">
        <ele>568</ele>
        <time>2019-04-09T13:23:43Z</time>
      </trkpt>
      <trkpt lat="44.36148" lon="5.91823">
        <ele>568</ele>
        <time>2019-04-09T13:23:44Z</time>
      </trkpt>
      <trkpt lat="44.36142" lon="5.91819">
        <ele>568</ele>
        <time>2019-04-09T13:23:45Z</time>
      </trkpt>
      <trkpt lat="44.36136" lon="5.91815">
        <ele>568</ele>
        <time>2019-04-09T13:23:46Z</time>
      </trkpt>
      <trkpt lat="44.36129" lon="5.91811">
        <ele>568</ele>
        <time>2019-04-09T13:23:47Z</time>
      </trkpt>
      <trkpt lat="44.36123" lon="5.91806">
        <ele>568</ele>
        <time>2019-04-09T13:23:48Z</time>
      </trkpt>
      <trkpt lat="44.36117" lon="5.91802">
        <ele>568</ele>
        <time>2019-04-09T13:23:49Z</time>
      </trkpt>
      <trkpt lat="44.36112" lon="5.91797">
        <ele>568</ele>
        <time>2019-04-09T13:23:50Z</time>
      </trkpt>
      <trkpt lat="44.36106" lon="5.91793">
        <ele>568</ele>
        <time>2019-04-09T13:23:51Z</time>
      </trkpt>
      <trkpt lat="44.361" lon="5.91789">
        <ele>568</ele>
        <time>2019-04-09T13:23:52Z</time>
      </trkpt>
      <trkpt lat="44.36094" lon="5.91785">
        <ele>568</ele>
        <time>2019-04-09T13:23:53Z</time>
      </trkpt>
      <trkpt lat="44.36088" lon="5.91782">
        <ele>568</ele>
        <time>2019-04-09T13:23:54Z</time>
      </trkpt>
      <trkpt lat="44.36083" lon="5.91778">
        <ele>568</ele>
        <time>2019-04-09T13:23:55Z</time>
      </trkpt>
      <trkpt lat="44.36077" lon="5.91774">
        <ele>568</ele>
        <time>2019-04-09T13:23:56Z</time>
      </trkpt>
      <trkpt lat="44.36072" lon="5.9177">
        <ele>568</ele>
        <time>2019-04-09T13:23:57Z</time>
      </trkpt>
      <trkpt lat="44.36067" lon="5.91767">
        <ele>568</ele>
        <time>2019-04-09T13:23:58Z</time>
      </trkpt>
      <trkpt lat="44.36061" lon="5.91763">
        <ele>568</ele>
        <time>2019-04-09T13:23:59Z</time>
      </trkpt>
      <trkpt lat="44.36056" lon="5.91759">
        <ele>568</ele>
        <time>2019-04-09T13:24:00Z</time>
      </trkpt>
      <trkpt lat="44.36051" lon="5.91755">
        <ele>568</ele>
        <time>2019-04-09T13:24:01Z</time>
      </trkpt>
      <trkpt lat="44.36045" lon="5.91752">
        <ele>568</ele>
        <time>2019-04-09T13:24:02Z</time>
      </trkpt>
      <trkpt lat="44.3604" lon="5.91748">
        <ele>568</ele>
        <time>2019-04-09T13:24:03Z</time>
      </trkpt>
      <trkpt lat="44.36035" lon="5.91745">
        <ele>568</ele>
        <time>2019-04-09T13:24:04Z</time>
      </trkpt>
      <trkpt lat="44.3603" lon="5.91741">
        <ele>568</ele>
        <time>2019-04-09T13:24:05Z</time>
      </trkpt>
      <trkpt lat="44.36025" lon="5.91737">
        <ele>568</ele>
        <time>2019-04-09T13:24:06Z</time>
      </trkpt>
      <trkpt lat="44.36019" lon="5.91733">
        <ele>568</ele>
        <time>2019-04-09T13:24:07Z</time>
      </trkpt>
      <trkpt lat="44.36014" lon="5.91729">
        <ele>568</ele>
        <time>2019-04-09T13:24:08Z</time>
      </trkpt>
      <trkpt lat="44.36009" lon="5.91725">
        <ele>568</ele>
        <time>2019-04-09T13:24:09Z</time>
      </trkpt>
      <trkpt lat="44.36003" lon="5.91722">
        <ele>568</ele>
        <time>2019-04-09T13:24:10Z</time>
      </trkpt>
      <trkpt lat="44.35998" lon="5.91718">
        <ele>568</ele>
        <time>2019-04-09T13:24:11Z</time>
      </trkpt>
      <trkpt lat="44.35993" lon="5.91714">
        <ele>568</ele>
        <time>2019-04-09T13:24:12Z</time>
      </trkpt>
      <trkpt lat="44.35987" lon="5.91711">
        <ele>568</ele>
        <time>2019-04-09T13:24:13Z</time>
      </trkpt>
      <trkpt lat="44.35982" lon="5.91708">
        <ele>568</ele>
        <time>2019-04-09T13:24:14Z</time>
      </trkpt>
      <trkpt lat="44.35977" lon="5.91705">
        <ele>568</ele>
        <time>2019-04-09T13:24:15Z</time>
      </trkpt>
      <trkpt lat="44.35972" lon="5.91701">
        <ele>568</ele>
        <time>2019-04-09T13:24:16Z</time>
      </trkpt>
      <trkpt lat="44.35967" lon="5.91697">
        <ele>568</ele>
        <time>2019-04-09T13:24:17Z</time>
      </trkpt>
      <trkpt lat="44.35962" lon="5.91693">
        <ele>568</ele>
        <time>2019-04-09T13:24:18Z</time>
      </trkpt>
      <trkpt lat="44.35957" lon="5.9169">
        <ele>568</ele>
        <time>2019-04-09T13:24:19Z</time>
      </trkpt>
      <trkpt lat="44.35952" lon="5.91686">
        <ele>568</ele>
        <time>2019-04-09T13:24:20Z</time>
      </trkpt>
      <trkpt lat="44.35947" lon="5.91682">
        <ele>568</ele>
        <time>2019-04-09T13:24:21Z</time>
      </trkpt>
      <trkpt lat="44.35941" lon="5.91679">
        <ele>568</ele>
        <time>2019-04-09T13:24:22Z</time>
      </trkpt>
      <trkpt lat="44.35936" lon="5.91675">
        <ele>568</ele>
        <time>2019-04-09T13:24:23Z</time>
      </trkpt>
      <trkpt lat="44.35931" lon="5.91672">
        <ele>568</ele>
        <time>2019-04-09T13:24:24Z</time>
      </trkpt>
      <trkpt lat="44.35925" lon="5.91668">
        <ele>568</ele>
        <time>2019-04-09T13:24:25Z</time>
      </trkpt>
      <trkpt lat="44.3592" lon="5.91664">
        <ele>568</ele>
        <time>2019-04-09T13:24:26Z</time>
      </trkpt>
      <trkpt lat="44.35914" lon="5.9166">
        <ele>568</ele>
        <time>2019-04-09T13:24:27Z</time>
      </trkpt>
      <trkpt lat="44.35909" lon="5.91657">
        <ele>568</ele>
        <time>2019-04-09T13:24:28Z</time>
      </trkpt>
      <trkpt lat="44.35903" lon="5.91653">
        <ele>568</ele>
        <time>2019-04-09T13:24:29Z</time>
      </trkpt>
      <trkpt lat="44.35897" lon="5.91649">
        <ele>568</ele>
        <time>2019-04-09T13:24:30Z</time>
      </trkpt>
      <trkpt lat="44.35892" lon="5.91646">
        <ele>568</ele>
        <time>2019-04-09T13:24:31Z</time>
      </trkpt>
      <trkpt lat="44.35886" lon="5.91642">
        <ele>568</ele>
        <time>2019-04-09T13:24:32Z</time>
      </trkpt>
      <trkpt lat="44.35881" lon="5.91638">
        <ele>568</ele>
        <time>2019-04-09T13:24:33Z</time>
      </trkpt>
      <trkpt lat="44.35876" lon="5.91635">
        <ele>568</ele>
        <time>2019-04-09T13:24:34Z</time>
      </trkpt>
      <trkpt lat="44.35871" lon="5.91631">
        <ele>568</ele>
        <time>2019-04-09T13:24:35Z</time>
      </trkpt>
      <trkpt lat="44.35865" lon="5.91627">
        <ele>568</ele>
        <time>2019-04-09T13:24:36Z</time>
      </trkpt>
      <trkpt lat="44.3586" lon="5.91623">
        <ele>568</ele>
        <time>2019-04-09T13:24:37Z</time>
      </trkpt>
      <trkpt lat="44.35855" lon="5.91619">
        <ele>568</ele>
        <time>2019-04-09T13:24:38Z</time>
      </trkpt>
      <trkpt lat="44.3585" lon="5.91616">
        <ele>568</ele>
        <time>2019-04-09T13:24:39Z</time>
      </trkpt>
      <trkpt lat="44.35845" lon="5.91612">
        <ele>568</ele>
        <time>2019-04-09T13:24:40Z</time>
      </trkpt>
      <trkpt lat="44.35839" lon="5.91608">
        <ele>568</ele>
        <time>2019-04-09T13:24:41Z</time>
      </trkpt>
      <trkpt lat="44.35834" lon="5.91605">
        <ele>568</ele>
        <time>2019-04-09T13:24:42Z</time>
      </trkpt>
      <trkpt lat="44.35829" lon="5.91601">
        <ele>568</ele>
        <time>2019-04-09T13:24:43Z</time>
      </trkpt>
      <trkpt lat="44.35823" lon="5.91598">
        <ele>568</ele>
        <time>2019-04-09T13:24:44Z</time>
      </trkpt>
      <trkpt lat="44.35818" lon="5.91595">
        <ele>568</ele>
        <time>2019-04-09T13:24:45Z</time>
      </trkpt>
      <trkpt lat="44.35813" lon="5.91591">
        <ele>568</ele>
        <time>2019-04-09T13:24:46Z</time>
      </trkpt>
      <trkpt lat="44.35808" lon="5.91587">
        <ele>568</ele>
        <time>2019-04-09T13:24:47Z</time>
      </trkpt>
      <trkpt lat="44.35803" lon="5.91584">
        <ele>568</ele>
        <time>2019-04-09T13:24:48Z</time>
      </trkpt>
      <trkpt lat="44.35798" lon="5.9158">
        <ele>568</ele>
        <time>2019-04-09T13:24:49Z</time>
      </trkpt>
      <trkpt lat="44.35792" lon="5.91577">
        <ele>568</ele>
        <time>2019-04-09T13:24:50Z</time>
      </trkpt>
      <trkpt lat="44.35787" lon="5.91573">
        <ele>568</ele>
        <time>2019-04-09T13:24:51Z</time>
      </trkpt>
      <trkpt lat="44.35781" lon="5.91569">
        <ele>568</ele>
        <time>2019-04-09T13:24:52Z</time>
      </trkpt>
      <trkpt lat="44.35776" lon="5.91565">
        <ele>568</ele>
        <time>2019-04-09T13:24:53Z</time>
      </trkpt>
      <trkpt lat="44.35771" lon="5.91562">
        <ele>568</ele>
        <time>2019-04-09T13:24:54Z</time>
      </trkpt>
      <trkpt lat="44.35765" lon="5.91558">
        <ele>568</ele>
        <time>2019-04-09T13:24:55Z</time>
      </trkpt>
      <trkpt lat="44.3576" lon="5.91554">
        <ele>568</ele>
        <time>2019-04-09T13:24:56Z</time>
      </trkpt>
      <trkpt lat="44.35754" lon="5.91551">
        <ele>568</ele>
        <time>2019-04-09T13:24:57Z</time>
      </trkpt>
      <trkpt lat="44.35749" lon="5.91547">
        <ele>568</ele>
        <time>2019-04-09T13:24:58Z</time>
      </trkpt>
      <trkpt lat="44.35744" lon="5.91543">
        <ele>568</ele>
        <time>2019-04-09T13:24:59Z</time>
      </trkpt>
      <trkpt lat="44.35739" lon="5.9154">
        <ele>568</ele>
        <time>2019-04-09T13:25:00Z</time>
      </trkpt>
      <trkpt lat="44.35734" lon="5.91536">
        <ele>568</ele>
        <time>2019-04-09T13:25:01Z</time>
      </trkpt>
      <trkpt lat="44.35729" lon="5.91532">
        <ele>568</ele>
        <time>2019-04-09T13:25:02Z</time>
      </trkpt>
      <trkpt lat="44.35723" lon="5.91528">
        <ele>568</ele>
        <time>2019-04-09T13:25:03Z</time>
      </trkpt>
      <trkpt lat="44.35718" lon="5.91525">
        <ele>568</ele>
        <time>2019-04-09T13:25:04Z</time>
      </trkpt>
      <trkpt lat="44.35712" lon="5.91521">
        <ele>568</ele>
        <time>2019-04-09T13:25:05Z</time>
      </trkpt>
      <trkpt lat="44.35707" lon="5.91517">
        <ele>568</ele>
        <time>2019-04-09T13:25:06Z</time>
      </trkpt>
      <trkpt lat="44.35701" lon="5.91513">
        <ele>568</ele>
        <time>2019-04-09T13:25:07Z</time>
      </trkpt>
      <trkpt lat="44.35696" lon="5.91509">
        <ele>568</ele>
        <time>2019-04-09T13:25:08Z</time>
      </trkpt>
      <trkpt lat="44.3569" lon="5.91506">
        <ele>568</ele>
        <time>2019-04-09T13:25:09Z</time>
      </trkpt>
      <trkpt lat="44.35685" lon="5.91502">
        <ele>568</ele>
        <time>2019-04-09T13:25:10Z</time>
      </trkpt>
      <trkpt lat="44.3568" lon="5.91499">
        <ele>568</ele>
        <time>2019-04-09T13:25:11Z</time>
      </trkpt>
      <trkpt lat="44.35675" lon="5.91494">
        <ele>568</ele>
        <time>2019-04-09T13:25:12Z</time>
      </trkpt>
      <trkpt lat="44.35669" lon="5.9149">
        <ele>568</ele>
        <time>2019-04-09T13:25:13Z</time>
      </trkpt>
      <trkpt lat="44.35664" lon="5.91486">
        <ele>568</ele>
        <time>2019-04-09T13:25:14Z</time>
      </trkpt>
      <trkpt lat="44.35659" lon="5.91482">
        <ele>568</ele>
        <time>2019-04-09T13:25:15Z</time>
      </trkpt>
      <trkpt lat="44.35654" lon="5.91479">
        <ele>568</ele>
        <time>2019-04-09T13:25:16Z</time>
      </trkpt>
      <trkpt lat="44.35648" lon="5.91475">
        <ele>568</ele>
        <time>2019-04-09T13:25:17Z</time>
      </trkpt>
      <trkpt lat="44.35643" lon="5.91471">
        <ele>568</ele>
        <time>2019-04-09T13:25:18Z</time>
      </trkpt>
      <trkpt lat="44.35638" lon="5.91467">
        <ele>568</ele>
        <time>2019-04-09T13:25:19Z</time>
      </trkpt>
      <trkpt lat="44.35632" lon="5.91464">
        <ele>568</ele>
        <time>2019-04-09T13:25:20Z</time>
      </trkpt>
      <trkpt lat="44.35627" lon="5.91461">
        <ele>568</ele>
        <time>2019-04-09T13:25:21Z</time>
      </trkpt>
      <trkpt lat="44.35622" lon="5.91458">
        <ele>568</ele>
        <time>2019-04-09T13:25:22Z</time>
      </trkpt>
      <trkpt lat="44.35616" lon="5.91455">
        <ele>568</ele>
        <time>2019-04-09T13:25:23Z</time>
      </trkpt>
      <trkpt lat="44.35611" lon="5.91452">
        <ele>568</ele>
        <time>2019-04-09T13:25:24Z</time>
      </trkpt>
      <trkpt lat="44.35606" lon="5.91448">
        <ele>568</ele>
        <time>2019-04-09T13:25:25Z</time>
      </trkpt>
      <trkpt lat="44.35601" lon="5.91445">
        <ele>568</ele>
        <time>2019-04-09T13:25:26Z</time>
      </trkpt>
      <trkpt lat="44.35596" lon="5.91442">
        <ele>568</ele>
        <time>2019-04-09T13:25:27Z</time>
      </trkpt>
      <trkpt lat="44.35591" lon="5.91439">
        <ele>568</ele>
        <time>2019-04-09T13:25:28Z</time>
      </trkpt>
      <trkpt lat="44.35587" lon="5.91435">
        <ele>568</ele>
        <time>2019-04-09T13:25:29Z</time>
      </trkpt>
      <trkpt lat="44.35582" lon="5.91432">
        <ele>568</ele>
        <time>2019-04-09T13:25:30Z</time>
      </trkpt>
      <trkpt lat="44.35577" lon="5.91429">
        <ele>568</ele>
        <time>2019-04-09T13:25:31Z</time>
      </trkpt>
      <trkpt lat="44.35572" lon="5.91425">
        <ele>568</ele>
        <time>2019-04-09T13:25:32Z</time>
      </trkpt>
      <trkpt lat="44.35567" lon="5.91422">
        <ele>568</ele>
        <time>2019-04-09T13:25:33Z</time>
      </trkpt>
      <trkpt lat="44.35563" lon="5.91419">
        <ele>568</ele>
        <time>2019-04-09T13:25:34Z</time>
      </trkpt>
      <trkpt lat="44.35558" lon="5.91416">
        <ele>568</ele>
        <time>2019-04-09T13:25:35Z</time>
      </trkpt>
      <trkpt lat="44.35553" lon="5.91413">
        <ele>568</ele>
        <time>2019-04-09T13:25:36Z</time>
      </trkpt>
      <trkpt lat="44.35549" lon="5.9141">
        <ele>568</ele>
        <time>2019-04-09T13:25:37Z</time>
      </trkpt>
      <trkpt lat="44.35544" lon="5.91407">
        <ele>568</ele>
        <time>2019-04-09T13:25:38Z</time>
      </trkpt>
      <trkpt lat="44.3554" lon="5.91404">
        <ele>568</ele>
        <time>2019-04-09T13:25:39Z</time>
      </trkpt>
      <trkpt lat="44.35535" lon="5.91401">
        <ele>568</ele>
        <time>2019-04-09T13:25:40Z</time>
      </trkpt>
      <trkpt lat="44.35531" lon="5.91399">
        <ele>568</ele>
        <time>2019-04-09T13:25:41Z</time>
      </trkpt>
      <trkpt lat="44.35527" lon="5.91396">
        <ele>568</ele>
        <time>2019-04-09T13:25:42Z</time>
      </trkpt>
      <trkpt lat="44.35523" lon="5.91394">
        <ele>568</ele>
        <time>2019-04-09T13:25:43Z</time>
      </trkpt>
      <trkpt lat="44.35519" lon="5.91391">
        <ele>568</ele>
        <time>2019-04-09T13:25:44Z</time>
      </trkpt>
      <trkpt lat="44.35514" lon="5.91388">
        <ele>568</ele>
        <time>2019-04-09T13:25:45Z</time>
      </trkpt>
      <trkpt lat="44.35509" lon="5.91385">
        <ele>568</ele>
        <time>2019-04-09T13:25:46Z</time>
      </trkpt>
      <trkpt lat="44.35505" lon="5.91382">
        <ele>568</ele>
        <time>2019-04-09T13:25:47Z</time>
      </trkpt>
      <trkpt lat="44.355" lon="5.91379">
        <ele>568</ele>
        <time>2019-04-09T13:25:48Z</time>
      </trkpt>
      <trkpt lat="44.35495" lon="5.91376">
        <ele>568</ele>
        <time>2019-04-09T13:25:49Z</time>
      </trkpt>
      <trkpt lat="44.35489" lon="5.91373">
        <ele>568</ele>
        <time>2019-04-09T13:25:50Z</time>
      </trkpt>
      <trkpt lat="44.35484" lon="5.9137">
        <ele>568</ele>
        <time>2019-04-09T13:25:51Z</time>
      </trkpt>
      <trkpt lat="44.35478" lon="5.91366">
        <ele>568</ele>
        <time>2019-04-09T13:25:52Z</time>
      </trkpt>
      <trkpt lat="44.35472" lon="5.91362">
        <ele>568</ele>
        <time>2019-04-09T13:25:53Z</time>
      </trkpt>
      <trkpt lat="44.35466" lon="5.91358">
        <ele>568</ele>
        <time>2019-04-09T13:25:54Z</time>
      </trkpt>
      <trkpt lat="44.35461" lon="5.91354">
        <ele>568</ele>
        <time>2019-04-09T13:25:55Z</time>
      </trkpt>
      <trkpt lat="44.35455" lon="5.9135">
        <ele>568</ele>
        <time>2019-04-09T13:25:56Z</time>
      </trkpt>
      <trkpt lat="44.35448" lon="5.91346">
        <ele>568</ele>
        <time>2019-04-09T13:25:57Z</time>
      </trkpt>
      <trkpt lat="44.35442" lon="5.91341">
        <ele>568</ele>
        <time>2019-04-09T13:25:58Z</time>
      </trkpt>
      <trkpt lat="44.35435" lon="5.91337">
        <ele>568</ele>
        <time>2019-04-09T13:25:59Z</time>
      </trkpt>
      <trkpt lat="44.35429" lon="5.91333">
        <ele>568</ele>
        <time>2019-04-09T13:26:00Z</time>
      </trkpt>
      <trkpt lat="44.35423" lon="5.91328">
        <ele>568</ele>
        <time>2019-04-09T13:26:01Z</time>
      </trkpt>
      <trkpt lat="44.35417" lon="5.91324">
        <ele>568</ele>
        <time>2019-04-09T13:26:02Z</time>
      </trkpt>
      <trkpt lat="44.35411" lon="5.91319">
        <ele>568</ele>
        <time>2019-04-09T13:26:03Z</time>
      </trkpt>
      <trkpt lat="44.35405" lon="5.91315">
        <ele>568</ele>
        <time>2019-04-09T13:26:04Z</time>
      </trkpt>
      <trkpt lat="44.35399" lon="5.91311">
        <ele>568</ele>
        <time>2019-04-09T13:26:05Z</time>
      </trkpt>
      <trkpt lat="44.35393" lon="5.91307">
        <ele>568</ele>
        <time>2019-04-09T13:26:06Z</time>
      </trkpt>
      <trkpt lat="44.35388" lon="5.91303">
        <ele>568</ele>
        <time>2019-04-09T13:26:07Z</time>
      </trkpt>
      <trkpt lat="44.35382" lon="5.91298">
        <ele>568</ele>
        <time>2019-04-09T13:26:08Z</time>
      </trkpt>
      <trkpt lat="44.35376" lon="5.91294">
        <ele>568</ele>
        <time>2019-04-09T13:26:09Z</time>
      </trkpt>
      <trkpt lat="44.35371" lon="5.9129">
        <ele>568</ele>
        <time>2019-04-09T13:26:10Z</time>
      </trkpt>
      <trkpt lat="44.35365" lon="5.91286">
        <ele>568</ele>
        <time>2019-04-09T13:26:11Z</time>
      </trkpt>
      <trkpt lat="44.3536" lon="5.91281">
        <ele>568</ele>
        <time>2019-04-09T13:26:12Z</time>
      </trkpt>
      <trkpt lat="44.35354" lon="5.91277">
        <ele>568</ele>
        <time>2019-04-09T13:26:13Z</time>
      </trkpt>
      <trkpt lat="44.35348" lon="5.91272">
        <ele>568</ele>
        <time>2019-04-09T13:26:14Z</time>
      </trkpt>
      <trkpt lat="44.35342" lon="5.91267">
        <ele>568</ele>
        <time>2019-04-09T13:26:15Z</time>
      </trkpt>
      <trkpt lat="44.35336" lon="5.91262">
        <ele>568</ele>
        <time>2019-04-09T13:26:16Z</time>
      </trkpt>
      <trkpt lat="44.3533" lon="5.91257">
        <ele>568</ele>
        <time>2019-04-09T13:26:17Z</time>
      </trkpt>
      <trkpt lat="44.35324" lon="5.91253">
        <ele>568</ele>
        <time>2019-04-09T13:26:18Z</time>
      </trkpt>
      <trkpt lat="44.35318" lon="5.91249">
        <ele>568</ele>
        <time>2019-04-09T13:26:19Z</time>
      </trkpt>
      <trkpt lat="44.35312" lon="5.91244">
        <ele>568</ele>
        <time>2019-04-09T13:26:20Z</time>
      </trkpt>
      <trkpt lat="44.35306" lon="5.91239">
        <ele>568</ele>
        <time>2019-04-09T13:26:21Z</time>
      </trkpt>
      <trkpt lat="44.353" lon="5.91234">
        <ele>568</ele>
        <time>2019-04-09T13:26:22Z</time>
      </trkpt>
      <trkpt lat="44.35294" lon="5.91229">
        <ele>568</ele>
        <time>2019-04-09T13:26:23Z</time>
      </trkpt>
      <trkpt lat="44.35289" lon="5.91224">
        <ele>568</ele>
        <time>2019-04-09T13:26:24Z</time>
      </trkpt>
      <trkpt lat="44.35283" lon="5.9122">
        <ele>568</ele>
        <time>2019-04-09T13:26:25Z</time>
      </trkpt>
      <trkpt lat="44.35277" lon="5.91215">
        <ele>568</ele>
        <time>2019-04-09T13:26:26Z</time>
      </trkpt>
      <trkpt lat="44.35271" lon="5.9121">
        <ele>568</ele>
        <time>2019-04-09T13:26:27Z</time>
      </trkpt>
      <trkpt lat="44.35266" lon="5.91206">
        <ele>568</ele>
        <time>2019-04-09T13:26:28Z</time>
      </trkpt>
      <trkpt lat="44.3526" lon="5.912">
        <ele>568</ele>
        <time>2019-04-09T13:26:29Z</time>
      </trkpt>
      <trkpt lat="44.35255" lon="5.91196">
        <ele>568</ele>
        <time>2019-04-09T13:26:30Z</time>
      </trkpt>
      <trkpt lat="44.35249" lon="5.91191">
        <ele>568</ele>
        <time>2019-04-09T13:26:31Z</time>
      </trkpt>
      <trkpt lat="44.35243" lon="5.91186">
        <ele>568</ele>
        <time>2019-04-09T13:26:32Z</time>
      </trkpt>
      <trkpt lat="44.35238" lon="5.91181">
        <ele>568</ele>
        <time>2019-04-09T13:26:33Z</time>
      </trkpt>
      <trkpt lat="44.35232" lon="5.91175">
        <ele>568</ele>
        <time>2019-04-09T13:26:34Z</time>
      </trkpt>
      <trkpt lat="44.35226" lon="5.9117">
        <ele>568</ele>
        <time>2019-04-09T13:26:35Z</time>
      </trkpt>
      <trkpt lat="44.35221" lon="5.91165">
        <ele>568</ele>
        <time>2019-04-09T13:26:36Z</time>
      </trkpt>
      <trkpt lat="44.35215" lon="5.9116">
        <ele>568</ele>
        <time>2019-04-09T13:26:37Z</time>
      </trkpt>
      <trkpt lat="44.35209" lon="5.91155">
        <ele>568</ele>
        <time>2019-04-09T13:26:38Z</time>
      </trkpt>
      <trkpt lat="44.35204" lon="5.9115">
        <ele>568</ele>
        <time>2019-04-09T13:26:39Z</time>
      </trkpt>
      <trkpt lat="44.35198" lon="5.91145">
        <ele>568</ele>
        <time>2019-04-09T13:26:40Z</time>
      </trkpt>
      <trkpt lat="44.35192" lon="5.91139">
        <ele>568</ele>
        <time>2019-04-09T13:26:41Z</time>
      </trkpt>
      <trkpt lat="44.35187" lon="5.91134">
        <ele>568</ele>
        <time>2019-04-09T13:26:42Z</time>
      </trkpt>
      <trkpt lat="44.35181" lon="5.91128">
        <ele>568</ele>
        <time>2019-04-09T13:26:43Z</time>
      </trkpt>
      <trkpt lat="44.35175" lon="5.91122">
        <ele>568</ele>
        <time>2019-04-09T13:26:44Z</time>
      </trkpt>
      <trkpt lat="44.3517" lon="5.91117">
        <ele>568</ele>
        <time>2019-04-09T13:26:45Z</time>
      </trkpt>
      <trkpt lat="44.35164" lon="5.91111">
        <ele>568</ele>
        <time>2019-04-09T13:26:46Z</time>
      </trkpt>
      <trkpt lat="44.35159" lon="5.91106">
        <ele>568</ele>
        <time>2019-04-09T13:26:47Z</time>
      </trkpt>
      <trkpt lat="44.35153" lon="5.91101">
        <ele>568</ele>
        <time>2019-04-09T13:26:48Z</time>
      </trkpt>
      <trkpt lat="44.35147" lon="5.91095">
        <ele>568</ele>
        <time>2019-04-09T13:26:49Z</time>
      </trkpt>
      <trkpt lat="44.35141" lon="5.9109">
        <ele>568</ele>
        <time>2019-04-09T13:26:50Z</time>
      </trkpt>
      <trkpt lat="44.35135" lon="5.91085">
        <ele>568</ele>
        <time>2019-04-09T13:26:51Z</time>
      </trkpt>
      <trkpt lat="44.3513" lon="5.91079">
        <ele>568</ele>
        <time>2019-04-09T13:26:52Z</time>
      </trkpt>
      <trkpt lat="44.35124" lon="5.91074">
        <ele>568</ele>
        <time>2019-04-09T13:26:53Z</time>
      </trkpt>
      <trkpt lat="44.35118" lon="5.91068">
        <ele>567</ele>
        <time>2019-04-09T13:26:54Z</time>
      </trkpt>
      <trkpt lat="44.35112" lon="5.91063">
        <ele>567</ele>
        <time>2019-04-09T13:26:55Z</time>
      </trkpt>
      <trkpt lat="44.35107" lon="5.91057">
        <ele>567</ele>
        <time>2019-04-09T13:26:56Z</time>
      </trkpt>
      <trkpt lat="44.35101" lon="5.91052">
        <ele>567</ele>
        <time>2019-04-09T13:26:57Z</time>
      </trkpt>
      <trkpt lat="44.35095" lon="5.91046">
        <ele>566</ele>
        <time>2019-04-09T13:26:58Z</time>
      </trkpt>
      <trkpt lat="44.35089" lon="5.9104">
        <ele>566</ele>
        <time>2019-04-09T13:26:59Z</time>
      </trkpt>
      <trkpt lat="44.35083" lon="5.91035">
        <ele>566</ele>
        <time>2019-04-09T13:27:00Z</time>
      </trkpt>
      <trkpt lat="44.35076" lon="5.91029">
        <ele>566</ele>
        <time>2019-04-09T13:27:01Z</time>
      </trkpt>
      <trkpt lat="44.3507" lon="5.91024">
        <ele>565</ele>
        <time>2019-04-09T13:27:02Z</time>
      </trkpt>
      <trkpt lat="44.35064" lon="5.91018">
        <ele>565</ele>
        <time>2019-04-09T13:27:03Z</time>
      </trkpt>
      <trkpt lat="44.35058" lon="5.91013">
        <ele>565</ele>
        <time>2019-04-09T13:27:04Z</time>
      </trkpt>
      <trkpt lat="44.35052" lon="5.91007">
        <ele>565</ele>
        <time>2019-04-09T13:27:05Z</time>
      </trkpt>
      <trkpt lat="44.35046" lon="5.91001">
        <ele>565</ele>
        <time>2019-04-09T13:27:06Z</time>
      </trkpt>
      <trkpt lat="44.35039" lon="5.90995">
        <ele>564</ele>
        <time>2019-04-09T13:27:07Z</time>
      </trkpt>
      <trkpt lat="44.35033" lon="5.90989">
        <ele>564</ele>
        <time>2019-04-09T13:27:08Z</time>
      </trkpt>
      <trkpt lat="44.35027" lon="5.90983">
        <ele>564</ele>
        <time>2019-04-09T13:27:09Z</time>
      </trkpt>
      <trkpt lat="44.3502" lon="5.90977">
        <ele>564</ele>
        <time>2019-04-09T13:27:10Z</time>
      </trkpt>
      <trkpt lat="44.35014" lon="5.90971">
        <ele>563</ele>
        <time>2019-04-09T13:27:11Z</time>
      </trkpt>
      <trkpt lat="44.35007" lon="5.90965">
        <ele>563</ele>
        <time>2019-04-09T13:27:12Z</time>
      </trkpt>
      <trkpt lat="44.35001" lon="5.90959">
        <ele>563</ele>
        <time>2019-04-09T13:27:13Z</time>
      </trkpt>
      <trkpt lat="44.34995" lon="5.90953">
        <ele>562</ele>
        <time>2019-04-09T13:27:14Z</time>
      </trkpt>
      <trkpt lat="44.34988" lon="5.90947">
        <ele>562</ele>
        <time>2019-04-09T13:27:15Z</time>
      </trkpt>
      <trkpt lat="44.34982" lon="5.90941">
        <ele>562</ele>
        <time>2019-04-09T13:27:16Z</time>
      </trkpt>
      <trkpt lat="44.34976" lon="5.90936">
        <ele>562</ele>
        <time>2019-04-09T13:27:17Z</time>
      </trkpt>
      <trkpt lat="44.34969" lon="5.9093">
        <ele>561</ele>
        <time>2019-04-09T13:27:18Z</time>
      </trkpt>
      <trkpt lat="44.34963" lon="5.90924">
        <ele>561</ele>
        <time>2019-04-09T13:27:19Z</time>
      </trkpt>
      <trkpt lat="44.34956" lon="5.90918">
        <ele>561</ele>
        <time>2019-04-09T13:27:20Z</time>
      </trkpt>
      <trkpt lat="44.3495" lon="5.90913">
        <ele>561</ele>
        <time>2019-04-09T13:27:21Z</time>
      </trkpt>
      <trkpt lat="44.34943" lon="5.90907">
        <ele>561</ele>
        <time>2019-04-09T13:27:22Z</time>
      </trkpt>
      <trkpt lat="44.34937" lon="5.90902">
        <ele>561</ele>
        <time>2019-04-09T13:27:23Z</time>
      </trkpt>
      <trkpt lat="44.3493" lon="5.90897">
        <ele>561</ele>
        <time>2019-04-09T13:27:24Z</time>
      </trkpt>
      <trkpt lat="44.34924" lon="5.90892">
        <ele>561</ele>
        <time>2019-04-09T13:27:25Z</time>
      </trkpt>
      <trkpt lat="44.34919" lon="5.90888">
        <ele>561</ele>
        <time>2019-04-09T13:27:26Z</time>
      </trkpt>
      <trkpt lat="44.34913" lon="5.90884">
        <ele>561</ele>
        <time>2019-04-09T13:27:27Z</time>
      </trkpt>
      <trkpt lat="44.34907" lon="5.90879">
        <ele>561</ele>
        <time>2019-04-09T13:27:28Z</time>
      </trkpt>
      <trkpt lat="44.34901" lon="5.90875">
        <ele>561</ele>
        <time>2019-04-09T13:27:29Z</time>
      </trkpt>
      <trkpt lat="44.34896" lon="5.90871">
        <ele>561</ele>
        <time>2019-04-09T13:27:30Z</time>
      </trkpt>
      <trkpt lat="44.34891" lon="5.90868">
        <ele>561</ele>
        <time>2019-04-09T13:27:31Z</time>
      </trkpt>
      <trkpt lat="44.34885" lon="5.90864">
        <ele>561</ele>
        <time>2019-04-09T13:27:32Z</time>
      </trkpt>
      <trkpt lat="44.3488" lon="5.9086">
        <ele>561</ele>
        <time>2019-04-09T13:27:33Z</time>
      </trkpt>
      <trkpt lat="44.34875" lon="5.90856">
        <ele>561</ele>
        <time>2019-04-09T13:27:34Z</time>
      </trkpt>
      <trkpt lat="44.3487" lon="5.90852">
        <ele>561</ele>
        <time>2019-04-09T13:27:35Z</time>
      </trkpt>
      <trkpt lat="44.34865" lon="5.90848">
        <ele>561</ele>
        <time>2019-04-09T13:27:36Z</time>
      </trkpt>
      <trkpt lat="44.3486" lon="5.90844">
        <ele>561</ele>
        <time>2019-04-09T13:27:37Z</time>
      </trkpt>
      <trkpt lat="44.34855" lon="5.9084">
        <ele>561</ele>
        <time>2019-04-09T13:27:38Z</time>
      </trkpt>
      <trkpt lat="44.3485" lon="5.90836">
        <ele>561</ele>
        <time>2019-04-09T13:27:39Z</time>
      </trkpt>
      <trkpt lat="44.34845" lon="5.90832">
        <ele>561</ele>
        <time>2019-04-09T13:27:40Z</time>
      </trkpt>
      <trkpt lat="44.3484" lon="5.90828">
        <ele>561</ele>
        <time>2019-04-09T13:27:41Z</time>
      </trkpt>
      <trkpt lat="44.34834" lon="5.90824">
        <ele>561</ele>
        <time>2019-04-09T13:27:42Z</time>
      </trkpt>
      <trkpt lat="44.34829" lon="5.9082">
        <ele>561</ele>
        <time>2019-04-09T13:27:43Z</time>
      </trkpt>
      <trkpt lat="44.34824" lon="5.90816">
        <ele>561</ele>
        <time>2019-04-09T13:27:44Z</time>
      </trkpt>
      <trkpt lat="44.34819" lon="5.90812">
        <ele>561</ele>
        <time>2019-04-09T13:27:45Z</time>
      </trkpt>
      <trkpt lat="44.34814" lon="5.90808">
        <ele>561</ele>
        <time>2019-04-09T13:27:46Z</time>
      </trkpt>
      <trkpt lat="44.34809" lon="5.90804">
        <ele>561</ele>
        <time>2019-04-09T13:27:47Z</time>
      </trkpt>
      <trkpt lat="44.34804" lon="5.908">
        <ele>561</ele>
        <time>2019-04-09T13:27:48Z</time>
      </trkpt>
      <trkpt lat="44.34799" lon="5.90796">
        <ele>561</ele>
        <time>2019-04-09T13:27:49Z</time>
      </trkpt>
      <trkpt lat="44.34794" lon="5.90792">
        <ele>561</ele>
        <time>2019-04-09T13:27:50Z</time>
      </trkpt>
      <trkpt lat="44.34789" lon="5.90788">
        <ele>561</ele>
        <time>2019-04-09T13:27:51Z</time>
      </trkpt>
      <trkpt lat="44.34784" lon="5.90784">
        <ele>561</ele>
        <time>2019-04-09T13:27:52Z</time>
      </trkpt>
      <trkpt lat="44.34778" lon="5.9078">
        <ele>561</ele>
        <time>2019-04-09T13:27:53Z</time>
      </trkpt>
      <trkpt lat="44.34773" lon="5.90776">
        <ele>561</ele>
        <time>2019-04-09T13:27:54Z</time>
      </trkpt>
      <trkpt lat="44.34768" lon="5.90772">
        <ele>561</ele>
        <time>2019-04-09T13:27:55Z</time>
      </trkpt>
      <trkpt lat="44.34763" lon="5.90767">
        <ele>561</ele>
        <time>2019-04-09T13:27:56Z</time>
      </trkpt>
      <trkpt lat="44.34758" lon="5.90763">
        <ele>561</ele>
        <time>2019-04-09T13:27:57Z</time>
      </trkpt>
      <trkpt lat="44.34753" lon="5.90759">
        <ele>561</ele>
        <time>2019-04-09T13:27:58Z</time>
      </trkpt>
      <trkpt lat="44.34748" lon="5.90755">
        <ele>561</ele>
        <time>2019-04-09T13:27:59Z</time>
      </trkpt>
      <trkpt lat="44.34743" lon="5.90751">
        <ele>561</ele>
        <time>2019-04-09T13:28:00Z</time>
      </trkpt>
      <trkpt lat="44.34738" lon="5.90747">
        <ele>561</ele>
        <time>2019-04-09T13:28:01Z</time>
      </trkpt>
      <trkpt lat="44.34733" lon="5.90743">
        <ele>561</ele>
        <time>2019-04-09T13:28:02Z</time>
      </trkpt>
      <trkpt lat="44.34728" lon="5.90739">
        <ele>561</ele>
        <time>2019-04-09T13:28:03Z</time>
      </trkpt>
      <trkpt lat="44.34723" lon="5.90736">
        <ele>561</ele>
        <time>2019-04-09T13:28:04Z</time>
      </trkpt>
      <trkpt lat="44.34718" lon="5.90732">
        <ele>561</ele>
        <time>2019-04-09T13:28:05Z</time>
      </trkpt>
      <trkpt lat="44.34713" lon="5.90729">
        <ele>561</ele>
        <time>2019-04-09T13:28:06Z</time>
      </trkpt>
      <trkpt lat="44.34708" lon="5.90726">
        <ele>561</ele>
        <time>2019-04-09T13:28:07Z</time>
      </trkpt>
      <trkpt lat="44.34704" lon="5.90723">
        <ele>561</ele>
        <time>2019-04-09T13:28:08Z</time>
      </trkpt>
      <trkpt lat="44.34699" lon="5.9072">
        <ele>561</ele>
        <time>2019-04-09T13:28:09Z</time>
      </trkpt>
      <trkpt lat="44.34695" lon="5.90717">
        <ele>561</ele>
        <time>2019-04-09T13:28:10Z</time>
      </trkpt>
      <trkpt lat="44.3469" lon="5.90714">
        <ele>561</ele>
        <time>2019-04-09T13:28:11Z</time>
      </trkpt>
      <trkpt lat="44.34686" lon="5.90711">
        <ele>561</ele>
        <time>2019-04-09T13:28:12Z</time>
      </trkpt>
      <trkpt lat="44.34681" lon="5.90708">
        <ele>561</ele>
        <time>2019-04-09T13:28:13Z</time>
      </trkpt>
      <trkpt lat="44.34677" lon="5.90706">
        <ele>561</ele>
        <time>2019-04-09T13:28:14Z</time>
      </trkpt>
      <trkpt lat="44.34673" lon="5.90703">
        <ele>561</ele>
        <time>2019-04-09T13:28:15Z</time>
      </trkpt>
      <trkpt lat="44.34669" lon="5.907">
        <ele>561</ele>
        <time>2019-04-09T13:28:16Z</time>
      </trkpt>
      <trkpt lat="44.34665" lon="5.90698">
        <ele>562</ele>
        <time>2019-04-09T13:28:17Z</time>
      </trkpt>
      <trkpt lat="44.34661" lon="5.90695">
        <ele>562</ele>
        <time>2019-04-09T13:28:18Z</time>
      </trkpt>
      <trkpt lat="44.34657" lon="5.90692">
        <ele>562</ele>
        <time>2019-04-09T13:28:19Z</time>
      </trkpt>
      <trkpt lat="44.34652" lon="5.90689">
        <ele>563</ele>
        <time>2019-04-09T13:28:20Z</time>
      </trkpt>
      <trkpt lat="44.34648" lon="5.90687">
        <ele>563</ele>
        <time>2019-04-09T13:28:21Z</time>
      </trkpt>
      <trkpt lat="44.34644" lon="5.90685">
        <ele>563</ele>
        <time>2019-04-09T13:28:22Z</time>
      </trkpt>
      <trkpt lat="44.3464" lon="5.90683">
        <ele>564</ele>
        <time>2019-04-09T13:28:23Z</time>
      </trkpt>
      <trkpt lat="44.34636" lon="5.9068">
        <ele>564</ele>
        <time>2019-04-09T13:28:24Z</time>
      </trkpt>
      <trkpt lat="44.34632" lon="5.90678">
        <ele>564</ele>
        <time>2019-04-09T13:28:25Z</time>
      </trkpt>
      <trkpt lat="44.34628" lon="5.90675">
        <ele>565</ele>
        <time>2019-04-09T13:28:26Z</time>
      </trkpt>
      <trkpt lat="44.34624" lon="5.90672">
        <ele>565</ele>
        <time>2019-04-09T13:28:27Z</time>
      </trkpt>
      <trkpt lat="44.3462" lon="5.90669">
        <ele>566</ele>
        <time>2019-04-09T13:28:28Z</time>
      </trkpt>
      <trkpt lat="44.34616" lon="5.90665">
        <ele>566</ele>
        <time>2019-04-09T13:28:29Z</time>
      </trkpt>
      <trkpt lat="44.34612" lon="5.90661">
        <ele>566</ele>
        <time>2019-04-09T13:28:30Z</time>
      </trkpt>
      <trkpt lat="44.34607" lon="5.90657">
        <ele>566</ele>
        <time>2019-04-09T13:28:31Z</time>
      </trkpt>
      <trkpt lat="44.34603" lon="5.90654">
        <ele>566</ele>
        <time>2019-04-09T13:28:32Z</time>
      </trkpt>
      <trkpt lat="44.34599" lon="5.9065">
        <ele>566</ele>
        <time>2019-04-09T13:28:33Z</time>
      </trkpt>
      <trkpt lat="44.34594" lon="5.90646">
        <ele>566</ele>
        <time>2019-04-09T13:28:34Z</time>
      </trkpt>
      <trkpt lat="44.3459" lon="5.90642">
        <ele>566</ele>
        <time>2019-04-09T13:28:35Z</time>
      </trkpt>
      <trkpt lat="44.34586" lon="5.90639">
        <ele>566</ele>
        <time>2019-04-09T13:28:36Z</time>
      </trkpt>
      <trkpt lat="44.34581" lon="5.90635">
        <ele>566</ele>
        <time>2019-04-09T13:28:37Z</time>
      </trkpt>
      <trkpt lat="44.34577" lon="5.90631">
        <ele>566</ele>
        <time>2019-04-09T13:28:38Z</time>
      </trkpt>
      <trkpt lat="44.34573" lon="5.90628">
        <ele>566</ele>
        <time>2019-04-09T13:28:39Z</time>
      </trkpt>
      <trkpt lat="44.34568" lon="5.90624">
        <ele>566</ele>
        <time>2019-04-09T13:28:40Z</time>
      </trkpt>
      <trkpt lat="44.34564" lon="5.90621">
        <ele>566</ele>
        <time>2019-04-09T13:28:41Z</time>
      </trkpt>
      <trkpt lat="44.3456" lon="5.90618">
        <ele>566</ele>
        <time>2019-04-09T13:28:42Z</time>
      </trkpt>
      <trkpt lat="44.34555" lon="5.90614">
        <ele>566</ele>
        <time>2019-04-09T13:28:43Z</time>
      </trkpt>
      <trkpt lat="44.34551" lon="5.90611">
        <ele>566</ele>
        <time>2019-04-09T13:28:44Z</time>
      </trkpt>
      <trkpt lat="44.34547" lon="5.90608">
        <ele>566</ele>
        <time>2019-04-09T13:28:45Z</time>
      </trkpt>
      <trkpt lat="44.34543" lon="5.90604">
        <ele>566</ele>
        <time>2019-04-09T13:28:46Z</time>
      </trkpt>
      <trkpt lat="44.34539" lon="5.906">
        <ele>566</ele>
        <time>2019-04-09T13:28:47Z</time>
      </trkpt>
      <trkpt lat="44.34535" lon="5.90596">
        <ele>566</ele>
        <time>2019-04-09T13:28:48Z</time>
      </trkpt>
      <trkpt lat="44.3453" lon="5.90593">
        <ele>566</ele>
        <time>2019-04-09T13:28:49Z</time>
      </trkpt>
      <trkpt lat="44.34526" lon="5.9059">
        <ele>566</ele>
        <time>2019-04-09T13:28:50Z</time>
      </trkpt>
      <trkpt lat="44.34521" lon="5.90586">
        <ele>566</ele>
        <time>2019-04-09T13:28:51Z</time>
      </trkpt>
      <trkpt lat="44.34517" lon="5.90583">
        <ele>566</ele>
        <time>2019-04-09T13:28:52Z</time>
      </trkpt>
      <trkpt lat="44.34512" lon="5.90579">
        <ele>567</ele>
        <time>2019-04-09T13:28:53Z</time>
      </trkpt>
      <trkpt lat="44.34508" lon="5.90575">
        <ele>567</ele>
        <time>2019-04-09T13:28:54Z</time>
      </trkpt>
      <trkpt lat="44.34504" lon="5.90572">
        <ele>567</ele>
        <time>2019-04-09T13:28:55Z</time>
      </trkpt>
      <trkpt lat="44.34499" lon="5.90568">
        <ele>567</ele>
        <time>2019-04-09T13:28:56Z</time>
      </trkpt>
      <trkpt lat="44.34495" lon="5.90564">
        <ele>567</ele>
        <time>2019-04-09T13:28:57Z</time>
      </trkpt>
      <trkpt lat="44.34491" lon="5.9056">
        <ele>567</ele>
        <time>2019-04-09T13:28:58Z</time>
      </trkpt>
      <trkpt lat="44.34486" lon="5.90557">
        <ele>567</ele>
        <time>2019-04-09T13:28:59Z</time>
      </trkpt>
      <trkpt lat="44.34482" lon="5.90554">
        <ele>567</ele>
        <time>2019-04-09T13:29:00Z</time>
      </trkpt>
      <trkpt lat="44.34477" lon="5.90551">
        <ele>567</ele>
        <time>2019-04-09T13:29:01Z</time>
      </trkpt>
      <trkpt lat="44.34473" lon="5.90547">
        <ele>567</ele>
        <time>2019-04-09T13:29:02Z</time>
      </trkpt>
      <trkpt lat="44.34469" lon="5.90543">
        <ele>567</ele>
        <time>2019-04-09T13:29:03Z</time>
      </trkpt>
      <trkpt lat="44.34465" lon="5.90539">
        <ele>567</ele>
        <time>2019-04-09T13:29:04Z</time>
      </trkpt>
      <trkpt lat="44.34461" lon="5.90535">
        <ele>567</ele>
        <time>2019-04-09T13:29:05Z</time>
      </trkpt>
      <trkpt lat="44.34457" lon="5.90531">
        <ele>567</ele>
        <time>2019-04-09T13:29:06Z</time>
      </trkpt>
      <trkpt lat="44.34452" lon="5.90527">
        <ele>567</ele>
        <time>2019-04-09T13:29:07Z</time>
      </trkpt>
      <trkpt lat="44.34448" lon="5.90524">
        <ele>567</ele>
        <time>2019-04-09T13:29:08Z</time>
      </trkpt>
      <trkpt lat="44.34444" lon="5.9052">
        <ele>567</ele>
        <time>2019-04-09T13:29:09Z</time>
      </trkpt>
      <trkpt lat="44.34441" lon="5.90517">
        <ele>567</ele>
        <time>2019-04-09T13:29:10Z</time>
      </trkpt>
      <trkpt lat="44.34437" lon="5.90513">
        <ele>567</ele>
        <time>2019-04-09T13:29:11Z</time>
      </trkpt>
      <trkpt lat="44.34433" lon="5.9051">
        <ele>567</ele>
        <time>2019-04-09T13:29:12Z</time>
      </trkpt>
      <trkpt lat="44.3443" lon="5.90506">
        <ele>567</ele>
        <time>2019-04-09T13:29:13Z</time>
      </trkpt>
      <trkpt lat="44.34426" lon="5.90503">
        <ele>568</ele>
        <time>2019-04-09T13:29:14Z</time>
      </trkpt>
      <trkpt lat="44.34423" lon="5.90499">
        <ele>568</ele>
        <time>2019-04-09T13:29:15Z</time>
      </trkpt>
      <trkpt lat="44.3442" lon="5.90496">
        <ele>568</ele>
        <time>2019-04-09T13:29:16Z</time>
      </trkpt>
      <trkpt lat="44.34417" lon="5.90492">
        <ele>568</ele>
        <time>2019-04-09T13:29:17Z</time>
      </trkpt>
      <trkpt lat="44.34414" lon="5.90488">
        <ele>568</ele>
        <time>2019-04-09T13:29:18Z</time>
      </trkpt>
      <trkpt lat="44.34412" lon="5.90483">
        <ele>569</ele>
        <time>2019-04-09T13:29:19Z</time>
      </trkpt>
      <trkpt lat="44.3441" lon="5.90478">
        <ele>569</ele>
        <time>2019-04-09T13:29:20Z</time>
      </trkpt>
      <trkpt lat="44.34408" lon="5.90473">
        <ele>569</ele>
        <time>2019-04-09T13:29:21Z</time>
      </trkpt>
      <trkpt lat="44.34406" lon="5.90469">
        <ele>569</ele>
        <time>2019-04-09T13:29:22Z</time>
      </trkpt>
      <trkpt lat="44.34403" lon="5.90465">
        <ele>569</ele>
        <time>2019-04-09T13:29:23Z</time>
      </trkpt>
      <trkpt lat="44.344" lon="5.90462">
        <ele>569</ele>
        <time>2019-04-09T13:29:24Z</time>
      </trkpt>
      <trkpt lat="44.34397" lon="5.9046">
        <ele>569</ele>
        <time>2019-04-09T13:29:25Z</time>
      </trkpt>
      <trkpt lat="44.34393" lon="5.90458">
        <ele>570</ele>
        <time>2019-04-09T13:29:26Z</time>
      </trkpt>
      <trkpt lat="44.34389" lon="5.90456">
        <ele>570</ele>
        <time>2019-04-09T13:29:27Z</time>
      </trkpt>
      <trkpt lat="44.34386" lon="5.90454">
        <ele>570</ele>
        <time>2019-04-09T13:29:28Z</time>
      </trkpt>
      <trkpt lat="44.34381" lon="5.90452">
        <ele>570</ele>
        <time>2019-04-09T13:29:29Z</time>
      </trkpt>
      <trkpt lat="44.34377" lon="5.90449">
        <ele>570</ele>
        <time>2019-04-09T13:29:30Z</time>
      </trkpt>
      <trkpt lat="44.34371" lon="5.90446">
        <ele>570</ele>
        <time>2019-04-09T13:29:31Z</time>
      </trkpt>
      <trkpt lat="44.34366" lon="5.90443">
        <ele>570</ele>
        <time>2019-04-09T13:29:32Z</time>
      </trkpt>
      <trkpt lat="44.3436" lon="5.90439">
        <ele>570</ele>
        <time>2019-04-09T13:29:33Z</time>
      </trkpt>
      <trkpt lat="44.34353" lon="5.90435">
        <ele>570</ele>
        <time>2019-04-09T13:29:34Z</time>
      </trkpt>
      <trkpt lat="44.34347" lon="5.90431">
        <ele>570</ele>
        <time>2019-04-09T13:29:35Z</time>
      </trkpt>
      <trkpt lat="44.3434" lon="5.90427">
        <ele>570</ele>
        <time>2019-04-09T13:29:36Z</time>
      </trkpt>
      <trkpt lat="44.34333" lon="5.90422">
        <ele>570</ele>
        <time>2019-04-09T13:29:37Z</time>
      </trkpt>
      <trkpt lat="44.34327" lon="5.90417">
        <ele>570</ele>
        <time>2019-04-09T13:29:38Z</time>
      </trkpt>
      <trkpt lat="44.34321" lon="5.90412">
        <ele>570</ele>
        <time>2019-04-09T13:29:39Z</time>
      </trkpt>
      <trkpt lat="44.34315" lon="5.90407">
        <ele>570</ele>
        <time>2019-04-09T13:29:40Z</time>
      </trkpt>
      <trkpt lat="44.34309" lon="5.90402">
        <ele>570</ele>
        <time>2019-04-09T13:29:41Z</time>
      </trkpt>
      <trkpt lat="44.34304" lon="5.90397">
        <ele>570</ele>
        <time>2019-04-09T13:29:42Z</time>
      </trkpt>
      <trkpt lat="44.34298" lon="5.90391">
        <ele>570</ele>
        <time>2019-04-09T13:29:43Z</time>
      </trkpt>
      <trkpt lat="44.34294" lon="5.90386">
        <ele>570</ele>
        <time>2019-04-09T13:29:44Z</time>
      </trkpt>
      <trkpt lat="44.34289" lon="5.90381">
        <ele>570</ele>
        <time>2019-04-09T13:29:45Z</time>
      </trkpt>
      <trkpt lat="44.34284" lon="5.90376">
        <ele>570</ele>
        <time>2019-04-09T13:29:46Z</time>
      </trkpt>
      <trkpt lat="44.3428" lon="5.90371">
        <ele>570</ele>
        <time>2019-04-09T13:29:47Z</time>
      </trkpt>
      <trkpt lat="44.34275" lon="5.90366">
        <ele>570</ele>
        <time>2019-04-09T13:29:48Z</time>
      </trkpt>
      <trkpt lat="44.3427" lon="5.90361">
        <ele>570</ele>
        <time>2019-04-09T13:29:49Z</time>
      </trkpt>
      <trkpt lat="44.34266" lon="5.90356">
        <ele>570</ele>
        <time>2019-04-09T13:29:50Z</time>
      </trkpt>
      <trkpt lat="44.34262" lon="5.9035">
        <ele>570</ele>
        <time>2019-04-09T13:29:51Z</time>
      </trkpt>
      <trkpt lat="44.34258" lon="5.90345">
        <ele>570</ele>
        <time>2019-04-09T13:29:52Z</time>
      </trkpt>
      <trkpt lat="44.34254" lon="5.90341">
        <ele>570</ele>
        <time>2019-04-09T13:29:53Z</time>
      </trkpt>
      <trkpt lat="44.3425" lon="5.90336">
        <ele>570</ele>
        <time>2019-04-09T13:29:54Z</time>
      </trkpt>
      <trkpt lat="44.34246" lon="5.90331">
        <ele>570</ele>
        <time>2019-04-09T13:29:55Z</time>
      </trkpt>
      <trkpt lat="44.34243" lon="5.90327">
        <ele>570</ele>
        <time>2019-04-09T13:29:56Z</time>
      </trkpt>
      <trkpt lat="44.34239" lon="5.90322">
        <ele>570</ele>
        <time>2019-04-09T13:29:57Z</time>
      </trkpt>
      <trkpt lat="44.34236" lon="5.90318">
        <ele>570</ele>
        <time>2019-04-09T13:29:58Z</time>
      </trkpt>
      <trkpt lat="44.34232" lon="5.90314">
        <ele>570</ele>
        <time>2019-04-09T13:29:59Z</time>
      </trkpt>
      <trkpt lat="44.34229" lon="5.90309">
        <ele>570</ele>
        <time>2019-04-09T13:30:00Z</time>
      </trkpt>
      <trkpt lat="44.34225" lon="5.90305">
        <ele>570</ele>
        <time>2019-04-09T13:30:01Z</time>
      </trkpt>
      <trkpt lat="44.34222" lon="5.90301">
        <ele>570</ele>
        <time>2019-04-09T13:30:02Z</time>
      </trkpt>
      <trkpt lat="44.34219" lon="5.90296">
        <ele>570</ele>
        <time>2019-04-09T13:30:03Z</time>
      </trkpt>
      <trkpt lat="44.34215" lon="5.90292">
        <ele>571</ele>
        <time>2019-04-09T13:30:04Z</time>
      </trkpt>
      <trkpt lat="44.34212" lon="5.90287">
        <ele>571</ele>
        <time>2019-04-09T13:30:05Z</time>
      </trkpt>
      <trkpt lat="44.34208" lon="5.90282">
        <ele>571</ele>
        <time>2019-04-09T13:30:06Z</time>
      </trkpt>
      <trkpt lat="44.34204" lon="5.90278">
        <ele>572</ele>
        <time>2019-04-09T13:30:07Z</time>
      </trkpt>
      <trkpt lat="44.34201" lon="5.90273">
        <ele>572</ele>
        <time>2019-04-09T13:30:08Z</time>
      </trkpt>
      <trkpt lat="44.34198" lon="5.90269">
        <ele>572</ele>
        <time>2019-04-09T13:30:09Z</time>
      </trkpt>
      <trkpt lat="44.34194" lon="5.90264">
        <ele>572</ele>
        <time>2019-04-09T13:30:10Z</time>
      </trkpt>
      <trkpt lat="44.34191" lon="5.9026">
        <ele>572</ele>
        <time>2019-04-09T13:30:11Z</time>
      </trkpt>
      <trkpt lat="44.34187" lon="5.90255">
        <ele>573</ele>
        <time>2019-04-09T13:30:12Z</time>
      </trkpt>
      <trkpt lat="44.34184" lon="5.90251">
        <ele>573</ele>
        <time>2019-04-09T13:30:13Z</time>
      </trkpt>
      <trkpt lat="44.34181" lon="5.90247">
        <ele>573</ele>
        <time>2019-04-09T13:30:14Z</time>
      </trkpt>
      <trkpt lat="44.34177" lon="5.90243">
        <ele>573</ele>
        <time>2019-04-09T13:30:15Z</time>
      </trkpt>
      <trkpt lat="44.34174" lon="5.90238">
        <ele>573</ele>
        <time>2019-04-09T13:30:16Z</time>
      </trkpt>
      <trkpt lat="44.34171" lon="5.90234">
        <ele>573</ele>
        <time>2019-04-09T13:30:17Z</time>
      </trkpt>
      <trkpt lat="44.34168" lon="5.9023">
        <ele>574</ele>
        <time>2019-04-09T13:30:18Z</time>
      </trkpt>
      <trkpt lat="44.34164" lon="5.90226">
        <ele>574</ele>
        <time>2019-04-09T13:30:19Z</time>
      </trkpt>
      <trkpt lat="44.34162" lon="5.90223">
        <ele>574</ele>
        <time>2019-04-09T13:30:20Z</time>
      </trkpt>
      <trkpt lat="44.34159" lon="5.90219">
        <ele>574</ele>
        <time>2019-04-09T13:30:21Z</time>
      </trkpt>
      <trkpt lat="44.34156" lon="5.90216">
        <ele>574</ele>
        <time>2019-04-09T13:30:22Z</time>
      </trkpt>
      <trkpt lat="44.34154" lon="5.90213">
        <ele>575</ele>
        <time>2019-04-09T13:30:23Z</time>
      </trkpt>
      <trkpt lat="44.34151" lon="5.90211">
        <ele>575</ele>
        <time>2019-04-09T13:30:24Z</time>
      </trkpt>
      <trkpt lat="44.34148" lon="5.90208">
        <ele>575</ele>
        <time>2019-04-09T13:30:25Z</time>
      </trkpt>
      <trkpt lat="44.34146" lon="5.90205">
        <ele>575</ele>
        <time>2019-04-09T13:30:26Z</time>
      </trkpt>
      <trkpt lat="44.34143" lon="5.90202">
        <ele>576</ele>
        <time>2019-04-09T13:30:27Z</time>
      </trkpt>
      <trkpt lat="44.34141" lon="5.90199">
        <ele>576</ele>
        <time>2019-04-09T13:30:28Z</time>
      </trkpt>
      <trkpt lat="44.34138" lon="5.90197">
        <ele>576</ele>
        <time>2019-04-09T13:30:29Z</time>
      </trkpt>
      <trkpt lat="44.34135" lon="5.90194">
        <ele>576</ele>
        <time>2019-04-09T13:30:30Z</time>
      </trkpt>
      <trkpt lat="44.34132" lon="5.90191">
        <ele>576</ele>
        <time>2019-04-09T13:30:31Z</time>
      </trkpt>
      <trkpt lat="44.34129" lon="5.90188">
        <ele>577</ele>
        <time>2019-04-09T13:30:32Z</time>
      </trkpt>
      <trkpt lat="44.34126" lon="5.90185">
        <ele>577</ele>
        <time>2019-04-09T13:30:33Z</time>
      </trkpt>
      <trkpt lat="44.34123" lon="5.90182">
        <ele>577</ele>
        <time>2019-04-09T13:30:34Z</time>
      </trkpt>
      <trkpt lat="44.3412" lon="5.90179">
        <ele>577</ele>
        <time>2019-04-09T13:30:35Z</time>
      </trkpt>
      <trkpt lat="44.34117" lon="5.90175">
        <ele>577</ele>
        <time>2019-04-09T13:30:36Z</time>
      </trkpt>
      <trkpt lat="44.34114" lon="5.90171">
        <ele>577</ele>
        <time>2019-04-09T13:30:37Z</time>
      </trkpt>
      <trkpt lat="44.34111" lon="5.90167">
        <ele>577</ele>
        <time>2019-04-09T13:30:38Z</time>
      </trkpt>
      <trkpt lat="44.34107" lon="5.90163">
        <ele>577</ele>
        <time>2019-04-09T13:30:39Z</time>
      </trkpt>
      <trkpt lat="44.34103" lon="5.9016">
        <ele>577</ele>
        <time>2019-04-09T13:30:40Z</time>
      </trkpt>
      <trkpt lat="44.341" lon="5.90156">
        <ele>577</ele>
        <time>2019-04-09T13:30:41Z</time>
      </trkpt>
      <trkpt lat="44.34095" lon="5.90153">
        <ele>577</ele>
        <time>2019-04-09T13:30:42Z</time>
      </trkpt>
      <trkpt lat="44.34092" lon="5.90149">
        <ele>577</ele>
        <time>2019-04-09T13:30:43Z</time>
      </trkpt>
      <trkpt lat="44.34087" lon="5.90145">
        <ele>577</ele>
        <time>2019-04-09T13:30:44Z</time>
      </trkpt>
      <trkpt lat="44.34083" lon="5.90141">
        <ele>577</ele>
        <time>2019-04-09T13:30:45Z</time>
      </trkpt>
      <trkpt lat="44.34078" lon="5.90137">
        <ele>577</ele>
        <time>2019-04-09T13:30:46Z</time>
      </trkpt>
      <trkpt lat="44.34073" lon="5.90133">
        <ele>577</ele>
        <time>2019-04-09T13:30:47Z</time>
      </trkpt>
      <trkpt lat="44.34068" lon="5.90128">
        <ele>577</ele>
        <time>2019-04-09T13:30:48Z</time>
      </trkpt>
      <trkpt lat="44.34062" lon="5.90123">
        <ele>577</ele>
        <time>2019-04-09T13:30:49Z</time>
      </trkpt>
      <trkpt lat="44.34056" lon="5.90118">
        <ele>577</ele>
        <time>2019-04-09T13:30:50Z</time>
      </trkpt>
      <trkpt lat="44.3405" lon="5.90112">
        <ele>577</ele>
        <time>2019-04-09T13:30:51Z</time>
      </trkpt>
      <trkpt lat="44.34044" lon="5.90106">
        <ele>577</ele>
        <time>2019-04-09T13:30:52Z</time>
      </trkpt>
      <trkpt lat="44.34038" lon="5.90101">
        <ele>577</ele>
        <time>2019-04-09T13:30:53Z</time>
      </trkpt>
      <trkpt lat="44.34031" lon="5.90095">
        <ele>577</ele>
        <time>2019-04-09T13:30:54Z</time>
      </trkpt>
      <trkpt lat="44.34024" lon="5.90089">
        <ele>577</ele>
        <time>2019-04-09T13:30:55Z</time>
      </trkpt>
      <trkpt lat="44.34018" lon="5.90083">
        <ele>577</ele>
        <time>2019-04-09T13:30:56Z</time>
      </trkpt>
      <trkpt lat="44.34011" lon="5.90077">
        <ele>577</ele>
        <time>2019-04-09T13:30:57Z</time>
      </trkpt>
      <trkpt lat="44.34004" lon="5.90071">
        <ele>577</ele>
        <time>2019-04-09T13:30:58Z</time>
      </trkpt>
      <trkpt lat="44.33997" lon="5.90065">
        <ele>577</ele>
        <time>2019-04-09T13:30:59Z</time>
      </trkpt>
      <trkpt lat="44.3399" lon="5.90059">
        <ele>577</ele>
        <time>2019-04-09T13:31:00Z</time>
      </trkpt>
      <trkpt lat="44.33984" lon="5.90052">
        <ele>576</ele>
        <time>2019-04-09T13:31:01Z</time>
      </trkpt>
      <trkpt lat="44.33978" lon="5.90045">
        <ele>576</ele>
        <time>2019-04-09T13:31:02Z</time>
      </trkpt>
      <trkpt lat="44.33972" lon="5.90039">
        <ele>576</ele>
        <time>2019-04-09T13:31:03Z</time>
      </trkpt>
      <trkpt lat="44.33966" lon="5.90033">
        <ele>576</ele>
        <time>2019-04-09T13:31:04Z</time>
      </trkpt>
      <trkpt lat="44.33961" lon="5.90027">
        <ele>576</ele>
        <time>2019-04-09T13:31:05Z</time>
      </trkpt>
      <trkpt lat="44.33956" lon="5.90021">
        <ele>576</ele>
        <time>2019-04-09T13:31:06Z</time>
      </trkpt>
      <trkpt lat="44.33951" lon="5.90015">
        <ele>576</ele>
        <time>2019-04-09T13:31:07Z</time>
      </trkpt>
      <trkpt lat="44.33946" lon="5.90009">
        <ele>576</ele>
        <time>2019-04-09T13:31:08Z</time>
      </trkpt>
      <trkpt lat="44.33942" lon="5.90004">
        <ele>576</ele>
        <time>2019-04-09T13:31:09Z</time>
      </trkpt>
      <trkpt lat="44.33937" lon="5.89999">
        <ele>576</ele>
        <time>2019-04-09T13:31:10Z</time>
      </trkpt>
      <trkpt lat="44.33933" lon="5.89994">
        <ele>576</ele>
        <time>2019-04-09T13:31:11Z</time>
      </trkpt>
      <trkpt lat="44.33929" lon="5.89989">
        <ele>576</ele>
        <time>2019-04-09T13:31:12Z</time>
      </trkpt>
      <trkpt lat="44.33924" lon="5.89985">
        <ele>576</ele>
        <time>2019-04-09T13:31:13Z</time>
      </trkpt>
      <trkpt lat="44.3392" lon="5.89981">
        <ele>576</ele>
        <time>2019-04-09T13:31:14Z</time>
      </trkpt>
      <trkpt lat="44.33916" lon="5.89976">
        <ele>576</ele>
        <time>2019-04-09T13:31:15Z</time>
      </trkpt>
      <trkpt lat="44.33912" lon="5.89971">
        <ele>576</ele>
        <time>2019-04-09T13:31:16Z</time>
      </trkpt>
      <trkpt lat="44.33907" lon="5.89966">
        <ele>576</ele>
        <time>2019-04-09T13:31:17Z</time>
      </trkpt>
      <trkpt lat="44.33902" lon="5.89961">
        <ele>576</ele>
        <time>2019-04-09T13:31:18Z</time>
      </trkpt>
      <trkpt lat="44.33897" lon="5.89956">
        <ele>576</ele>
        <time>2019-04-09T13:31:19Z</time>
      </trkpt>
      <trkpt lat="44.33891" lon="5.89951">
        <ele>576</ele>
        <time>2019-04-09T13:31:20Z</time>
      </trkpt>
      <trkpt lat="44.33886" lon="5.89945">
        <ele>576</ele>
        <time>2019-04-09T13:31:21Z</time>
      </trkpt>
      <trkpt lat="44.3388" lon="5.8994">
        <ele>576</ele>
        <time>2019-04-09T13:31:22Z</time>
      </trkpt>
      <trkpt lat="44.33875" lon="5.89935">
        <ele>576</ele>
        <time>2019-04-09T13:31:23Z</time>
      </trkpt>
      <trkpt lat="44.33869" lon="5.8993">
        <ele>576</ele>
        <time>2019-04-09T13:31:24Z</time>
      </trkpt>
      <trkpt lat="44.33864" lon="5.89925">
        <ele>576</ele>
        <time>2019-04-09T13:31:25Z</time>
      </trkpt>
      <trkpt lat="44.33858" lon="5.89919">
        <ele>576</ele>
        <time>2019-04-09T13:31:26Z</time>
      </trkpt>
      <trkpt lat="44.33853" lon="5.89914">
        <ele>576</ele>
        <time>2019-04-09T13:31:27Z</time>
      </trkpt>
      <trkpt lat="44.33847" lon="5.89909">
        <ele>575</ele>
        <time>2019-04-09T13:31:28Z</time>
      </trkpt>
      <trkpt lat="44.33841" lon="5.89904">
        <ele>574</ele>
        <time>2019-04-09T13:31:29Z</time>
      </trkpt>
      <trkpt lat="44.33834" lon="5.89899">
        <ele>574</ele>
        <time>2019-04-09T13:31:30Z</time>
      </trkpt>
      <trkpt lat="44.33828" lon="5.89894">
        <ele>574</ele>
        <time>2019-04-09T13:31:31Z</time>
      </trkpt>
      <trkpt lat="44.33821" lon="5.8989">
        <ele>573</ele>
        <time>2019-04-09T13:31:32Z</time>
      </trkpt>
      <trkpt lat="44.33814" lon="5.89884">
        <ele>573</ele>
        <time>2019-04-09T13:31:33Z</time>
      </trkpt>
      <trkpt lat="44.33807" lon="5.89879">
        <ele>573</ele>
        <time>2019-04-09T13:31:34Z</time>
      </trkpt>
      <trkpt lat="44.338" lon="5.89874">
        <ele>572</ele>
        <time>2019-04-09T13:31:35Z</time>
      </trkpt>
      <trkpt lat="44.33793" lon="5.89868">
        <ele>572</ele>
        <time>2019-04-09T13:31:36Z</time>
      </trkpt>
      <trkpt lat="44.33786" lon="5.89863">
        <ele>572</ele>
        <time>2019-04-09T13:31:37Z</time>
      </trkpt>
      <trkpt lat="44.33778" lon="5.89857">
        <ele>571</ele>
        <time>2019-04-09T13:31:38Z</time>
      </trkpt>
      <trkpt lat="44.33771" lon="5.89852">
        <ele>571</ele>
        <time>2019-04-09T13:31:39Z</time>
      </trkpt>
      <trkpt lat="44.33764" lon="5.89846">
        <ele>571</ele>
        <time>2019-04-09T13:31:40Z</time>
      </trkpt>
      <trkpt lat="44.33756" lon="5.8984">
        <ele>571</ele>
        <time>2019-04-09T13:31:41Z</time>
      </trkpt>
      <trkpt lat="44.33749" lon="5.89834">
        <ele>571</ele>
        <time>2019-04-09T13:31:42Z</time>
      </trkpt>
      <trkpt lat="44.33742" lon="5.89828">
        <ele>570</ele>
        <time>2019-04-09T13:31:43Z</time>
      </trkpt>
      <trkpt lat="44.33735" lon="5.89823">
        <ele>570</ele>
        <time>2019-04-09T13:31:44Z</time>
      </trkpt>
      <trkpt lat="44.33728" lon="5.89818">
        <ele>570</ele>
        <time>2019-04-09T13:31:45Z</time>
      </trkpt>
      <trkpt lat="44.33722" lon="5.89813">
        <ele>570</ele>
        <time>2019-04-09T13:31:46Z</time>
      </trkpt>
      <trkpt lat="44.33715" lon="5.89809">
        <ele>570</ele>
        <time>2019-04-09T13:31:47Z</time>
      </trkpt>
      <trkpt lat="44.33709" lon="5.89806">
        <ele>570</ele>
        <time>2019-04-09T13:31:48Z</time>
      </trkpt>
      <trkpt lat="44.33703" lon="5.89802">
        <ele>570</ele>
        <time>2019-04-09T13:31:49Z</time>
      </trkpt>
      <trkpt lat="44.33697" lon="5.89799">
        <ele>570</ele>
        <time>2019-04-09T13:31:50Z</time>
      </trkpt>
      <trkpt lat="44.33691" lon="5.89796">
        <ele>570</ele>
        <time>2019-04-09T13:31:51Z</time>
      </trkpt>
      <trkpt lat="44.33686" lon="5.89792">
        <ele>570</ele>
        <time>2019-04-09T13:31:52Z</time>
      </trkpt>
      <trkpt lat="44.3368" lon="5.89789">
        <ele>570</ele>
        <time>2019-04-09T13:31:53Z</time>
      </trkpt>
      <trkpt lat="44.33675" lon="5.89787">
        <ele>570</ele>
        <time>2019-04-09T13:31:54Z</time>
      </trkpt>
      <trkpt lat="44.33669" lon="5.89784">
        <ele>570</ele>
        <time>2019-04-09T13:31:55Z</time>
      </trkpt>
      <trkpt lat="44.33664" lon="5.89781">
        <ele>570</ele>
        <time>2019-04-09T13:31:56Z</time>
      </trkpt>
      <trkpt lat="44.33658" lon="5.89778">
        <ele>570</ele>
        <time>2019-04-09T13:31:57Z</time>
      </trkpt>
      <trkpt lat="44.33652" lon="5.89775">
        <ele>570</ele>
        <time>2019-04-09T13:31:58Z</time>
      </trkpt>
      <trkpt lat="44.33646" lon="5.89772">
        <ele>570</ele>
        <time>2019-04-09T13:31:59Z</time>
      </trkpt>
      <trkpt lat="44.3364" lon="5.89769">
        <ele>570</ele>
        <time>2019-04-09T13:32:00Z</time>
      </trkpt>
      <trkpt lat="44.33634" lon="5.89766">
        <ele>570</ele>
        <time>2019-04-09T13:32:01Z</time>
      </trkpt>
      <trkpt lat="44.33629" lon="5.89763">
        <ele>570</ele>
        <time>2019-04-09T13:32:02Z</time>
      </trkpt>
      <trkpt lat="44.33623" lon="5.8976">
        <ele>570</ele>
        <time>2019-04-09T13:32:03Z</time>
      </trkpt>
      <trkpt lat="44.33618" lon="5.89757">
        <ele>570</ele>
        <time>2019-04-09T13:32:04Z</time>
      </trkpt>
      <trkpt lat="44.33612" lon="5.89754">
        <ele>570</ele>
        <time>2019-04-09T13:32:05Z</time>
      </trkpt>
      <trkpt lat="44.33607" lon="5.89751">
        <ele>570</ele>
        <time>2019-04-09T13:32:06Z</time>
      </trkpt>
      <trkpt lat="44.33602" lon="5.89748">
        <ele>570</ele>
        <time>2019-04-09T13:32:07Z</time>
      </trkpt>
      <trkpt lat="44.33596" lon="5.89746">
        <ele>570</ele>
        <time>2019-04-09T13:32:08Z</time>
      </trkpt>
      <trkpt lat="44.33591" lon="5.89742">
        <ele>570</ele>
        <time>2019-04-09T13:32:09Z</time>
      </trkpt>
      <trkpt lat="44.33586" lon="5.89739">
        <ele>570</ele>
        <time>2019-04-09T13:32:10Z</time>
      </trkpt>
      <trkpt lat="44.3358" lon="5.89736">
        <ele>570</ele>
        <time>2019-04-09T13:32:11Z</time>
      </trkpt>
      <trkpt lat="44.33575" lon="5.89733">
        <ele>570</ele>
        <time>2019-04-09T13:32:12Z</time>
      </trkpt>
      <trkpt lat="44.33569" lon="5.8973">
        <ele>570</ele>
        <time>2019-04-09T13:32:13Z</time>
      </trkpt>
      <trkpt lat="44.33564" lon="5.89728">
        <ele>570</ele>
        <time>2019-04-09T13:32:14Z</time>
      </trkpt>
      <trkpt lat="44.33558" lon="5.89725">
        <ele>570</ele>
        <time>2019-04-09T13:32:15Z</time>
      </trkpt>
      <trkpt lat="44.33553" lon="5.89722">
        <ele>570</ele>
        <time>2019-04-09T13:32:16Z</time>
      </trkpt>
      <trkpt lat="44.33547" lon="5.89719">
        <ele>570</ele>
        <time>2019-04-09T13:32:17Z</time>
      </trkpt>
      <trkpt lat="44.33542" lon="5.89717">
        <ele>570</ele>
        <time>2019-04-09T13:32:18Z</time>
      </trkpt>
      <trkpt lat="44.33536" lon="5.89714">
        <ele>570</ele>
        <time>2019-04-09T13:32:19Z</time>
      </trkpt>
      <trkpt lat="44.3353" lon="5.89712">
        <ele>570</ele>
        <time>2019-04-09T13:32:20Z</time>
      </trkpt>
      <trkpt lat="44.33525" lon="5.89709">
        <ele>570</ele>
        <time>2019-04-09T13:32:21Z</time>
      </trkpt>
      <trkpt lat="44.3352" lon="5.89706">
        <ele>570</ele>
        <time>2019-04-09T13:32:22Z</time>
      </trkpt>
      <trkpt lat="44.33514" lon="5.89703">
        <ele>570</ele>
        <time>2019-04-09T13:32:23Z</time>
      </trkpt>
      <trkpt lat="44.33509" lon="5.897">
        <ele>570</ele>
        <time>2019-04-09T13:32:24Z</time>
      </trkpt>
      <trkpt lat="44.33504" lon="5.89697">
        <ele>570</ele>
        <time>2019-04-09T13:32:25Z</time>
      </trkpt>
      <trkpt lat="44.33498" lon="5.89694">
        <ele>570</ele>
        <time>2019-04-09T13:32:26Z</time>
      </trkpt>
      <trkpt lat="44.33493" lon="5.89692">
        <ele>570</ele>
        <time>2019-04-09T13:32:27Z</time>
      </trkpt>
      <trkpt lat="44.33487" lon="5.89689">
        <ele>570</ele>
        <time>2019-04-09T13:32:28Z</time>
      </trkpt>
      <trkpt lat="44.33482" lon="5.89687">
        <ele>570</ele>
        <time>2019-04-09T13:32:29Z</time>
      </trkpt>
      <trkpt lat="44.33476" lon="5.89684">
        <ele>570</ele>
        <time>2019-04-09T13:32:30Z</time>
      </trkpt>
      <trkpt lat="44.33471" lon="5.89681">
        <ele>570</ele>
        <time>2019-04-09T13:32:31Z</time>
      </trkpt>
      <trkpt lat="44.33465" lon="5.89678">
        <ele>570</ele>
        <time>2019-04-09T13:32:32Z</time>
      </trkpt>
      <trkpt lat="44.33459" lon="5.89676">
        <ele>570</ele>
        <time>2019-04-09T13:32:33Z</time>
      </trkpt>
      <trkpt lat="44.33454" lon="5.89674">
        <ele>570</ele>
        <time>2019-04-09T13:32:34Z</time>
      </trkpt>
      <trkpt lat="44.33448" lon="5.89671">
        <ele>570</ele>
        <time>2019-04-09T13:32:35Z</time>
      </trkpt>
      <trkpt lat="44.33442" lon="5.89668">
        <ele>570</ele>
        <time>2019-04-09T13:32:36Z</time>
      </trkpt>
      <trkpt lat="44.33437" lon="5.89666">
        <ele>570</ele>
        <time>2019-04-09T13:32:37Z</time>
      </trkpt>
      <trkpt lat="44.3343" lon="5.89663">
        <ele>570</ele>
        <time>2019-04-09T13:32:38Z</time>
      </trkpt>
      <trkpt lat="44.33424" lon="5.8966">
        <ele>570</ele>
        <time>2019-04-09T13:32:39Z</time>
      </trkpt>
      <trkpt lat="44.33418" lon="5.89657">
        <ele>570</ele>
        <time>2019-04-09T13:32:40Z</time>
      </trkpt>
      <trkpt lat="44.33412" lon="5.89655">
        <ele>570</ele>
        <time>2019-04-09T13:32:41Z</time>
      </trkpt>
      <trkpt lat="44.33406" lon="5.89652">
        <ele>570</ele>
        <time>2019-04-09T13:32:42Z</time>
      </trkpt>
      <trkpt lat="44.334" lon="5.8965">
        <ele>570</ele>
        <time>2019-04-09T13:32:43Z</time>
      </trkpt>
      <trkpt lat="44.33394" lon="5.89647">
        <ele>570</ele>
        <time>2019-04-09T13:32:44Z</time>
      </trkpt>
      <trkpt lat="44.33388" lon="5.89644">
        <ele>570</ele>
        <time>2019-04-09T13:32:45Z</time>
      </trkpt>
      <trkpt lat="44.33382" lon="5.89642">
        <ele>570</ele>
        <time>2019-04-09T13:32:46Z</time>
      </trkpt>
      <trkpt lat="44.33376" lon="5.89639">
        <ele>570</ele>
        <time>2019-04-09T13:32:47Z</time>
      </trkpt>
      <trkpt lat="44.3337" lon="5.89636">
        <ele>570</ele>
        <time>2019-04-09T13:32:48Z</time>
      </trkpt>
      <trkpt lat="44.33364" lon="5.89634">
        <ele>570</ele>
        <time>2019-04-09T13:32:49Z</time>
      </trkpt>
      <trkpt lat="44.33358" lon="5.89631">
        <ele>570</ele>
        <time>2019-04-09T13:32:50Z</time>
      </trkpt>
      <trkpt lat="44.33353" lon="5.89628">
        <ele>570</ele>
        <time>2019-04-09T13:32:51Z</time>
      </trkpt>
      <trkpt lat="44.33347" lon="5.89625">
        <ele>570</ele>
        <time>2019-04-09T13:32:52Z</time>
      </trkpt>
      <trkpt lat="44.33341" lon="5.89623">
        <ele>570</ele>
        <time>2019-04-09T13:32:53Z</time>
      </trkpt>
      <trkpt lat="44.33335" lon="5.8962">
        <ele>570</ele>
        <time>2019-04-09T13:32:54Z</time>
      </trkpt>
      <trkpt lat="44.3333" lon="5.89618">
        <ele>570</ele>
        <time>2019-04-09T13:32:55Z</time>
      </trkpt>
      <trkpt lat="44.33324" lon="5.89616">
        <ele>570</ele>
        <time>2019-04-09T13:32:56Z</time>
      </trkpt>
      <trkpt lat="44.33319" lon="5.89613">
        <ele>570</ele>
        <time>2019-04-09T13:32:57Z</time>
      </trkpt>
      <trkpt lat="44.33313" lon="5.89611">
        <ele>570</ele>
        <time>2019-04-09T13:32:58Z</time>
      </trkpt>
      <trkpt lat="44.33308" lon="5.89609">
        <ele>570</ele>
        <time>2019-04-09T13:32:59Z</time>
      </trkpt>
      <trkpt lat="44.33303" lon="5.89607">
        <ele>570</ele>
        <time>2019-04-09T13:33:00Z</time>
      </trkpt>
      <trkpt lat="44.33297" lon="5.89605">
        <ele>570</ele>
        <time>2019-04-09T13:33:01Z</time>
      </trkpt>
      <trkpt lat="44.33292" lon="5.89603">
        <ele>570</ele>
        <time>2019-04-09T13:33:02Z</time>
      </trkpt>
      <trkpt lat="44.33287" lon="5.89601">
        <ele>570</ele>
        <time>2019-04-09T13:33:03Z</time>
      </trkpt>
      <trkpt lat="44.33282" lon="5.89599">
        <ele>570</ele>
        <time>2019-04-09T13:33:04Z</time>
      </trkpt>
      <trkpt lat="44.33276" lon="5.89597">
        <ele>570</ele>
        <time>2019-04-09T13:33:05Z</time>
      </trkpt>
      <trkpt lat="44.33271" lon="5.89595">
        <ele>570</ele>
        <time>2019-04-09T13:33:06Z</time>
      </trkpt>
      <trkpt lat="44.33266" lon="5.89593">
        <ele>570</ele>
        <time>2019-04-09T13:33:07Z</time>
      </trkpt>
      <trkpt lat="44.3326" lon="5.89591">
        <ele>570</ele>
        <time>2019-04-09T13:33:08Z</time>
      </trkpt>
      <trkpt lat="44.33255" lon="5.89589">
        <ele>570</ele>
        <time>2019-04-09T13:33:09Z</time>
      </trkpt>
      <trkpt lat="44.3325" lon="5.89586">
        <ele>570</ele>
        <time>2019-04-09T13:33:10Z</time>
      </trkpt>
      <trkpt lat="44.33244" lon="5.89584">
        <ele>570</ele>
        <time>2019-04-09T13:33:11Z</time>
      </trkpt>
      <trkpt lat="44.33239" lon="5.89582">
        <ele>570</ele>
        <time>2019-04-09T13:33:12Z</time>
      </trkpt>
      <trkpt lat="44.33234" lon="5.8958">
        <ele>570</ele>
        <time>2019-04-09T13:33:13Z</time>
      </trkpt>
      <trkpt lat="44.33228" lon="5.89578">
        <ele>570</ele>
        <time>2019-04-09T13:33:14Z</time>
      </trkpt>
      <trkpt lat="44.33223" lon="5.89576">
        <ele>570</ele>
        <time>2019-04-09T13:33:15Z</time>
      </trkpt>
      <trkpt lat="44.33217" lon="5.89574">
        <ele>570</ele>
        <time>2019-04-09T13:33:16Z</time>
      </trkpt>
      <trkpt lat="44.33212" lon="5.89572">
        <ele>570</ele>
        <time>2019-04-09T13:33:17Z</time>
      </trkpt>
      <trkpt lat="44.33206" lon="5.8957">
        <ele>570</ele>
        <time>2019-04-09T13:33:18Z</time>
      </trkpt>
      <trkpt lat="44.332" lon="5.89568">
        <ele>570</ele>
        <time>2019-04-09T13:33:19Z</time>
      </trkpt>
      <trkpt lat="44.33195" lon="5.89566">
        <ele>570</ele>
        <time>2019-04-09T13:33:20Z</time>
      </trkpt>
      <trkpt lat="44.33189" lon="5.89564">
        <ele>570</ele>
        <time>2019-04-09T13:33:21Z</time>
      </trkpt>
      <trkpt lat="44.33184" lon="5.89562">
        <ele>570</ele>
        <time>2019-04-09T13:33:22Z</time>
      </trkpt>
      <trkpt lat="44.33178" lon="5.8956">
        <ele>570</ele>
        <time>2019-04-09T13:33:23Z</time>
      </trkpt>
      <trkpt lat="44.33172" lon="5.89559">
        <ele>570</ele>
        <time>2019-04-09T13:33:24Z</time>
      </trkpt>
      <trkpt lat="44.33167" lon="5.89557">
        <ele>570</ele>
        <time>2019-04-09T13:33:25Z</time>
      </trkpt>
      <trkpt lat="44.33161" lon="5.89555">
        <ele>570</ele>
        <time>2019-04-09T13:33:26Z</time>
      </trkpt>
      <trkpt lat="44.33155" lon="5.89552">
        <ele>570</ele>
        <time>2019-04-09T13:33:27Z</time>
      </trkpt>
      <trkpt lat="44.33149" lon="5.89551">
        <ele>570</ele>
        <time>2019-04-09T13:33:28Z</time>
      </trkpt>
      <trkpt lat="44.33143" lon="5.89549">
        <ele>570</ele>
        <time>2019-04-09T13:33:29Z</time>
      </trkpt>
      <trkpt lat="44.33137" lon="5.89547">
        <ele>570</ele>
        <time>2019-04-09T13:33:30Z</time>
      </trkpt>
      <trkpt lat="44.33131" lon="5.89545">
        <ele>570</ele>
        <time>2019-04-09T13:33:31Z</time>
      </trkpt>
      <trkpt lat="44.33126" lon="5.89544">
        <ele>570</ele>
        <time>2019-04-09T13:33:32Z</time>
      </trkpt>
      <trkpt lat="44.3312" lon="5.89542">
        <ele>570</ele>
        <time>2019-04-09T13:33:33Z</time>
      </trkpt>
      <trkpt lat="44.33114" lon="5.8954">
        <ele>570</ele>
        <time>2019-04-09T13:33:34Z</time>
      </trkpt>
      <trkpt lat="44.33108" lon="5.89538">
        <ele>570</ele>
        <time>2019-04-09T13:33:35Z</time>
      </trkpt>
      <trkpt lat="44.33103" lon="5.89536">
        <ele>570</ele>
        <time>2019-04-09T13:33:36Z</time>
      </trkpt>
      <trkpt lat="44.33097" lon="5.89534">
        <ele>570</ele>
        <time>2019-04-09T13:33:37Z</time>
      </trkpt>
      <trkpt lat="44.33091" lon="5.89532">
        <ele>570</ele>
        <time>2019-04-09T13:33:38Z</time>
      </trkpt>
      <trkpt lat="44.33086" lon="5.8953">
        <ele>570</ele>
        <time>2019-04-09T13:33:39Z</time>
      </trkpt>
      <trkpt lat="44.3308" lon="5.89529">
        <ele>570</ele>
        <time>2019-04-09T13:33:40Z</time>
      </trkpt>
      <trkpt lat="44.33074" lon="5.89527">
        <ele>570</ele>
        <time>2019-04-09T13:33:41Z</time>
      </trkpt>
      <trkpt lat="44.33068" lon="5.89525">
        <ele>570</ele>
        <time>2019-04-09T13:33:42Z</time>
      </trkpt>
      <trkpt lat="44.33063" lon="5.89524">
        <ele>570</ele>
        <time>2019-04-09T13:33:43Z</time>
      </trkpt>
      <trkpt lat="44.33057" lon="5.89522">
        <ele>570</ele>
        <time>2019-04-09T13:33:44Z</time>
      </trkpt>
      <trkpt lat="44.33051" lon="5.8952">
        <ele>570</ele>
        <time>2019-04-09T13:33:45Z</time>
      </trkpt>
      <trkpt lat="44.33046" lon="5.89518">
        <ele>570</ele>
        <time>2019-04-09T13:33:46Z</time>
      </trkpt>
      <trkpt lat="44.3304" lon="5.89516">
        <ele>570</ele>
        <time>2019-04-09T13:33:47Z</time>
      </trkpt>
      <trkpt lat="44.33034" lon="5.89514">
        <ele>570</ele>
        <time>2019-04-09T13:33:48Z</time>
      </trkpt>
      <trkpt lat="44.33028" lon="5.89512">
        <ele>570</ele>
        <time>2019-04-09T13:33:49Z</time>
      </trkpt>
      <trkpt lat="44.33023" lon="5.8951">
        <ele>570</ele>
        <time>2019-04-09T13:33:50Z</time>
      </trkpt>
      <trkpt lat="44.33017" lon="5.89508">
        <ele>570</ele>
        <time>2019-04-09T13:33:51Z</time>
      </trkpt>
      <trkpt lat="44.33011" lon="5.89506">
        <ele>570</ele>
        <time>2019-04-09T13:33:52Z</time>
      </trkpt>
      <trkpt lat="44.33006" lon="5.89503">
        <ele>570</ele>
        <time>2019-04-09T13:33:53Z</time>
      </trkpt>
      <trkpt lat="44.33" lon="5.89501">
        <ele>570</ele>
        <time>2019-04-09T13:33:54Z</time>
      </trkpt>
      <trkpt lat="44.32994" lon="5.89499">
        <ele>570</ele>
        <time>2019-04-09T13:33:55Z</time>
      </trkpt>
      <trkpt lat="44.32989" lon="5.89497">
        <ele>570</ele>
        <time>2019-04-09T13:33:56Z</time>
      </trkpt>
      <trkpt lat="44.32983" lon="5.89494">
        <ele>570</ele>
        <time>2019-04-09T13:33:57Z</time>
      </trkpt>
      <trkpt lat="44.32978" lon="5.89492">
        <ele>570</ele>
        <time>2019-04-09T13:33:58Z</time>
      </trkpt>
      <trkpt lat="44.32972" lon="5.89489">
        <ele>570</ele>
        <time>2019-04-09T13:33:59Z</time>
      </trkpt>
      <trkpt lat="44.32967" lon="5.89487">
        <ele>570</ele>
        <time>2019-04-09T13:34:00Z</time>
      </trkpt>
      <trkpt lat="44.32962" lon="5.89484">
        <ele>570</ele>
        <time>2019-04-09T13:34:01Z</time>
      </trkpt>
      <trkpt lat="44.32956" lon="5.89482">
        <ele>570</ele>
        <time>2019-04-09T13:34:02Z</time>
      </trkpt>
      <trkpt lat="44.32951" lon="5.89479">
        <ele>571</ele>
        <time>2019-04-09T13:34:03Z</time>
      </trkpt>
      <trkpt lat="44.32945" lon="5.89476">
        <ele>571</ele>
        <time>2019-04-09T13:34:04Z</time>
      </trkpt>
      <trkpt lat="44.3294" lon="5.89474">
        <ele>571</ele>
        <time>2019-04-09T13:34:05Z</time>
      </trkpt>
      <trkpt lat="44.32935" lon="5.89471">
        <ele>571</ele>
        <time>2019-04-09T13:34:06Z</time>
      </trkpt>
      <trkpt lat="44.32929" lon="5.89468">
        <ele>571</ele>
        <time>2019-04-09T13:34:07Z</time>
      </trkpt>
      <trkpt lat="44.32924" lon="5.89466">
        <ele>571</ele>
        <time>2019-04-09T13:34:08Z</time>
      </trkpt>
      <trkpt lat="44.32918" lon="5.89463">
        <ele>572</ele>
        <time>2019-04-09T13:34:09Z</time>
      </trkpt>
      <trkpt lat="44.32913" lon="5.8946">
        <ele>572</ele>
        <time>2019-04-09T13:34:10Z</time>
      </trkpt>
      <trkpt lat="44.32908" lon="5.89456">
        <ele>573</ele>
        <time>2019-04-09T13:34:11Z</time>
      </trkpt>
      <trkpt lat="44.32903" lon="5.89452">
        <ele>573</ele>
        <time>2019-04-09T13:34:12Z</time>
      </trkpt>
      <trkpt lat="44.32898" lon="5.89448">
        <ele>574</ele>
        <time>2019-04-09T13:34:13Z</time>
      </trkpt>
      <trkpt lat="44.32892" lon="5.89444">
        <ele>574</ele>
        <time>2019-04-09T13:34:14Z</time>
      </trkpt>
      <trkpt lat="44.32887" lon="5.8944">
        <ele>574</ele>
        <time>2019-04-09T13:34:15Z</time>
      </trkpt>
      <trkpt lat="44.32882" lon="5.89437">
        <ele>574</ele>
        <time>2019-04-09T13:34:16Z</time>
      </trkpt>
      <trkpt lat="44.32877" lon="5.89433">
        <ele>574</ele>
        <time>2019-04-09T13:34:17Z</time>
      </trkpt>
      <trkpt lat="44.32871" lon="5.8943">
        <ele>574</ele>
        <time>2019-04-09T13:34:18Z</time>
      </trkpt>
      <trkpt lat="44.32866" lon="5.89427">
        <ele>574</ele>
        <time>2019-04-09T13:34:19Z</time>
      </trkpt>
      <trkpt lat="44.32861" lon="5.89423">
        <ele>574</ele>
        <time>2019-04-09T13:34:20Z</time>
      </trkpt>
      <trkpt lat="44.32856" lon="5.89419">
        <ele>574</ele>
        <time>2019-04-09T13:34:21Z</time>
      </trkpt>
      <trkpt lat="44.3285" lon="5.89415">
        <ele>574</ele>
        <time>2019-04-09T13:34:22Z</time>
      </trkpt>
      <trkpt lat="44.32845" lon="5.89411">
        <ele>574</ele>
        <time>2019-04-09T13:34:23Z</time>
      </trkpt>
      <trkpt lat="44.3284" lon="5.89408">
        <ele>574</ele>
        <time>2019-04-09T13:34:24Z</time>
      </trkpt>
      <trkpt lat="44.32835" lon="5.89404">
        <ele>574</ele>
        <time>2019-04-09T13:34:25Z</time>
      </trkpt>
      <trkpt lat="44.32829" lon="5.894">
        <ele>574</ele>
        <time>2019-04-09T13:34:26Z</time>
      </trkpt>
      <trkpt lat="44.32824" lon="5.89396">
        <ele>574</ele>
        <time>2019-04-09T13:34:27Z</time>
      </trkpt>
      <trkpt lat="44.32818" lon="5.89393">
        <ele>574</ele>
        <time>2019-04-09T13:34:28Z</time>
      </trkpt>
      <trkpt lat="44.32813" lon="5.89389">
        <ele>574</ele>
        <time>2019-04-09T13:34:29Z</time>
      </trkpt>
      <trkpt lat="44.32808" lon="5.89385">
        <ele>574</ele>
        <time>2019-04-09T13:34:30Z</time>
      </trkpt>
      <trkpt lat="44.32802" lon="5.89381">
        <ele>574</ele>
        <time>2019-04-09T13:34:31Z</time>
      </trkpt>
      <trkpt lat="44.32796" lon="5.89377">
        <ele>574</ele>
        <time>2019-04-09T13:34:32Z</time>
      </trkpt>
      <trkpt lat="44.32791" lon="5.89373">
        <ele>574</ele>
        <time>2019-04-09T13:34:33Z</time>
      </trkpt>
      <trkpt lat="44.32785" lon="5.8937">
        <ele>574</ele>
        <time>2019-04-09T13:34:34Z</time>
      </trkpt>
      <trkpt lat="44.3278" lon="5.89366">
        <ele>574</ele>
        <time>2019-04-09T13:34:35Z</time>
      </trkpt>
      <trkpt lat="44.32775" lon="5.89362">
        <ele>574</ele>
        <time>2019-04-09T13:34:36Z</time>
      </trkpt>
      <trkpt lat="44.3277" lon="5.89358">
        <ele>574</ele>
        <time>2019-04-09T13:34:37Z</time>
      </trkpt>
      <trkpt lat="44.32764" lon="5.89354">
        <ele>574</ele>
        <time>2019-04-09T13:34:38Z</time>
      </trkpt>
      <trkpt lat="44.32759" lon="5.89351">
        <ele>574</ele>
        <time>2019-04-09T13:34:39Z</time>
      </trkpt>
      <trkpt lat="44.32754" lon="5.89347">
        <ele>574</ele>
        <time>2019-04-09T13:34:40Z</time>
      </trkpt>
      <trkpt lat="44.32748" lon="5.89343">
        <ele>574</ele>
        <time>2019-04-09T13:34:41Z</time>
      </trkpt>
      <trkpt lat="44.32743" lon="5.89339">
        <ele>574</ele>
        <time>2019-04-09T13:34:42Z</time>
      </trkpt>
      <trkpt lat="44.32737" lon="5.89335">
        <ele>574</ele>
        <time>2019-04-09T13:34:43Z</time>
      </trkpt>
      <trkpt lat="44.32732" lon="5.89332">
        <ele>574</ele>
        <time>2019-04-09T13:34:44Z</time>
      </trkpt>
      <trkpt lat="44.32727" lon="5.89328">
        <ele>574</ele>
        <time>2019-04-09T13:34:45Z</time>
      </trkpt>
      <trkpt lat="44.32722" lon="5.89324">
        <ele>574</ele>
        <time>2019-04-09T13:34:46Z</time>
      </trkpt>
      <trkpt lat="44.32716" lon="5.8932">
        <ele>574</ele>
        <time>2019-04-09T13:34:47Z</time>
      </trkpt>
      <trkpt lat="44.32711" lon="5.89316">
        <ele>574</ele>
        <time>2019-04-09T13:34:48Z</time>
      </trkpt>
      <trkpt lat="44.32705" lon="5.89312">
        <ele>574</ele>
        <time>2019-04-09T13:34:49Z</time>
      </trkpt>
      <trkpt lat="44.327" lon="5.89308">
        <ele>574</ele>
        <time>2019-04-09T13:34:50Z</time>
      </trkpt>
      <trkpt lat="44.32694" lon="5.89305">
        <ele>574</ele>
        <time>2019-04-09T13:34:51Z</time>
      </trkpt>
      <trkpt lat="44.32689" lon="5.89301">
        <ele>574</ele>
        <time>2019-04-09T13:34:52Z</time>
      </trkpt>
      <trkpt lat="44.32683" lon="5.89297">
        <ele>574</ele>
        <time>2019-04-09T13:34:53Z</time>
      </trkpt>
      <trkpt lat="44.32678" lon="5.89293">
        <ele>574</ele>
        <time>2019-04-09T13:34:54Z</time>
      </trkpt>
      <trkpt lat="44.32672" lon="5.89289">
        <ele>574</ele>
        <time>2019-04-09T13:34:55Z</time>
      </trkpt>
      <trkpt lat="44.32667" lon="5.89285">
        <ele>574</ele>
        <time>2019-04-09T13:34:56Z</time>
      </trkpt>
      <trkpt lat="44.32661" lon="5.89281">
        <ele>574</ele>
        <time>2019-04-09T13:34:57Z</time>
      </trkpt>
      <trkpt lat="44.32656" lon="5.89276">
        <ele>574</ele>
        <time>2019-04-09T13:34:58Z</time>
      </trkpt>
      <trkpt lat="44.3265" lon="5.89272">
        <ele>574</ele>
        <time>2019-04-09T13:34:59Z</time>
      </trkpt>
      <trkpt lat="44.32645" lon="5.89267">
        <ele>574</ele>
        <time>2019-04-09T13:35:00Z</time>
      </trkpt>
      <trkpt lat="44.3264" lon="5.89263">
        <ele>574</ele>
        <time>2019-04-09T13:35:01Z</time>
      </trkpt>
      <trkpt lat="44.32636" lon="5.89259">
        <ele>574</ele>
        <time>2019-04-09T13:35:02Z</time>
      </trkpt>
      <trkpt lat="44.32631" lon="5.89256">
        <ele>574</ele>
        <time>2019-04-09T13:35:03Z</time>
      </trkpt>
      <trkpt lat="44.32626" lon="5.89253">
        <ele>574</ele>
        <time>2019-04-09T13:35:04Z</time>
      </trkpt>
      <trkpt lat="44.32621" lon="5.8925">
        <ele>574</ele>
        <time>2019-04-09T13:35:05Z</time>
      </trkpt>
      <trkpt lat="44.32615" lon="5.89247">
        <ele>574</ele>
        <time>2019-04-09T13:35:06Z</time>
      </trkpt>
      <trkpt lat="44.3261" lon="5.89244">
        <ele>574</ele>
        <time>2019-04-09T13:35:07Z</time>
      </trkpt>
      <trkpt lat="44.32605" lon="5.8924">
        <ele>574</ele>
        <time>2019-04-09T13:35:08Z</time>
      </trkpt>
      <trkpt lat="44.32599" lon="5.89237">
        <ele>574</ele>
        <time>2019-04-09T13:35:09Z</time>
      </trkpt>
      <trkpt lat="44.32593" lon="5.89234">
        <ele>574</ele>
        <time>2019-04-09T13:35:10Z</time>
      </trkpt>
      <trkpt lat="44.32587" lon="5.89231">
        <ele>574</ele>
        <time>2019-04-09T13:35:11Z</time>
      </trkpt>
      <trkpt lat="44.32581" lon="5.89228">
        <ele>574</ele>
        <time>2019-04-09T13:35:12Z</time>
      </trkpt>
      <trkpt lat="44.32575" lon="5.89224">
        <ele>574</ele>
        <time>2019-04-09T13:35:13Z</time>
      </trkpt>
      <trkpt lat="44.32569" lon="5.89221">
        <ele>574</ele>
        <time>2019-04-09T13:35:14Z</time>
      </trkpt>
      <trkpt lat="44.32563" lon="5.89217">
        <ele>574</ele>
        <time>2019-04-09T13:35:15Z</time>
      </trkpt>
      <trkpt lat="44.32557" lon="5.89214">
        <ele>574</ele>
        <time>2019-04-09T13:35:16Z</time>
      </trkpt>
      <trkpt lat="44.3255" lon="5.8921">
        <ele>574</ele>
        <time>2019-04-09T13:35:17Z</time>
      </trkpt>
      <trkpt lat="44.32544" lon="5.89207">
        <ele>574</ele>
        <time>2019-04-09T13:35:18Z</time>
      </trkpt>
      <trkpt lat="44.32537" lon="5.89204">
        <ele>574</ele>
        <time>2019-04-09T13:35:19Z</time>
      </trkpt>
      <trkpt lat="44.32531" lon="5.89201">
        <ele>574</ele>
        <time>2019-04-09T13:35:20Z</time>
      </trkpt>
      <trkpt lat="44.32524" lon="5.89199">
        <ele>574</ele>
        <time>2019-04-09T13:35:21Z</time>
      </trkpt>
      <trkpt lat="44.32517" lon="5.89196">
        <ele>574</ele>
        <time>2019-04-09T13:35:22Z</time>
      </trkpt>
      <trkpt lat="44.32511" lon="5.89194">
        <ele>574</ele>
        <time>2019-04-09T13:35:23Z</time>
      </trkpt>
      <trkpt lat="44.32504" lon="5.89192">
        <ele>574</ele>
        <time>2019-04-09T13:35:24Z</time>
      </trkpt>
      <trkpt lat="44.32497" lon="5.8919">
        <ele>574</ele>
        <time>2019-04-09T13:35:25Z</time>
      </trkpt>
      <trkpt lat="44.32491" lon="5.89187">
        <ele>574</ele>
        <time>2019-04-09T13:35:26Z</time>
      </trkpt>
      <trkpt lat="44.32484" lon="5.89185">
        <ele>574</ele>
        <time>2019-04-09T13:35:27Z</time>
      </trkpt>
      <trkpt lat="44.32477" lon="5.89183">
        <ele>574</ele>
        <time>2019-04-09T13:35:28Z</time>
      </trkpt>
      <trkpt lat="44.32471" lon="5.89181">
        <ele>574</ele>
        <time>2019-04-09T13:35:29Z</time>
      </trkpt>
      <trkpt lat="44.32464" lon="5.89178">
        <ele>574</ele>
        <time>2019-04-09T13:35:30Z</time>
      </trkpt>
      <trkpt lat="44.32457" lon="5.89176">
        <ele>574</ele>
        <time>2019-04-09T13:35:31Z</time>
      </trkpt>
      <trkpt lat="44.32451" lon="5.89174">
        <ele>574</ele>
        <time>2019-04-09T13:35:32Z</time>
      </trkpt>
      <trkpt lat="44.32444" lon="5.89172">
        <ele>574</ele>
        <time>2019-04-09T13:35:33Z</time>
      </trkpt>
      <trkpt lat="44.32438" lon="5.89169">
        <ele>574</ele>
        <time>2019-04-09T13:35:34Z</time>
      </trkpt>
      <trkpt lat="44.32432" lon="5.89167">
        <ele>574</ele>
        <time>2019-04-09T13:35:35Z</time>
      </trkpt>
      <trkpt lat="44.32425" lon="5.89165">
        <ele>574</ele>
        <time>2019-04-09T13:35:36Z</time>
      </trkpt>
      <trkpt lat="44.32419" lon="5.89162">
        <ele>574</ele>
        <time>2019-04-09T13:35:37Z</time>
      </trkpt>
      <trkpt lat="44.32413" lon="5.8916">
        <ele>574</ele>
        <time>2019-04-09T13:35:38Z</time>
      </trkpt>
      <trkpt lat="44.32407" lon="5.89158">
        <ele>574</ele>
        <time>2019-04-09T13:35:39Z</time>
      </trkpt>
      <trkpt lat="44.324" lon="5.89156">
        <ele>574</ele>
        <time>2019-04-09T13:35:40Z</time>
      </trkpt>
      <trkpt lat="44.32394" lon="5.89154">
        <ele>574</ele>
        <time>2019-04-09T13:35:41Z</time>
      </trkpt>
      <trkpt lat="44.32388" lon="5.89152">
        <ele>574</ele>
        <time>2019-04-09T13:35:42Z</time>
      </trkpt>
      <trkpt lat="44.32382" lon="5.8915">
        <ele>574</ele>
        <time>2019-04-09T13:35:43Z</time>
      </trkpt>
      <trkpt lat="44.32376" lon="5.89148">
        <ele>574</ele>
        <time>2019-04-09T13:35:44Z</time>
      </trkpt>
      <trkpt lat="44.3237" lon="5.89146">
        <ele>574</ele>
        <time>2019-04-09T13:35:45Z</time>
      </trkpt>
      <trkpt lat="44.32364" lon="5.89144">
        <ele>574</ele>
        <time>2019-04-09T13:35:46Z</time>
      </trkpt>
      <trkpt lat="44.32357" lon="5.89142">
        <ele>574</ele>
        <time>2019-04-09T13:35:47Z</time>
      </trkpt>
      <trkpt lat="44.32352" lon="5.8914">
        <ele>574</ele>
        <time>2019-04-09T13:35:48Z</time>
      </trkpt>
      <trkpt lat="44.32345" lon="5.89138">
        <ele>574</ele>
        <time>2019-04-09T13:35:49Z</time>
      </trkpt>
      <trkpt lat="44.32339" lon="5.89137">
        <ele>574</ele>
        <time>2019-04-09T13:35:50Z</time>
      </trkpt>
      <trkpt lat="44.32332" lon="5.89135">
        <ele>574</ele>
        <time>2019-04-09T13:35:51Z</time>
      </trkpt>
      <trkpt lat="44.32326" lon="5.89133">
        <ele>574</ele>
        <time>2019-04-09T13:35:52Z</time>
      </trkpt>
      <trkpt lat="44.3232" lon="5.89131">
        <ele>574</ele>
        <time>2019-04-09T13:35:53Z</time>
      </trkpt>
      <trkpt lat="44.32314" lon="5.89128">
        <ele>574</ele>
        <time>2019-04-09T13:35:54Z</time>
      </trkpt>
      <trkpt lat="44.32307" lon="5.89126">
        <ele>574</ele>
        <time>2019-04-09T13:35:55Z</time>
      </trkpt>
      <trkpt lat="44.32301" lon="5.89124">
        <ele>574</ele>
        <time>2019-04-09T13:35:56Z</time>
      </trkpt>
      <trkpt lat="44.32295" lon="5.89122">
        <ele>574</ele>
        <time>2019-04-09T13:35:57Z</time>
      </trkpt>
      <trkpt lat="44.32289" lon="5.8912">
        <ele>574</ele>
        <time>2019-04-09T13:35:58Z</time>
      </trkpt>
      <trkpt lat="44.32283" lon="5.89118">
        <ele>574</ele>
        <time>2019-04-09T13:35:59Z</time>
      </trkpt>
      <trkpt lat="44.32277" lon="5.89115">
        <ele>574</ele>
        <time>2019-04-09T13:36:00Z</time>
      </trkpt>
      <trkpt lat="44.32271" lon="5.89114">
        <ele>574</ele>
        <time>2019-04-09T13:36:01Z</time>
      </trkpt>
      <trkpt lat="44.32265" lon="5.89112">
        <ele>574</ele>
        <time>2019-04-09T13:36:02Z</time>
      </trkpt>
      <trkpt lat="44.32259" lon="5.8911">
        <ele>574</ele>
        <time>2019-04-09T13:36:03Z</time>
      </trkpt>
      <trkpt lat="44.32253" lon="5.89108">
        <ele>574</ele>
        <time>2019-04-09T13:36:04Z</time>
      </trkpt>
      <trkpt lat="44.32247" lon="5.89106">
        <ele>574</ele>
        <time>2019-04-09T13:36:05Z</time>
      </trkpt>
      <trkpt lat="44.32241" lon="5.89104">
        <ele>574</ele>
        <time>2019-04-09T13:36:06Z</time>
      </trkpt>
      <trkpt lat="44.32235" lon="5.89102">
        <ele>574</ele>
        <time>2019-04-09T13:36:07Z</time>
      </trkpt>
      <trkpt lat="44.32229" lon="5.891">
        <ele>574</ele>
        <time>2019-04-09T13:36:08Z</time>
      </trkpt>
      <trkpt lat="44.32223" lon="5.89098">
        <ele>574</ele>
        <time>2019-04-09T13:36:09Z</time>
      </trkpt>
      <trkpt lat="44.32217" lon="5.89097">
        <ele>574</ele>
        <time>2019-04-09T13:36:10Z</time>
      </trkpt>
      <trkpt lat="44.32211" lon="5.89095">
        <ele>574</ele>
        <time>2019-04-09T13:36:11Z</time>
      </trkpt>
      <trkpt lat="44.32206" lon="5.89094">
        <ele>574</ele>
        <time>2019-04-09T13:36:12Z</time>
      </trkpt>
      <trkpt lat="44.32199" lon="5.89092">
        <ele>574</ele>
        <time>2019-04-09T13:36:13Z</time>
      </trkpt>
      <trkpt lat="44.32194" lon="5.8909">
        <ele>574</ele>
        <time>2019-04-09T13:36:14Z</time>
      </trkpt>
      <trkpt lat="44.32188" lon="5.89088">
        <ele>574</ele>
        <time>2019-04-09T13:36:15Z</time>
      </trkpt>
      <trkpt lat="44.32182" lon="5.89086">
        <ele>574</ele>
        <time>2019-04-09T13:36:16Z</time>
      </trkpt>
      <trkpt lat="44.32176" lon="5.89084">
        <ele>574</ele>
        <time>2019-04-09T13:36:17Z</time>
      </trkpt>
      <trkpt lat="44.3217" lon="5.89082">
        <ele>574</ele>
        <time>2019-04-09T13:36:18Z</time>
      </trkpt>
      <trkpt lat="44.32164" lon="5.8908">
        <ele>574</ele>
        <time>2019-04-09T13:36:19Z</time>
      </trkpt>
      <trkpt lat="44.32158" lon="5.89078">
        <ele>574</ele>
        <time>2019-04-09T13:36:20Z</time>
      </trkpt>
      <trkpt lat="44.32152" lon="5.89076">
        <ele>574</ele>
        <time>2019-04-09T13:36:21Z</time>
      </trkpt>
      <trkpt lat="44.32145" lon="5.89074">
        <ele>574</ele>
        <time>2019-04-09T13:36:22Z</time>
      </trkpt>
      <trkpt lat="44.3214" lon="5.89073">
        <ele>574</ele>
        <time>2019-04-09T13:36:23Z</time>
      </trkpt>
      <trkpt lat="44.32133" lon="5.89071">
        <ele>574</ele>
        <time>2019-04-09T13:36:24Z</time>
      </trkpt>
      <trkpt lat="44.32127" lon="5.8907">
        <ele>574</ele>
        <time>2019-04-09T13:36:25Z</time>
      </trkpt>
      <trkpt lat="44.32121" lon="5.89068">
        <ele>574</ele>
        <time>2019-04-09T13:36:26Z</time>
      </trkpt>
      <trkpt lat="44.32115" lon="5.89066">
        <ele>574</ele>
        <time>2019-04-09T13:36:27Z</time>
      </trkpt>
      <trkpt lat="44.32109" lon="5.89065">
        <ele>574</ele>
        <time>2019-04-09T13:36:28Z</time>
      </trkpt>
      <trkpt lat="44.32103" lon="5.89064">
        <ele>574</ele>
        <time>2019-04-09T13:36:29Z</time>
      </trkpt>
      <trkpt lat="44.32097" lon="5.89063">
        <ele>574</ele>
        <time>2019-04-09T13:36:30Z</time>
      </trkpt>
      <trkpt lat="44.32092" lon="5.89062">
        <ele>574</ele>
        <time>2019-04-09T13:36:31Z</time>
      </trkpt>
      <trkpt lat="44.32086" lon="5.89061">
        <ele>574</ele>
        <time>2019-04-09T13:36:32Z</time>
      </trkpt>
      <trkpt lat="44.3208" lon="5.8906">
        <ele>574</ele>
        <time>2019-04-09T13:36:33Z</time>
      </trkpt>
      <trkpt lat="44.32075" lon="5.89059">
        <ele>574</ele>
        <time>2019-04-09T13:36:34Z</time>
      </trkpt>
      <trkpt lat="44.3207" lon="5.89059">
        <ele>574</ele>
        <time>2019-04-09T13:36:35Z</time>
      </trkpt>
      <trkpt lat="44.32065" lon="5.89059">
        <ele>574</ele>
        <time>2019-04-09T13:36:36Z</time>
      </trkpt>
      <trkpt lat="44.3206" lon="5.89058">
        <ele>574</ele>
        <time>2019-04-09T13:36:37Z</time>
      </trkpt>
      <trkpt lat="44.32055" lon="5.89058">
        <ele>574</ele>
        <time>2019-04-09T13:36:38Z</time>
      </trkpt>
      <trkpt lat="44.3205" lon="5.89057">
        <ele>574</ele>
        <time>2019-04-09T13:36:39Z</time>
      </trkpt>
      <trkpt lat="44.32045" lon="5.89056">
        <ele>574</ele>
        <time>2019-04-09T13:36:40Z</time>
      </trkpt>
      <trkpt lat="44.3204" lon="5.89055">
        <ele>574</ele>
        <time>2019-04-09T13:36:41Z</time>
      </trkpt>
      <trkpt lat="44.32035" lon="5.89053">
        <ele>574</ele>
        <time>2019-04-09T13:36:42Z</time>
      </trkpt>
      <trkpt lat="44.3203" lon="5.89051">
        <ele>574</ele>
        <time>2019-04-09T13:36:43Z</time>
      </trkpt>
      <trkpt lat="44.32026" lon="5.8905">
        <ele>574</ele>
        <time>2019-04-09T13:36:44Z</time>
      </trkpt>
      <trkpt lat="44.32022" lon="5.89048">
        <ele>574</ele>
        <time>2019-04-09T13:36:45Z</time>
      </trkpt>
      <trkpt lat="44.32018" lon="5.89046">
        <ele>574</ele>
        <time>2019-04-09T13:36:46Z</time>
      </trkpt>
      <trkpt lat="44.32013" lon="5.89044">
        <ele>574</ele>
        <time>2019-04-09T13:36:47Z</time>
      </trkpt>
      <trkpt lat="44.32009" lon="5.89041">
        <ele>574</ele>
        <time>2019-04-09T13:36:48Z</time>
      </trkpt>
      <trkpt lat="44.32005" lon="5.89039">
        <ele>574</ele>
        <time>2019-04-09T13:36:49Z</time>
      </trkpt>
      <trkpt lat="44.32001" lon="5.89036">
        <ele>574</ele>
        <time>2019-04-09T13:36:50Z</time>
      </trkpt>
      <trkpt lat="44.31997" lon="5.89034">
        <ele>574</ele>
        <time>2019-04-09T13:36:51Z</time>
      </trkpt>
      <trkpt lat="44.31993" lon="5.89031">
        <ele>574</ele>
        <time>2019-04-09T13:36:52Z</time>
      </trkpt>
      <trkpt lat="44.3199" lon="5.89028">
        <ele>574</ele>
        <time>2019-04-09T13:36:53Z</time>
      </trkpt>
      <trkpt lat="44.31986" lon="5.89025">
        <ele>574</ele>
        <time>2019-04-09T13:36:54Z</time>
      </trkpt>
      <trkpt lat="44.31982" lon="5.89022">
        <ele>574</ele>
        <time>2019-04-09T13:36:55Z</time>
      </trkpt>
      <trkpt lat="44.31979" lon="5.89018">
        <ele>574</ele>
        <time>2019-04-09T13:36:56Z</time>
      </trkpt>
      <trkpt lat="44.31975" lon="5.89015">
        <ele>574</ele>
        <time>2019-04-09T13:36:57Z</time>
      </trkpt>
      <trkpt lat="44.31971" lon="5.89012">
        <ele>574</ele>
        <time>2019-04-09T13:36:58Z</time>
      </trkpt>
      <trkpt lat="44.31968" lon="5.89009">
        <ele>574</ele>
        <time>2019-04-09T13:36:59Z</time>
      </trkpt>
      <trkpt lat="44.31964" lon="5.89006">
        <ele>574</ele>
        <time>2019-04-09T13:37:00Z</time>
      </trkpt>
      <trkpt lat="44.3196" lon="5.89003">
        <ele>574</ele>
        <time>2019-04-09T13:37:01Z</time>
      </trkpt>
      <trkpt lat="44.31956" lon="5.89001">
        <ele>575</ele>
        <time>2019-04-09T13:37:02Z</time>
      </trkpt>
      <trkpt lat="44.31952" lon="5.88999">
        <ele>575</ele>
        <time>2019-04-09T13:37:03Z</time>
      </trkpt>
      <trkpt lat="44.31947" lon="5.88997">
        <ele>575</ele>
        <time>2019-04-09T13:37:04Z</time>
      </trkpt>
      <trkpt lat="44.31943" lon="5.88995">
        <ele>575</ele>
        <time>2019-04-09T13:37:05Z</time>
      </trkpt>
      <trkpt lat="44.31939" lon="5.88993">
        <ele>575</ele>
        <time>2019-04-09T13:37:06Z</time>
      </trkpt>
      <trkpt lat="44.31934" lon="5.88991">
        <ele>575</ele>
        <time>2019-04-09T13:37:07Z</time>
      </trkpt>
      <trkpt lat="44.3193" lon="5.8899">
        <ele>575</ele>
        <time>2019-04-09T13:37:08Z</time>
      </trkpt>
      <trkpt lat="44.31926" lon="5.88989">
        <ele>575</ele>
        <time>2019-04-09T13:37:09Z</time>
      </trkpt>
      <trkpt lat="44.31921" lon="5.88988">
        <ele>575</ele>
        <time>2019-04-09T13:37:10Z</time>
      </trkpt>
      <trkpt lat="44.31917" lon="5.88987">
        <ele>576</ele>
        <time>2019-04-09T13:37:11Z</time>
      </trkpt>
      <trkpt lat="44.31913" lon="5.88987">
        <ele>576</ele>
        <time>2019-04-09T13:37:12Z</time>
      </trkpt>
      <trkpt lat="44.31908" lon="5.88987">
        <ele>576</ele>
        <time>2019-04-09T13:37:13Z</time>
      </trkpt>
      <trkpt lat="44.31903" lon="5.88986">
        <ele>576</ele>
        <time>2019-04-09T13:37:14Z</time>
      </trkpt>
      <trkpt lat="44.31899" lon="5.88987">
        <ele>576</ele>
        <time>2019-04-09T13:37:15Z</time>
      </trkpt>
      <trkpt lat="44.31894" lon="5.88987">
        <ele>576</ele>
        <time>2019-04-09T13:37:16Z</time>
      </trkpt>
      <trkpt lat="44.3189" lon="5.88988">
        <ele>576</ele>
        <time>2019-04-09T13:37:17Z</time>
      </trkpt>
      <trkpt lat="44.31885" lon="5.88988">
        <ele>576</ele>
        <time>2019-04-09T13:37:18Z</time>
      </trkpt>
      <trkpt lat="44.3188" lon="5.88989">
        <ele>576</ele>
        <time>2019-04-09T13:37:19Z</time>
      </trkpt>
      <trkpt lat="44.31876" lon="5.8899">
        <ele>576</ele>
        <time>2019-04-09T13:37:20Z</time>
      </trkpt>
      <trkpt lat="44.31871" lon="5.88991">
        <ele>576</ele>
        <time>2019-04-09T13:37:21Z</time>
      </trkpt>
      <trkpt lat="44.31867" lon="5.88993">
        <ele>576</ele>
        <time>2019-04-09T13:37:22Z</time>
      </trkpt>
      <trkpt lat="44.31863" lon="5.88995">
        <ele>577</ele>
        <time>2019-04-09T13:37:23Z</time>
      </trkpt>
      <trkpt lat="44.31859" lon="5.88997">
        <ele>577</ele>
        <time>2019-04-09T13:37:24Z</time>
      </trkpt>
      <trkpt lat="44.31855" lon="5.88999">
        <ele>577</ele>
        <time>2019-04-09T13:37:25Z</time>
      </trkpt>
      <trkpt lat="44.31851" lon="5.89002">
        <ele>577</ele>
        <time>2019-04-09T13:37:26Z</time>
      </trkpt>
      <trkpt lat="44.31847" lon="5.89004">
        <ele>577</ele>
        <time>2019-04-09T13:37:27Z</time>
      </trkpt>
      <trkpt lat="44.31843" lon="5.89007">
        <ele>577</ele>
        <time>2019-04-09T13:37:28Z</time>
      </trkpt>
      <trkpt lat="44.31839" lon="5.89009">
        <ele>577</ele>
        <time>2019-04-09T13:37:29Z</time>
      </trkpt>
      <trkpt lat="44.31835" lon="5.89012">
        <ele>577</ele>
        <time>2019-04-09T13:37:30Z</time>
      </trkpt>
      <trkpt lat="44.31831" lon="5.89015">
        <ele>577</ele>
        <time>2019-04-09T13:37:31Z</time>
      </trkpt>
      <trkpt lat="44.31827" lon="5.89018">
        <ele>578</ele>
        <time>2019-04-09T13:37:32Z</time>
      </trkpt>
      <trkpt lat="44.31823" lon="5.8902">
        <ele>578</ele>
        <time>2019-04-09T13:37:33Z</time>
      </trkpt>
      <trkpt lat="44.31818" lon="5.89023">
        <ele>578</ele>
        <time>2019-04-09T13:37:34Z</time>
      </trkpt>
      <trkpt lat="44.31814" lon="5.89026">
        <ele>578</ele>
        <time>2019-04-09T13:37:35Z</time>
      </trkpt>
      <trkpt lat="44.3181" lon="5.8903">
        <ele>578</ele>
        <time>2019-04-09T13:37:36Z</time>
      </trkpt>
      <trkpt lat="44.31806" lon="5.89033">
        <ele>578</ele>
        <time>2019-04-09T13:37:37Z</time>
      </trkpt>
      <trkpt lat="44.31802" lon="5.89036">
        <ele>578</ele>
        <time>2019-04-09T13:37:38Z</time>
      </trkpt>
      <trkpt lat="44.31798" lon="5.89039">
        <ele>578</ele>
        <time>2019-04-09T13:37:39Z</time>
      </trkpt>
      <trkpt lat="44.31794" lon="5.89042">
        <ele>578</ele>
        <time>2019-04-09T13:37:40Z</time>
      </trkpt>
      <trkpt lat="44.31789" lon="5.89045">
        <ele>579</ele>
        <time>2019-04-09T13:37:41Z</time>
      </trkpt>
      <trkpt lat="44.31785" lon="5.89048">
        <ele>579</ele>
        <time>2019-04-09T13:37:42Z</time>
      </trkpt>
      <trkpt lat="44.31781" lon="5.89051">
        <ele>579</ele>
        <time>2019-04-09T13:37:43Z</time>
      </trkpt>
      <trkpt lat="44.31777" lon="5.89053">
        <ele>579</ele>
        <time>2019-04-09T13:37:44Z</time>
      </trkpt>
      <trkpt lat="44.31773" lon="5.89056">
        <ele>579</ele>
        <time>2019-04-09T13:37:45Z</time>
      </trkpt>
      <trkpt lat="44.31769" lon="5.89059">
        <ele>580</ele>
        <time>2019-04-09T13:37:46Z</time>
      </trkpt>
      <trkpt lat="44.31765" lon="5.89061">
        <ele>580</ele>
        <time>2019-04-09T13:37:47Z</time>
      </trkpt>
      <trkpt lat="44.31761" lon="5.89064">
        <ele>580</ele>
        <time>2019-04-09T13:37:48Z</time>
      </trkpt>
      <trkpt lat="44.31757" lon="5.89067">
        <ele>580</ele>
        <time>2019-04-09T13:37:49Z</time>
      </trkpt>
      <trkpt lat="44.31753" lon="5.89069">
        <ele>580</ele>
        <time>2019-04-09T13:37:50Z</time>
      </trkpt>
      <trkpt lat="44.31749" lon="5.89072">
        <ele>580</ele>
        <time>2019-04-09T13:37:51Z</time>
      </trkpt>
      <trkpt lat="44.31744" lon="5.89074">
        <ele>580</ele>
        <time>2019-04-09T13:37:52Z</time>
      </trkpt>
      <trkpt lat="44.3174" lon="5.89075">
        <ele>580</ele>
        <time>2019-04-09T13:37:53Z</time>
      </trkpt>
      <trkpt lat="44.31736" lon="5.89078">
        <ele>580</ele>
        <time>2019-04-09T13:37:54Z</time>
      </trkpt>
      <trkpt lat="44.31732" lon="5.89079">
        <ele>581</ele>
        <time>2019-04-09T13:37:55Z</time>
      </trkpt>
      <trkpt lat="44.31728" lon="5.89081">
        <ele>581</ele>
        <time>2019-04-09T13:37:56Z</time>
      </trkpt>
      <trkpt lat="44.31723" lon="5.89083">
        <ele>581</ele>
        <time>2019-04-09T13:37:57Z</time>
      </trkpt>
      <trkpt lat="44.31719" lon="5.89084">
        <ele>581</ele>
        <time>2019-04-09T13:37:58Z</time>
      </trkpt>
      <trkpt lat="44.31714" lon="5.89085">
        <ele>581</ele>
        <time>2019-04-09T13:37:59Z</time>
      </trkpt>
      <trkpt lat="44.3171" lon="5.89087">
        <ele>581</ele>
        <time>2019-04-09T13:38:00Z</time>
      </trkpt>
      <trkpt lat="44.31705" lon="5.89088">
        <ele>581</ele>
        <time>2019-04-09T13:38:01Z</time>
      </trkpt>
      <trkpt lat="44.31701" lon="5.8909">
        <ele>581</ele>
        <time>2019-04-09T13:38:02Z</time>
      </trkpt>
      <trkpt lat="44.31696" lon="5.89091">
        <ele>581</ele>
        <time>2019-04-09T13:38:03Z</time>
      </trkpt>
      <trkpt lat="44.31692" lon="5.89092">
        <ele>582</ele>
        <time>2019-04-09T13:38:04Z</time>
      </trkpt>
      <trkpt lat="44.31688" lon="5.89093">
        <ele>582</ele>
        <time>2019-04-09T13:38:05Z</time>
      </trkpt>
      <trkpt lat="44.31683" lon="5.89093">
        <ele>582</ele>
        <time>2019-04-09T13:38:06Z</time>
      </trkpt>
      <trkpt lat="44.31678" lon="5.89094">
        <ele>582</ele>
        <time>2019-04-09T13:38:07Z</time>
      </trkpt>
      <trkpt lat="44.31674" lon="5.89095">
        <ele>582</ele>
        <time>2019-04-09T13:38:08Z</time>
      </trkpt>
      <trkpt lat="44.31669" lon="5.89095">
        <ele>582</ele>
        <time>2019-04-09T13:38:09Z</time>
      </trkpt>
      <trkpt lat="44.31665" lon="5.89095">
        <ele>582</ele>
        <time>2019-04-09T13:38:10Z</time>
      </trkpt>
      <trkpt lat="44.3166" lon="5.89096">
        <ele>582</ele>
        <time>2019-04-09T13:38:11Z</time>
      </trkpt>
      <trkpt lat="44.31655" lon="5.89096">
        <ele>583</ele>
        <time>2019-04-09T13:38:12Z</time>
      </trkpt>
      <trkpt lat="44.31651" lon="5.89096">
        <ele>583</ele>
        <time>2019-04-09T13:38:13Z</time>
      </trkpt>
      <trkpt lat="44.31646" lon="5.89096">
        <ele>583</ele>
        <time>2019-04-09T13:38:14Z</time>
      </trkpt>
      <trkpt lat="44.31641" lon="5.89096">
        <ele>583</ele>
        <time>2019-04-09T13:38:15Z</time>
      </trkpt>
      <trkpt lat="44.31637" lon="5.89096">
        <ele>584</ele>
        <time>2019-04-09T13:38:16Z</time>
      </trkpt>
      <trkpt lat="44.31632" lon="5.89095">
        <ele>584</ele>
        <time>2019-04-09T13:38:17Z</time>
      </trkpt>
      <trkpt lat="44.31628" lon="5.89095">
        <ele>584</ele>
        <time>2019-04-09T13:38:18Z</time>
      </trkpt>
      <trkpt lat="44.31623" lon="5.89095">
        <ele>584</ele>
        <time>2019-04-09T13:38:19Z</time>
      </trkpt>
      <trkpt lat="44.31619" lon="5.89096">
        <ele>584</ele>
        <time>2019-04-09T13:38:20Z</time>
      </trkpt>
      <trkpt lat="44.31614" lon="5.89096">
        <ele>584</ele>
        <time>2019-04-09T13:38:21Z</time>
      </trkpt>
      <trkpt lat="44.3161" lon="5.89096">
        <ele>585</ele>
        <time>2019-04-09T13:38:22Z</time>
      </trkpt>
      <trkpt lat="44.31605" lon="5.89095">
        <ele>585</ele>
        <time>2019-04-09T13:38:23Z</time>
      </trkpt>
      <trkpt lat="44.31601" lon="5.89096">
        <ele>585</ele>
        <time>2019-04-09T13:38:24Z</time>
      </trkpt>
      <trkpt lat="44.31596" lon="5.89096">
        <ele>585</ele>
        <time>2019-04-09T13:38:25Z</time>
      </trkpt>
      <trkpt lat="44.31592" lon="5.89095">
        <ele>585</ele>
        <time>2019-04-09T13:38:26Z</time>
      </trkpt>
      <trkpt lat="44.31588" lon="5.89095">
        <ele>585</ele>
        <time>2019-04-09T13:38:27Z</time>
      </trkpt>
      <trkpt lat="44.31584" lon="5.89095">
        <ele>585</ele>
        <time>2019-04-09T13:38:28Z</time>
      </trkpt>
      <trkpt lat="44.3158" lon="5.89095">
        <ele>585</ele>
        <time>2019-04-09T13:38:29Z</time>
      </trkpt>
      <trkpt lat="44.31575" lon="5.89095">
        <ele>586</ele>
        <time>2019-04-09T13:38:30Z</time>
      </trkpt>
      <trkpt lat="44.31571" lon="5.89094">
        <ele>586</ele>
        <time>2019-04-09T13:38:31Z</time>
      </trkpt>
      <trkpt lat="44.31567" lon="5.89094">
        <ele>586</ele>
        <time>2019-04-09T13:38:32Z</time>
      </trkpt>
      <trkpt lat="44.31563" lon="5.89094">
        <ele>586</ele>
        <time>2019-04-09T13:38:33Z</time>
      </trkpt>
      <trkpt lat="44.31559" lon="5.89094">
        <ele>586</ele>
        <time>2019-04-09T13:38:34Z</time>
      </trkpt>
      <trkpt lat="44.31556" lon="5.89094">
        <ele>586</ele>
        <time>2019-04-09T13:38:35Z</time>
      </trkpt>
      <trkpt lat="44.31552" lon="5.89094">
        <ele>586</ele>
        <time>2019-04-09T13:38:36Z</time>
      </trkpt>
      <trkpt lat="44.31548" lon="5.89095">
        <ele>587</ele>
        <time>2019-04-09T13:38:37Z</time>
      </trkpt>
      <trkpt lat="44.31545" lon="5.89095">
        <ele>587</ele>
        <time>2019-04-09T13:38:38Z</time>
      </trkpt>
      <trkpt lat="44.31541" lon="5.89095">
        <ele>587</ele>
        <time>2019-04-09T13:38:39Z</time>
      </trkpt>
      <trkpt lat="44.31538" lon="5.89095">
        <ele>588</ele>
        <time>2019-04-09T13:38:40Z</time>
      </trkpt>
      <trkpt lat="44.31535" lon="5.89096">
        <ele>588</ele>
        <time>2019-04-09T13:38:41Z</time>
      </trkpt>
      <trkpt lat="44.31532" lon="5.89095">
        <ele>588</ele>
        <time>2019-04-09T13:38:42Z</time>
      </trkpt>
      <trkpt lat="44.31528" lon="5.89095">
        <ele>588</ele>
        <time>2019-04-09T13:38:43Z</time>
      </trkpt>
      <trkpt lat="44.31525" lon="5.89095">
        <ele>589</ele>
        <time>2019-04-09T13:38:44Z</time>
      </trkpt>
      <trkpt lat="44.31522" lon="5.89095">
        <ele>589</ele>
        <time>2019-04-09T13:38:45Z</time>
      </trkpt>
      <trkpt lat="44.31519" lon="5.89095">
        <ele>589</ele>
        <time>2019-04-09T13:38:46Z</time>
      </trkpt>
      <trkpt lat="44.31516" lon="5.89094">
        <ele>589</ele>
        <time>2019-04-09T13:38:47Z</time>
      </trkpt>
      <trkpt lat="44.31514" lon="5.89092">
        <ele>589</ele>
        <time>2019-04-09T13:38:48Z</time>
      </trkpt>
      <trkpt lat="44.31513" lon="5.89087">
        <ele>589</ele>
        <time>2019-04-09T13:38:49Z</time>
      </trkpt>
      <trkpt lat="44.31512" lon="5.89082">
        <ele>589</ele>
        <time>2019-04-09T13:38:50Z</time>
      </trkpt>
      <trkpt lat="44.31512" lon="5.89078">
        <ele>589</ele>
        <time>2019-04-09T13:38:51Z</time>
      </trkpt>
      <trkpt lat="44.31513" lon="5.89073">
        <ele>589</ele>
        <time>2019-04-09T13:38:52Z</time>
      </trkpt>
      <trkpt lat="44.31514" lon="5.89068">
        <ele>589</ele>
        <time>2019-04-09T13:38:53Z</time>
      </trkpt>
      <trkpt lat="44.31516" lon="5.89063">
        <ele>589</ele>
        <time>2019-04-09T13:38:54Z</time>
      </trkpt>
      <trkpt lat="44.31517" lon="5.89058">
        <ele>589</ele>
        <time>2019-04-09T13:38:55Z</time>
      </trkpt>
      <trkpt lat="44.31519" lon="5.89053">
        <ele>589</ele>
        <time>2019-04-09T13:38:56Z</time>
      </trkpt>
      <trkpt lat="44.31521" lon="5.89048">
        <ele>589</ele>
        <time>2019-04-09T13:38:57Z</time>
      </trkpt>
      <trkpt lat="44.31523" lon="5.89043">
        <ele>589</ele>
        <time>2019-04-09T13:38:58Z</time>
      </trkpt>
      <trkpt lat="44.31524" lon="5.89037">
        <ele>589</ele>
        <time>2019-04-09T13:38:59Z</time>
      </trkpt>
      <trkpt lat="44.31526" lon="5.89032">
        <ele>589</ele>
        <time>2019-04-09T13:39:00Z</time>
      </trkpt>
      <trkpt lat="44.31528" lon="5.89026">
        <ele>589</ele>
        <time>2019-04-09T13:39:01Z</time>
      </trkpt>
      <trkpt lat="44.3153" lon="5.89021">
        <ele>589</ele>
        <time>2019-04-09T13:39:02Z</time>
      </trkpt>
      <trkpt lat="44.31531" lon="5.89015">
        <ele>589</ele>
        <time>2019-04-09T13:39:03Z</time>
      </trkpt>
      <trkpt lat="44.31533" lon="5.8901">
        <ele>589</ele>
        <time>2019-04-09T13:39:04Z</time>
      </trkpt>
      <trkpt lat="44.31534" lon="5.89005">
        <ele>589</ele>
        <time>2019-04-09T13:39:05Z</time>
      </trkpt>
      <trkpt lat="44.31536" lon="5.89">
        <ele>589</ele>
        <time>2019-04-09T13:39:06Z</time>
      </trkpt>
      <trkpt lat="44.31538" lon="5.88995">
        <ele>589</ele>
        <time>2019-04-09T13:39:07Z</time>
      </trkpt>
      <trkpt lat="44.31539" lon="5.8899">
        <ele>589</ele>
        <time>2019-04-09T13:39:08Z</time>
      </trkpt>
      <trkpt lat="44.31541" lon="5.88986">
        <ele>589</ele>
        <time>2019-04-09T13:39:09Z</time>
      </trkpt>
      <trkpt lat="44.31543" lon="5.88982">
        <ele>589</ele>
        <time>2019-04-09T13:39:10Z</time>
      </trkpt>
      <trkpt lat="44.31544" lon="5.88977">
        <ele>589</ele>
        <time>2019-04-09T13:39:11Z</time>
      </trkpt>
      <trkpt lat="44.31546" lon="5.88973">
        <ele>589</ele>
        <time>2019-04-09T13:39:12Z</time>
      </trkpt>
      <trkpt lat="44.31548" lon="5.88969">
        <ele>589</ele>
        <time>2019-04-09T13:39:13Z</time>
      </trkpt>
      <trkpt lat="44.31549" lon="5.88965">
        <ele>589</ele>
        <time>2019-04-09T13:39:14Z</time>
      </trkpt>
      <trkpt lat="44.3155" lon="5.88961">
        <ele>590</ele>
        <time>2019-04-09T13:39:15Z</time>
      </trkpt>
      <trkpt lat="44.31552" lon="5.88956">
        <ele>590</ele>
        <time>2019-04-09T13:39:16Z</time>
      </trkpt>
      <trkpt lat="44.31553" lon="5.88952">
        <ele>590</ele>
        <time>2019-04-09T13:39:17Z</time>
      </trkpt>
      <trkpt lat="44.31555" lon="5.88948">
        <ele>590</ele>
        <time>2019-04-09T13:39:18Z</time>
      </trkpt>
      <trkpt lat="44.31556" lon="5.88945">
        <ele>591</ele>
        <time>2019-04-09T13:39:19Z</time>
      </trkpt>
      <trkpt lat="44.31558" lon="5.88941">
        <ele>591</ele>
        <time>2019-04-09T13:39:20Z</time>
      </trkpt>
      <trkpt lat="44.31559" lon="5.88937">
        <ele>591</ele>
        <time>2019-04-09T13:39:21Z</time>
      </trkpt>
      <trkpt lat="44.31561" lon="5.88933">
        <ele>591</ele>
        <time>2019-04-09T13:39:22Z</time>
      </trkpt>
      <trkpt lat="44.31562" lon="5.8893">
        <ele>592</ele>
        <time>2019-04-09T13:39:23Z</time>
      </trkpt>
      <trkpt lat="44.31564" lon="5.88926">
        <ele>592</ele>
        <time>2019-04-09T13:39:24Z</time>
      </trkpt>
      <trkpt lat="44.31565" lon="5.88922">
        <ele>592</ele>
        <time>2019-04-09T13:39:25Z</time>
      </trkpt>
      <trkpt lat="44.31567" lon="5.88918">
        <ele>592</ele>
        <time>2019-04-09T13:39:26Z</time>
      </trkpt>
      <trkpt lat="44.31568" lon="5.88914">
        <ele>592</ele>
        <time>2019-04-09T13:39:27Z</time>
      </trkpt>
      <trkpt lat="44.3157" lon="5.8891">
        <ele>593</ele>
        <time>2019-04-09T13:39:28Z</time>
      </trkpt>
      <trkpt lat="44.31571" lon="5.88906">
        <ele>593</ele>
        <time>2019-04-09T13:39:29Z</time>
      </trkpt>
      <trkpt lat="44.31572" lon="5.88902">
        <ele>593</ele>
        <time>2019-04-09T13:39:30Z</time>
      </trkpt>
      <trkpt lat="44.31574" lon="5.88898">
        <ele>593</ele>
        <time>2019-04-09T13:39:31Z</time>
      </trkpt>
      <trkpt lat="44.31575" lon="5.88894">
        <ele>594</ele>
        <time>2019-04-09T13:39:32Z</time>
      </trkpt>
      <trkpt lat="44.31577" lon="5.8889">
        <ele>594</ele>
        <time>2019-04-09T13:39:33Z</time>
      </trkpt>
      <trkpt lat="44.31578" lon="5.88886">
        <ele>594</ele>
        <time>2019-04-09T13:39:34Z</time>
      </trkpt>
      <trkpt lat="44.31579" lon="5.88882">
        <ele>594</ele>
        <time>2019-04-09T13:39:35Z</time>
      </trkpt>
      <trkpt lat="44.31581" lon="5.88878">
        <ele>594</ele>
        <time>2019-04-09T13:39:36Z</time>
      </trkpt>
      <trkpt lat="44.31582" lon="5.88874">
        <ele>595</ele>
        <time>2019-04-09T13:39:37Z</time>
      </trkpt>
      <trkpt lat="44.31583" lon="5.8887">
        <ele>595</ele>
        <time>2019-04-09T13:39:38Z</time>
      </trkpt>
      <trkpt lat="44.31585" lon="5.88866">
        <ele>595</ele>
        <time>2019-04-09T13:39:39Z</time>
      </trkpt>
      <trkpt lat="44.31586" lon="5.88862">
        <ele>595</ele>
        <time>2019-04-09T13:39:40Z</time>
      </trkpt>
      <trkpt lat="44.31587" lon="5.88858">
        <ele>595</ele>
        <time>2019-04-09T13:39:41Z</time>
      </trkpt>
      <trkpt lat="44.31589" lon="5.88854">
        <ele>596</ele>
        <time>2019-04-09T13:39:42Z</time>
      </trkpt>
      <trkpt lat="44.3159" lon="5.8885">
        <ele>596</ele>
        <time>2019-04-09T13:39:43Z</time>
      </trkpt>
      <trkpt lat="44.31592" lon="5.88846">
        <ele>596</ele>
        <time>2019-04-09T13:39:44Z</time>
      </trkpt>
      <trkpt lat="44.31593" lon="5.88842">
        <ele>596</ele>
        <time>2019-04-09T13:39:45Z</time>
      </trkpt>
      <trkpt lat="44.31595" lon="5.88838">
        <ele>596</ele>
        <time>2019-04-09T13:39:46Z</time>
      </trkpt>
      <trkpt lat="44.31596" lon="5.88834">
        <ele>596</ele>
        <time>2019-04-09T13:39:47Z</time>
      </trkpt>
      <trkpt lat="44.31598" lon="5.8883">
        <ele>596</ele>
        <time>2019-04-09T13:39:48Z</time>
      </trkpt>
      <trkpt lat="44.31599" lon="5.88827">
        <ele>597</ele>
        <time>2019-04-09T13:39:49Z</time>
      </trkpt>
      <trkpt lat="44.31601" lon="5.88823">
        <ele>597</ele>
        <time>2019-04-09T13:39:50Z</time>
      </trkpt>
      <trkpt lat="44.31602" lon="5.8882">
        <ele>597</ele>
        <time>2019-04-09T13:39:51Z</time>
      </trkpt>
      <trkpt lat="44.31603" lon="5.88816">
        <ele>597</ele>
        <time>2019-04-09T13:39:52Z</time>
      </trkpt>
      <trkpt lat="44.31605" lon="5.88812">
        <ele>598</ele>
        <time>2019-04-09T13:39:53Z</time>
      </trkpt>
      <trkpt lat="44.31607" lon="5.88809">
        <ele>598</ele>
        <time>2019-04-09T13:39:54Z</time>
      </trkpt>
      <trkpt lat="44.31608" lon="5.88805">
        <ele>598</ele>
        <time>2019-04-09T13:39:55Z</time>
      </trkpt>
      <trkpt lat="44.3161" lon="5.88801">
        <ele>598</ele>
        <time>2019-04-09T13:39:56Z</time>
      </trkpt>
      <trkpt lat="44.31612" lon="5.88797">
        <ele>599</ele>
        <time>2019-04-09T13:39:57Z</time>
      </trkpt>
      <trkpt lat="44.31613" lon="5.88793">
        <ele>599</ele>
        <time>2019-04-09T13:39:58Z</time>
      </trkpt>
      <trkpt lat="44.31615" lon="5.88789">
        <ele>599</ele>
        <time>2019-04-09T13:39:59Z</time>
      </trkpt>
      <trkpt lat="44.31616" lon="5.88786">
        <ele>599</ele>
        <time>2019-04-09T13:40:00Z</time>
      </trkpt>
      <trkpt lat="44.31617" lon="5.88782">
        <ele>599</ele>
        <time>2019-04-09T13:40:01Z</time>
      </trkpt>
      <trkpt lat="44.31618" lon="5.88778">
        <ele>600</ele>
        <time>2019-04-09T13:40:02Z</time>
      </trkpt>
      <trkpt lat="44.3162" lon="5.88774">
        <ele>600</ele>
        <time>2019-04-09T13:40:03Z</time>
      </trkpt>
      <trkpt lat="44.31621" lon="5.8877">
        <ele>600</ele>
        <time>2019-04-09T13:40:04Z</time>
      </trkpt>
      <trkpt lat="44.31623" lon="5.88766">
        <ele>600</ele>
        <time>2019-04-09T13:40:05Z</time>
      </trkpt>
      <trkpt lat="44.31624" lon="5.88762">
        <ele>600</ele>
        <time>2019-04-09T13:40:06Z</time>
      </trkpt>
      <trkpt lat="44.31626" lon="5.88758">
        <ele>600</ele>
        <time>2019-04-09T13:40:07Z</time>
      </trkpt>
      <trkpt lat="44.31627" lon="5.88754">
        <ele>601</ele>
        <time>2019-04-09T13:40:08Z</time>
      </trkpt>
      <trkpt lat="44.31628" lon="5.88749">
        <ele>601</ele>
        <time>2019-04-09T13:40:09Z</time>
      </trkpt>
      <trkpt lat="44.3163" lon="5.88745">
        <ele>601</ele>
        <time>2019-04-09T13:40:10Z</time>
      </trkpt>
      <trkpt lat="44.31631" lon="5.8874">
        <ele>601</ele>
        <time>2019-04-09T13:40:11Z</time>
      </trkpt>
      <trkpt lat="44.31632" lon="5.88736">
        <ele>601</ele>
        <time>2019-04-09T13:40:12Z</time>
      </trkpt>
      <trkpt lat="44.31634" lon="5.88731">
        <ele>601</ele>
        <time>2019-04-09T13:40:13Z</time>
      </trkpt>
      <trkpt lat="44.31635" lon="5.88727">
        <ele>601</ele>
        <time>2019-04-09T13:40:14Z</time>
      </trkpt>
      <trkpt lat="44.31636" lon="5.88722">
        <ele>601</ele>
        <time>2019-04-09T13:40:15Z</time>
      </trkpt>
      <trkpt lat="44.31638" lon="5.88717">
        <ele>601</ele>
        <time>2019-04-09T13:40:16Z</time>
      </trkpt>
      <trkpt lat="44.31639" lon="5.88712">
        <ele>601</ele>
        <time>2019-04-09T13:40:17Z</time>
      </trkpt>
      <trkpt lat="44.3164" lon="5.88707">
        <ele>601</ele>
        <time>2019-04-09T13:40:18Z</time>
      </trkpt>
      <trkpt lat="44.31642" lon="5.88703">
        <ele>601</ele>
        <time>2019-04-09T13:40:19Z</time>
      </trkpt>
      <trkpt lat="44.31643" lon="5.88698">
        <ele>601</ele>
        <time>2019-04-09T13:40:20Z</time>
      </trkpt>
      <trkpt lat="44.31644" lon="5.88693">
        <ele>601</ele>
        <time>2019-04-09T13:40:21Z</time>
      </trkpt>
      <trkpt lat="44.31646" lon="5.88689">
        <ele>601</ele>
        <time>2019-04-09T13:40:22Z</time>
      </trkpt>
      <trkpt lat="44.31647" lon="5.88684">
        <ele>601</ele>
        <time>2019-04-09T13:40:23Z</time>
      </trkpt>
      <trkpt lat="44.31648" lon="5.88679">
        <ele>601</ele>
        <time>2019-04-09T13:40:24Z</time>
      </trkpt>
      <trkpt lat="44.3165" lon="5.88674">
        <ele>601</ele>
        <time>2019-04-09T13:40:25Z</time>
      </trkpt>
      <trkpt lat="44.31651" lon="5.88669">
        <ele>601</ele>
        <time>2019-04-09T13:40:26Z</time>
      </trkpt>
      <trkpt lat="44.31652" lon="5.88665">
        <ele>601</ele>
        <time>2019-04-09T13:40:27Z</time>
      </trkpt>
      <trkpt lat="44.31653" lon="5.8866">
        <ele>601</ele>
        <time>2019-04-09T13:40:28Z</time>
      </trkpt>
      <trkpt lat="44.31654" lon="5.88656">
        <ele>601</ele>
        <time>2019-04-09T13:40:29Z</time>
      </trkpt>
      <trkpt lat="44.31655" lon="5.88652">
        <ele>601</ele>
        <time>2019-04-09T13:40:30Z</time>
      </trkpt>
      <trkpt lat="44.31656" lon="5.88648">
        <ele>602</ele>
        <time>2019-04-09T13:40:31Z</time>
      </trkpt>
      <trkpt lat="44.31657" lon="5.88644">
        <ele>602</ele>
        <time>2019-04-09T13:40:32Z</time>
      </trkpt>
      <trkpt lat="44.31657" lon="5.8864">
        <ele>602</ele>
        <time>2019-04-09T13:40:33Z</time>
      </trkpt>
      <trkpt lat="44.31658" lon="5.88636">
        <ele>602</ele>
        <time>2019-04-09T13:40:34Z</time>
      </trkpt>
      <trkpt lat="44.31659" lon="5.88632">
        <ele>602</ele>
        <time>2019-04-09T13:40:35Z</time>
      </trkpt>
      <trkpt lat="44.31661" lon="5.88629">
        <ele>602</ele>
        <time>2019-04-09T13:40:36Z</time>
      </trkpt>
      <trkpt lat="44.31662" lon="5.88625">
        <ele>602</ele>
        <time>2019-04-09T13:40:37Z</time>
      </trkpt>
      <trkpt lat="44.31665" lon="5.88623">
        <ele>602</ele>
        <time>2019-04-09T13:40:38Z</time>
      </trkpt>
      <trkpt lat="44.31667" lon="5.8862">
        <ele>602</ele>
        <time>2019-04-09T13:40:39Z</time>
      </trkpt>
      <trkpt lat="44.31669" lon="5.88617">
        <ele>602</ele>
        <time>2019-04-09T13:40:40Z</time>
      </trkpt>
      <trkpt lat="44.31672" lon="5.88616">
        <ele>602</ele>
        <time>2019-04-09T13:40:41Z</time>
      </trkpt>
      <trkpt lat="44.31674" lon="5.88615">
        <ele>602</ele>
        <time>2019-04-09T13:40:42Z</time>
      </trkpt>
      <trkpt lat="44.31677" lon="5.88614">
        <ele>602</ele>
        <time>2019-04-09T13:40:43Z</time>
      </trkpt>
      <trkpt lat="44.3168" lon="5.88614">
        <ele>603</ele>
        <time>2019-04-09T13:40:44Z</time>
      </trkpt>
      <trkpt lat="44.31682" lon="5.88614">
        <ele>603</ele>
        <time>2019-04-09T13:40:45Z</time>
      </trkpt>
      <trkpt lat="44.31685" lon="5.88615">
        <ele>603</ele>
        <time>2019-04-09T13:40:46Z</time>
      </trkpt>
      <trkpt lat="44.31689" lon="5.88615">
        <ele>603</ele>
        <time>2019-04-09T13:40:47Z</time>
      </trkpt>
      <trkpt lat="44.31691" lon="5.88616">
        <ele>604</ele>
        <time>2019-04-09T13:40:48Z</time>
      </trkpt>
      <trkpt lat="44.31694" lon="5.88617">
        <ele>604</ele>
        <time>2019-04-09T13:40:49Z</time>
      </trkpt>
      <trkpt lat="44.31697" lon="5.88618">
        <ele>604</ele>
        <time>2019-04-09T13:40:50Z</time>
      </trkpt>
      <trkpt lat="44.317" lon="5.8862">
        <ele>605</ele>
        <time>2019-04-09T13:40:51Z</time>
      </trkpt>
      <trkpt lat="44.31702" lon="5.88622">
        <ele>605</ele>
        <time>2019-04-09T13:40:52Z</time>
      </trkpt>
      <trkpt lat="44.31705" lon="5.88622">
        <ele>605</ele>
        <time>2019-04-09T13:40:53Z</time>
      </trkpt>
      <trkpt lat="44.31707" lon="5.88623">
        <ele>605</ele>
        <time>2019-04-09T13:40:54Z</time>
      </trkpt>
      <trkpt lat="44.3171" lon="5.88624">
        <ele>606</ele>
        <time>2019-04-09T13:40:55Z</time>
      </trkpt>
      <trkpt lat="44.31713" lon="5.88625">
        <ele>606</ele>
        <time>2019-04-09T13:40:56Z</time>
      </trkpt>
      <trkpt lat="44.31716" lon="5.88626">
        <ele>606</ele>
        <time>2019-04-09T13:40:57Z</time>
      </trkpt>
      <trkpt lat="44.31718" lon="5.88627">
        <ele>606</ele>
        <time>2019-04-09T13:40:58Z</time>
      </trkpt>
      <trkpt lat="44.31721" lon="5.88628">
        <ele>606</ele>
        <time>2019-04-09T13:40:59Z</time>
      </trkpt>
      <trkpt lat="44.31724" lon="5.88629">
        <ele>606</ele>
        <time>2019-04-09T13:41:00Z</time>
      </trkpt>
      <trkpt lat="44.31727" lon="5.8863">
        <ele>607</ele>
        <time>2019-04-09T13:41:01Z</time>
      </trkpt>
      <trkpt lat="44.3173" lon="5.88631">
        <ele>607</ele>
        <time>2019-04-09T13:41:02Z</time>
      </trkpt>
      <trkpt lat="44.31733" lon="5.88631">
        <ele>607</ele>
        <time>2019-04-09T13:41:03Z</time>
      </trkpt>
      <trkpt lat="44.31736" lon="5.88631">
        <ele>608</ele>
        <time>2019-04-09T13:41:04Z</time>
      </trkpt>
      <trkpt lat="44.31739" lon="5.88631">
        <ele>608</ele>
        <time>2019-04-09T13:41:05Z</time>
      </trkpt>
      <trkpt lat="44.31742" lon="5.88631">
        <ele>608</ele>
        <time>2019-04-09T13:41:06Z</time>
      </trkpt>
      <trkpt lat="44.31745" lon="5.88631">
        <ele>609</ele>
        <time>2019-04-09T13:41:07Z</time>
      </trkpt>
      <trkpt lat="44.31748" lon="5.88631">
        <ele>609</ele>
        <time>2019-04-09T13:41:08Z</time>
      </trkpt>
      <trkpt lat="44.31751" lon="5.8863">
        <ele>610</ele>
        <time>2019-04-09T13:41:09Z</time>
      </trkpt>
      <trkpt lat="44.31754" lon="5.8863">
        <ele>610</ele>
        <time>2019-04-09T13:41:10Z</time>
      </trkpt>
      <trkpt lat="44.31757" lon="5.8863">
        <ele>610</ele>
        <time>2019-04-09T13:41:11Z</time>
      </trkpt>
      <trkpt lat="44.3176" lon="5.88629">
        <ele>611</ele>
        <time>2019-04-09T13:41:12Z</time>
      </trkpt>
      <trkpt lat="44.31763" lon="5.88628">
        <ele>611</ele>
        <time>2019-04-09T13:41:13Z</time>
      </trkpt>
      <trkpt lat="44.31766" lon="5.88627">
        <ele>611</ele>
        <time>2019-04-09T13:41:14Z</time>
      </trkpt>
      <trkpt lat="44.31769" lon="5.88626">
        <ele>611</ele>
        <time>2019-04-09T13:41:15Z</time>
      </trkpt>
      <trkpt lat="44.31772" lon="5.88625">
        <ele>612</ele>
        <time>2019-04-09T13:41:16Z</time>
      </trkpt>
      <trkpt lat="44.31775" lon="5.88624">
        <ele>612</ele>
        <time>2019-04-09T13:41:17Z</time>
      </trkpt>
      <trkpt lat="44.31778" lon="5.88622">
        <ele>612</ele>
        <time>2019-04-09T13:41:18Z</time>
      </trkpt>
      <trkpt lat="44.31781" lon="5.88621">
        <ele>613</ele>
        <time>2019-04-09T13:41:19Z</time>
      </trkpt>
      <trkpt lat="44.31784" lon="5.8862">
        <ele>613</ele>
        <time>2019-04-09T13:41:20Z</time>
      </trkpt>
      <trkpt lat="44.31787" lon="5.88619">
        <ele>613</ele>
        <time>2019-04-09T13:41:21Z</time>
      </trkpt>
      <trkpt lat="44.3179" lon="5.88618">
        <ele>614</ele>
        <time>2019-04-09T13:41:22Z</time>
      </trkpt>
      <trkpt lat="44.31793" lon="5.88616">
        <ele>614</ele>
        <time>2019-04-09T13:41:23Z</time>
      </trkpt>
      <trkpt lat="44.31796" lon="5.88615">
        <ele>614</ele>
        <time>2019-04-09T13:41:24Z</time>
      </trkpt>
      <trkpt lat="44.31799" lon="5.88614">
        <ele>614</ele>
        <time>2019-04-09T13:41:25Z</time>
      </trkpt>
      <trkpt lat="44.31802" lon="5.88613">
        <ele>615</ele>
        <time>2019-04-09T13:41:26Z</time>
      </trkpt>
      <trkpt lat="44.31805" lon="5.88612">
        <ele>615</ele>
        <time>2019-04-09T13:41:27Z</time>
      </trkpt>
      <trkpt lat="44.31808" lon="5.8861">
        <ele>615</ele>
        <time>2019-04-09T13:41:28Z</time>
      </trkpt>
      <trkpt lat="44.31811" lon="5.88609">
        <ele>616</ele>
        <time>2019-04-09T13:41:29Z</time>
      </trkpt>
      <trkpt lat="44.31814" lon="5.88608">
        <ele>616</ele>
        <time>2019-04-09T13:41:30Z</time>
      </trkpt>
      <trkpt lat="44.31817" lon="5.88607">
        <ele>616</ele>
        <time>2019-04-09T13:41:31Z</time>
      </trkpt>
      <trkpt lat="44.3182" lon="5.88606">
        <ele>617</ele>
        <time>2019-04-09T13:41:32Z</time>
      </trkpt>
      <trkpt lat="44.31823" lon="5.88605">
        <ele>617</ele>
        <time>2019-04-09T13:41:33Z</time>
      </trkpt>
      <trkpt lat="44.31826" lon="5.88604">
        <ele>617</ele>
        <time>2019-04-09T13:41:34Z</time>
      </trkpt>
      <trkpt lat="44.31829" lon="5.88604">
        <ele>617</ele>
        <time>2019-04-09T13:41:35Z</time>
      </trkpt>
      <trkpt lat="44.31833" lon="5.88603">
        <ele>618</ele>
        <time>2019-04-09T13:41:36Z</time>
      </trkpt>
      <trkpt lat="44.31836" lon="5.88602">
        <ele>618</ele>
        <time>2019-04-09T13:41:37Z</time>
      </trkpt>
      <trkpt lat="44.31839" lon="5.886">
        <ele>618</ele>
        <time>2019-04-09T13:41:38Z</time>
      </trkpt>
      <trkpt lat="44.31842" lon="5.88599">
        <ele>618</ele>
        <time>2019-04-09T13:41:39Z</time>
      </trkpt>
      <trkpt lat="44.31845" lon="5.88597">
        <ele>618</ele>
        <time>2019-04-09T13:41:40Z</time>
      </trkpt>
      <trkpt lat="44.31848" lon="5.88595">
        <ele>618</ele>
        <time>2019-04-09T13:41:41Z</time>
      </trkpt>
      <trkpt lat="44.31851" lon="5.88593">
        <ele>618</ele>
        <time>2019-04-09T13:41:42Z</time>
      </trkpt>
      <trkpt lat="44.31854" lon="5.88591">
        <ele>618</ele>
        <time>2019-04-09T13:41:43Z</time>
      </trkpt>
      <trkpt lat="44.31858" lon="5.88589">
        <ele>618</ele>
        <time>2019-04-09T13:41:44Z</time>
      </trkpt>
      <trkpt lat="44.31861" lon="5.88587">
        <ele>618</ele>
        <time>2019-04-09T13:41:45Z</time>
      </trkpt>
      <trkpt lat="44.31864" lon="5.88585">
        <ele>618</ele>
        <time>2019-04-09T13:41:46Z</time>
      </trkpt>
      <trkpt lat="44.31867" lon="5.88583">
        <ele>618</ele>
        <time>2019-04-09T13:41:47Z</time>
      </trkpt>
      <trkpt lat="44.3187" lon="5.8858">
        <ele>618</ele>
        <time>2019-04-09T13:41:48Z</time>
      </trkpt>
      <trkpt lat="44.31873" lon="5.88578">
        <ele>618</ele>
        <time>2019-04-09T13:41:49Z</time>
      </trkpt>
      <trkpt lat="44.31876" lon="5.88575">
        <ele>618</ele>
        <time>2019-04-09T13:41:50Z</time>
      </trkpt>
      <trkpt lat="44.3188" lon="5.88572">
        <ele>619</ele>
        <time>2019-04-09T13:41:51Z</time>
      </trkpt>
      <trkpt lat="44.31883" lon="5.8857">
        <ele>619</ele>
        <time>2019-04-09T13:41:52Z</time>
      </trkpt>
      <trkpt lat="44.31886" lon="5.88568">
        <ele>619</ele>
        <time>2019-04-09T13:41:53Z</time>
      </trkpt>
      <trkpt lat="44.31889" lon="5.88566">
        <ele>619</ele>
        <time>2019-04-09T13:41:54Z</time>
      </trkpt>
      <trkpt lat="44.31892" lon="5.88564">
        <ele>620</ele>
        <time>2019-04-09T13:41:55Z</time>
      </trkpt>
      <trkpt lat="44.31896" lon="5.88563">
        <ele>620</ele>
        <time>2019-04-09T13:41:56Z</time>
      </trkpt>
      <trkpt lat="44.31899" lon="5.88561">
        <ele>620</ele>
        <time>2019-04-09T13:41:57Z</time>
      </trkpt>
      <trkpt lat="44.31903" lon="5.8856">
        <ele>620</ele>
        <time>2019-04-09T13:41:58Z</time>
      </trkpt>
      <trkpt lat="44.31906" lon="5.88558">
        <ele>620</ele>
        <time>2019-04-09T13:41:59Z</time>
      </trkpt>
      <trkpt lat="44.31909" lon="5.88557">
        <ele>620</ele>
        <time>2019-04-09T13:42:00Z</time>
      </trkpt>
      <trkpt lat="44.31913" lon="5.88556">
        <ele>621</ele>
        <time>2019-04-09T13:42:01Z</time>
      </trkpt>
      <trkpt lat="44.31916" lon="5.88555">
        <ele>621</ele>
        <time>2019-04-09T13:42:02Z</time>
      </trkpt>
      <trkpt lat="44.3192" lon="5.88554">
        <ele>621</ele>
        <time>2019-04-09T13:42:03Z</time>
      </trkpt>
      <trkpt lat="44.31924" lon="5.88553">
        <ele>622</ele>
        <time>2019-04-09T13:42:04Z</time>
      </trkpt>
      <trkpt lat="44.31927" lon="5.88552">
        <ele>622</ele>
        <time>2019-04-09T13:42:05Z</time>
      </trkpt>
      <trkpt lat="44.31931" lon="5.88552">
        <ele>622</ele>
        <time>2019-04-09T13:42:06Z</time>
      </trkpt>
      <trkpt lat="44.31935" lon="5.88551">
        <ele>622</ele>
        <time>2019-04-09T13:42:07Z</time>
      </trkpt>
      <trkpt lat="44.31939" lon="5.88551">
        <ele>623</ele>
        <time>2019-04-09T13:42:08Z</time>
      </trkpt>
      <trkpt lat="44.31942" lon="5.8855">
        <ele>623</ele>
        <time>2019-04-09T13:42:09Z</time>
      </trkpt>
      <trkpt lat="44.31946" lon="5.8855">
        <ele>623</ele>
        <time>2019-04-09T13:42:10Z</time>
      </trkpt>
      <trkpt lat="44.3195" lon="5.88549">
        <ele>623</ele>
        <time>2019-04-09T13:42:11Z</time>
      </trkpt>
      <trkpt lat="44.31954" lon="5.88549">
        <ele>623</ele>
        <time>2019-04-09T13:42:12Z</time>
      </trkpt>
      <trkpt lat="44.31958" lon="5.88549">
        <ele>623</ele>
        <time>2019-04-09T13:42:13Z</time>
      </trkpt>
      <trkpt lat="44.31961" lon="5.88549">
        <ele>624</ele>
        <time>2019-04-09T13:42:14Z</time>
      </trkpt>
      <trkpt lat="44.31965" lon="5.88549">
        <ele>624</ele>
        <time>2019-04-09T13:42:15Z</time>
      </trkpt>
      <trkpt lat="44.31969" lon="5.88549">
        <ele>624</ele>
        <time>2019-04-09T13:42:16Z</time>
      </trkpt>
      <trkpt lat="44.31973" lon="5.8855">
        <ele>624</ele>
        <time>2019-04-09T13:42:17Z</time>
      </trkpt>
      <trkpt lat="44.31977" lon="5.88551">
        <ele>624</ele>
        <time>2019-04-09T13:42:18Z</time>
      </trkpt>
      <trkpt lat="44.31981" lon="5.88552">
        <ele>625</ele>
        <time>2019-04-09T13:42:19Z</time>
      </trkpt>
      <trkpt lat="44.31985" lon="5.88553">
        <ele>625</ele>
        <time>2019-04-09T13:42:20Z</time>
      </trkpt>
      <trkpt lat="44.31988" lon="5.88554">
        <ele>625</ele>
        <time>2019-04-09T13:42:21Z</time>
      </trkpt>
      <trkpt lat="44.31992" lon="5.88555">
        <ele>625</ele>
        <time>2019-04-09T13:42:22Z</time>
      </trkpt>
      <trkpt lat="44.31995" lon="5.88556">
        <ele>625</ele>
        <time>2019-04-09T13:42:23Z</time>
      </trkpt>
      <trkpt lat="44.31999" lon="5.88557">
        <ele>625</ele>
        <time>2019-04-09T13:42:24Z</time>
      </trkpt>
      <trkpt lat="44.32003" lon="5.88559">
        <ele>625</ele>
        <time>2019-04-09T13:42:25Z</time>
      </trkpt>
      <trkpt lat="44.32006" lon="5.8856">
        <ele>625</ele>
        <time>2019-04-09T13:42:26Z</time>
      </trkpt>
      <trkpt lat="44.3201" lon="5.88561">
        <ele>625</ele>
        <time>2019-04-09T13:42:27Z</time>
      </trkpt>
      <trkpt lat="44.32013" lon="5.88562">
        <ele>625</ele>
        <time>2019-04-09T13:42:28Z</time>
      </trkpt>
      <trkpt lat="44.32017" lon="5.88562">
        <ele>626</ele>
        <time>2019-04-09T13:42:29Z</time>
      </trkpt>
      <trkpt lat="44.32021" lon="5.88563">
        <ele>626</ele>
        <time>2019-04-09T13:42:30Z</time>
      </trkpt>
      <trkpt lat="44.32024" lon="5.88562">
        <ele>626</ele>
        <time>2019-04-09T13:42:31Z</time>
      </trkpt>
      <trkpt lat="44.32028" lon="5.88562">
        <ele>626</ele>
        <time>2019-04-09T13:42:32Z</time>
      </trkpt>
      <trkpt lat="44.32032" lon="5.88561">
        <ele>626</ele>
        <time>2019-04-09T13:42:33Z</time>
      </trkpt>
      <trkpt lat="44.32035" lon="5.8856">
        <ele>626</ele>
        <time>2019-04-09T13:42:34Z</time>
      </trkpt>
      <trkpt lat="44.32039" lon="5.88558">
        <ele>626</ele>
        <time>2019-04-09T13:42:35Z</time>
      </trkpt>
      <trkpt lat="44.32042" lon="5.88557">
        <ele>626</ele>
        <time>2019-04-09T13:42:36Z</time>
      </trkpt>
      <trkpt lat="44.32046" lon="5.88555">
        <ele>627</ele>
        <time>2019-04-09T13:42:37Z</time>
      </trkpt>
      <trkpt lat="44.3205" lon="5.88554">
        <ele>627</ele>
        <time>2019-04-09T13:42:38Z</time>
      </trkpt>
      <trkpt lat="44.32054" lon="5.88552">
        <ele>627</ele>
        <time>2019-04-09T13:42:39Z</time>
      </trkpt>
      <trkpt lat="44.32057" lon="5.8855">
        <ele>627</ele>
        <time>2019-04-09T13:42:40Z</time>
      </trkpt>
      <trkpt lat="44.32061" lon="5.88548">
        <ele>627</ele>
        <time>2019-04-09T13:42:41Z</time>
      </trkpt>
      <trkpt lat="44.32064" lon="5.88545">
        <ele>628</ele>
        <time>2019-04-09T13:42:42Z</time>
      </trkpt>
      <trkpt lat="44.32068" lon="5.88543">
        <ele>628</ele>
        <time>2019-04-09T13:42:43Z</time>
      </trkpt>
      <trkpt lat="44.32071" lon="5.88541">
        <ele>628</ele>
        <time>2019-04-09T13:42:44Z</time>
      </trkpt>
      <trkpt lat="44.32075" lon="5.88539">
        <ele>628</ele>
        <time>2019-04-09T13:42:45Z</time>
      </trkpt>
      <trkpt lat="44.32078" lon="5.88536">
        <ele>628</ele>
        <time>2019-04-09T13:42:46Z</time>
      </trkpt>
      <trkpt lat="44.32082" lon="5.88534">
        <ele>628</ele>
        <time>2019-04-09T13:42:47Z</time>
      </trkpt>
      <trkpt lat="44.32085" lon="5.88532">
        <ele>629</ele>
        <time>2019-04-09T13:42:48Z</time>
      </trkpt>
      <trkpt lat="44.32089" lon="5.8853">
        <ele>629</ele>
        <time>2019-04-09T13:42:49Z</time>
      </trkpt>
      <trkpt lat="44.32093" lon="5.88528">
        <ele>629</ele>
        <time>2019-04-09T13:42:50Z</time>
      </trkpt>
      <trkpt lat="44.32096" lon="5.88526">
        <ele>629</ele>
        <time>2019-04-09T13:42:51Z</time>
      </trkpt>
      <trkpt lat="44.321" lon="5.88524">
        <ele>629</ele>
        <time>2019-04-09T13:42:52Z</time>
      </trkpt>
      <trkpt lat="44.32103" lon="5.88522">
        <ele>629</ele>
        <time>2019-04-09T13:42:53Z</time>
      </trkpt>
      <trkpt lat="44.32107" lon="5.8852">
        <ele>629</ele>
        <time>2019-04-09T13:42:54Z</time>
      </trkpt>
      <trkpt lat="44.32111" lon="5.88517">
        <ele>630</ele>
        <time>2019-04-09T13:42:55Z</time>
      </trkpt>
      <trkpt lat="44.32115" lon="5.88515">
        <ele>630</ele>
        <time>2019-04-09T13:42:56Z</time>
      </trkpt>
      <trkpt lat="44.32119" lon="5.88514">
        <ele>630</ele>
        <time>2019-04-09T13:42:57Z</time>
      </trkpt>
      <trkpt lat="44.32122" lon="5.88511">
        <ele>630</ele>
        <time>2019-04-09T13:42:58Z</time>
      </trkpt>
      <trkpt lat="44.32126" lon="5.88509">
        <ele>630</ele>
        <time>2019-04-09T13:42:59Z</time>
      </trkpt>
      <trkpt lat="44.32129" lon="5.88507">
        <ele>631</ele>
        <time>2019-04-09T13:43:00Z</time>
      </trkpt>
      <trkpt lat="44.32133" lon="5.88505">
        <ele>631</ele>
        <time>2019-04-09T13:43:01Z</time>
      </trkpt>
      <trkpt lat="44.32136" lon="5.88503">
        <ele>631</ele>
        <time>2019-04-09T13:43:02Z</time>
      </trkpt>
      <trkpt lat="44.3214" lon="5.88499">
        <ele>631</ele>
        <time>2019-04-09T13:43:03Z</time>
      </trkpt>
      <trkpt lat="44.32143" lon="5.88497">
        <ele>632</ele>
        <time>2019-04-09T13:43:04Z</time>
      </trkpt>
      <trkpt lat="44.32146" lon="5.88494">
        <ele>632</ele>
        <time>2019-04-09T13:43:05Z</time>
      </trkpt>
      <trkpt lat="44.32149" lon="5.88491">
        <ele>632</ele>
        <time>2019-04-09T13:43:06Z</time>
      </trkpt>
      <trkpt lat="44.32153" lon="5.88489">
        <ele>632</ele>
        <time>2019-04-09T13:43:07Z</time>
      </trkpt>
      <trkpt lat="44.32157" lon="5.88487">
        <ele>632</ele>
        <time>2019-04-09T13:43:08Z</time>
      </trkpt>
      <trkpt lat="44.3216" lon="5.88484">
        <ele>632</ele>
        <time>2019-04-09T13:43:09Z</time>
      </trkpt>
      <trkpt lat="44.32164" lon="5.88482">
        <ele>632</ele>
        <time>2019-04-09T13:43:10Z</time>
      </trkpt>
      <trkpt lat="44.32167" lon="5.88479">
        <ele>632</ele>
        <time>2019-04-09T13:43:11Z</time>
      </trkpt>
      <trkpt lat="44.3217" lon="5.88475">
        <ele>633</ele>
        <time>2019-04-09T13:43:12Z</time>
      </trkpt>
      <trkpt lat="44.32174" lon="5.88472">
        <ele>633</ele>
        <time>2019-04-09T13:43:13Z</time>
      </trkpt>
      <trkpt lat="44.32177" lon="5.88468">
        <ele>633</ele>
        <time>2019-04-09T13:43:14Z</time>
      </trkpt>
      <trkpt lat="44.3218" lon="5.88465">
        <ele>633</ele>
        <time>2019-04-09T13:43:15Z</time>
      </trkpt>
      <trkpt lat="44.32183" lon="5.88461">
        <ele>633</ele>
        <time>2019-04-09T13:43:16Z</time>
      </trkpt>
      <trkpt lat="44.32186" lon="5.88458">
        <ele>633</ele>
        <time>2019-04-09T13:43:17Z</time>
      </trkpt>
      <trkpt lat="44.3219" lon="5.88455">
        <ele>634</ele>
        <time>2019-04-09T13:43:18Z</time>
      </trkpt>
      <trkpt lat="44.32193" lon="5.88452">
        <ele>634</ele>
        <time>2019-04-09T13:43:19Z</time>
      </trkpt>
      <trkpt lat="44.32196" lon="5.88449">
        <ele>634</ele>
        <time>2019-04-09T13:43:20Z</time>
      </trkpt>
      <trkpt lat="44.322" lon="5.88447">
        <ele>634</ele>
        <time>2019-04-09T13:43:21Z</time>
      </trkpt>
      <trkpt lat="44.32204" lon="5.88444">
        <ele>634</ele>
        <time>2019-04-09T13:43:22Z</time>
      </trkpt>
      <trkpt lat="44.32207" lon="5.88442">
        <ele>634</ele>
        <time>2019-04-09T13:43:23Z</time>
      </trkpt>
      <trkpt lat="44.32211" lon="5.8844">
        <ele>634</ele>
        <time>2019-04-09T13:43:24Z</time>
      </trkpt>
      <trkpt lat="44.32215" lon="5.88438">
        <ele>635</ele>
        <time>2019-04-09T13:43:25Z</time>
      </trkpt>
      <trkpt lat="44.32219" lon="5.88437">
        <ele>635</ele>
        <time>2019-04-09T13:43:26Z</time>
      </trkpt>
      <trkpt lat="44.32222" lon="5.88435">
        <ele>635</ele>
        <time>2019-04-09T13:43:27Z</time>
      </trkpt>
      <trkpt lat="44.32226" lon="5.88434">
        <ele>635</ele>
        <time>2019-04-09T13:43:28Z</time>
      </trkpt>
      <trkpt lat="44.3223" lon="5.88433">
        <ele>636</ele>
        <time>2019-04-09T13:43:29Z</time>
      </trkpt>
      <trkpt lat="44.32234" lon="5.88432">
        <ele>636</ele>
        <time>2019-04-09T13:43:30Z</time>
      </trkpt>
      <trkpt lat="44.32238" lon="5.88431">
        <ele>636</ele>
        <time>2019-04-09T13:43:31Z</time>
      </trkpt>
      <trkpt lat="44.32242" lon="5.8843">
        <ele>636</ele>
        <time>2019-04-09T13:43:32Z</time>
      </trkpt>
      <trkpt lat="44.32246" lon="5.88429">
        <ele>636</ele>
        <time>2019-04-09T13:43:33Z</time>
      </trkpt>
      <trkpt lat="44.32251" lon="5.88429">
        <ele>636</ele>
        <time>2019-04-09T13:43:34Z</time>
      </trkpt>
      <trkpt lat="44.32255" lon="5.88428">
        <ele>636</ele>
        <time>2019-04-09T13:43:35Z</time>
      </trkpt>
      <trkpt lat="44.32259" lon="5.88427">
        <ele>636</ele>
        <time>2019-04-09T13:43:36Z</time>
      </trkpt>
      <trkpt lat="44.32263" lon="5.88426">
        <ele>636</ele>
        <time>2019-04-09T13:43:37Z</time>
      </trkpt>
      <trkpt lat="44.32267" lon="5.88425">
        <ele>636</ele>
        <time>2019-04-09T13:43:38Z</time>
      </trkpt>
      <trkpt lat="44.32272" lon="5.88424">
        <ele>636</ele>
        <time>2019-04-09T13:43:39Z</time>
      </trkpt>
      <trkpt lat="44.32276" lon="5.88424">
        <ele>636</ele>
        <time>2019-04-09T13:43:40Z</time>
      </trkpt>
      <trkpt lat="44.3228" lon="5.88423">
        <ele>636</ele>
        <time>2019-04-09T13:43:41Z</time>
      </trkpt>
      <trkpt lat="44.32284" lon="5.88422">
        <ele>636</ele>
        <time>2019-04-09T13:43:42Z</time>
      </trkpt>
      <trkpt lat="44.32288" lon="5.88421">
        <ele>637</ele>
        <time>2019-04-09T13:43:43Z</time>
      </trkpt>
      <trkpt lat="44.32292" lon="5.8842">
        <ele>637</ele>
        <time>2019-04-09T13:43:44Z</time>
      </trkpt>
      <trkpt lat="44.32296" lon="5.88418">
        <ele>637</ele>
        <time>2019-04-09T13:43:45Z</time>
      </trkpt>
      <trkpt lat="44.323" lon="5.88416">
        <ele>637</ele>
        <time>2019-04-09T13:43:46Z</time>
      </trkpt>
      <trkpt lat="44.32304" lon="5.88414">
        <ele>637</ele>
        <time>2019-04-09T13:43:47Z</time>
      </trkpt>
      <trkpt lat="44.32307" lon="5.88412">
        <ele>637</ele>
        <time>2019-04-09T13:43:48Z</time>
      </trkpt>
      <trkpt lat="44.32311" lon="5.88409">
        <ele>637</ele>
        <time>2019-04-09T13:43:49Z</time>
      </trkpt>
      <trkpt lat="44.32314" lon="5.88406">
        <ele>638</ele>
        <time>2019-04-09T13:43:50Z</time>
      </trkpt>
      <trkpt lat="44.32317" lon="5.88401">
        <ele>638</ele>
        <time>2019-04-09T13:43:51Z</time>
      </trkpt>
      <trkpt lat="44.3232" lon="5.88397">
        <ele>638</ele>
        <time>2019-04-09T13:43:52Z</time>
      </trkpt>
      <trkpt lat="44.32322" lon="5.88392">
        <ele>638</ele>
        <time>2019-04-09T13:43:53Z</time>
      </trkpt>
      <trkpt lat="44.32324" lon="5.88387">
        <ele>639</ele>
        <time>2019-04-09T13:43:54Z</time>
      </trkpt>
      <trkpt lat="44.32327" lon="5.88382">
        <ele>639</ele>
        <time>2019-04-09T13:43:55Z</time>
      </trkpt>
      <trkpt lat="44.32328" lon="5.88377">
        <ele>639</ele>
        <time>2019-04-09T13:43:56Z</time>
      </trkpt>
      <trkpt lat="44.3233" lon="5.88372">
        <ele>639</ele>
        <time>2019-04-09T13:43:57Z</time>
      </trkpt>
      <trkpt lat="44.32332" lon="5.88366">
        <ele>640</ele>
        <time>2019-04-09T13:43:58Z</time>
      </trkpt>
      <trkpt lat="44.32333" lon="5.88361">
        <ele>640</ele>
        <time>2019-04-09T13:43:59Z</time>
      </trkpt>
      <trkpt lat="44.32334" lon="5.88356">
        <ele>640</ele>
        <time>2019-04-09T13:44:00Z</time>
      </trkpt>
      <trkpt lat="44.32336" lon="5.88351">
        <ele>640</ele>
        <time>2019-04-09T13:44:01Z</time>
      </trkpt>
      <trkpt lat="44.32337" lon="5.88345">
        <ele>641</ele>
        <time>2019-04-09T13:44:02Z</time>
      </trkpt>
      <trkpt lat="44.32338" lon="5.8834">
        <ele>641</ele>
        <time>2019-04-09T13:44:03Z</time>
      </trkpt>
      <trkpt lat="44.3234" lon="5.88335">
        <ele>641</ele>
        <time>2019-04-09T13:44:04Z</time>
      </trkpt>
      <trkpt lat="44.32341" lon="5.8833">
        <ele>641</ele>
        <time>2019-04-09T13:44:05Z</time>
      </trkpt>
      <trkpt lat="44.32343" lon="5.88325">
        <ele>642</ele>
        <time>2019-04-09T13:44:06Z</time>
      </trkpt>
      <trkpt lat="44.32345" lon="5.8832">
        <ele>642</ele>
        <time>2019-04-09T13:44:07Z</time>
      </trkpt>
      <trkpt lat="44.32346" lon="5.88315">
        <ele>642</ele>
        <time>2019-04-09T13:44:08Z</time>
      </trkpt>
      <trkpt lat="44.32348" lon="5.88311">
        <ele>642</ele>
        <time>2019-04-09T13:44:09Z</time>
      </trkpt>
      <trkpt lat="44.32349" lon="5.88307">
        <ele>642</ele>
        <time>2019-04-09T13:44:10Z</time>
      </trkpt>
      <trkpt lat="44.32351" lon="5.88303">
        <ele>642</ele>
        <time>2019-04-09T13:44:11Z</time>
      </trkpt>
      <trkpt lat="44.32352" lon="5.88298">
        <ele>642</ele>
        <time>2019-04-09T13:44:12Z</time>
      </trkpt>
      <trkpt lat="44.32354" lon="5.88294">
        <ele>642</ele>
        <time>2019-04-09T13:44:13Z</time>
      </trkpt>
      <trkpt lat="44.32356" lon="5.8829">
        <ele>642</ele>
        <time>2019-04-09T13:44:14Z</time>
      </trkpt>
      <trkpt lat="44.32357" lon="5.88286">
        <ele>642</ele>
        <time>2019-04-09T13:44:15Z</time>
      </trkpt>
      <trkpt lat="44.32359" lon="5.88282">
        <ele>642</ele>
        <time>2019-04-09T13:44:16Z</time>
      </trkpt>
      <trkpt lat="44.32361" lon="5.88278">
        <ele>642</ele>
        <time>2019-04-09T13:44:17Z</time>
      </trkpt>
      <trkpt lat="44.32363" lon="5.88274">
        <ele>642</ele>
        <time>2019-04-09T13:44:18Z</time>
      </trkpt>
      <trkpt lat="44.32365" lon="5.88269">
        <ele>642</ele>
        <time>2019-04-09T13:44:19Z</time>
      </trkpt>
      <trkpt lat="44.32366" lon="5.88265">
        <ele>642</ele>
        <time>2019-04-09T13:44:20Z</time>
      </trkpt>
      <trkpt lat="44.32368" lon="5.8826">
        <ele>643</ele>
        <time>2019-04-09T13:44:21Z</time>
      </trkpt>
      <trkpt lat="44.3237" lon="5.88256">
        <ele>643</ele>
        <time>2019-04-09T13:44:22Z</time>
      </trkpt>
      <trkpt lat="44.32371" lon="5.88252">
        <ele>643</ele>
        <time>2019-04-09T13:44:23Z</time>
      </trkpt>
      <trkpt lat="44.32373" lon="5.88247">
        <ele>643</ele>
        <time>2019-04-09T13:44:24Z</time>
      </trkpt>
      <trkpt lat="44.32375" lon="5.88243">
        <ele>644</ele>
        <time>2019-04-09T13:44:25Z</time>
      </trkpt>
      <trkpt lat="44.32376" lon="5.88239">
        <ele>644</ele>
        <time>2019-04-09T13:44:26Z</time>
      </trkpt>
      <trkpt lat="44.32378" lon="5.88235">
        <ele>644</ele>
        <time>2019-04-09T13:44:27Z</time>
      </trkpt>
      <trkpt lat="44.3238" lon="5.88231">
        <ele>644</ele>
        <time>2019-04-09T13:44:28Z</time>
      </trkpt>
      <trkpt lat="44.32381" lon="5.88227">
        <ele>644</ele>
        <time>2019-04-09T13:44:29Z</time>
      </trkpt>
      <trkpt lat="44.32383" lon="5.88223">
        <ele>644</ele>
        <time>2019-04-09T13:44:30Z</time>
      </trkpt>
      <trkpt lat="44.32384" lon="5.88218">
        <ele>644</ele>
        <time>2019-04-09T13:44:31Z</time>
      </trkpt>
      <trkpt lat="44.32385" lon="5.88213">
        <ele>645</ele>
        <time>2019-04-09T13:44:32Z</time>
      </trkpt>
      <trkpt lat="44.32387" lon="5.88208">
        <ele>645</ele>
        <time>2019-04-09T13:44:33Z</time>
      </trkpt>
      <trkpt lat="44.32389" lon="5.88204">
        <ele>645</ele>
        <time>2019-04-09T13:44:34Z</time>
      </trkpt>
      <trkpt lat="44.32391" lon="5.88199">
        <ele>645</ele>
        <time>2019-04-09T13:44:35Z</time>
      </trkpt>
      <trkpt lat="44.32393" lon="5.88193">
        <ele>645</ele>
        <time>2019-04-09T13:44:36Z</time>
      </trkpt>
      <trkpt lat="44.32394" lon="5.88187">
        <ele>645</ele>
        <time>2019-04-09T13:44:37Z</time>
      </trkpt>
      <trkpt lat="44.32396" lon="5.88181">
        <ele>645</ele>
        <time>2019-04-09T13:44:38Z</time>
      </trkpt>
      <trkpt lat="44.32397" lon="5.88175">
        <ele>645</ele>
        <time>2019-04-09T13:44:39Z</time>
      </trkpt>
      <trkpt lat="44.32399" lon="5.88169">
        <ele>645</ele>
        <time>2019-04-09T13:44:40Z</time>
      </trkpt>
      <trkpt lat="44.324" lon="5.88162">
        <ele>645</ele>
        <time>2019-04-09T13:44:41Z</time>
      </trkpt>
      <trkpt lat="44.32402" lon="5.88156">
        <ele>645</ele>
        <time>2019-04-09T13:44:42Z</time>
      </trkpt>
      <trkpt lat="44.32403" lon="5.88149">
        <ele>645</ele>
        <time>2019-04-09T13:44:43Z</time>
      </trkpt>
      <trkpt lat="44.32405" lon="5.88143">
        <ele>645</ele>
        <time>2019-04-09T13:44:44Z</time>
      </trkpt>
      <trkpt lat="44.32407" lon="5.88136">
        <ele>645</ele>
        <time>2019-04-09T13:44:45Z</time>
      </trkpt>
      <trkpt lat="44.32408" lon="5.8813">
        <ele>645</ele>
        <time>2019-04-09T13:44:46Z</time>
      </trkpt>
      <trkpt lat="44.3241" lon="5.88123">
        <ele>645</ele>
        <time>2019-04-09T13:44:47Z</time>
      </trkpt>
      <trkpt lat="44.32412" lon="5.88116">
        <ele>645</ele>
        <time>2019-04-09T13:44:48Z</time>
      </trkpt>
      <trkpt lat="44.32414" lon="5.8811">
        <ele>645</ele>
        <time>2019-04-09T13:44:49Z</time>
      </trkpt>
      <trkpt lat="44.32416" lon="5.88103">
        <ele>645</ele>
        <time>2019-04-09T13:44:50Z</time>
      </trkpt>
      <trkpt lat="44.32418" lon="5.88096">
        <ele>645</ele>
        <time>2019-04-09T13:44:51Z</time>
      </trkpt>
      <trkpt lat="44.3242" lon="5.8809">
        <ele>645</ele>
        <time>2019-04-09T13:44:52Z</time>
      </trkpt>
      <trkpt lat="44.32423" lon="5.88083">
        <ele>644</ele>
        <time>2019-04-09T13:44:53Z</time>
      </trkpt>
      <trkpt lat="44.32426" lon="5.88077">
        <ele>644</ele>
        <time>2019-04-09T13:44:54Z</time>
      </trkpt>
      <trkpt lat="44.32429" lon="5.88071">
        <ele>644</ele>
        <time>2019-04-09T13:44:55Z</time>
      </trkpt>
      <trkpt lat="44.32433" lon="5.88065">
        <ele>643</ele>
        <time>2019-04-09T13:44:56Z</time>
      </trkpt>
      <trkpt lat="44.32436" lon="5.88059">
        <ele>643</ele>
        <time>2019-04-09T13:44:57Z</time>
      </trkpt>
      <trkpt lat="44.3244" lon="5.88054">
        <ele>643</ele>
        <time>2019-04-09T13:44:58Z</time>
      </trkpt>
      <trkpt lat="44.32444" lon="5.88049">
        <ele>643</ele>
        <time>2019-04-09T13:44:59Z</time>
      </trkpt>
      <trkpt lat="44.32449" lon="5.88043">
        <ele>643</ele>
        <time>2019-04-09T13:45:00Z</time>
      </trkpt>
      <trkpt lat="44.32452" lon="5.88038">
        <ele>643</ele>
        <time>2019-04-09T13:45:01Z</time>
      </trkpt>
      <trkpt lat="44.32457" lon="5.88033">
        <ele>643</ele>
        <time>2019-04-09T13:45:02Z</time>
      </trkpt>
      <trkpt lat="44.3246" lon="5.88028">
        <ele>643</ele>
        <time>2019-04-09T13:45:03Z</time>
      </trkpt>
      <trkpt lat="44.32464" lon="5.88023">
        <ele>643</ele>
        <time>2019-04-09T13:45:04Z</time>
      </trkpt>
      <trkpt lat="44.32468" lon="5.88018">
        <ele>643</ele>
        <time>2019-04-09T13:45:05Z</time>
      </trkpt>
      <trkpt lat="44.32472" lon="5.88013">
        <ele>642</ele>
        <time>2019-04-09T13:45:06Z</time>
      </trkpt>
      <trkpt lat="44.32475" lon="5.88007">
        <ele>642</ele>
        <time>2019-04-09T13:45:07Z</time>
      </trkpt>
      <trkpt lat="44.32478" lon="5.88001">
        <ele>642</ele>
        <time>2019-04-09T13:45:08Z</time>
      </trkpt>
      <trkpt lat="44.32482" lon="5.87996">
        <ele>642</ele>
        <time>2019-04-09T13:45:09Z</time>
      </trkpt>
      <trkpt lat="44.32485" lon="5.8799">
        <ele>642</ele>
        <time>2019-04-09T13:45:10Z</time>
      </trkpt>
      <trkpt lat="44.32488" lon="5.87984">
        <ele>642</ele>
        <time>2019-04-09T13:45:11Z</time>
      </trkpt>
      <trkpt lat="44.3249" lon="5.87977">
        <ele>642</ele>
        <time>2019-04-09T13:45:12Z</time>
      </trkpt>
      <trkpt lat="44.32492" lon="5.87971">
        <ele>642</ele>
        <time>2019-04-09T13:45:13Z</time>
      </trkpt>
      <trkpt lat="44.32495" lon="5.87964">
        <ele>642</ele>
        <time>2019-04-09T13:45:14Z</time>
      </trkpt>
      <trkpt lat="44.32497" lon="5.87957">
        <ele>642</ele>
        <time>2019-04-09T13:45:15Z</time>
      </trkpt>
      <trkpt lat="44.32498" lon="5.87949">
        <ele>642</ele>
        <time>2019-04-09T13:45:16Z</time>
      </trkpt>
      <trkpt lat="44.32499" lon="5.87941">
        <ele>642</ele>
        <time>2019-04-09T13:45:17Z</time>
      </trkpt>
      <trkpt lat="44.325" lon="5.87934">
        <ele>642</ele>
        <time>2019-04-09T13:45:18Z</time>
      </trkpt>
      <trkpt lat="44.32501" lon="5.87926">
        <ele>641</ele>
        <time>2019-04-09T13:45:19Z</time>
      </trkpt>
      <trkpt lat="44.32502" lon="5.87918">
        <ele>641</ele>
        <time>2019-04-09T13:45:20Z</time>
      </trkpt>
      <trkpt lat="44.32502" lon="5.8791">
        <ele>641</ele>
        <time>2019-04-09T13:45:21Z</time>
      </trkpt>
      <trkpt lat="44.32502" lon="5.87902">
        <ele>641</ele>
        <time>2019-04-09T13:45:22Z</time>
      </trkpt>
      <trkpt lat="44.32503" lon="5.87895">
        <ele>640</ele>
        <time>2019-04-09T13:45:23Z</time>
      </trkpt>
      <trkpt lat="44.32503" lon="5.87888">
        <ele>640</ele>
        <time>2019-04-09T13:45:24Z</time>
      </trkpt>
      <trkpt lat="44.32504" lon="5.87881">
        <ele>640</ele>
        <time>2019-04-09T13:45:25Z</time>
      </trkpt>
      <trkpt lat="44.32505" lon="5.87873">
        <ele>640</ele>
        <time>2019-04-09T13:45:26Z</time>
      </trkpt>
      <trkpt lat="44.32507" lon="5.87866">
        <ele>639</ele>
        <time>2019-04-09T13:45:27Z</time>
      </trkpt>
      <trkpt lat="44.32508" lon="5.87858">
        <ele>639</ele>
        <time>2019-04-09T13:45:28Z</time>
      </trkpt>
      <trkpt lat="44.32509" lon="5.8785">
        <ele>639</ele>
        <time>2019-04-09T13:45:29Z</time>
      </trkpt>
      <trkpt lat="44.3251" lon="5.87841">
        <ele>639</ele>
        <time>2019-04-09T13:45:30Z</time>
      </trkpt>
      <trkpt lat="44.3251" lon="5.87832">
        <ele>638</ele>
        <time>2019-04-09T13:45:31Z</time>
      </trkpt>
      <trkpt lat="44.32511" lon="5.87823">
        <ele>638</ele>
        <time>2019-04-09T13:45:32Z</time>
      </trkpt>
      <trkpt lat="44.32512" lon="5.87813">
        <ele>638</ele>
        <time>2019-04-09T13:45:33Z</time>
      </trkpt>
      <trkpt lat="44.32513" lon="5.87804">
        <ele>638</ele>
        <time>2019-04-09T13:45:34Z</time>
      </trkpt>
      <trkpt lat="44.32513" lon="5.87794">
        <ele>637</ele>
        <time>2019-04-09T13:45:35Z</time>
      </trkpt>
      <trkpt lat="44.32514" lon="5.87784">
        <ele>637</ele>
        <time>2019-04-09T13:45:36Z</time>
      </trkpt>
      <trkpt lat="44.32514" lon="5.87774">
        <ele>637</ele>
        <time>2019-04-09T13:45:37Z</time>
      </trkpt>
      <trkpt lat="44.32515" lon="5.87763">
        <ele>636</ele>
        <time>2019-04-09T13:45:38Z</time>
      </trkpt>
      <trkpt lat="44.32515" lon="5.87752">
        <ele>636</ele>
        <time>2019-04-09T13:45:39Z</time>
      </trkpt>
      <trkpt lat="44.32516" lon="5.87742">
        <ele>636</ele>
        <time>2019-04-09T13:45:40Z</time>
      </trkpt>
      <trkpt lat="44.32517" lon="5.87731">
        <ele>635</ele>
        <time>2019-04-09T13:45:41Z</time>
      </trkpt>
      <trkpt lat="44.32517" lon="5.87721">
        <ele>635</ele>
        <time>2019-04-09T13:45:42Z</time>
      </trkpt>
      <trkpt lat="44.32518" lon="5.8771">
        <ele>635</ele>
        <time>2019-04-09T13:45:43Z</time>
      </trkpt>
      <trkpt lat="44.32518" lon="5.87699">
        <ele>635</ele>
        <time>2019-04-09T13:45:44Z</time>
      </trkpt>
      <trkpt lat="44.32519" lon="5.87688">
        <ele>634</ele>
        <time>2019-04-09T13:45:45Z</time>
      </trkpt>
      <trkpt lat="44.3252" lon="5.87678">
        <ele>634</ele>
        <time>2019-04-09T13:45:46Z</time>
      </trkpt>
      <trkpt lat="44.32521" lon="5.87668">
        <ele>634</ele>
        <time>2019-04-09T13:45:47Z</time>
      </trkpt>
      <trkpt lat="44.32522" lon="5.87657">
        <ele>634</ele>
        <time>2019-04-09T13:45:48Z</time>
      </trkpt>
      <trkpt lat="44.32523" lon="5.87647">
        <ele>634</ele>
        <time>2019-04-09T13:45:49Z</time>
      </trkpt>
      <trkpt lat="44.32523" lon="5.87638">
        <ele>633</ele>
        <time>2019-04-09T13:45:50Z</time>
      </trkpt>
      <trkpt lat="44.32524" lon="5.87628">
        <ele>633</ele>
        <time>2019-04-09T13:45:51Z</time>
      </trkpt>
      <trkpt lat="44.32525" lon="5.87618">
        <ele>633</ele>
        <time>2019-04-09T13:45:52Z</time>
      </trkpt>
      <trkpt lat="44.32526" lon="5.87609">
        <ele>633</ele>
        <time>2019-04-09T13:45:53Z</time>
      </trkpt>
      <trkpt lat="44.32526" lon="5.87601">
        <ele>633</ele>
        <time>2019-04-09T13:45:54Z</time>
      </trkpt>
      <trkpt lat="44.32525" lon="5.87592">
        <ele>633</ele>
        <time>2019-04-09T13:45:55Z</time>
      </trkpt>
      <trkpt lat="44.32523" lon="5.87583">
        <ele>633</ele>
        <time>2019-04-09T13:45:56Z</time>
      </trkpt>
      <trkpt lat="44.32519" lon="5.87575">
        <ele>632</ele>
        <time>2019-04-09T13:45:57Z</time>
      </trkpt>
      <trkpt lat="44.32516" lon="5.87568">
        <ele>632</ele>
        <time>2019-04-09T13:45:58Z</time>
      </trkpt>
      <trkpt lat="44.32512" lon="5.87561">
        <ele>632</ele>
        <time>2019-04-09T13:45:59Z</time>
      </trkpt>
      <trkpt lat="44.32507" lon="5.87554">
        <ele>632</ele>
        <time>2019-04-09T13:46:00Z</time>
      </trkpt>
      <trkpt lat="44.32503" lon="5.87548">
        <ele>632</ele>
        <time>2019-04-09T13:46:01Z</time>
      </trkpt>
      <trkpt lat="44.32499" lon="5.87542">
        <ele>632</ele>
        <time>2019-04-09T13:46:02Z</time>
      </trkpt>
      <trkpt lat="44.32494" lon="5.87536">
        <ele>632</ele>
        <time>2019-04-09T13:46:03Z</time>
      </trkpt>
      <trkpt lat="44.3249" lon="5.8753">
        <ele>632</ele>
        <time>2019-04-09T13:46:04Z</time>
      </trkpt>
      <trkpt lat="44.32485" lon="5.87523">
        <ele>632</ele>
        <time>2019-04-09T13:46:05Z</time>
      </trkpt>
      <trkpt lat="44.32481" lon="5.87517">
        <ele>632</ele>
        <time>2019-04-09T13:46:06Z</time>
      </trkpt>
      <trkpt lat="44.32477" lon="5.8751">
        <ele>632</ele>
        <time>2019-04-09T13:46:07Z</time>
      </trkpt>
      <trkpt lat="44.32473" lon="5.87503">
        <ele>632</ele>
        <time>2019-04-09T13:46:08Z</time>
      </trkpt>
      <trkpt lat="44.32469" lon="5.87496">
        <ele>632</ele>
        <time>2019-04-09T13:46:09Z</time>
      </trkpt>
      <trkpt lat="44.32465" lon="5.87489">
        <ele>632</ele>
        <time>2019-04-09T13:46:10Z</time>
      </trkpt>
      <trkpt lat="44.32461" lon="5.87483">
        <ele>632</ele>
        <time>2019-04-09T13:46:11Z</time>
      </trkpt>
      <trkpt lat="44.32458" lon="5.87476">
        <ele>632</ele>
        <time>2019-04-09T13:46:12Z</time>
      </trkpt>
      <trkpt lat="44.32454" lon="5.87469">
        <ele>631</ele>
        <time>2019-04-09T13:46:13Z</time>
      </trkpt>
      <trkpt lat="44.32451" lon="5.87463">
        <ele>631</ele>
        <time>2019-04-09T13:46:14Z</time>
      </trkpt>
      <trkpt lat="44.32448" lon="5.87455">
        <ele>631</ele>
        <time>2019-04-09T13:46:15Z</time>
      </trkpt>
      <trkpt lat="44.32445" lon="5.87447">
        <ele>631</ele>
        <time>2019-04-09T13:46:16Z</time>
      </trkpt>
      <trkpt lat="44.32442" lon="5.87439">
        <ele>631</ele>
        <time>2019-04-09T13:46:17Z</time>
      </trkpt>
      <trkpt lat="44.3244" lon="5.8743">
        <ele>630</ele>
        <time>2019-04-09T13:46:18Z</time>
      </trkpt>
      <trkpt lat="44.32439" lon="5.87421">
        <ele>630</ele>
        <time>2019-04-09T13:46:19Z</time>
      </trkpt>
      <trkpt lat="44.32439" lon="5.87412">
        <ele>630</ele>
        <time>2019-04-09T13:46:20Z</time>
      </trkpt>
      <trkpt lat="44.32439" lon="5.87403">
        <ele>630</ele>
        <time>2019-04-09T13:46:21Z</time>
      </trkpt>
      <trkpt lat="44.32439" lon="5.87394">
        <ele>630</ele>
        <time>2019-04-09T13:46:22Z</time>
      </trkpt>
      <trkpt lat="44.3244" lon="5.87386">
        <ele>630</ele>
        <time>2019-04-09T13:46:23Z</time>
      </trkpt>
      <trkpt lat="44.32441" lon="5.87377">
        <ele>630</ele>
        <time>2019-04-09T13:46:24Z</time>
      </trkpt>
      <trkpt lat="44.32442" lon="5.87369">
        <ele>630</ele>
        <time>2019-04-09T13:46:25Z</time>
      </trkpt>
      <trkpt lat="44.32443" lon="5.8736">
        <ele>630</ele>
        <time>2019-04-09T13:46:26Z</time>
      </trkpt>
      <trkpt lat="44.32444" lon="5.87352">
        <ele>630</ele>
        <time>2019-04-09T13:46:27Z</time>
      </trkpt>
      <trkpt lat="44.32445" lon="5.87343">
        <ele>630</ele>
        <time>2019-04-09T13:46:28Z</time>
      </trkpt>
      <trkpt lat="44.32446" lon="5.87334">
        <ele>630</ele>
        <time>2019-04-09T13:46:29Z</time>
      </trkpt>
      <trkpt lat="44.32447" lon="5.87325">
        <ele>629</ele>
        <time>2019-04-09T13:46:30Z</time>
      </trkpt>
      <trkpt lat="44.32448" lon="5.87316">
        <ele>629</ele>
        <time>2019-04-09T13:46:31Z</time>
      </trkpt>
      <trkpt lat="44.32449" lon="5.87308">
        <ele>629</ele>
        <time>2019-04-09T13:46:32Z</time>
      </trkpt>
      <trkpt lat="44.3245" lon="5.87299">
        <ele>629</ele>
        <time>2019-04-09T13:46:33Z</time>
      </trkpt>
      <trkpt lat="44.32451" lon="5.87291">
        <ele>629</ele>
        <time>2019-04-09T13:46:34Z</time>
      </trkpt>
      <trkpt lat="44.32451" lon="5.87284">
        <ele>629</ele>
        <time>2019-04-09T13:46:35Z</time>
      </trkpt>
      <trkpt lat="44.32452" lon="5.87276">
        <ele>629</ele>
        <time>2019-04-09T13:46:36Z</time>
      </trkpt>
      <trkpt lat="44.32453" lon="5.87268">
        <ele>629</ele>
        <time>2019-04-09T13:46:37Z</time>
      </trkpt>
      <trkpt lat="44.32453" lon="5.87259">
        <ele>629</ele>
        <time>2019-04-09T13:46:38Z</time>
      </trkpt>
      <trkpt lat="44.32454" lon="5.87251">
        <ele>629</ele>
        <time>2019-04-09T13:46:39Z</time>
      </trkpt>
      <trkpt lat="44.32456" lon="5.87243">
        <ele>628</ele>
        <time>2019-04-09T13:46:40Z</time>
      </trkpt>
      <trkpt lat="44.32458" lon="5.87235">
        <ele>628</ele>
        <time>2019-04-09T13:46:41Z</time>
      </trkpt>
      <trkpt lat="44.3246" lon="5.87227">
        <ele>628</ele>
        <time>2019-04-09T13:46:42Z</time>
      </trkpt>
      <trkpt lat="44.32464" lon="5.87219">
        <ele>628</ele>
        <time>2019-04-09T13:46:43Z</time>
      </trkpt>
      <trkpt lat="44.32468" lon="5.87212">
        <ele>628</ele>
        <time>2019-04-09T13:46:44Z</time>
      </trkpt>
      <trkpt lat="44.32472" lon="5.87206">
        <ele>628</ele>
        <time>2019-04-09T13:46:45Z</time>
      </trkpt>
      <trkpt lat="44.32477" lon="5.872">
        <ele>628</ele>
        <time>2019-04-09T13:46:46Z</time>
      </trkpt>
      <trkpt lat="44.32483" lon="5.87195">
        <ele>628</ele>
        <time>2019-04-09T13:46:47Z</time>
      </trkpt>
      <trkpt lat="44.32489" lon="5.8719">
        <ele>628</ele>
        <time>2019-04-09T13:46:48Z</time>
      </trkpt>
      <trkpt lat="44.32494" lon="5.87185">
        <ele>627</ele>
        <time>2019-04-09T13:46:49Z</time>
      </trkpt>
      <trkpt lat="44.32501" lon="5.87181">
        <ele>627</ele>
        <time>2019-04-09T13:46:50Z</time>
      </trkpt>
      <trkpt lat="44.32507" lon="5.87177">
        <ele>627</ele>
        <time>2019-04-09T13:46:51Z</time>
      </trkpt>
      <trkpt lat="44.32514" lon="5.87172">
        <ele>627</ele>
        <time>2019-04-09T13:46:52Z</time>
      </trkpt>
      <trkpt lat="44.32521" lon="5.87168">
        <ele>626</ele>
        <time>2019-04-09T13:46:53Z</time>
      </trkpt>
      <trkpt lat="44.32528" lon="5.87163">
        <ele>626</ele>
        <time>2019-04-09T13:46:54Z</time>
      </trkpt>
      <trkpt lat="44.32535" lon="5.87158">
        <ele>626</ele>
        <time>2019-04-09T13:46:55Z</time>
      </trkpt>
      <trkpt lat="44.32542" lon="5.87154">
        <ele>626</ele>
        <time>2019-04-09T13:46:56Z</time>
      </trkpt>
      <trkpt lat="44.32548" lon="5.8715">
        <ele>626</ele>
        <time>2019-04-09T13:46:57Z</time>
      </trkpt>
      <trkpt lat="44.32555" lon="5.87146">
        <ele>626</ele>
        <time>2019-04-09T13:46:58Z</time>
      </trkpt>
      <trkpt lat="44.32561" lon="5.87143">
        <ele>626</ele>
        <time>2019-04-09T13:46:59Z</time>
      </trkpt>
      <trkpt lat="44.32568" lon="5.87141">
        <ele>625</ele>
        <time>2019-04-09T13:47:00Z</time>
      </trkpt>
      <trkpt lat="44.32575" lon="5.8714">
        <ele>625</ele>
        <time>2019-04-09T13:47:01Z</time>
      </trkpt>
      <trkpt lat="44.32582" lon="5.87139">
        <ele>625</ele>
        <time>2019-04-09T13:47:02Z</time>
      </trkpt>
      <trkpt lat="44.32589" lon="5.87139">
        <ele>625</ele>
        <time>2019-04-09T13:47:03Z</time>
      </trkpt>
      <trkpt lat="44.32596" lon="5.8714">
        <ele>625</ele>
        <time>2019-04-09T13:47:04Z</time>
      </trkpt>
      <trkpt lat="44.32603" lon="5.87141">
        <ele>625</ele>
        <time>2019-04-09T13:47:05Z</time>
      </trkpt>
      <trkpt lat="44.3261" lon="5.87142">
        <ele>625</ele>
        <time>2019-04-09T13:47:06Z</time>
      </trkpt>
      <trkpt lat="44.32618" lon="5.87142">
        <ele>625</ele>
        <time>2019-04-09T13:47:07Z</time>
      </trkpt>
      <trkpt lat="44.32624" lon="5.87142">
        <ele>625</ele>
        <time>2019-04-09T13:47:08Z</time>
      </trkpt>
      <trkpt lat="44.32631" lon="5.87141">
        <ele>625</ele>
        <time>2019-04-09T13:47:09Z</time>
      </trkpt>
      <trkpt lat="44.32637" lon="5.8714">
        <ele>625</ele>
        <time>2019-04-09T13:47:10Z</time>
      </trkpt>
      <trkpt lat="44.32644" lon="5.87137">
        <ele>625</ele>
        <time>2019-04-09T13:47:11Z</time>
      </trkpt>
      <trkpt lat="44.3265" lon="5.87134">
        <ele>624</ele>
        <time>2019-04-09T13:47:12Z</time>
      </trkpt>
      <trkpt lat="44.32656" lon="5.87131">
        <ele>624</ele>
        <time>2019-04-09T13:47:13Z</time>
      </trkpt>
      <trkpt lat="44.32663" lon="5.87127">
        <ele>624</ele>
        <time>2019-04-09T13:47:14Z</time>
      </trkpt>
      <trkpt lat="44.32669" lon="5.87123">
        <ele>624</ele>
        <time>2019-04-09T13:47:15Z</time>
      </trkpt>
      <trkpt lat="44.32675" lon="5.87117">
        <ele>624</ele>
        <time>2019-04-09T13:47:16Z</time>
      </trkpt>
      <trkpt lat="44.32681" lon="5.8711">
        <ele>624</ele>
        <time>2019-04-09T13:47:17Z</time>
      </trkpt>
      <trkpt lat="44.32685" lon="5.87102">
        <ele>624</ele>
        <time>2019-04-09T13:47:18Z</time>
      </trkpt>
      <trkpt lat="44.3269" lon="5.87092">
        <ele>624</ele>
        <time>2019-04-09T13:47:19Z</time>
      </trkpt>
      <trkpt lat="44.32693" lon="5.87082">
        <ele>624</ele>
        <time>2019-04-09T13:47:20Z</time>
      </trkpt>
      <trkpt lat="44.32696" lon="5.87072">
        <ele>624</ele>
        <time>2019-04-09T13:47:21Z</time>
      </trkpt>
      <trkpt lat="44.32697" lon="5.87061">
        <ele>623</ele>
        <time>2019-04-09T13:47:22Z</time>
      </trkpt>
      <trkpt lat="44.32699" lon="5.87051">
        <ele>623</ele>
        <time>2019-04-09T13:47:23Z</time>
      </trkpt>
      <trkpt lat="44.32701" lon="5.8704">
        <ele>623</ele>
        <time>2019-04-09T13:47:24Z</time>
      </trkpt>
      <trkpt lat="44.32702" lon="5.8703">
        <ele>623</ele>
        <time>2019-04-09T13:47:25Z</time>
      </trkpt>
      <trkpt lat="44.32704" lon="5.8702">
        <ele>623</ele>
        <time>2019-04-09T13:47:26Z</time>
      </trkpt>
      <trkpt lat="44.32706" lon="5.87009">
        <ele>623</ele>
        <time>2019-04-09T13:47:27Z</time>
      </trkpt>
      <trkpt lat="44.32708" lon="5.87">
        <ele>623</ele>
        <time>2019-04-09T13:47:28Z</time>
      </trkpt>
      <trkpt lat="44.3271" lon="5.86989">
        <ele>623</ele>
        <time>2019-04-09T13:47:29Z</time>
      </trkpt>
      <trkpt lat="44.32712" lon="5.8698">
        <ele>623</ele>
        <time>2019-04-09T13:47:30Z</time>
      </trkpt>
      <trkpt lat="44.32714" lon="5.8697">
        <ele>623</ele>
        <time>2019-04-09T13:47:31Z</time>
      </trkpt>
      <trkpt lat="44.32716" lon="5.86961">
        <ele>623</ele>
        <time>2019-04-09T13:47:32Z</time>
      </trkpt>
      <trkpt lat="44.32718" lon="5.86951">
        <ele>623</ele>
        <time>2019-04-09T13:47:33Z</time>
      </trkpt>
      <trkpt lat="44.3272" lon="5.86942">
        <ele>623</ele>
        <time>2019-04-09T13:47:34Z</time>
      </trkpt>
      <trkpt lat="44.32722" lon="5.86934">
        <ele>623</ele>
        <time>2019-04-09T13:47:35Z</time>
      </trkpt>
      <trkpt lat="44.32725" lon="5.86925">
        <ele>623</ele>
        <time>2019-04-09T13:47:36Z</time>
      </trkpt>
      <trkpt lat="44.32727" lon="5.86916">
        <ele>623</ele>
        <time>2019-04-09T13:47:37Z</time>
      </trkpt>
      <trkpt lat="44.32729" lon="5.86907">
        <ele>623</ele>
        <time>2019-04-09T13:47:38Z</time>
      </trkpt>
      <trkpt lat="44.32732" lon="5.86898">
        <ele>622</ele>
        <time>2019-04-09T13:47:39Z</time>
      </trkpt>
      <trkpt lat="44.32735" lon="5.86889">
        <ele>622</ele>
        <time>2019-04-09T13:47:40Z</time>
      </trkpt>
      <trkpt lat="44.32738" lon="5.8688">
        <ele>622</ele>
        <time>2019-04-09T13:47:41Z</time>
      </trkpt>
      <trkpt lat="44.3274" lon="5.86871">
        <ele>622</ele>
        <time>2019-04-09T13:47:42Z</time>
      </trkpt>
      <trkpt lat="44.32743" lon="5.86862">
        <ele>622</ele>
        <time>2019-04-09T13:47:43Z</time>
      </trkpt>
      <trkpt lat="44.32745" lon="5.86853">
        <ele>622</ele>
        <time>2019-04-09T13:47:44Z</time>
      </trkpt>
      <trkpt lat="44.32748" lon="5.86844">
        <ele>622</ele>
        <time>2019-04-09T13:47:45Z</time>
      </trkpt>
      <trkpt lat="44.3275" lon="5.86835">
        <ele>622</ele>
        <time>2019-04-09T13:47:46Z</time>
      </trkpt>
      <trkpt lat="44.32752" lon="5.86827">
        <ele>622</ele>
        <time>2019-04-09T13:47:47Z</time>
      </trkpt>
      <trkpt lat="44.32754" lon="5.86818">
        <ele>622</ele>
        <time>2019-04-09T13:47:48Z</time>
      </trkpt>
      <trkpt lat="44.32756" lon="5.86809">
        <ele>622</ele>
        <time>2019-04-09T13:47:49Z</time>
      </trkpt>
      <trkpt lat="44.32758" lon="5.86801">
        <ele>622</ele>
        <time>2019-04-09T13:47:50Z</time>
      </trkpt>
      <trkpt lat="44.32759" lon="5.86792">
        <ele>622</ele>
        <time>2019-04-09T13:47:51Z</time>
      </trkpt>
      <trkpt lat="44.32761" lon="5.86783">
        <ele>622</ele>
        <time>2019-04-09T13:47:52Z</time>
      </trkpt>
      <trkpt lat="44.32761" lon="5.86774">
        <ele>622</ele>
        <time>2019-04-09T13:47:53Z</time>
      </trkpt>
      <trkpt lat="44.32762" lon="5.86765">
        <ele>622</ele>
        <time>2019-04-09T13:47:54Z</time>
      </trkpt>
      <trkpt lat="44.32762" lon="5.86757">
        <ele>622</ele>
        <time>2019-04-09T13:47:55Z</time>
      </trkpt>
      <trkpt lat="44.32762" lon="5.86748">
        <ele>622</ele>
        <time>2019-04-09T13:47:56Z</time>
      </trkpt>
      <trkpt lat="44.32762" lon="5.86739">
        <ele>621</ele>
        <time>2019-04-09T13:47:57Z</time>
      </trkpt>
      <trkpt lat="44.32761" lon="5.86731">
        <ele>621</ele>
        <time>2019-04-09T13:47:58Z</time>
      </trkpt>
      <trkpt lat="44.32761" lon="5.86722">
        <ele>621</ele>
        <time>2019-04-09T13:47:59Z</time>
      </trkpt>
      <trkpt lat="44.3276" lon="5.86714">
        <ele>621</ele>
        <time>2019-04-09T13:48:00Z</time>
      </trkpt>
      <trkpt lat="44.32759" lon="5.86705">
        <ele>621</ele>
        <time>2019-04-09T13:48:01Z</time>
      </trkpt>
      <trkpt lat="44.32758" lon="5.86697">
        <ele>621</ele>
        <time>2019-04-09T13:48:02Z</time>
      </trkpt>
      <trkpt lat="44.32758" lon="5.8669">
        <ele>621</ele>
        <time>2019-04-09T13:48:03Z</time>
      </trkpt>
      <trkpt lat="44.32757" lon="5.86682">
        <ele>621</ele>
        <time>2019-04-09T13:48:04Z</time>
      </trkpt>
      <trkpt lat="44.32756" lon="5.86675">
        <ele>621</ele>
        <time>2019-04-09T13:48:05Z</time>
      </trkpt>
      <trkpt lat="44.32755" lon="5.86667">
        <ele>621</ele>
        <time>2019-04-09T13:48:06Z</time>
      </trkpt>
      <trkpt lat="44.32754" lon="5.86659">
        <ele>621</ele>
        <time>2019-04-09T13:48:07Z</time>
      </trkpt>
      <trkpt lat="44.32753" lon="5.86652">
        <ele>621</ele>
        <time>2019-04-09T13:48:08Z</time>
      </trkpt>
      <trkpt lat="44.32752" lon="5.86644">
        <ele>621</ele>
        <time>2019-04-09T13:48:09Z</time>
      </trkpt>
      <trkpt lat="44.32751" lon="5.86636">
        <ele>621</ele>
        <time>2019-04-09T13:48:10Z</time>
      </trkpt>
      <trkpt lat="44.3275" lon="5.86627">
        <ele>621</ele>
        <time>2019-04-09T13:48:11Z</time>
      </trkpt>
      <trkpt lat="44.32749" lon="5.86619">
        <ele>621</ele>
        <time>2019-04-09T13:48:12Z</time>
      </trkpt>
      <trkpt lat="44.32748" lon="5.8661">
        <ele>621</ele>
        <time>2019-04-09T13:48:13Z</time>
      </trkpt>
      <trkpt lat="44.32748" lon="5.86601">
        <ele>621</ele>
        <time>2019-04-09T13:48:14Z</time>
      </trkpt>
      <trkpt lat="44.32748" lon="5.86591">
        <ele>620</ele>
        <time>2019-04-09T13:48:15Z</time>
      </trkpt>
      <trkpt lat="44.32748" lon="5.86582">
        <ele>620</ele>
        <time>2019-04-09T13:48:16Z</time>
      </trkpt>
      <trkpt lat="44.32749" lon="5.86573">
        <ele>620</ele>
        <time>2019-04-09T13:48:17Z</time>
      </trkpt>
      <trkpt lat="44.3275" lon="5.86563">
        <ele>620</ele>
        <time>2019-04-09T13:48:18Z</time>
      </trkpt>
      <trkpt lat="44.32752" lon="5.86554">
        <ele>620</ele>
        <time>2019-04-09T13:48:19Z</time>
      </trkpt>
      <trkpt lat="44.32754" lon="5.86545">
        <ele>620</ele>
        <time>2019-04-09T13:48:20Z</time>
      </trkpt>
      <trkpt lat="44.32757" lon="5.86536">
        <ele>620</ele>
        <time>2019-04-09T13:48:21Z</time>
      </trkpt>
      <trkpt lat="44.3276" lon="5.86527">
        <ele>620</ele>
        <time>2019-04-09T13:48:22Z</time>
      </trkpt>
      <trkpt lat="44.32764" lon="5.86519">
        <ele>620</ele>
        <time>2019-04-09T13:48:23Z</time>
      </trkpt>
      <trkpt lat="44.32768" lon="5.86511">
        <ele>620</ele>
        <time>2019-04-09T13:48:24Z</time>
      </trkpt>
      <trkpt lat="44.32772" lon="5.86503">
        <ele>620</ele>
        <time>2019-04-09T13:48:25Z</time>
      </trkpt>
      <trkpt lat="44.32777" lon="5.86496">
        <ele>620</ele>
        <time>2019-04-09T13:48:26Z</time>
      </trkpt>
      <trkpt lat="44.32782" lon="5.8649">
        <ele>620</ele>
        <time>2019-04-09T13:48:27Z</time>
      </trkpt>
      <trkpt lat="44.32787" lon="5.86484">
        <ele>620</ele>
        <time>2019-04-09T13:48:28Z</time>
      </trkpt>
      <trkpt lat="44.32792" lon="5.86479">
        <ele>620</ele>
        <time>2019-04-09T13:48:29Z</time>
      </trkpt>
      <trkpt lat="44.32798" lon="5.86475">
        <ele>620</ele>
        <time>2019-04-09T13:48:30Z</time>
      </trkpt>
      <trkpt lat="44.32803" lon="5.86471">
        <ele>620</ele>
        <time>2019-04-09T13:48:31Z</time>
      </trkpt>
      <trkpt lat="44.32809" lon="5.86467">
        <ele>620</ele>
        <time>2019-04-09T13:48:32Z</time>
      </trkpt>
      <trkpt lat="44.32815" lon="5.86463">
        <ele>620</ele>
        <time>2019-04-09T13:48:33Z</time>
      </trkpt>
      <trkpt lat="44.3282" lon="5.86458">
        <ele>620</ele>
        <time>2019-04-09T13:48:34Z</time>
      </trkpt>
      <trkpt lat="44.32825" lon="5.86453">
        <ele>620</ele>
        <time>2019-04-09T13:48:35Z</time>
      </trkpt>
      <trkpt lat="44.3283" lon="5.86447">
        <ele>620</ele>
        <time>2019-04-09T13:48:36Z</time>
      </trkpt>
      <trkpt lat="44.32834" lon="5.86441">
        <ele>620</ele>
        <time>2019-04-09T13:48:37Z</time>
      </trkpt>
      <trkpt lat="44.32838" lon="5.86433">
        <ele>620</ele>
        <time>2019-04-09T13:48:38Z</time>
      </trkpt>
      <trkpt lat="44.3284" lon="5.86425">
        <ele>620</ele>
        <time>2019-04-09T13:48:39Z</time>
      </trkpt>
      <trkpt lat="44.32842" lon="5.86416">
        <ele>620</ele>
        <time>2019-04-09T13:48:40Z</time>
      </trkpt>
      <trkpt lat="44.32843" lon="5.86408">
        <ele>620</ele>
        <time>2019-04-09T13:48:41Z</time>
      </trkpt>
      <trkpt lat="44.32844" lon="5.86399">
        <ele>620</ele>
        <time>2019-04-09T13:48:42Z</time>
      </trkpt>
      <trkpt lat="44.32845" lon="5.8639">
        <ele>620</ele>
        <time>2019-04-09T13:48:43Z</time>
      </trkpt>
      <trkpt lat="44.32845" lon="5.86381">
        <ele>620</ele>
        <time>2019-04-09T13:48:44Z</time>
      </trkpt>
      <trkpt lat="44.32845" lon="5.86373">
        <ele>620</ele>
        <time>2019-04-09T13:48:45Z</time>
      </trkpt>
      <trkpt lat="44.32846" lon="5.86365">
        <ele>620</ele>
        <time>2019-04-09T13:48:46Z</time>
      </trkpt>
      <trkpt lat="44.32846" lon="5.86357">
        <ele>620</ele>
        <time>2019-04-09T13:48:47Z</time>
      </trkpt>
      <trkpt lat="44.32848" lon="5.86349">
        <ele>620</ele>
        <time>2019-04-09T13:48:48Z</time>
      </trkpt>
      <trkpt lat="44.32849" lon="5.86341">
        <ele>620</ele>
        <time>2019-04-09T13:48:49Z</time>
      </trkpt>
      <trkpt lat="44.32851" lon="5.86333">
        <ele>620</ele>
        <time>2019-04-09T13:48:50Z</time>
      </trkpt>
      <trkpt lat="44.32853" lon="5.86326">
        <ele>620</ele>
        <time>2019-04-09T13:48:51Z</time>
      </trkpt>
      <trkpt lat="44.32856" lon="5.86319">
        <ele>620</ele>
        <time>2019-04-09T13:48:52Z</time>
      </trkpt>
      <trkpt lat="44.32859" lon="5.86313">
        <ele>620</ele>
        <time>2019-04-09T13:48:53Z</time>
      </trkpt>
      <trkpt lat="44.32862" lon="5.86306">
        <ele>620</ele>
        <time>2019-04-09T13:48:54Z</time>
      </trkpt>
      <trkpt lat="44.32865" lon="5.86301">
        <ele>620</ele>
        <time>2019-04-09T13:48:55Z</time>
      </trkpt>
      <trkpt lat="44.32868" lon="5.86295">
        <ele>620</ele>
        <time>2019-04-09T13:48:56Z</time>
      </trkpt>
      <trkpt lat="44.32871" lon="5.8629">
        <ele>620</ele>
        <time>2019-04-09T13:48:57Z</time>
      </trkpt>
      <trkpt lat="44.32874" lon="5.86284">
        <ele>620</ele>
        <time>2019-04-09T13:48:58Z</time>
      </trkpt>
      <trkpt lat="44.32877" lon="5.86278">
        <ele>620</ele>
        <time>2019-04-09T13:48:59Z</time>
      </trkpt>
      <trkpt lat="44.3288" lon="5.86273">
        <ele>620</ele>
        <time>2019-04-09T13:49:00Z</time>
      </trkpt>
      <trkpt lat="44.32883" lon="5.86267">
        <ele>620</ele>
        <time>2019-04-09T13:49:01Z</time>
      </trkpt>
      <trkpt lat="44.32887" lon="5.86262">
        <ele>620</ele>
        <time>2019-04-09T13:49:02Z</time>
      </trkpt>
      <trkpt lat="44.3289" lon="5.86255">
        <ele>620</ele>
        <time>2019-04-09T13:49:03Z</time>
      </trkpt>
      <trkpt lat="44.32893" lon="5.86249">
        <ele>620</ele>
        <time>2019-04-09T13:49:04Z</time>
      </trkpt>
      <trkpt lat="44.32897" lon="5.86243">
        <ele>620</ele>
        <time>2019-04-09T13:49:05Z</time>
      </trkpt>
      <trkpt lat="44.32901" lon="5.86236">
        <ele>620</ele>
        <time>2019-04-09T13:49:06Z</time>
      </trkpt>
      <trkpt lat="44.32905" lon="5.86229">
        <ele>620</ele>
        <time>2019-04-09T13:49:07Z</time>
      </trkpt>
      <trkpt lat="44.32909" lon="5.86222">
        <ele>620</ele>
        <time>2019-04-09T13:49:08Z</time>
      </trkpt>
      <trkpt lat="44.32912" lon="5.86215">
        <ele>620</ele>
        <time>2019-04-09T13:49:09Z</time>
      </trkpt>
      <trkpt lat="44.32916" lon="5.86208">
        <ele>620</ele>
        <time>2019-04-09T13:49:10Z</time>
      </trkpt>
      <trkpt lat="44.3292" lon="5.86201">
        <ele>620</ele>
        <time>2019-04-09T13:49:11Z</time>
      </trkpt>
      <trkpt lat="44.32924" lon="5.86194">
        <ele>620</ele>
        <time>2019-04-09T13:49:12Z</time>
      </trkpt>
      <trkpt lat="44.32928" lon="5.86187">
        <ele>620</ele>
        <time>2019-04-09T13:49:13Z</time>
      </trkpt>
      <trkpt lat="44.32932" lon="5.8618">
        <ele>620</ele>
        <time>2019-04-09T13:49:14Z</time>
      </trkpt>
      <trkpt lat="44.32936" lon="5.86172">
        <ele>620</ele>
        <time>2019-04-09T13:49:15Z</time>
      </trkpt>
      <trkpt lat="44.3294" lon="5.86165">
        <ele>620</ele>
        <time>2019-04-09T13:49:16Z</time>
      </trkpt>
      <trkpt lat="44.32944" lon="5.86158">
        <ele>620</ele>
        <time>2019-04-09T13:49:17Z</time>
      </trkpt>
      <trkpt lat="44.32949" lon="5.8615">
        <ele>620</ele>
        <time>2019-04-09T13:49:18Z</time>
      </trkpt>
      <trkpt lat="44.32953" lon="5.86143">
        <ele>620</ele>
        <time>2019-04-09T13:49:19Z</time>
      </trkpt>
      <trkpt lat="44.32957" lon="5.86136">
        <ele>620</ele>
        <time>2019-04-09T13:49:20Z</time>
      </trkpt>
      <trkpt lat="44.32962" lon="5.86129">
        <ele>620</ele>
        <time>2019-04-09T13:49:21Z</time>
      </trkpt>
      <trkpt lat="44.32966" lon="5.86121">
        <ele>620</ele>
        <time>2019-04-09T13:49:22Z</time>
      </trkpt>
      <trkpt lat="44.3297" lon="5.86114">
        <ele>620</ele>
        <time>2019-04-09T13:49:23Z</time>
      </trkpt>
      <trkpt lat="44.32974" lon="5.86106">
        <ele>619</ele>
        <time>2019-04-09T13:49:24Z</time>
      </trkpt>
      <trkpt lat="44.32978" lon="5.86098">
        <ele>619</ele>
        <time>2019-04-09T13:49:25Z</time>
      </trkpt>
      <trkpt lat="44.32981" lon="5.8609">
        <ele>619</ele>
        <time>2019-04-09T13:49:26Z</time>
      </trkpt>
      <trkpt lat="44.32984" lon="5.86082">
        <ele>619</ele>
        <time>2019-04-09T13:49:27Z</time>
      </trkpt>
      <trkpt lat="44.32986" lon="5.86072">
        <ele>619</ele>
        <time>2019-04-09T13:49:28Z</time>
      </trkpt>
      <trkpt lat="44.32987" lon="5.86063">
        <ele>619</ele>
        <time>2019-04-09T13:49:29Z</time>
      </trkpt>
      <trkpt lat="44.32987" lon="5.86054">
        <ele>619</ele>
        <time>2019-04-09T13:49:30Z</time>
      </trkpt>
      <trkpt lat="44.32986" lon="5.86044">
        <ele>619</ele>
        <time>2019-04-09T13:49:31Z</time>
      </trkpt>
      <trkpt lat="44.32985" lon="5.86035">
        <ele>619</ele>
        <time>2019-04-09T13:49:32Z</time>
      </trkpt>
      <trkpt lat="44.32982" lon="5.86026">
        <ele>618</ele>
        <time>2019-04-09T13:49:33Z</time>
      </trkpt>
      <trkpt lat="44.32979" lon="5.86018">
        <ele>618</ele>
        <time>2019-04-09T13:49:34Z</time>
      </trkpt>
      <trkpt lat="44.32976" lon="5.8601">
        <ele>618</ele>
        <time>2019-04-09T13:49:35Z</time>
      </trkpt>
      <trkpt lat="44.32972" lon="5.86002">
        <ele>618</ele>
        <time>2019-04-09T13:49:36Z</time>
      </trkpt>
      <trkpt lat="44.32969" lon="5.85994">
        <ele>618</ele>
        <time>2019-04-09T13:49:37Z</time>
      </trkpt>
      <trkpt lat="44.32966" lon="5.85986">
        <ele>618</ele>
        <time>2019-04-09T13:49:38Z</time>
      </trkpt>
      <trkpt lat="44.32962" lon="5.85978">
        <ele>618</ele>
        <time>2019-04-09T13:49:39Z</time>
      </trkpt>
      <trkpt lat="44.32959" lon="5.8597">
        <ele>618</ele>
        <time>2019-04-09T13:49:40Z</time>
      </trkpt>
      <trkpt lat="44.32956" lon="5.85962">
        <ele>618</ele>
        <time>2019-04-09T13:49:41Z</time>
      </trkpt>
      <trkpt lat="44.32953" lon="5.85954">
        <ele>618</ele>
        <time>2019-04-09T13:49:42Z</time>
      </trkpt>
      <trkpt lat="44.32951" lon="5.85946">
        <ele>617</ele>
        <time>2019-04-09T13:49:43Z</time>
      </trkpt>
      <trkpt lat="44.32948" lon="5.85937">
        <ele>617</ele>
        <time>2019-04-09T13:49:44Z</time>
      </trkpt>
      <trkpt lat="44.32947" lon="5.85929">
        <ele>617</ele>
        <time>2019-04-09T13:49:45Z</time>
      </trkpt>
      <trkpt lat="44.32946" lon="5.8592">
        <ele>617</ele>
        <time>2019-04-09T13:49:46Z</time>
      </trkpt>
      <trkpt lat="44.32945" lon="5.85911">
        <ele>617</ele>
        <time>2019-04-09T13:49:47Z</time>
      </trkpt>
      <trkpt lat="44.32944" lon="5.85902">
        <ele>617</ele>
        <time>2019-04-09T13:49:48Z</time>
      </trkpt>
      <trkpt lat="44.32944" lon="5.85893">
        <ele>617</ele>
        <time>2019-04-09T13:49:49Z</time>
      </trkpt>
      <trkpt lat="44.32944" lon="5.85885">
        <ele>617</ele>
        <time>2019-04-09T13:49:50Z</time>
      </trkpt>
      <trkpt lat="44.32944" lon="5.85876">
        <ele>617</ele>
        <time>2019-04-09T13:49:51Z</time>
      </trkpt>
      <trkpt lat="44.32944" lon="5.85868">
        <ele>616</ele>
        <time>2019-04-09T13:49:52Z</time>
      </trkpt>
      <trkpt lat="44.32944" lon="5.85859">
        <ele>616</ele>
        <time>2019-04-09T13:49:53Z</time>
      </trkpt>
      <trkpt lat="44.32944" lon="5.85851">
        <ele>616</ele>
        <time>2019-04-09T13:49:54Z</time>
      </trkpt>
      <trkpt lat="44.32944" lon="5.85843">
        <ele>616</ele>
        <time>2019-04-09T13:49:55Z</time>
      </trkpt>
      <trkpt lat="44.32944" lon="5.85834">
        <ele>616</ele>
        <time>2019-04-09T13:49:56Z</time>
      </trkpt>
      <trkpt lat="44.32945" lon="5.85826">
        <ele>616</ele>
        <time>2019-04-09T13:49:57Z</time>
      </trkpt>
      <trkpt lat="44.32945" lon="5.85818">
        <ele>616</ele>
        <time>2019-04-09T13:49:58Z</time>
      </trkpt>
      <trkpt lat="44.32945" lon="5.85809">
        <ele>616</ele>
        <time>2019-04-09T13:49:59Z</time>
      </trkpt>
      <trkpt lat="44.32945" lon="5.85801">
        <ele>616</ele>
        <time>2019-04-09T13:50:00Z</time>
      </trkpt>
      <trkpt lat="44.32945" lon="5.85792">
        <ele>616</ele>
        <time>2019-04-09T13:50:01Z</time>
      </trkpt>
      <trkpt lat="44.32945" lon="5.85783">
        <ele>616</ele>
        <time>2019-04-09T13:50:02Z</time>
      </trkpt>
      <trkpt lat="44.32945" lon="5.85774">
        <ele>616</ele>
        <time>2019-04-09T13:50:03Z</time>
      </trkpt>
      <trkpt lat="44.32945" lon="5.85765">
        <ele>616</ele>
        <time>2019-04-09T13:50:04Z</time>
      </trkpt>
      <trkpt lat="44.32945" lon="5.85756">
        <ele>616</ele>
        <time>2019-04-09T13:50:05Z</time>
      </trkpt>
      <trkpt lat="44.32945" lon="5.85747">
        <ele>616</ele>
        <time>2019-04-09T13:50:06Z</time>
      </trkpt>
      <trkpt lat="44.32946" lon="5.85738">
        <ele>615</ele>
        <time>2019-04-09T13:50:07Z</time>
      </trkpt>
      <trkpt lat="44.32946" lon="5.85729">
        <ele>615</ele>
        <time>2019-04-09T13:50:08Z</time>
      </trkpt>
      <trkpt lat="44.32946" lon="5.8572">
        <ele>615</ele>
        <time>2019-04-09T13:50:09Z</time>
      </trkpt>
      <trkpt lat="44.32946" lon="5.85711">
        <ele>615</ele>
        <time>2019-04-09T13:50:10Z</time>
      </trkpt>
      <trkpt lat="44.32946" lon="5.85703">
        <ele>615</ele>
        <time>2019-04-09T13:50:11Z</time>
      </trkpt>
      <trkpt lat="44.32947" lon="5.85694">
        <ele>615</ele>
        <time>2019-04-09T13:50:12Z</time>
      </trkpt>
      <trkpt lat="44.32947" lon="5.85685">
        <ele>615</ele>
        <time>2019-04-09T13:50:13Z</time>
      </trkpt>
      <trkpt lat="44.32947" lon="5.85676">
        <ele>615</ele>
        <time>2019-04-09T13:50:14Z</time>
      </trkpt>
      <trkpt lat="44.32948" lon="5.85667">
        <ele>614</ele>
        <time>2019-04-09T13:50:15Z</time>
      </trkpt>
      <trkpt lat="44.32948" lon="5.85658">
        <ele>614</ele>
        <time>2019-04-09T13:50:16Z</time>
      </trkpt>
      <trkpt lat="44.32949" lon="5.85648">
        <ele>614</ele>
        <time>2019-04-09T13:50:17Z</time>
      </trkpt>
      <trkpt lat="44.32949" lon="5.85639">
        <ele>614</ele>
        <time>2019-04-09T13:50:18Z</time>
      </trkpt>
      <trkpt lat="44.32949" lon="5.8563">
        <ele>614</ele>
        <time>2019-04-09T13:50:19Z</time>
      </trkpt>
      <trkpt lat="44.3295" lon="5.8562">
        <ele>614</ele>
        <time>2019-04-09T13:50:20Z</time>
      </trkpt>
      <trkpt lat="44.32951" lon="5.8561">
        <ele>613</ele>
        <time>2019-04-09T13:50:21Z</time>
      </trkpt>
      <trkpt lat="44.32951" lon="5.856">
        <ele>613</ele>
        <time>2019-04-09T13:50:22Z</time>
      </trkpt>
      <trkpt lat="44.32951" lon="5.85591">
        <ele>613</ele>
        <time>2019-04-09T13:50:23Z</time>
      </trkpt>
      <trkpt lat="44.32951" lon="5.85581">
        <ele>613</ele>
        <time>2019-04-09T13:50:24Z</time>
      </trkpt>
      <trkpt lat="44.32952" lon="5.85571">
        <ele>613</ele>
        <time>2019-04-09T13:50:25Z</time>
      </trkpt>
      <trkpt lat="44.32952" lon="5.85561">
        <ele>612</ele>
        <time>2019-04-09T13:50:26Z</time>
      </trkpt>
      <trkpt lat="44.32952" lon="5.8555">
        <ele>612</ele>
        <time>2019-04-09T13:50:27Z</time>
      </trkpt>
      <trkpt lat="44.32952" lon="5.8554">
        <ele>612</ele>
        <time>2019-04-09T13:50:28Z</time>
      </trkpt>
      <trkpt lat="44.32953" lon="5.8553">
        <ele>612</ele>
        <time>2019-04-09T13:50:29Z</time>
      </trkpt>
      <trkpt lat="44.32953" lon="5.8552">
        <ele>612</ele>
        <time>2019-04-09T13:50:30Z</time>
      </trkpt>
      <trkpt lat="44.32953" lon="5.8551">
        <ele>612</ele>
        <time>2019-04-09T13:50:31Z</time>
      </trkpt>
      <trkpt lat="44.32953" lon="5.855">
        <ele>611</ele>
        <time>2019-04-09T13:50:32Z</time>
      </trkpt>
      <trkpt lat="44.32953" lon="5.85491">
        <ele>611</ele>
        <time>2019-04-09T13:50:33Z</time>
      </trkpt>
      <trkpt lat="44.32953" lon="5.85481">
        <ele>611</ele>
        <time>2019-04-09T13:50:34Z</time>
      </trkpt>
      <trkpt lat="44.32953" lon="5.85471">
        <ele>611</ele>
        <time>2019-04-09T13:50:35Z</time>
      </trkpt>
      <trkpt lat="44.32953" lon="5.85462">
        <ele>611</ele>
        <time>2019-04-09T13:50:36Z</time>
      </trkpt>
      <trkpt lat="44.32953" lon="5.85452">
        <ele>611</ele>
        <time>2019-04-09T13:50:37Z</time>
      </trkpt>
      <trkpt lat="44.32954" lon="5.85442">
        <ele>611</ele>
        <time>2019-04-09T13:50:38Z</time>
      </trkpt>
      <trkpt lat="44.32954" lon="5.85432">
        <ele>610</ele>
        <time>2019-04-09T13:50:39Z</time>
      </trkpt>
      <trkpt lat="44.32954" lon="5.85422">
        <ele>610</ele>
        <time>2019-04-09T13:50:40Z</time>
      </trkpt>
      <trkpt lat="44.32954" lon="5.85413">
        <ele>610</ele>
        <time>2019-04-09T13:50:41Z</time>
      </trkpt>
      <trkpt lat="44.32954" lon="5.85403">
        <ele>610</ele>
        <time>2019-04-09T13:50:42Z</time>
      </trkpt>
      <trkpt lat="44.32954" lon="5.85393">
        <ele>610</ele>
        <time>2019-04-09T13:50:43Z</time>
      </trkpt>
      <trkpt lat="44.32954" lon="5.85383">
        <ele>610</ele>
        <time>2019-04-09T13:50:44Z</time>
      </trkpt>
      <trkpt lat="44.32954" lon="5.85374">
        <ele>610</ele>
        <time>2019-04-09T13:50:45Z</time>
      </trkpt>
      <trkpt lat="44.32954" lon="5.85364">
        <ele>610</ele>
        <time>2019-04-09T13:50:46Z</time>
      </trkpt>
      <trkpt lat="44.32954" lon="5.85355">
        <ele>610</ele>
        <time>2019-04-09T13:50:47Z</time>
      </trkpt>
      <trkpt lat="44.32954" lon="5.85345">
        <ele>610</ele>
        <time>2019-04-09T13:50:48Z</time>
      </trkpt>
      <trkpt lat="44.32954" lon="5.85336">
        <ele>610</ele>
        <time>2019-04-09T13:50:49Z</time>
      </trkpt>
      <trkpt lat="44.32954" lon="5.85326">
        <ele>609</ele>
        <time>2019-04-09T13:50:50Z</time>
      </trkpt>
      <trkpt lat="44.32954" lon="5.85317">
        <ele>609</ele>
        <time>2019-04-09T13:50:51Z</time>
      </trkpt>
      <trkpt lat="44.32954" lon="5.85307">
        <ele>609</ele>
        <time>2019-04-09T13:50:52Z</time>
      </trkpt>
      <trkpt lat="44.32954" lon="5.85298">
        <ele>609</ele>
        <time>2019-04-09T13:50:53Z</time>
      </trkpt>
      <trkpt lat="44.32954" lon="5.85289">
        <ele>609</ele>
        <time>2019-04-09T13:50:54Z</time>
      </trkpt>
      <trkpt lat="44.32954" lon="5.8528">
        <ele>609</ele>
        <time>2019-04-09T13:50:55Z</time>
      </trkpt>
      <trkpt lat="44.32955" lon="5.85271">
        <ele>609</ele>
        <time>2019-04-09T13:50:56Z</time>
      </trkpt>
      <trkpt lat="44.32955" lon="5.85262">
        <ele>609</ele>
        <time>2019-04-09T13:50:57Z</time>
      </trkpt>
      <trkpt lat="44.32955" lon="5.85254">
        <ele>609</ele>
        <time>2019-04-09T13:50:58Z</time>
      </trkpt>
      <trkpt lat="44.32955" lon="5.85245">
        <ele>609</ele>
        <time>2019-04-09T13:50:59Z</time>
      </trkpt>
      <trkpt lat="44.32955" lon="5.85237">
        <ele>609</ele>
        <time>2019-04-09T13:51:00Z</time>
      </trkpt>
      <trkpt lat="44.32955" lon="5.85228">
        <ele>609</ele>
        <time>2019-04-09T13:51:01Z</time>
      </trkpt>
      <trkpt lat="44.32955" lon="5.85219">
        <ele>609</ele>
        <time>2019-04-09T13:51:02Z</time>
      </trkpt>
      <trkpt lat="44.32955" lon="5.8521">
        <ele>609</ele>
        <time>2019-04-09T13:51:03Z</time>
      </trkpt>
      <trkpt lat="44.32955" lon="5.85201">
        <ele>609</ele>
        <time>2019-04-09T13:51:04Z</time>
      </trkpt>
      <trkpt lat="44.32955" lon="5.85192">
        <ele>609</ele>
        <time>2019-04-09T13:51:05Z</time>
      </trkpt>
      <trkpt lat="44.32955" lon="5.85183">
        <ele>609</ele>
        <time>2019-04-09T13:51:06Z</time>
      </trkpt>
      <trkpt lat="44.32955" lon="5.85174">
        <ele>609</ele>
        <time>2019-04-09T13:51:07Z</time>
      </trkpt>
      <trkpt lat="44.32954" lon="5.85164">
        <ele>609</ele>
        <time>2019-04-09T13:51:08Z</time>
      </trkpt>
      <trkpt lat="44.32954" lon="5.85155">
        <ele>609</ele>
        <time>2019-04-09T13:51:09Z</time>
      </trkpt>
      <trkpt lat="44.32953" lon="5.85146">
        <ele>609</ele>
        <time>2019-04-09T13:51:10Z</time>
      </trkpt>
      <trkpt lat="44.32952" lon="5.85137">
        <ele>609</ele>
        <time>2019-04-09T13:51:11Z</time>
      </trkpt>
      <trkpt lat="44.32951" lon="5.85128">
        <ele>609</ele>
        <time>2019-04-09T13:51:12Z</time>
      </trkpt>
      <trkpt lat="44.32949" lon="5.8512">
        <ele>609</ele>
        <time>2019-04-09T13:51:13Z</time>
      </trkpt>
      <trkpt lat="44.32947" lon="5.85112">
        <ele>609</ele>
        <time>2019-04-09T13:51:14Z</time>
      </trkpt>
      <trkpt lat="44.32945" lon="5.85105">
        <ele>609</ele>
        <time>2019-04-09T13:51:15Z</time>
      </trkpt>
      <trkpt lat="44.32942" lon="5.85097">
        <ele>609</ele>
        <time>2019-04-09T13:51:16Z</time>
      </trkpt>
      <trkpt lat="44.32939" lon="5.85089">
        <ele>609</ele>
        <time>2019-04-09T13:51:17Z</time>
      </trkpt>
      <trkpt lat="44.32935" lon="5.85082">
        <ele>609</ele>
        <time>2019-04-09T13:51:18Z</time>
      </trkpt>
      <trkpt lat="44.32931" lon="5.85076">
        <ele>609</ele>
        <time>2019-04-09T13:51:19Z</time>
      </trkpt>
      <trkpt lat="44.32927" lon="5.85069">
        <ele>609</ele>
        <time>2019-04-09T13:51:20Z</time>
      </trkpt>
      <trkpt lat="44.32923" lon="5.85062">
        <ele>609</ele>
        <time>2019-04-09T13:51:21Z</time>
      </trkpt>
      <trkpt lat="44.32919" lon="5.85055">
        <ele>609</ele>
        <time>2019-04-09T13:51:22Z</time>
      </trkpt>
      <trkpt lat="44.32914" lon="5.85049">
        <ele>609</ele>
        <time>2019-04-09T13:51:23Z</time>
      </trkpt>
      <trkpt lat="44.3291" lon="5.85042">
        <ele>609</ele>
        <time>2019-04-09T13:51:24Z</time>
      </trkpt>
      <trkpt lat="44.32906" lon="5.85036">
        <ele>609</ele>
        <time>2019-04-09T13:51:25Z</time>
      </trkpt>
      <trkpt lat="44.32901" lon="5.8503">
        <ele>609</ele>
        <time>2019-04-09T13:51:26Z</time>
      </trkpt>
      <trkpt lat="44.32896" lon="5.85024">
        <ele>609</ele>
        <time>2019-04-09T13:51:27Z</time>
      </trkpt>
      <trkpt lat="44.32891" lon="5.85019">
        <ele>609</ele>
        <time>2019-04-09T13:51:28Z</time>
      </trkpt>
      <trkpt lat="44.32885" lon="5.85015">
        <ele>609</ele>
        <time>2019-04-09T13:51:29Z</time>
      </trkpt>
      <trkpt lat="44.32879" lon="5.85011">
        <ele>609</ele>
        <time>2019-04-09T13:51:30Z</time>
      </trkpt>
      <trkpt lat="44.32873" lon="5.85009">
        <ele>609</ele>
        <time>2019-04-09T13:51:31Z</time>
      </trkpt>
      <trkpt lat="44.32867" lon="5.85008">
        <ele>609</ele>
        <time>2019-04-09T13:51:32Z</time>
      </trkpt>
      <trkpt lat="44.3286" lon="5.85009">
        <ele>609</ele>
        <time>2019-04-09T13:51:33Z</time>
      </trkpt>
      <trkpt lat="44.32853" lon="5.85011">
        <ele>609</ele>
        <time>2019-04-09T13:51:34Z</time>
      </trkpt>
      <trkpt lat="44.32847" lon="5.85014">
        <ele>609</ele>
        <time>2019-04-09T13:51:35Z</time>
      </trkpt>
      <trkpt lat="44.3284" lon="5.85016">
        <ele>609</ele>
        <time>2019-04-09T13:51:36Z</time>
      </trkpt>
      <trkpt lat="44.32834" lon="5.85019">
        <ele>609</ele>
        <time>2019-04-09T13:51:37Z</time>
      </trkpt>
      <trkpt lat="44.32827" lon="5.85021">
        <ele>609</ele>
        <time>2019-04-09T13:51:38Z</time>
      </trkpt>
      <trkpt lat="44.32821" lon="5.85024">
        <ele>609</ele>
        <time>2019-04-09T13:51:39Z</time>
      </trkpt>
      <trkpt lat="44.32814" lon="5.85026">
        <ele>609</ele>
        <time>2019-04-09T13:51:40Z</time>
      </trkpt>
      <trkpt lat="44.32806" lon="5.85028">
        <ele>609</ele>
        <time>2019-04-09T13:51:41Z</time>
      </trkpt>
      <trkpt lat="44.32799" lon="5.85028">
        <ele>609</ele>
        <time>2019-04-09T13:51:42Z</time>
      </trkpt>
      <trkpt lat="44.32792" lon="5.85027">
        <ele>609</ele>
        <time>2019-04-09T13:51:43Z</time>
      </trkpt>
      <trkpt lat="44.32785" lon="5.85024">
        <ele>609</ele>
        <time>2019-04-09T13:51:44Z</time>
      </trkpt>
      <trkpt lat="44.32778" lon="5.85019">
        <ele>609</ele>
        <time>2019-04-09T13:51:45Z</time>
      </trkpt>
      <trkpt lat="44.32772" lon="5.85011">
        <ele>608</ele>
        <time>2019-04-09T13:51:46Z</time>
      </trkpt>
      <trkpt lat="44.32767" lon="5.85002">
        <ele>608</ele>
        <time>2019-04-09T13:51:47Z</time>
      </trkpt>
      <trkpt lat="44.32763" lon="5.84992">
        <ele>608</ele>
        <time>2019-04-09T13:51:48Z</time>
      </trkpt>
      <trkpt lat="44.3276" lon="5.84982">
        <ele>607</ele>
        <time>2019-04-09T13:51:49Z</time>
      </trkpt>
      <trkpt lat="44.32758" lon="5.84971">
        <ele>607</ele>
        <time>2019-04-09T13:51:50Z</time>
      </trkpt>
      <trkpt lat="44.32756" lon="5.84959">
        <ele>606</ele>
        <time>2019-04-09T13:51:51Z</time>
      </trkpt>
      <trkpt lat="44.32756" lon="5.84948">
        <ele>606</ele>
        <time>2019-04-09T13:51:52Z</time>
      </trkpt>
      <trkpt lat="44.32756" lon="5.84937">
        <ele>605</ele>
        <time>2019-04-09T13:51:53Z</time>
      </trkpt>
      <trkpt lat="44.32756" lon="5.84926">
        <ele>605</ele>
        <time>2019-04-09T13:51:54Z</time>
      </trkpt>
      <trkpt lat="44.32756" lon="5.84915">
        <ele>604</ele>
        <time>2019-04-09T13:51:55Z</time>
      </trkpt>
      <trkpt lat="44.32756" lon="5.84904">
        <ele>604</ele>
        <time>2019-04-09T13:51:56Z</time>
      </trkpt>
      <trkpt lat="44.32756" lon="5.84894">
        <ele>604</ele>
        <time>2019-04-09T13:51:57Z</time>
      </trkpt>
      <trkpt lat="44.32756" lon="5.84884">
        <ele>603</ele>
        <time>2019-04-09T13:51:58Z</time>
      </trkpt>
      <trkpt lat="44.32756" lon="5.84874">
        <ele>603</ele>
        <time>2019-04-09T13:51:59Z</time>
      </trkpt>
      <trkpt lat="44.32756" lon="5.84864">
        <ele>603</ele>
        <time>2019-04-09T13:52:00Z</time>
      </trkpt>
      <trkpt lat="44.32757" lon="5.84854">
        <ele>603</ele>
        <time>2019-04-09T13:52:01Z</time>
      </trkpt>
      <trkpt lat="44.32757" lon="5.84843">
        <ele>602</ele>
        <time>2019-04-09T13:52:02Z</time>
      </trkpt>
      <trkpt lat="44.32757" lon="5.84833">
        <ele>602</ele>
        <time>2019-04-09T13:52:03Z</time>
      </trkpt>
      <trkpt lat="44.32757" lon="5.84822">
        <ele>602</ele>
        <time>2019-04-09T13:52:04Z</time>
      </trkpt>
      <trkpt lat="44.32757" lon="5.84812">
        <ele>602</ele>
        <time>2019-04-09T13:52:05Z</time>
      </trkpt>
      <trkpt lat="44.32756" lon="5.84801">
        <ele>602</ele>
        <time>2019-04-09T13:52:06Z</time>
      </trkpt>
      <trkpt lat="44.32756" lon="5.84791">
        <ele>602</ele>
        <time>2019-04-09T13:52:07Z</time>
      </trkpt>
      <trkpt lat="44.32756" lon="5.84781">
        <ele>601</ele>
        <time>2019-04-09T13:52:08Z</time>
      </trkpt>
      <trkpt lat="44.32755" lon="5.84771">
        <ele>601</ele>
        <time>2019-04-09T13:52:09Z</time>
      </trkpt>
      <trkpt lat="44.32755" lon="5.84762">
        <ele>601</ele>
        <time>2019-04-09T13:52:10Z</time>
      </trkpt>
      <trkpt lat="44.32754" lon="5.84753">
        <ele>601</ele>
        <time>2019-04-09T13:52:11Z</time>
      </trkpt>
      <trkpt lat="44.32754" lon="5.84743">
        <ele>601</ele>
        <time>2019-04-09T13:52:12Z</time>
      </trkpt>
      <trkpt lat="44.32753" lon="5.84733">
        <ele>601</ele>
        <time>2019-04-09T13:52:13Z</time>
      </trkpt>
      <trkpt lat="44.32753" lon="5.84724">
        <ele>601</ele>
        <time>2019-04-09T13:52:14Z</time>
      </trkpt>
      <trkpt lat="44.32753" lon="5.84714">
        <ele>600</ele>
        <time>2019-04-09T13:52:15Z</time>
      </trkpt>
      <trkpt lat="44.32753" lon="5.84704">
        <ele>600</ele>
        <time>2019-04-09T13:52:16Z</time>
      </trkpt>
      <trkpt lat="44.32753" lon="5.84694">
        <ele>600</ele>
        <time>2019-04-09T13:52:17Z</time>
      </trkpt>
      <trkpt lat="44.32753" lon="5.84684">
        <ele>600</ele>
        <time>2019-04-09T13:52:18Z</time>
      </trkpt>
      <trkpt lat="44.32754" lon="5.84674">
        <ele>600</ele>
        <time>2019-04-09T13:52:19Z</time>
      </trkpt>
      <trkpt lat="44.32756" lon="5.84664">
        <ele>599</ele>
        <time>2019-04-09T13:52:20Z</time>
      </trkpt>
      <trkpt lat="44.32758" lon="5.84654">
        <ele>599</ele>
        <time>2019-04-09T13:52:21Z</time>
      </trkpt>
      <trkpt lat="44.3276" lon="5.84645">
        <ele>599</ele>
        <time>2019-04-09T13:52:22Z</time>
      </trkpt>
      <trkpt lat="44.32762" lon="5.84635">
        <ele>599</ele>
        <time>2019-04-09T13:52:23Z</time>
      </trkpt>
      <trkpt lat="44.32764" lon="5.84626">
        <ele>598</ele>
        <time>2019-04-09T13:52:24Z</time>
      </trkpt>
      <trkpt lat="44.32766" lon="5.84617">
        <ele>598</ele>
        <time>2019-04-09T13:52:25Z</time>
      </trkpt>
      <trkpt lat="44.32769" lon="5.84607">
        <ele>598</ele>
        <time>2019-04-09T13:52:26Z</time>
      </trkpt>
      <trkpt lat="44.32772" lon="5.84598">
        <ele>598</ele>
        <time>2019-04-09T13:52:27Z</time>
      </trkpt>
      <trkpt lat="44.32774" lon="5.84588">
        <ele>597</ele>
        <time>2019-04-09T13:52:28Z</time>
      </trkpt>
      <trkpt lat="44.32777" lon="5.84579">
        <ele>597</ele>
        <time>2019-04-09T13:52:29Z</time>
      </trkpt>
      <trkpt lat="44.32779" lon="5.84569">
        <ele>597</ele>
        <time>2019-04-09T13:52:30Z</time>
      </trkpt>
      <trkpt lat="44.32782" lon="5.8456">
        <ele>597</ele>
        <time>2019-04-09T13:52:31Z</time>
      </trkpt>
      <trkpt lat="44.32784" lon="5.8455">
        <ele>597</ele>
        <time>2019-04-09T13:52:32Z</time>
      </trkpt>
      <trkpt lat="44.32787" lon="5.84541">
        <ele>596</ele>
        <time>2019-04-09T13:52:33Z</time>
      </trkpt>
      <trkpt lat="44.32789" lon="5.84531">
        <ele>596</ele>
        <time>2019-04-09T13:52:34Z</time>
      </trkpt>
      <trkpt lat="44.32791" lon="5.84521">
        <ele>596</ele>
        <time>2019-04-09T13:52:35Z</time>
      </trkpt>
      <trkpt lat="44.32794" lon="5.84512">
        <ele>595</ele>
        <time>2019-04-09T13:52:36Z</time>
      </trkpt>
      <trkpt lat="44.32796" lon="5.84502">
        <ele>595</ele>
        <time>2019-04-09T13:52:37Z</time>
      </trkpt>
      <trkpt lat="44.32798" lon="5.84492">
        <ele>595</ele>
        <time>2019-04-09T13:52:38Z</time>
      </trkpt>
      <trkpt lat="44.32801" lon="5.84483">
        <ele>594</ele>
        <time>2019-04-09T13:52:39Z</time>
      </trkpt>
      <trkpt lat="44.32803" lon="5.84473">
        <ele>594</ele>
        <time>2019-04-09T13:52:40Z</time>
      </trkpt>
      <trkpt lat="44.32805" lon="5.84463">
        <ele>594</ele>
        <time>2019-04-09T13:52:41Z</time>
      </trkpt>
      <trkpt lat="44.32806" lon="5.84452">
        <ele>594</ele>
        <time>2019-04-09T13:52:42Z</time>
      </trkpt>
      <trkpt lat="44.32807" lon="5.84442">
        <ele>593</ele>
        <time>2019-04-09T13:52:43Z</time>
      </trkpt>
      <trkpt lat="44.32807" lon="5.84431">
        <ele>593</ele>
        <time>2019-04-09T13:52:44Z</time>
      </trkpt>
      <trkpt lat="44.32806" lon="5.84419">
        <ele>593</ele>
        <time>2019-04-09T13:52:45Z</time>
      </trkpt>
      <trkpt lat="44.32805" lon="5.84408">
        <ele>592</ele>
        <time>2019-04-09T13:52:46Z</time>
      </trkpt>
      <trkpt lat="44.32803" lon="5.84397">
        <ele>592</ele>
        <time>2019-04-09T13:52:47Z</time>
      </trkpt>
      <trkpt lat="44.32801" lon="5.84385">
        <ele>592</ele>
        <time>2019-04-09T13:52:48Z</time>
      </trkpt>
      <trkpt lat="44.328" lon="5.84373">
        <ele>591</ele>
        <time>2019-04-09T13:52:49Z</time>
      </trkpt>
      <trkpt lat="44.32798" lon="5.84362">
        <ele>591</ele>
        <time>2019-04-09T13:52:50Z</time>
      </trkpt>
      <trkpt lat="44.32797" lon="5.84351">
        <ele>590</ele>
        <time>2019-04-09T13:52:51Z</time>
      </trkpt>
      <trkpt lat="44.32796" lon="5.8434">
        <ele>590</ele>
        <time>2019-04-09T13:52:52Z</time>
      </trkpt>
      <trkpt lat="44.32795" lon="5.84329">
        <ele>589</ele>
        <time>2019-04-09T13:52:53Z</time>
      </trkpt>
      <trkpt lat="44.32794" lon="5.84318">
        <ele>589</ele>
        <time>2019-04-09T13:52:54Z</time>
      </trkpt>
      <trkpt lat="44.32792" lon="5.84307">
        <ele>588</ele>
        <time>2019-04-09T13:52:55Z</time>
      </trkpt>
      <trkpt lat="44.32791" lon="5.84296">
        <ele>588</ele>
        <time>2019-04-09T13:52:56Z</time>
      </trkpt>
      <trkpt lat="44.3279" lon="5.84285">
        <ele>587</ele>
        <time>2019-04-09T13:52:57Z</time>
      </trkpt>
      <trkpt lat="44.32788" lon="5.84274">
        <ele>587</ele>
        <time>2019-04-09T13:52:58Z</time>
      </trkpt>
      <trkpt lat="44.32787" lon="5.84263">
        <ele>587</ele>
        <time>2019-04-09T13:52:59Z</time>
      </trkpt>
      <trkpt lat="44.32785" lon="5.84251">
        <ele>586</ele>
        <time>2019-04-09T13:53:00Z</time>
      </trkpt>
      <trkpt lat="44.32784" lon="5.8424">
        <ele>586</ele>
        <time>2019-04-09T13:53:01Z</time>
      </trkpt>
      <trkpt lat="44.32782" lon="5.84228">
        <ele>585</ele>
        <time>2019-04-09T13:53:02Z</time>
      </trkpt>
      <trkpt lat="44.3278" lon="5.84215">
        <ele>585</ele>
        <time>2019-04-09T13:53:03Z</time>
      </trkpt>
      <trkpt lat="44.32779" lon="5.84203">
        <ele>585</ele>
        <time>2019-04-09T13:53:04Z</time>
      </trkpt>
      <trkpt lat="44.32777" lon="5.8419">
        <ele>584</ele>
        <time>2019-04-09T13:53:05Z</time>
      </trkpt>
      <trkpt lat="44.32775" lon="5.84178">
        <ele>584</ele>
        <time>2019-04-09T13:53:06Z</time>
      </trkpt>
      <trkpt lat="44.32774" lon="5.84166">
        <ele>584</ele>
        <time>2019-04-09T13:53:07Z</time>
      </trkpt>
      <trkpt lat="44.32772" lon="5.84154">
        <ele>583</ele>
        <time>2019-04-09T13:53:08Z</time>
      </trkpt>
      <trkpt lat="44.32771" lon="5.84142">
        <ele>583</ele>
        <time>2019-04-09T13:53:09Z</time>
      </trkpt>
      <trkpt lat="44.32769" lon="5.84131">
        <ele>583</ele>
        <time>2019-04-09T13:53:10Z</time>
      </trkpt>
      <trkpt lat="44.32768" lon="5.8412">
        <ele>583</ele>
        <time>2019-04-09T13:53:11Z</time>
      </trkpt>
      <trkpt lat="44.32766" lon="5.84109">
        <ele>583</ele>
        <time>2019-04-09T13:53:12Z</time>
      </trkpt>
      <trkpt lat="44.32765" lon="5.84098">
        <ele>583</ele>
        <time>2019-04-09T13:53:13Z</time>
      </trkpt>
      <trkpt lat="44.32763" lon="5.84087">
        <ele>583</ele>
        <time>2019-04-09T13:53:14Z</time>
      </trkpt>
      <trkpt lat="44.32761" lon="5.84076">
        <ele>583</ele>
        <time>2019-04-09T13:53:15Z</time>
      </trkpt>
      <trkpt lat="44.32758" lon="5.84065">
        <ele>583</ele>
        <time>2019-04-09T13:53:16Z</time>
      </trkpt>
      <trkpt lat="44.32755" lon="5.84056">
        <ele>583</ele>
        <time>2019-04-09T13:53:17Z</time>
      </trkpt>
      <trkpt lat="44.3275" lon="5.84047">
        <ele>583</ele>
        <time>2019-04-09T13:53:18Z</time>
      </trkpt>
      <trkpt lat="44.32746" lon="5.84039">
        <ele>583</ele>
        <time>2019-04-09T13:53:19Z</time>
      </trkpt>
      <trkpt lat="44.32741" lon="5.84032">
        <ele>582</ele>
        <time>2019-04-09T13:53:20Z</time>
      </trkpt>
      <trkpt lat="44.32736" lon="5.84025">
        <ele>582</ele>
        <time>2019-04-09T13:53:21Z</time>
      </trkpt>
      <trkpt lat="44.32731" lon="5.84018">
        <ele>582</ele>
        <time>2019-04-09T13:53:22Z</time>
      </trkpt>
      <trkpt lat="44.32726" lon="5.84011">
        <ele>582</ele>
        <time>2019-04-09T13:53:23Z</time>
      </trkpt>
      <trkpt lat="44.32722" lon="5.84004">
        <ele>581</ele>
        <time>2019-04-09T13:53:24Z</time>
      </trkpt>
      <trkpt lat="44.32718" lon="5.83996">
        <ele>581</ele>
        <time>2019-04-09T13:53:25Z</time>
      </trkpt>
      <trkpt lat="44.32714" lon="5.83988">
        <ele>581</ele>
        <time>2019-04-09T13:53:26Z</time>
      </trkpt>
      <trkpt lat="44.32711" lon="5.8398">
        <ele>581</ele>
        <time>2019-04-09T13:53:27Z</time>
      </trkpt>
      <trkpt lat="44.32708" lon="5.8397">
        <ele>581</ele>
        <time>2019-04-09T13:53:28Z</time>
      </trkpt>
      <trkpt lat="44.32705" lon="5.83961">
        <ele>581</ele>
        <time>2019-04-09T13:53:29Z</time>
      </trkpt>
      <trkpt lat="44.32703" lon="5.83951">
        <ele>581</ele>
        <time>2019-04-09T13:53:30Z</time>
      </trkpt>
      <trkpt lat="44.32701" lon="5.83941">
        <ele>581</ele>
        <time>2019-04-09T13:53:31Z</time>
      </trkpt>
      <trkpt lat="44.327" lon="5.83932">
        <ele>581</ele>
        <time>2019-04-09T13:53:32Z</time>
      </trkpt>
      <trkpt lat="44.32698" lon="5.83922">
        <ele>581</ele>
        <time>2019-04-09T13:53:33Z</time>
      </trkpt>
      <trkpt lat="44.32698" lon="5.83913">
        <ele>581</ele>
        <time>2019-04-09T13:53:34Z</time>
      </trkpt>
      <trkpt lat="44.32697" lon="5.83903">
        <ele>581</ele>
        <time>2019-04-09T13:53:35Z</time>
      </trkpt>
      <trkpt lat="44.32697" lon="5.83894">
        <ele>581</ele>
        <time>2019-04-09T13:53:36Z</time>
      </trkpt>
      <trkpt lat="44.32696" lon="5.83884">
        <ele>581</ele>
        <time>2019-04-09T13:53:37Z</time>
      </trkpt>
      <trkpt lat="44.32695" lon="5.83875">
        <ele>581</ele>
        <time>2019-04-09T13:53:38Z</time>
      </trkpt>
      <trkpt lat="44.32694" lon="5.83865">
        <ele>581</ele>
        <time>2019-04-09T13:53:39Z</time>
      </trkpt>
      <trkpt lat="44.32692" lon="5.83856">
        <ele>581</ele>
        <time>2019-04-09T13:53:40Z</time>
      </trkpt>
      <trkpt lat="44.3269" lon="5.83846">
        <ele>581</ele>
        <time>2019-04-09T13:53:41Z</time>
      </trkpt>
      <trkpt lat="44.32689" lon="5.83837">
        <ele>581</ele>
        <time>2019-04-09T13:53:42Z</time>
      </trkpt>
      <trkpt lat="44.32686" lon="5.83828">
        <ele>581</ele>
        <time>2019-04-09T13:53:43Z</time>
      </trkpt>
      <trkpt lat="44.32684" lon="5.83819">
        <ele>581</ele>
        <time>2019-04-09T13:53:44Z</time>
      </trkpt>
      <trkpt lat="44.32682" lon="5.8381">
        <ele>581</ele>
        <time>2019-04-09T13:53:45Z</time>
      </trkpt>
      <trkpt lat="44.3268" lon="5.83801">
        <ele>581</ele>
        <time>2019-04-09T13:53:46Z</time>
      </trkpt>
      <trkpt lat="44.32678" lon="5.83792">
        <ele>581</ele>
        <time>2019-04-09T13:53:47Z</time>
      </trkpt>
      <trkpt lat="44.32676" lon="5.83784">
        <ele>581</ele>
        <time>2019-04-09T13:53:48Z</time>
      </trkpt>
      <trkpt lat="44.32674" lon="5.83775">
        <ele>581</ele>
        <time>2019-04-09T13:53:49Z</time>
      </trkpt>
      <trkpt lat="44.32671" lon="5.83766">
        <ele>581</ele>
        <time>2019-04-09T13:53:50Z</time>
      </trkpt>
      <trkpt lat="44.32669" lon="5.83757">
        <ele>581</ele>
        <time>2019-04-09T13:53:51Z</time>
      </trkpt>
      <trkpt lat="44.32666" lon="5.83748">
        <ele>581</ele>
        <time>2019-04-09T13:53:52Z</time>
      </trkpt>
      <trkpt lat="44.32664" lon="5.83739">
        <ele>581</ele>
        <time>2019-04-09T13:53:53Z</time>
      </trkpt>
      <trkpt lat="44.32662" lon="5.83731">
        <ele>581</ele>
        <time>2019-04-09T13:53:54Z</time>
      </trkpt>
      <trkpt lat="44.32659" lon="5.83722">
        <ele>581</ele>
        <time>2019-04-09T13:53:55Z</time>
      </trkpt>
      <trkpt lat="44.32657" lon="5.83714">
        <ele>581</ele>
        <time>2019-04-09T13:53:56Z</time>
      </trkpt>
      <trkpt lat="44.32655" lon="5.83706">
        <ele>581</ele>
        <time>2019-04-09T13:53:57Z</time>
      </trkpt>
      <trkpt lat="44.32653" lon="5.83697">
        <ele>581</ele>
        <time>2019-04-09T13:53:58Z</time>
      </trkpt>
      <trkpt lat="44.32651" lon="5.83689">
        <ele>581</ele>
        <time>2019-04-09T13:53:59Z</time>
      </trkpt>
      <trkpt lat="44.32649" lon="5.83681">
        <ele>581</ele>
        <time>2019-04-09T13:54:00Z</time>
      </trkpt>
      <trkpt lat="44.32647" lon="5.83673">
        <ele>581</ele>
        <time>2019-04-09T13:54:01Z</time>
      </trkpt>
      <trkpt lat="44.32645" lon="5.83665">
        <ele>581</ele>
        <time>2019-04-09T13:54:02Z</time>
      </trkpt>
      <trkpt lat="44.32642" lon="5.83656">
        <ele>580</ele>
        <time>2019-04-09T13:54:03Z</time>
      </trkpt>
      <trkpt lat="44.3264" lon="5.83648">
        <ele>580</ele>
        <time>2019-04-09T13:54:04Z</time>
      </trkpt>
      <trkpt lat="44.32638" lon="5.83639">
        <ele>580</ele>
        <time>2019-04-09T13:54:05Z</time>
      </trkpt>
      <trkpt lat="44.32636" lon="5.83631">
        <ele>580</ele>
        <time>2019-04-09T13:54:06Z</time>
      </trkpt>
      <trkpt lat="44.32634" lon="5.83623">
        <ele>580</ele>
        <time>2019-04-09T13:54:07Z</time>
      </trkpt>
      <trkpt lat="44.32632" lon="5.83614">
        <ele>580</ele>
        <time>2019-04-09T13:54:08Z</time>
      </trkpt>
      <trkpt lat="44.3263" lon="5.83605">
        <ele>580</ele>
        <time>2019-04-09T13:54:09Z</time>
      </trkpt>
      <trkpt lat="44.32629" lon="5.83597">
        <ele>580</ele>
        <time>2019-04-09T13:54:10Z</time>
      </trkpt>
      <trkpt lat="44.32627" lon="5.83588">
        <ele>580</ele>
        <time>2019-04-09T13:54:11Z</time>
      </trkpt>
      <trkpt lat="44.32627" lon="5.8358">
        <ele>580</ele>
        <time>2019-04-09T13:54:12Z</time>
      </trkpt>
      <trkpt lat="44.32626" lon="5.83571">
        <ele>580</ele>
        <time>2019-04-09T13:54:13Z</time>
      </trkpt>
      <trkpt lat="44.32626" lon="5.83563">
        <ele>580</ele>
        <time>2019-04-09T13:54:14Z</time>
      </trkpt>
      <trkpt lat="44.32626" lon="5.83554">
        <ele>580</ele>
        <time>2019-04-09T13:54:15Z</time>
      </trkpt>
      <trkpt lat="44.32626" lon="5.83545">
        <ele>580</ele>
        <time>2019-04-09T13:54:16Z</time>
      </trkpt>
      <trkpt lat="44.32627" lon="5.83537">
        <ele>580</ele>
        <time>2019-04-09T13:54:17Z</time>
      </trkpt>
      <trkpt lat="44.32628" lon="5.8353">
        <ele>580</ele>
        <time>2019-04-09T13:54:18Z</time>
      </trkpt>
      <trkpt lat="44.32628" lon="5.83522">
        <ele>580</ele>
        <time>2019-04-09T13:54:19Z</time>
      </trkpt>
      <trkpt lat="44.32629" lon="5.83514">
        <ele>580</ele>
        <time>2019-04-09T13:54:20Z</time>
      </trkpt>
      <trkpt lat="44.3263" lon="5.83507">
        <ele>580</ele>
        <time>2019-04-09T13:54:21Z</time>
      </trkpt>
      <trkpt lat="44.3263" lon="5.835">
        <ele>580</ele>
        <time>2019-04-09T13:54:22Z</time>
      </trkpt>
      <trkpt lat="44.32631" lon="5.83493">
        <ele>580</ele>
        <time>2019-04-09T13:54:23Z</time>
      </trkpt>
      <trkpt lat="44.32631" lon="5.83486">
        <ele>580</ele>
        <time>2019-04-09T13:54:24Z</time>
      </trkpt>
      <trkpt lat="44.32633" lon="5.83479">
        <ele>579</ele>
        <time>2019-04-09T13:54:25Z</time>
      </trkpt>
      <trkpt lat="44.32634" lon="5.83471">
        <ele>579</ele>
        <time>2019-04-09T13:54:26Z</time>
      </trkpt>
      <trkpt lat="44.32635" lon="5.83464">
        <ele>579</ele>
        <time>2019-04-09T13:54:27Z</time>
      </trkpt>
      <trkpt lat="44.32636" lon="5.83456">
        <ele>579</ele>
        <time>2019-04-09T13:54:28Z</time>
      </trkpt>
      <trkpt lat="44.32637" lon="5.83448">
        <ele>579</ele>
        <time>2019-04-09T13:54:29Z</time>
      </trkpt>
      <trkpt lat="44.32638" lon="5.83441">
        <ele>579</ele>
        <time>2019-04-09T13:54:30Z</time>
      </trkpt>
      <trkpt lat="44.32639" lon="5.83433">
        <ele>579</ele>
        <time>2019-04-09T13:54:31Z</time>
      </trkpt>
      <trkpt lat="44.32639" lon="5.83427">
        <ele>579</ele>
        <time>2019-04-09T13:54:32Z</time>
      </trkpt>
      <trkpt lat="44.3264" lon="5.8342">
        <ele>579</ele>
        <time>2019-04-09T13:54:33Z</time>
      </trkpt>
      <trkpt lat="44.32641" lon="5.83414">
        <ele>579</ele>
        <time>2019-04-09T13:54:34Z</time>
      </trkpt>
      <trkpt lat="44.32642" lon="5.83408">
        <ele>579</ele>
        <time>2019-04-09T13:54:35Z</time>
      </trkpt>
      <trkpt lat="44.32643" lon="5.83402">
        <ele>579</ele>
        <time>2019-04-09T13:54:36Z</time>
      </trkpt>
      <trkpt lat="44.32644" lon="5.83396">
        <ele>579</ele>
        <time>2019-04-09T13:54:37Z</time>
      </trkpt>
      <trkpt lat="44.32645" lon="5.83389">
        <ele>578</ele>
        <time>2019-04-09T13:54:38Z</time>
      </trkpt>
      <trkpt lat="44.32645" lon="5.83383">
        <ele>578</ele>
        <time>2019-04-09T13:54:39Z</time>
      </trkpt>
      <trkpt lat="44.32646" lon="5.83377">
        <ele>578</ele>
        <time>2019-04-09T13:54:40Z</time>
      </trkpt>
      <trkpt lat="44.32647" lon="5.83371">
        <ele>577</ele>
        <time>2019-04-09T13:54:41Z</time>
      </trkpt>
      <trkpt lat="44.32648" lon="5.83365">
        <ele>577</ele>
        <time>2019-04-09T13:54:42Z</time>
      </trkpt>
      <trkpt lat="44.32648" lon="5.83359">
        <ele>577</ele>
        <time>2019-04-09T13:54:43Z</time>
      </trkpt>
      <trkpt lat="44.32649" lon="5.83353">
        <ele>576</ele>
        <time>2019-04-09T13:54:44Z</time>
      </trkpt>
      <trkpt lat="44.3265" lon="5.83347">
        <ele>576</ele>
        <time>2019-04-09T13:54:45Z</time>
      </trkpt>
      <trkpt lat="44.3265" lon="5.83341">
        <ele>576</ele>
        <time>2019-04-09T13:54:46Z</time>
      </trkpt>
      <trkpt lat="44.32651" lon="5.83335">
        <ele>576</ele>
        <time>2019-04-09T13:54:47Z</time>
      </trkpt>
      <trkpt lat="44.32652" lon="5.83328">
        <ele>576</ele>
        <time>2019-04-09T13:54:48Z</time>
      </trkpt>
      <trkpt lat="44.32653" lon="5.83322">
        <ele>576</ele>
        <time>2019-04-09T13:54:49Z</time>
      </trkpt>
      <trkpt lat="44.32654" lon="5.83316">
        <ele>576</ele>
        <time>2019-04-09T13:54:50Z</time>
      </trkpt>
      <trkpt lat="44.32655" lon="5.83309">
        <ele>576</ele>
        <time>2019-04-09T13:54:51Z</time>
      </trkpt>
      <trkpt lat="44.32656" lon="5.83303">
        <ele>576</ele>
        <time>2019-04-09T13:54:52Z</time>
      </trkpt>
      <trkpt lat="44.32657" lon="5.83297">
        <ele>576</ele>
        <time>2019-04-09T13:54:53Z</time>
      </trkpt>
      <trkpt lat="44.32658" lon="5.83292">
        <ele>576</ele>
        <time>2019-04-09T13:54:54Z</time>
      </trkpt>
      <trkpt lat="44.32659" lon="5.83289">
        <ele>576</ele>
        <time>2019-04-09T13:54:55Z</time>
      </trkpt>
      <trkpt lat="44.3266" lon="5.83286">
        <ele>576</ele>
        <time>2019-04-09T13:54:56Z</time>
      </trkpt>
      <trkpt lat="44.3266" lon="5.83283">
        <ele>576</ele>
        <time>2019-04-09T13:54:57Z</time>
      </trkpt>
      <trkpt lat="44.32661" lon="5.83282">
        <ele>576</ele>
        <time>2019-04-09T13:54:58Z</time>
      </trkpt>
      <trkpt lat="44.32661" lon="5.8328">
        <ele>576</ele>
        <time>2019-04-09T13:54:59Z</time>
      </trkpt>
      <trkpt lat="44.32661" lon="5.83278">
        <ele>576</ele>
        <time>2019-04-09T13:55:00Z</time>
      </trkpt>
      <trkpt lat="44.32662" lon="5.83276">
        <ele>576</ele>
        <time>2019-04-09T13:55:02Z</time>
      </trkpt>
      <trkpt lat="44.32661" lon="5.83274">
        <ele>576</ele>
        <time>2019-04-09T13:55:03Z</time>
      </trkpt>
      <trkpt lat="44.32661" lon="5.83272">
        <ele>576</ele>
        <time>2019-04-09T13:55:04Z</time>
      </trkpt>
      <trkpt lat="44.3266" lon="5.83269">
        <ele>576</ele>
        <time>2019-04-09T13:55:05Z</time>
      </trkpt>
      <trkpt lat="44.32659" lon="5.83267">
        <ele>576</ele>
        <time>2019-04-09T13:55:06Z</time>
      </trkpt>
      <trkpt lat="44.32657" lon="5.83265">
        <ele>576</ele>
        <time>2019-04-09T13:55:07Z</time>
      </trkpt>
      <trkpt lat="44.32655" lon="5.83264">
        <ele>576</ele>
        <time>2019-04-09T13:55:08Z</time>
      </trkpt>
      <trkpt lat="44.32653" lon="5.83263">
        <ele>576</ele>
        <time>2019-04-09T13:55:09Z</time>
      </trkpt>
      <trkpt lat="44.3265" lon="5.83261">
        <ele>576</ele>
        <time>2019-04-09T13:55:10Z</time>
      </trkpt>
      <trkpt lat="44.32648" lon="5.83259">
        <ele>576</ele>
        <time>2019-04-09T13:55:11Z</time>
      </trkpt>
      <trkpt lat="44.32646" lon="5.83257">
        <ele>576</ele>
        <time>2019-04-09T13:55:12Z</time>
      </trkpt>
      <trkpt lat="44.32643" lon="5.83255">
        <ele>576</ele>
        <time>2019-04-09T13:55:13Z</time>
      </trkpt>
      <trkpt lat="44.32641" lon="5.83253">
        <ele>576</ele>
        <time>2019-04-09T13:55:14Z</time>
      </trkpt>
      <trkpt lat="44.32638" lon="5.83251">
        <ele>576</ele>
        <time>2019-04-09T13:55:15Z</time>
      </trkpt>
      <trkpt lat="44.32635" lon="5.83249">
        <ele>576</ele>
        <time>2019-04-09T13:55:16Z</time>
      </trkpt>
      <trkpt lat="44.32632" lon="5.83248">
        <ele>576</ele>
        <time>2019-04-09T13:55:17Z</time>
      </trkpt>
      <trkpt lat="44.32629" lon="5.83246">
        <ele>576</ele>
        <time>2019-04-09T13:55:18Z</time>
      </trkpt>
      <trkpt lat="44.32626" lon="5.83244">
        <ele>576</ele>
        <time>2019-04-09T13:55:19Z</time>
      </trkpt>
      <trkpt lat="44.32623" lon="5.83242">
        <ele>576</ele>
        <time>2019-04-09T13:55:20Z</time>
      </trkpt>
      <trkpt lat="44.3262" lon="5.8324">
        <ele>576</ele>
        <time>2019-04-09T13:55:21Z</time>
      </trkpt>
      <trkpt lat="44.32616" lon="5.83239">
        <ele>576</ele>
        <time>2019-04-09T13:55:22Z</time>
      </trkpt>
      <trkpt lat="44.32613" lon="5.83237">
        <ele>576</ele>
        <time>2019-04-09T13:55:23Z</time>
      </trkpt>
      <trkpt lat="44.3261" lon="5.83235">
        <ele>576</ele>
        <time>2019-04-09T13:55:24Z</time>
      </trkpt>
      <trkpt lat="44.32607" lon="5.83232">
        <ele>576</ele>
        <time>2019-04-09T13:55:25Z</time>
      </trkpt>
      <trkpt lat="44.32604" lon="5.8323">
        <ele>576</ele>
        <time>2019-04-09T13:55:26Z</time>
      </trkpt>
      <trkpt lat="44.326" lon="5.83229">
        <ele>576</ele>
        <time>2019-04-09T13:55:27Z</time>
      </trkpt>
      <trkpt lat="44.32597" lon="5.83227">
        <ele>576</ele>
        <time>2019-04-09T13:55:28Z</time>
      </trkpt>
      <trkpt lat="44.32593" lon="5.83224">
        <ele>576</ele>
        <time>2019-04-09T13:55:29Z</time>
      </trkpt>
      <trkpt lat="44.3259" lon="5.83223">
        <ele>576</ele>
        <time>2019-04-09T13:55:30Z</time>
      </trkpt>
      <trkpt lat="44.32586" lon="5.83221">
        <ele>576</ele>
        <time>2019-04-09T13:55:31Z</time>
      </trkpt>
      <trkpt lat="44.32583" lon="5.83219">
        <ele>576</ele>
        <time>2019-04-09T13:55:32Z</time>
      </trkpt>
      <trkpt lat="44.3258" lon="5.83217">
        <ele>576</ele>
        <time>2019-04-09T13:55:33Z</time>
      </trkpt>
      <trkpt lat="44.32576" lon="5.83216">
        <ele>576</ele>
        <time>2019-04-09T13:55:34Z</time>
      </trkpt>
      <trkpt lat="44.32572" lon="5.83214">
        <ele>576</ele>
        <time>2019-04-09T13:55:35Z</time>
      </trkpt>
      <trkpt lat="44.32568" lon="5.83213">
        <ele>576</ele>
        <time>2019-04-09T13:55:36Z</time>
      </trkpt>
      <trkpt lat="44.32564" lon="5.83211">
        <ele>576</ele>
        <time>2019-04-09T13:55:37Z</time>
      </trkpt>
      <trkpt lat="44.3256" lon="5.83209">
        <ele>576</ele>
        <time>2019-04-09T13:55:38Z</time>
      </trkpt>
      <trkpt lat="44.32556" lon="5.83208">
        <ele>576</ele>
        <time>2019-04-09T13:55:39Z</time>
      </trkpt>
      <trkpt lat="44.32552" lon="5.83206">
        <ele>576</ele>
        <time>2019-04-09T13:55:40Z</time>
      </trkpt>
      <trkpt lat="44.32547" lon="5.83204">
        <ele>576</ele>
        <time>2019-04-09T13:55:41Z</time>
      </trkpt>
      <trkpt lat="44.32542" lon="5.83202">
        <ele>576</ele>
        <time>2019-04-09T13:55:42Z</time>
      </trkpt>
      <trkpt lat="44.32538" lon="5.832">
        <ele>576</ele>
        <time>2019-04-09T13:55:43Z</time>
      </trkpt>
      <trkpt lat="44.32533" lon="5.83197">
        <ele>576</ele>
        <time>2019-04-09T13:55:44Z</time>
      </trkpt>
      <trkpt lat="44.32529" lon="5.83195">
        <ele>576</ele>
        <time>2019-04-09T13:55:45Z</time>
      </trkpt>
      <trkpt lat="44.32524" lon="5.83193">
        <ele>576</ele>
        <time>2019-04-09T13:55:46Z</time>
      </trkpt>
      <trkpt lat="44.32519" lon="5.83191">
        <ele>576</ele>
        <time>2019-04-09T13:55:47Z</time>
      </trkpt>
      <trkpt lat="44.32514" lon="5.83189">
        <ele>576</ele>
        <time>2019-04-09T13:55:48Z</time>
      </trkpt>
      <trkpt lat="44.32509" lon="5.83187">
        <ele>576</ele>
        <time>2019-04-09T13:55:49Z</time>
      </trkpt>
      <trkpt lat="44.32505" lon="5.83184">
        <ele>576</ele>
        <time>2019-04-09T13:55:50Z</time>
      </trkpt>
      <trkpt lat="44.32499" lon="5.83182">
        <ele>576</ele>
        <time>2019-04-09T13:55:51Z</time>
      </trkpt>
      <trkpt lat="44.32495" lon="5.8318">
        <ele>576</ele>
        <time>2019-04-09T13:55:52Z</time>
      </trkpt>
      <trkpt lat="44.3249" lon="5.83177">
        <ele>576</ele>
        <time>2019-04-09T13:55:53Z</time>
      </trkpt>
      <trkpt lat="44.32485" lon="5.83174">
        <ele>576</ele>
        <time>2019-04-09T13:55:54Z</time>
      </trkpt>
      <trkpt lat="44.32481" lon="5.83171">
        <ele>576</ele>
        <time>2019-04-09T13:55:55Z</time>
      </trkpt>
      <trkpt lat="44.32476" lon="5.83168">
        <ele>576</ele>
        <time>2019-04-09T13:55:56Z</time>
      </trkpt>
      <trkpt lat="44.32471" lon="5.83165">
        <ele>576</ele>
        <time>2019-04-09T13:55:57Z</time>
      </trkpt>
      <trkpt lat="44.32467" lon="5.83162">
        <ele>576</ele>
        <time>2019-04-09T13:55:58Z</time>
      </trkpt>
      <trkpt lat="44.32463" lon="5.83158">
        <ele>576</ele>
        <time>2019-04-09T13:55:59Z</time>
      </trkpt>
      <trkpt lat="44.32459" lon="5.83155">
        <ele>576</ele>
        <time>2019-04-09T13:56:00Z</time>
      </trkpt>
      <trkpt lat="44.32455" lon="5.83151">
        <ele>576</ele>
        <time>2019-04-09T13:56:01Z</time>
      </trkpt>
      <trkpt lat="44.3245" lon="5.83147">
        <ele>576</ele>
        <time>2019-04-09T13:56:02Z</time>
      </trkpt>
      <trkpt lat="44.32446" lon="5.83143">
        <ele>576</ele>
        <time>2019-04-09T13:56:03Z</time>
      </trkpt>
      <trkpt lat="44.32442" lon="5.83139">
        <ele>576</ele>
        <time>2019-04-09T13:56:04Z</time>
      </trkpt>
      <trkpt lat="44.32438" lon="5.83135">
        <ele>576</ele>
        <time>2019-04-09T13:56:05Z</time>
      </trkpt>
      <trkpt lat="44.32433" lon="5.83131">
        <ele>576</ele>
        <time>2019-04-09T13:56:06Z</time>
      </trkpt>
      <trkpt lat="44.32429" lon="5.83126">
        <ele>576</ele>
        <time>2019-04-09T13:56:07Z</time>
      </trkpt>
      <trkpt lat="44.32424" lon="5.83122">
        <ele>576</ele>
        <time>2019-04-09T13:56:08Z</time>
      </trkpt>
      <trkpt lat="44.32419" lon="5.83117">
        <ele>576</ele>
        <time>2019-04-09T13:56:09Z</time>
      </trkpt>
      <trkpt lat="44.32415" lon="5.83112">
        <ele>576</ele>
        <time>2019-04-09T13:56:10Z</time>
      </trkpt>
      <trkpt lat="44.3241" lon="5.83106">
        <ele>576</ele>
        <time>2019-04-09T13:56:11Z</time>
      </trkpt>
      <trkpt lat="44.32406" lon="5.83101">
        <ele>576</ele>
        <time>2019-04-09T13:56:12Z</time>
      </trkpt>
      <trkpt lat="44.32402" lon="5.83095">
        <ele>576</ele>
        <time>2019-04-09T13:56:13Z</time>
      </trkpt>
      <trkpt lat="44.32398" lon="5.83088">
        <ele>576</ele>
        <time>2019-04-09T13:56:14Z</time>
      </trkpt>
      <trkpt lat="44.32394" lon="5.83081">
        <ele>576</ele>
        <time>2019-04-09T13:56:15Z</time>
      </trkpt>
      <trkpt lat="44.32391" lon="5.83075">
        <ele>576</ele>
        <time>2019-04-09T13:56:16Z</time>
      </trkpt>
      <trkpt lat="44.32388" lon="5.83068">
        <ele>576</ele>
        <time>2019-04-09T13:56:17Z</time>
      </trkpt>
      <trkpt lat="44.32385" lon="5.83061">
        <ele>576</ele>
        <time>2019-04-09T13:56:18Z</time>
      </trkpt>
      <trkpt lat="44.32383" lon="5.83054">
        <ele>576</ele>
        <time>2019-04-09T13:56:19Z</time>
      </trkpt>
      <trkpt lat="44.3238" lon="5.83047">
        <ele>576</ele>
        <time>2019-04-09T13:56:20Z</time>
      </trkpt>
      <trkpt lat="44.32378" lon="5.8304">
        <ele>576</ele>
        <time>2019-04-09T13:56:21Z</time>
      </trkpt>
      <trkpt lat="44.32376" lon="5.83034">
        <ele>576</ele>
        <time>2019-04-09T13:56:22Z</time>
      </trkpt>
      <trkpt lat="44.32375" lon="5.83027">
        <ele>576</ele>
        <time>2019-04-09T13:56:23Z</time>
      </trkpt>
      <trkpt lat="44.32373" lon="5.8302">
        <ele>576</ele>
        <time>2019-04-09T13:56:24Z</time>
      </trkpt>
      <trkpt lat="44.3237" lon="5.83013">
        <ele>576</ele>
        <time>2019-04-09T13:56:25Z</time>
      </trkpt>
      <trkpt lat="44.32368" lon="5.83006">
        <ele>576</ele>
        <time>2019-04-09T13:56:26Z</time>
      </trkpt>
      <trkpt lat="44.32365" lon="5.83">
        <ele>576</ele>
        <time>2019-04-09T13:56:27Z</time>
      </trkpt>
      <trkpt lat="44.32362" lon="5.82993">
        <ele>576</ele>
        <time>2019-04-09T13:56:28Z</time>
      </trkpt>
      <trkpt lat="44.32359" lon="5.82987">
        <ele>576</ele>
        <time>2019-04-09T13:56:29Z</time>
      </trkpt>
      <trkpt lat="44.32355" lon="5.82982">
        <ele>576</ele>
        <time>2019-04-09T13:56:30Z</time>
      </trkpt>
      <trkpt lat="44.32351" lon="5.82976">
        <ele>576</ele>
        <time>2019-04-09T13:56:31Z</time>
      </trkpt>
      <trkpt lat="44.32346" lon="5.82971">
        <ele>576</ele>
        <time>2019-04-09T13:56:32Z</time>
      </trkpt>
      <trkpt lat="44.32341" lon="5.82967">
        <ele>576</ele>
        <time>2019-04-09T13:56:33Z</time>
      </trkpt>
      <trkpt lat="44.32336" lon="5.82963">
        <ele>576</ele>
        <time>2019-04-09T13:56:34Z</time>
      </trkpt>
      <trkpt lat="44.3233" lon="5.82959">
        <ele>576</ele>
        <time>2019-04-09T13:56:35Z</time>
      </trkpt>
      <trkpt lat="44.32324" lon="5.82955">
        <ele>576</ele>
        <time>2019-04-09T13:56:36Z</time>
      </trkpt>
      <trkpt lat="44.32318" lon="5.82952">
        <ele>576</ele>
        <time>2019-04-09T13:56:37Z</time>
      </trkpt>
      <trkpt lat="44.32312" lon="5.82948">
        <ele>576</ele>
        <time>2019-04-09T13:56:38Z</time>
      </trkpt>
      <trkpt lat="44.32306" lon="5.82945">
        <ele>576</ele>
        <time>2019-04-09T13:56:39Z</time>
      </trkpt>
      <trkpt lat="44.323" lon="5.82941">
        <ele>576</ele>
        <time>2019-04-09T13:56:40Z</time>
      </trkpt>
      <trkpt lat="44.32293" lon="5.82938">
        <ele>576</ele>
        <time>2019-04-09T13:56:41Z</time>
      </trkpt>
      <trkpt lat="44.32287" lon="5.82935">
        <ele>576</ele>
        <time>2019-04-09T13:56:42Z</time>
      </trkpt>
      <trkpt lat="44.3228" lon="5.82932">
        <ele>576</ele>
        <time>2019-04-09T13:56:43Z</time>
      </trkpt>
      <trkpt lat="44.32274" lon="5.82929">
        <ele>576</ele>
        <time>2019-04-09T13:56:44Z</time>
      </trkpt>
      <trkpt lat="44.32268" lon="5.82926">
        <ele>576</ele>
        <time>2019-04-09T13:56:45Z</time>
      </trkpt>
      <trkpt lat="44.32261" lon="5.82923">
        <ele>576</ele>
        <time>2019-04-09T13:56:46Z</time>
      </trkpt>
      <trkpt lat="44.32255" lon="5.8292">
        <ele>576</ele>
        <time>2019-04-09T13:56:47Z</time>
      </trkpt>
      <trkpt lat="44.32248" lon="5.82917">
        <ele>576</ele>
        <time>2019-04-09T13:56:48Z</time>
      </trkpt>
      <trkpt lat="44.32241" lon="5.82914">
        <ele>576</ele>
        <time>2019-04-09T13:56:49Z</time>
      </trkpt>
      <trkpt lat="44.32235" lon="5.82911">
        <ele>576</ele>
        <time>2019-04-09T13:56:50Z</time>
      </trkpt>
      <trkpt lat="44.32228" lon="5.82907">
        <ele>576</ele>
        <time>2019-04-09T13:56:51Z</time>
      </trkpt>
      <trkpt lat="44.32221" lon="5.82904">
        <ele>576</ele>
        <time>2019-04-09T13:56:52Z</time>
      </trkpt>
      <trkpt lat="44.32214" lon="5.82901">
        <ele>576</ele>
        <time>2019-04-09T13:56:53Z</time>
      </trkpt>
      <trkpt lat="44.32208" lon="5.82897">
        <ele>576</ele>
        <time>2019-04-09T13:56:54Z</time>
      </trkpt>
      <trkpt lat="44.32202" lon="5.82894">
        <ele>576</ele>
        <time>2019-04-09T13:56:55Z</time>
      </trkpt>
      <trkpt lat="44.32196" lon="5.82891">
        <ele>576</ele>
        <time>2019-04-09T13:56:56Z</time>
      </trkpt>
      <trkpt lat="44.3219" lon="5.82888">
        <ele>576</ele>
        <time>2019-04-09T13:56:57Z</time>
      </trkpt>
      <trkpt lat="44.32183" lon="5.82885">
        <ele>576</ele>
        <time>2019-04-09T13:56:58Z</time>
      </trkpt>
      <trkpt lat="44.32177" lon="5.82882">
        <ele>576</ele>
        <time>2019-04-09T13:56:59Z</time>
      </trkpt>
      <trkpt lat="44.32171" lon="5.82879">
        <ele>576</ele>
        <time>2019-04-09T13:57:00Z</time>
      </trkpt>
      <trkpt lat="44.32165" lon="5.82876">
        <ele>576</ele>
        <time>2019-04-09T13:57:01Z</time>
      </trkpt>
      <trkpt lat="44.32158" lon="5.82873">
        <ele>576</ele>
        <time>2019-04-09T13:57:02Z</time>
      </trkpt>
      <trkpt lat="44.32152" lon="5.82871">
        <ele>576</ele>
        <time>2019-04-09T13:57:03Z</time>
      </trkpt>
      <trkpt lat="44.32146" lon="5.82869">
        <ele>576</ele>
        <time>2019-04-09T13:57:04Z</time>
      </trkpt>
      <trkpt lat="44.3214" lon="5.82866">
        <ele>576</ele>
        <time>2019-04-09T13:57:05Z</time>
      </trkpt>
      <trkpt lat="44.32134" lon="5.82864">
        <ele>576</ele>
        <time>2019-04-09T13:57:06Z</time>
      </trkpt>
      <trkpt lat="44.32128" lon="5.82862">
        <ele>576</ele>
        <time>2019-04-09T13:57:07Z</time>
      </trkpt>
      <trkpt lat="44.32122" lon="5.8286">
        <ele>576</ele>
        <time>2019-04-09T13:57:08Z</time>
      </trkpt>
      <trkpt lat="44.32116" lon="5.82858">
        <ele>576</ele>
        <time>2019-04-09T13:57:09Z</time>
      </trkpt>
      <trkpt lat="44.32111" lon="5.82857">
        <ele>576</ele>
        <time>2019-04-09T13:57:10Z</time>
      </trkpt>
      <trkpt lat="44.32105" lon="5.82856">
        <ele>576</ele>
        <time>2019-04-09T13:57:11Z</time>
      </trkpt>
      <trkpt lat="44.32099" lon="5.82854">
        <ele>576</ele>
        <time>2019-04-09T13:57:12Z</time>
      </trkpt>
      <trkpt lat="44.32094" lon="5.82852">
        <ele>576</ele>
        <time>2019-04-09T13:57:13Z</time>
      </trkpt>
      <trkpt lat="44.32088" lon="5.82851">
        <ele>576</ele>
        <time>2019-04-09T13:57:14Z</time>
      </trkpt>
      <trkpt lat="44.32082" lon="5.82848">
        <ele>576</ele>
        <time>2019-04-09T13:57:15Z</time>
      </trkpt>
      <trkpt lat="44.32076" lon="5.82845">
        <ele>576</ele>
        <time>2019-04-09T13:57:16Z</time>
      </trkpt>
      <trkpt lat="44.32069" lon="5.82843">
        <ele>576</ele>
        <time>2019-04-09T13:57:17Z</time>
      </trkpt>
      <trkpt lat="44.32063" lon="5.82839">
        <ele>576</ele>
        <time>2019-04-09T13:57:18Z</time>
      </trkpt>
      <trkpt lat="44.32057" lon="5.82835">
        <ele>576</ele>
        <time>2019-04-09T13:57:19Z</time>
      </trkpt>
      <trkpt lat="44.32051" lon="5.8283">
        <ele>576</ele>
        <time>2019-04-09T13:57:20Z</time>
      </trkpt>
      <trkpt lat="44.32045" lon="5.82826">
        <ele>576</ele>
        <time>2019-04-09T13:57:21Z</time>
      </trkpt>
      <trkpt lat="44.32038" lon="5.82822">
        <ele>576</ele>
        <time>2019-04-09T13:57:22Z</time>
      </trkpt>
      <trkpt lat="44.32031" lon="5.82818">
        <ele>576</ele>
        <time>2019-04-09T13:57:23Z</time>
      </trkpt>
      <trkpt lat="44.32025" lon="5.82813">
        <ele>575</ele>
        <time>2019-04-09T13:57:24Z</time>
      </trkpt>
      <trkpt lat="44.32019" lon="5.82808">
        <ele>575</ele>
        <time>2019-04-09T13:57:25Z</time>
      </trkpt>
      <trkpt lat="44.32013" lon="5.82805">
        <ele>575</ele>
        <time>2019-04-09T13:57:26Z</time>
      </trkpt>
      <trkpt lat="44.32006" lon="5.82802">
        <ele>574</ele>
        <time>2019-04-09T13:57:27Z</time>
      </trkpt>
      <trkpt lat="44.32" lon="5.82799">
        <ele>574</ele>
        <time>2019-04-09T13:57:28Z</time>
      </trkpt>
      <trkpt lat="44.31993" lon="5.82796">
        <ele>573</ele>
        <time>2019-04-09T13:57:29Z</time>
      </trkpt>
      <trkpt lat="44.31986" lon="5.82793">
        <ele>573</ele>
        <time>2019-04-09T13:57:30Z</time>
      </trkpt>
      <trkpt lat="44.31979" lon="5.82791">
        <ele>573</ele>
        <time>2019-04-09T13:57:31Z</time>
      </trkpt>
      <trkpt lat="44.31972" lon="5.82788">
        <ele>572</ele>
        <time>2019-04-09T13:57:32Z</time>
      </trkpt>
      <trkpt lat="44.31965" lon="5.82785">
        <ele>572</ele>
        <time>2019-04-09T13:57:33Z</time>
      </trkpt>
      <trkpt lat="44.31958" lon="5.82782">
        <ele>572</ele>
        <time>2019-04-09T13:57:34Z</time>
      </trkpt>
      <trkpt lat="44.31951" lon="5.8278">
        <ele>571</ele>
        <time>2019-04-09T13:57:35Z</time>
      </trkpt>
      <trkpt lat="44.31945" lon="5.82778">
        <ele>571</ele>
        <time>2019-04-09T13:57:36Z</time>
      </trkpt>
      <trkpt lat="44.31938" lon="5.82776">
        <ele>571</ele>
        <time>2019-04-09T13:57:37Z</time>
      </trkpt>
      <trkpt lat="44.31931" lon="5.82774">
        <ele>571</ele>
        <time>2019-04-09T13:57:38Z</time>
      </trkpt>
      <trkpt lat="44.31924" lon="5.82773">
        <ele>570</ele>
        <time>2019-04-09T13:57:39Z</time>
      </trkpt>
      <trkpt lat="44.31918" lon="5.82773">
        <ele>570</ele>
        <time>2019-04-09T13:57:40Z</time>
      </trkpt>
      <trkpt lat="44.31911" lon="5.82772">
        <ele>570</ele>
        <time>2019-04-09T13:57:41Z</time>
      </trkpt>
      <trkpt lat="44.31903" lon="5.82771">
        <ele>570</ele>
        <time>2019-04-09T13:57:42Z</time>
      </trkpt>
      <trkpt lat="44.31897" lon="5.82771">
        <ele>569</ele>
        <time>2019-04-09T13:57:43Z</time>
      </trkpt>
      <trkpt lat="44.31889" lon="5.82771">
        <ele>569</ele>
        <time>2019-04-09T13:57:44Z</time>
      </trkpt>
      <trkpt lat="44.31882" lon="5.8277">
        <ele>569</ele>
        <time>2019-04-09T13:57:45Z</time>
      </trkpt>
      <trkpt lat="44.31874" lon="5.8277">
        <ele>569</ele>
        <time>2019-04-09T13:57:46Z</time>
      </trkpt>
      <trkpt lat="44.31867" lon="5.82768">
        <ele>569</ele>
        <time>2019-04-09T13:57:47Z</time>
      </trkpt>
      <trkpt lat="44.3186" lon="5.82767">
        <ele>568</ele>
        <time>2019-04-09T13:57:48Z</time>
      </trkpt>
      <trkpt lat="44.31853" lon="5.82764">
        <ele>568</ele>
        <time>2019-04-09T13:57:49Z</time>
      </trkpt>
      <trkpt lat="44.31846" lon="5.82762">
        <ele>568</ele>
        <time>2019-04-09T13:57:50Z</time>
      </trkpt>
      <trkpt lat="44.31839" lon="5.82759">
        <ele>568</ele>
        <time>2019-04-09T13:57:51Z</time>
      </trkpt>
      <trkpt lat="44.31833" lon="5.82756">
        <ele>568</ele>
        <time>2019-04-09T13:57:52Z</time>
      </trkpt>
      <trkpt lat="44.31826" lon="5.82752">
        <ele>568</ele>
        <time>2019-04-09T13:57:53Z</time>
      </trkpt>
      <trkpt lat="44.3182" lon="5.82747">
        <ele>568</ele>
        <time>2019-04-09T13:57:54Z</time>
      </trkpt>
      <trkpt lat="44.31814" lon="5.82742">
        <ele>568</ele>
        <time>2019-04-09T13:57:55Z</time>
      </trkpt>
      <trkpt lat="44.31809" lon="5.82736">
        <ele>567</ele>
        <time>2019-04-09T13:57:56Z</time>
      </trkpt>
      <trkpt lat="44.31803" lon="5.82731">
        <ele>567</ele>
        <time>2019-04-09T13:57:57Z</time>
      </trkpt>
      <trkpt lat="44.31798" lon="5.82726">
        <ele>567</ele>
        <time>2019-04-09T13:57:58Z</time>
      </trkpt>
      <trkpt lat="44.31793" lon="5.8272">
        <ele>567</ele>
        <time>2019-04-09T13:57:59Z</time>
      </trkpt>
      <trkpt lat="44.31787" lon="5.82715">
        <ele>567</ele>
        <time>2019-04-09T13:58:00Z</time>
      </trkpt>
      <trkpt lat="44.31782" lon="5.82709">
        <ele>566</ele>
        <time>2019-04-09T13:58:01Z</time>
      </trkpt>
      <trkpt lat="44.31777" lon="5.82704">
        <ele>566</ele>
        <time>2019-04-09T13:58:02Z</time>
      </trkpt>
      <trkpt lat="44.31771" lon="5.82698">
        <ele>566</ele>
        <time>2019-04-09T13:58:03Z</time>
      </trkpt>
      <trkpt lat="44.31766" lon="5.82692">
        <ele>566</ele>
        <time>2019-04-09T13:58:04Z</time>
      </trkpt>
      <trkpt lat="44.31761" lon="5.82687">
        <ele>566</ele>
        <time>2019-04-09T13:58:05Z</time>
      </trkpt>
      <trkpt lat="44.31755" lon="5.82681">
        <ele>565</ele>
        <time>2019-04-09T13:58:06Z</time>
      </trkpt>
      <trkpt lat="44.3175" lon="5.82676">
        <ele>565</ele>
        <time>2019-04-09T13:58:07Z</time>
      </trkpt>
      <trkpt lat="44.31744" lon="5.8267">
        <ele>565</ele>
        <time>2019-04-09T13:58:08Z</time>
      </trkpt>
      <trkpt lat="44.31739" lon="5.82665">
        <ele>565</ele>
        <time>2019-04-09T13:58:09Z</time>
      </trkpt>
      <trkpt lat="44.31733" lon="5.82659">
        <ele>565</ele>
        <time>2019-04-09T13:58:10Z</time>
      </trkpt>
      <trkpt lat="44.31728" lon="5.82654">
        <ele>564</ele>
        <time>2019-04-09T13:58:11Z</time>
      </trkpt>
      <trkpt lat="44.31723" lon="5.82648">
        <ele>564</ele>
        <time>2019-04-09T13:58:12Z</time>
      </trkpt>
      <trkpt lat="44.31717" lon="5.82642">
        <ele>564</ele>
        <time>2019-04-09T13:58:13Z</time>
      </trkpt>
      <trkpt lat="44.31712" lon="5.82636">
        <ele>564</ele>
        <time>2019-04-09T13:58:14Z</time>
      </trkpt>
      <trkpt lat="44.31707" lon="5.82631">
        <ele>564</ele>
        <time>2019-04-09T13:58:15Z</time>
      </trkpt>
      <trkpt lat="44.31702" lon="5.82625">
        <ele>564</ele>
        <time>2019-04-09T13:58:16Z</time>
      </trkpt>
      <trkpt lat="44.31696" lon="5.8262">
        <ele>564</ele>
        <time>2019-04-09T13:58:17Z</time>
      </trkpt>
      <trkpt lat="44.31691" lon="5.82616">
        <ele>564</ele>
        <time>2019-04-09T13:58:18Z</time>
      </trkpt>
      <trkpt lat="44.31686" lon="5.82611">
        <ele>563</ele>
        <time>2019-04-09T13:58:19Z</time>
      </trkpt>
      <trkpt lat="44.31681" lon="5.82605">
        <ele>563</ele>
        <time>2019-04-09T13:58:20Z</time>
      </trkpt>
      <trkpt lat="44.31676" lon="5.826">
        <ele>563</ele>
        <time>2019-04-09T13:58:21Z</time>
      </trkpt>
      <trkpt lat="44.31671" lon="5.82595">
        <ele>563</ele>
        <time>2019-04-09T13:58:22Z</time>
      </trkpt>
      <trkpt lat="44.31667" lon="5.8259">
        <ele>563</ele>
        <time>2019-04-09T13:58:23Z</time>
      </trkpt>
      <trkpt lat="44.31662" lon="5.82585">
        <ele>563</ele>
        <time>2019-04-09T13:58:24Z</time>
      </trkpt>
      <trkpt lat="44.31657" lon="5.8258">
        <ele>563</ele>
        <time>2019-04-09T13:58:25Z</time>
      </trkpt>
      <trkpt lat="44.31653" lon="5.82575">
        <ele>563</ele>
        <time>2019-04-09T13:58:26Z</time>
      </trkpt>
      <trkpt lat="44.31648" lon="5.8257">
        <ele>562</ele>
        <time>2019-04-09T13:58:27Z</time>
      </trkpt>
      <trkpt lat="44.31644" lon="5.82565">
        <ele>562</ele>
        <time>2019-04-09T13:58:28Z</time>
      </trkpt>
      <trkpt lat="44.31639" lon="5.82561">
        <ele>562</ele>
        <time>2019-04-09T13:58:29Z</time>
      </trkpt>
      <trkpt lat="44.31634" lon="5.82556">
        <ele>562</ele>
        <time>2019-04-09T13:58:30Z</time>
      </trkpt>
      <trkpt lat="44.3163" lon="5.82552">
        <ele>562</ele>
        <time>2019-04-09T13:58:31Z</time>
      </trkpt>
      <trkpt lat="44.31625" lon="5.82548">
        <ele>562</ele>
        <time>2019-04-09T13:58:32Z</time>
      </trkpt>
      <trkpt lat="44.3162" lon="5.82544">
        <ele>562</ele>
        <time>2019-04-09T13:58:33Z</time>
      </trkpt>
      <trkpt lat="44.31616" lon="5.82541">
        <ele>562</ele>
        <time>2019-04-09T13:58:34Z</time>
      </trkpt>
      <trkpt lat="44.31611" lon="5.82538">
        <ele>562</ele>
        <time>2019-04-09T13:58:35Z</time>
      </trkpt>
      <trkpt lat="44.31608" lon="5.82534">
        <ele>562</ele>
        <time>2019-04-09T13:58:36Z</time>
      </trkpt>
      <trkpt lat="44.31604" lon="5.82529">
        <ele>562</ele>
        <time>2019-04-09T13:58:37Z</time>
      </trkpt>
      <trkpt lat="44.316" lon="5.82525">
        <ele>562</ele>
        <time>2019-04-09T13:58:38Z</time>
      </trkpt>
      <trkpt lat="44.31597" lon="5.82521">
        <ele>562</ele>
        <time>2019-04-09T13:58:39Z</time>
      </trkpt>
      <trkpt lat="44.31593" lon="5.82518">
        <ele>562</ele>
        <time>2019-04-09T13:58:40Z</time>
      </trkpt>
      <trkpt lat="44.3159" lon="5.82514">
        <ele>562</ele>
        <time>2019-04-09T13:58:41Z</time>
      </trkpt>
      <trkpt lat="44.31586" lon="5.8251">
        <ele>562</ele>
        <time>2019-04-09T13:58:42Z</time>
      </trkpt>
      <trkpt lat="44.31583" lon="5.82506">
        <ele>562</ele>
        <time>2019-04-09T13:58:43Z</time>
      </trkpt>
      <trkpt lat="44.3158" lon="5.82502">
        <ele>562</ele>
        <time>2019-04-09T13:58:44Z</time>
      </trkpt>
      <trkpt lat="44.31576" lon="5.82498">
        <ele>562</ele>
        <time>2019-04-09T13:58:45Z</time>
      </trkpt>
      <trkpt lat="44.31573" lon="5.82493">
        <ele>562</ele>
        <time>2019-04-09T13:58:46Z</time>
      </trkpt>
      <trkpt lat="44.3157" lon="5.82489">
        <ele>562</ele>
        <time>2019-04-09T13:58:47Z</time>
      </trkpt>
      <trkpt lat="44.31565" lon="5.82484">
        <ele>562</ele>
        <time>2019-04-09T13:58:48Z</time>
      </trkpt>
      <trkpt lat="44.31561" lon="5.8248">
        <ele>562</ele>
        <time>2019-04-09T13:58:49Z</time>
      </trkpt>
      <trkpt lat="44.31557" lon="5.82476">
        <ele>562</ele>
        <time>2019-04-09T13:58:50Z</time>
      </trkpt>
      <trkpt lat="44.31553" lon="5.82472">
        <ele>562</ele>
        <time>2019-04-09T13:58:51Z</time>
      </trkpt>
      <trkpt lat="44.31549" lon="5.82468">
        <ele>562</ele>
        <time>2019-04-09T13:58:52Z</time>
      </trkpt>
      <trkpt lat="44.31544" lon="5.82464">
        <ele>562</ele>
        <time>2019-04-09T13:58:53Z</time>
      </trkpt>
      <trkpt lat="44.3154" lon="5.82459">
        <ele>562</ele>
        <time>2019-04-09T13:58:54Z</time>
      </trkpt>
      <trkpt lat="44.31536" lon="5.82455">
        <ele>562</ele>
        <time>2019-04-09T13:58:55Z</time>
      </trkpt>
      <trkpt lat="44.31532" lon="5.82451">
        <ele>562</ele>
        <time>2019-04-09T13:58:56Z</time>
      </trkpt>
      <trkpt lat="44.31527" lon="5.82448">
        <ele>562</ele>
        <time>2019-04-09T13:58:57Z</time>
      </trkpt>
      <trkpt lat="44.31522" lon="5.82444">
        <ele>562</ele>
        <time>2019-04-09T13:58:58Z</time>
      </trkpt>
      <trkpt lat="44.31518" lon="5.82441">
        <ele>562</ele>
        <time>2019-04-09T13:58:59Z</time>
      </trkpt>
      <trkpt lat="44.31514" lon="5.82437">
        <ele>562</ele>
        <time>2019-04-09T13:59:00Z</time>
      </trkpt>
      <trkpt lat="44.31511" lon="5.82435">
        <ele>562</ele>
        <time>2019-04-09T13:59:01Z</time>
      </trkpt>
      <trkpt lat="44.31507" lon="5.82432">
        <ele>562</ele>
        <time>2019-04-09T13:59:02Z</time>
      </trkpt>
      <trkpt lat="44.31503" lon="5.82429">
        <ele>562</ele>
        <time>2019-04-09T13:59:03Z</time>
      </trkpt>
      <trkpt lat="44.31499" lon="5.82425">
        <ele>562</ele>
        <time>2019-04-09T13:59:04Z</time>
      </trkpt>
      <trkpt lat="44.31496" lon="5.82422">
        <ele>562</ele>
        <time>2019-04-09T13:59:05Z</time>
      </trkpt>
      <trkpt lat="44.31492" lon="5.82419">
        <ele>562</ele>
        <time>2019-04-09T13:59:06Z</time>
      </trkpt>
      <trkpt lat="44.31488" lon="5.82417">
        <ele>562</ele>
        <time>2019-04-09T13:59:07Z</time>
      </trkpt>
      <trkpt lat="44.31485" lon="5.82414">
        <ele>563</ele>
        <time>2019-04-09T13:59:08Z</time>
      </trkpt>
      <trkpt lat="44.31483" lon="5.82411">
        <ele>563</ele>
        <time>2019-04-09T13:59:09Z</time>
      </trkpt>
      <trkpt lat="44.3148" lon="5.82408">
        <ele>564</ele>
        <time>2019-04-09T13:59:10Z</time>
      </trkpt>
      <trkpt lat="44.31477" lon="5.82406">
        <ele>565</ele>
        <time>2019-04-09T13:59:11Z</time>
      </trkpt>
      <trkpt lat="44.31475" lon="5.82403">
        <ele>565</ele>
        <time>2019-04-09T13:59:12Z</time>
      </trkpt>
      <trkpt lat="44.31472" lon="5.82401">
        <ele>565</ele>
        <time>2019-04-09T13:59:13Z</time>
      </trkpt>
      <trkpt lat="44.3147" lon="5.82398">
        <ele>566</ele>
        <time>2019-04-09T13:59:14Z</time>
      </trkpt>
      <trkpt lat="44.31468" lon="5.82396">
        <ele>566</ele>
        <time>2019-04-09T13:59:15Z</time>
      </trkpt>
      <trkpt lat="44.31465" lon="5.82394">
        <ele>567</ele>
        <time>2019-04-09T13:59:16Z</time>
      </trkpt>
      <trkpt lat="44.31463" lon="5.82392">
        <ele>567</ele>
        <time>2019-04-09T13:59:17Z</time>
      </trkpt>
      <trkpt lat="44.31461" lon="5.82389">
        <ele>568</ele>
        <time>2019-04-09T13:59:18Z</time>
      </trkpt>
      <trkpt lat="44.31458" lon="5.82387">
        <ele>568</ele>
        <time>2019-04-09T13:59:19Z</time>
      </trkpt>
      <trkpt lat="44.31456" lon="5.82385">
        <ele>568</ele>
        <time>2019-04-09T13:59:20Z</time>
      </trkpt>
      <trkpt lat="44.31454" lon="5.82382">
        <ele>569</ele>
        <time>2019-04-09T13:59:21Z</time>
      </trkpt>
      <trkpt lat="44.31452" lon="5.8238">
        <ele>569</ele>
        <time>2019-04-09T13:59:22Z</time>
      </trkpt>
      <trkpt lat="44.3145" lon="5.82378">
        <ele>569</ele>
        <time>2019-04-09T13:59:23Z</time>
      </trkpt>
      <trkpt lat="44.31448" lon="5.82377">
        <ele>569</ele>
        <time>2019-04-09T13:59:24Z</time>
      </trkpt>
      <trkpt lat="44.31446" lon="5.82375">
        <ele>569</ele>
        <time>2019-04-09T13:59:25Z</time>
      </trkpt>
      <trkpt lat="44.31445" lon="5.82374">
        <ele>569</ele>
        <time>2019-04-09T13:59:26Z</time>
      </trkpt>
      <trkpt lat="44.31443" lon="5.82372">
        <ele>569</ele>
        <time>2019-04-09T13:59:27Z</time>
      </trkpt>
      <trkpt lat="44.31442" lon="5.82371">
        <ele>569</ele>
        <time>2019-04-09T13:59:29Z</time>
      </trkpt>
      <trkpt lat="44.31439" lon="5.82371">
        <ele>571</ele>
        <time>2019-04-09T13:59:32Z</time>
      </trkpt>
      <trkpt lat="44.31438" lon="5.8237">
        <ele>572</ele>
        <time>2019-04-09T13:59:34Z</time>
      </trkpt>
      <trkpt lat="44.31437" lon="5.82369">
        <ele>574</ele>
        <time>2019-04-09T13:59:43Z</time>
      </trkpt>
      <trkpt lat="44.31435" lon="5.82369">
        <ele>574</ele>
        <time>2019-04-09T13:59:44Z</time>
      </trkpt>
      <trkpt lat="44.31434" lon="5.8237">
        <ele>575</ele>
        <time>2019-04-09T13:59:49Z</time>
      </trkpt>
      <trkpt lat="44.31433" lon="5.8237">
        <ele>575</ele>
        <time>2019-04-09T13:59:56Z</time>
      </trkpt>
      <trkpt lat="44.31432" lon="5.82372">
        <ele>576</ele>
        <time>2019-04-09T14:00:00Z</time>
      </trkpt>
      <trkpt lat="44.31434" lon="5.82372">
        <ele>578</ele>
        <time>2019-04-09T14:00:03Z</time>
      </trkpt>
      <trkpt lat="44.31435" lon="5.82372">
        <ele>579</ele>
        <time>2019-04-09T14:00:05Z</time>
      </trkpt>
      <trkpt lat="44.31434" lon="5.82373">
        <ele>581</ele>
        <time>2019-04-09T14:00:09Z</time>
      </trkpt>
      <trkpt lat="44.31433" lon="5.82375">
        <ele>581</ele>
        <time>2019-04-09T14:00:11Z</time>
      </trkpt>
      <trkpt lat="44.31433" lon="5.82377">
        <ele>581</ele>
        <time>2019-04-09T14:00:12Z</time>
      </trkpt>
      <trkpt lat="44.31433" lon="5.8238">
        <ele>581</ele>
        <time>2019-04-09T14:00:13Z</time>
      </trkpt>
      <trkpt lat="44.31434" lon="5.82385">
        <ele>581</ele>
        <time>2019-04-09T14:00:14Z</time>
      </trkpt>
      <trkpt lat="44.31434" lon="5.8239">
        <ele>581</ele>
        <time>2019-04-09T14:00:15Z</time>
      </trkpt>
      <trkpt lat="44.31435" lon="5.82395">
        <ele>581</ele>
        <time>2019-04-09T14:00:16Z</time>
      </trkpt>
      <trkpt lat="44.31435" lon="5.82401">
        <ele>581</ele>
        <time>2019-04-09T14:00:17Z</time>
      </trkpt>
      <trkpt lat="44.31436" lon="5.82407">
        <ele>581</ele>
        <time>2019-04-09T14:00:18Z</time>
      </trkpt>
      <trkpt lat="44.31436" lon="5.82414">
        <ele>581</ele>
        <time>2019-04-09T14:00:19Z</time>
      </trkpt>
      <trkpt lat="44.31436" lon="5.82421">
        <ele>580</ele>
        <time>2019-04-09T14:00:20Z</time>
      </trkpt>
      <trkpt lat="44.31435" lon="5.82428">
        <ele>579</ele>
        <time>2019-04-09T14:00:21Z</time>
      </trkpt>
      <trkpt lat="44.31435" lon="5.82435">
        <ele>579</ele>
        <time>2019-04-09T14:00:22Z</time>
      </trkpt>
      <trkpt lat="44.31434" lon="5.82442">
        <ele>578</ele>
        <time>2019-04-09T14:00:23Z</time>
      </trkpt>
      <trkpt lat="44.31433" lon="5.82449">
        <ele>577</ele>
        <time>2019-04-09T14:00:24Z</time>
      </trkpt>
      <trkpt lat="44.31432" lon="5.82457">
        <ele>577</ele>
        <time>2019-04-09T14:00:25Z</time>
      </trkpt>
      <trkpt lat="44.3143" lon="5.82464">
        <ele>576</ele>
        <time>2019-04-09T14:00:26Z</time>
      </trkpt>
      <trkpt lat="44.31429" lon="5.82471">
        <ele>576</ele>
        <time>2019-04-09T14:00:27Z</time>
      </trkpt>
      <trkpt lat="44.31428" lon="5.82478">
        <ele>575</ele>
        <time>2019-04-09T14:00:28Z</time>
      </trkpt>
      <trkpt lat="44.31426" lon="5.82485">
        <ele>575</ele>
        <time>2019-04-09T14:00:29Z</time>
      </trkpt>
      <trkpt lat="44.31425" lon="5.82493">
        <ele>575</ele>
        <time>2019-04-09T14:00:30Z</time>
      </trkpt>
      <trkpt lat="44.31424" lon="5.825">
        <ele>574</ele>
        <time>2019-04-09T14:00:31Z</time>
      </trkpt>
      <trkpt lat="44.31422" lon="5.82507">
        <ele>574</ele>
        <time>2019-04-09T14:00:32Z</time>
      </trkpt>
      <trkpt lat="44.31421" lon="5.82514">
        <ele>574</ele>
        <time>2019-04-09T14:00:33Z</time>
      </trkpt>
      <trkpt lat="44.31419" lon="5.82521">
        <ele>573</ele>
        <time>2019-04-09T14:00:34Z</time>
      </trkpt>
      <trkpt lat="44.31417" lon="5.82528">
        <ele>573</ele>
        <time>2019-04-09T14:00:35Z</time>
      </trkpt>
      <trkpt lat="44.31416" lon="5.82536">
        <ele>573</ele>
        <time>2019-04-09T14:00:36Z</time>
      </trkpt>
      <trkpt lat="44.31415" lon="5.82543">
        <ele>573</ele>
        <time>2019-04-09T14:00:37Z</time>
      </trkpt>
      <trkpt lat="44.31413" lon="5.8255">
        <ele>573</ele>
        <time>2019-04-09T14:00:38Z</time>
      </trkpt>
      <trkpt lat="44.31411" lon="5.82558">
        <ele>572</ele>
        <time>2019-04-09T14:00:39Z</time>
      </trkpt>
      <trkpt lat="44.31409" lon="5.82565">
        <ele>572</ele>
        <time>2019-04-09T14:00:40Z</time>
      </trkpt>
      <trkpt lat="44.31408" lon="5.82573">
        <ele>572</ele>
        <time>2019-04-09T14:00:41Z</time>
      </trkpt>
      <trkpt lat="44.31406" lon="5.8258">
        <ele>571</ele>
        <time>2019-04-09T14:00:42Z</time>
      </trkpt>
      <trkpt lat="44.31405" lon="5.82588">
        <ele>571</ele>
        <time>2019-04-09T14:00:43Z</time>
      </trkpt>
      <trkpt lat="44.31403" lon="5.82595">
        <ele>571</ele>
        <time>2019-04-09T14:00:44Z</time>
      </trkpt>
      <trkpt lat="44.31401" lon="5.82603">
        <ele>571</ele>
        <time>2019-04-09T14:00:45Z</time>
      </trkpt>
      <trkpt lat="44.314" lon="5.8261">
        <ele>570</ele>
        <time>2019-04-09T14:00:46Z</time>
      </trkpt>
      <trkpt lat="44.31398" lon="5.82617">
        <ele>570</ele>
        <time>2019-04-09T14:00:47Z</time>
      </trkpt>
      <trkpt lat="44.31396" lon="5.82624">
        <ele>570</ele>
        <time>2019-04-09T14:00:48Z</time>
      </trkpt>
      <trkpt lat="44.31394" lon="5.8263">
        <ele>570</ele>
        <time>2019-04-09T14:00:49Z</time>
      </trkpt>
      <trkpt lat="44.31392" lon="5.82637">
        <ele>569</ele>
        <time>2019-04-09T14:00:50Z</time>
      </trkpt>
      <trkpt lat="44.31389" lon="5.82643">
        <ele>569</ele>
        <time>2019-04-09T14:00:51Z</time>
      </trkpt>
      <trkpt lat="44.31386" lon="5.82649">
        <ele>569</ele>
        <time>2019-04-09T14:00:52Z</time>
      </trkpt>
      <trkpt lat="44.31383" lon="5.82654">
        <ele>568</ele>
        <time>2019-04-09T14:00:53Z</time>
      </trkpt>
      <trkpt lat="44.3138" lon="5.82659">
        <ele>568</ele>
        <time>2019-04-09T14:00:54Z</time>
      </trkpt>
      <trkpt lat="44.31377" lon="5.82664">
        <ele>568</ele>
        <time>2019-04-09T14:00:55Z</time>
      </trkpt>
      <trkpt lat="44.31375" lon="5.82668">
        <ele>567</ele>
        <time>2019-04-09T14:00:56Z</time>
      </trkpt>
      <trkpt lat="44.31373" lon="5.82672">
        <ele>567</ele>
        <time>2019-04-09T14:00:57Z</time>
      </trkpt>
      <trkpt lat="44.31371" lon="5.82675">
        <ele>567</ele>
        <time>2019-04-09T14:00:58Z</time>
      </trkpt>
      <trkpt lat="44.31368" lon="5.82678">
        <ele>567</ele>
        <time>2019-04-09T14:00:59Z</time>
      </trkpt>
      <trkpt lat="44.31366" lon="5.82681">
        <ele>566</ele>
        <time>2019-04-09T14:01:00Z</time>
      </trkpt>
      <trkpt lat="44.31364" lon="5.82683">
        <ele>566</ele>
        <time>2019-04-09T14:01:01Z</time>
      </trkpt>
      <trkpt lat="44.31361" lon="5.82685">
        <ele>566</ele>
        <time>2019-04-09T14:01:02Z</time>
      </trkpt>
      <trkpt lat="44.31359" lon="5.82687">
        <ele>566</ele>
        <time>2019-04-09T14:01:03Z</time>
      </trkpt>
      <trkpt lat="44.31358" lon="5.8269">
        <ele>566</ele>
        <time>2019-04-09T14:01:04Z</time>
      </trkpt>
      <trkpt lat="44.31358" lon="5.82694">
        <ele>566</ele>
        <time>2019-04-09T14:01:05Z</time>
      </trkpt>
      <trkpt lat="44.31358" lon="5.82698">
        <ele>566</ele>
        <time>2019-04-09T14:01:06Z</time>
      </trkpt>
      <trkpt lat="44.31358" lon="5.82702">
        <ele>566</ele>
        <time>2019-04-09T14:01:07Z</time>
      </trkpt>
      <trkpt lat="44.3136" lon="5.82705">
        <ele>566</ele>
        <time>2019-04-09T14:01:08Z</time>
      </trkpt>
      <trkpt lat="44.31362" lon="5.82708">
        <ele>565</ele>
        <time>2019-04-09T14:01:09Z</time>
      </trkpt>
      <trkpt lat="44.31364" lon="5.82711">
        <ele>565</ele>
        <time>2019-04-09T14:01:10Z</time>
      </trkpt>
      <trkpt lat="44.31367" lon="5.82714">
        <ele>565</ele>
        <time>2019-04-09T14:01:11Z</time>
      </trkpt>
      <trkpt lat="44.3137" lon="5.82718">
        <ele>565</ele>
        <time>2019-04-09T14:01:12Z</time>
      </trkpt>
      <trkpt lat="44.31373" lon="5.82723">
        <ele>565</ele>
        <time>2019-04-09T14:01:13Z</time>
      </trkpt>
      <trkpt lat="44.31374" lon="5.82728">
        <ele>564</ele>
        <time>2019-04-09T14:01:14Z</time>
      </trkpt>
      <trkpt lat="44.31374" lon="5.82735">
        <ele>564</ele>
        <time>2019-04-09T14:01:15Z</time>
      </trkpt>
      <trkpt lat="44.31374" lon="5.82742">
        <ele>564</ele>
        <time>2019-04-09T14:01:16Z</time>
      </trkpt>
      <trkpt lat="44.31374" lon="5.8275">
        <ele>564</ele>
        <time>2019-04-09T14:01:17Z</time>
      </trkpt>
      <trkpt lat="44.31375" lon="5.82757">
        <ele>564</ele>
        <time>2019-04-09T14:01:18Z</time>
      </trkpt>
      <trkpt lat="44.31375" lon="5.82765">
        <ele>564</ele>
        <time>2019-04-09T14:01:19Z</time>
      </trkpt>
      <trkpt lat="44.31375" lon="5.82773">
        <ele>564</ele>
        <time>2019-04-09T14:01:20Z</time>
      </trkpt>
      <trkpt lat="44.31375" lon="5.82781">
        <ele>564</ele>
        <time>2019-04-09T14:01:21Z</time>
      </trkpt>
      <trkpt lat="44.31375" lon="5.82789">
        <ele>564</ele>
        <time>2019-04-09T14:01:22Z</time>
      </trkpt>
      <trkpt lat="44.31375" lon="5.82796">
        <ele>564</ele>
        <time>2019-04-09T14:01:23Z</time>
      </trkpt>
      <trkpt lat="44.31374" lon="5.82803">
        <ele>564</ele>
        <time>2019-04-09T14:01:24Z</time>
      </trkpt>
      <trkpt lat="44.31374" lon="5.82811">
        <ele>564</ele>
        <time>2019-04-09T14:01:25Z</time>
      </trkpt>
      <trkpt lat="44.31373" lon="5.82819">
        <ele>564</ele>
        <time>2019-04-09T14:01:26Z</time>
      </trkpt>
      <trkpt lat="44.31372" lon="5.82826">
        <ele>564</ele>
        <time>2019-04-09T14:01:27Z</time>
      </trkpt>
      <trkpt lat="44.31372" lon="5.82834">
        <ele>564</ele>
        <time>2019-04-09T14:01:28Z</time>
      </trkpt>
      <trkpt lat="44.31371" lon="5.82842">
        <ele>564</ele>
        <time>2019-04-09T14:01:29Z</time>
      </trkpt>
      <trkpt lat="44.31371" lon="5.8285">
        <ele>564</ele>
        <time>2019-04-09T14:01:30Z</time>
      </trkpt>
      <trkpt lat="44.3137" lon="5.82858">
        <ele>564</ele>
        <time>2019-04-09T14:01:31Z</time>
      </trkpt>
      <trkpt lat="44.31369" lon="5.82865">
        <ele>564</ele>
        <time>2019-04-09T14:01:32Z</time>
      </trkpt>
      <trkpt lat="44.31369" lon="5.82873">
        <ele>564</ele>
        <time>2019-04-09T14:01:33Z</time>
      </trkpt>
      <trkpt lat="44.31368" lon="5.82881">
        <ele>564</ele>
        <time>2019-04-09T14:01:34Z</time>
      </trkpt>
      <trkpt lat="44.31367" lon="5.82888">
        <ele>564</ele>
        <time>2019-04-09T14:01:35Z</time>
      </trkpt>
      <trkpt lat="44.31366" lon="5.82896">
        <ele>564</ele>
        <time>2019-04-09T14:01:36Z</time>
      </trkpt>
      <trkpt lat="44.31365" lon="5.82904">
        <ele>564</ele>
        <time>2019-04-09T14:01:37Z</time>
      </trkpt>
      <trkpt lat="44.31364" lon="5.82911">
        <ele>564</ele>
        <time>2019-04-09T14:01:38Z</time>
      </trkpt>
      <trkpt lat="44.31363" lon="5.82919">
        <ele>564</ele>
        <time>2019-04-09T14:01:39Z</time>
      </trkpt>
      <trkpt lat="44.31362" lon="5.82927">
        <ele>564</ele>
        <time>2019-04-09T14:01:40Z</time>
      </trkpt>
      <trkpt lat="44.31361" lon="5.82935">
        <ele>564</ele>
        <time>2019-04-09T14:01:41Z</time>
      </trkpt>
      <trkpt lat="44.31361" lon="5.82942">
        <ele>564</ele>
        <time>2019-04-09T14:01:42Z</time>
      </trkpt>
      <trkpt lat="44.31359" lon="5.8295">
        <ele>564</ele>
        <time>2019-04-09T14:01:43Z</time>
      </trkpt>
      <trkpt lat="44.31358" lon="5.82957">
        <ele>564</ele>
        <time>2019-04-09T14:01:44Z</time>
      </trkpt>
      <trkpt lat="44.31357" lon="5.82965">
        <ele>564</ele>
        <time>2019-04-09T14:01:45Z</time>
      </trkpt>
      <trkpt lat="44.31356" lon="5.82972">
        <ele>564</ele>
        <time>2019-04-09T14:01:46Z</time>
      </trkpt>
      <trkpt lat="44.31355" lon="5.82979">
        <ele>564</ele>
        <time>2019-04-09T14:01:47Z</time>
      </trkpt>
      <trkpt lat="44.31354" lon="5.82986">
        <ele>564</ele>
        <time>2019-04-09T14:01:48Z</time>
      </trkpt>
      <trkpt lat="44.31353" lon="5.82993">
        <ele>564</ele>
        <time>2019-04-09T14:01:49Z</time>
      </trkpt>
      <trkpt lat="44.31352" lon="5.83">
        <ele>564</ele>
        <time>2019-04-09T14:01:50Z</time>
      </trkpt>
      <trkpt lat="44.31351" lon="5.83006">
        <ele>564</ele>
        <time>2019-04-09T14:01:51Z</time>
      </trkpt>
      <trkpt lat="44.3135" lon="5.83013">
        <ele>564</ele>
        <time>2019-04-09T14:01:52Z</time>
      </trkpt>
      <trkpt lat="44.3135" lon="5.83019">
        <ele>564</ele>
        <time>2019-04-09T14:01:53Z</time>
      </trkpt>
      <trkpt lat="44.31349" lon="5.83026">
        <ele>564</ele>
        <time>2019-04-09T14:01:54Z</time>
      </trkpt>
      <trkpt lat="44.31348" lon="5.83032">
        <ele>564</ele>
        <time>2019-04-09T14:01:55Z</time>
      </trkpt>
      <trkpt lat="44.31347" lon="5.83038">
        <ele>564</ele>
        <time>2019-04-09T14:01:56Z</time>
      </trkpt>
      <trkpt lat="44.31346" lon="5.83044">
        <ele>564</ele>
        <time>2019-04-09T14:01:57Z</time>
      </trkpt>
      <trkpt lat="44.31345" lon="5.8305">
        <ele>564</ele>
        <time>2019-04-09T14:01:58Z</time>
      </trkpt>
      <trkpt lat="44.31344" lon="5.83057">
        <ele>564</ele>
        <time>2019-04-09T14:01:59Z</time>
      </trkpt>
      <trkpt lat="44.31343" lon="5.83064">
        <ele>564</ele>
        <time>2019-04-09T14:02:00Z</time>
      </trkpt>
      <trkpt lat="44.31343" lon="5.8307">
        <ele>564</ele>
        <time>2019-04-09T14:02:01Z</time>
      </trkpt>
      <trkpt lat="44.31342" lon="5.83076">
        <ele>564</ele>
        <time>2019-04-09T14:02:02Z</time>
      </trkpt>
      <trkpt lat="44.31342" lon="5.83082">
        <ele>564</ele>
        <time>2019-04-09T14:02:03Z</time>
      </trkpt>
      <trkpt lat="44.31342" lon="5.83088">
        <ele>564</ele>
        <time>2019-04-09T14:02:04Z</time>
      </trkpt>
      <trkpt lat="44.31342" lon="5.83094">
        <ele>564</ele>
        <time>2019-04-09T14:02:05Z</time>
      </trkpt>
      <trkpt lat="44.31342" lon="5.83099">
        <ele>564</ele>
        <time>2019-04-09T14:02:06Z</time>
      </trkpt>
      <trkpt lat="44.31343" lon="5.83104">
        <ele>564</ele>
        <time>2019-04-09T14:02:07Z</time>
      </trkpt>
      <trkpt lat="44.31345" lon="5.83107">
        <ele>564</ele>
        <time>2019-04-09T14:02:08Z</time>
      </trkpt>
      <trkpt lat="44.31349" lon="5.83108">
        <ele>564</ele>
        <time>2019-04-09T14:02:09Z</time>
      </trkpt>
      <trkpt lat="44.31352" lon="5.83106">
        <ele>564</ele>
        <time>2019-04-09T14:02:10Z</time>
      </trkpt>
      <trkpt lat="44.31355" lon="5.83104">
        <ele>564</ele>
        <time>2019-04-09T14:02:11Z</time>
      </trkpt>
      <trkpt lat="44.31357" lon="5.83099">
        <ele>564</ele>
        <time>2019-04-09T14:02:12Z</time>
      </trkpt>
      <trkpt lat="44.31359" lon="5.83094">
        <ele>564</ele>
        <time>2019-04-09T14:02:13Z</time>
      </trkpt>
      <trkpt lat="44.31361" lon="5.83088">
        <ele>564</ele>
        <time>2019-04-09T14:02:14Z</time>
      </trkpt>
      <trkpt lat="44.31362" lon="5.83083">
        <ele>564</ele>
        <time>2019-04-09T14:02:15Z</time>
      </trkpt>
      <trkpt lat="44.31364" lon="5.83078">
        <ele>564</ele>
        <time>2019-04-09T14:02:16Z</time>
      </trkpt>
      <trkpt lat="44.31366" lon="5.83074">
        <ele>564</ele>
        <time>2019-04-09T14:02:17Z</time>
      </trkpt>
      <trkpt lat="44.31369" lon="5.8307">
        <ele>564</ele>
        <time>2019-04-09T14:02:18Z</time>
      </trkpt>
      <trkpt lat="44.31371" lon="5.83065">
        <ele>564</ele>
        <time>2019-04-09T14:02:19Z</time>
      </trkpt>
      <trkpt lat="44.31374" lon="5.8306">
        <ele>564</ele>
        <time>2019-04-09T14:02:20Z</time>
      </trkpt>
      <trkpt lat="44.31376" lon="5.83055">
        <ele>564</ele>
        <time>2019-04-09T14:02:21Z</time>
      </trkpt>
      <trkpt lat="44.31379" lon="5.83049">
        <ele>564</ele>
        <time>2019-04-09T14:02:22Z</time>
      </trkpt>
      <trkpt lat="44.31382" lon="5.83043">
        <ele>564</ele>
        <time>2019-04-09T14:02:23Z</time>
      </trkpt>
      <trkpt lat="44.31385" lon="5.83038">
        <ele>564</ele>
        <time>2019-04-09T14:02:24Z</time>
      </trkpt>
      <trkpt lat="44.31388" lon="5.83032">
        <ele>564</ele>
        <time>2019-04-09T14:02:25Z</time>
      </trkpt>
      <trkpt lat="44.31392" lon="5.83027">
        <ele>564</ele>
        <time>2019-04-09T14:02:26Z</time>
      </trkpt>
      <trkpt lat="44.31396" lon="5.83021">
        <ele>564</ele>
        <time>2019-04-09T14:02:27Z</time>
      </trkpt>
      <trkpt lat="44.31399" lon="5.83016">
        <ele>564</ele>
        <time>2019-04-09T14:02:28Z</time>
      </trkpt>
      <trkpt lat="44.31403" lon="5.8301">
        <ele>564</ele>
        <time>2019-04-09T14:02:29Z</time>
      </trkpt>
      <trkpt lat="44.31407" lon="5.83005">
        <ele>564</ele>
        <time>2019-04-09T14:02:30Z</time>
      </trkpt>
      <trkpt lat="44.31411" lon="5.82999">
        <ele>564</ele>
        <time>2019-04-09T14:02:31Z</time>
      </trkpt>
      <trkpt lat="44.31414" lon="5.82994">
        <ele>564</ele>
        <time>2019-04-09T14:02:32Z</time>
      </trkpt>
      <trkpt lat="44.31418" lon="5.82988">
        <ele>564</ele>
        <time>2019-04-09T14:02:33Z</time>
      </trkpt>
      <trkpt lat="44.31422" lon="5.82983">
        <ele>564</ele>
        <time>2019-04-09T14:02:34Z</time>
      </trkpt>
      <trkpt lat="44.31426" lon="5.82977">
        <ele>564</ele>
        <time>2019-04-09T14:02:35Z</time>
      </trkpt>
      <trkpt lat="44.3143" lon="5.82972">
        <ele>564</ele>
        <time>2019-04-09T14:02:36Z</time>
      </trkpt>
      <trkpt lat="44.31433" lon="5.82966">
        <ele>564</ele>
        <time>2019-04-09T14:02:37Z</time>
      </trkpt>
      <trkpt lat="44.31437" lon="5.82961">
        <ele>564</ele>
        <time>2019-04-09T14:02:38Z</time>
      </trkpt>
      <trkpt lat="44.31441" lon="5.82956">
        <ele>564</ele>
        <time>2019-04-09T14:02:39Z</time>
      </trkpt>
      <trkpt lat="44.31445" lon="5.8295">
        <ele>564</ele>
        <time>2019-04-09T14:02:40Z</time>
      </trkpt>
      <trkpt lat="44.31449" lon="5.82945">
        <ele>564</ele>
        <time>2019-04-09T14:02:41Z</time>
      </trkpt>
      <trkpt lat="44.31453" lon="5.82939">
        <ele>564</ele>
        <time>2019-04-09T14:02:42Z</time>
      </trkpt>
      <trkpt lat="44.31456" lon="5.82934">
        <ele>564</ele>
        <time>2019-04-09T14:02:43Z</time>
      </trkpt>
      <trkpt lat="44.3146" lon="5.82929">
        <ele>564</ele>
        <time>2019-04-09T14:02:44Z</time>
      </trkpt>
      <trkpt lat="44.31464" lon="5.82924">
        <ele>564</ele>
        <time>2019-04-09T14:02:45Z</time>
      </trkpt>
      <trkpt lat="44.31467" lon="5.82919">
        <ele>564</ele>
        <time>2019-04-09T14:02:46Z</time>
      </trkpt>
      <trkpt lat="44.31471" lon="5.82914">
        <ele>564</ele>
        <time>2019-04-09T14:02:47Z</time>
      </trkpt>
      <trkpt lat="44.31474" lon="5.82909">
        <ele>565</ele>
        <time>2019-04-09T14:02:48Z</time>
      </trkpt>
      <trkpt lat="44.31477" lon="5.82904">
        <ele>565</ele>
        <time>2019-04-09T14:02:49Z</time>
      </trkpt>
      <trkpt lat="44.31481" lon="5.82899">
        <ele>565</ele>
        <time>2019-04-09T14:02:50Z</time>
      </trkpt>
      <trkpt lat="44.31484" lon="5.82893">
        <ele>565</ele>
        <time>2019-04-09T14:02:51Z</time>
      </trkpt>
      <trkpt lat="44.31487" lon="5.82888">
        <ele>565</ele>
        <time>2019-04-09T14:02:52Z</time>
      </trkpt>
      <trkpt lat="44.3149" lon="5.82883">
        <ele>565</ele>
        <time>2019-04-09T14:02:53Z</time>
      </trkpt>
      <trkpt lat="44.31493" lon="5.82878">
        <ele>565</ele>
        <time>2019-04-09T14:02:54Z</time>
      </trkpt>
      <trkpt lat="44.31497" lon="5.82874">
        <ele>565</ele>
        <time>2019-04-09T14:02:55Z</time>
      </trkpt>
      <trkpt lat="44.31501" lon="5.82872">
        <ele>565</ele>
        <time>2019-04-09T14:02:56Z</time>
      </trkpt>
      <trkpt lat="44.31506" lon="5.82871">
        <ele>565</ele>
        <time>2019-04-09T14:02:57Z</time>
      </trkpt>
      <trkpt lat="44.3151" lon="5.82871">
        <ele>565</ele>
        <time>2019-04-09T14:02:58Z</time>
      </trkpt>
      <trkpt lat="44.31514" lon="5.82874">
        <ele>565</ele>
        <time>2019-04-09T14:02:59Z</time>
      </trkpt>
      <trkpt lat="44.31518" lon="5.82877">
        <ele>565</ele>
        <time>2019-04-09T14:03:00Z</time>
      </trkpt>
      <trkpt lat="44.3152" lon="5.82882">
        <ele>565</ele>
        <time>2019-04-09T14:03:01Z</time>
      </trkpt>
      <trkpt lat="44.31524" lon="5.82886">
        <ele>565</ele>
        <time>2019-04-09T14:03:02Z</time>
      </trkpt>
      <trkpt lat="44.31527" lon="5.8289">
        <ele>565</ele>
        <time>2019-04-09T14:03:03Z</time>
      </trkpt>
      <trkpt lat="44.3153" lon="5.82894">
        <ele>565</ele>
        <time>2019-04-09T14:03:04Z</time>
      </trkpt>
      <trkpt lat="44.31533" lon="5.82897">
        <ele>565</ele>
        <time>2019-04-09T14:03:05Z</time>
      </trkpt>
      <trkpt lat="44.31537" lon="5.829">
        <ele>565</ele>
        <time>2019-04-09T14:03:06Z</time>
      </trkpt>
      <trkpt lat="44.31541" lon="5.82902">
        <ele>565</ele>
        <time>2019-04-09T14:03:07Z</time>
      </trkpt>
      <trkpt lat="44.31544" lon="5.82905">
        <ele>565</ele>
        <time>2019-04-09T14:03:08Z</time>
      </trkpt>
      <trkpt lat="44.31548" lon="5.82909">
        <ele>565</ele>
        <time>2019-04-09T14:03:09Z</time>
      </trkpt>
      <trkpt lat="44.31552" lon="5.82912">
        <ele>565</ele>
        <time>2019-04-09T14:03:10Z</time>
      </trkpt>
      <trkpt lat="44.31555" lon="5.82914">
        <ele>565</ele>
        <time>2019-04-09T14:03:11Z</time>
      </trkpt>
      <trkpt lat="44.31559" lon="5.82917">
        <ele>565</ele>
        <time>2019-04-09T14:03:12Z</time>
      </trkpt>
      <trkpt lat="44.31562" lon="5.8292">
        <ele>565</ele>
        <time>2019-04-09T14:03:13Z</time>
      </trkpt>
      <trkpt lat="44.31565" lon="5.82922">
        <ele>565</ele>
        <time>2019-04-09T14:03:14Z</time>
      </trkpt>
      <trkpt lat="44.31568" lon="5.82925">
        <ele>565</ele>
        <time>2019-04-09T14:03:15Z</time>
      </trkpt>
      <trkpt lat="44.31571" lon="5.82927">
        <ele>565</ele>
        <time>2019-04-09T14:03:16Z</time>
      </trkpt>
      <trkpt lat="44.31575" lon="5.82929">
        <ele>565</ele>
        <time>2019-04-09T14:03:17Z</time>
      </trkpt>
      <trkpt lat="44.31578" lon="5.82931">
        <ele>565</ele>
        <time>2019-04-09T14:03:18Z</time>
      </trkpt>
      <trkpt lat="44.3158" lon="5.82933">
        <ele>565</ele>
        <time>2019-04-09T14:03:19Z</time>
      </trkpt>
      <trkpt lat="44.31583" lon="5.82935">
        <ele>565</ele>
        <time>2019-04-09T14:03:20Z</time>
      </trkpt>
      <trkpt lat="44.31585" lon="5.82937">
        <ele>565</ele>
        <time>2019-04-09T14:03:21Z</time>
      </trkpt>
      <trkpt lat="44.31588" lon="5.82939">
        <ele>565</ele>
        <time>2019-04-09T14:03:22Z</time>
      </trkpt>
      <trkpt lat="44.3159" lon="5.82941">
        <ele>565</ele>
        <time>2019-04-09T14:03:23Z</time>
      </trkpt>
      <trkpt lat="44.31593" lon="5.82942">
        <ele>565</ele>
        <time>2019-04-09T14:03:24Z</time>
      </trkpt>
      <trkpt lat="44.31595" lon="5.82944">
        <ele>565</ele>
        <time>2019-04-09T14:03:25Z</time>
      </trkpt>
      <trkpt lat="44.31597" lon="5.82946">
        <ele>565</ele>
        <time>2019-04-09T14:03:26Z</time>
      </trkpt>
      <trkpt lat="44.31599" lon="5.82947">
        <ele>565</ele>
        <time>2019-04-09T14:03:27Z</time>
      </trkpt>
      <trkpt lat="44.31601" lon="5.82949">
        <ele>565</ele>
        <time>2019-04-09T14:03:28Z</time>
      </trkpt>
      <trkpt lat="44.31603" lon="5.82951">
        <ele>565</ele>
        <time>2019-04-09T14:03:29Z</time>
      </trkpt>
      <trkpt lat="44.31604" lon="5.82954">
        <ele>565</ele>
        <time>2019-04-09T14:03:30Z</time>
      </trkpt>
      <trkpt lat="44.31604" lon="5.82958">
        <ele>565</ele>
        <time>2019-04-09T14:03:31Z</time>
      </trkpt>
      <trkpt lat="44.31605" lon="5.82961">
        <ele>565</ele>
        <time>2019-04-09T14:03:32Z</time>
      </trkpt>
      <trkpt lat="44.31604" lon="5.82963">
        <ele>565</ele>
        <time>2019-04-09T14:03:33Z</time>
      </trkpt>
      <trkpt lat="44.31605" lon="5.82966">
        <ele>565</ele>
        <time>2019-04-09T14:03:34Z</time>
      </trkpt>
      <trkpt lat="44.31604" lon="5.82967">
        <ele>565</ele>
        <time>2019-04-09T14:03:35Z</time>
      </trkpt>
      <trkpt lat="44.31605" lon="5.8297">
        <ele>565</ele>
        <time>2019-04-09T14:03:37Z</time>
      </trkpt>
      <trkpt lat="44.31604" lon="5.82971">
        <ele>565</ele>
        <time>2019-04-09T14:03:39Z</time>
      </trkpt>
      <trkpt lat="44.31603" lon="5.82973">
        <ele>565</ele>
        <time>2019-04-09T14:03:44Z</time>
      </trkpt>
      <trkpt lat="44.31601" lon="5.82975">
        <ele>567</ele>
        <time>2019-04-09T14:03:54Z</time>
      </trkpt>
      <trkpt lat="44.31601" lon="5.82977">
        <ele>571</ele>
        <time>2019-04-09T14:03:58Z</time>
      </trkpt>
      <trkpt lat="44.31599" lon="5.82977">
        <ele>573</ele>
        <time>2019-04-09T14:04:02Z</time>
      </trkpt>
      <trkpt lat="44.31598" lon="5.82976">
        <ele>574</ele>
        <time>2019-04-09T14:04:04Z</time>
      </trkpt>
      <trkpt lat="44.31598" lon="5.82974">
        <ele>574</ele>
        <time>2019-04-09T14:04:08Z</time>
      </trkpt>
      <trkpt lat="44.31597" lon="5.82976">
        <ele>574</ele>
        <time>2019-04-09T14:04:13Z</time>
      </trkpt>
      <trkpt lat="44.31596" lon="5.82978">
        <ele>574</ele>
        <time>2019-04-09T14:04:16Z</time>
      </trkpt>
      <trkpt lat="44.31595" lon="5.82979">
        <ele>574</ele>
        <time>2019-04-09T14:04:18Z</time>
      </trkpt>
      <trkpt lat="44.31596" lon="5.82981">
        <ele>576</ele>
        <time>2019-04-09T14:04:20Z</time>
      </trkpt>
      <trkpt lat="44.31597" lon="5.82981">
        <ele>577</ele>
        <time>2019-04-09T14:04:23Z</time>
      </trkpt>
      <trkpt lat="44.31599" lon="5.8298">
        <ele>577</ele>
        <time>2019-04-09T14:04:25Z</time>
      </trkpt>
      <trkpt lat="44.31598" lon="5.82979">
        <ele>577</ele>
        <time>2019-04-09T14:04:28Z</time>
      </trkpt>
      <trkpt lat="44.31596" lon="5.82977">
        <ele>577</ele>
        <time>2019-04-09T14:04:31Z</time>
      </trkpt>
      <trkpt lat="44.31595" lon="5.82976">
        <ele>577</ele>
        <time>2019-04-09T14:04:32Z</time>
      </trkpt>
      <trkpt lat="44.31595" lon="5.82974">
        <ele>577</ele>
        <time>2019-04-09T14:04:35Z</time>
      </trkpt>
    </trkseg>
  </trk>
</gpx>